<?xml version="1.0" encoding="UTF-8" standalone="no" ?>
<gpx xmlns="http://www.topografix.com/GPX/1/1" xmlns:xsi="http://www.w3.org/2001/XMLSchema-instance" xsi:schemaLocation="http://www.topografix.com/GPX/1/1 http://www.topografix.com/GPX/1/1/gpx.xsd" version="1.1" creator="VisuGPX - https://www.visugpx.com">
  <metadata>
    <name>22-10-29 - Tour-de-la-Nièvre acte 1</name>
    <desc><![CDATA[Méral]]></desc>
  </metadata>
  <trk>
    <name><![CDATA[22-10-29]]></name>
    <trkseg>
      <trkpt lat="46.88402" lon="3.14823">
        <ele>206</ele>
        <time>2022-10-29T02:28:06.000Z</time>
      </trkpt>
      <trkpt lat="46.88402" lon="3.14823">
        <ele>209.39999389648</ele>
        <time>2022-10-29T02:28:07.000Z</time>
      </trkpt>
      <trkpt lat="46.88402" lon="3.14823">
        <ele>213.80000305176</ele>
        <time>2022-10-29T02:28:08.000Z</time>
      </trkpt>
      <trkpt lat="46.88402" lon="3.14823">
        <ele>215.19999694824</ele>
        <time>2022-10-29T02:28:09.000Z</time>
      </trkpt>
      <trkpt lat="46.88402" lon="3.14824">
        <ele>216.19999694824</ele>
        <time>2022-10-29T02:28:12.000Z</time>
      </trkpt>
      <trkpt lat="46.88401" lon="3.14829">
        <ele>216.19999694824</ele>
        <time>2022-10-29T02:28:14.000Z</time>
      </trkpt>
      <trkpt lat="46.88401" lon="3.14832">
        <ele>216.19999694824</ele>
        <time>2022-10-29T02:28:15.000Z</time>
      </trkpt>
      <trkpt lat="46.88401" lon="3.14836">
        <ele>216.19999694824</ele>
        <time>2022-10-29T02:28:20.000Z</time>
      </trkpt>
      <trkpt lat="46.88401" lon="3.14837">
        <ele>216.19999694824</ele>
        <time>2022-10-29T02:28:22.000Z</time>
      </trkpt>
      <trkpt lat="46.88401" lon="3.14839">
        <ele>216.39999389648</ele>
        <time>2022-10-29T02:28:36.000Z</time>
      </trkpt>
      <trkpt lat="46.88401" lon="3.14839">
        <ele>216.39999389648</ele>
        <time>2022-10-29T02:28:40.000Z</time>
      </trkpt>
      <trkpt lat="46.8841" lon="3.14844">
        <ele>216.39999389648</ele>
        <time>2022-10-29T02:28:43.000Z</time>
      </trkpt>
      <trkpt lat="46.88414" lon="3.14847">
        <ele>216.39999389648</ele>
        <time>2022-10-29T02:28:44.000Z</time>
      </trkpt>
      <trkpt lat="46.88422" lon="3.14855">
        <ele>216.39999389648</ele>
        <time>2022-10-29T02:28:46.000Z</time>
      </trkpt>
      <trkpt lat="46.88428" lon="3.14868">
        <ele>216.39999389648</ele>
        <time>2022-10-29T02:28:48.000Z</time>
      </trkpt>
      <trkpt lat="46.88431" lon="3.14882">
        <ele>216.39999389648</ele>
        <time>2022-10-29T02:28:50.000Z</time>
      </trkpt>
      <trkpt lat="46.88432" lon="3.14919">
        <ele>216.60000610352</ele>
        <time>2022-10-29T02:28:55.000Z</time>
      </trkpt>
      <trkpt lat="46.88434" lon="3.14941">
        <ele>216.60000610352</ele>
        <time>2022-10-29T02:28:58.000Z</time>
      </trkpt>
      <trkpt lat="46.88435" lon="3.14955">
        <ele>216.39999389648</ele>
        <time>2022-10-29T02:29:01.000Z</time>
      </trkpt>
      <trkpt lat="46.88439" lon="3.14974">
        <ele>216.39999389648</ele>
        <time>2022-10-29T02:29:05.000Z</time>
      </trkpt>
      <trkpt lat="46.8844" lon="3.14981">
        <ele>216.39999389648</ele>
        <time>2022-10-29T02:29:06.000Z</time>
      </trkpt>
      <trkpt lat="46.88436" lon="3.14994">
        <ele>216.39999389648</ele>
        <time>2022-10-29T02:29:08.000Z</time>
      </trkpt>
      <trkpt lat="46.88422" lon="3.1504">
        <ele>216.19999694824</ele>
        <time>2022-10-29T02:29:15.000Z</time>
      </trkpt>
      <trkpt lat="46.88414" lon="3.1508">
        <ele>216</ele>
        <time>2022-10-29T02:29:21.000Z</time>
      </trkpt>
      <trkpt lat="46.88411" lon="3.15091">
        <ele>216.19999694824</ele>
        <time>2022-10-29T02:29:23.000Z</time>
      </trkpt>
      <trkpt lat="46.88413" lon="3.15102">
        <ele>216.19999694824</ele>
        <time>2022-10-29T02:29:25.000Z</time>
      </trkpt>
      <trkpt lat="46.88415" lon="3.15106">
        <ele>216.19999694824</ele>
        <time>2022-10-29T02:29:26.000Z</time>
      </trkpt>
      <trkpt lat="46.88424" lon="3.1511">
        <ele>216.19999694824</ele>
        <time>2022-10-29T02:29:28.000Z</time>
      </trkpt>
      <trkpt lat="46.88441" lon="3.15114">
        <ele>215.80000305176</ele>
        <time>2022-10-29T02:29:32.000Z</time>
      </trkpt>
      <trkpt lat="46.88449" lon="3.15117">
        <ele>215.19999694824</ele>
        <time>2022-10-29T02:29:34.000Z</time>
      </trkpt>
      <trkpt lat="46.88457" lon="3.1512">
        <ele>214.80000305176</ele>
        <time>2022-10-29T02:29:36.000Z</time>
      </trkpt>
      <trkpt lat="46.88461" lon="3.15121">
        <ele>214.60000610352</ele>
        <time>2022-10-29T02:29:37.000Z</time>
      </trkpt>
      <trkpt lat="46.88483" lon="3.1513">
        <ele>214.39999389648</ele>
        <time>2022-10-29T02:29:44.000Z</time>
      </trkpt>
      <trkpt lat="46.885" lon="3.15134">
        <ele>214.19999694824</ele>
        <time>2022-10-29T02:29:49.000Z</time>
      </trkpt>
      <trkpt lat="46.88504" lon="3.15139">
        <ele>214</ele>
        <time>2022-10-29T02:29:51.000Z</time>
      </trkpt>
      <trkpt lat="46.8851" lon="3.15152">
        <ele>213.80000305176</ele>
        <time>2022-10-29T02:29:55.000Z</time>
      </trkpt>
      <trkpt lat="46.88515" lon="3.15156">
        <ele>213.39999389648</ele>
        <time>2022-10-29T02:30:00.000Z</time>
      </trkpt>
      <trkpt lat="46.88517" lon="3.15157">
        <ele>213.19999694824</ele>
        <time>2022-10-29T02:30:08.000Z</time>
      </trkpt>
      <trkpt lat="46.88518" lon="3.15159">
        <ele>213.19999694824</ele>
        <time>2022-10-29T02:30:14.000Z</time>
      </trkpt>
      <trkpt lat="46.88518" lon="3.15159">
        <ele>213.19999694824</ele>
        <time>2022-10-29T02:30:15.000Z</time>
      </trkpt>
      <trkpt lat="46.88523" lon="3.15164">
        <ele>212.80000305176</ele>
        <time>2022-10-29T02:30:32.000Z</time>
      </trkpt>
      <trkpt lat="46.88523" lon="3.15164">
        <ele>212.80000305176</ele>
        <time>2022-10-29T02:30:40.000Z</time>
      </trkpt>
      <trkpt lat="46.88524" lon="3.15165">
        <ele>212.39999389648</ele>
        <time>2022-10-29T02:30:57.000Z</time>
      </trkpt>
      <trkpt lat="46.88524" lon="3.15165">
        <ele>212.39999389648</ele>
        <time>2022-10-29T02:32:02.000Z</time>
      </trkpt>
      <trkpt lat="46.88524" lon="3.15165">
        <ele>212.19999694824</ele>
        <time>2022-10-29T02:33:19.000Z</time>
      </trkpt>
      <trkpt lat="46.88524" lon="3.15165">
        <ele>212.80000305176</ele>
        <time>2022-10-29T02:34:48.000Z</time>
      </trkpt>
      <trkpt lat="46.88524" lon="3.15165">
        <ele>213</ele>
        <time>2022-10-29T02:36:30.000Z</time>
      </trkpt>
      <trkpt lat="46.88524" lon="3.15165">
        <ele>212.80000305176</ele>
        <time>2022-10-29T02:38:25.000Z</time>
      </trkpt>
      <trkpt lat="46.88524" lon="3.15165">
        <ele>213</ele>
        <time>2022-10-29T02:40:59.000Z</time>
      </trkpt>
      <trkpt lat="46.88524" lon="3.15165">
        <ele>212.60000610352</ele>
        <time>2022-10-29T02:42:06.000Z</time>
      </trkpt>
      <trkpt lat="46.88525" lon="3.15157">
        <ele>212.60000610352</ele>
        <time>2022-10-29T02:42:09.000Z</time>
      </trkpt>
      <trkpt lat="46.88524" lon="3.15142">
        <ele>212.80000305176</ele>
        <time>2022-10-29T02:42:14.000Z</time>
      </trkpt>
      <trkpt lat="46.88513" lon="3.15136">
        <ele>212.80000305176</ele>
        <time>2022-10-29T02:42:19.000Z</time>
      </trkpt>
      <trkpt lat="46.88492" lon="3.15129">
        <ele>213</ele>
        <time>2022-10-29T02:42:25.000Z</time>
      </trkpt>
      <trkpt lat="46.88464" lon="3.15119">
        <ele>213.39999389648</ele>
        <time>2022-10-29T02:42:33.000Z</time>
      </trkpt>
      <trkpt lat="46.88433" lon="3.15109">
        <ele>214.39999389648</ele>
        <time>2022-10-29T02:42:41.000Z</time>
      </trkpt>
      <trkpt lat="46.88429" lon="3.15108">
        <ele>214.39999389648</ele>
        <time>2022-10-29T02:42:42.000Z</time>
      </trkpt>
      <trkpt lat="46.88414" lon="3.15099">
        <ele>215</ele>
        <time>2022-10-29T02:42:47.000Z</time>
      </trkpt>
      <trkpt lat="46.88416" lon="3.15085">
        <ele>215</ele>
        <time>2022-10-29T02:42:50.000Z</time>
      </trkpt>
      <trkpt lat="46.88422" lon="3.15057">
        <ele>215.39999389648</ele>
        <time>2022-10-29T02:42:55.000Z</time>
      </trkpt>
      <trkpt lat="46.88424" lon="3.15051">
        <ele>215.39999389648</ele>
        <time>2022-10-29T02:42:56.000Z</time>
      </trkpt>
      <trkpt lat="46.88432" lon="3.15025">
        <ele>215.60000610352</ele>
        <time>2022-10-29T02:43:00.000Z</time>
      </trkpt>
      <trkpt lat="46.88445" lon="3.14978">
        <ele>215.80000305176</ele>
        <time>2022-10-29T02:43:06.000Z</time>
      </trkpt>
      <trkpt lat="46.88462" lon="3.14924">
        <ele>216</ele>
        <time>2022-10-29T02:43:13.000Z</time>
      </trkpt>
      <trkpt lat="46.88481" lon="3.14862">
        <ele>216.19999694824</ele>
        <time>2022-10-29T02:43:21.000Z</time>
      </trkpt>
      <trkpt lat="46.885" lon="3.14801">
        <ele>216.60000610352</ele>
        <time>2022-10-29T02:43:29.000Z</time>
      </trkpt>
      <trkpt lat="46.88503" lon="3.14793">
        <ele>216.60000610352</ele>
        <time>2022-10-29T02:43:30.000Z</time>
      </trkpt>
      <trkpt lat="46.88529" lon="3.14718">
        <ele>217.19999694824</ele>
        <time>2022-10-29T02:43:40.000Z</time>
      </trkpt>
      <trkpt lat="46.88534" lon="3.14702">
        <ele>217.19999694824</ele>
        <time>2022-10-29T02:43:42.000Z</time>
      </trkpt>
      <trkpt lat="46.88549" lon="3.14656">
        <ele>217.60000610352</ele>
        <time>2022-10-29T02:43:48.000Z</time>
      </trkpt>
      <trkpt lat="46.88565" lon="3.14601">
        <ele>217.60000610352</ele>
        <time>2022-10-29T02:43:55.000Z</time>
      </trkpt>
      <trkpt lat="46.88588" lon="3.14522">
        <ele>218</ele>
        <time>2022-10-29T02:44:05.000Z</time>
      </trkpt>
      <trkpt lat="46.88604" lon="3.1447">
        <ele>218.60000610352</ele>
        <time>2022-10-29T02:44:12.000Z</time>
      </trkpt>
      <trkpt lat="46.88606" lon="3.14463">
        <ele>218.80000305176</ele>
        <time>2022-10-29T02:44:13.000Z</time>
      </trkpt>
      <trkpt lat="46.88621" lon="3.14413">
        <ele>219.80000305176</ele>
        <time>2022-10-29T02:44:20.000Z</time>
      </trkpt>
      <trkpt lat="46.88634" lon="3.14369">
        <ele>220.80000305176</ele>
        <time>2022-10-29T02:44:26.000Z</time>
      </trkpt>
      <trkpt lat="46.8864" lon="3.14354">
        <ele>221</ele>
        <time>2022-10-29T02:44:28.000Z</time>
      </trkpt>
      <trkpt lat="46.88668" lon="3.14301">
        <ele>221.60000610352</ele>
        <time>2022-10-29T02:44:36.000Z</time>
      </trkpt>
      <trkpt lat="46.88676" lon="3.14289">
        <ele>222</ele>
        <time>2022-10-29T02:44:38.000Z</time>
      </trkpt>
      <trkpt lat="46.88694" lon="3.14266">
        <ele>222.39999389648</ele>
        <time>2022-10-29T02:44:42.000Z</time>
      </trkpt>
      <trkpt lat="46.88733" lon="3.14217">
        <ele>222.60000610352</ele>
        <time>2022-10-29T02:44:51.000Z</time>
      </trkpt>
      <trkpt lat="46.88759" lon="3.14188">
        <ele>223</ele>
        <time>2022-10-29T02:44:57.000Z</time>
      </trkpt>
      <trkpt lat="46.88764" lon="3.14184">
        <ele>223.19999694824</ele>
        <time>2022-10-29T02:44:58.000Z</time>
      </trkpt>
      <trkpt lat="46.88769" lon="3.14183">
        <ele>223.19999694824</ele>
        <time>2022-10-29T02:44:59.000Z</time>
      </trkpt>
      <trkpt lat="46.8878" lon="3.14184">
        <ele>223.39999389648</ele>
        <time>2022-10-29T02:45:01.000Z</time>
      </trkpt>
      <trkpt lat="46.88826" lon="3.14204">
        <ele>223.60000610352</ele>
        <time>2022-10-29T02:45:09.000Z</time>
      </trkpt>
      <trkpt lat="46.88871" lon="3.14222">
        <ele>223.19999694824</ele>
        <time>2022-10-29T02:45:17.000Z</time>
      </trkpt>
      <trkpt lat="46.88903" lon="3.14231">
        <ele>223.39999389648</ele>
        <time>2022-10-29T02:45:23.000Z</time>
      </trkpt>
      <trkpt lat="46.88922" lon="3.14238">
        <ele>223.80000305176</ele>
        <time>2022-10-29T02:45:28.000Z</time>
      </trkpt>
      <trkpt lat="46.88929" lon="3.1424">
        <ele>223.80000305176</ele>
        <time>2022-10-29T02:45:32.000Z</time>
      </trkpt>
      <trkpt lat="46.88929" lon="3.1424">
        <ele>223.80000305176</ele>
        <time>2022-10-29T02:45:33.000Z</time>
      </trkpt>
      <trkpt lat="46.88931" lon="3.14242">
        <ele>223.80000305176</ele>
        <time>2022-10-29T02:45:38.000Z</time>
      </trkpt>
      <trkpt lat="46.88931" lon="3.14242">
        <ele>223.19999694824</ele>
        <time>2022-10-29T02:47:33.000Z</time>
      </trkpt>
      <trkpt lat="46.88939" lon="3.14241">
        <ele>223.39999389648</ele>
        <time>2022-10-29T02:47:48.000Z</time>
      </trkpt>
      <trkpt lat="46.88959" lon="3.14247">
        <ele>223.60000610352</ele>
        <time>2022-10-29T02:47:53.000Z</time>
      </trkpt>
      <trkpt lat="46.88987" lon="3.14257">
        <ele>223.80000305176</ele>
        <time>2022-10-29T02:47:59.000Z</time>
      </trkpt>
      <trkpt lat="46.89002" lon="3.14262">
        <ele>224.19999694824</ele>
        <time>2022-10-29T02:48:02.000Z</time>
      </trkpt>
      <trkpt lat="46.89007" lon="3.14263">
        <ele>224.19999694824</ele>
        <time>2022-10-29T02:48:03.000Z</time>
      </trkpt>
      <trkpt lat="46.89023" lon="3.14269">
        <ele>224.39999389648</ele>
        <time>2022-10-29T02:48:06.000Z</time>
      </trkpt>
      <trkpt lat="46.89027" lon="3.14269">
        <ele>224.60000610352</ele>
        <time>2022-10-29T02:48:07.000Z</time>
      </trkpt>
      <trkpt lat="46.89031" lon="3.14266">
        <ele>224.60000610352</ele>
        <time>2022-10-29T02:48:08.000Z</time>
      </trkpt>
      <trkpt lat="46.89034" lon="3.14257">
        <ele>224.80000305176</ele>
        <time>2022-10-29T02:48:10.000Z</time>
      </trkpt>
      <trkpt lat="46.89038" lon="3.14232">
        <ele>225.39999389648</ele>
        <time>2022-10-29T02:48:14.000Z</time>
      </trkpt>
      <trkpt lat="46.89042" lon="3.14211">
        <ele>225.60000610352</ele>
        <time>2022-10-29T02:48:17.000Z</time>
      </trkpt>
      <trkpt lat="46.89055" lon="3.14163">
        <ele>226</ele>
        <time>2022-10-29T02:48:23.000Z</time>
      </trkpt>
      <trkpt lat="46.89071" lon="3.14112">
        <ele>225.80000305176</ele>
        <time>2022-10-29T02:48:29.000Z</time>
      </trkpt>
      <trkpt lat="46.89074" lon="3.14101">
        <ele>225.80000305176</ele>
        <time>2022-10-29T02:48:30.000Z</time>
      </trkpt>
      <trkpt lat="46.89091" lon="3.14046">
        <ele>224.60000610352</ele>
        <time>2022-10-29T02:48:35.000Z</time>
      </trkpt>
      <trkpt lat="46.89094" lon="3.14035">
        <ele>224</ele>
        <time>2022-10-29T02:48:36.000Z</time>
      </trkpt>
      <trkpt lat="46.89107" lon="3.14">
        <ele>222.80000305176</ele>
        <time>2022-10-29T02:48:39.000Z</time>
      </trkpt>
      <trkpt lat="46.8912" lon="3.13966">
        <ele>221.39999389648</ele>
        <time>2022-10-29T02:48:42.000Z</time>
      </trkpt>
      <trkpt lat="46.89141" lon="3.13909">
        <ele>220</ele>
        <time>2022-10-29T02:48:47.000Z</time>
      </trkpt>
      <trkpt lat="46.89155" lon="3.13871">
        <ele>219.19999694824</ele>
        <time>2022-10-29T02:48:50.000Z</time>
      </trkpt>
      <trkpt lat="46.89159" lon="3.13859">
        <ele>218.39999389648</ele>
        <time>2022-10-29T02:48:51.000Z</time>
      </trkpt>
      <trkpt lat="46.89169" lon="3.13834">
        <ele>217.19999694824</ele>
        <time>2022-10-29T02:48:53.000Z</time>
      </trkpt>
      <trkpt lat="46.8918" lon="3.13811">
        <ele>216.19999694824</ele>
        <time>2022-10-29T02:48:55.000Z</time>
      </trkpt>
      <trkpt lat="46.89186" lon="3.138">
        <ele>215.19999694824</ele>
        <time>2022-10-29T02:48:56.000Z</time>
      </trkpt>
      <trkpt lat="46.89192" lon="3.1379">
        <ele>215</ele>
        <time>2022-10-29T02:48:57.000Z</time>
      </trkpt>
      <trkpt lat="46.89206" lon="3.13773">
        <ele>213.60000610352</ele>
        <time>2022-10-29T02:48:59.000Z</time>
      </trkpt>
      <trkpt lat="46.89213" lon="3.13765">
        <ele>213.19999694824</ele>
        <time>2022-10-29T02:49:00.000Z</time>
      </trkpt>
      <trkpt lat="46.89227" lon="3.1375">
        <ele>212.60000610352</ele>
        <time>2022-10-29T02:49:02.000Z</time>
      </trkpt>
      <trkpt lat="46.89247" lon="3.13728">
        <ele>211.39999389648</ele>
        <time>2022-10-29T02:49:05.000Z</time>
      </trkpt>
      <trkpt lat="46.89252" lon="3.13721">
        <ele>211.19999694824</ele>
        <time>2022-10-29T02:49:06.000Z</time>
      </trkpt>
      <trkpt lat="46.89275" lon="3.13694">
        <ele>210.19999694824</ele>
        <time>2022-10-29T02:49:10.000Z</time>
      </trkpt>
      <trkpt lat="46.89282" lon="3.13686">
        <ele>209.80000305176</ele>
        <time>2022-10-29T02:49:11.000Z</time>
      </trkpt>
      <trkpt lat="46.89299" lon="3.13667">
        <ele>209.19999694824</ele>
        <time>2022-10-29T02:49:14.000Z</time>
      </trkpt>
      <trkpt lat="46.89328" lon="3.13631">
        <ele>208.60000610352</ele>
        <time>2022-10-29T02:49:19.000Z</time>
      </trkpt>
      <trkpt lat="46.89334" lon="3.13624">
        <ele>208.39999389648</ele>
        <time>2022-10-29T02:49:20.000Z</time>
      </trkpt>
      <trkpt lat="46.89369" lon="3.13583">
        <ele>207.39999389648</ele>
        <time>2022-10-29T02:49:26.000Z</time>
      </trkpt>
      <trkpt lat="46.89381" lon="3.13569">
        <ele>207.39999389648</ele>
        <time>2022-10-29T02:49:28.000Z</time>
      </trkpt>
      <trkpt lat="46.8942" lon="3.13523">
        <ele>207.19999694824</ele>
        <time>2022-10-29T02:49:35.000Z</time>
      </trkpt>
      <trkpt lat="46.89464" lon="3.13473">
        <ele>206.80000305176</ele>
        <time>2022-10-29T02:49:43.000Z</time>
      </trkpt>
      <trkpt lat="46.89513" lon="3.13434">
        <ele>206.60000610352</ele>
        <time>2022-10-29T02:49:51.000Z</time>
      </trkpt>
      <trkpt lat="46.89553" lon="3.13391">
        <ele>206.60000610352</ele>
        <time>2022-10-29T02:49:58.000Z</time>
      </trkpt>
      <trkpt lat="46.89595" lon="3.13337">
        <ele>206.80000305176</ele>
        <time>2022-10-29T02:50:06.000Z</time>
      </trkpt>
      <trkpt lat="46.89632" lon="3.13291">
        <ele>206.80000305176</ele>
        <time>2022-10-29T02:50:13.000Z</time>
      </trkpt>
      <trkpt lat="46.89641" lon="3.13284">
        <ele>206.80000305176</ele>
        <time>2022-10-29T02:50:15.000Z</time>
      </trkpt>
      <trkpt lat="46.89658" lon="3.13273">
        <ele>207</ele>
        <time>2022-10-29T02:50:18.000Z</time>
      </trkpt>
      <trkpt lat="46.89706" lon="3.13246">
        <ele>207.80000305176</ele>
        <time>2022-10-29T02:50:26.000Z</time>
      </trkpt>
      <trkpt lat="46.89722" lon="3.13237">
        <ele>208.39999389648</ele>
        <time>2022-10-29T02:50:29.000Z</time>
      </trkpt>
      <trkpt lat="46.89756" lon="3.13211">
        <ele>209</ele>
        <time>2022-10-29T02:50:35.000Z</time>
      </trkpt>
      <trkpt lat="46.8978" lon="3.13194">
        <ele>209.39999389648</ele>
        <time>2022-10-29T02:50:39.000Z</time>
      </trkpt>
      <trkpt lat="46.89818" lon="3.13166">
        <ele>209.80000305176</ele>
        <time>2022-10-29T02:50:46.000Z</time>
      </trkpt>
      <trkpt lat="46.89851" lon="3.13126">
        <ele>210.60000610352</ele>
        <time>2022-10-29T02:50:53.000Z</time>
      </trkpt>
      <trkpt lat="46.89892" lon="3.13085">
        <ele>211.19999694824</ele>
        <time>2022-10-29T02:51:01.000Z</time>
      </trkpt>
      <trkpt lat="46.89931" lon="3.1305">
        <ele>211.80000305176</ele>
        <time>2022-10-29T02:51:08.000Z</time>
      </trkpt>
      <trkpt lat="46.89957" lon="3.13026">
        <ele>212.19999694824</ele>
        <time>2022-10-29T02:51:13.000Z</time>
      </trkpt>
      <trkpt lat="46.89984" lon="3.12986">
        <ele>212.60000610352</ele>
        <time>2022-10-29T02:51:19.000Z</time>
      </trkpt>
      <trkpt lat="46.89993" lon="3.12959">
        <ele>212.80000305176</ele>
        <time>2022-10-29T02:51:22.000Z</time>
      </trkpt>
      <trkpt lat="46.89997" lon="3.12943">
        <ele>212.80000305176</ele>
        <time>2022-10-29T02:51:24.000Z</time>
      </trkpt>
      <trkpt lat="46.89999" lon="3.12932">
        <ele>213</ele>
        <time>2022-10-29T02:51:25.000Z</time>
      </trkpt>
      <trkpt lat="46.90002" lon="3.12923">
        <ele>213</ele>
        <time>2022-10-29T02:51:26.000Z</time>
      </trkpt>
      <trkpt lat="46.90015" lon="3.12889">
        <ele>213</ele>
        <time>2022-10-29T02:51:30.000Z</time>
      </trkpt>
      <trkpt lat="46.90049" lon="3.12845">
        <ele>213</ele>
        <time>2022-10-29T02:51:37.000Z</time>
      </trkpt>
      <trkpt lat="46.90075" lon="3.128">
        <ele>213</ele>
        <time>2022-10-29T02:51:43.000Z</time>
      </trkpt>
      <trkpt lat="46.90079" lon="3.1279">
        <ele>213</ele>
        <time>2022-10-29T02:51:44.000Z</time>
      </trkpt>
      <trkpt lat="46.90089" lon="3.12753">
        <ele>213</ele>
        <time>2022-10-29T02:51:48.000Z</time>
      </trkpt>
      <trkpt lat="46.90106" lon="3.1268">
        <ele>213</ele>
        <time>2022-10-29T02:51:56.000Z</time>
      </trkpt>
      <trkpt lat="46.90125" lon="3.12641">
        <ele>213</ele>
        <time>2022-10-29T02:52:01.000Z</time>
      </trkpt>
      <trkpt lat="46.90159" lon="3.12588">
        <ele>213.60000610352</ele>
        <time>2022-10-29T02:52:09.000Z</time>
      </trkpt>
      <trkpt lat="46.9019" lon="3.1254">
        <ele>214</ele>
        <time>2022-10-29T02:52:16.000Z</time>
      </trkpt>
      <trkpt lat="46.90202" lon="3.1252">
        <ele>214.19999694824</ele>
        <time>2022-10-29T02:52:19.000Z</time>
      </trkpt>
      <trkpt lat="46.90237" lon="3.12465">
        <ele>214.80000305176</ele>
        <time>2022-10-29T02:52:27.000Z</time>
      </trkpt>
      <trkpt lat="46.90245" lon="3.12453">
        <ele>215.19999694824</ele>
        <time>2022-10-29T02:52:29.000Z</time>
      </trkpt>
      <trkpt lat="46.90281" lon="3.12396">
        <ele>215.60000610352</ele>
        <time>2022-10-29T02:52:37.000Z</time>
      </trkpt>
      <trkpt lat="46.9031" lon="3.12347">
        <ele>215.60000610352</ele>
        <time>2022-10-29T02:52:44.000Z</time>
      </trkpt>
      <trkpt lat="46.90313" lon="3.12339">
        <ele>215.60000610352</ele>
        <time>2022-10-29T02:52:45.000Z</time>
      </trkpt>
      <trkpt lat="46.9032" lon="3.12316">
        <ele>215.60000610352</ele>
        <time>2022-10-29T02:52:48.000Z</time>
      </trkpt>
      <trkpt lat="46.90328" lon="3.12301">
        <ele>215.60000610352</ele>
        <time>2022-10-29T02:52:50.000Z</time>
      </trkpt>
      <trkpt lat="46.90334" lon="3.12296">
        <ele>215.60000610352</ele>
        <time>2022-10-29T02:52:51.000Z</time>
      </trkpt>
      <trkpt lat="46.90338" lon="3.12294">
        <ele>215.60000610352</ele>
        <time>2022-10-29T02:52:52.000Z</time>
      </trkpt>
      <trkpt lat="46.90351" lon="3.12291">
        <ele>215.60000610352</ele>
        <time>2022-10-29T02:52:54.000Z</time>
      </trkpt>
      <trkpt lat="46.90407" lon="3.1229">
        <ele>215.80000305176</ele>
        <time>2022-10-29T02:53:03.000Z</time>
      </trkpt>
      <trkpt lat="46.90466" lon="3.12289">
        <ele>215.60000610352</ele>
        <time>2022-10-29T02:53:12.000Z</time>
      </trkpt>
      <trkpt lat="46.90473" lon="3.12289">
        <ele>215.39999389648</ele>
        <time>2022-10-29T02:53:13.000Z</time>
      </trkpt>
      <trkpt lat="46.90528" lon="3.12288">
        <ele>214.60000610352</ele>
        <time>2022-10-29T02:53:21.000Z</time>
      </trkpt>
      <trkpt lat="46.90543" lon="3.12288">
        <ele>214.39999389648</ele>
        <time>2022-10-29T02:53:23.000Z</time>
      </trkpt>
      <trkpt lat="46.90556" lon="3.12288">
        <ele>214</ele>
        <time>2022-10-29T02:53:25.000Z</time>
      </trkpt>
      <trkpt lat="46.90613" lon="3.12287">
        <ele>213.19999694824</ele>
        <time>2022-10-29T02:53:33.000Z</time>
      </trkpt>
      <trkpt lat="46.90632" lon="3.12286">
        <ele>212.80000305176</ele>
        <time>2022-10-29T02:53:36.000Z</time>
      </trkpt>
      <trkpt lat="46.90688" lon="3.12283">
        <ele>212</ele>
        <time>2022-10-29T02:53:44.000Z</time>
      </trkpt>
      <trkpt lat="46.90694" lon="3.12283">
        <ele>212</ele>
        <time>2022-10-29T02:53:45.000Z</time>
      </trkpt>
      <trkpt lat="46.90707" lon="3.12282">
        <ele>211.80000305176</ele>
        <time>2022-10-29T02:53:47.000Z</time>
      </trkpt>
      <trkpt lat="46.90739" lon="3.12282">
        <ele>212</ele>
        <time>2022-10-29T02:53:52.000Z</time>
      </trkpt>
      <trkpt lat="46.90781" lon="3.12281">
        <ele>212.39999389648</ele>
        <time>2022-10-29T02:53:59.000Z</time>
      </trkpt>
      <trkpt lat="46.90815" lon="3.1228">
        <ele>213</ele>
        <time>2022-10-29T02:54:05.000Z</time>
      </trkpt>
      <trkpt lat="46.90827" lon="3.1228">
        <ele>213.39999389648</ele>
        <time>2022-10-29T02:54:07.000Z</time>
      </trkpt>
      <trkpt lat="46.90862" lon="3.1228">
        <ele>214.19999694824</ele>
        <time>2022-10-29T02:54:13.000Z</time>
      </trkpt>
      <trkpt lat="46.90882" lon="3.12279">
        <ele>214.60000610352</ele>
        <time>2022-10-29T02:54:17.000Z</time>
      </trkpt>
      <trkpt lat="46.90903" lon="3.12278">
        <ele>215.19999694824</ele>
        <time>2022-10-29T02:54:21.000Z</time>
      </trkpt>
      <trkpt lat="46.90928" lon="3.12278">
        <ele>216</ele>
        <time>2022-10-29T02:54:26.000Z</time>
      </trkpt>
      <trkpt lat="46.90938" lon="3.12278">
        <ele>216.19999694824</ele>
        <time>2022-10-29T02:54:28.000Z</time>
      </trkpt>
      <trkpt lat="46.90968" lon="3.12278">
        <ele>217.39999389648</ele>
        <time>2022-10-29T02:54:34.000Z</time>
      </trkpt>
      <trkpt lat="46.90994" lon="3.12277">
        <ele>218.60000610352</ele>
        <time>2022-10-29T02:54:40.000Z</time>
      </trkpt>
      <trkpt lat="46.91006" lon="3.12278">
        <ele>219.39999389648</ele>
        <time>2022-10-29T02:54:43.000Z</time>
      </trkpt>
      <trkpt lat="46.91014" lon="3.12278">
        <ele>219.80000305176</ele>
        <time>2022-10-29T02:54:45.000Z</time>
      </trkpt>
      <trkpt lat="46.91027" lon="3.12278">
        <ele>220.60000610352</ele>
        <time>2022-10-29T02:54:48.000Z</time>
      </trkpt>
      <trkpt lat="46.91034" lon="3.12278">
        <ele>221</ele>
        <time>2022-10-29T02:54:50.000Z</time>
      </trkpt>
      <trkpt lat="46.91054" lon="3.12276">
        <ele>222.19999694824</ele>
        <time>2022-10-29T02:54:55.000Z</time>
      </trkpt>
      <trkpt lat="46.91065" lon="3.12276">
        <ele>223</ele>
        <time>2022-10-29T02:54:58.000Z</time>
      </trkpt>
      <trkpt lat="46.91072" lon="3.12276">
        <ele>223.39999389648</ele>
        <time>2022-10-29T02:55:00.000Z</time>
      </trkpt>
      <trkpt lat="46.91095" lon="3.12276">
        <ele>224.39999389648</ele>
        <time>2022-10-29T02:55:06.000Z</time>
      </trkpt>
      <trkpt lat="46.91103" lon="3.12275">
        <ele>225</ele>
        <time>2022-10-29T02:55:08.000Z</time>
      </trkpt>
      <trkpt lat="46.91107" lon="3.12275">
        <ele>225.19999694824</ele>
        <time>2022-10-29T02:55:09.000Z</time>
      </trkpt>
      <trkpt lat="46.91127" lon="3.12275">
        <ele>226.39999389648</ele>
        <time>2022-10-29T02:55:14.000Z</time>
      </trkpt>
      <trkpt lat="46.91137" lon="3.12274">
        <ele>227.19999694824</ele>
        <time>2022-10-29T02:55:17.000Z</time>
      </trkpt>
      <trkpt lat="46.91145" lon="3.12273">
        <ele>227.60000610352</ele>
        <time>2022-10-29T02:55:19.000Z</time>
      </trkpt>
      <trkpt lat="46.91158" lon="3.12272">
        <ele>228.60000610352</ele>
        <time>2022-10-29T02:55:22.000Z</time>
      </trkpt>
      <trkpt lat="46.91181" lon="3.12271">
        <ele>229.39999389648</ele>
        <time>2022-10-29T02:55:27.000Z</time>
      </trkpt>
      <trkpt lat="46.91217" lon="3.12269">
        <ele>229.39999389648</ele>
        <time>2022-10-29T02:55:33.000Z</time>
      </trkpt>
      <trkpt lat="46.91253" lon="3.12269">
        <ele>227.80000305176</ele>
        <time>2022-10-29T02:55:38.000Z</time>
      </trkpt>
      <trkpt lat="46.91262" lon="3.12269">
        <ele>227.39999389648</ele>
        <time>2022-10-29T02:55:39.000Z</time>
      </trkpt>
      <trkpt lat="46.91276" lon="3.1227">
        <ele>226.80000305176</ele>
        <time>2022-10-29T02:55:41.000Z</time>
      </trkpt>
      <trkpt lat="46.91285" lon="3.12275">
        <ele>226.60000610352</ele>
        <time>2022-10-29T02:55:42.000Z</time>
      </trkpt>
      <trkpt lat="46.9129" lon="3.12281">
        <ele>225.80000305176</ele>
        <time>2022-10-29T02:55:43.000Z</time>
      </trkpt>
      <trkpt lat="46.91306" lon="3.123">
        <ele>224.19999694824</ele>
        <time>2022-10-29T02:55:46.000Z</time>
      </trkpt>
      <trkpt lat="46.91321" lon="3.12312">
        <ele>223</ele>
        <time>2022-10-29T02:55:48.000Z</time>
      </trkpt>
      <trkpt lat="46.9134" lon="3.12323">
        <ele>221.80000305176</ele>
        <time>2022-10-29T02:55:51.000Z</time>
      </trkpt>
      <trkpt lat="46.91372" lon="3.1234">
        <ele>220.80000305176</ele>
        <time>2022-10-29T02:55:56.000Z</time>
      </trkpt>
      <trkpt lat="46.91378" lon="3.12344">
        <ele>220.60000610352</ele>
        <time>2022-10-29T02:55:57.000Z</time>
      </trkpt>
      <trkpt lat="46.9142" lon="3.12366">
        <ele>220.19999694824</ele>
        <time>2022-10-29T02:56:04.000Z</time>
      </trkpt>
      <trkpt lat="46.9146" lon="3.12388">
        <ele>220.60000610352</ele>
        <time>2022-10-29T02:56:12.000Z</time>
      </trkpt>
      <trkpt lat="46.91484" lon="3.12404">
        <ele>221</ele>
        <time>2022-10-29T02:56:16.000Z</time>
      </trkpt>
      <trkpt lat="46.91488" lon="3.12408">
        <ele>221.19999694824</ele>
        <time>2022-10-29T02:56:17.000Z</time>
      </trkpt>
      <trkpt lat="46.91514" lon="3.12431">
        <ele>222.19999694824</ele>
        <time>2022-10-29T02:56:23.000Z</time>
      </trkpt>
      <trkpt lat="46.91517" lon="3.12435">
        <ele>222.19999694824</ele>
        <time>2022-10-29T02:56:24.000Z</time>
      </trkpt>
      <trkpt lat="46.91532" lon="3.12451">
        <ele>223.39999389648</ele>
        <time>2022-10-29T02:56:28.000Z</time>
      </trkpt>
      <trkpt lat="46.91547" lon="3.12469">
        <ele>224</ele>
        <time>2022-10-29T02:56:32.000Z</time>
      </trkpt>
      <trkpt lat="46.91554" lon="3.12478">
        <ele>224.39999389648</ele>
        <time>2022-10-29T02:56:34.000Z</time>
      </trkpt>
      <trkpt lat="46.91573" lon="3.12503">
        <ele>225.60000610352</ele>
        <time>2022-10-29T02:56:40.000Z</time>
      </trkpt>
      <trkpt lat="46.91576" lon="3.12507">
        <ele>225.60000610352</ele>
        <time>2022-10-29T02:56:41.000Z</time>
      </trkpt>
      <trkpt lat="46.91579" lon="3.12512">
        <ele>225.80000305176</ele>
        <time>2022-10-29T02:56:42.000Z</time>
      </trkpt>
      <trkpt lat="46.91594" lon="3.1253">
        <ele>226.60000610352</ele>
        <time>2022-10-29T02:56:47.000Z</time>
      </trkpt>
      <trkpt lat="46.91611" lon="3.1255">
        <ele>227.60000610352</ele>
        <time>2022-10-29T02:56:52.000Z</time>
      </trkpt>
      <trkpt lat="46.91623" lon="3.12565">
        <ele>228.60000610352</ele>
        <time>2022-10-29T02:56:56.000Z</time>
      </trkpt>
      <trkpt lat="46.91626" lon="3.12568">
        <ele>228.60000610352</ele>
        <time>2022-10-29T02:56:57.000Z</time>
      </trkpt>
      <trkpt lat="46.91641" lon="3.12585">
        <ele>230.19999694824</ele>
        <time>2022-10-29T02:57:02.000Z</time>
      </trkpt>
      <trkpt lat="46.91658" lon="3.12601">
        <ele>231.19999694824</ele>
        <time>2022-10-29T02:57:07.000Z</time>
      </trkpt>
      <trkpt lat="46.91674" lon="3.12615">
        <ele>232.39999389648</ele>
        <time>2022-10-29T02:57:12.000Z</time>
      </trkpt>
      <trkpt lat="46.91694" lon="3.12633">
        <ele>233.60000610352</ele>
        <time>2022-10-29T02:57:18.000Z</time>
      </trkpt>
      <trkpt lat="46.917" lon="3.12639">
        <ele>234</ele>
        <time>2022-10-29T02:57:20.000Z</time>
      </trkpt>
      <trkpt lat="46.91707" lon="3.12645">
        <ele>234.80000305176</ele>
        <time>2022-10-29T02:57:22.000Z</time>
      </trkpt>
      <trkpt lat="46.9172" lon="3.12656">
        <ele>236</ele>
        <time>2022-10-29T02:57:26.000Z</time>
      </trkpt>
      <trkpt lat="46.91733" lon="3.12668">
        <ele>237</ele>
        <time>2022-10-29T02:57:30.000Z</time>
      </trkpt>
      <trkpt lat="46.91736" lon="3.12671">
        <ele>237.19999694824</ele>
        <time>2022-10-29T02:57:31.000Z</time>
      </trkpt>
      <trkpt lat="46.91746" lon="3.12678">
        <ele>238.19999694824</ele>
        <time>2022-10-29T02:57:34.000Z</time>
      </trkpt>
      <trkpt lat="46.91753" lon="3.12686">
        <ele>238.80000305176</ele>
        <time>2022-10-29T02:57:37.000Z</time>
      </trkpt>
      <trkpt lat="46.91759" lon="3.12693">
        <ele>239.60000610352</ele>
        <time>2022-10-29T02:57:39.000Z</time>
      </trkpt>
      <trkpt lat="46.9177" lon="3.12703">
        <ele>240.19999694824</ele>
        <time>2022-10-29T02:57:43.000Z</time>
      </trkpt>
      <trkpt lat="46.91773" lon="3.12706">
        <ele>240.60000610352</ele>
        <time>2022-10-29T02:57:44.000Z</time>
      </trkpt>
      <trkpt lat="46.91795" lon="3.12726">
        <ele>241.80000305176</ele>
        <time>2022-10-29T02:57:52.000Z</time>
      </trkpt>
      <trkpt lat="46.91809" lon="3.1274">
        <ele>242.80000305176</ele>
        <time>2022-10-29T02:57:57.000Z</time>
      </trkpt>
      <trkpt lat="46.91812" lon="3.12743">
        <ele>243</ele>
        <time>2022-10-29T02:57:58.000Z</time>
      </trkpt>
      <trkpt lat="46.91825" lon="3.12752">
        <ele>243.80000305176</ele>
        <time>2022-10-29T02:58:02.000Z</time>
      </trkpt>
      <trkpt lat="46.91844" lon="3.12769">
        <ele>245</ele>
        <time>2022-10-29T02:58:08.000Z</time>
      </trkpt>
      <trkpt lat="46.91847" lon="3.12772">
        <ele>244.80000305176</ele>
        <time>2022-10-29T02:58:09.000Z</time>
      </trkpt>
      <trkpt lat="46.91863" lon="3.12787">
        <ele>246</ele>
        <time>2022-10-29T02:58:14.000Z</time>
      </trkpt>
      <trkpt lat="46.91866" lon="3.1279">
        <ele>246.19999694824</ele>
        <time>2022-10-29T02:58:15.000Z</time>
      </trkpt>
      <trkpt lat="46.91876" lon="3.12798">
        <ele>247</ele>
        <time>2022-10-29T02:58:18.000Z</time>
      </trkpt>
      <trkpt lat="46.91889" lon="3.12811">
        <ele>248</ele>
        <time>2022-10-29T02:58:22.000Z</time>
      </trkpt>
      <trkpt lat="46.91893" lon="3.12813">
        <ele>248.19999694824</ele>
        <time>2022-10-29T02:58:23.000Z</time>
      </trkpt>
      <trkpt lat="46.91908" lon="3.12827">
        <ele>249.19999694824</ele>
        <time>2022-10-29T02:58:28.000Z</time>
      </trkpt>
      <trkpt lat="46.9192" lon="3.12838">
        <ele>250.19999694824</ele>
        <time>2022-10-29T02:58:32.000Z</time>
      </trkpt>
      <trkpt lat="46.91923" lon="3.12841">
        <ele>250.39999389648</ele>
        <time>2022-10-29T02:58:33.000Z</time>
      </trkpt>
      <trkpt lat="46.91935" lon="3.12852">
        <ele>251.39999389648</ele>
        <time>2022-10-29T02:58:37.000Z</time>
      </trkpt>
      <trkpt lat="46.91945" lon="3.1286">
        <ele>252</ele>
        <time>2022-10-29T02:58:40.000Z</time>
      </trkpt>
      <trkpt lat="46.9195" lon="3.12865">
        <ele>252.39999389648</ele>
        <time>2022-10-29T02:58:42.000Z</time>
      </trkpt>
      <trkpt lat="46.91963" lon="3.12876">
        <ele>253.39999389648</ele>
        <time>2022-10-29T02:58:46.000Z</time>
      </trkpt>
      <trkpt lat="46.91966" lon="3.12878">
        <ele>253.60000610352</ele>
        <time>2022-10-29T02:58:47.000Z</time>
      </trkpt>
      <trkpt lat="46.91978" lon="3.12889">
        <ele>254.60000610352</ele>
        <time>2022-10-29T02:58:51.000Z</time>
      </trkpt>
      <trkpt lat="46.91987" lon="3.12898">
        <ele>255.19999694824</ele>
        <time>2022-10-29T02:58:54.000Z</time>
      </trkpt>
      <trkpt lat="46.91992" lon="3.12903">
        <ele>255.80000305176</ele>
        <time>2022-10-29T02:58:56.000Z</time>
      </trkpt>
      <trkpt lat="46.92008" lon="3.12916">
        <ele>257</ele>
        <time>2022-10-29T02:59:01.000Z</time>
      </trkpt>
      <trkpt lat="46.92014" lon="3.12922">
        <ele>257.39999389648</ele>
        <time>2022-10-29T02:59:03.000Z</time>
      </trkpt>
      <trkpt lat="46.9202" lon="3.12927">
        <ele>258</ele>
        <time>2022-10-29T02:59:05.000Z</time>
      </trkpt>
      <trkpt lat="46.9203" lon="3.12937">
        <ele>258.79998779297</ele>
        <time>2022-10-29T02:59:09.000Z</time>
      </trkpt>
      <trkpt lat="46.92033" lon="3.12939">
        <ele>259</ele>
        <time>2022-10-29T02:59:10.000Z</time>
      </trkpt>
      <trkpt lat="46.92038" lon="3.12944">
        <ele>259.60000610352</ele>
        <time>2022-10-29T02:59:12.000Z</time>
      </trkpt>
      <trkpt lat="46.92044" lon="3.12949">
        <ele>260</ele>
        <time>2022-10-29T02:59:14.000Z</time>
      </trkpt>
      <trkpt lat="46.92051" lon="3.12955">
        <ele>260.60000610352</ele>
        <time>2022-10-29T02:59:16.000Z</time>
      </trkpt>
      <trkpt lat="46.9206" lon="3.1297">
        <ele>261</ele>
        <time>2022-10-29T02:59:20.000Z</time>
      </trkpt>
      <trkpt lat="46.92064" lon="3.1298">
        <ele>261.20001220703</ele>
        <time>2022-10-29T02:59:22.000Z</time>
      </trkpt>
      <trkpt lat="46.92077" lon="3.13012">
        <ele>261.20001220703</ele>
        <time>2022-10-29T02:59:26.000Z</time>
      </trkpt>
      <trkpt lat="46.92095" lon="3.13066">
        <ele>259.39999389648</ele>
        <time>2022-10-29T02:59:31.000Z</time>
      </trkpt>
      <trkpt lat="46.92106" lon="3.13106">
        <ele>258.20001220703</ele>
        <time>2022-10-29T02:59:34.000Z</time>
      </trkpt>
      <trkpt lat="46.9211" lon="3.13119">
        <ele>257.20001220703</ele>
        <time>2022-10-29T02:59:35.000Z</time>
      </trkpt>
      <trkpt lat="46.92113" lon="3.13133">
        <ele>256.20001220703</ele>
        <time>2022-10-29T02:59:36.000Z</time>
      </trkpt>
      <trkpt lat="46.92117" lon="3.13146">
        <ele>255.60000610352</ele>
        <time>2022-10-29T02:59:37.000Z</time>
      </trkpt>
      <trkpt lat="46.92121" lon="3.1316">
        <ele>254.80000305176</ele>
        <time>2022-10-29T02:59:38.000Z</time>
      </trkpt>
      <trkpt lat="46.92132" lon="3.13185">
        <ele>253.80000305176</ele>
        <time>2022-10-29T02:59:40.000Z</time>
      </trkpt>
      <trkpt lat="46.92138" lon="3.13196">
        <ele>253.39999389648</ele>
        <time>2022-10-29T02:59:41.000Z</time>
      </trkpt>
      <trkpt lat="46.92145" lon="3.13206">
        <ele>252.39999389648</ele>
        <time>2022-10-29T02:59:42.000Z</time>
      </trkpt>
      <trkpt lat="46.92152" lon="3.13215">
        <ele>251.19999694824</ele>
        <time>2022-10-29T02:59:43.000Z</time>
      </trkpt>
      <trkpt lat="46.92167" lon="3.13235">
        <ele>249.80000305176</ele>
        <time>2022-10-29T02:59:45.000Z</time>
      </trkpt>
      <trkpt lat="46.92183" lon="3.13255">
        <ele>248.19999694824</ele>
        <time>2022-10-29T02:59:47.000Z</time>
      </trkpt>
      <trkpt lat="46.92191" lon="3.13263">
        <ele>247.19999694824</ele>
        <time>2022-10-29T02:59:48.000Z</time>
      </trkpt>
      <trkpt lat="46.92198" lon="3.13273">
        <ele>246.80000305176</ele>
        <time>2022-10-29T02:59:49.000Z</time>
      </trkpt>
      <trkpt lat="46.92204" lon="3.13283">
        <ele>246</ele>
        <time>2022-10-29T02:59:50.000Z</time>
      </trkpt>
      <trkpt lat="46.9221" lon="3.13293">
        <ele>245.60000610352</ele>
        <time>2022-10-29T02:59:51.000Z</time>
      </trkpt>
      <trkpt lat="46.92219" lon="3.13313">
        <ele>245.19999694824</ele>
        <time>2022-10-29T02:59:53.000Z</time>
      </trkpt>
      <trkpt lat="46.92241" lon="3.13369">
        <ele>246</ele>
        <time>2022-10-29T02:59:59.000Z</time>
      </trkpt>
      <trkpt lat="46.92265" lon="3.13403">
        <ele>247</ele>
        <time>2022-10-29T03:00:04.000Z</time>
      </trkpt>
      <trkpt lat="46.92289" lon="3.13431">
        <ele>248</ele>
        <time>2022-10-29T03:00:10.000Z</time>
      </trkpt>
      <trkpt lat="46.92305" lon="3.13449">
        <ele>248.80000305176</ele>
        <time>2022-10-29T03:00:15.000Z</time>
      </trkpt>
      <trkpt lat="46.92315" lon="3.1346">
        <ele>249.19999694824</ele>
        <time>2022-10-29T03:00:18.000Z</time>
      </trkpt>
      <trkpt lat="46.92327" lon="3.1347">
        <ele>250</ele>
        <time>2022-10-29T03:00:21.000Z</time>
      </trkpt>
      <trkpt lat="46.92335" lon="3.13474">
        <ele>250.19999694824</ele>
        <time>2022-10-29T03:00:23.000Z</time>
      </trkpt>
      <trkpt lat="46.92348" lon="3.13476">
        <ele>251</ele>
        <time>2022-10-29T03:00:26.000Z</time>
      </trkpt>
      <trkpt lat="46.92352" lon="3.13476">
        <ele>251.19999694824</ele>
        <time>2022-10-29T03:00:27.000Z</time>
      </trkpt>
      <trkpt lat="46.92371" lon="3.13479">
        <ele>252.39999389648</ele>
        <time>2022-10-29T03:00:32.000Z</time>
      </trkpt>
      <trkpt lat="46.9238" lon="3.13481">
        <ele>252.80000305176</ele>
        <time>2022-10-29T03:00:34.000Z</time>
      </trkpt>
      <trkpt lat="46.92394" lon="3.13486">
        <ele>253.60000610352</ele>
        <time>2022-10-29T03:00:38.000Z</time>
      </trkpt>
      <trkpt lat="46.92406" lon="3.13488">
        <ele>254.19999694824</ele>
        <time>2022-10-29T03:00:41.000Z</time>
      </trkpt>
      <trkpt lat="46.92418" lon="3.1349">
        <ele>254.80000305176</ele>
        <time>2022-10-29T03:00:44.000Z</time>
      </trkpt>
      <trkpt lat="46.92435" lon="3.13493">
        <ele>255.39999389648</ele>
        <time>2022-10-29T03:00:48.000Z</time>
      </trkpt>
      <trkpt lat="46.92447" lon="3.13496">
        <ele>255.80000305176</ele>
        <time>2022-10-29T03:00:51.000Z</time>
      </trkpt>
      <trkpt lat="46.92461" lon="3.13499">
        <ele>256</ele>
        <time>2022-10-29T03:00:54.000Z</time>
      </trkpt>
      <trkpt lat="46.92489" lon="3.13504">
        <ele>256</ele>
        <time>2022-10-29T03:00:59.000Z</time>
      </trkpt>
      <trkpt lat="46.92529" lon="3.13514">
        <ele>255.19999694824</ele>
        <time>2022-10-29T03:01:04.000Z</time>
      </trkpt>
      <trkpt lat="46.92536" lon="3.13516">
        <ele>254.80000305176</ele>
        <time>2022-10-29T03:01:05.000Z</time>
      </trkpt>
      <trkpt lat="46.92565" lon="3.13523">
        <ele>253.60000610352</ele>
        <time>2022-10-29T03:01:08.000Z</time>
      </trkpt>
      <trkpt lat="46.92581" lon="3.13527">
        <ele>252.19999694824</ele>
        <time>2022-10-29T03:01:10.000Z</time>
      </trkpt>
      <trkpt lat="46.92609" lon="3.13533">
        <ele>251</ele>
        <time>2022-10-29T03:01:13.000Z</time>
      </trkpt>
      <trkpt lat="46.92643" lon="3.1354">
        <ele>250</ele>
        <time>2022-10-29T03:01:17.000Z</time>
      </trkpt>
      <trkpt lat="46.92664" lon="3.13544">
        <ele>250</ele>
        <time>2022-10-29T03:01:20.000Z</time>
      </trkpt>
      <trkpt lat="46.92672" lon="3.13547">
        <ele>250</ele>
        <time>2022-10-29T03:01:21.000Z</time>
      </trkpt>
      <trkpt lat="46.92679" lon="3.13551">
        <ele>250</ele>
        <time>2022-10-29T03:01:22.000Z</time>
      </trkpt>
      <trkpt lat="46.92689" lon="3.13563">
        <ele>250.60000610352</ele>
        <time>2022-10-29T03:01:24.000Z</time>
      </trkpt>
      <trkpt lat="46.92698" lon="3.13589">
        <ele>251</ele>
        <time>2022-10-29T03:01:27.000Z</time>
      </trkpt>
      <trkpt lat="46.927" lon="3.13598">
        <ele>251.19999694824</ele>
        <time>2022-10-29T03:01:28.000Z</time>
      </trkpt>
      <trkpt lat="46.92707" lon="3.1366">
        <ele>252.19999694824</ele>
        <time>2022-10-29T03:01:34.000Z</time>
      </trkpt>
      <trkpt lat="46.92717" lon="3.13738">
        <ele>252.39999389648</ele>
        <time>2022-10-29T03:01:41.000Z</time>
      </trkpt>
      <trkpt lat="46.92719" lon="3.13758">
        <ele>252</ele>
        <time>2022-10-29T03:01:43.000Z</time>
      </trkpt>
      <trkpt lat="46.92722" lon="3.13784">
        <ele>251.19999694824</ele>
        <time>2022-10-29T03:01:45.000Z</time>
      </trkpt>
      <trkpt lat="46.92728" lon="3.13828">
        <ele>249.80000305176</ele>
        <time>2022-10-29T03:01:49.000Z</time>
      </trkpt>
      <trkpt lat="46.9273" lon="3.13852">
        <ele>249</ele>
        <time>2022-10-29T03:01:51.000Z</time>
      </trkpt>
      <trkpt lat="46.92732" lon="3.13865">
        <ele>248.39999389648</ele>
        <time>2022-10-29T03:01:52.000Z</time>
      </trkpt>
      <trkpt lat="46.92737" lon="3.13902">
        <ele>247.19999694824</ele>
        <time>2022-10-29T03:01:55.000Z</time>
      </trkpt>
      <trkpt lat="46.92742" lon="3.13939">
        <ele>246.19999694824</ele>
        <time>2022-10-29T03:01:58.000Z</time>
      </trkpt>
      <trkpt lat="46.92744" lon="3.1395">
        <ele>245.60000610352</ele>
        <time>2022-10-29T03:01:59.000Z</time>
      </trkpt>
      <trkpt lat="46.92752" lon="3.1397">
        <ele>244.39999389648</ele>
        <time>2022-10-29T03:02:01.000Z</time>
      </trkpt>
      <trkpt lat="46.92764" lon="3.13986">
        <ele>243.19999694824</ele>
        <time>2022-10-29T03:02:03.000Z</time>
      </trkpt>
      <trkpt lat="46.92772" lon="3.13992">
        <ele>242.39999389648</ele>
        <time>2022-10-29T03:02:04.000Z</time>
      </trkpt>
      <trkpt lat="46.9278" lon="3.13997">
        <ele>242</ele>
        <time>2022-10-29T03:02:05.000Z</time>
      </trkpt>
      <trkpt lat="46.92796" lon="3.14004">
        <ele>240.60000610352</ele>
        <time>2022-10-29T03:02:07.000Z</time>
      </trkpt>
      <trkpt lat="46.92807" lon="3.14008">
        <ele>240</ele>
        <time>2022-10-29T03:02:08.000Z</time>
      </trkpt>
      <trkpt lat="46.92816" lon="3.14012">
        <ele>239</ele>
        <time>2022-10-29T03:02:09.000Z</time>
      </trkpt>
      <trkpt lat="46.92845" lon="3.14024">
        <ele>237.60000610352</ele>
        <time>2022-10-29T03:02:12.000Z</time>
      </trkpt>
      <trkpt lat="46.92865" lon="3.14033">
        <ele>236.60000610352</ele>
        <time>2022-10-29T03:02:14.000Z</time>
      </trkpt>
      <trkpt lat="46.92875" lon="3.14037">
        <ele>236.19999694824</ele>
        <time>2022-10-29T03:02:15.000Z</time>
      </trkpt>
      <trkpt lat="46.92885" lon="3.14041">
        <ele>235.60000610352</ele>
        <time>2022-10-29T03:02:16.000Z</time>
      </trkpt>
      <trkpt lat="46.92905" lon="3.14049">
        <ele>234.19999694824</ele>
        <time>2022-10-29T03:02:18.000Z</time>
      </trkpt>
      <trkpt lat="46.92924" lon="3.14057">
        <ele>233.19999694824</ele>
        <time>2022-10-29T03:02:20.000Z</time>
      </trkpt>
      <trkpt lat="46.92955" lon="3.1407">
        <ele>232</ele>
        <time>2022-10-29T03:02:23.000Z</time>
      </trkpt>
      <trkpt lat="46.92965" lon="3.14075">
        <ele>231.39999389648</ele>
        <time>2022-10-29T03:02:24.000Z</time>
      </trkpt>
      <trkpt lat="46.92974" lon="3.14079">
        <ele>230.60000610352</ele>
        <time>2022-10-29T03:02:25.000Z</time>
      </trkpt>
      <trkpt lat="46.93004" lon="3.14092">
        <ele>228.80000305176</ele>
        <time>2022-10-29T03:02:28.000Z</time>
      </trkpt>
      <trkpt lat="46.93034" lon="3.14105">
        <ele>227.39999389648</ele>
        <time>2022-10-29T03:02:31.000Z</time>
      </trkpt>
      <trkpt lat="46.93054" lon="3.14114">
        <ele>226</ele>
        <time>2022-10-29T03:02:33.000Z</time>
      </trkpt>
      <trkpt lat="46.93074" lon="3.14123">
        <ele>225</ele>
        <time>2022-10-29T03:02:35.000Z</time>
      </trkpt>
      <trkpt lat="46.93104" lon="3.14137">
        <ele>223.60000610352</ele>
        <time>2022-10-29T03:02:38.000Z</time>
      </trkpt>
      <trkpt lat="46.93122" lon="3.14151">
        <ele>222</ele>
        <time>2022-10-29T03:02:40.000Z</time>
      </trkpt>
      <trkpt lat="46.93138" lon="3.14171">
        <ele>220.80000305176</ele>
        <time>2022-10-29T03:02:42.000Z</time>
      </trkpt>
      <trkpt lat="46.93145" lon="3.14183">
        <ele>220.19999694824</ele>
        <time>2022-10-29T03:02:43.000Z</time>
      </trkpt>
      <trkpt lat="46.93156" lon="3.14208">
        <ele>218.80000305176</ele>
        <time>2022-10-29T03:02:45.000Z</time>
      </trkpt>
      <trkpt lat="46.93163" lon="3.14234">
        <ele>217.60000610352</ele>
        <time>2022-10-29T03:02:47.000Z</time>
      </trkpt>
      <trkpt lat="46.93171" lon="3.14274">
        <ele>216.39999389648</ele>
        <time>2022-10-29T03:02:50.000Z</time>
      </trkpt>
      <trkpt lat="46.93175" lon="3.14299">
        <ele>216</ele>
        <time>2022-10-29T03:02:52.000Z</time>
      </trkpt>
      <trkpt lat="46.93188" lon="3.14364">
        <ele>216</ele>
        <time>2022-10-29T03:02:58.000Z</time>
      </trkpt>
      <trkpt lat="46.93208" lon="3.14412">
        <ele>216.39999389648</ele>
        <time>2022-10-29T03:03:04.000Z</time>
      </trkpt>
      <trkpt lat="46.93224" lon="3.14445">
        <ele>217.60000610352</ele>
        <time>2022-10-29T03:03:09.000Z</time>
      </trkpt>
      <trkpt lat="46.93227" lon="3.14452">
        <ele>217.80000305176</ele>
        <time>2022-10-29T03:03:10.000Z</time>
      </trkpt>
      <trkpt lat="46.93237" lon="3.14473">
        <ele>218.60000610352</ele>
        <time>2022-10-29T03:03:13.000Z</time>
      </trkpt>
      <trkpt lat="46.93258" lon="3.14514">
        <ele>219.39999389648</ele>
        <time>2022-10-29T03:03:19.000Z</time>
      </trkpt>
      <trkpt lat="46.93265" lon="3.14528">
        <ele>219.80000305176</ele>
        <time>2022-10-29T03:03:21.000Z</time>
      </trkpt>
      <trkpt lat="46.93288" lon="3.14573">
        <ele>220.80000305176</ele>
        <time>2022-10-29T03:03:28.000Z</time>
      </trkpt>
      <trkpt lat="46.93291" lon="3.1458">
        <ele>221</ele>
        <time>2022-10-29T03:03:29.000Z</time>
      </trkpt>
      <trkpt lat="46.93316" lon="3.14622">
        <ele>222</ele>
        <time>2022-10-29T03:03:36.000Z</time>
      </trkpt>
      <trkpt lat="46.9332" lon="3.14627">
        <ele>222.19999694824</ele>
        <time>2022-10-29T03:03:37.000Z</time>
      </trkpt>
      <trkpt lat="46.93343" lon="3.14643">
        <ele>222.19999694824</ele>
        <time>2022-10-29T03:03:41.000Z</time>
      </trkpt>
      <trkpt lat="46.93395" lon="3.14676">
        <ele>221.60000610352</ele>
        <time>2022-10-29T03:03:49.000Z</time>
      </trkpt>
      <trkpt lat="46.93409" lon="3.14684">
        <ele>220.80000305176</ele>
        <time>2022-10-29T03:03:51.000Z</time>
      </trkpt>
      <trkpt lat="46.93439" lon="3.14699">
        <ele>219.60000610352</ele>
        <time>2022-10-29T03:03:55.000Z</time>
      </trkpt>
      <trkpt lat="46.93447" lon="3.14702">
        <ele>219</ele>
        <time>2022-10-29T03:03:56.000Z</time>
      </trkpt>
      <trkpt lat="46.93464" lon="3.14703">
        <ele>218.19999694824</ele>
        <time>2022-10-29T03:03:58.000Z</time>
      </trkpt>
      <trkpt lat="46.93497" lon="3.14705">
        <ele>217</ele>
        <time>2022-10-29T03:04:02.000Z</time>
      </trkpt>
      <trkpt lat="46.93521" lon="3.14706">
        <ele>216</ele>
        <time>2022-10-29T03:04:05.000Z</time>
      </trkpt>
      <trkpt lat="46.93562" lon="3.1471">
        <ele>214.80000305176</ele>
        <time>2022-10-29T03:04:10.000Z</time>
      </trkpt>
      <trkpt lat="46.93586" lon="3.14715">
        <ele>213.80000305176</ele>
        <time>2022-10-29T03:04:13.000Z</time>
      </trkpt>
      <trkpt lat="46.93594" lon="3.14717">
        <ele>213.60000610352</ele>
        <time>2022-10-29T03:04:14.000Z</time>
      </trkpt>
      <trkpt lat="46.93617" lon="3.14723">
        <ele>212.60000610352</ele>
        <time>2022-10-29T03:04:17.000Z</time>
      </trkpt>
      <trkpt lat="46.93639" lon="3.14728">
        <ele>211.39999389648</ele>
        <time>2022-10-29T03:04:20.000Z</time>
      </trkpt>
      <trkpt lat="46.93653" lon="3.14731">
        <ele>211.19999694824</ele>
        <time>2022-10-29T03:04:22.000Z</time>
      </trkpt>
      <trkpt lat="46.93696" lon="3.14742">
        <ele>210.60000610352</ele>
        <time>2022-10-29T03:04:28.000Z</time>
      </trkpt>
      <trkpt lat="46.93752" lon="3.14749">
        <ele>210.60000610352</ele>
        <time>2022-10-29T03:04:36.000Z</time>
      </trkpt>
      <trkpt lat="46.93758" lon="3.14749">
        <ele>210.60000610352</ele>
        <time>2022-10-29T03:04:37.000Z</time>
      </trkpt>
      <trkpt lat="46.93786" lon="3.14751">
        <ele>210.39999389648</ele>
        <time>2022-10-29T03:04:41.000Z</time>
      </trkpt>
      <trkpt lat="46.93807" lon="3.14748">
        <ele>210.19999694824</ele>
        <time>2022-10-29T03:04:44.000Z</time>
      </trkpt>
      <trkpt lat="46.93842" lon="3.14734">
        <ele>209.60000610352</ele>
        <time>2022-10-29T03:04:49.000Z</time>
      </trkpt>
      <trkpt lat="46.93849" lon="3.14729">
        <ele>209.39999389648</ele>
        <time>2022-10-29T03:04:50.000Z</time>
      </trkpt>
      <trkpt lat="46.93855" lon="3.14723">
        <ele>209.39999389648</ele>
        <time>2022-10-29T03:04:51.000Z</time>
      </trkpt>
      <trkpt lat="46.9388" lon="3.147">
        <ele>208.60000610352</ele>
        <time>2022-10-29T03:04:55.000Z</time>
      </trkpt>
      <trkpt lat="46.93892" lon="3.14689">
        <ele>208.39999389648</ele>
        <time>2022-10-29T03:04:57.000Z</time>
      </trkpt>
      <trkpt lat="46.9392" lon="3.14672">
        <ele>207.60000610352</ele>
        <time>2022-10-29T03:05:01.000Z</time>
      </trkpt>
      <trkpt lat="46.93942" lon="3.14667">
        <ele>207.19999694824</ele>
        <time>2022-10-29T03:05:04.000Z</time>
      </trkpt>
      <trkpt lat="46.93957" lon="3.14666">
        <ele>206.80000305176</ele>
        <time>2022-10-29T03:05:06.000Z</time>
      </trkpt>
      <trkpt lat="46.93978" lon="3.14666">
        <ele>206</ele>
        <time>2022-10-29T03:05:09.000Z</time>
      </trkpt>
      <trkpt lat="46.94006" lon="3.14667">
        <ele>205.39999389648</ele>
        <time>2022-10-29T03:05:13.000Z</time>
      </trkpt>
      <trkpt lat="46.94066" lon="3.14668">
        <ele>205</ele>
        <time>2022-10-29T03:05:22.000Z</time>
      </trkpt>
      <trkpt lat="46.94113" lon="3.14669">
        <ele>205</ele>
        <time>2022-10-29T03:05:29.000Z</time>
      </trkpt>
      <trkpt lat="46.94145" lon="3.1467">
        <ele>204.60000610352</ele>
        <time>2022-10-29T03:05:34.000Z</time>
      </trkpt>
      <trkpt lat="46.94202" lon="3.14671">
        <ele>204.39999389648</ele>
        <time>2022-10-29T03:05:42.000Z</time>
      </trkpt>
      <trkpt lat="46.94217" lon="3.14671">
        <ele>203.80000305176</ele>
        <time>2022-10-29T03:05:44.000Z</time>
      </trkpt>
      <trkpt lat="46.94255" lon="3.14672">
        <ele>202.80000305176</ele>
        <time>2022-10-29T03:05:49.000Z</time>
      </trkpt>
      <trkpt lat="46.94278" lon="3.14672">
        <ele>201.80000305176</ele>
        <time>2022-10-29T03:05:52.000Z</time>
      </trkpt>
      <trkpt lat="46.94286" lon="3.14673">
        <ele>201.60000610352</ele>
        <time>2022-10-29T03:05:53.000Z</time>
      </trkpt>
      <trkpt lat="46.94336" lon="3.14673">
        <ele>200.80000305176</ele>
        <time>2022-10-29T03:06:00.000Z</time>
      </trkpt>
      <trkpt lat="46.94364" lon="3.14674">
        <ele>200.60000610352</ele>
        <time>2022-10-29T03:06:04.000Z</time>
      </trkpt>
      <trkpt lat="46.94403" lon="3.14675">
        <ele>200.80000305176</ele>
        <time>2022-10-29T03:06:10.000Z</time>
      </trkpt>
      <trkpt lat="46.94459" lon="3.14685">
        <ele>201.19999694824</ele>
        <time>2022-10-29T03:06:19.000Z</time>
      </trkpt>
      <trkpt lat="46.945" lon="3.14696">
        <ele>201.60000610352</ele>
        <time>2022-10-29T03:06:26.000Z</time>
      </trkpt>
      <trkpt lat="46.94537" lon="3.14706">
        <ele>201.80000305176</ele>
        <time>2022-10-29T03:06:32.000Z</time>
      </trkpt>
      <trkpt lat="46.9455" lon="3.14709">
        <ele>202</ele>
        <time>2022-10-29T03:06:34.000Z</time>
      </trkpt>
      <trkpt lat="46.94606" lon="3.14724">
        <ele>202.19999694824</ele>
        <time>2022-10-29T03:06:43.000Z</time>
      </trkpt>
      <trkpt lat="46.94655" lon="3.14736">
        <ele>202.19999694824</ele>
        <time>2022-10-29T03:06:51.000Z</time>
      </trkpt>
      <trkpt lat="46.94711" lon="3.14747">
        <ele>202.60000610352</ele>
        <time>2022-10-29T03:07:00.000Z</time>
      </trkpt>
      <trkpt lat="46.94717" lon="3.14748">
        <ele>202.60000610352</ele>
        <time>2022-10-29T03:07:01.000Z</time>
      </trkpt>
      <trkpt lat="46.94734" lon="3.1475">
        <ele>202.80000305176</ele>
        <time>2022-10-29T03:07:04.000Z</time>
      </trkpt>
      <trkpt lat="46.94758" lon="3.14753">
        <ele>203.60000610352</ele>
        <time>2022-10-29T03:07:08.000Z</time>
      </trkpt>
      <trkpt lat="46.94764" lon="3.14753">
        <ele>203.60000610352</ele>
        <time>2022-10-29T03:07:09.000Z</time>
      </trkpt>
      <trkpt lat="46.94779" lon="3.14753">
        <ele>203.80000305176</ele>
        <time>2022-10-29T03:07:12.000Z</time>
      </trkpt>
      <trkpt lat="46.9479" lon="3.14754">
        <ele>204</ele>
        <time>2022-10-29T03:07:14.000Z</time>
      </trkpt>
      <trkpt lat="46.94811" lon="3.14754">
        <ele>204.39999389648</ele>
        <time>2022-10-29T03:07:18.000Z</time>
      </trkpt>
      <trkpt lat="46.94822" lon="3.14753">
        <ele>205</ele>
        <time>2022-10-29T03:07:20.000Z</time>
      </trkpt>
      <trkpt lat="46.94857" lon="3.14751">
        <ele>205.60000610352</ele>
        <time>2022-10-29T03:07:27.000Z</time>
      </trkpt>
      <trkpt lat="46.94873" lon="3.14751">
        <ele>206</ele>
        <time>2022-10-29T03:07:30.000Z</time>
      </trkpt>
      <trkpt lat="46.949" lon="3.14748">
        <ele>206.80000305176</ele>
        <time>2022-10-29T03:07:35.000Z</time>
      </trkpt>
      <trkpt lat="46.94921" lon="3.14744">
        <ele>207</ele>
        <time>2022-10-29T03:07:39.000Z</time>
      </trkpt>
      <trkpt lat="46.94927" lon="3.14743">
        <ele>207.19999694824</ele>
        <time>2022-10-29T03:07:40.000Z</time>
      </trkpt>
      <trkpt lat="46.94936" lon="3.14743">
        <ele>207.60000610352</ele>
        <time>2022-10-29T03:07:42.000Z</time>
      </trkpt>
      <trkpt lat="46.94957" lon="3.14737">
        <ele>208.19999694824</ele>
        <time>2022-10-29T03:07:46.000Z</time>
      </trkpt>
      <trkpt lat="46.94981" lon="3.14731">
        <ele>208.60000610352</ele>
        <time>2022-10-29T03:07:50.000Z</time>
      </trkpt>
      <trkpt lat="46.95025" lon="3.14729">
        <ele>208</ele>
        <time>2022-10-29T03:07:57.000Z</time>
      </trkpt>
      <trkpt lat="46.95051" lon="3.14721">
        <ele>207</ele>
        <time>2022-10-29T03:08:01.000Z</time>
      </trkpt>
      <trkpt lat="46.95066" lon="3.14715">
        <ele>206.60000610352</ele>
        <time>2022-10-29T03:08:03.000Z</time>
      </trkpt>
      <trkpt lat="46.95084" lon="3.14706">
        <ele>205.80000305176</ele>
        <time>2022-10-29T03:08:06.000Z</time>
      </trkpt>
      <trkpt lat="46.95112" lon="3.14694">
        <ele>205.19999694824</ele>
        <time>2022-10-29T03:08:10.000Z</time>
      </trkpt>
      <trkpt lat="46.95135" lon="3.14688">
        <ele>204.60000610352</ele>
        <time>2022-10-29T03:08:13.000Z</time>
      </trkpt>
      <trkpt lat="46.95152" lon="3.14686">
        <ele>204</ele>
        <time>2022-10-29T03:08:15.000Z</time>
      </trkpt>
      <trkpt lat="46.9516" lon="3.14686">
        <ele>203.39999389648</ele>
        <time>2022-10-29T03:08:16.000Z</time>
      </trkpt>
      <trkpt lat="46.95195" lon="3.14686">
        <ele>201.80000305176</ele>
        <time>2022-10-29T03:08:20.000Z</time>
      </trkpt>
      <trkpt lat="46.95204" lon="3.14687">
        <ele>201.19999694824</ele>
        <time>2022-10-29T03:08:21.000Z</time>
      </trkpt>
      <trkpt lat="46.95222" lon="3.14689">
        <ele>200.19999694824</ele>
        <time>2022-10-29T03:08:23.000Z</time>
      </trkpt>
      <trkpt lat="46.95245" lon="3.14693">
        <ele>199.19999694824</ele>
        <time>2022-10-29T03:08:26.000Z</time>
      </trkpt>
      <trkpt lat="46.95279" lon="3.14699">
        <ele>197.80000305176</ele>
        <time>2022-10-29T03:08:30.000Z</time>
      </trkpt>
      <trkpt lat="46.95304" lon="3.14704">
        <ele>196.80000305176</ele>
        <time>2022-10-29T03:08:33.000Z</time>
      </trkpt>
      <trkpt lat="46.95321" lon="3.14707">
        <ele>196</ele>
        <time>2022-10-29T03:08:35.000Z</time>
      </trkpt>
      <trkpt lat="46.9534" lon="3.14711">
        <ele>195.39999389648</ele>
        <time>2022-10-29T03:08:37.000Z</time>
      </trkpt>
      <trkpt lat="46.95372" lon="3.14719">
        <ele>194.19999694824</ele>
        <time>2022-10-29T03:08:41.000Z</time>
      </trkpt>
      <trkpt lat="46.95388" lon="3.14725">
        <ele>193</ele>
        <time>2022-10-29T03:08:43.000Z</time>
      </trkpt>
      <trkpt lat="46.95412" lon="3.14741">
        <ele>192.39999389648</ele>
        <time>2022-10-29T03:08:47.000Z</time>
      </trkpt>
      <trkpt lat="46.95435" lon="3.14747">
        <ele>193</ele>
        <time>2022-10-29T03:08:51.000Z</time>
      </trkpt>
      <trkpt lat="46.95441" lon="3.1475">
        <ele>193</ele>
        <time>2022-10-29T03:08:52.000Z</time>
      </trkpt>
      <trkpt lat="46.95446" lon="3.14754">
        <ele>193.19999694824</ele>
        <time>2022-10-29T03:08:53.000Z</time>
      </trkpt>
      <trkpt lat="46.95462" lon="3.14774">
        <ele>193.19999694824</ele>
        <time>2022-10-29T03:08:56.000Z</time>
      </trkpt>
      <trkpt lat="46.95493" lon="3.14813">
        <ele>192.60000610352</ele>
        <time>2022-10-29T03:09:01.000Z</time>
      </trkpt>
      <trkpt lat="46.95507" lon="3.14831">
        <ele>191.60000610352</ele>
        <time>2022-10-29T03:09:03.000Z</time>
      </trkpt>
      <trkpt lat="46.95521" lon="3.14849">
        <ele>190.19999694824</ele>
        <time>2022-10-29T03:09:05.000Z</time>
      </trkpt>
      <trkpt lat="46.95536" lon="3.14867">
        <ele>189</ele>
        <time>2022-10-29T03:09:07.000Z</time>
      </trkpt>
      <trkpt lat="46.95551" lon="3.14883">
        <ele>187.80000305176</ele>
        <time>2022-10-29T03:09:09.000Z</time>
      </trkpt>
      <trkpt lat="46.95573" lon="3.14904">
        <ele>186.60000610352</ele>
        <time>2022-10-29T03:09:12.000Z</time>
      </trkpt>
      <trkpt lat="46.95587" lon="3.14914">
        <ele>186.19999694824</ele>
        <time>2022-10-29T03:09:14.000Z</time>
      </trkpt>
      <trkpt lat="46.95616" lon="3.14936">
        <ele>185.60000610352</ele>
        <time>2022-10-29T03:09:18.000Z</time>
      </trkpt>
      <trkpt lat="46.95635" lon="3.14949">
        <ele>185.39999389648</ele>
        <time>2022-10-29T03:09:21.000Z</time>
      </trkpt>
      <trkpt lat="46.95687" lon="3.14987">
        <ele>185</ele>
        <time>2022-10-29T03:09:29.000Z</time>
      </trkpt>
      <trkpt lat="46.95693" lon="3.14992">
        <ele>185</ele>
        <time>2022-10-29T03:09:30.000Z</time>
      </trkpt>
      <trkpt lat="46.95744" lon="3.15033">
        <ele>184.80000305176</ele>
        <time>2022-10-29T03:09:38.000Z</time>
      </trkpt>
      <trkpt lat="46.95763" lon="3.15048">
        <ele>184.60000610352</ele>
        <time>2022-10-29T03:09:41.000Z</time>
      </trkpt>
      <trkpt lat="46.95797" lon="3.1507">
        <ele>184.39999389648</ele>
        <time>2022-10-29T03:09:47.000Z</time>
      </trkpt>
      <trkpt lat="46.9581" lon="3.1509">
        <ele>184.39999389648</ele>
        <time>2022-10-29T03:09:50.000Z</time>
      </trkpt>
      <trkpt lat="46.95813" lon="3.15094">
        <ele>184.80000305176</ele>
        <time>2022-10-29T03:09:51.000Z</time>
      </trkpt>
      <trkpt lat="46.9582" lon="3.15099">
        <ele>184.80000305176</ele>
        <time>2022-10-29T03:09:52.000Z</time>
      </trkpt>
      <trkpt lat="46.95829" lon="3.15101">
        <ele>184.80000305176</ele>
        <time>2022-10-29T03:09:54.000Z</time>
      </trkpt>
      <trkpt lat="46.95839" lon="3.15103">
        <ele>184.80000305176</ele>
        <time>2022-10-29T03:09:56.000Z</time>
      </trkpt>
      <trkpt lat="46.95844" lon="3.15107">
        <ele>184.80000305176</ele>
        <time>2022-10-29T03:09:57.000Z</time>
      </trkpt>
      <trkpt lat="46.95862" lon="3.15124">
        <ele>184.39999389648</ele>
        <time>2022-10-29T03:10:03.000Z</time>
      </trkpt>
      <trkpt lat="46.95863" lon="3.15125">
        <ele>184.39999389648</ele>
        <time>2022-10-29T03:10:04.000Z</time>
      </trkpt>
      <trkpt lat="46.95864" lon="3.15123">
        <ele>184.39999389648</ele>
        <time>2022-10-29T03:10:06.000Z</time>
      </trkpt>
      <trkpt lat="46.95857" lon="3.15108">
        <ele>184.19999694824</ele>
        <time>2022-10-29T03:10:11.000Z</time>
      </trkpt>
      <trkpt lat="46.9585" lon="3.15089">
        <ele>184.39999389648</ele>
        <time>2022-10-29T03:10:15.000Z</time>
      </trkpt>
      <trkpt lat="46.95849" lon="3.15082">
        <ele>184.39999389648</ele>
        <time>2022-10-29T03:10:16.000Z</time>
      </trkpt>
      <trkpt lat="46.95849" lon="3.15068">
        <ele>184.60000610352</ele>
        <time>2022-10-29T03:10:18.000Z</time>
      </trkpt>
      <trkpt lat="46.95852" lon="3.15055">
        <ele>184.60000610352</ele>
        <time>2022-10-29T03:10:20.000Z</time>
      </trkpt>
      <trkpt lat="46.95861" lon="3.15047">
        <ele>184.60000610352</ele>
        <time>2022-10-29T03:10:22.000Z</time>
      </trkpt>
      <trkpt lat="46.95866" lon="3.15044">
        <ele>184.60000610352</ele>
        <time>2022-10-29T03:10:23.000Z</time>
      </trkpt>
      <trkpt lat="46.95871" lon="3.15043">
        <ele>184.60000610352</ele>
        <time>2022-10-29T03:10:24.000Z</time>
      </trkpt>
      <trkpt lat="46.9588" lon="3.15043">
        <ele>184.60000610352</ele>
        <time>2022-10-29T03:10:26.000Z</time>
      </trkpt>
      <trkpt lat="46.95885" lon="3.15046">
        <ele>184.60000610352</ele>
        <time>2022-10-29T03:10:27.000Z</time>
      </trkpt>
      <trkpt lat="46.95889" lon="3.1505">
        <ele>184.60000610352</ele>
        <time>2022-10-29T03:10:28.000Z</time>
      </trkpt>
      <trkpt lat="46.95901" lon="3.15066">
        <ele>184.60000610352</ele>
        <time>2022-10-29T03:10:31.000Z</time>
      </trkpt>
      <trkpt lat="46.9592" lon="3.15097">
        <ele>184.60000610352</ele>
        <time>2022-10-29T03:10:36.000Z</time>
      </trkpt>
      <trkpt lat="46.9593" lon="3.15107">
        <ele>184.80000305176</ele>
        <time>2022-10-29T03:10:38.000Z</time>
      </trkpt>
      <trkpt lat="46.95946" lon="3.15121">
        <ele>184.80000305176</ele>
        <time>2022-10-29T03:10:41.000Z</time>
      </trkpt>
      <trkpt lat="46.95964" lon="3.15132">
        <ele>184.60000610352</ele>
        <time>2022-10-29T03:10:44.000Z</time>
      </trkpt>
      <trkpt lat="46.95984" lon="3.15142">
        <ele>184.39999389648</ele>
        <time>2022-10-29T03:10:47.000Z</time>
      </trkpt>
      <trkpt lat="46.96003" lon="3.15153">
        <ele>184.19999694824</ele>
        <time>2022-10-29T03:10:50.000Z</time>
      </trkpt>
      <trkpt lat="46.96048" lon="3.15193">
        <ele>184.19999694824</ele>
        <time>2022-10-29T03:10:58.000Z</time>
      </trkpt>
      <trkpt lat="46.9608" lon="3.15226">
        <ele>184.19999694824</ele>
        <time>2022-10-29T03:11:04.000Z</time>
      </trkpt>
      <trkpt lat="46.96123" lon="3.15265">
        <ele>184</ele>
        <time>2022-10-29T03:11:12.000Z</time>
      </trkpt>
      <trkpt lat="46.96159" lon="3.1529">
        <ele>183.80000305176</ele>
        <time>2022-10-29T03:11:18.000Z</time>
      </trkpt>
      <trkpt lat="46.96165" lon="3.15293">
        <ele>183.80000305176</ele>
        <time>2022-10-29T03:11:19.000Z</time>
      </trkpt>
      <trkpt lat="46.96221" lon="3.15325">
        <ele>183.60000610352</ele>
        <time>2022-10-29T03:11:28.000Z</time>
      </trkpt>
      <trkpt lat="46.96275" lon="3.1536">
        <ele>183.39999389648</ele>
        <time>2022-10-29T03:11:37.000Z</time>
      </trkpt>
      <trkpt lat="46.9632" lon="3.15382">
        <ele>183.19999694824</ele>
        <time>2022-10-29T03:11:44.000Z</time>
      </trkpt>
      <trkpt lat="46.96364" lon="3.15402">
        <ele>183.19999694824</ele>
        <time>2022-10-29T03:11:51.000Z</time>
      </trkpt>
      <trkpt lat="46.96422" lon="3.15425">
        <ele>183.60000610352</ele>
        <time>2022-10-29T03:12:00.000Z</time>
      </trkpt>
      <trkpt lat="46.96469" lon="3.15445">
        <ele>183.60000610352</ele>
        <time>2022-10-29T03:12:07.000Z</time>
      </trkpt>
      <trkpt lat="46.96525" lon="3.1547">
        <ele>183.39999389648</ele>
        <time>2022-10-29T03:12:16.000Z</time>
      </trkpt>
      <trkpt lat="46.96531" lon="3.15474">
        <ele>183.39999389648</ele>
        <time>2022-10-29T03:12:17.000Z</time>
      </trkpt>
      <trkpt lat="46.9659" lon="3.15496">
        <ele>183.60000610352</ele>
        <time>2022-10-29T03:12:26.000Z</time>
      </trkpt>
      <trkpt lat="46.96645" lon="3.15517">
        <ele>183.39999389648</ele>
        <time>2022-10-29T03:12:35.000Z</time>
      </trkpt>
      <trkpt lat="46.96653" lon="3.15519">
        <ele>183.39999389648</ele>
        <time>2022-10-29T03:12:36.000Z</time>
      </trkpt>
      <trkpt lat="46.96677" lon="3.15523">
        <ele>183.39999389648</ele>
        <time>2022-10-29T03:12:40.000Z</time>
      </trkpt>
      <trkpt lat="46.96685" lon="3.15524">
        <ele>183.39999389648</ele>
        <time>2022-10-29T03:12:41.000Z</time>
      </trkpt>
      <trkpt lat="46.96697" lon="3.15523">
        <ele>183.60000610352</ele>
        <time>2022-10-29T03:12:43.000Z</time>
      </trkpt>
      <trkpt lat="46.96737" lon="3.1553">
        <ele>183.80000305176</ele>
        <time>2022-10-29T03:12:49.000Z</time>
      </trkpt>
      <trkpt lat="46.96794" lon="3.15539">
        <ele>184</ele>
        <time>2022-10-29T03:12:58.000Z</time>
      </trkpt>
      <trkpt lat="46.96834" lon="3.15546">
        <ele>184</ele>
        <time>2022-10-29T03:13:04.000Z</time>
      </trkpt>
      <trkpt lat="46.9684" lon="3.15549">
        <ele>184</ele>
        <time>2022-10-29T03:13:05.000Z</time>
      </trkpt>
      <trkpt lat="46.96881" lon="3.15579">
        <ele>184.19999694824</ele>
        <time>2022-10-29T03:13:12.000Z</time>
      </trkpt>
      <trkpt lat="46.9692" lon="3.15614">
        <ele>184</ele>
        <time>2022-10-29T03:13:19.000Z</time>
      </trkpt>
      <trkpt lat="46.96949" lon="3.1564">
        <ele>183.60000610352</ele>
        <time>2022-10-29T03:13:25.000Z</time>
      </trkpt>
      <trkpt lat="46.96957" lon="3.15646">
        <ele>183.60000610352</ele>
        <time>2022-10-29T03:13:27.000Z</time>
      </trkpt>
      <trkpt lat="46.96961" lon="3.15651">
        <ele>183.60000610352</ele>
        <time>2022-10-29T03:13:29.000Z</time>
      </trkpt>
      <trkpt lat="46.96968" lon="3.15667">
        <ele>184</ele>
        <time>2022-10-29T03:13:34.000Z</time>
      </trkpt>
      <trkpt lat="46.96978" lon="3.15678">
        <ele>184.60000610352</ele>
        <time>2022-10-29T03:13:38.000Z</time>
      </trkpt>
      <trkpt lat="46.96985" lon="3.15682">
        <ele>184.80000305176</ele>
        <time>2022-10-29T03:13:40.000Z</time>
      </trkpt>
      <trkpt lat="46.97002" lon="3.15688">
        <ele>185.19999694824</ele>
        <time>2022-10-29T03:13:44.000Z</time>
      </trkpt>
      <trkpt lat="46.97006" lon="3.15689">
        <ele>185.19999694824</ele>
        <time>2022-10-29T03:13:45.000Z</time>
      </trkpt>
      <trkpt lat="46.9702" lon="3.15693">
        <ele>185.39999389648</ele>
        <time>2022-10-29T03:13:49.000Z</time>
      </trkpt>
      <trkpt lat="46.97061" lon="3.15706">
        <ele>185.80000305176</ele>
        <time>2022-10-29T03:13:56.000Z</time>
      </trkpt>
      <trkpt lat="46.97066" lon="3.15708">
        <ele>186</ele>
        <time>2022-10-29T03:13:57.000Z</time>
      </trkpt>
      <trkpt lat="46.97072" lon="3.1571">
        <ele>186</ele>
        <time>2022-10-29T03:13:58.000Z</time>
      </trkpt>
      <trkpt lat="46.97095" lon="3.15717">
        <ele>186.19999694824</ele>
        <time>2022-10-29T03:14:02.000Z</time>
      </trkpt>
      <trkpt lat="46.97136" lon="3.15729">
        <ele>186.39999389648</ele>
        <time>2022-10-29T03:14:09.000Z</time>
      </trkpt>
      <trkpt lat="46.97191" lon="3.15747">
        <ele>186.80000305176</ele>
        <time>2022-10-29T03:14:18.000Z</time>
      </trkpt>
      <trkpt lat="46.97247" lon="3.15764">
        <ele>186.80000305176</ele>
        <time>2022-10-29T03:14:27.000Z</time>
      </trkpt>
      <trkpt lat="46.97304" lon="3.15782">
        <ele>186.80000305176</ele>
        <time>2022-10-29T03:14:36.000Z</time>
      </trkpt>
      <trkpt lat="46.97316" lon="3.15787">
        <ele>186.80000305176</ele>
        <time>2022-10-29T03:14:38.000Z</time>
      </trkpt>
      <trkpt lat="46.97369" lon="3.15803">
        <ele>187</ele>
        <time>2022-10-29T03:14:46.000Z</time>
      </trkpt>
      <trkpt lat="46.97426" lon="3.15823">
        <ele>187</ele>
        <time>2022-10-29T03:14:55.000Z</time>
      </trkpt>
      <trkpt lat="46.97431" lon="3.15825">
        <ele>187</ele>
        <time>2022-10-29T03:14:56.000Z</time>
      </trkpt>
      <trkpt lat="46.97486" lon="3.15843">
        <ele>187</ele>
        <time>2022-10-29T03:15:05.000Z</time>
      </trkpt>
      <trkpt lat="46.97517" lon="3.15852">
        <ele>187</ele>
        <time>2022-10-29T03:15:10.000Z</time>
      </trkpt>
      <trkpt lat="46.97536" lon="3.15858">
        <ele>186.60000610352</ele>
        <time>2022-10-29T03:15:13.000Z</time>
      </trkpt>
      <trkpt lat="46.97591" lon="3.15876">
        <ele>186.60000610352</ele>
        <time>2022-10-29T03:15:22.000Z</time>
      </trkpt>
      <trkpt lat="46.97596" lon="3.15877">
        <ele>186.60000610352</ele>
        <time>2022-10-29T03:15:23.000Z</time>
      </trkpt>
      <trkpt lat="46.97631" lon="3.15889">
        <ele>186.60000610352</ele>
        <time>2022-10-29T03:15:29.000Z</time>
      </trkpt>
      <trkpt lat="46.97685" lon="3.15905">
        <ele>186.60000610352</ele>
        <time>2022-10-29T03:15:38.000Z</time>
      </trkpt>
      <trkpt lat="46.97724" lon="3.15917">
        <ele>186.80000305176</ele>
        <time>2022-10-29T03:15:45.000Z</time>
      </trkpt>
      <trkpt lat="46.97745" lon="3.15925">
        <ele>187</ele>
        <time>2022-10-29T03:15:50.000Z</time>
      </trkpt>
      <trkpt lat="46.97749" lon="3.15926">
        <ele>187</ele>
        <time>2022-10-29T03:15:51.000Z</time>
      </trkpt>
      <trkpt lat="46.9777" lon="3.15933">
        <ele>187.19999694824</ele>
        <time>2022-10-29T03:15:56.000Z</time>
      </trkpt>
      <trkpt lat="46.97791" lon="3.15941">
        <ele>187.19999694824</ele>
        <time>2022-10-29T03:16:01.000Z</time>
      </trkpt>
      <trkpt lat="46.97794" lon="3.15943">
        <ele>187.19999694824</ele>
        <time>2022-10-29T03:16:02.000Z</time>
      </trkpt>
      <trkpt lat="46.97802" lon="3.15944">
        <ele>187.19999694824</ele>
        <time>2022-10-29T03:16:04.000Z</time>
      </trkpt>
      <trkpt lat="46.97812" lon="3.15949">
        <ele>187.19999694824</ele>
        <time>2022-10-29T03:16:09.000Z</time>
      </trkpt>
      <trkpt lat="46.97814" lon="3.15952">
        <ele>187.19999694824</ele>
        <time>2022-10-29T03:16:14.000Z</time>
      </trkpt>
      <trkpt lat="46.97816" lon="3.15953">
        <ele>187.19999694824</ele>
        <time>2022-10-29T03:16:19.000Z</time>
      </trkpt>
      <trkpt lat="46.97816" lon="3.15953">
        <ele>187</ele>
        <time>2022-10-29T03:16:39.000Z</time>
      </trkpt>
      <trkpt lat="46.97816" lon="3.15953">
        <ele>186.80000305176</ele>
        <time>2022-10-29T03:17:27.000Z</time>
      </trkpt>
      <trkpt lat="46.9782" lon="3.15951">
        <ele>186.80000305176</ele>
        <time>2022-10-29T03:20:21.000Z</time>
      </trkpt>
      <trkpt lat="46.97822" lon="3.15952">
        <ele>186.80000305176</ele>
        <time>2022-10-29T03:20:22.000Z</time>
      </trkpt>
      <trkpt lat="46.97835" lon="3.15955">
        <ele>186.80000305176</ele>
        <time>2022-10-29T03:20:27.000Z</time>
      </trkpt>
      <trkpt lat="46.97852" lon="3.15964">
        <ele>186.80000305176</ele>
        <time>2022-10-29T03:20:31.000Z</time>
      </trkpt>
      <trkpt lat="46.97857" lon="3.15965">
        <ele>186.80000305176</ele>
        <time>2022-10-29T03:20:32.000Z</time>
      </trkpt>
      <trkpt lat="46.97884" lon="3.15973">
        <ele>186.80000305176</ele>
        <time>2022-10-29T03:20:37.000Z</time>
      </trkpt>
      <trkpt lat="46.97932" lon="3.1599">
        <ele>187</ele>
        <time>2022-10-29T03:20:45.000Z</time>
      </trkpt>
      <trkpt lat="46.97975" lon="3.16001">
        <ele>187.19999694824</ele>
        <time>2022-10-29T03:20:52.000Z</time>
      </trkpt>
      <trkpt lat="46.98029" lon="3.16019">
        <ele>187.60000610352</ele>
        <time>2022-10-29T03:21:01.000Z</time>
      </trkpt>
      <trkpt lat="46.98074" lon="3.16033">
        <ele>188.19999694824</ele>
        <time>2022-10-29T03:21:09.000Z</time>
      </trkpt>
      <trkpt lat="46.98108" lon="3.16045">
        <ele>188.60000610352</ele>
        <time>2022-10-29T03:21:15.000Z</time>
      </trkpt>
      <trkpt lat="46.98113" lon="3.16047">
        <ele>188.60000610352</ele>
        <time>2022-10-29T03:21:16.000Z</time>
      </trkpt>
      <trkpt lat="46.98135" lon="3.16051">
        <ele>189.39999389648</ele>
        <time>2022-10-29T03:21:20.000Z</time>
      </trkpt>
      <trkpt lat="46.98141" lon="3.16051">
        <ele>189.60000610352</ele>
        <time>2022-10-29T03:21:21.000Z</time>
      </trkpt>
      <trkpt lat="46.98147" lon="3.16051">
        <ele>189.60000610352</ele>
        <time>2022-10-29T03:21:22.000Z</time>
      </trkpt>
      <trkpt lat="46.98153" lon="3.1605">
        <ele>189.80000305176</ele>
        <time>2022-10-29T03:21:23.000Z</time>
      </trkpt>
      <trkpt lat="46.9817" lon="3.16044">
        <ele>190</ele>
        <time>2022-10-29T03:21:26.000Z</time>
      </trkpt>
      <trkpt lat="46.98182" lon="3.16037">
        <ele>190</ele>
        <time>2022-10-29T03:21:28.000Z</time>
      </trkpt>
      <trkpt lat="46.98202" lon="3.16019">
        <ele>190.19999694824</ele>
        <time>2022-10-29T03:21:32.000Z</time>
      </trkpt>
      <trkpt lat="46.98245" lon="3.15985">
        <ele>190.60000610352</ele>
        <time>2022-10-29T03:21:40.000Z</time>
      </trkpt>
      <trkpt lat="46.98294" lon="3.15947">
        <ele>190.60000610352</ele>
        <time>2022-10-29T03:21:49.000Z</time>
      </trkpt>
      <trkpt lat="46.98335" lon="3.15913">
        <ele>190.60000610352</ele>
        <time>2022-10-29T03:21:57.000Z</time>
      </trkpt>
      <trkpt lat="46.98386" lon="3.15873">
        <ele>190.19999694824</ele>
        <time>2022-10-29T03:22:07.000Z</time>
      </trkpt>
      <trkpt lat="46.984" lon="3.15862">
        <ele>190.19999694824</ele>
        <time>2022-10-29T03:22:10.000Z</time>
      </trkpt>
      <trkpt lat="46.98441" lon="3.15829">
        <ele>190.19999694824</ele>
        <time>2022-10-29T03:22:18.000Z</time>
      </trkpt>
      <trkpt lat="46.98477" lon="3.15799">
        <ele>190.19999694824</ele>
        <time>2022-10-29T03:22:26.000Z</time>
      </trkpt>
      <trkpt lat="46.98486" lon="3.15796">
        <ele>190.19999694824</ele>
        <time>2022-10-29T03:22:28.000Z</time>
      </trkpt>
      <trkpt lat="46.98491" lon="3.15798">
        <ele>190.19999694824</ele>
        <time>2022-10-29T03:22:29.000Z</time>
      </trkpt>
      <trkpt lat="46.98495" lon="3.15801">
        <ele>190.19999694824</ele>
        <time>2022-10-29T03:22:30.000Z</time>
      </trkpt>
      <trkpt lat="46.98504" lon="3.15801">
        <ele>190.19999694824</ele>
        <time>2022-10-29T03:22:32.000Z</time>
      </trkpt>
      <trkpt lat="46.98508" lon="3.15793">
        <ele>190.19999694824</ele>
        <time>2022-10-29T03:22:34.000Z</time>
      </trkpt>
      <trkpt lat="46.98507" lon="3.15782">
        <ele>190</ele>
        <time>2022-10-29T03:22:36.000Z</time>
      </trkpt>
      <trkpt lat="46.98506" lon="3.15779">
        <ele>190</ele>
        <time>2022-10-29T03:22:37.000Z</time>
      </trkpt>
      <trkpt lat="46.98493" lon="3.15764">
        <ele>190</ele>
        <time>2022-10-29T03:22:41.000Z</time>
      </trkpt>
      <trkpt lat="46.9849" lon="3.15758">
        <ele>189.80000305176</ele>
        <time>2022-10-29T03:22:42.000Z</time>
      </trkpt>
      <trkpt lat="46.98481" lon="3.15734">
        <ele>189.60000610352</ele>
        <time>2022-10-29T03:22:45.000Z</time>
      </trkpt>
      <trkpt lat="46.98469" lon="3.15698">
        <ele>188.80000305176</ele>
        <time>2022-10-29T03:22:49.000Z</time>
      </trkpt>
      <trkpt lat="46.98463" lon="3.15683">
        <ele>187.80000305176</ele>
        <time>2022-10-29T03:22:51.000Z</time>
      </trkpt>
      <trkpt lat="46.98456" lon="3.15663">
        <ele>186.60000610352</ele>
        <time>2022-10-29T03:22:53.000Z</time>
      </trkpt>
      <trkpt lat="46.98448" lon="3.15639">
        <ele>185.19999694824</ele>
        <time>2022-10-29T03:22:56.000Z</time>
      </trkpt>
      <trkpt lat="46.98441" lon="3.15612">
        <ele>184.80000305176</ele>
        <time>2022-10-29T03:22:59.000Z</time>
      </trkpt>
      <trkpt lat="46.98429" lon="3.15567">
        <ele>184.19999694824</ele>
        <time>2022-10-29T03:23:04.000Z</time>
      </trkpt>
      <trkpt lat="46.98426" lon="3.15559">
        <ele>184.19999694824</ele>
        <time>2022-10-29T03:23:05.000Z</time>
      </trkpt>
      <trkpt lat="46.98424" lon="3.15552">
        <ele>184.19999694824</ele>
        <time>2022-10-29T03:23:06.000Z</time>
      </trkpt>
      <trkpt lat="46.98416" lon="3.15531">
        <ele>184.19999694824</ele>
        <time>2022-10-29T03:23:09.000Z</time>
      </trkpt>
      <trkpt lat="46.98412" lon="3.15518">
        <ele>184.19999694824</ele>
        <time>2022-10-29T03:23:11.000Z</time>
      </trkpt>
      <trkpt lat="46.9841" lon="3.15512">
        <ele>184.19999694824</ele>
        <time>2022-10-29T03:23:12.000Z</time>
      </trkpt>
      <trkpt lat="46.98407" lon="3.15494">
        <ele>184</ele>
        <time>2022-10-29T03:23:15.000Z</time>
      </trkpt>
      <trkpt lat="46.98399" lon="3.15459">
        <ele>184.19999694824</ele>
        <time>2022-10-29T03:23:20.000Z</time>
      </trkpt>
      <trkpt lat="46.98396" lon="3.15446">
        <ele>184.19999694824</ele>
        <time>2022-10-29T03:23:22.000Z</time>
      </trkpt>
      <trkpt lat="46.98395" lon="3.15431">
        <ele>184.19999694824</ele>
        <time>2022-10-29T03:23:24.000Z</time>
      </trkpt>
      <trkpt lat="46.98396" lon="3.15425">
        <ele>184.19999694824</ele>
        <time>2022-10-29T03:23:25.000Z</time>
      </trkpt>
      <trkpt lat="46.98396" lon="3.15418">
        <ele>184.39999389648</ele>
        <time>2022-10-29T03:23:26.000Z</time>
      </trkpt>
      <trkpt lat="46.98395" lon="3.15408">
        <ele>184.60000610352</ele>
        <time>2022-10-29T03:23:28.000Z</time>
      </trkpt>
      <trkpt lat="46.98386" lon="3.15395">
        <ele>184.60000610352</ele>
        <time>2022-10-29T03:23:31.000Z</time>
      </trkpt>
      <trkpt lat="46.98382" lon="3.15391">
        <ele>184.60000610352</ele>
        <time>2022-10-29T03:23:32.000Z</time>
      </trkpt>
      <trkpt lat="46.98377" lon="3.15384">
        <ele>184.60000610352</ele>
        <time>2022-10-29T03:23:34.000Z</time>
      </trkpt>
      <trkpt lat="46.98377" lon="3.15376">
        <ele>184.60000610352</ele>
        <time>2022-10-29T03:23:35.000Z</time>
      </trkpt>
      <trkpt lat="46.98372" lon="3.15348">
        <ele>184.60000610352</ele>
        <time>2022-10-29T03:23:38.000Z</time>
      </trkpt>
      <trkpt lat="46.98367" lon="3.15336">
        <ele>184.60000610352</ele>
        <time>2022-10-29T03:23:40.000Z</time>
      </trkpt>
      <trkpt lat="46.98365" lon="3.15318">
        <ele>184.60000610352</ele>
        <time>2022-10-29T03:23:42.000Z</time>
      </trkpt>
      <trkpt lat="46.98358" lon="3.15291">
        <ele>184.60000610352</ele>
        <time>2022-10-29T03:23:45.000Z</time>
      </trkpt>
      <trkpt lat="46.98352" lon="3.15265">
        <ele>184.60000610352</ele>
        <time>2022-10-29T03:23:48.000Z</time>
      </trkpt>
      <trkpt lat="46.9835" lon="3.15258">
        <ele>184.60000610352</ele>
        <time>2022-10-29T03:23:49.000Z</time>
      </trkpt>
      <trkpt lat="46.98342" lon="3.15223">
        <ele>184.60000610352</ele>
        <time>2022-10-29T03:23:53.000Z</time>
      </trkpt>
      <trkpt lat="46.98338" lon="3.1521">
        <ele>184.60000610352</ele>
        <time>2022-10-29T03:23:55.000Z</time>
      </trkpt>
      <trkpt lat="46.98336" lon="3.15192">
        <ele>184.60000610352</ele>
        <time>2022-10-29T03:23:57.000Z</time>
      </trkpt>
      <trkpt lat="46.98336" lon="3.15182">
        <ele>184.60000610352</ele>
        <time>2022-10-29T03:23:58.000Z</time>
      </trkpt>
      <trkpt lat="46.98337" lon="3.15131">
        <ele>184.60000610352</ele>
        <time>2022-10-29T03:24:04.000Z</time>
      </trkpt>
      <trkpt lat="46.98336" lon="3.15122">
        <ele>184.60000610352</ele>
        <time>2022-10-29T03:24:05.000Z</time>
      </trkpt>
      <trkpt lat="46.98336" lon="3.15114">
        <ele>184.60000610352</ele>
        <time>2022-10-29T03:24:06.000Z</time>
      </trkpt>
      <trkpt lat="46.98337" lon="3.15087">
        <ele>184.60000610352</ele>
        <time>2022-10-29T03:24:09.000Z</time>
      </trkpt>
      <trkpt lat="46.98335" lon="3.15078">
        <ele>184.80000305176</ele>
        <time>2022-10-29T03:24:10.000Z</time>
      </trkpt>
      <trkpt lat="46.98325" lon="3.15026">
        <ele>185</ele>
        <time>2022-10-29T03:24:16.000Z</time>
      </trkpt>
      <trkpt lat="46.98323" lon="3.15019">
        <ele>185.19999694824</ele>
        <time>2022-10-29T03:24:17.000Z</time>
      </trkpt>
      <trkpt lat="46.98322" lon="3.15012">
        <ele>185.19999694824</ele>
        <time>2022-10-29T03:24:18.000Z</time>
      </trkpt>
      <trkpt lat="46.98316" lon="3.14971">
        <ele>185.39999389648</ele>
        <time>2022-10-29T03:24:23.000Z</time>
      </trkpt>
      <trkpt lat="46.98315" lon="3.14963">
        <ele>185.39999389648</ele>
        <time>2022-10-29T03:24:24.000Z</time>
      </trkpt>
      <trkpt lat="46.98312" lon="3.14947">
        <ele>185.60000610352</ele>
        <time>2022-10-29T03:24:26.000Z</time>
      </trkpt>
      <trkpt lat="46.98311" lon="3.14938">
        <ele>185.60000610352</ele>
        <time>2022-10-29T03:24:27.000Z</time>
      </trkpt>
      <trkpt lat="46.98307" lon="3.1492">
        <ele>185.60000610352</ele>
        <time>2022-10-29T03:24:29.000Z</time>
      </trkpt>
      <trkpt lat="46.98307" lon="3.14914">
        <ele>185.60000610352</ele>
        <time>2022-10-29T03:24:30.000Z</time>
      </trkpt>
      <trkpt lat="46.9831" lon="3.14907">
        <ele>185.60000610352</ele>
        <time>2022-10-29T03:24:31.000Z</time>
      </trkpt>
      <trkpt lat="46.98311" lon="3.14893">
        <ele>185.80000305176</ele>
        <time>2022-10-29T03:24:33.000Z</time>
      </trkpt>
      <trkpt lat="46.98306" lon="3.14881">
        <ele>186</ele>
        <time>2022-10-29T03:24:35.000Z</time>
      </trkpt>
      <trkpt lat="46.98302" lon="3.14877">
        <ele>186.19999694824</ele>
        <time>2022-10-29T03:24:36.000Z</time>
      </trkpt>
      <trkpt lat="46.98298" lon="3.14872">
        <ele>186.39999389648</ele>
        <time>2022-10-29T03:24:37.000Z</time>
      </trkpt>
      <trkpt lat="46.98294" lon="3.14868">
        <ele>186.39999389648</ele>
        <time>2022-10-29T03:24:38.000Z</time>
      </trkpt>
      <trkpt lat="46.98281" lon="3.14852">
        <ele>186.60000610352</ele>
        <time>2022-10-29T03:24:41.000Z</time>
      </trkpt>
      <trkpt lat="46.9826" lon="3.14824">
        <ele>186.39999389648</ele>
        <time>2022-10-29T03:24:46.000Z</time>
      </trkpt>
      <trkpt lat="46.98255" lon="3.14819">
        <ele>186.39999389648</ele>
        <time>2022-10-29T03:24:47.000Z</time>
      </trkpt>
      <trkpt lat="46.98237" lon="3.14793">
        <ele>186.39999389648</ele>
        <time>2022-10-29T03:24:52.000Z</time>
      </trkpt>
      <trkpt lat="46.98231" lon="3.14785">
        <ele>186.39999389648</ele>
        <time>2022-10-29T03:24:54.000Z</time>
      </trkpt>
      <trkpt lat="46.98211" lon="3.14762">
        <ele>186.39999389648</ele>
        <time>2022-10-29T03:24:59.000Z</time>
      </trkpt>
      <trkpt lat="46.98204" lon="3.14754">
        <ele>186.60000610352</ele>
        <time>2022-10-29T03:25:01.000Z</time>
      </trkpt>
      <trkpt lat="46.98193" lon="3.14744">
        <ele>186.39999389648</ele>
        <time>2022-10-29T03:25:03.000Z</time>
      </trkpt>
      <trkpt lat="46.98178" lon="3.14728">
        <ele>186.60000610352</ele>
        <time>2022-10-29T03:25:06.000Z</time>
      </trkpt>
      <trkpt lat="46.98148" lon="3.14696">
        <ele>186.19999694824</ele>
        <time>2022-10-29T03:25:11.000Z</time>
      </trkpt>
      <trkpt lat="46.98109" lon="3.14655">
        <ele>186.19999694824</ele>
        <time>2022-10-29T03:25:18.000Z</time>
      </trkpt>
      <trkpt lat="46.981" lon="3.14643">
        <ele>186.19999694824</ele>
        <time>2022-10-29T03:25:20.000Z</time>
      </trkpt>
      <trkpt lat="46.98081" lon="3.14618">
        <ele>186.19999694824</ele>
        <time>2022-10-29T03:25:24.000Z</time>
      </trkpt>
      <trkpt lat="46.98044" lon="3.14573">
        <ele>186</ele>
        <time>2022-10-29T03:25:32.000Z</time>
      </trkpt>
      <trkpt lat="46.98034" lon="3.14562">
        <ele>185.80000305176</ele>
        <time>2022-10-29T03:25:34.000Z</time>
      </trkpt>
      <trkpt lat="46.98016" lon="3.14539">
        <ele>185.80000305176</ele>
        <time>2022-10-29T03:25:38.000Z</time>
      </trkpt>
      <trkpt lat="46.97974" lon="3.14482">
        <ele>185.39999389648</ele>
        <time>2022-10-29T03:25:47.000Z</time>
      </trkpt>
      <trkpt lat="46.9797" lon="3.14477">
        <ele>185.39999389648</ele>
        <time>2022-10-29T03:25:48.000Z</time>
      </trkpt>
      <trkpt lat="46.97945" lon="3.14441">
        <ele>184.80000305176</ele>
        <time>2022-10-29T03:25:53.000Z</time>
      </trkpt>
      <trkpt lat="46.97937" lon="3.14426">
        <ele>184.60000610352</ele>
        <time>2022-10-29T03:25:55.000Z</time>
      </trkpt>
      <trkpt lat="46.979" lon="3.1437">
        <ele>184.60000610352</ele>
        <time>2022-10-29T03:26:03.000Z</time>
      </trkpt>
      <trkpt lat="46.97866" lon="3.14312">
        <ele>184.19999694824</ele>
        <time>2022-10-29T03:26:11.000Z</time>
      </trkpt>
      <trkpt lat="46.97835" lon="3.14266">
        <ele>184.39999389648</ele>
        <time>2022-10-29T03:26:18.000Z</time>
      </trkpt>
      <trkpt lat="46.97811" lon="3.14226">
        <ele>184.39999389648</ele>
        <time>2022-10-29T03:26:24.000Z</time>
      </trkpt>
      <trkpt lat="46.97775" lon="3.14177">
        <ele>184.39999389648</ele>
        <time>2022-10-29T03:26:32.000Z</time>
      </trkpt>
      <trkpt lat="46.97734" lon="3.14123">
        <ele>184.19999694824</ele>
        <time>2022-10-29T03:26:41.000Z</time>
      </trkpt>
      <trkpt lat="46.97709" lon="3.14088">
        <ele>184.39999389648</ele>
        <time>2022-10-29T03:26:47.000Z</time>
      </trkpt>
      <trkpt lat="46.97698" lon="3.1407">
        <ele>184.39999389648</ele>
        <time>2022-10-29T03:26:50.000Z</time>
      </trkpt>
      <trkpt lat="46.97684" lon="3.14049">
        <ele>184.39999389648</ele>
        <time>2022-10-29T03:26:53.000Z</time>
      </trkpt>
      <trkpt lat="46.9766" lon="3.14006">
        <ele>184.80000305176</ele>
        <time>2022-10-29T03:26:59.000Z</time>
      </trkpt>
      <trkpt lat="46.97633" lon="3.13963">
        <ele>184.80000305176</ele>
        <time>2022-10-29T03:27:05.000Z</time>
      </trkpt>
      <trkpt lat="46.97594" lon="3.13904">
        <ele>184.39999389648</ele>
        <time>2022-10-29T03:27:14.000Z</time>
      </trkpt>
      <trkpt lat="46.97589" lon="3.13898">
        <ele>184.39999389648</ele>
        <time>2022-10-29T03:27:15.000Z</time>
      </trkpt>
      <trkpt lat="46.9755" lon="3.1384">
        <ele>184.39999389648</ele>
        <time>2022-10-29T03:27:24.000Z</time>
      </trkpt>
      <trkpt lat="46.97546" lon="3.13834">
        <ele>184.39999389648</ele>
        <time>2022-10-29T03:27:25.000Z</time>
      </trkpt>
      <trkpt lat="46.97513" lon="3.13797">
        <ele>184.60000610352</ele>
        <time>2022-10-29T03:27:32.000Z</time>
      </trkpt>
      <trkpt lat="46.9747" lon="3.13749">
        <ele>184.80000305176</ele>
        <time>2022-10-29T03:27:40.000Z</time>
      </trkpt>
      <trkpt lat="46.97438" lon="3.13704">
        <ele>184.60000610352</ele>
        <time>2022-10-29T03:27:47.000Z</time>
      </trkpt>
      <trkpt lat="46.974" lon="3.13636">
        <ele>184.39999389648</ele>
        <time>2022-10-29T03:27:56.000Z</time>
      </trkpt>
      <trkpt lat="46.97396" lon="3.13628">
        <ele>184.39999389648</ele>
        <time>2022-10-29T03:27:57.000Z</time>
      </trkpt>
      <trkpt lat="46.97363" lon="3.13569">
        <ele>184.19999694824</ele>
        <time>2022-10-29T03:28:05.000Z</time>
      </trkpt>
      <trkpt lat="46.97338" lon="3.13525">
        <ele>184</ele>
        <time>2022-10-29T03:28:11.000Z</time>
      </trkpt>
      <trkpt lat="46.97303" lon="3.13465">
        <ele>183.80000305176</ele>
        <time>2022-10-29T03:28:19.000Z</time>
      </trkpt>
      <trkpt lat="46.97269" lon="3.1341">
        <ele>183.80000305176</ele>
        <time>2022-10-29T03:28:27.000Z</time>
      </trkpt>
      <trkpt lat="46.97265" lon="3.13402">
        <ele>183.80000305176</ele>
        <time>2022-10-29T03:28:28.000Z</time>
      </trkpt>
      <trkpt lat="46.97253" lon="3.13382">
        <ele>184</ele>
        <time>2022-10-29T03:28:31.000Z</time>
      </trkpt>
      <trkpt lat="46.97246" lon="3.13367">
        <ele>184</ele>
        <time>2022-10-29T03:28:33.000Z</time>
      </trkpt>
      <trkpt lat="46.97236" lon="3.13345">
        <ele>184</ele>
        <time>2022-10-29T03:28:36.000Z</time>
      </trkpt>
      <trkpt lat="46.97205" lon="3.13292">
        <ele>184.19999694824</ele>
        <time>2022-10-29T03:28:43.000Z</time>
      </trkpt>
      <trkpt lat="46.97169" lon="3.13225">
        <ele>184.19999694824</ele>
        <time>2022-10-29T03:28:51.000Z</time>
      </trkpt>
      <trkpt lat="46.97137" lon="3.13156">
        <ele>184.39999389648</ele>
        <time>2022-10-29T03:29:00.000Z</time>
      </trkpt>
      <trkpt lat="46.9713" lon="3.1314">
        <ele>184.39999389648</ele>
        <time>2022-10-29T03:29:02.000Z</time>
      </trkpt>
      <trkpt lat="46.97101" lon="3.13068">
        <ele>184.39999389648</ele>
        <time>2022-10-29T03:29:11.000Z</time>
      </trkpt>
      <trkpt lat="46.97086" lon="3.13019">
        <ele>184</ele>
        <time>2022-10-29T03:29:17.000Z</time>
      </trkpt>
      <trkpt lat="46.97066" lon="3.12955">
        <ele>184</ele>
        <time>2022-10-29T03:29:25.000Z</time>
      </trkpt>
      <trkpt lat="46.97046" lon="3.12897">
        <ele>184.60000610352</ele>
        <time>2022-10-29T03:29:33.000Z</time>
      </trkpt>
      <trkpt lat="46.97044" lon="3.12883">
        <ele>184.60000610352</ele>
        <time>2022-10-29T03:29:35.000Z</time>
      </trkpt>
      <trkpt lat="46.97042" lon="3.12869">
        <ele>184.80000305176</ele>
        <time>2022-10-29T03:29:37.000Z</time>
      </trkpt>
      <trkpt lat="46.97037" lon="3.12857">
        <ele>184.80000305176</ele>
        <time>2022-10-29T03:29:39.000Z</time>
      </trkpt>
      <trkpt lat="46.97021" lon="3.12838">
        <ele>185</ele>
        <time>2022-10-29T03:29:43.000Z</time>
      </trkpt>
      <trkpt lat="46.97014" lon="3.12824">
        <ele>185</ele>
        <time>2022-10-29T03:29:45.000Z</time>
      </trkpt>
      <trkpt lat="46.96986" lon="3.12775">
        <ele>184.39999389648</ele>
        <time>2022-10-29T03:29:52.000Z</time>
      </trkpt>
      <trkpt lat="46.96953" lon="3.12713">
        <ele>184.60000610352</ele>
        <time>2022-10-29T03:30:01.000Z</time>
      </trkpt>
      <trkpt lat="46.96949" lon="3.12707">
        <ele>184.60000610352</ele>
        <time>2022-10-29T03:30:02.000Z</time>
      </trkpt>
      <trkpt lat="46.96914" lon="3.12651">
        <ele>184.39999389648</ele>
        <time>2022-10-29T03:30:11.000Z</time>
      </trkpt>
      <trkpt lat="46.96874" lon="3.126">
        <ele>184.39999389648</ele>
        <time>2022-10-29T03:30:20.000Z</time>
      </trkpt>
      <trkpt lat="46.96838" lon="3.12555">
        <ele>184.60000610352</ele>
        <time>2022-10-29T03:30:28.000Z</time>
      </trkpt>
      <trkpt lat="46.96795" lon="3.12506">
        <ele>184.60000610352</ele>
        <time>2022-10-29T03:30:37.000Z</time>
      </trkpt>
      <trkpt lat="46.96789" lon="3.12501">
        <ele>184.60000610352</ele>
        <time>2022-10-29T03:30:38.000Z</time>
      </trkpt>
      <trkpt lat="46.9675" lon="3.1246">
        <ele>184.39999389648</ele>
        <time>2022-10-29T03:30:46.000Z</time>
      </trkpt>
      <trkpt lat="46.96737" lon="3.12443">
        <ele>184.19999694824</ele>
        <time>2022-10-29T03:30:49.000Z</time>
      </trkpt>
      <trkpt lat="46.96726" lon="3.12422">
        <ele>184.19999694824</ele>
        <time>2022-10-29T03:30:52.000Z</time>
      </trkpt>
      <trkpt lat="46.96703" lon="3.12362">
        <ele>184.19999694824</ele>
        <time>2022-10-29T03:31:00.000Z</time>
      </trkpt>
      <trkpt lat="46.96675" lon="3.12289">
        <ele>184</ele>
        <time>2022-10-29T03:31:10.000Z</time>
      </trkpt>
      <trkpt lat="46.96673" lon="3.12282">
        <ele>184</ele>
        <time>2022-10-29T03:31:11.000Z</time>
      </trkpt>
      <trkpt lat="46.96671" lon="3.12273">
        <ele>184</ele>
        <time>2022-10-29T03:31:12.000Z</time>
      </trkpt>
      <trkpt lat="46.96667" lon="3.12242">
        <ele>184</ele>
        <time>2022-10-29T03:31:16.000Z</time>
      </trkpt>
      <trkpt lat="46.96667" lon="3.12185">
        <ele>184.39999389648</ele>
        <time>2022-10-29T03:31:23.000Z</time>
      </trkpt>
      <trkpt lat="46.96663" lon="3.12118">
        <ele>184.19999694824</ele>
        <time>2022-10-29T03:31:31.000Z</time>
      </trkpt>
      <trkpt lat="46.96647" lon="3.12045">
        <ele>184.39999389648</ele>
        <time>2022-10-29T03:31:40.000Z</time>
      </trkpt>
      <trkpt lat="46.96643" lon="3.11979">
        <ele>184.39999389648</ele>
        <time>2022-10-29T03:31:48.000Z</time>
      </trkpt>
      <trkpt lat="46.96638" lon="3.1192">
        <ele>184.39999389648</ele>
        <time>2022-10-29T03:31:55.000Z</time>
      </trkpt>
      <trkpt lat="46.96621" lon="3.11871">
        <ele>184.39999389648</ele>
        <time>2022-10-29T03:32:02.000Z</time>
      </trkpt>
      <trkpt lat="46.9661" lon="3.11844">
        <ele>184.39999389648</ele>
        <time>2022-10-29T03:32:06.000Z</time>
      </trkpt>
      <trkpt lat="46.966" lon="3.11826">
        <ele>184.60000610352</ele>
        <time>2022-10-29T03:32:09.000Z</time>
      </trkpt>
      <trkpt lat="46.96598" lon="3.11821">
        <ele>184.60000610352</ele>
        <time>2022-10-29T03:32:10.000Z</time>
      </trkpt>
      <trkpt lat="46.96594" lon="3.11809">
        <ele>184.80000305176</ele>
        <time>2022-10-29T03:32:12.000Z</time>
      </trkpt>
      <trkpt lat="46.9659" lon="3.11802">
        <ele>184.80000305176</ele>
        <time>2022-10-29T03:32:13.000Z</time>
      </trkpt>
      <trkpt lat="46.96578" lon="3.11771">
        <ele>185</ele>
        <time>2022-10-29T03:32:17.000Z</time>
      </trkpt>
      <trkpt lat="46.96565" lon="3.11742">
        <ele>185</ele>
        <time>2022-10-29T03:32:21.000Z</time>
      </trkpt>
      <trkpt lat="46.96559" lon="3.11727">
        <ele>185.19999694824</ele>
        <time>2022-10-29T03:32:23.000Z</time>
      </trkpt>
      <trkpt lat="46.96555" lon="3.11719">
        <ele>185.19999694824</ele>
        <time>2022-10-29T03:32:24.000Z</time>
      </trkpt>
      <trkpt lat="46.96551" lon="3.11705">
        <ele>185.19999694824</ele>
        <time>2022-10-29T03:32:26.000Z</time>
      </trkpt>
      <trkpt lat="46.96545" lon="3.11691">
        <ele>185.39999389648</ele>
        <time>2022-10-29T03:32:28.000Z</time>
      </trkpt>
      <trkpt lat="46.96536" lon="3.1167">
        <ele>185.60000610352</ele>
        <time>2022-10-29T03:32:31.000Z</time>
      </trkpt>
      <trkpt lat="46.96531" lon="3.11657">
        <ele>185.80000305176</ele>
        <time>2022-10-29T03:32:33.000Z</time>
      </trkpt>
      <trkpt lat="46.96527" lon="3.1165">
        <ele>186</ele>
        <time>2022-10-29T03:32:34.000Z</time>
      </trkpt>
      <trkpt lat="46.96524" lon="3.11642">
        <ele>186</ele>
        <time>2022-10-29T03:32:35.000Z</time>
      </trkpt>
      <trkpt lat="46.96518" lon="3.11621">
        <ele>186.19999694824</ele>
        <time>2022-10-29T03:32:38.000Z</time>
      </trkpt>
      <trkpt lat="46.96486" lon="3.11564">
        <ele>186</ele>
        <time>2022-10-29T03:32:46.000Z</time>
      </trkpt>
      <trkpt lat="46.96464" lon="3.11526">
        <ele>185.80000305176</ele>
        <time>2022-10-29T03:32:52.000Z</time>
      </trkpt>
      <trkpt lat="46.96451" lon="3.11506">
        <ele>185.80000305176</ele>
        <time>2022-10-29T03:32:56.000Z</time>
      </trkpt>
      <trkpt lat="46.96449" lon="3.11501">
        <ele>185.80000305176</ele>
        <time>2022-10-29T03:32:57.000Z</time>
      </trkpt>
      <trkpt lat="46.96446" lon="3.11494">
        <ele>185.80000305176</ele>
        <time>2022-10-29T03:32:58.000Z</time>
      </trkpt>
      <trkpt lat="46.96438" lon="3.11475">
        <ele>186</ele>
        <time>2022-10-29T03:33:01.000Z</time>
      </trkpt>
      <trkpt lat="46.96425" lon="3.11427">
        <ele>186</ele>
        <time>2022-10-29T03:33:07.000Z</time>
      </trkpt>
      <trkpt lat="46.96419" lon="3.11402">
        <ele>186</ele>
        <time>2022-10-29T03:33:10.000Z</time>
      </trkpt>
      <trkpt lat="46.96412" lon="3.11377">
        <ele>185.80000305176</ele>
        <time>2022-10-29T03:33:13.000Z</time>
      </trkpt>
      <trkpt lat="46.96392" lon="3.1131">
        <ele>185.19999694824</ele>
        <time>2022-10-29T03:33:21.000Z</time>
      </trkpt>
      <trkpt lat="46.96368" lon="3.11237">
        <ele>184.80000305176</ele>
        <time>2022-10-29T03:33:30.000Z</time>
      </trkpt>
      <trkpt lat="46.96366" lon="3.11231">
        <ele>184.80000305176</ele>
        <time>2022-10-29T03:33:31.000Z</time>
      </trkpt>
      <trkpt lat="46.96348" lon="3.11181">
        <ele>185</ele>
        <time>2022-10-29T03:33:38.000Z</time>
      </trkpt>
      <trkpt lat="46.96336" lon="3.11149">
        <ele>185.60000610352</ele>
        <time>2022-10-29T03:33:43.000Z</time>
      </trkpt>
      <trkpt lat="46.9633" lon="3.11137">
        <ele>185.80000305176</ele>
        <time>2022-10-29T03:33:45.000Z</time>
      </trkpt>
      <trkpt lat="46.96309" lon="3.1109">
        <ele>186.19999694824</ele>
        <time>2022-10-29T03:33:52.000Z</time>
      </trkpt>
      <trkpt lat="46.96281" lon="3.11027">
        <ele>185.80000305176</ele>
        <time>2022-10-29T03:34:01.000Z</time>
      </trkpt>
      <trkpt lat="46.96252" lon="3.10961">
        <ele>185.60000610352</ele>
        <time>2022-10-29T03:34:10.000Z</time>
      </trkpt>
      <trkpt lat="46.96233" lon="3.10901">
        <ele>185.60000610352</ele>
        <time>2022-10-29T03:34:18.000Z</time>
      </trkpt>
      <trkpt lat="46.96219" lon="3.10824">
        <ele>186</ele>
        <time>2022-10-29T03:34:28.000Z</time>
      </trkpt>
      <trkpt lat="46.96217" lon="3.10815">
        <ele>186.19999694824</ele>
        <time>2022-10-29T03:34:29.000Z</time>
      </trkpt>
      <trkpt lat="46.9621" lon="3.10778">
        <ele>186.60000610352</ele>
        <time>2022-10-29T03:34:34.000Z</time>
      </trkpt>
      <trkpt lat="46.96207" lon="3.1076">
        <ele>186.60000610352</ele>
        <time>2022-10-29T03:34:36.000Z</time>
      </trkpt>
      <trkpt lat="46.96199" lon="3.10724">
        <ele>187</ele>
        <time>2022-10-29T03:34:41.000Z</time>
      </trkpt>
      <trkpt lat="46.96199" lon="3.10717">
        <ele>187</ele>
        <time>2022-10-29T03:34:42.000Z</time>
      </trkpt>
      <trkpt lat="46.962" lon="3.10712">
        <ele>187</ele>
        <time>2022-10-29T03:34:43.000Z</time>
      </trkpt>
      <trkpt lat="46.96203" lon="3.10704">
        <ele>187</ele>
        <time>2022-10-29T03:34:45.000Z</time>
      </trkpt>
      <trkpt lat="46.96216" lon="3.107">
        <ele>187.39999389648</ele>
        <time>2022-10-29T03:34:49.000Z</time>
      </trkpt>
      <trkpt lat="46.96226" lon="3.10697">
        <ele>187.80000305176</ele>
        <time>2022-10-29T03:34:53.000Z</time>
      </trkpt>
      <trkpt lat="46.96234" lon="3.10695">
        <ele>188.80000305176</ele>
        <time>2022-10-29T03:34:56.000Z</time>
      </trkpt>
      <trkpt lat="46.96236" lon="3.10694">
        <ele>189</ele>
        <time>2022-10-29T03:34:57.000Z</time>
      </trkpt>
      <trkpt lat="46.96246" lon="3.10692">
        <ele>190.19999694824</ele>
        <time>2022-10-29T03:35:01.000Z</time>
      </trkpt>
      <trkpt lat="46.96254" lon="3.10691">
        <ele>191</ele>
        <time>2022-10-29T03:35:04.000Z</time>
      </trkpt>
      <trkpt lat="46.96259" lon="3.1069">
        <ele>191.39999389648</ele>
        <time>2022-10-29T03:35:06.000Z</time>
      </trkpt>
      <trkpt lat="46.96275" lon="3.10688">
        <ele>192.60000610352</ele>
        <time>2022-10-29T03:35:11.000Z</time>
      </trkpt>
      <trkpt lat="46.96302" lon="3.10682">
        <ele>193.39999389648</ele>
        <time>2022-10-29T03:35:18.000Z</time>
      </trkpt>
      <trkpt lat="46.96336" lon="3.10675">
        <ele>193.60000610352</ele>
        <time>2022-10-29T03:35:26.000Z</time>
      </trkpt>
      <trkpt lat="46.9634" lon="3.10674">
        <ele>193.80000305176</ele>
        <time>2022-10-29T03:35:27.000Z</time>
      </trkpt>
      <trkpt lat="46.96358" lon="3.10668">
        <ele>193.80000305176</ele>
        <time>2022-10-29T03:35:31.000Z</time>
      </trkpt>
      <trkpt lat="46.96367" lon="3.10662">
        <ele>194</ele>
        <time>2022-10-29T03:35:33.000Z</time>
      </trkpt>
      <trkpt lat="46.9638" lon="3.10651">
        <ele>194</ele>
        <time>2022-10-29T03:35:36.000Z</time>
      </trkpt>
      <trkpt lat="46.96394" lon="3.10646">
        <ele>194</ele>
        <time>2022-10-29T03:35:39.000Z</time>
      </trkpt>
      <trkpt lat="46.96434" lon="3.10639">
        <ele>194</ele>
        <time>2022-10-29T03:35:47.000Z</time>
      </trkpt>
      <trkpt lat="46.96475" lon="3.10628">
        <ele>194.19999694824</ele>
        <time>2022-10-29T03:35:55.000Z</time>
      </trkpt>
      <trkpt lat="46.96523" lon="3.10621">
        <ele>194.19999694824</ele>
        <time>2022-10-29T03:36:04.000Z</time>
      </trkpt>
      <trkpt lat="46.96563" lon="3.10621">
        <ele>194.19999694824</ele>
        <time>2022-10-29T03:36:12.000Z</time>
      </trkpt>
      <trkpt lat="46.96568" lon="3.10621">
        <ele>194.19999694824</ele>
        <time>2022-10-29T03:36:13.000Z</time>
      </trkpt>
      <trkpt lat="46.96577" lon="3.10623">
        <ele>194.19999694824</ele>
        <time>2022-10-29T03:36:15.000Z</time>
      </trkpt>
      <trkpt lat="46.96587" lon="3.10623">
        <ele>194.19999694824</ele>
        <time>2022-10-29T03:36:17.000Z</time>
      </trkpt>
      <trkpt lat="46.96602" lon="3.10621">
        <ele>194.39999389648</ele>
        <time>2022-10-29T03:36:20.000Z</time>
      </trkpt>
      <trkpt lat="46.96611" lon="3.10617">
        <ele>194.39999389648</ele>
        <time>2022-10-29T03:36:22.000Z</time>
      </trkpt>
      <trkpt lat="46.96616" lon="3.10614">
        <ele>194.39999389648</ele>
        <time>2022-10-29T03:36:23.000Z</time>
      </trkpt>
      <trkpt lat="46.96657" lon="3.10587">
        <ele>194.60000610352</ele>
        <time>2022-10-29T03:36:32.000Z</time>
      </trkpt>
      <trkpt lat="46.96662" lon="3.10585">
        <ele>194.60000610352</ele>
        <time>2022-10-29T03:36:33.000Z</time>
      </trkpt>
      <trkpt lat="46.9669" lon="3.10576">
        <ele>195</ele>
        <time>2022-10-29T03:36:39.000Z</time>
      </trkpt>
      <trkpt lat="46.96713" lon="3.10572">
        <ele>196</ele>
        <time>2022-10-29T03:36:44.000Z</time>
      </trkpt>
      <trkpt lat="46.96721" lon="3.1057">
        <ele>196.19999694824</ele>
        <time>2022-10-29T03:36:46.000Z</time>
      </trkpt>
      <trkpt lat="46.96742" lon="3.10564">
        <ele>197</ele>
        <time>2022-10-29T03:36:51.000Z</time>
      </trkpt>
      <trkpt lat="46.96756" lon="3.10559">
        <ele>197.19999694824</ele>
        <time>2022-10-29T03:36:54.000Z</time>
      </trkpt>
      <trkpt lat="46.96798" lon="3.10541">
        <ele>197.39999389648</ele>
        <time>2022-10-29T03:37:03.000Z</time>
      </trkpt>
      <trkpt lat="46.9681" lon="3.10535">
        <ele>197.39999389648</ele>
        <time>2022-10-29T03:37:06.000Z</time>
      </trkpt>
      <trkpt lat="46.96831" lon="3.10523">
        <ele>197</ele>
        <time>2022-10-29T03:37:11.000Z</time>
      </trkpt>
      <trkpt lat="46.96841" lon="3.10518">
        <ele>197</ele>
        <time>2022-10-29T03:37:13.000Z</time>
      </trkpt>
      <trkpt lat="46.96851" lon="3.10508">
        <ele>196.60000610352</ele>
        <time>2022-10-29T03:37:16.000Z</time>
      </trkpt>
      <trkpt lat="46.96854" lon="3.10503">
        <ele>196.39999389648</ele>
        <time>2022-10-29T03:37:17.000Z</time>
      </trkpt>
      <trkpt lat="46.96856" lon="3.10495">
        <ele>196.19999694824</ele>
        <time>2022-10-29T03:37:18.000Z</time>
      </trkpt>
      <trkpt lat="46.96857" lon="3.10489">
        <ele>196</ele>
        <time>2022-10-29T03:37:19.000Z</time>
      </trkpt>
      <trkpt lat="46.96858" lon="3.10472">
        <ele>195.19999694824</ele>
        <time>2022-10-29T03:37:21.000Z</time>
      </trkpt>
      <trkpt lat="46.96858" lon="3.10463">
        <ele>194.80000305176</ele>
        <time>2022-10-29T03:37:22.000Z</time>
      </trkpt>
      <trkpt lat="46.96857" lon="3.10445">
        <ele>194.39999389648</ele>
        <time>2022-10-29T03:37:24.000Z</time>
      </trkpt>
      <trkpt lat="46.96855" lon="3.10428">
        <ele>193.80000305176</ele>
        <time>2022-10-29T03:37:26.000Z</time>
      </trkpt>
      <trkpt lat="46.96854" lon="3.10419">
        <ele>193.60000610352</ele>
        <time>2022-10-29T03:37:27.000Z</time>
      </trkpt>
      <trkpt lat="46.96844" lon="3.10376">
        <ele>193.19999694824</ele>
        <time>2022-10-29T03:37:32.000Z</time>
      </trkpt>
      <trkpt lat="46.96817" lon="3.10306">
        <ele>192.60000610352</ele>
        <time>2022-10-29T03:37:41.000Z</time>
      </trkpt>
      <trkpt lat="46.96807" lon="3.10281">
        <ele>192.39999389648</ele>
        <time>2022-10-29T03:37:44.000Z</time>
      </trkpt>
      <trkpt lat="46.96793" lon="3.10238">
        <ele>191.80000305176</ele>
        <time>2022-10-29T03:37:49.000Z</time>
      </trkpt>
      <trkpt lat="46.96784" lon="3.10212">
        <ele>191.39999389648</ele>
        <time>2022-10-29T03:37:52.000Z</time>
      </trkpt>
      <trkpt lat="46.96775" lon="3.10184">
        <ele>191.19999694824</ele>
        <time>2022-10-29T03:37:55.000Z</time>
      </trkpt>
      <trkpt lat="46.96772" lon="3.10168">
        <ele>191</ele>
        <time>2022-10-29T03:37:57.000Z</time>
      </trkpt>
      <trkpt lat="46.96771" lon="3.1015">
        <ele>190.80000305176</ele>
        <time>2022-10-29T03:37:59.000Z</time>
      </trkpt>
      <trkpt lat="46.96772" lon="3.10141">
        <ele>190.60000610352</ele>
        <time>2022-10-29T03:38:00.000Z</time>
      </trkpt>
      <trkpt lat="46.96773" lon="3.10132">
        <ele>190.39999389648</ele>
        <time>2022-10-29T03:38:01.000Z</time>
      </trkpt>
      <trkpt lat="46.96775" lon="3.10116">
        <ele>190.19999694824</ele>
        <time>2022-10-29T03:38:03.000Z</time>
      </trkpt>
      <trkpt lat="46.96792" lon="3.10053">
        <ele>190.19999694824</ele>
        <time>2022-10-29T03:38:11.000Z</time>
      </trkpt>
      <trkpt lat="46.96799" lon="3.10022">
        <ele>191.60000610352</ele>
        <time>2022-10-29T03:38:16.000Z</time>
      </trkpt>
      <trkpt lat="46.96802" lon="3.10009">
        <ele>192.19999694824</ele>
        <time>2022-10-29T03:38:18.000Z</time>
      </trkpt>
      <trkpt lat="46.96805" lon="3.09997">
        <ele>192.60000610352</ele>
        <time>2022-10-29T03:38:20.000Z</time>
      </trkpt>
      <trkpt lat="46.96813" lon="3.09959">
        <ele>193.39999389648</ele>
        <time>2022-10-29T03:38:26.000Z</time>
      </trkpt>
      <trkpt lat="46.96815" lon="3.09954">
        <ele>193.60000610352</ele>
        <time>2022-10-29T03:38:27.000Z</time>
      </trkpt>
      <trkpt lat="46.96816" lon="3.09948">
        <ele>193.60000610352</ele>
        <time>2022-10-29T03:38:28.000Z</time>
      </trkpt>
      <trkpt lat="46.96818" lon="3.09936">
        <ele>193.80000305176</ele>
        <time>2022-10-29T03:38:30.000Z</time>
      </trkpt>
      <trkpt lat="46.96822" lon="3.09928">
        <ele>193.80000305176</ele>
        <time>2022-10-29T03:38:32.000Z</time>
      </trkpt>
      <trkpt lat="46.96825" lon="3.09925">
        <ele>194</ele>
        <time>2022-10-29T03:38:33.000Z</time>
      </trkpt>
      <trkpt lat="46.96832" lon="3.09925">
        <ele>194.19999694824</ele>
        <time>2022-10-29T03:38:35.000Z</time>
      </trkpt>
      <trkpt lat="46.96848" lon="3.09929">
        <ele>194.60000610352</ele>
        <time>2022-10-29T03:38:39.000Z</time>
      </trkpt>
      <trkpt lat="46.96852" lon="3.09931">
        <ele>194.80000305176</ele>
        <time>2022-10-29T03:38:40.000Z</time>
      </trkpt>
      <trkpt lat="46.96857" lon="3.09933">
        <ele>194.80000305176</ele>
        <time>2022-10-29T03:38:41.000Z</time>
      </trkpt>
      <trkpt lat="46.96879" lon="3.09941">
        <ele>194.80000305176</ele>
        <time>2022-10-29T03:38:45.000Z</time>
      </trkpt>
      <trkpt lat="46.96921" lon="3.09958">
        <ele>194.19999694824</ele>
        <time>2022-10-29T03:38:52.000Z</time>
      </trkpt>
      <trkpt lat="46.9694" lon="3.09965">
        <ele>193.60000610352</ele>
        <time>2022-10-29T03:38:55.000Z</time>
      </trkpt>
      <trkpt lat="46.96971" lon="3.09976">
        <ele>192.80000305176</ele>
        <time>2022-10-29T03:39:00.000Z</time>
      </trkpt>
      <trkpt lat="46.97017" lon="3.09992">
        <ele>193</ele>
        <time>2022-10-29T03:39:08.000Z</time>
      </trkpt>
      <trkpt lat="46.97063" lon="3.10009">
        <ele>193.60000610352</ele>
        <time>2022-10-29T03:39:17.000Z</time>
      </trkpt>
      <trkpt lat="46.97078" lon="3.10011">
        <ele>194.19999694824</ele>
        <time>2022-10-29T03:39:20.000Z</time>
      </trkpt>
      <trkpt lat="46.97088" lon="3.10008">
        <ele>194.39999389648</ele>
        <time>2022-10-29T03:39:22.000Z</time>
      </trkpt>
      <trkpt lat="46.97097" lon="3.10001">
        <ele>194.60000610352</ele>
        <time>2022-10-29T03:39:24.000Z</time>
      </trkpt>
      <trkpt lat="46.97106" lon="3.09991">
        <ele>194.60000610352</ele>
        <time>2022-10-29T03:39:26.000Z</time>
      </trkpt>
      <trkpt lat="46.97109" lon="3.09985">
        <ele>194.80000305176</ele>
        <time>2022-10-29T03:39:27.000Z</time>
      </trkpt>
      <trkpt lat="46.97116" lon="3.09973">
        <ele>194.80000305176</ele>
        <time>2022-10-29T03:39:29.000Z</time>
      </trkpt>
      <trkpt lat="46.97126" lon="3.09949">
        <ele>195.19999694824</ele>
        <time>2022-10-29T03:39:33.000Z</time>
      </trkpt>
      <trkpt lat="46.9713" lon="3.09943">
        <ele>195.19999694824</ele>
        <time>2022-10-29T03:39:34.000Z</time>
      </trkpt>
      <trkpt lat="46.97145" lon="3.09912">
        <ele>196</ele>
        <time>2022-10-29T03:39:39.000Z</time>
      </trkpt>
      <trkpt lat="46.97155" lon="3.09895">
        <ele>196.19999694824</ele>
        <time>2022-10-29T03:39:42.000Z</time>
      </trkpt>
      <trkpt lat="46.97173" lon="3.09868">
        <ele>196.39999389648</ele>
        <time>2022-10-29T03:39:47.000Z</time>
      </trkpt>
      <trkpt lat="46.97181" lon="3.09858">
        <ele>196.60000610352</ele>
        <time>2022-10-29T03:39:49.000Z</time>
      </trkpt>
      <trkpt lat="46.97197" lon="3.0984">
        <ele>197</ele>
        <time>2022-10-29T03:39:53.000Z</time>
      </trkpt>
      <trkpt lat="46.97209" lon="3.09825">
        <ele>197.19999694824</ele>
        <time>2022-10-29T03:39:56.000Z</time>
      </trkpt>
      <trkpt lat="46.97217" lon="3.09817">
        <ele>197.39999389648</ele>
        <time>2022-10-29T03:39:58.000Z</time>
      </trkpt>
      <trkpt lat="46.9725" lon="3.09782">
        <ele>198</ele>
        <time>2022-10-29T03:40:06.000Z</time>
      </trkpt>
      <trkpt lat="46.97296" lon="3.09742">
        <ele>199</ele>
        <time>2022-10-29T03:40:16.000Z</time>
      </trkpt>
      <trkpt lat="46.97301" lon="3.09738">
        <ele>199</ele>
        <time>2022-10-29T03:40:17.000Z</time>
      </trkpt>
      <trkpt lat="46.97335" lon="3.09715">
        <ele>199.60000610352</ele>
        <time>2022-10-29T03:40:24.000Z</time>
      </trkpt>
      <trkpt lat="46.97372" lon="3.0969">
        <ele>200.19999694824</ele>
        <time>2022-10-29T03:40:32.000Z</time>
      </trkpt>
      <trkpt lat="46.97381" lon="3.09684">
        <ele>200.39999389648</ele>
        <time>2022-10-29T03:40:34.000Z</time>
      </trkpt>
      <trkpt lat="46.97416" lon="3.09661">
        <ele>201.19999694824</ele>
        <time>2022-10-29T03:40:42.000Z</time>
      </trkpt>
      <trkpt lat="46.97419" lon="3.09658">
        <ele>201.39999389648</ele>
        <time>2022-10-29T03:40:43.000Z</time>
      </trkpt>
      <trkpt lat="46.9744" lon="3.09644">
        <ele>202.39999389648</ele>
        <time>2022-10-29T03:40:49.000Z</time>
      </trkpt>
      <trkpt lat="46.97447" lon="3.09639">
        <ele>202.80000305176</ele>
        <time>2022-10-29T03:40:51.000Z</time>
      </trkpt>
      <trkpt lat="46.97456" lon="3.09633">
        <ele>203.60000610352</ele>
        <time>2022-10-29T03:40:54.000Z</time>
      </trkpt>
      <trkpt lat="46.97465" lon="3.09627">
        <ele>204.60000610352</ele>
        <time>2022-10-29T03:40:57.000Z</time>
      </trkpt>
      <trkpt lat="46.97468" lon="3.09625">
        <ele>204.80000305176</ele>
        <time>2022-10-29T03:40:58.000Z</time>
      </trkpt>
      <trkpt lat="46.97481" lon="3.09617">
        <ele>206</ele>
        <time>2022-10-29T03:41:02.000Z</time>
      </trkpt>
      <trkpt lat="46.97491" lon="3.09611">
        <ele>207</ele>
        <time>2022-10-29T03:41:05.000Z</time>
      </trkpt>
      <trkpt lat="46.97501" lon="3.09605">
        <ele>208</ele>
        <time>2022-10-29T03:41:08.000Z</time>
      </trkpt>
      <trkpt lat="46.9751" lon="3.096">
        <ele>209.60000610352</ele>
        <time>2022-10-29T03:41:11.000Z</time>
      </trkpt>
      <trkpt lat="46.9752" lon="3.09596">
        <ele>210.80000305176</ele>
        <time>2022-10-29T03:41:14.000Z</time>
      </trkpt>
      <trkpt lat="46.97531" lon="3.09591">
        <ele>211.80000305176</ele>
        <time>2022-10-29T03:41:17.000Z</time>
      </trkpt>
      <trkpt lat="46.97546" lon="3.09582">
        <ele>213</ele>
        <time>2022-10-29T03:41:21.000Z</time>
      </trkpt>
      <trkpt lat="46.97556" lon="3.09577">
        <ele>213.60000610352</ele>
        <time>2022-10-29T03:41:24.000Z</time>
      </trkpt>
      <trkpt lat="46.97569" lon="3.09571">
        <ele>214.19999694824</ele>
        <time>2022-10-29T03:41:27.000Z</time>
      </trkpt>
      <trkpt lat="46.97585" lon="3.09562">
        <ele>214.39999389648</ele>
        <time>2022-10-29T03:41:31.000Z</time>
      </trkpt>
      <trkpt lat="46.97616" lon="3.09546">
        <ele>214.39999389648</ele>
        <time>2022-10-29T03:41:37.000Z</time>
      </trkpt>
      <trkpt lat="46.97637" lon="3.09536">
        <ele>214.39999389648</ele>
        <time>2022-10-29T03:41:41.000Z</time>
      </trkpt>
      <trkpt lat="46.97649" lon="3.09529">
        <ele>214.39999389648</ele>
        <time>2022-10-29T03:41:43.000Z</time>
      </trkpt>
      <trkpt lat="46.9766" lon="3.09524">
        <ele>214.19999694824</ele>
        <time>2022-10-29T03:41:45.000Z</time>
      </trkpt>
      <trkpt lat="46.97679" lon="3.09516">
        <ele>214.19999694824</ele>
        <time>2022-10-29T03:41:48.000Z</time>
      </trkpt>
      <trkpt lat="46.97713" lon="3.095">
        <ele>213</ele>
        <time>2022-10-29T03:41:53.000Z</time>
      </trkpt>
      <trkpt lat="46.97726" lon="3.09495">
        <ele>212.60000610352</ele>
        <time>2022-10-29T03:41:55.000Z</time>
      </trkpt>
      <trkpt lat="46.97742" lon="3.09488">
        <ele>211.80000305176</ele>
        <time>2022-10-29T03:41:57.000Z</time>
      </trkpt>
      <trkpt lat="46.97784" lon="3.09475">
        <ele>210.80000305176</ele>
        <time>2022-10-29T03:42:03.000Z</time>
      </trkpt>
      <trkpt lat="46.97835" lon="3.09463">
        <ele>209.80000305176</ele>
        <time>2022-10-29T03:42:10.000Z</time>
      </trkpt>
      <trkpt lat="46.97862" lon="3.09457">
        <ele>209.60000610352</ele>
        <time>2022-10-29T03:42:14.000Z</time>
      </trkpt>
      <trkpt lat="46.97905" lon="3.09446">
        <ele>210.19999694824</ele>
        <time>2022-10-29T03:42:21.000Z</time>
      </trkpt>
      <trkpt lat="46.97934" lon="3.0944">
        <ele>211</ele>
        <time>2022-10-29T03:42:27.000Z</time>
      </trkpt>
      <trkpt lat="46.97938" lon="3.09438">
        <ele>211.39999389648</ele>
        <time>2022-10-29T03:42:28.000Z</time>
      </trkpt>
      <trkpt lat="46.97947" lon="3.09437">
        <ele>212</ele>
        <time>2022-10-29T03:42:30.000Z</time>
      </trkpt>
      <trkpt lat="46.97964" lon="3.09433">
        <ele>213.19999694824</ele>
        <time>2022-10-29T03:42:34.000Z</time>
      </trkpt>
      <trkpt lat="46.97972" lon="3.09432">
        <ele>213.60000610352</ele>
        <time>2022-10-29T03:42:36.000Z</time>
      </trkpt>
      <trkpt lat="46.97983" lon="3.09429">
        <ele>214.39999389648</ele>
        <time>2022-10-29T03:42:39.000Z</time>
      </trkpt>
      <trkpt lat="46.97994" lon="3.09427">
        <ele>215.80000305176</ele>
        <time>2022-10-29T03:42:42.000Z</time>
      </trkpt>
      <trkpt lat="46.97998" lon="3.09427">
        <ele>216.19999694824</ele>
        <time>2022-10-29T03:42:43.000Z</time>
      </trkpt>
      <trkpt lat="46.98004" lon="3.09425">
        <ele>217</ele>
        <time>2022-10-29T03:42:45.000Z</time>
      </trkpt>
      <trkpt lat="46.98018" lon="3.0942">
        <ele>218.19999694824</ele>
        <time>2022-10-29T03:42:49.000Z</time>
      </trkpt>
      <trkpt lat="46.98025" lon="3.09417">
        <ele>219.19999694824</ele>
        <time>2022-10-29T03:42:51.000Z</time>
      </trkpt>
      <trkpt lat="46.98029" lon="3.09415">
        <ele>219.60000610352</ele>
        <time>2022-10-29T03:42:52.000Z</time>
      </trkpt>
      <trkpt lat="46.98039" lon="3.09407">
        <ele>220.60000610352</ele>
        <time>2022-10-29T03:42:55.000Z</time>
      </trkpt>
      <trkpt lat="46.98046" lon="3.09401">
        <ele>221.19999694824</ele>
        <time>2022-10-29T03:42:57.000Z</time>
      </trkpt>
      <trkpt lat="46.98051" lon="3.09395">
        <ele>221.80000305176</ele>
        <time>2022-10-29T03:42:59.000Z</time>
      </trkpt>
      <trkpt lat="46.98055" lon="3.09391">
        <ele>222.19999694824</ele>
        <time>2022-10-29T03:43:01.000Z</time>
      </trkpt>
      <trkpt lat="46.98058" lon="3.09387">
        <ele>222.60000610352</ele>
        <time>2022-10-29T03:43:02.000Z</time>
      </trkpt>
      <trkpt lat="46.98072" lon="3.09368">
        <ele>222.60000610352</ele>
        <time>2022-10-29T03:43:06.000Z</time>
      </trkpt>
      <trkpt lat="46.98076" lon="3.09363">
        <ele>222.80000305176</ele>
        <time>2022-10-29T03:43:07.000Z</time>
      </trkpt>
      <trkpt lat="46.98081" lon="3.09357">
        <ele>222.60000610352</ele>
        <time>2022-10-29T03:43:09.000Z</time>
      </trkpt>
      <trkpt lat="46.98096" lon="3.09351">
        <ele>222.39999389648</ele>
        <time>2022-10-29T03:43:13.000Z</time>
      </trkpt>
      <trkpt lat="46.981" lon="3.0935">
        <ele>222.19999694824</ele>
        <time>2022-10-29T03:43:14.000Z</time>
      </trkpt>
      <trkpt lat="46.9812" lon="3.09347">
        <ele>222</ele>
        <time>2022-10-29T03:43:18.000Z</time>
      </trkpt>
      <trkpt lat="46.98159" lon="3.09338">
        <ele>221.80000305176</ele>
        <time>2022-10-29T03:43:26.000Z</time>
      </trkpt>
      <trkpt lat="46.98195" lon="3.09333">
        <ele>221.39999389648</ele>
        <time>2022-10-29T03:43:33.000Z</time>
      </trkpt>
      <trkpt lat="46.98203" lon="3.09333">
        <ele>221.39999389648</ele>
        <time>2022-10-29T03:43:34.000Z</time>
      </trkpt>
      <trkpt lat="46.98226" lon="3.09332">
        <ele>221</ele>
        <time>2022-10-29T03:43:38.000Z</time>
      </trkpt>
      <trkpt lat="46.98255" lon="3.0933">
        <ele>220.60000610352</ele>
        <time>2022-10-29T03:43:43.000Z</time>
      </trkpt>
      <trkpt lat="46.98261" lon="3.09329">
        <ele>220.60000610352</ele>
        <time>2022-10-29T03:43:44.000Z</time>
      </trkpt>
      <trkpt lat="46.983" lon="3.09323">
        <ele>220.19999694824</ele>
        <time>2022-10-29T03:43:51.000Z</time>
      </trkpt>
      <trkpt lat="46.9832" lon="3.0932">
        <ele>219.39999389648</ele>
        <time>2022-10-29T03:43:54.000Z</time>
      </trkpt>
      <trkpt lat="46.9834" lon="3.09313">
        <ele>218.80000305176</ele>
        <time>2022-10-29T03:43:57.000Z</time>
      </trkpt>
      <trkpt lat="46.98383" lon="3.0929">
        <ele>218.39999389648</ele>
        <time>2022-10-29T03:44:04.000Z</time>
      </trkpt>
      <trkpt lat="46.9839" lon="3.09287">
        <ele>218.39999389648</ele>
        <time>2022-10-29T03:44:05.000Z</time>
      </trkpt>
      <trkpt lat="46.98396" lon="3.09284">
        <ele>218.39999389648</ele>
        <time>2022-10-29T03:44:06.000Z</time>
      </trkpt>
      <trkpt lat="46.98423" lon="3.09275">
        <ele>218.60000610352</ele>
        <time>2022-10-29T03:44:10.000Z</time>
      </trkpt>
      <trkpt lat="46.9846" lon="3.09258">
        <ele>218.60000610352</ele>
        <time>2022-10-29T03:44:16.000Z</time>
      </trkpt>
      <trkpt lat="46.98497" lon="3.09243">
        <ele>218.80000305176</ele>
        <time>2022-10-29T03:44:22.000Z</time>
      </trkpt>
      <trkpt lat="46.98528" lon="3.09228">
        <ele>218.80000305176</ele>
        <time>2022-10-29T03:44:27.000Z</time>
      </trkpt>
      <trkpt lat="46.9854" lon="3.09218">
        <ele>218.80000305176</ele>
        <time>2022-10-29T03:44:29.000Z</time>
      </trkpt>
      <trkpt lat="46.98581" lon="3.09188">
        <ele>219</ele>
        <time>2022-10-29T03:44:36.000Z</time>
      </trkpt>
      <trkpt lat="46.98605" lon="3.09174">
        <ele>219.39999389648</ele>
        <time>2022-10-29T03:44:40.000Z</time>
      </trkpt>
      <trkpt lat="46.98623" lon="3.09164">
        <ele>219.60000610352</ele>
        <time>2022-10-29T03:44:43.000Z</time>
      </trkpt>
      <trkpt lat="46.98675" lon="3.09136">
        <ele>220.39999389648</ele>
        <time>2022-10-29T03:44:52.000Z</time>
      </trkpt>
      <trkpt lat="46.98681" lon="3.09133">
        <ele>220.60000610352</ele>
        <time>2022-10-29T03:44:53.000Z</time>
      </trkpt>
      <trkpt lat="46.98723" lon="3.09117">
        <ele>220.80000305176</ele>
        <time>2022-10-29T03:45:00.000Z</time>
      </trkpt>
      <trkpt lat="46.98729" lon="3.09115">
        <ele>221</ele>
        <time>2022-10-29T03:45:01.000Z</time>
      </trkpt>
      <trkpt lat="46.9877" lon="3.09101">
        <ele>221.60000610352</ele>
        <time>2022-10-29T03:45:08.000Z</time>
      </trkpt>
      <trkpt lat="46.98793" lon="3.09093">
        <ele>221.80000305176</ele>
        <time>2022-10-29T03:45:12.000Z</time>
      </trkpt>
      <trkpt lat="46.98844" lon="3.09081">
        <ele>222.39999389648</ele>
        <time>2022-10-29T03:45:20.000Z</time>
      </trkpt>
      <trkpt lat="46.98897" lon="3.09068">
        <ele>222</ele>
        <time>2022-10-29T03:45:28.000Z</time>
      </trkpt>
      <trkpt lat="46.98952" lon="3.0905">
        <ele>221.39999389648</ele>
        <time>2022-10-29T03:45:36.000Z</time>
      </trkpt>
      <trkpt lat="46.98967" lon="3.09045">
        <ele>221.19999694824</ele>
        <time>2022-10-29T03:45:38.000Z</time>
      </trkpt>
      <trkpt lat="46.99002" lon="3.09031">
        <ele>220.60000610352</ele>
        <time>2022-10-29T03:45:43.000Z</time>
      </trkpt>
      <trkpt lat="46.99017" lon="3.09025">
        <ele>220.39999389648</ele>
        <time>2022-10-29T03:45:45.000Z</time>
      </trkpt>
      <trkpt lat="46.99047" lon="3.09014">
        <ele>219.39999389648</ele>
        <time>2022-10-29T03:45:49.000Z</time>
      </trkpt>
      <trkpt lat="46.99063" lon="3.09008">
        <ele>219.19999694824</ele>
        <time>2022-10-29T03:45:51.000Z</time>
      </trkpt>
      <trkpt lat="46.99097" lon="3.09002">
        <ele>218.39999389648</ele>
        <time>2022-10-29T03:45:55.000Z</time>
      </trkpt>
      <trkpt lat="46.99114" lon="3.09">
        <ele>217.80000305176</ele>
        <time>2022-10-29T03:45:57.000Z</time>
      </trkpt>
      <trkpt lat="46.9913" lon="3.08999">
        <ele>217.39999389648</ele>
        <time>2022-10-29T03:45:59.000Z</time>
      </trkpt>
      <trkpt lat="46.99174" lon="3.08995">
        <ele>216.19999694824</ele>
        <time>2022-10-29T03:46:04.000Z</time>
      </trkpt>
      <trkpt lat="46.99224" lon="3.08996">
        <ele>215.19999694824</ele>
        <time>2022-10-29T03:46:10.000Z</time>
      </trkpt>
      <trkpt lat="46.9924" lon="3.08994">
        <ele>214.80000305176</ele>
        <time>2022-10-29T03:46:12.000Z</time>
      </trkpt>
      <trkpt lat="46.99256" lon="3.0899">
        <ele>214</ele>
        <time>2022-10-29T03:46:14.000Z</time>
      </trkpt>
      <trkpt lat="46.9927" lon="3.08982">
        <ele>213.19999694824</ele>
        <time>2022-10-29T03:46:16.000Z</time>
      </trkpt>
      <trkpt lat="46.99283" lon="3.08972">
        <ele>213</ele>
        <time>2022-10-29T03:46:18.000Z</time>
      </trkpt>
      <trkpt lat="46.99288" lon="3.0897">
        <ele>213</ele>
        <time>2022-10-29T03:46:19.000Z</time>
      </trkpt>
      <trkpt lat="46.99293" lon="3.08968">
        <ele>212.80000305176</ele>
        <time>2022-10-29T03:46:20.000Z</time>
      </trkpt>
      <trkpt lat="46.99299" lon="3.08968">
        <ele>212.80000305176</ele>
        <time>2022-10-29T03:46:21.000Z</time>
      </trkpt>
      <trkpt lat="46.99307" lon="3.08976">
        <ele>212.60000610352</ele>
        <time>2022-10-29T03:46:23.000Z</time>
      </trkpt>
      <trkpt lat="46.99314" lon="3.08987">
        <ele>212.39999389648</ele>
        <time>2022-10-29T03:46:25.000Z</time>
      </trkpt>
      <trkpt lat="46.9932" lon="3.08992">
        <ele>212.19999694824</ele>
        <time>2022-10-29T03:46:27.000Z</time>
      </trkpt>
      <trkpt lat="46.99323" lon="3.0899">
        <ele>211.80000305176</ele>
        <time>2022-10-29T03:46:28.000Z</time>
      </trkpt>
      <trkpt lat="46.99326" lon="3.08983">
        <ele>211.60000610352</ele>
        <time>2022-10-29T03:46:30.000Z</time>
      </trkpt>
      <trkpt lat="46.99332" lon="3.08963">
        <ele>211.19999694824</ele>
        <time>2022-10-29T03:46:34.000Z</time>
      </trkpt>
      <trkpt lat="46.9934" lon="3.08956">
        <ele>211.19999694824</ele>
        <time>2022-10-29T03:46:36.000Z</time>
      </trkpt>
      <trkpt lat="46.9935" lon="3.08951">
        <ele>211.39999389648</ele>
        <time>2022-10-29T03:46:38.000Z</time>
      </trkpt>
      <trkpt lat="46.9936" lon="3.08944">
        <ele>211.39999389648</ele>
        <time>2022-10-29T03:46:40.000Z</time>
      </trkpt>
      <trkpt lat="46.99375" lon="3.08931">
        <ele>211.60000610352</ele>
        <time>2022-10-29T03:46:43.000Z</time>
      </trkpt>
      <trkpt lat="46.99406" lon="3.08906">
        <ele>211.60000610352</ele>
        <time>2022-10-29T03:46:49.000Z</time>
      </trkpt>
      <trkpt lat="46.99444" lon="3.08872">
        <ele>211.19999694824</ele>
        <time>2022-10-29T03:46:56.000Z</time>
      </trkpt>
      <trkpt lat="46.99478" lon="3.08836">
        <ele>210.80000305176</ele>
        <time>2022-10-29T03:47:02.000Z</time>
      </trkpt>
      <trkpt lat="46.99484" lon="3.0883">
        <ele>210.80000305176</ele>
        <time>2022-10-29T03:47:03.000Z</time>
      </trkpt>
      <trkpt lat="46.99517" lon="3.08795">
        <ele>210</ele>
        <time>2022-10-29T03:47:09.000Z</time>
      </trkpt>
      <trkpt lat="46.99523" lon="3.0879">
        <ele>209.80000305176</ele>
        <time>2022-10-29T03:47:10.000Z</time>
      </trkpt>
      <trkpt lat="46.99567" lon="3.08752">
        <ele>209.60000610352</ele>
        <time>2022-10-29T03:47:17.000Z</time>
      </trkpt>
      <trkpt lat="46.99606" lon="3.08719">
        <ele>209.80000305176</ele>
        <time>2022-10-29T03:47:24.000Z</time>
      </trkpt>
      <trkpt lat="46.99634" lon="3.08688">
        <ele>211</ele>
        <time>2022-10-29T03:47:31.000Z</time>
      </trkpt>
      <trkpt lat="46.99646" lon="3.0868">
        <ele>211.39999389648</ele>
        <time>2022-10-29T03:47:34.000Z</time>
      </trkpt>
      <trkpt lat="46.99653" lon="3.0867">
        <ele>211.80000305176</ele>
        <time>2022-10-29T03:47:36.000Z</time>
      </trkpt>
      <trkpt lat="46.99655" lon="3.08657">
        <ele>212</ele>
        <time>2022-10-29T03:47:38.000Z</time>
      </trkpt>
      <trkpt lat="46.99656" lon="3.08651">
        <ele>212.19999694824</ele>
        <time>2022-10-29T03:47:39.000Z</time>
      </trkpt>
      <trkpt lat="46.99656" lon="3.08644">
        <ele>212.39999389648</ele>
        <time>2022-10-29T03:47:40.000Z</time>
      </trkpt>
      <trkpt lat="46.99656" lon="3.08624">
        <ele>213.19999694824</ele>
        <time>2022-10-29T03:47:43.000Z</time>
      </trkpt>
      <trkpt lat="46.99656" lon="3.08618">
        <ele>213.39999389648</ele>
        <time>2022-10-29T03:47:44.000Z</time>
      </trkpt>
      <trkpt lat="46.99656" lon="3.08608">
        <ele>214</ele>
        <time>2022-10-29T03:47:46.000Z</time>
      </trkpt>
      <trkpt lat="46.99655" lon="3.08602">
        <ele>214.19999694824</ele>
        <time>2022-10-29T03:47:47.000Z</time>
      </trkpt>
      <trkpt lat="46.99656" lon="3.08596">
        <ele>214.60000610352</ele>
        <time>2022-10-29T03:47:48.000Z</time>
      </trkpt>
      <trkpt lat="46.99659" lon="3.08573">
        <ele>215.80000305176</ele>
        <time>2022-10-29T03:47:52.000Z</time>
      </trkpt>
      <trkpt lat="46.99661" lon="3.08568">
        <ele>216.19999694824</ele>
        <time>2022-10-29T03:47:53.000Z</time>
      </trkpt>
      <trkpt lat="46.99667" lon="3.08552">
        <ele>216.80000305176</ele>
        <time>2022-10-29T03:47:56.000Z</time>
      </trkpt>
      <trkpt lat="46.99672" lon="3.08542">
        <ele>217.19999694824</ele>
        <time>2022-10-29T03:47:58.000Z</time>
      </trkpt>
      <trkpt lat="46.99681" lon="3.08529">
        <ele>217.80000305176</ele>
        <time>2022-10-29T03:48:01.000Z</time>
      </trkpt>
      <trkpt lat="46.99685" lon="3.08526">
        <ele>218.19999694824</ele>
        <time>2022-10-29T03:48:02.000Z</time>
      </trkpt>
      <trkpt lat="46.99689" lon="3.08523">
        <ele>218.39999389648</ele>
        <time>2022-10-29T03:48:03.000Z</time>
      </trkpt>
      <trkpt lat="46.99694" lon="3.08521">
        <ele>218.60000610352</ele>
        <time>2022-10-29T03:48:04.000Z</time>
      </trkpt>
      <trkpt lat="46.99714" lon="3.08519">
        <ele>218.80000305176</ele>
        <time>2022-10-29T03:48:08.000Z</time>
      </trkpt>
      <trkpt lat="46.99719" lon="3.08519">
        <ele>218.80000305176</ele>
        <time>2022-10-29T03:48:09.000Z</time>
      </trkpt>
      <trkpt lat="46.99736" lon="3.0852">
        <ele>218.60000610352</ele>
        <time>2022-10-29T03:48:12.000Z</time>
      </trkpt>
      <trkpt lat="46.99742" lon="3.08522">
        <ele>218.60000610352</ele>
        <time>2022-10-29T03:48:13.000Z</time>
      </trkpt>
      <trkpt lat="46.99782" lon="3.08524">
        <ele>218</ele>
        <time>2022-10-29T03:48:20.000Z</time>
      </trkpt>
      <trkpt lat="46.99816" lon="3.08519">
        <ele>218</ele>
        <time>2022-10-29T03:48:26.000Z</time>
      </trkpt>
      <trkpt lat="46.99849" lon="3.08512">
        <ele>218.19999694824</ele>
        <time>2022-10-29T03:48:32.000Z</time>
      </trkpt>
      <trkpt lat="46.9988" lon="3.08505">
        <ele>218.39999389648</ele>
        <time>2022-10-29T03:48:38.000Z</time>
      </trkpt>
      <trkpt lat="46.99909" lon="3.08506">
        <ele>218.80000305176</ele>
        <time>2022-10-29T03:48:44.000Z</time>
      </trkpt>
      <trkpt lat="46.99915" lon="3.08507">
        <ele>218.80000305176</ele>
        <time>2022-10-29T03:48:45.000Z</time>
      </trkpt>
      <trkpt lat="46.99947" lon="3.08515">
        <ele>218.80000305176</ele>
        <time>2022-10-29T03:48:51.000Z</time>
      </trkpt>
      <trkpt lat="46.99953" lon="3.08517">
        <ele>218.80000305176</ele>
        <time>2022-10-29T03:48:52.000Z</time>
      </trkpt>
      <trkpt lat="46.99988" lon="3.08526">
        <ele>219</ele>
        <time>2022-10-29T03:48:58.000Z</time>
      </trkpt>
      <trkpt lat="47.00027" lon="3.0854">
        <ele>218.60000610352</ele>
        <time>2022-10-29T03:49:05.000Z</time>
      </trkpt>
      <trkpt lat="47.00054" lon="3.08539">
        <ele>218.19999694824</ele>
        <time>2022-10-29T03:49:09.000Z</time>
      </trkpt>
      <trkpt lat="47.0006" lon="3.08537">
        <ele>218</ele>
        <time>2022-10-29T03:49:10.000Z</time>
      </trkpt>
      <trkpt lat="47.00066" lon="3.08534">
        <ele>217.80000305176</ele>
        <time>2022-10-29T03:49:11.000Z</time>
      </trkpt>
      <trkpt lat="47.00106" lon="3.08515">
        <ele>217.19999694824</ele>
        <time>2022-10-29T03:49:17.000Z</time>
      </trkpt>
      <trkpt lat="47.00125" lon="3.08505">
        <ele>216.80000305176</ele>
        <time>2022-10-29T03:49:20.000Z</time>
      </trkpt>
      <trkpt lat="47.00159" lon="3.08489">
        <ele>215.80000305176</ele>
        <time>2022-10-29T03:49:25.000Z</time>
      </trkpt>
      <trkpt lat="47.00165" lon="3.08486">
        <ele>215.60000610352</ele>
        <time>2022-10-29T03:49:26.000Z</time>
      </trkpt>
      <trkpt lat="47.00206" lon="3.08467">
        <ele>214.60000610352</ele>
        <time>2022-10-29T03:49:32.000Z</time>
      </trkpt>
      <trkpt lat="47.00256" lon="3.08444">
        <ele>213.60000610352</ele>
        <time>2022-10-29T03:49:39.000Z</time>
      </trkpt>
      <trkpt lat="47.00263" lon="3.08441">
        <ele>213.39999389648</ele>
        <time>2022-10-29T03:49:40.000Z</time>
      </trkpt>
      <trkpt lat="47.00291" lon="3.08427">
        <ele>212.80000305176</ele>
        <time>2022-10-29T03:49:44.000Z</time>
      </trkpt>
      <trkpt lat="47.00313" lon="3.08419">
        <ele>212.19999694824</ele>
        <time>2022-10-29T03:49:47.000Z</time>
      </trkpt>
      <trkpt lat="47.0032" lon="3.08417">
        <ele>212.19999694824</ele>
        <time>2022-10-29T03:49:48.000Z</time>
      </trkpt>
      <trkpt lat="47.00328" lon="3.08415">
        <ele>212</ele>
        <time>2022-10-29T03:49:49.000Z</time>
      </trkpt>
      <trkpt lat="47.00336" lon="3.08411">
        <ele>211.60000610352</ele>
        <time>2022-10-29T03:49:50.000Z</time>
      </trkpt>
      <trkpt lat="47.0035" lon="3.08401">
        <ele>211.19999694824</ele>
        <time>2022-10-29T03:49:52.000Z</time>
      </trkpt>
      <trkpt lat="47.00379" lon="3.08386">
        <ele>210.19999694824</ele>
        <time>2022-10-29T03:49:56.000Z</time>
      </trkpt>
      <trkpt lat="47.00388" lon="3.08382">
        <ele>210</ele>
        <time>2022-10-29T03:49:57.000Z</time>
      </trkpt>
      <trkpt lat="47.00425" lon="3.08363">
        <ele>209</ele>
        <time>2022-10-29T03:50:02.000Z</time>
      </trkpt>
      <trkpt lat="47.00437" lon="3.08357">
        <ele>208.39999389648</ele>
        <time>2022-10-29T03:50:04.000Z</time>
      </trkpt>
      <trkpt lat="47.00452" lon="3.08351">
        <ele>208</ele>
        <time>2022-10-29T03:50:06.000Z</time>
      </trkpt>
      <trkpt lat="47.0046" lon="3.08349">
        <ele>207.60000610352</ele>
        <time>2022-10-29T03:50:07.000Z</time>
      </trkpt>
      <trkpt lat="47.00475" lon="3.08347">
        <ele>207.39999389648</ele>
        <time>2022-10-29T03:50:09.000Z</time>
      </trkpt>
      <trkpt lat="47.00504" lon="3.08342">
        <ele>206.60000610352</ele>
        <time>2022-10-29T03:50:13.000Z</time>
      </trkpt>
      <trkpt lat="47.00536" lon="3.08338">
        <ele>206.19999694824</ele>
        <time>2022-10-29T03:50:17.000Z</time>
      </trkpt>
      <trkpt lat="47.00592" lon="3.08333">
        <ele>205.39999389648</ele>
        <time>2022-10-29T03:50:24.000Z</time>
      </trkpt>
      <trkpt lat="47.00615" lon="3.0833">
        <ele>204.80000305176</ele>
        <time>2022-10-29T03:50:27.000Z</time>
      </trkpt>
      <trkpt lat="47.00638" lon="3.08327">
        <ele>204.39999389648</ele>
        <time>2022-10-29T03:50:30.000Z</time>
      </trkpt>
      <trkpt lat="47.00678" lon="3.08322">
        <ele>203.19999694824</ele>
        <time>2022-10-29T03:50:35.000Z</time>
      </trkpt>
      <trkpt lat="47.00703" lon="3.08319">
        <ele>202.80000305176</ele>
        <time>2022-10-29T03:50:38.000Z</time>
      </trkpt>
      <trkpt lat="47.00734" lon="3.08315">
        <ele>202.19999694824</ele>
        <time>2022-10-29T03:50:42.000Z</time>
      </trkpt>
      <trkpt lat="47.00765" lon="3.0831">
        <ele>201.60000610352</ele>
        <time>2022-10-29T03:50:46.000Z</time>
      </trkpt>
      <trkpt lat="47.00786" lon="3.08309">
        <ele>201.19999694824</ele>
        <time>2022-10-29T03:50:49.000Z</time>
      </trkpt>
      <trkpt lat="47.00817" lon="3.08305">
        <ele>200.60000610352</ele>
        <time>2022-10-29T03:50:53.000Z</time>
      </trkpt>
      <trkpt lat="47.00846" lon="3.08302">
        <ele>200.19999694824</ele>
        <time>2022-10-29T03:50:57.000Z</time>
      </trkpt>
      <trkpt lat="47.00876" lon="3.08299">
        <ele>199.60000610352</ele>
        <time>2022-10-29T03:51:01.000Z</time>
      </trkpt>
      <trkpt lat="47.00898" lon="3.08296">
        <ele>199.19999694824</ele>
        <time>2022-10-29T03:51:04.000Z</time>
      </trkpt>
      <trkpt lat="47.00927" lon="3.08293">
        <ele>198.60000610352</ele>
        <time>2022-10-29T03:51:08.000Z</time>
      </trkpt>
      <trkpt lat="47.00957" lon="3.08291">
        <ele>198.19999694824</ele>
        <time>2022-10-29T03:51:12.000Z</time>
      </trkpt>
      <trkpt lat="47.00972" lon="3.08292">
        <ele>197.80000305176</ele>
        <time>2022-10-29T03:51:14.000Z</time>
      </trkpt>
      <trkpt lat="47.0101" lon="3.08295">
        <ele>197</ele>
        <time>2022-10-29T03:51:19.000Z</time>
      </trkpt>
      <trkpt lat="47.01033" lon="3.08295">
        <ele>196.60000610352</ele>
        <time>2022-10-29T03:51:22.000Z</time>
      </trkpt>
      <trkpt lat="47.01055" lon="3.08292">
        <ele>196</ele>
        <time>2022-10-29T03:51:25.000Z</time>
      </trkpt>
      <trkpt lat="47.01082" lon="3.08285">
        <ele>194.80000305176</ele>
        <time>2022-10-29T03:51:28.000Z</time>
      </trkpt>
      <trkpt lat="47.01107" lon="3.08277">
        <ele>193.19999694824</ele>
        <time>2022-10-29T03:51:31.000Z</time>
      </trkpt>
      <trkpt lat="47.01132" lon="3.08268">
        <ele>191.80000305176</ele>
        <time>2022-10-29T03:51:34.000Z</time>
      </trkpt>
      <trkpt lat="47.0114" lon="3.08266">
        <ele>191.39999389648</ele>
        <time>2022-10-29T03:51:35.000Z</time>
      </trkpt>
      <trkpt lat="47.0117" lon="3.08255">
        <ele>190.60000610352</ele>
        <time>2022-10-29T03:51:39.000Z</time>
      </trkpt>
      <trkpt lat="47.01177" lon="3.08252">
        <ele>190.60000610352</ele>
        <time>2022-10-29T03:51:40.000Z</time>
      </trkpt>
      <trkpt lat="47.01208" lon="3.08241">
        <ele>190.80000305176</ele>
        <time>2022-10-29T03:51:45.000Z</time>
      </trkpt>
      <trkpt lat="47.01225" lon="3.08237">
        <ele>191.60000610352</ele>
        <time>2022-10-29T03:51:49.000Z</time>
      </trkpt>
      <trkpt lat="47.0123" lon="3.08235">
        <ele>191.80000305176</ele>
        <time>2022-10-29T03:51:50.000Z</time>
      </trkpt>
      <trkpt lat="47.01248" lon="3.0823">
        <ele>192.80000305176</ele>
        <time>2022-10-29T03:51:54.000Z</time>
      </trkpt>
      <trkpt lat="47.01257" lon="3.08229">
        <ele>193</ele>
        <time>2022-10-29T03:51:56.000Z</time>
      </trkpt>
      <trkpt lat="47.01269" lon="3.0823">
        <ele>193.19999694824</ele>
        <time>2022-10-29T03:52:00.000Z</time>
      </trkpt>
      <trkpt lat="47.0127" lon="3.08231">
        <ele>193.19999694824</ele>
        <time>2022-10-29T03:52:05.000Z</time>
      </trkpt>
      <trkpt lat="47.01273" lon="3.08232">
        <ele>193.19999694824</ele>
        <time>2022-10-29T03:52:12.000Z</time>
      </trkpt>
      <trkpt lat="47.01282" lon="3.08232">
        <ele>193</ele>
        <time>2022-10-29T03:52:16.000Z</time>
      </trkpt>
      <trkpt lat="47.01285" lon="3.08233">
        <ele>193</ele>
        <time>2022-10-29T03:52:17.000Z</time>
      </trkpt>
      <trkpt lat="47.01305" lon="3.08244">
        <ele>193.39999389648</ele>
        <time>2022-10-29T03:52:23.000Z</time>
      </trkpt>
      <trkpt lat="47.01328" lon="3.08246">
        <ele>193.80000305176</ele>
        <time>2022-10-29T03:52:28.000Z</time>
      </trkpt>
      <trkpt lat="47.01365" lon="3.0825">
        <ele>193.80000305176</ele>
        <time>2022-10-29T03:52:36.000Z</time>
      </trkpt>
      <trkpt lat="47.01398" lon="3.08255">
        <ele>193.80000305176</ele>
        <time>2022-10-29T03:52:43.000Z</time>
      </trkpt>
      <trkpt lat="47.01429" lon="3.0826">
        <ele>193.80000305176</ele>
        <time>2022-10-29T03:52:49.000Z</time>
      </trkpt>
      <trkpt lat="47.01471" lon="3.08265">
        <ele>193.60000610352</ele>
        <time>2022-10-29T03:52:57.000Z</time>
      </trkpt>
      <trkpt lat="47.01507" lon="3.08269">
        <ele>193.19999694824</ele>
        <time>2022-10-29T03:53:04.000Z</time>
      </trkpt>
      <trkpt lat="47.01563" lon="3.08274">
        <ele>193.39999389648</ele>
        <time>2022-10-29T03:53:15.000Z</time>
      </trkpt>
      <trkpt lat="47.01567" lon="3.08275">
        <ele>193.39999389648</ele>
        <time>2022-10-29T03:53:16.000Z</time>
      </trkpt>
      <trkpt lat="47.01603" lon="3.08278">
        <ele>193.80000305176</ele>
        <time>2022-10-29T03:53:23.000Z</time>
      </trkpt>
      <trkpt lat="47.01646" lon="3.08283">
        <ele>194.19999694824</ele>
        <time>2022-10-29T03:53:32.000Z</time>
      </trkpt>
      <trkpt lat="47.01662" lon="3.08287">
        <ele>194.39999389648</ele>
        <time>2022-10-29T03:53:37.000Z</time>
      </trkpt>
      <trkpt lat="47.01676" lon="3.08292">
        <ele>194.60000610352</ele>
        <time>2022-10-29T03:53:41.000Z</time>
      </trkpt>
      <trkpt lat="47.01685" lon="3.0829">
        <ele>195</ele>
        <time>2022-10-29T03:53:43.000Z</time>
      </trkpt>
      <trkpt lat="47.01699" lon="3.08291">
        <ele>194.60000610352</ele>
        <time>2022-10-29T03:53:46.000Z</time>
      </trkpt>
      <trkpt lat="47.01709" lon="3.0829">
        <ele>194.39999389648</ele>
        <time>2022-10-29T03:53:48.000Z</time>
      </trkpt>
      <trkpt lat="47.01728" lon="3.08293">
        <ele>194.39999389648</ele>
        <time>2022-10-29T03:53:51.000Z</time>
      </trkpt>
      <trkpt lat="47.01768" lon="3.08296">
        <ele>193.39999389648</ele>
        <time>2022-10-29T03:53:58.000Z</time>
      </trkpt>
      <trkpt lat="47.0179" lon="3.08298">
        <ele>193</ele>
        <time>2022-10-29T03:54:01.000Z</time>
      </trkpt>
      <trkpt lat="47.01802" lon="3.08299">
        <ele>192.60000610352</ele>
        <time>2022-10-29T03:54:03.000Z</time>
      </trkpt>
      <trkpt lat="47.01836" lon="3.08303">
        <ele>192</ele>
        <time>2022-10-29T03:54:08.000Z</time>
      </trkpt>
      <trkpt lat="47.01863" lon="3.08306">
        <ele>191</ele>
        <time>2022-10-29T03:54:12.000Z</time>
      </trkpt>
      <trkpt lat="47.0187" lon="3.08307">
        <ele>190.39999389648</ele>
        <time>2022-10-29T03:54:13.000Z</time>
      </trkpt>
      <trkpt lat="47.0189" lon="3.08308">
        <ele>189.19999694824</ele>
        <time>2022-10-29T03:54:16.000Z</time>
      </trkpt>
      <trkpt lat="47.01909" lon="3.0831">
        <ele>188.39999389648</ele>
        <time>2022-10-29T03:54:19.000Z</time>
      </trkpt>
      <trkpt lat="47.01916" lon="3.08312">
        <ele>188.19999694824</ele>
        <time>2022-10-29T03:54:20.000Z</time>
      </trkpt>
      <trkpt lat="47.0192" lon="3.08312">
        <ele>188</ele>
        <time>2022-10-29T03:54:21.000Z</time>
      </trkpt>
      <trkpt lat="47.01938" lon="3.08309">
        <ele>187</ele>
        <time>2022-10-29T03:54:24.000Z</time>
      </trkpt>
      <trkpt lat="47.01943" lon="3.08308">
        <ele>187</ele>
        <time>2022-10-29T03:54:25.000Z</time>
      </trkpt>
      <trkpt lat="47.01966" lon="3.08311">
        <ele>185.60000610352</ele>
        <time>2022-10-29T03:54:29.000Z</time>
      </trkpt>
      <trkpt lat="47.01984" lon="3.08312">
        <ele>185</ele>
        <time>2022-10-29T03:54:32.000Z</time>
      </trkpt>
      <trkpt lat="47.02004" lon="3.0831">
        <ele>184.80000305176</ele>
        <time>2022-10-29T03:54:36.000Z</time>
      </trkpt>
      <trkpt lat="47.02009" lon="3.0831">
        <ele>184.60000610352</ele>
        <time>2022-10-29T03:54:37.000Z</time>
      </trkpt>
      <trkpt lat="47.02032" lon="3.08307">
        <ele>184.39999389648</ele>
        <time>2022-10-29T03:54:42.000Z</time>
      </trkpt>
      <trkpt lat="47.02065" lon="3.083">
        <ele>184.19999694824</ele>
        <time>2022-10-29T03:54:49.000Z</time>
      </trkpt>
      <trkpt lat="47.0207" lon="3.083">
        <ele>184.19999694824</ele>
        <time>2022-10-29T03:54:50.000Z</time>
      </trkpt>
      <trkpt lat="47.02079" lon="3.08299">
        <ele>184.19999694824</ele>
        <time>2022-10-29T03:54:52.000Z</time>
      </trkpt>
      <trkpt lat="47.02091" lon="3.083">
        <ele>184.39999389648</ele>
        <time>2022-10-29T03:54:55.000Z</time>
      </trkpt>
      <trkpt lat="47.02132" lon="3.08296">
        <ele>184.60000610352</ele>
        <time>2022-10-29T03:55:04.000Z</time>
      </trkpt>
      <trkpt lat="47.02154" lon="3.08293">
        <ele>185</ele>
        <time>2022-10-29T03:55:08.000Z</time>
      </trkpt>
      <trkpt lat="47.02159" lon="3.08292">
        <ele>185</ele>
        <time>2022-10-29T03:55:09.000Z</time>
      </trkpt>
      <trkpt lat="47.02197" lon="3.08282">
        <ele>185.80000305176</ele>
        <time>2022-10-29T03:55:17.000Z</time>
      </trkpt>
      <trkpt lat="47.02207" lon="3.08281">
        <ele>185.80000305176</ele>
        <time>2022-10-29T03:55:19.000Z</time>
      </trkpt>
      <trkpt lat="47.02212" lon="3.0828">
        <ele>186</ele>
        <time>2022-10-29T03:55:20.000Z</time>
      </trkpt>
      <trkpt lat="47.02226" lon="3.08282">
        <ele>186.39999389648</ele>
        <time>2022-10-29T03:55:23.000Z</time>
      </trkpt>
      <trkpt lat="47.02236" lon="3.08286">
        <ele>186.60000610352</ele>
        <time>2022-10-29T03:55:25.000Z</time>
      </trkpt>
      <trkpt lat="47.02255" lon="3.08295">
        <ele>186.80000305176</ele>
        <time>2022-10-29T03:55:29.000Z</time>
      </trkpt>
      <trkpt lat="47.02261" lon="3.08297">
        <ele>186.80000305176</ele>
        <time>2022-10-29T03:55:30.000Z</time>
      </trkpt>
      <trkpt lat="47.02275" lon="3.08302">
        <ele>187</ele>
        <time>2022-10-29T03:55:33.000Z</time>
      </trkpt>
      <trkpt lat="47.02328" lon="3.08329">
        <ele>187.39999389648</ele>
        <time>2022-10-29T03:55:44.000Z</time>
      </trkpt>
      <trkpt lat="47.02332" lon="3.08331">
        <ele>187.60000610352</ele>
        <time>2022-10-29T03:55:45.000Z</time>
      </trkpt>
      <trkpt lat="47.02351" lon="3.0834">
        <ele>187.60000610352</ele>
        <time>2022-10-29T03:55:49.000Z</time>
      </trkpt>
      <trkpt lat="47.02374" lon="3.08352">
        <ele>187.60000610352</ele>
        <time>2022-10-29T03:55:54.000Z</time>
      </trkpt>
      <trkpt lat="47.02422" lon="3.08372">
        <ele>187.80000305176</ele>
        <time>2022-10-29T03:56:04.000Z</time>
      </trkpt>
      <trkpt lat="47.02436" lon="3.08379">
        <ele>188</ele>
        <time>2022-10-29T03:56:07.000Z</time>
      </trkpt>
      <trkpt lat="47.02461" lon="3.08392">
        <ele>188.19999694824</ele>
        <time>2022-10-29T03:56:12.000Z</time>
      </trkpt>
      <trkpt lat="47.02495" lon="3.08403">
        <ele>188.39999389648</ele>
        <time>2022-10-29T03:56:19.000Z</time>
      </trkpt>
      <trkpt lat="47.02538" lon="3.08415">
        <ele>188.60000610352</ele>
        <time>2022-10-29T03:56:27.000Z</time>
      </trkpt>
      <trkpt lat="47.02585" lon="3.08425">
        <ele>188.80000305176</ele>
        <time>2022-10-29T03:56:36.000Z</time>
      </trkpt>
      <trkpt lat="47.02601" lon="3.08425">
        <ele>189</ele>
        <time>2022-10-29T03:56:39.000Z</time>
      </trkpt>
      <trkpt lat="47.02628" lon="3.08421">
        <ele>189</ele>
        <time>2022-10-29T03:56:44.000Z</time>
      </trkpt>
      <trkpt lat="47.02684" lon="3.08411">
        <ele>189</ele>
        <time>2022-10-29T03:56:54.000Z</time>
      </trkpt>
      <trkpt lat="47.02697" lon="3.08409">
        <ele>189</ele>
        <time>2022-10-29T03:56:56.000Z</time>
      </trkpt>
      <trkpt lat="47.02719" lon="3.08407">
        <ele>189</ele>
        <time>2022-10-29T03:57:00.000Z</time>
      </trkpt>
      <trkpt lat="47.02771" lon="3.08402">
        <ele>188.80000305176</ele>
        <time>2022-10-29T03:57:09.000Z</time>
      </trkpt>
      <trkpt lat="47.02812" lon="3.08397">
        <ele>188.60000610352</ele>
        <time>2022-10-29T03:57:16.000Z</time>
      </trkpt>
      <trkpt lat="47.02823" lon="3.08398">
        <ele>188.60000610352</ele>
        <time>2022-10-29T03:57:18.000Z</time>
      </trkpt>
      <trkpt lat="47.02854" lon="3.08395">
        <ele>188</ele>
        <time>2022-10-29T03:57:24.000Z</time>
      </trkpt>
      <trkpt lat="47.02859" lon="3.08394">
        <ele>187.80000305176</ele>
        <time>2022-10-29T03:57:25.000Z</time>
      </trkpt>
      <trkpt lat="47.02886" lon="3.08391">
        <ele>187.80000305176</ele>
        <time>2022-10-29T03:57:30.000Z</time>
      </trkpt>
      <trkpt lat="47.02897" lon="3.08389">
        <ele>187.60000610352</ele>
        <time>2022-10-29T03:57:32.000Z</time>
      </trkpt>
      <trkpt lat="47.02918" lon="3.08386">
        <ele>187.39999389648</ele>
        <time>2022-10-29T03:57:36.000Z</time>
      </trkpt>
      <trkpt lat="47.02933" lon="3.08383">
        <ele>187.39999389648</ele>
        <time>2022-10-29T03:57:39.000Z</time>
      </trkpt>
      <trkpt lat="47.02939" lon="3.08373">
        <ele>187.19999694824</ele>
        <time>2022-10-29T03:57:41.000Z</time>
      </trkpt>
      <trkpt lat="47.02942" lon="3.08341">
        <ele>187</ele>
        <time>2022-10-29T03:57:45.000Z</time>
      </trkpt>
      <trkpt lat="47.02944" lon="3.08316">
        <ele>186.80000305176</ele>
        <time>2022-10-29T03:57:48.000Z</time>
      </trkpt>
      <trkpt lat="47.02948" lon="3.08268">
        <ele>186.19999694824</ele>
        <time>2022-10-29T03:57:53.000Z</time>
      </trkpt>
      <trkpt lat="47.02951" lon="3.08223">
        <ele>185.60000610352</ele>
        <time>2022-10-29T03:57:58.000Z</time>
      </trkpt>
      <trkpt lat="47.02953" lon="3.08193">
        <ele>185.19999694824</ele>
        <time>2022-10-29T03:58:01.000Z</time>
      </trkpt>
      <trkpt lat="47.02956" lon="3.08163">
        <ele>184.60000610352</ele>
        <time>2022-10-29T03:58:04.000Z</time>
      </trkpt>
      <trkpt lat="47.02959" lon="3.08123">
        <ele>184.19999694824</ele>
        <time>2022-10-29T03:58:08.000Z</time>
      </trkpt>
      <trkpt lat="47.02965" lon="3.08062">
        <ele>183.80000305176</ele>
        <time>2022-10-29T03:58:14.000Z</time>
      </trkpt>
      <trkpt lat="47.02967" lon="3.08042">
        <ele>183.80000305176</ele>
        <time>2022-10-29T03:58:16.000Z</time>
      </trkpt>
      <trkpt lat="47.0297" lon="3.08">
        <ele>183.60000610352</ele>
        <time>2022-10-29T03:58:20.000Z</time>
      </trkpt>
      <trkpt lat="47.02976" lon="3.07923">
        <ele>182.60000610352</ele>
        <time>2022-10-29T03:58:28.000Z</time>
      </trkpt>
      <trkpt lat="47.02977" lon="3.07913">
        <ele>182.60000610352</ele>
        <time>2022-10-29T03:58:29.000Z</time>
      </trkpt>
      <trkpt lat="47.02981" lon="3.07848">
        <ele>182.39999389648</ele>
        <time>2022-10-29T03:58:36.000Z</time>
      </trkpt>
      <trkpt lat="47.02986" lon="3.07798">
        <ele>182.19999694824</ele>
        <time>2022-10-29T03:58:42.000Z</time>
      </trkpt>
      <trkpt lat="47.02992" lon="3.0779">
        <ele>182</ele>
        <time>2022-10-29T03:58:44.000Z</time>
      </trkpt>
      <trkpt lat="47.02997" lon="3.07788">
        <ele>182</ele>
        <time>2022-10-29T03:58:45.000Z</time>
      </trkpt>
      <trkpt lat="47.03037" lon="3.07778">
        <ele>182</ele>
        <time>2022-10-29T03:58:52.000Z</time>
      </trkpt>
      <trkpt lat="47.03079" lon="3.07762">
        <ele>182</ele>
        <time>2022-10-29T03:58:59.000Z</time>
      </trkpt>
      <trkpt lat="47.03114" lon="3.07747">
        <ele>182.19999694824</ele>
        <time>2022-10-29T03:59:05.000Z</time>
      </trkpt>
      <trkpt lat="47.0312" lon="3.07744">
        <ele>182</ele>
        <time>2022-10-29T03:59:06.000Z</time>
      </trkpt>
      <trkpt lat="47.03177" lon="3.07721">
        <ele>182</ele>
        <time>2022-10-29T03:59:15.000Z</time>
      </trkpt>
      <trkpt lat="47.03227" lon="3.077">
        <ele>181.60000610352</ele>
        <time>2022-10-29T03:59:23.000Z</time>
      </trkpt>
      <trkpt lat="47.0324" lon="3.07695">
        <ele>181.60000610352</ele>
        <time>2022-10-29T03:59:25.000Z</time>
      </trkpt>
      <trkpt lat="47.03296" lon="3.07677">
        <ele>181.60000610352</ele>
        <time>2022-10-29T03:59:34.000Z</time>
      </trkpt>
      <trkpt lat="47.03308" lon="3.07674">
        <ele>181.80000305176</ele>
        <time>2022-10-29T03:59:36.000Z</time>
      </trkpt>
      <trkpt lat="47.03367" lon="3.0766">
        <ele>181.60000610352</ele>
        <time>2022-10-29T03:59:45.000Z</time>
      </trkpt>
      <trkpt lat="47.0338" lon="3.07656">
        <ele>181.60000610352</ele>
        <time>2022-10-29T03:59:47.000Z</time>
      </trkpt>
      <trkpt lat="47.03438" lon="3.0764">
        <ele>181.60000610352</ele>
        <time>2022-10-29T03:59:56.000Z</time>
      </trkpt>
      <trkpt lat="47.03451" lon="3.07637">
        <ele>181.60000610352</ele>
        <time>2022-10-29T03:59:58.000Z</time>
      </trkpt>
      <trkpt lat="47.03504" lon="3.0762">
        <ele>181.39999389648</ele>
        <time>2022-10-29T04:00:06.000Z</time>
      </trkpt>
      <trkpt lat="47.03548" lon="3.07601">
        <ele>181.39999389648</ele>
        <time>2022-10-29T04:00:13.000Z</time>
      </trkpt>
      <trkpt lat="47.03599" lon="3.07576">
        <ele>181.39999389648</ele>
        <time>2022-10-29T04:00:21.000Z</time>
      </trkpt>
      <trkpt lat="47.03619" lon="3.07566">
        <ele>181.60000610352</ele>
        <time>2022-10-29T04:00:24.000Z</time>
      </trkpt>
      <trkpt lat="47.03668" lon="3.07531">
        <ele>181.39999389648</ele>
        <time>2022-10-29T04:00:32.000Z</time>
      </trkpt>
      <trkpt lat="47.03705" lon="3.07507">
        <ele>181.39999389648</ele>
        <time>2022-10-29T04:00:38.000Z</time>
      </trkpt>
      <trkpt lat="47.0376" lon="3.07476">
        <ele>181.39999389648</ele>
        <time>2022-10-29T04:00:47.000Z</time>
      </trkpt>
      <trkpt lat="47.03771" lon="3.07469">
        <ele>181.60000610352</ele>
        <time>2022-10-29T04:00:49.000Z</time>
      </trkpt>
      <trkpt lat="47.0382" lon="3.07442">
        <ele>181.80000305176</ele>
        <time>2022-10-29T04:00:57.000Z</time>
      </trkpt>
      <trkpt lat="47.03867" lon="3.07416">
        <ele>182.19999694824</ele>
        <time>2022-10-29T04:01:05.000Z</time>
      </trkpt>
      <trkpt lat="47.03917" lon="3.0738">
        <ele>182.19999694824</ele>
        <time>2022-10-29T04:01:14.000Z</time>
      </trkpt>
      <trkpt lat="47.03969" lon="3.07339">
        <ele>181.80000305176</ele>
        <time>2022-10-29T04:01:23.000Z</time>
      </trkpt>
      <trkpt lat="47.04017" lon="3.07309">
        <ele>181.60000610352</ele>
        <time>2022-10-29T04:01:31.000Z</time>
      </trkpt>
      <trkpt lat="47.04061" lon="3.07295">
        <ele>181.39999389648</ele>
        <time>2022-10-29T04:01:38.000Z</time>
      </trkpt>
      <trkpt lat="47.04119" lon="3.07282">
        <ele>181.39999389648</ele>
        <time>2022-10-29T04:01:46.000Z</time>
      </trkpt>
      <trkpt lat="47.04174" lon="3.07268">
        <ele>181.19999694824</ele>
        <time>2022-10-29T04:01:54.000Z</time>
      </trkpt>
      <trkpt lat="47.04207" lon="3.07257">
        <ele>181.19999694824</ele>
        <time>2022-10-29T04:01:59.000Z</time>
      </trkpt>
      <trkpt lat="47.0425" lon="3.07238">
        <ele>181.39999389648</ele>
        <time>2022-10-29T04:02:06.000Z</time>
      </trkpt>
      <trkpt lat="47.04306" lon="3.07214">
        <ele>181.60000610352</ele>
        <time>2022-10-29T04:02:15.000Z</time>
      </trkpt>
      <trkpt lat="47.04318" lon="3.07209">
        <ele>181.60000610352</ele>
        <time>2022-10-29T04:02:17.000Z</time>
      </trkpt>
      <trkpt lat="47.04371" lon="3.07186">
        <ele>181.60000610352</ele>
        <time>2022-10-29T04:02:25.000Z</time>
      </trkpt>
      <trkpt lat="47.04382" lon="3.0718">
        <ele>181.60000610352</ele>
        <time>2022-10-29T04:02:27.000Z</time>
      </trkpt>
      <trkpt lat="47.0443" lon="3.07151">
        <ele>181.60000610352</ele>
        <time>2022-10-29T04:02:35.000Z</time>
      </trkpt>
      <trkpt lat="47.04475" lon="3.07126">
        <ele>181.39999389648</ele>
        <time>2022-10-29T04:02:42.000Z</time>
      </trkpt>
      <trkpt lat="47.04528" lon="3.07105">
        <ele>181</ele>
        <time>2022-10-29T04:02:50.000Z</time>
      </trkpt>
      <trkpt lat="47.04534" lon="3.07102">
        <ele>181</ele>
        <time>2022-10-29T04:02:51.000Z</time>
      </trkpt>
      <trkpt lat="47.04584" lon="3.07081">
        <ele>180.80000305176</ele>
        <time>2022-10-29T04:02:59.000Z</time>
      </trkpt>
      <trkpt lat="47.04628" lon="3.0706">
        <ele>180.80000305176</ele>
        <time>2022-10-29T04:03:06.000Z</time>
      </trkpt>
      <trkpt lat="47.04634" lon="3.07057">
        <ele>180.80000305176</ele>
        <time>2022-10-29T04:03:07.000Z</time>
      </trkpt>
      <trkpt lat="47.04662" lon="3.0703">
        <ele>180.80000305176</ele>
        <time>2022-10-29T04:03:12.000Z</time>
      </trkpt>
      <trkpt lat="47.04704" lon="3.06979">
        <ele>180.80000305176</ele>
        <time>2022-10-29T04:03:20.000Z</time>
      </trkpt>
      <trkpt lat="47.04742" lon="3.06942">
        <ele>180.80000305176</ele>
        <time>2022-10-29T04:03:28.000Z</time>
      </trkpt>
      <trkpt lat="47.04795" lon="3.06889">
        <ele>181</ele>
        <time>2022-10-29T04:03:37.000Z</time>
      </trkpt>
      <trkpt lat="47.04801" lon="3.06884">
        <ele>181</ele>
        <time>2022-10-29T04:03:38.000Z</time>
      </trkpt>
      <trkpt lat="47.04848" lon="3.06833">
        <ele>180.80000305176</ele>
        <time>2022-10-29T04:03:47.000Z</time>
      </trkpt>
      <trkpt lat="47.04853" lon="3.06828">
        <ele>180.80000305176</ele>
        <time>2022-10-29T04:03:48.000Z</time>
      </trkpt>
      <trkpt lat="47.04899" lon="3.06776">
        <ele>180.80000305176</ele>
        <time>2022-10-29T04:03:57.000Z</time>
      </trkpt>
      <trkpt lat="47.04937" lon="3.06725">
        <ele>180.60000610352</ele>
        <time>2022-10-29T04:04:05.000Z</time>
      </trkpt>
      <trkpt lat="47.04976" lon="3.06679">
        <ele>180.80000305176</ele>
        <time>2022-10-29T04:04:13.000Z</time>
      </trkpt>
      <trkpt lat="47.05021" lon="3.06643">
        <ele>181.19999694824</ele>
        <time>2022-10-29T04:04:21.000Z</time>
      </trkpt>
      <trkpt lat="47.05073" lon="3.06605">
        <ele>181.19999694824</ele>
        <time>2022-10-29T04:04:30.000Z</time>
      </trkpt>
      <trkpt lat="47.05108" lon="3.06564">
        <ele>181.60000610352</ele>
        <time>2022-10-29T04:04:38.000Z</time>
      </trkpt>
      <trkpt lat="47.05154" lon="3.06512">
        <ele>181.39999389648</ele>
        <time>2022-10-29T04:04:46.000Z</time>
      </trkpt>
      <trkpt lat="47.05174" lon="3.06488">
        <ele>181.39999389648</ele>
        <time>2022-10-29T04:04:50.000Z</time>
      </trkpt>
      <trkpt lat="47.052" lon="3.06455">
        <ele>181.60000610352</ele>
        <time>2022-10-29T04:04:55.000Z</time>
      </trkpt>
      <trkpt lat="47.05205" lon="3.06447">
        <ele>181.60000610352</ele>
        <time>2022-10-29T04:04:56.000Z</time>
      </trkpt>
      <trkpt lat="47.05236" lon="3.06392">
        <ele>181.60000610352</ele>
        <time>2022-10-29T04:05:03.000Z</time>
      </trkpt>
      <trkpt lat="47.05266" lon="3.06342">
        <ele>181.60000610352</ele>
        <time>2022-10-29T04:05:10.000Z</time>
      </trkpt>
      <trkpt lat="47.05271" lon="3.06324">
        <ele>181.60000610352</ele>
        <time>2022-10-29T04:05:12.000Z</time>
      </trkpt>
      <trkpt lat="47.05276" lon="3.06297">
        <ele>181.60000610352</ele>
        <time>2022-10-29T04:05:15.000Z</time>
      </trkpt>
      <trkpt lat="47.05283" lon="3.06249">
        <ele>181.39999389648</ele>
        <time>2022-10-29T04:05:20.000Z</time>
      </trkpt>
      <trkpt lat="47.05285" lon="3.06238">
        <ele>181.19999694824</ele>
        <time>2022-10-29T04:05:22.000Z</time>
      </trkpt>
      <trkpt lat="47.05306" lon="3.0618">
        <ele>181</ele>
        <time>2022-10-29T04:05:28.000Z</time>
      </trkpt>
      <trkpt lat="47.05339" lon="3.06111">
        <ele>181.19999694824</ele>
        <time>2022-10-29T04:05:37.000Z</time>
      </trkpt>
      <trkpt lat="47.05357" lon="3.06087">
        <ele>181</ele>
        <time>2022-10-29T04:05:41.000Z</time>
      </trkpt>
      <trkpt lat="47.05367" lon="3.06077">
        <ele>181.19999694824</ele>
        <time>2022-10-29T04:05:43.000Z</time>
      </trkpt>
      <trkpt lat="47.05402" lon="3.06052">
        <ele>181</ele>
        <time>2022-10-29T04:05:49.000Z</time>
      </trkpt>
      <trkpt lat="47.05452" lon="3.06019">
        <ele>181</ele>
        <time>2022-10-29T04:05:57.000Z</time>
      </trkpt>
      <trkpt lat="47.05457" lon="3.06015">
        <ele>181</ele>
        <time>2022-10-29T04:05:58.000Z</time>
      </trkpt>
      <trkpt lat="47.05498" lon="3.05965">
        <ele>181.39999389648</ele>
        <time>2022-10-29T04:06:06.000Z</time>
      </trkpt>
      <trkpt lat="47.05533" lon="3.05925">
        <ele>181.39999389648</ele>
        <time>2022-10-29T04:06:13.000Z</time>
      </trkpt>
      <trkpt lat="47.05584" lon="3.05883">
        <ele>181.39999389648</ele>
        <time>2022-10-29T04:06:22.000Z</time>
      </trkpt>
      <trkpt lat="47.05589" lon="3.05878">
        <ele>181.39999389648</ele>
        <time>2022-10-29T04:06:23.000Z</time>
      </trkpt>
      <trkpt lat="47.05603" lon="3.05859">
        <ele>181.39999389648</ele>
        <time>2022-10-29T04:06:26.000Z</time>
      </trkpt>
      <trkpt lat="47.05611" lon="3.05848">
        <ele>181.39999389648</ele>
        <time>2022-10-29T04:06:28.000Z</time>
      </trkpt>
      <trkpt lat="47.05615" lon="3.05841">
        <ele>181.39999389648</ele>
        <time>2022-10-29T04:06:30.000Z</time>
      </trkpt>
      <trkpt lat="47.05626" lon="3.05828">
        <ele>181.39999389648</ele>
        <time>2022-10-29T04:06:31.000Z</time>
      </trkpt>
      <trkpt lat="47.0564" lon="3.05815">
        <ele>181.39999389648</ele>
        <time>2022-10-29T04:06:34.000Z</time>
      </trkpt>
      <trkpt lat="47.05676" lon="3.05784">
        <ele>181.39999389648</ele>
        <time>2022-10-29T04:06:41.000Z</time>
      </trkpt>
      <trkpt lat="47.05722" lon="3.05756">
        <ele>182.19999694824</ele>
        <time>2022-10-29T04:06:50.000Z</time>
      </trkpt>
      <trkpt lat="47.05732" lon="3.05754">
        <ele>182.39999389648</ele>
        <time>2022-10-29T04:06:52.000Z</time>
      </trkpt>
      <trkpt lat="47.05748" lon="3.05754">
        <ele>182.80000305176</ele>
        <time>2022-10-29T04:06:55.000Z</time>
      </trkpt>
      <trkpt lat="47.05752" lon="3.05754">
        <ele>182.80000305176</ele>
        <time>2022-10-29T04:06:56.000Z</time>
      </trkpt>
      <trkpt lat="47.05795" lon="3.05761">
        <ele>183.80000305176</ele>
        <time>2022-10-29T04:07:04.000Z</time>
      </trkpt>
      <trkpt lat="47.058" lon="3.05761">
        <ele>183.80000305176</ele>
        <time>2022-10-29T04:07:05.000Z</time>
      </trkpt>
      <trkpt lat="47.05837" lon="3.05772">
        <ele>184.80000305176</ele>
        <time>2022-10-29T04:07:13.000Z</time>
      </trkpt>
      <trkpt lat="47.05842" lon="3.05773">
        <ele>185</ele>
        <time>2022-10-29T04:07:14.000Z</time>
      </trkpt>
      <trkpt lat="47.05875" lon="3.05785">
        <ele>186</ele>
        <time>2022-10-29T04:07:21.000Z</time>
      </trkpt>
      <trkpt lat="47.05885" lon="3.05787">
        <ele>186.19999694824</ele>
        <time>2022-10-29T04:07:23.000Z</time>
      </trkpt>
      <trkpt lat="47.05916" lon="3.05791">
        <ele>187</ele>
        <time>2022-10-29T04:07:30.000Z</time>
      </trkpt>
      <trkpt lat="47.05931" lon="3.05792">
        <ele>188.39999389648</ele>
        <time>2022-10-29T04:07:34.000Z</time>
      </trkpt>
      <trkpt lat="47.05948" lon="3.05793">
        <ele>189.19999694824</ele>
        <time>2022-10-29T04:07:38.000Z</time>
      </trkpt>
      <trkpt lat="47.05957" lon="3.05795">
        <ele>189.60000610352</ele>
        <time>2022-10-29T04:07:40.000Z</time>
      </trkpt>
      <trkpt lat="47.05966" lon="3.05796">
        <ele>190</ele>
        <time>2022-10-29T04:07:42.000Z</time>
      </trkpt>
      <trkpt lat="47.05974" lon="3.05798">
        <ele>190.39999389648</ele>
        <time>2022-10-29T04:07:44.000Z</time>
      </trkpt>
      <trkpt lat="47.05982" lon="3.05799">
        <ele>190.80000305176</ele>
        <time>2022-10-29T04:07:46.000Z</time>
      </trkpt>
      <trkpt lat="47.05999" lon="3.058">
        <ele>191.19999694824</ele>
        <time>2022-10-29T04:07:51.000Z</time>
      </trkpt>
      <trkpt lat="47.06017" lon="3.05802">
        <ele>191.80000305176</ele>
        <time>2022-10-29T04:07:55.000Z</time>
      </trkpt>
      <trkpt lat="47.06027" lon="3.05803">
        <ele>192</ele>
        <time>2022-10-29T04:07:56.000Z</time>
      </trkpt>
      <trkpt lat="47.06057" lon="3.05807">
        <ele>193</ele>
        <time>2022-10-29T04:08:03.000Z</time>
      </trkpt>
      <trkpt lat="47.06068" lon="3.05807">
        <ele>193</ele>
        <time>2022-10-29T04:08:04.000Z</time>
      </trkpt>
      <trkpt lat="47.06106" lon="3.05812">
        <ele>194</ele>
        <time>2022-10-29T04:08:12.000Z</time>
      </trkpt>
      <trkpt lat="47.06132" lon="3.05814">
        <ele>195</ele>
        <time>2022-10-29T04:08:18.000Z</time>
      </trkpt>
      <trkpt lat="47.06137" lon="3.05814">
        <ele>195.19999694824</ele>
        <time>2022-10-29T04:08:19.000Z</time>
      </trkpt>
      <trkpt lat="47.06145" lon="3.05815">
        <ele>195.60000610352</ele>
        <time>2022-10-29T04:08:21.000Z</time>
      </trkpt>
      <trkpt lat="47.06159" lon="3.05816">
        <ele>196.19999694824</ele>
        <time>2022-10-29T04:08:24.000Z</time>
      </trkpt>
      <trkpt lat="47.06163" lon="3.05817">
        <ele>196.39999389648</ele>
        <time>2022-10-29T04:08:25.000Z</time>
      </trkpt>
      <trkpt lat="47.06182" lon="3.05818">
        <ele>197.19999694824</ele>
        <time>2022-10-29T04:08:30.000Z</time>
      </trkpt>
      <trkpt lat="47.06191" lon="3.05818">
        <ele>197.19999694824</ele>
        <time>2022-10-29T04:08:31.000Z</time>
      </trkpt>
      <trkpt lat="47.06196" lon="3.05818">
        <ele>197.39999389648</ele>
        <time>2022-10-29T04:08:32.000Z</time>
      </trkpt>
      <trkpt lat="47.06209" lon="3.05817">
        <ele>198.19999694824</ele>
        <time>2022-10-29T04:08:35.000Z</time>
      </trkpt>
      <trkpt lat="47.06227" lon="3.05813">
        <ele>199.39999389648</ele>
        <time>2022-10-29T04:08:40.000Z</time>
      </trkpt>
      <trkpt lat="47.06235" lon="3.0581">
        <ele>199.39999389648</ele>
        <time>2022-10-29T04:08:41.000Z</time>
      </trkpt>
      <trkpt lat="47.06253" lon="3.05801">
        <ele>200</ele>
        <time>2022-10-29T04:08:45.000Z</time>
      </trkpt>
      <trkpt lat="47.06266" lon="3.05791">
        <ele>200.39999389648</ele>
        <time>2022-10-29T04:08:48.000Z</time>
      </trkpt>
      <trkpt lat="47.0627" lon="3.05787">
        <ele>200.39999389648</ele>
        <time>2022-10-29T04:08:49.000Z</time>
      </trkpt>
      <trkpt lat="47.06306" lon="3.05759">
        <ele>201.39999389648</ele>
        <time>2022-10-29T04:08:57.000Z</time>
      </trkpt>
      <trkpt lat="47.06315" lon="3.05752">
        <ele>201.60000610352</ele>
        <time>2022-10-29T04:08:59.000Z</time>
      </trkpt>
      <trkpt lat="47.06348" lon="3.05734">
        <ele>202.39999389648</ele>
        <time>2022-10-29T04:09:06.000Z</time>
      </trkpt>
      <trkpt lat="47.06348" lon="3.05734">
        <ele>202.60000610352</ele>
        <time>2022-10-29T04:09:07.000Z</time>
      </trkpt>
      <trkpt lat="47.06373" lon="3.05728">
        <ele>203.19999694824</ele>
        <time>2022-10-29T04:09:11.000Z</time>
      </trkpt>
      <trkpt lat="47.06379" lon="3.05728">
        <ele>203.39999389648</ele>
        <time>2022-10-29T04:09:12.000Z</time>
      </trkpt>
      <trkpt lat="47.06384" lon="3.05728">
        <ele>203.60000610352</ele>
        <time>2022-10-29T04:09:13.000Z</time>
      </trkpt>
      <trkpt lat="47.06418" lon="3.0573">
        <ele>204</ele>
        <time>2022-10-29T04:09:19.000Z</time>
      </trkpt>
      <trkpt lat="47.06451" lon="3.05733">
        <ele>204.80000305176</ele>
        <time>2022-10-29T04:09:26.000Z</time>
      </trkpt>
      <trkpt lat="47.0648" lon="3.05734">
        <ele>205.19999694824</ele>
        <time>2022-10-29T04:09:30.000Z</time>
      </trkpt>
      <trkpt lat="47.06518" lon="3.05735">
        <ele>205.60000610352</ele>
        <time>2022-10-29T04:09:36.000Z</time>
      </trkpt>
      <trkpt lat="47.0657" lon="3.05738">
        <ele>204.19999694824</ele>
        <time>2022-10-29T04:09:43.000Z</time>
      </trkpt>
      <trkpt lat="47.06584" lon="3.05739">
        <ele>203.80000305176</ele>
        <time>2022-10-29T04:09:46.000Z</time>
      </trkpt>
      <trkpt lat="47.06598" lon="3.0574">
        <ele>203.60000610352</ele>
        <time>2022-10-29T04:09:47.000Z</time>
      </trkpt>
      <trkpt lat="47.06611" lon="3.05738">
        <ele>203.60000610352</ele>
        <time>2022-10-29T04:09:49.000Z</time>
      </trkpt>
      <trkpt lat="47.06617" lon="3.05736">
        <ele>203.60000610352</ele>
        <time>2022-10-29T04:09:50.000Z</time>
      </trkpt>
      <trkpt lat="47.06623" lon="3.05732">
        <ele>203.60000610352</ele>
        <time>2022-10-29T04:09:51.000Z</time>
      </trkpt>
      <trkpt lat="47.06633" lon="3.05722">
        <ele>203.80000305176</ele>
        <time>2022-10-29T04:09:53.000Z</time>
      </trkpt>
      <trkpt lat="47.06645" lon="3.05713">
        <ele>204</ele>
        <time>2022-10-29T04:09:55.000Z</time>
      </trkpt>
      <trkpt lat="47.06663" lon="3.05704">
        <ele>204.19999694824</ele>
        <time>2022-10-29T04:09:58.000Z</time>
      </trkpt>
      <trkpt lat="47.06719" lon="3.05689">
        <ele>204.19999694824</ele>
        <time>2022-10-29T04:10:07.000Z</time>
      </trkpt>
      <trkpt lat="47.06765" lon="3.05674">
        <ele>205</ele>
        <time>2022-10-29T04:10:15.000Z</time>
      </trkpt>
      <trkpt lat="47.06765" lon="3.05674">
        <ele>205</ele>
        <time>2022-10-29T04:10:16.000Z</time>
      </trkpt>
      <trkpt lat="47.06794" lon="3.05664">
        <ele>205.39999389648</ele>
        <time>2022-10-29T04:10:20.000Z</time>
      </trkpt>
      <trkpt lat="47.06803" lon="3.05655">
        <ele>205.39999389648</ele>
        <time>2022-10-29T04:10:22.000Z</time>
      </trkpt>
      <trkpt lat="47.06808" lon="3.05643">
        <ele>205.80000305176</ele>
        <time>2022-10-29T04:10:24.000Z</time>
      </trkpt>
      <trkpt lat="47.0681" lon="3.05636">
        <ele>205.80000305176</ele>
        <time>2022-10-29T04:10:25.000Z</time>
      </trkpt>
      <trkpt lat="47.06811" lon="3.05629">
        <ele>206.39999389648</ele>
        <time>2022-10-29T04:10:26.000Z</time>
      </trkpt>
      <trkpt lat="47.06813" lon="3.05616">
        <ele>207</ele>
        <time>2022-10-29T04:10:28.000Z</time>
      </trkpt>
      <trkpt lat="47.06813" lon="3.0561">
        <ele>207.60000610352</ele>
        <time>2022-10-29T04:10:29.000Z</time>
      </trkpt>
      <trkpt lat="47.06813" lon="3.05604">
        <ele>207.60000610352</ele>
        <time>2022-10-29T04:10:30.000Z</time>
      </trkpt>
      <trkpt lat="47.06815" lon="3.05588">
        <ele>208.60000610352</ele>
        <time>2022-10-29T04:10:33.000Z</time>
      </trkpt>
      <trkpt lat="47.06816" lon="3.05574">
        <ele>210.19999694824</ele>
        <time>2022-10-29T04:10:36.000Z</time>
      </trkpt>
      <trkpt lat="47.06817" lon="3.05555">
        <ele>211.19999694824</ele>
        <time>2022-10-29T04:10:40.000Z</time>
      </trkpt>
      <trkpt lat="47.06818" lon="3.05537">
        <ele>212.39999389648</ele>
        <time>2022-10-29T04:10:44.000Z</time>
      </trkpt>
      <trkpt lat="47.06818" lon="3.05519">
        <ele>213.60000610352</ele>
        <time>2022-10-29T04:10:48.000Z</time>
      </trkpt>
      <trkpt lat="47.06818" lon="3.055">
        <ele>214.80000305176</ele>
        <time>2022-10-29T04:10:52.000Z</time>
      </trkpt>
      <trkpt lat="47.06818" lon="3.05491">
        <ele>215.80000305176</ele>
        <time>2022-10-29T04:10:54.000Z</time>
      </trkpt>
      <trkpt lat="47.06818" lon="3.05491">
        <ele>216</ele>
        <time>2022-10-29T04:10:55.000Z</time>
      </trkpt>
      <trkpt lat="47.06819" lon="3.05469">
        <ele>217</ele>
        <time>2022-10-29T04:10:59.000Z</time>
      </trkpt>
      <trkpt lat="47.0682" lon="3.05456">
        <ele>218.19999694824</ele>
        <time>2022-10-29T04:11:02.000Z</time>
      </trkpt>
      <trkpt lat="47.06822" lon="3.05437">
        <ele>219.60000610352</ele>
        <time>2022-10-29T04:11:06.000Z</time>
      </trkpt>
      <trkpt lat="47.06823" lon="3.05419">
        <ele>220.60000610352</ele>
        <time>2022-10-29T04:11:10.000Z</time>
      </trkpt>
      <trkpt lat="47.06825" lon="3.05401">
        <ele>221.60000610352</ele>
        <time>2022-10-29T04:11:14.000Z</time>
      </trkpt>
      <trkpt lat="47.06827" lon="3.05388">
        <ele>222.60000610352</ele>
        <time>2022-10-29T04:11:17.000Z</time>
      </trkpt>
      <trkpt lat="47.0683" lon="3.0537">
        <ele>223.60000610352</ele>
        <time>2022-10-29T04:11:21.000Z</time>
      </trkpt>
      <trkpt lat="47.06831" lon="3.05365">
        <ele>224</ele>
        <time>2022-10-29T04:11:22.000Z</time>
      </trkpt>
      <trkpt lat="47.06834" lon="3.05345">
        <ele>225</ele>
        <time>2022-10-29T04:11:26.000Z</time>
      </trkpt>
      <trkpt lat="47.06838" lon="3.05323">
        <ele>225.80000305176</ele>
        <time>2022-10-29T04:11:30.000Z</time>
      </trkpt>
      <trkpt lat="47.06838" lon="3.05318">
        <ele>226</ele>
        <time>2022-10-29T04:11:31.000Z</time>
      </trkpt>
      <trkpt lat="47.06843" lon="3.0529">
        <ele>227</ele>
        <time>2022-10-29T04:11:36.000Z</time>
      </trkpt>
      <trkpt lat="47.06844" lon="3.05284">
        <ele>227.19999694824</ele>
        <time>2022-10-29T04:11:37.000Z</time>
      </trkpt>
      <trkpt lat="47.06848" lon="3.05255">
        <ele>228</ele>
        <time>2022-10-29T04:11:43.000Z</time>
      </trkpt>
      <trkpt lat="47.0685" lon="3.05237">
        <ele>228.19999694824</ele>
        <time>2022-10-29T04:11:45.000Z</time>
      </trkpt>
      <trkpt lat="47.06855" lon="3.05188">
        <ele>229</ele>
        <time>2022-10-29T04:11:53.000Z</time>
      </trkpt>
      <trkpt lat="47.06858" lon="3.0513">
        <ele>229.19999694824</ele>
        <time>2022-10-29T04:12:01.000Z</time>
      </trkpt>
      <trkpt lat="47.06857" lon="3.05069">
        <ele>228.19999694824</ele>
        <time>2022-10-29T04:12:08.000Z</time>
      </trkpt>
      <trkpt lat="47.06855" lon="3.05021">
        <ele>227.39999389648</ele>
        <time>2022-10-29T04:12:13.000Z</time>
      </trkpt>
      <trkpt lat="47.06854" lon="3.05">
        <ele>227</ele>
        <time>2022-10-29T04:12:15.000Z</time>
      </trkpt>
      <trkpt lat="47.06853" lon="3.04967">
        <ele>226.39999389648</ele>
        <time>2022-10-29T04:12:18.000Z</time>
      </trkpt>
      <trkpt lat="47.06856" lon="3.04934">
        <ele>226</ele>
        <time>2022-10-29T04:12:21.000Z</time>
      </trkpt>
      <trkpt lat="47.06862" lon="3.04913">
        <ele>225.19999694824</ele>
        <time>2022-10-29T04:12:23.000Z</time>
      </trkpt>
      <trkpt lat="47.0687" lon="3.04893">
        <ele>224.80000305176</ele>
        <time>2022-10-29T04:12:25.000Z</time>
      </trkpt>
      <trkpt lat="47.06886" lon="3.04863">
        <ele>224</ele>
        <time>2022-10-29T04:12:28.000Z</time>
      </trkpt>
      <trkpt lat="47.06901" lon="3.04832">
        <ele>222.80000305176</ele>
        <time>2022-10-29T04:12:31.000Z</time>
      </trkpt>
      <trkpt lat="47.06912" lon="3.0481">
        <ele>222.19999694824</ele>
        <time>2022-10-29T04:12:33.000Z</time>
      </trkpt>
      <trkpt lat="47.06927" lon="3.04778">
        <ele>221.60000610352</ele>
        <time>2022-10-29T04:12:36.000Z</time>
      </trkpt>
      <trkpt lat="47.06956" lon="3.0472">
        <ele>220.60000610352</ele>
        <time>2022-10-29T04:12:41.000Z</time>
      </trkpt>
      <trkpt lat="47.06973" lon="3.04684">
        <ele>219.60000610352</ele>
        <time>2022-10-29T04:12:44.000Z</time>
      </trkpt>
      <trkpt lat="47.06991" lon="3.04647">
        <ele>218.39999389648</ele>
        <time>2022-10-29T04:12:47.000Z</time>
      </trkpt>
      <trkpt lat="47.07003" lon="3.04622">
        <ele>218</ele>
        <time>2022-10-29T04:12:49.000Z</time>
      </trkpt>
      <trkpt lat="47.07009" lon="3.0461">
        <ele>217.19999694824</ele>
        <time>2022-10-29T04:12:50.000Z</time>
      </trkpt>
      <trkpt lat="47.07028" lon="3.04571">
        <ele>215.60000610352</ele>
        <time>2022-10-29T04:12:53.000Z</time>
      </trkpt>
      <trkpt lat="47.07041" lon="3.04545">
        <ele>214.60000610352</ele>
        <time>2022-10-29T04:12:55.000Z</time>
      </trkpt>
      <trkpt lat="47.07047" lon="3.04532">
        <ele>213.80000305176</ele>
        <time>2022-10-29T04:12:57.000Z</time>
      </trkpt>
      <trkpt lat="47.0706" lon="3.04506">
        <ele>213.60000610352</ele>
        <time>2022-10-29T04:12:58.000Z</time>
      </trkpt>
      <trkpt lat="47.07079" lon="3.04467">
        <ele>212.39999389648</ele>
        <time>2022-10-29T04:13:01.000Z</time>
      </trkpt>
      <trkpt lat="47.07098" lon="3.04429">
        <ele>211</ele>
        <time>2022-10-29T04:13:04.000Z</time>
      </trkpt>
      <trkpt lat="47.07109" lon="3.04405">
        <ele>210.39999389648</ele>
        <time>2022-10-29T04:13:06.000Z</time>
      </trkpt>
      <trkpt lat="47.07126" lon="3.04372">
        <ele>209.80000305176</ele>
        <time>2022-10-29T04:13:09.000Z</time>
      </trkpt>
      <trkpt lat="47.07145" lon="3.04331">
        <ele>209.39999389648</ele>
        <time>2022-10-29T04:13:13.000Z</time>
      </trkpt>
      <trkpt lat="47.07177" lon="3.04264">
        <ele>209.39999389648</ele>
        <time>2022-10-29T04:13:20.000Z</time>
      </trkpt>
      <trkpt lat="47.07197" lon="3.04195">
        <ele>209</ele>
        <time>2022-10-29T04:13:26.000Z</time>
      </trkpt>
      <trkpt lat="47.072" lon="3.04183">
        <ele>208.80000305176</ele>
        <time>2022-10-29T04:13:27.000Z</time>
      </trkpt>
      <trkpt lat="47.07205" lon="3.04158">
        <ele>207.80000305176</ele>
        <time>2022-10-29T04:13:29.000Z</time>
      </trkpt>
      <trkpt lat="47.07208" lon="3.04133">
        <ele>207.19999694824</ele>
        <time>2022-10-29T04:13:31.000Z</time>
      </trkpt>
      <trkpt lat="47.07209" lon="3.04097">
        <ele>206.60000610352</ele>
        <time>2022-10-29T04:13:34.000Z</time>
      </trkpt>
      <trkpt lat="47.07208" lon="3.04074">
        <ele>206.19999694824</ele>
        <time>2022-10-29T04:13:36.000Z</time>
      </trkpt>
      <trkpt lat="47.07204" lon="3.04028">
        <ele>206.19999694824</ele>
        <time>2022-10-29T04:13:41.000Z</time>
      </trkpt>
      <trkpt lat="47.07205" lon="3.03971">
        <ele>208</ele>
        <time>2022-10-29T04:13:48.000Z</time>
      </trkpt>
      <trkpt lat="47.07205" lon="3.03964">
        <ele>208.39999389648</ele>
        <time>2022-10-29T04:13:49.000Z</time>
      </trkpt>
      <trkpt lat="47.07206" lon="3.03934">
        <ele>209.19999694824</ele>
        <time>2022-10-29T04:13:53.000Z</time>
      </trkpt>
      <trkpt lat="47.07205" lon="3.03926">
        <ele>209.39999389648</ele>
        <time>2022-10-29T04:13:55.000Z</time>
      </trkpt>
      <trkpt lat="47.07205" lon="3.0391">
        <ele>209.60000610352</ele>
        <time>2022-10-29T04:13:56.000Z</time>
      </trkpt>
      <trkpt lat="47.0721" lon="3.03903">
        <ele>209.60000610352</ele>
        <time>2022-10-29T04:13:57.000Z</time>
      </trkpt>
      <trkpt lat="47.07216" lon="3.03898">
        <ele>209.80000305176</ele>
        <time>2022-10-29T04:13:58.000Z</time>
      </trkpt>
      <trkpt lat="47.07227" lon="3.03892">
        <ele>209.80000305176</ele>
        <time>2022-10-29T04:14:00.000Z</time>
      </trkpt>
      <trkpt lat="47.07268" lon="3.03876">
        <ele>209.60000610352</ele>
        <time>2022-10-29T04:14:07.000Z</time>
      </trkpt>
      <trkpt lat="47.07314" lon="3.03865">
        <ele>209</ele>
        <time>2022-10-29T04:14:14.000Z</time>
      </trkpt>
      <trkpt lat="47.07375" lon="3.03859">
        <ele>208.39999389648</ele>
        <time>2022-10-29T04:14:23.000Z</time>
      </trkpt>
      <trkpt lat="47.07388" lon="3.03856">
        <ele>208.39999389648</ele>
        <time>2022-10-29T04:14:25.000Z</time>
      </trkpt>
      <trkpt lat="47.07427" lon="3.03848">
        <ele>208</ele>
        <time>2022-10-29T04:14:31.000Z</time>
      </trkpt>
      <trkpt lat="47.07459" lon="3.03842">
        <ele>207.19999694824</ele>
        <time>2022-10-29T04:14:36.000Z</time>
      </trkpt>
      <trkpt lat="47.07465" lon="3.0384">
        <ele>207</ele>
        <time>2022-10-29T04:14:37.000Z</time>
      </trkpt>
      <trkpt lat="47.07525" lon="3.03829">
        <ele>206.60000610352</ele>
        <time>2022-10-29T04:14:46.000Z</time>
      </trkpt>
      <trkpt lat="47.07565" lon="3.03821">
        <ele>206</ele>
        <time>2022-10-29T04:14:52.000Z</time>
      </trkpt>
      <trkpt lat="47.07573" lon="3.0382">
        <ele>206</ele>
        <time>2022-10-29T04:14:53.000Z</time>
      </trkpt>
      <trkpt lat="47.07613" lon="3.03814">
        <ele>205.19999694824</ele>
        <time>2022-10-29T04:14:59.000Z</time>
      </trkpt>
      <trkpt lat="47.07629" lon="3.03813">
        <ele>204.80000305176</ele>
        <time>2022-10-29T04:15:01.000Z</time>
      </trkpt>
      <trkpt lat="47.0767" lon="3.03808">
        <ele>203.60000610352</ele>
        <time>2022-10-29T04:15:06.000Z</time>
      </trkpt>
      <trkpt lat="47.07687" lon="3.03805">
        <ele>202.80000305176</ele>
        <time>2022-10-29T04:15:08.000Z</time>
      </trkpt>
      <trkpt lat="47.07695" lon="3.03802">
        <ele>202.60000610352</ele>
        <time>2022-10-29T04:15:09.000Z</time>
      </trkpt>
      <trkpt lat="47.0773" lon="3.03789">
        <ele>200.80000305176</ele>
        <time>2022-10-29T04:15:13.000Z</time>
      </trkpt>
      <trkpt lat="47.07738" lon="3.03785">
        <ele>200.39999389648</ele>
        <time>2022-10-29T04:15:14.000Z</time>
      </trkpt>
      <trkpt lat="47.07765" lon="3.03777">
        <ele>199.80000305176</ele>
        <time>2022-10-29T04:15:17.000Z</time>
      </trkpt>
      <trkpt lat="47.07795" lon="3.03769">
        <ele>198.80000305176</ele>
        <time>2022-10-29T04:15:20.000Z</time>
      </trkpt>
      <trkpt lat="47.07802" lon="3.03768">
        <ele>198</ele>
        <time>2022-10-29T04:15:21.000Z</time>
      </trkpt>
      <trkpt lat="47.07811" lon="3.03766">
        <ele>197.60000610352</ele>
        <time>2022-10-29T04:15:22.000Z</time>
      </trkpt>
      <trkpt lat="47.07851" lon="3.03762">
        <ele>196.39999389648</ele>
        <time>2022-10-29T04:15:26.000Z</time>
      </trkpt>
      <trkpt lat="47.07887" lon="3.03756">
        <ele>195.19999694824</ele>
        <time>2022-10-29T04:15:30.000Z</time>
      </trkpt>
      <trkpt lat="47.07914" lon="3.03753">
        <ele>194</ele>
        <time>2022-10-29T04:15:33.000Z</time>
      </trkpt>
      <trkpt lat="47.07949" lon="3.03749">
        <ele>192.80000305176</ele>
        <time>2022-10-29T04:15:37.000Z</time>
      </trkpt>
      <trkpt lat="47.0799" lon="3.0375">
        <ele>192.19999694824</ele>
        <time>2022-10-29T04:15:42.000Z</time>
      </trkpt>
      <trkpt lat="47.0803" lon="3.03751">
        <ele>192</ele>
        <time>2022-10-29T04:15:47.000Z</time>
      </trkpt>
      <trkpt lat="47.08043" lon="3.03746">
        <ele>191.80000305176</ele>
        <time>2022-10-29T04:15:49.000Z</time>
      </trkpt>
      <trkpt lat="47.08049" lon="3.03742">
        <ele>191.80000305176</ele>
        <time>2022-10-29T04:15:50.000Z</time>
      </trkpt>
      <trkpt lat="47.08055" lon="3.03738">
        <ele>191.80000305176</ele>
        <time>2022-10-29T04:15:51.000Z</time>
      </trkpt>
      <trkpt lat="47.08068" lon="3.03739">
        <ele>191.19999694824</ele>
        <time>2022-10-29T04:15:53.000Z</time>
      </trkpt>
      <trkpt lat="47.08075" lon="3.03744">
        <ele>190.80000305176</ele>
        <time>2022-10-29T04:15:54.000Z</time>
      </trkpt>
      <trkpt lat="47.08079" lon="3.03751">
        <ele>190.80000305176</ele>
        <time>2022-10-29T04:15:55.000Z</time>
      </trkpt>
      <trkpt lat="47.08089" lon="3.03769">
        <ele>190.19999694824</ele>
        <time>2022-10-29T04:15:57.000Z</time>
      </trkpt>
      <trkpt lat="47.08093" lon="3.03775">
        <ele>190.19999694824</ele>
        <time>2022-10-29T04:15:58.000Z</time>
      </trkpt>
      <trkpt lat="47.081" lon="3.03781">
        <ele>189.60000610352</ele>
        <time>2022-10-29T04:15:59.000Z</time>
      </trkpt>
      <trkpt lat="47.08108" lon="3.03786">
        <ele>189.60000610352</ele>
        <time>2022-10-29T04:16:00.000Z</time>
      </trkpt>
      <trkpt lat="47.08123" lon="3.03794">
        <ele>189.19999694824</ele>
        <time>2022-10-29T04:16:02.000Z</time>
      </trkpt>
      <trkpt lat="47.08139" lon="3.03802">
        <ele>188.39999389648</ele>
        <time>2022-10-29T04:16:04.000Z</time>
      </trkpt>
      <trkpt lat="47.08162" lon="3.03813">
        <ele>187</ele>
        <time>2022-10-29T04:16:07.000Z</time>
      </trkpt>
      <trkpt lat="47.08176" lon="3.0382">
        <ele>186.39999389648</ele>
        <time>2022-10-29T04:16:09.000Z</time>
      </trkpt>
      <trkpt lat="47.08184" lon="3.03825">
        <ele>185.80000305176</ele>
        <time>2022-10-29T04:16:10.000Z</time>
      </trkpt>
      <trkpt lat="47.08218" lon="3.03847">
        <ele>185.19999694824</ele>
        <time>2022-10-29T04:16:15.000Z</time>
      </trkpt>
      <trkpt lat="47.08224" lon="3.03854">
        <ele>185</ele>
        <time>2022-10-29T04:16:16.000Z</time>
      </trkpt>
      <trkpt lat="47.08228" lon="3.03861">
        <ele>184.60000610352</ele>
        <time>2022-10-29T04:16:17.000Z</time>
      </trkpt>
      <trkpt lat="47.08235" lon="3.03881">
        <ele>184.39999389648</ele>
        <time>2022-10-29T04:16:19.000Z</time>
      </trkpt>
      <trkpt lat="47.08237" lon="3.03903">
        <ele>184.19999694824</ele>
        <time>2022-10-29T04:16:21.000Z</time>
      </trkpt>
      <trkpt lat="47.08237" lon="3.03924">
        <ele>183.60000610352</ele>
        <time>2022-10-29T04:16:23.000Z</time>
      </trkpt>
      <trkpt lat="47.08236" lon="3.03935">
        <ele>183.39999389648</ele>
        <time>2022-10-29T04:16:24.000Z</time>
      </trkpt>
      <trkpt lat="47.08232" lon="3.03976">
        <ele>182.80000305176</ele>
        <time>2022-10-29T04:16:28.000Z</time>
      </trkpt>
      <trkpt lat="47.08231" lon="3.04031">
        <ele>182.39999389648</ele>
        <time>2022-10-29T04:16:33.000Z</time>
      </trkpt>
      <trkpt lat="47.08234" lon="3.04041">
        <ele>182</ele>
        <time>2022-10-29T04:16:34.000Z</time>
      </trkpt>
      <trkpt lat="47.08239" lon="3.04051">
        <ele>181.80000305176</ele>
        <time>2022-10-29T04:16:35.000Z</time>
      </trkpt>
      <trkpt lat="47.08244" lon="3.04062">
        <ele>181.60000610352</ele>
        <time>2022-10-29T04:16:36.000Z</time>
      </trkpt>
      <trkpt lat="47.08257" lon="3.04087">
        <ele>181</ele>
        <time>2022-10-29T04:16:39.000Z</time>
      </trkpt>
      <trkpt lat="47.08281" lon="3.04127">
        <ele>180.39999389648</ele>
        <time>2022-10-29T04:16:44.000Z</time>
      </trkpt>
      <trkpt lat="47.08311" lon="3.04176">
        <ele>180.60000610352</ele>
        <time>2022-10-29T04:16:51.000Z</time>
      </trkpt>
      <trkpt lat="47.08315" lon="3.04183">
        <ele>180.80000305176</ele>
        <time>2022-10-29T04:16:52.000Z</time>
      </trkpt>
      <trkpt lat="47.08319" lon="3.04199">
        <ele>180.80000305176</ele>
        <time>2022-10-29T04:16:54.000Z</time>
      </trkpt>
      <trkpt lat="47.0832" lon="3.04208">
        <ele>181</ele>
        <time>2022-10-29T04:16:55.000Z</time>
      </trkpt>
      <trkpt lat="47.08318" lon="3.04216">
        <ele>181.19999694824</ele>
        <time>2022-10-29T04:16:56.000Z</time>
      </trkpt>
      <trkpt lat="47.08314" lon="3.04231">
        <ele>181.80000305176</ele>
        <time>2022-10-29T04:16:58.000Z</time>
      </trkpt>
      <trkpt lat="47.08309" lon="3.04245">
        <ele>182</ele>
        <time>2022-10-29T04:17:00.000Z</time>
      </trkpt>
      <trkpt lat="47.08306" lon="3.04252">
        <ele>182.19999694824</ele>
        <time>2022-10-29T04:17:01.000Z</time>
      </trkpt>
      <trkpt lat="47.08303" lon="3.04268">
        <ele>182.60000610352</ele>
        <time>2022-10-29T04:17:03.000Z</time>
      </trkpt>
      <trkpt lat="47.08297" lon="3.04308">
        <ele>183.19999694824</ele>
        <time>2022-10-29T04:17:08.000Z</time>
      </trkpt>
      <trkpt lat="47.08297" lon="3.04318">
        <ele>183.19999694824</ele>
        <time>2022-10-29T04:17:09.000Z</time>
      </trkpt>
      <trkpt lat="47.08299" lon="3.04341">
        <ele>183.19999694824</ele>
        <time>2022-10-29T04:17:12.000Z</time>
      </trkpt>
      <trkpt lat="47.08302" lon="3.04357">
        <ele>183.39999389648</ele>
        <time>2022-10-29T04:17:14.000Z</time>
      </trkpt>
      <trkpt lat="47.08309" lon="3.04388">
        <ele>183.80000305176</ele>
        <time>2022-10-29T04:17:18.000Z</time>
      </trkpt>
      <trkpt lat="47.08311" lon="3.04407">
        <ele>184</ele>
        <time>2022-10-29T04:17:21.000Z</time>
      </trkpt>
      <trkpt lat="47.08311" lon="3.04417">
        <ele>184.19999694824</ele>
        <time>2022-10-29T04:17:22.000Z</time>
      </trkpt>
      <trkpt lat="47.08311" lon="3.04475">
        <ele>185.19999694824</ele>
        <time>2022-10-29T04:17:29.000Z</time>
      </trkpt>
      <trkpt lat="47.08309" lon="3.04529">
        <ele>184.80000305176</ele>
        <time>2022-10-29T04:17:35.000Z</time>
      </trkpt>
      <trkpt lat="47.08308" lon="3.04607">
        <ele>184.39999389648</ele>
        <time>2022-10-29T04:17:44.000Z</time>
      </trkpt>
      <trkpt lat="47.08306" lon="3.04654">
        <ele>184.60000610352</ele>
        <time>2022-10-29T04:17:50.000Z</time>
      </trkpt>
      <trkpt lat="47.083" lon="3.04702">
        <ele>184.60000610352</ele>
        <time>2022-10-29T04:17:56.000Z</time>
      </trkpt>
      <trkpt lat="47.08293" lon="3.04755">
        <ele>183.80000305176</ele>
        <time>2022-10-29T04:18:02.000Z</time>
      </trkpt>
      <trkpt lat="47.08294" lon="3.04785">
        <ele>183.80000305176</ele>
        <time>2022-10-29T04:18:05.000Z</time>
      </trkpt>
      <trkpt lat="47.08297" lon="3.04811">
        <ele>183.80000305176</ele>
        <time>2022-10-29T04:18:08.000Z</time>
      </trkpt>
      <trkpt lat="47.08298" lon="3.0482">
        <ele>183.80000305176</ele>
        <time>2022-10-29T04:18:09.000Z</time>
      </trkpt>
      <trkpt lat="47.08306" lon="3.04841">
        <ele>183.80000305176</ele>
        <time>2022-10-29T04:18:12.000Z</time>
      </trkpt>
      <trkpt lat="47.08309" lon="3.04848">
        <ele>183.80000305176</ele>
        <time>2022-10-29T04:18:13.000Z</time>
      </trkpt>
      <trkpt lat="47.08326" lon="3.04877">
        <ele>183.80000305176</ele>
        <time>2022-10-29T04:18:18.000Z</time>
      </trkpt>
      <trkpt lat="47.08347" lon="3.04905">
        <ele>184.39999389648</ele>
        <time>2022-10-29T04:18:24.000Z</time>
      </trkpt>
      <trkpt lat="47.08361" lon="3.04922">
        <ele>185.60000610352</ele>
        <time>2022-10-29T04:18:28.000Z</time>
      </trkpt>
      <trkpt lat="47.0837" lon="3.04933">
        <ele>186.19999694824</ele>
        <time>2022-10-29T04:18:31.000Z</time>
      </trkpt>
      <trkpt lat="47.08376" lon="3.0494">
        <ele>186.80000305176</ele>
        <time>2022-10-29T04:18:33.000Z</time>
      </trkpt>
      <trkpt lat="47.08389" lon="3.04955">
        <ele>188</ele>
        <time>2022-10-29T04:18:37.000Z</time>
      </trkpt>
      <trkpt lat="47.08391" lon="3.04958">
        <ele>188.39999389648</ele>
        <time>2022-10-29T04:18:38.000Z</time>
      </trkpt>
      <trkpt lat="47.08397" lon="3.04965">
        <ele>189</ele>
        <time>2022-10-29T04:18:40.000Z</time>
      </trkpt>
      <trkpt lat="47.08407" lon="3.04974">
        <ele>190.19999694824</ele>
        <time>2022-10-29T04:18:43.000Z</time>
      </trkpt>
      <trkpt lat="47.08416" lon="3.04983">
        <ele>191</ele>
        <time>2022-10-29T04:18:46.000Z</time>
      </trkpt>
      <trkpt lat="47.08419" lon="3.04986">
        <ele>191.19999694824</ele>
        <time>2022-10-29T04:18:47.000Z</time>
      </trkpt>
      <trkpt lat="47.08432" lon="3.05001">
        <ele>192.39999389648</ele>
        <time>2022-10-29T04:18:51.000Z</time>
      </trkpt>
      <trkpt lat="47.08439" lon="3.0501">
        <ele>192.60000610352</ele>
        <time>2022-10-29T04:18:53.000Z</time>
      </trkpt>
      <trkpt lat="47.0847" lon="3.05043">
        <ele>192</ele>
        <time>2022-10-29T04:19:00.000Z</time>
      </trkpt>
      <trkpt lat="47.08495" lon="3.0507">
        <ele>191.39999389648</ele>
        <time>2022-10-29T04:19:05.000Z</time>
      </trkpt>
      <trkpt lat="47.085" lon="3.05075">
        <ele>191.19999694824</ele>
        <time>2022-10-29T04:19:06.000Z</time>
      </trkpt>
      <trkpt lat="47.08538" lon="3.05114">
        <ele>191.19999694824</ele>
        <time>2022-10-29T04:19:14.000Z</time>
      </trkpt>
      <trkpt lat="47.08558" lon="3.05133">
        <ele>191.39999389648</ele>
        <time>2022-10-29T04:19:19.000Z</time>
      </trkpt>
      <trkpt lat="47.08562" lon="3.05138">
        <ele>191.39999389648</ele>
        <time>2022-10-29T04:19:20.000Z</time>
      </trkpt>
      <trkpt lat="47.0857" lon="3.05152">
        <ele>191.60000610352</ele>
        <time>2022-10-29T04:19:23.000Z</time>
      </trkpt>
      <trkpt lat="47.08572" lon="3.05161">
        <ele>191.60000610352</ele>
        <time>2022-10-29T04:19:24.000Z</time>
      </trkpt>
      <trkpt lat="47.08574" lon="3.05205">
        <ele>191.60000610352</ele>
        <time>2022-10-29T04:19:29.000Z</time>
      </trkpt>
      <trkpt lat="47.08573" lon="3.05222">
        <ele>191.60000610352</ele>
        <time>2022-10-29T04:19:31.000Z</time>
      </trkpt>
      <trkpt lat="47.0857" lon="3.0525">
        <ele>191.39999389648</ele>
        <time>2022-10-29T04:19:34.000Z</time>
      </trkpt>
      <trkpt lat="47.08567" lon="3.05277">
        <ele>190.80000305176</ele>
        <time>2022-10-29T04:19:37.000Z</time>
      </trkpt>
      <trkpt lat="47.08568" lon="3.05286">
        <ele>190.39999389648</ele>
        <time>2022-10-29T04:19:38.000Z</time>
      </trkpt>
      <trkpt lat="47.08571" lon="3.05294">
        <ele>190.19999694824</ele>
        <time>2022-10-29T04:19:39.000Z</time>
      </trkpt>
      <trkpt lat="47.0858" lon="3.05302">
        <ele>189.60000610352</ele>
        <time>2022-10-29T04:19:41.000Z</time>
      </trkpt>
      <trkpt lat="47.08591" lon="3.05306">
        <ele>189.39999389648</ele>
        <time>2022-10-29T04:19:43.000Z</time>
      </trkpt>
      <trkpt lat="47.0861" lon="3.05311">
        <ele>189.39999389648</ele>
        <time>2022-10-29T04:19:46.000Z</time>
      </trkpt>
      <trkpt lat="47.08653" lon="3.05318">
        <ele>189.80000305176</ele>
        <time>2022-10-29T04:19:53.000Z</time>
      </trkpt>
      <trkpt lat="47.08689" lon="3.05322">
        <ele>190.19999694824</ele>
        <time>2022-10-29T04:19:59.000Z</time>
      </trkpt>
      <trkpt lat="47.087" lon="3.05325">
        <ele>190.19999694824</ele>
        <time>2022-10-29T04:20:01.000Z</time>
      </trkpt>
      <trkpt lat="47.08741" lon="3.05332">
        <ele>190.80000305176</ele>
        <time>2022-10-29T04:20:08.000Z</time>
      </trkpt>
      <trkpt lat="47.08762" lon="3.05332">
        <ele>191.19999694824</ele>
        <time>2022-10-29T04:20:12.000Z</time>
      </trkpt>
      <trkpt lat="47.08767" lon="3.05332">
        <ele>191.19999694824</ele>
        <time>2022-10-29T04:20:13.000Z</time>
      </trkpt>
      <trkpt lat="47.08798" lon="3.05328">
        <ele>192</ele>
        <time>2022-10-29T04:20:19.000Z</time>
      </trkpt>
      <trkpt lat="47.08813" lon="3.05327">
        <ele>192.39999389648</ele>
        <time>2022-10-29T04:20:22.000Z</time>
      </trkpt>
      <trkpt lat="47.08829" lon="3.05324">
        <ele>192.60000610352</ele>
        <time>2022-10-29T04:20:25.000Z</time>
      </trkpt>
      <trkpt lat="47.08832" lon="3.05321">
        <ele>192.80000305176</ele>
        <time>2022-10-29T04:20:26.000Z</time>
      </trkpt>
      <trkpt lat="47.08834" lon="3.05315">
        <ele>192.80000305176</ele>
        <time>2022-10-29T04:20:27.000Z</time>
      </trkpt>
      <trkpt lat="47.08838" lon="3.05301">
        <ele>193</ele>
        <time>2022-10-29T04:20:29.000Z</time>
      </trkpt>
      <trkpt lat="47.08842" lon="3.05282">
        <ele>193.39999389648</ele>
        <time>2022-10-29T04:20:32.000Z</time>
      </trkpt>
      <trkpt lat="47.08847" lon="3.05258">
        <ele>194.19999694824</ele>
        <time>2022-10-29T04:20:36.000Z</time>
      </trkpt>
      <trkpt lat="47.08848" lon="3.05252">
        <ele>194.39999389648</ele>
        <time>2022-10-29T04:20:37.000Z</time>
      </trkpt>
      <trkpt lat="47.0885" lon="3.05245">
        <ele>194.39999389648</ele>
        <time>2022-10-29T04:20:38.000Z</time>
      </trkpt>
      <trkpt lat="47.08853" lon="3.05229">
        <ele>194.80000305176</ele>
        <time>2022-10-29T04:20:41.000Z</time>
      </trkpt>
      <trkpt lat="47.08855" lon="3.05222">
        <ele>194.80000305176</ele>
        <time>2022-10-29T04:20:42.000Z</time>
      </trkpt>
      <trkpt lat="47.08857" lon="3.05211">
        <ele>195.19999694824</ele>
        <time>2022-10-29T04:20:44.000Z</time>
      </trkpt>
      <trkpt lat="47.08859" lon="3.05201">
        <ele>195.60000610352</ele>
        <time>2022-10-29T04:20:46.000Z</time>
      </trkpt>
      <trkpt lat="47.08866" lon="3.05169">
        <ele>196.60000610352</ele>
        <time>2022-10-29T04:20:52.000Z</time>
      </trkpt>
      <trkpt lat="47.08869" lon="3.05151">
        <ele>197.39999389648</ele>
        <time>2022-10-29T04:20:56.000Z</time>
      </trkpt>
      <trkpt lat="47.08872" lon="3.05141">
        <ele>197.80000305176</ele>
        <time>2022-10-29T04:20:58.000Z</time>
      </trkpt>
      <trkpt lat="47.08877" lon="3.0512">
        <ele>199</ele>
        <time>2022-10-29T04:21:03.000Z</time>
      </trkpt>
      <trkpt lat="47.08877" lon="3.05116">
        <ele>199.19999694824</ele>
        <time>2022-10-29T04:21:04.000Z</time>
      </trkpt>
      <trkpt lat="47.08881" lon="3.051">
        <ele>200.19999694824</ele>
        <time>2022-10-29T04:21:08.000Z</time>
      </trkpt>
      <trkpt lat="47.08884" lon="3.05081">
        <ele>201.19999694824</ele>
        <time>2022-10-29T04:21:12.000Z</time>
      </trkpt>
      <trkpt lat="47.08885" lon="3.05074">
        <ele>201.60000610352</ele>
        <time>2022-10-29T04:21:14.000Z</time>
      </trkpt>
      <trkpt lat="47.08888" lon="3.05061">
        <ele>202.19999694824</ele>
        <time>2022-10-29T04:21:17.000Z</time>
      </trkpt>
      <trkpt lat="47.08891" lon="3.05041">
        <ele>203.39999389648</ele>
        <time>2022-10-29T04:21:22.000Z</time>
      </trkpt>
      <trkpt lat="47.08893" lon="3.05033">
        <ele>203.80000305176</ele>
        <time>2022-10-29T04:21:24.000Z</time>
      </trkpt>
      <trkpt lat="47.08895" lon="3.05024">
        <ele>204.60000610352</ele>
        <time>2022-10-29T04:21:26.000Z</time>
      </trkpt>
      <trkpt lat="47.08898" lon="3.05008">
        <ele>205.60000610352</ele>
        <time>2022-10-29T04:21:30.000Z</time>
      </trkpt>
      <trkpt lat="47.08901" lon="3.05001">
        <ele>206</ele>
        <time>2022-10-29T04:21:32.000Z</time>
      </trkpt>
      <trkpt lat="47.08908" lon="3.04994">
        <ele>207</ele>
        <time>2022-10-29T04:21:35.000Z</time>
      </trkpt>
      <trkpt lat="47.08912" lon="3.04994">
        <ele>207.39999389648</ele>
        <time>2022-10-29T04:21:36.000Z</time>
      </trkpt>
      <trkpt lat="47.08914" lon="3.04994">
        <ele>207.60000610352</ele>
        <time>2022-10-29T04:21:37.000Z</time>
      </trkpt>
      <trkpt lat="47.08923" lon="3.04997">
        <ele>209</ele>
        <time>2022-10-29T04:21:40.000Z</time>
      </trkpt>
      <trkpt lat="47.08931" lon="3.05001">
        <ele>210</ele>
        <time>2022-10-29T04:21:43.000Z</time>
      </trkpt>
      <trkpt lat="47.08934" lon="3.05003">
        <ele>210.19999694824</ele>
        <time>2022-10-29T04:21:44.000Z</time>
      </trkpt>
      <trkpt lat="47.08942" lon="3.05007">
        <ele>211</ele>
        <time>2022-10-29T04:21:47.000Z</time>
      </trkpt>
      <trkpt lat="47.08956" lon="3.05015">
        <ele>212.19999694824</ele>
        <time>2022-10-29T04:21:52.000Z</time>
      </trkpt>
      <trkpt lat="47.08963" lon="3.05019">
        <ele>212.60000610352</ele>
        <time>2022-10-29T04:21:54.000Z</time>
      </trkpt>
      <trkpt lat="47.0897" lon="3.05022">
        <ele>213.60000610352</ele>
        <time>2022-10-29T04:21:57.000Z</time>
      </trkpt>
      <trkpt lat="47.08985" lon="3.05027">
        <ele>214.80000305176</ele>
        <time>2022-10-29T04:22:02.000Z</time>
      </trkpt>
      <trkpt lat="47.08988" lon="3.05028">
        <ele>214.80000305176</ele>
        <time>2022-10-29T04:22:03.000Z</time>
      </trkpt>
      <trkpt lat="47.09" lon="3.05032">
        <ele>215.80000305176</ele>
        <time>2022-10-29T04:22:07.000Z</time>
      </trkpt>
      <trkpt lat="47.09011" lon="3.05035">
        <ele>216.80000305176</ele>
        <time>2022-10-29T04:22:11.000Z</time>
      </trkpt>
      <trkpt lat="47.09014" lon="3.05036">
        <ele>217.19999694824</ele>
        <time>2022-10-29T04:22:12.000Z</time>
      </trkpt>
      <trkpt lat="47.09028" lon="3.05042">
        <ele>218.19999694824</ele>
        <time>2022-10-29T04:22:17.000Z</time>
      </trkpt>
      <trkpt lat="47.09039" lon="3.05044">
        <ele>219</ele>
        <time>2022-10-29T04:22:21.000Z</time>
      </trkpt>
      <trkpt lat="47.09042" lon="3.05045">
        <ele>219.19999694824</ele>
        <time>2022-10-29T04:22:22.000Z</time>
      </trkpt>
      <trkpt lat="47.09053" lon="3.05049">
        <ele>220.39999389648</ele>
        <time>2022-10-29T04:22:26.000Z</time>
      </trkpt>
      <trkpt lat="47.09062" lon="3.05052">
        <ele>221</ele>
        <time>2022-10-29T04:22:29.000Z</time>
      </trkpt>
      <trkpt lat="47.09068" lon="3.05054">
        <ele>221.39999389648</ele>
        <time>2022-10-29T04:22:31.000Z</time>
      </trkpt>
      <trkpt lat="47.09083" lon="3.05059">
        <ele>222.80000305176</ele>
        <time>2022-10-29T04:22:36.000Z</time>
      </trkpt>
      <trkpt lat="47.09086" lon="3.0506">
        <ele>223</ele>
        <time>2022-10-29T04:22:37.000Z</time>
      </trkpt>
      <trkpt lat="47.09098" lon="3.05064">
        <ele>224.19999694824</ele>
        <time>2022-10-29T04:22:41.000Z</time>
      </trkpt>
      <trkpt lat="47.09113" lon="3.0507">
        <ele>225.39999389648</ele>
        <time>2022-10-29T04:22:46.000Z</time>
      </trkpt>
      <trkpt lat="47.09116" lon="3.05071">
        <ele>225.60000610352</ele>
        <time>2022-10-29T04:22:47.000Z</time>
      </trkpt>
      <trkpt lat="47.09129" lon="3.05077">
        <ele>226.80000305176</ele>
        <time>2022-10-29T04:22:51.000Z</time>
      </trkpt>
      <trkpt lat="47.09141" lon="3.0508">
        <ele>227.80000305176</ele>
        <time>2022-10-29T04:22:55.000Z</time>
      </trkpt>
      <trkpt lat="47.09144" lon="3.05081">
        <ele>228.19999694824</ele>
        <time>2022-10-29T04:22:56.000Z</time>
      </trkpt>
      <trkpt lat="47.09157" lon="3.05084">
        <ele>229.19999694824</ele>
        <time>2022-10-29T04:23:00.000Z</time>
      </trkpt>
      <trkpt lat="47.09171" lon="3.05088">
        <ele>230.19999694824</ele>
        <time>2022-10-29T04:23:05.000Z</time>
      </trkpt>
      <trkpt lat="47.09178" lon="3.05091">
        <ele>230.60000610352</ele>
        <time>2022-10-29T04:23:07.000Z</time>
      </trkpt>
      <trkpt lat="47.09183" lon="3.05092">
        <ele>231.19999694824</ele>
        <time>2022-10-29T04:23:09.000Z</time>
      </trkpt>
      <trkpt lat="47.09198" lon="3.05099">
        <ele>232.60000610352</ele>
        <time>2022-10-29T04:23:14.000Z</time>
      </trkpt>
      <trkpt lat="47.09207" lon="3.05101">
        <ele>233.60000610352</ele>
        <time>2022-10-29T04:23:17.000Z</time>
      </trkpt>
      <trkpt lat="47.09223" lon="3.05106">
        <ele>234.60000610352</ele>
        <time>2022-10-29T04:23:22.000Z</time>
      </trkpt>
      <trkpt lat="47.09232" lon="3.05108">
        <ele>235.60000610352</ele>
        <time>2022-10-29T04:23:25.000Z</time>
      </trkpt>
      <trkpt lat="47.09236" lon="3.05109">
        <ele>235.80000305176</ele>
        <time>2022-10-29T04:23:26.000Z</time>
      </trkpt>
      <trkpt lat="47.09248" lon="3.05113">
        <ele>237.19999694824</ele>
        <time>2022-10-29T04:23:30.000Z</time>
      </trkpt>
      <trkpt lat="47.09257" lon="3.05116">
        <ele>237.80000305176</ele>
        <time>2022-10-29T04:23:33.000Z</time>
      </trkpt>
      <trkpt lat="47.09264" lon="3.05117">
        <ele>238.39999389648</ele>
        <time>2022-10-29T04:23:35.000Z</time>
      </trkpt>
      <trkpt lat="47.09284" lon="3.05124">
        <ele>239.60000610352</ele>
        <time>2022-10-29T04:23:41.000Z</time>
      </trkpt>
      <trkpt lat="47.09305" lon="3.0513">
        <ele>240.80000305176</ele>
        <time>2022-10-29T04:23:47.000Z</time>
      </trkpt>
      <trkpt lat="47.09309" lon="3.0513">
        <ele>240.80000305176</ele>
        <time>2022-10-29T04:23:48.000Z</time>
      </trkpt>
      <trkpt lat="47.09339" lon="3.05128">
        <ele>241.80000305176</ele>
        <time>2022-10-29T04:23:56.000Z</time>
      </trkpt>
      <trkpt lat="47.09369" lon="3.05118">
        <ele>241.80000305176</ele>
        <time>2022-10-29T04:24:03.000Z</time>
      </trkpt>
      <trkpt lat="47.09379" lon="3.05113">
        <ele>241.80000305176</ele>
        <time>2022-10-29T04:24:05.000Z</time>
      </trkpt>
      <trkpt lat="47.09399" lon="3.05105">
        <ele>241.39999389648</ele>
        <time>2022-10-29T04:24:09.000Z</time>
      </trkpt>
      <trkpt lat="47.09439" lon="3.05091">
        <ele>240.80000305176</ele>
        <time>2022-10-29T04:24:16.000Z</time>
      </trkpt>
      <trkpt lat="47.0948" lon="3.05087">
        <ele>240.19999694824</ele>
        <time>2022-10-29T04:24:23.000Z</time>
      </trkpt>
      <trkpt lat="47.09517" lon="3.05095">
        <ele>240.19999694824</ele>
        <time>2022-10-29T04:24:30.000Z</time>
      </trkpt>
      <trkpt lat="47.09543" lon="3.05102">
        <ele>240.39999389648</ele>
        <time>2022-10-29T04:24:35.000Z</time>
      </trkpt>
      <trkpt lat="47.09548" lon="3.05104">
        <ele>240.60000610352</ele>
        <time>2022-10-29T04:24:36.000Z</time>
      </trkpt>
      <trkpt lat="47.09588" lon="3.05115">
        <ele>241.19999694824</ele>
        <time>2022-10-29T04:24:44.000Z</time>
      </trkpt>
      <trkpt lat="47.09623" lon="3.05125">
        <ele>241.60000610352</ele>
        <time>2022-10-29T04:24:51.000Z</time>
      </trkpt>
      <trkpt lat="47.09642" lon="3.05131">
        <ele>241.80000305176</ele>
        <time>2022-10-29T04:24:55.000Z</time>
      </trkpt>
      <trkpt lat="47.09673" lon="3.05141">
        <ele>242.39999389648</ele>
        <time>2022-10-29T04:25:01.000Z</time>
      </trkpt>
      <trkpt lat="47.09728" lon="3.05158">
        <ele>242.60000610352</ele>
        <time>2022-10-29T04:25:11.000Z</time>
      </trkpt>
      <trkpt lat="47.09732" lon="3.05159">
        <ele>242.60000610352</ele>
        <time>2022-10-29T04:25:12.000Z</time>
      </trkpt>
      <trkpt lat="47.09753" lon="3.05163">
        <ele>242.39999389648</ele>
        <time>2022-10-29T04:25:16.000Z</time>
      </trkpt>
      <trkpt lat="47.0979" lon="3.05169">
        <ele>242.19999694824</ele>
        <time>2022-10-29T04:25:23.000Z</time>
      </trkpt>
      <trkpt lat="47.09818" lon="3.05174">
        <ele>242.19999694824</ele>
        <time>2022-10-29T04:25:28.000Z</time>
      </trkpt>
      <trkpt lat="47.09824" lon="3.05176">
        <ele>242.19999694824</ele>
        <time>2022-10-29T04:25:29.000Z</time>
      </trkpt>
      <trkpt lat="47.09841" lon="3.05182">
        <ele>242.60000610352</ele>
        <time>2022-10-29T04:25:32.000Z</time>
      </trkpt>
      <trkpt lat="47.09857" lon="3.05192">
        <ele>242.60000610352</ele>
        <time>2022-10-29T04:25:35.000Z</time>
      </trkpt>
      <trkpt lat="47.09887" lon="3.05212">
        <ele>243</ele>
        <time>2022-10-29T04:25:41.000Z</time>
      </trkpt>
      <trkpt lat="47.09892" lon="3.05214">
        <ele>243</ele>
        <time>2022-10-29T04:25:42.000Z</time>
      </trkpt>
      <trkpt lat="47.09897" lon="3.05217">
        <ele>243.19999694824</ele>
        <time>2022-10-29T04:25:43.000Z</time>
      </trkpt>
      <trkpt lat="47.09917" lon="3.0522">
        <ele>243.60000610352</ele>
        <time>2022-10-29T04:25:47.000Z</time>
      </trkpt>
      <trkpt lat="47.09934" lon="3.05222">
        <ele>244.39999389648</ele>
        <time>2022-10-29T04:25:51.000Z</time>
      </trkpt>
      <trkpt lat="47.09944" lon="3.05223">
        <ele>244.80000305176</ele>
        <time>2022-10-29T04:25:53.000Z</time>
      </trkpt>
      <trkpt lat="47.09962" lon="3.05223">
        <ele>245.60000610352</ele>
        <time>2022-10-29T04:25:57.000Z</time>
      </trkpt>
      <trkpt lat="47.09974" lon="3.05226">
        <ele>246</ele>
        <time>2022-10-29T04:26:00.000Z</time>
      </trkpt>
      <trkpt lat="47.09985" lon="3.05227">
        <ele>246.19999694824</ele>
        <time>2022-10-29T04:26:02.000Z</time>
      </trkpt>
      <trkpt lat="47.0999" lon="3.05228">
        <ele>246.39999389648</ele>
        <time>2022-10-29T04:26:03.000Z</time>
      </trkpt>
      <trkpt lat="47.10001" lon="3.0523">
        <ele>246.60000610352</ele>
        <time>2022-10-29T04:26:05.000Z</time>
      </trkpt>
      <trkpt lat="47.10044" lon="3.05232">
        <ele>246.80000305176</ele>
        <time>2022-10-29T04:26:13.000Z</time>
      </trkpt>
      <trkpt lat="47.10078" lon="3.05226">
        <ele>246.60000610352</ele>
        <time>2022-10-29T04:26:19.000Z</time>
      </trkpt>
      <trkpt lat="47.1012" lon="3.05216">
        <ele>245.39999389648</ele>
        <time>2022-10-29T04:26:26.000Z</time>
      </trkpt>
      <trkpt lat="47.10126" lon="3.05217">
        <ele>245</ele>
        <time>2022-10-29T04:26:27.000Z</time>
      </trkpt>
      <trkpt lat="47.10151" lon="3.05216">
        <ele>244.60000610352</ele>
        <time>2022-10-29T04:26:31.000Z</time>
      </trkpt>
      <trkpt lat="47.10167" lon="3.05215">
        <ele>244.60000610352</ele>
        <time>2022-10-29T04:26:34.000Z</time>
      </trkpt>
      <trkpt lat="47.10193" lon="3.05209">
        <ele>244.19999694824</ele>
        <time>2022-10-29T04:26:39.000Z</time>
      </trkpt>
      <trkpt lat="47.10209" lon="3.05208">
        <ele>244.19999694824</ele>
        <time>2022-10-29T04:26:42.000Z</time>
      </trkpt>
      <trkpt lat="47.10231" lon="3.05209">
        <ele>243.80000305176</ele>
        <time>2022-10-29T04:26:46.000Z</time>
      </trkpt>
      <trkpt lat="47.10283" lon="3.05214">
        <ele>243.80000305176</ele>
        <time>2022-10-29T04:26:55.000Z</time>
      </trkpt>
      <trkpt lat="47.10321" lon="3.05218">
        <ele>244</ele>
        <time>2022-10-29T04:27:02.000Z</time>
      </trkpt>
      <trkpt lat="47.10365" lon="3.05221">
        <ele>243.80000305176</ele>
        <time>2022-10-29T04:27:10.000Z</time>
      </trkpt>
      <trkpt lat="47.10393" lon="3.05226">
        <ele>243.39999389648</ele>
        <time>2022-10-29T04:27:15.000Z</time>
      </trkpt>
      <trkpt lat="47.10418" lon="3.05231">
        <ele>243.19999694824</ele>
        <time>2022-10-29T04:27:19.000Z</time>
      </trkpt>
      <trkpt lat="47.10458" lon="3.0524">
        <ele>242.39999389648</ele>
        <time>2022-10-29T04:27:25.000Z</time>
      </trkpt>
      <trkpt lat="47.1047" lon="3.05243">
        <ele>241.80000305176</ele>
        <time>2022-10-29T04:27:27.000Z</time>
      </trkpt>
      <trkpt lat="47.10492" lon="3.05248">
        <ele>241.19999694824</ele>
        <time>2022-10-29T04:27:30.000Z</time>
      </trkpt>
      <trkpt lat="47.10521" lon="3.05249">
        <ele>240.19999694824</ele>
        <time>2022-10-29T04:27:34.000Z</time>
      </trkpt>
      <trkpt lat="47.10529" lon="3.05249">
        <ele>240</ele>
        <time>2022-10-29T04:27:35.000Z</time>
      </trkpt>
      <trkpt lat="47.10552" lon="3.0525">
        <ele>239</ele>
        <time>2022-10-29T04:27:38.000Z</time>
      </trkpt>
      <trkpt lat="47.10584" lon="3.0525">
        <ele>237.80000305176</ele>
        <time>2022-10-29T04:27:42.000Z</time>
      </trkpt>
      <trkpt lat="47.10592" lon="3.0525">
        <ele>237.60000610352</ele>
        <time>2022-10-29T04:27:43.000Z</time>
      </trkpt>
      <trkpt lat="47.10609" lon="3.0525">
        <ele>236.80000305176</ele>
        <time>2022-10-29T04:27:45.000Z</time>
      </trkpt>
      <trkpt lat="47.10634" lon="3.0525">
        <ele>235.39999389648</ele>
        <time>2022-10-29T04:27:48.000Z</time>
      </trkpt>
      <trkpt lat="47.10651" lon="3.0525">
        <ele>234.80000305176</ele>
        <time>2022-10-29T04:27:50.000Z</time>
      </trkpt>
      <trkpt lat="47.10668" lon="3.0525">
        <ele>234.19999694824</ele>
        <time>2022-10-29T04:27:52.000Z</time>
      </trkpt>
      <trkpt lat="47.10709" lon="3.05251">
        <ele>233.19999694824</ele>
        <time>2022-10-29T04:27:57.000Z</time>
      </trkpt>
      <trkpt lat="47.10735" lon="3.05251">
        <ele>232</ele>
        <time>2022-10-29T04:28:00.000Z</time>
      </trkpt>
      <trkpt lat="47.10765" lon="3.05251">
        <ele>231.19999694824</ele>
        <time>2022-10-29T04:28:04.000Z</time>
      </trkpt>
      <trkpt lat="47.1078" lon="3.05252">
        <ele>230.60000610352</ele>
        <time>2022-10-29T04:28:06.000Z</time>
      </trkpt>
      <trkpt lat="47.10818" lon="3.0525">
        <ele>229.80000305176</ele>
        <time>2022-10-29T04:28:11.000Z</time>
      </trkpt>
      <trkpt lat="47.10826" lon="3.0525">
        <ele>229.60000610352</ele>
        <time>2022-10-29T04:28:12.000Z</time>
      </trkpt>
      <trkpt lat="47.10854" lon="3.05253">
        <ele>229.39999389648</ele>
        <time>2022-10-29T04:28:16.000Z</time>
      </trkpt>
      <trkpt lat="47.1086" lon="3.05256">
        <ele>229.19999694824</ele>
        <time>2022-10-29T04:28:17.000Z</time>
      </trkpt>
      <trkpt lat="47.10899" lon="3.05277">
        <ele>229</ele>
        <time>2022-10-29T04:28:24.000Z</time>
      </trkpt>
      <trkpt lat="47.10932" lon="3.05296">
        <ele>229</ele>
        <time>2022-10-29T04:28:30.000Z</time>
      </trkpt>
      <trkpt lat="47.10957" lon="3.0531">
        <ele>228.60000610352</ele>
        <time>2022-10-29T04:28:34.000Z</time>
      </trkpt>
      <trkpt lat="47.10971" lon="3.05318">
        <ele>228.19999694824</ele>
        <time>2022-10-29T04:28:36.000Z</time>
      </trkpt>
      <trkpt lat="47.10993" lon="3.05329">
        <ele>227.39999389648</ele>
        <time>2022-10-29T04:28:39.000Z</time>
      </trkpt>
      <trkpt lat="47.11016" lon="3.0534">
        <ele>226.39999389648</ele>
        <time>2022-10-29T04:28:42.000Z</time>
      </trkpt>
      <trkpt lat="47.11026" lon="3.05343">
        <ele>226.19999694824</ele>
        <time>2022-10-29T04:28:43.000Z</time>
      </trkpt>
      <trkpt lat="47.11049" lon="3.0535">
        <ele>225.19999694824</ele>
        <time>2022-10-29T04:28:46.000Z</time>
      </trkpt>
      <trkpt lat="47.11074" lon="3.05356">
        <ele>224.19999694824</ele>
        <time>2022-10-29T04:28:49.000Z</time>
      </trkpt>
      <trkpt lat="47.11085" lon="3.05358">
        <ele>223.39999389648</ele>
        <time>2022-10-29T04:28:50.000Z</time>
      </trkpt>
      <trkpt lat="47.11094" lon="3.05358">
        <ele>223</ele>
        <time>2022-10-29T04:28:51.000Z</time>
      </trkpt>
      <trkpt lat="47.1111" lon="3.05354">
        <ele>221.60000610352</ele>
        <time>2022-10-29T04:28:53.000Z</time>
      </trkpt>
      <trkpt lat="47.11129" lon="3.05347">
        <ele>220.39999389648</ele>
        <time>2022-10-29T04:28:55.000Z</time>
      </trkpt>
      <trkpt lat="47.11156" lon="3.05335">
        <ele>219</ele>
        <time>2022-10-29T04:28:58.000Z</time>
      </trkpt>
      <trkpt lat="47.11173" lon="3.05326">
        <ele>218</ele>
        <time>2022-10-29T04:29:00.000Z</time>
      </trkpt>
      <trkpt lat="47.11183" lon="3.05322">
        <ele>217.80000305176</ele>
        <time>2022-10-29T04:29:01.000Z</time>
      </trkpt>
      <trkpt lat="47.11198" lon="3.05315">
        <ele>216.19999694824</ele>
        <time>2022-10-29T04:29:03.000Z</time>
      </trkpt>
      <trkpt lat="47.11214" lon="3.05308">
        <ele>215</ele>
        <time>2022-10-29T04:29:05.000Z</time>
      </trkpt>
      <trkpt lat="47.11221" lon="3.05306">
        <ele>214.60000610352</ele>
        <time>2022-10-29T04:29:06.000Z</time>
      </trkpt>
      <trkpt lat="47.11227" lon="3.05305">
        <ele>213.60000610352</ele>
        <time>2022-10-29T04:29:07.000Z</time>
      </trkpt>
      <trkpt lat="47.11251" lon="3.05305">
        <ele>212</ele>
        <time>2022-10-29T04:29:10.000Z</time>
      </trkpt>
      <trkpt lat="47.11257" lon="3.05305">
        <ele>211.60000610352</ele>
        <time>2022-10-29T04:29:11.000Z</time>
      </trkpt>
      <trkpt lat="47.11263" lon="3.05305">
        <ele>211</ele>
        <time>2022-10-29T04:29:12.000Z</time>
      </trkpt>
      <trkpt lat="47.11275" lon="3.05306">
        <ele>209.80000305176</ele>
        <time>2022-10-29T04:29:14.000Z</time>
      </trkpt>
      <trkpt lat="47.11289" lon="3.05307">
        <ele>208.19999694824</ele>
        <time>2022-10-29T04:29:17.000Z</time>
      </trkpt>
      <trkpt lat="47.11297" lon="3.05303">
        <ele>207.39999389648</ele>
        <time>2022-10-29T04:29:19.000Z</time>
      </trkpt>
      <trkpt lat="47.113" lon="3.05298">
        <ele>206.80000305176</ele>
        <time>2022-10-29T04:29:20.000Z</time>
      </trkpt>
      <trkpt lat="47.11302" lon="3.05293">
        <ele>206.39999389648</ele>
        <time>2022-10-29T04:29:21.000Z</time>
      </trkpt>
      <trkpt lat="47.11305" lon="3.05275">
        <ele>205.60000610352</ele>
        <time>2022-10-29T04:29:23.000Z</time>
      </trkpt>
      <trkpt lat="47.11306" lon="3.05266">
        <ele>205.19999694824</ele>
        <time>2022-10-29T04:29:24.000Z</time>
      </trkpt>
      <trkpt lat="47.11311" lon="3.05229">
        <ele>204.60000610352</ele>
        <time>2022-10-29T04:29:28.000Z</time>
      </trkpt>
      <trkpt lat="47.11316" lon="3.05193">
        <ele>204</ele>
        <time>2022-10-29T04:29:32.000Z</time>
      </trkpt>
      <trkpt lat="47.1132" lon="3.05176">
        <ele>203.80000305176</ele>
        <time>2022-10-29T04:29:34.000Z</time>
      </trkpt>
      <trkpt lat="47.11329" lon="3.05152">
        <ele>203.80000305176</ele>
        <time>2022-10-29T04:29:37.000Z</time>
      </trkpt>
      <trkpt lat="47.11335" lon="3.05134">
        <ele>203.60000610352</ele>
        <time>2022-10-29T04:29:39.000Z</time>
      </trkpt>
      <trkpt lat="47.11338" lon="3.05116">
        <ele>203.39999389648</ele>
        <time>2022-10-29T04:29:41.000Z</time>
      </trkpt>
      <trkpt lat="47.11342" lon="3.05052">
        <ele>202.60000610352</ele>
        <time>2022-10-29T04:29:47.000Z</time>
      </trkpt>
      <trkpt lat="47.11342" lon="3.05042">
        <ele>202.39999389648</ele>
        <time>2022-10-29T04:29:48.000Z</time>
      </trkpt>
      <trkpt lat="47.1134" lon="3.05001">
        <ele>201.19999694824</ele>
        <time>2022-10-29T04:29:52.000Z</time>
      </trkpt>
      <trkpt lat="47.1134" lon="3.04991">
        <ele>201</ele>
        <time>2022-10-29T04:29:53.000Z</time>
      </trkpt>
      <trkpt lat="47.11342" lon="3.04924">
        <ele>200.60000610352</ele>
        <time>2022-10-29T04:30:00.000Z</time>
      </trkpt>
      <trkpt lat="47.11344" lon="3.04899">
        <ele>200.60000610352</ele>
        <time>2022-10-29T04:30:03.000Z</time>
      </trkpt>
      <trkpt lat="47.11346" lon="3.04891">
        <ele>200.80000305176</ele>
        <time>2022-10-29T04:30:04.000Z</time>
      </trkpt>
      <trkpt lat="47.11353" lon="3.0486">
        <ele>201.80000305176</ele>
        <time>2022-10-29T04:30:09.000Z</time>
      </trkpt>
      <trkpt lat="47.11355" lon="3.04853">
        <ele>202.19999694824</ele>
        <time>2022-10-29T04:30:10.000Z</time>
      </trkpt>
      <trkpt lat="47.11357" lon="3.04848">
        <ele>202.39999389648</ele>
        <time>2022-10-29T04:30:11.000Z</time>
      </trkpt>
      <trkpt lat="47.11364" lon="3.0483">
        <ele>203.39999389648</ele>
        <time>2022-10-29T04:30:15.000Z</time>
      </trkpt>
      <trkpt lat="47.11368" lon="3.04817">
        <ele>204.60000610352</ele>
        <time>2022-10-29T04:30:18.000Z</time>
      </trkpt>
      <trkpt lat="47.11372" lon="3.04809">
        <ele>205.19999694824</ele>
        <time>2022-10-29T04:30:20.000Z</time>
      </trkpt>
      <trkpt lat="47.11374" lon="3.04802">
        <ele>205.60000610352</ele>
        <time>2022-10-29T04:30:22.000Z</time>
      </trkpt>
      <trkpt lat="47.1138" lon="3.0479">
        <ele>206.39999389648</ele>
        <time>2022-10-29T04:30:25.000Z</time>
      </trkpt>
      <trkpt lat="47.11383" lon="3.04783">
        <ele>207</ele>
        <time>2022-10-29T04:30:27.000Z</time>
      </trkpt>
      <trkpt lat="47.11388" lon="3.04768">
        <ele>208</ele>
        <time>2022-10-29T04:30:31.000Z</time>
      </trkpt>
      <trkpt lat="47.11393" lon="3.04757">
        <ele>209.19999694824</ele>
        <time>2022-10-29T04:30:34.000Z</time>
      </trkpt>
      <trkpt lat="47.11394" lon="3.04753">
        <ele>209.39999389648</ele>
        <time>2022-10-29T04:30:35.000Z</time>
      </trkpt>
      <trkpt lat="47.11396" lon="3.04739">
        <ele>210.19999694824</ele>
        <time>2022-10-29T04:30:38.000Z</time>
      </trkpt>
      <trkpt lat="47.11397" lon="3.0472">
        <ele>211.39999389648</ele>
        <time>2022-10-29T04:30:42.000Z</time>
      </trkpt>
      <trkpt lat="47.11399" lon="3.04706">
        <ele>212.80000305176</ele>
        <time>2022-10-29T04:30:45.000Z</time>
      </trkpt>
      <trkpt lat="47.114" lon="3.04689">
        <ele>213.60000610352</ele>
        <time>2022-10-29T04:30:48.000Z</time>
      </trkpt>
      <trkpt lat="47.114" lon="3.04684">
        <ele>214</ele>
        <time>2022-10-29T04:30:49.000Z</time>
      </trkpt>
      <trkpt lat="47.11401" lon="3.04669">
        <ele>215</ele>
        <time>2022-10-29T04:30:52.000Z</time>
      </trkpt>
      <trkpt lat="47.11402" lon="3.04654">
        <ele>215.80000305176</ele>
        <time>2022-10-29T04:30:55.000Z</time>
      </trkpt>
      <trkpt lat="47.11402" lon="3.04649">
        <ele>216.19999694824</ele>
        <time>2022-10-29T04:30:56.000Z</time>
      </trkpt>
      <trkpt lat="47.11403" lon="3.04634">
        <ele>216.80000305176</ele>
        <time>2022-10-29T04:30:59.000Z</time>
      </trkpt>
      <trkpt lat="47.11405" lon="3.0463">
        <ele>217</ele>
        <time>2022-10-29T04:31:00.000Z</time>
      </trkpt>
      <trkpt lat="47.11408" lon="3.04627">
        <ele>217.19999694824</ele>
        <time>2022-10-29T04:31:01.000Z</time>
      </trkpt>
      <trkpt lat="47.11415" lon="3.04623">
        <ele>217.60000610352</ele>
        <time>2022-10-29T04:31:04.000Z</time>
      </trkpt>
      <trkpt lat="47.1142" lon="3.04622">
        <ele>217.80000305176</ele>
        <time>2022-10-29T04:31:08.000Z</time>
      </trkpt>
      <trkpt lat="47.11436" lon="3.04616">
        <ele>217.80000305176</ele>
        <time>2022-10-29T04:31:13.000Z</time>
      </trkpt>
      <trkpt lat="47.11464" lon="3.04604">
        <ele>217.60000610352</ele>
        <time>2022-10-29T04:31:20.000Z</time>
      </trkpt>
      <trkpt lat="47.11476" lon="3.04598">
        <ele>217.60000610352</ele>
        <time>2022-10-29T04:31:23.000Z</time>
      </trkpt>
      <trkpt lat="47.11487" lon="3.04589">
        <ele>217.39999389648</ele>
        <time>2022-10-29T04:31:26.000Z</time>
      </trkpt>
      <trkpt lat="47.11503" lon="3.04575">
        <ele>217.19999694824</ele>
        <time>2022-10-29T04:31:30.000Z</time>
      </trkpt>
      <trkpt lat="47.11514" lon="3.04564">
        <ele>217</ele>
        <time>2022-10-29T04:31:33.000Z</time>
      </trkpt>
      <trkpt lat="47.11548" lon="3.04526">
        <ele>216.39999389648</ele>
        <time>2022-10-29T04:31:42.000Z</time>
      </trkpt>
      <trkpt lat="47.11552" lon="3.04522">
        <ele>216.19999694824</ele>
        <time>2022-10-29T04:31:43.000Z</time>
      </trkpt>
      <trkpt lat="47.11577" lon="3.04493">
        <ele>215.80000305176</ele>
        <time>2022-10-29T04:31:49.000Z</time>
      </trkpt>
      <trkpt lat="47.11584" lon="3.04482">
        <ele>215.60000610352</ele>
        <time>2022-10-29T04:31:51.000Z</time>
      </trkpt>
      <trkpt lat="47.11591" lon="3.04471">
        <ele>215.60000610352</ele>
        <time>2022-10-29T04:31:53.000Z</time>
      </trkpt>
      <trkpt lat="47.11605" lon="3.04447">
        <ele>215.19999694824</ele>
        <time>2022-10-29T04:31:57.000Z</time>
      </trkpt>
      <trkpt lat="47.11636" lon="3.04391">
        <ele>214.80000305176</ele>
        <time>2022-10-29T04:32:07.000Z</time>
      </trkpt>
      <trkpt lat="47.11669" lon="3.04341">
        <ele>214.39999389648</ele>
        <time>2022-10-29T04:32:14.000Z</time>
      </trkpt>
      <trkpt lat="47.11678" lon="3.04329">
        <ele>214</ele>
        <time>2022-10-29T04:32:16.000Z</time>
      </trkpt>
      <trkpt lat="47.11706" lon="3.04293">
        <ele>213.19999694824</ele>
        <time>2022-10-29T04:32:22.000Z</time>
      </trkpt>
      <trkpt lat="47.11727" lon="3.0427">
        <ele>213</ele>
        <time>2022-10-29T04:32:26.000Z</time>
      </trkpt>
      <trkpt lat="47.1174" lon="3.04259">
        <ele>212.80000305176</ele>
        <time>2022-10-29T04:32:28.000Z</time>
      </trkpt>
      <trkpt lat="47.11774" lon="3.04233">
        <ele>212</ele>
        <time>2022-10-29T04:32:33.000Z</time>
      </trkpt>
      <trkpt lat="47.11781" lon="3.04226">
        <ele>211.80000305176</ele>
        <time>2022-10-29T04:32:34.000Z</time>
      </trkpt>
      <trkpt lat="47.11798" lon="3.04199">
        <ele>211</ele>
        <time>2022-10-29T04:32:37.000Z</time>
      </trkpt>
      <trkpt lat="47.11806" lon="3.04177">
        <ele>210.19999694824</ele>
        <time>2022-10-29T04:32:39.000Z</time>
      </trkpt>
      <trkpt lat="47.11812" lon="3.04153">
        <ele>209.39999389648</ele>
        <time>2022-10-29T04:32:41.000Z</time>
      </trkpt>
      <trkpt lat="47.11815" lon="3.04142">
        <ele>209.19999694824</ele>
        <time>2022-10-29T04:32:42.000Z</time>
      </trkpt>
      <trkpt lat="47.11827" lon="3.04106">
        <ele>207.80000305176</ele>
        <time>2022-10-29T04:32:45.000Z</time>
      </trkpt>
      <trkpt lat="47.11832" lon="3.04096">
        <ele>207.39999389648</ele>
        <time>2022-10-29T04:32:46.000Z</time>
      </trkpt>
      <trkpt lat="47.11844" lon="3.04074">
        <ele>206.80000305176</ele>
        <time>2022-10-29T04:32:48.000Z</time>
      </trkpt>
      <trkpt lat="47.11861" lon="3.04042">
        <ele>205.60000610352</ele>
        <time>2022-10-29T04:32:51.000Z</time>
      </trkpt>
      <trkpt lat="47.11867" lon="3.04031">
        <ele>205.19999694824</ele>
        <time>2022-10-29T04:32:52.000Z</time>
      </trkpt>
      <trkpt lat="47.11879" lon="3.04011">
        <ele>204.19999694824</ele>
        <time>2022-10-29T04:32:54.000Z</time>
      </trkpt>
      <trkpt lat="47.11897" lon="3.03978">
        <ele>203.19999694824</ele>
        <time>2022-10-29T04:32:57.000Z</time>
      </trkpt>
      <trkpt lat="47.11903" lon="3.03968">
        <ele>202.39999389648</ele>
        <time>2022-10-29T04:32:58.000Z</time>
      </trkpt>
      <trkpt lat="47.11909" lon="3.03957">
        <ele>202</ele>
        <time>2022-10-29T04:32:59.000Z</time>
      </trkpt>
      <trkpt lat="47.11928" lon="3.03926">
        <ele>200.80000305176</ele>
        <time>2022-10-29T04:33:02.000Z</time>
      </trkpt>
      <trkpt lat="47.11955" lon="3.03886">
        <ele>199.60000610352</ele>
        <time>2022-10-29T04:33:06.000Z</time>
      </trkpt>
      <trkpt lat="47.11961" lon="3.03876">
        <ele>199.19999694824</ele>
        <time>2022-10-29T04:33:07.000Z</time>
      </trkpt>
      <trkpt lat="47.11968" lon="3.03866">
        <ele>198.39999389648</ele>
        <time>2022-10-29T04:33:08.000Z</time>
      </trkpt>
      <trkpt lat="47.11997" lon="3.0383">
        <ele>197</ele>
        <time>2022-10-29T04:33:12.000Z</time>
      </trkpt>
      <trkpt lat="47.12005" lon="3.03822">
        <ele>196.80000305176</ele>
        <time>2022-10-29T04:33:13.000Z</time>
      </trkpt>
      <trkpt lat="47.12021" lon="3.03806">
        <ele>195.60000610352</ele>
        <time>2022-10-29T04:33:15.000Z</time>
      </trkpt>
      <trkpt lat="47.12046" lon="3.03783">
        <ele>194.39999389648</ele>
        <time>2022-10-29T04:33:18.000Z</time>
      </trkpt>
      <trkpt lat="47.12055" lon="3.03776">
        <ele>193.80000305176</ele>
        <time>2022-10-29T04:33:19.000Z</time>
      </trkpt>
      <trkpt lat="47.12064" lon="3.03769">
        <ele>193.19999694824</ele>
        <time>2022-10-29T04:33:20.000Z</time>
      </trkpt>
      <trkpt lat="47.12081" lon="3.03755">
        <ele>192</ele>
        <time>2022-10-29T04:33:22.000Z</time>
      </trkpt>
      <trkpt lat="47.12109" lon="3.03737">
        <ele>190.39999389648</ele>
        <time>2022-10-29T04:33:25.000Z</time>
      </trkpt>
      <trkpt lat="47.12118" lon="3.03732">
        <ele>190.19999694824</ele>
        <time>2022-10-29T04:33:26.000Z</time>
      </trkpt>
      <trkpt lat="47.12128" lon="3.03728">
        <ele>189.39999389648</ele>
        <time>2022-10-29T04:33:27.000Z</time>
      </trkpt>
      <trkpt lat="47.12157" lon="3.03715">
        <ele>188.19999694824</ele>
        <time>2022-10-29T04:33:30.000Z</time>
      </trkpt>
      <trkpt lat="47.12177" lon="3.03705">
        <ele>186.80000305176</ele>
        <time>2022-10-29T04:33:32.000Z</time>
      </trkpt>
      <trkpt lat="47.12205" lon="3.03689">
        <ele>185.80000305176</ele>
        <time>2022-10-29T04:33:35.000Z</time>
      </trkpt>
      <trkpt lat="47.12214" lon="3.03684">
        <ele>184.80000305176</ele>
        <time>2022-10-29T04:33:36.000Z</time>
      </trkpt>
      <trkpt lat="47.12242" lon="3.03666">
        <ele>183.39999389648</ele>
        <time>2022-10-29T04:33:39.000Z</time>
      </trkpt>
      <trkpt lat="47.12261" lon="3.03658">
        <ele>182.80000305176</ele>
        <time>2022-10-29T04:33:41.000Z</time>
      </trkpt>
      <trkpt lat="47.1227" lon="3.03656">
        <ele>182.60000610352</ele>
        <time>2022-10-29T04:33:42.000Z</time>
      </trkpt>
      <trkpt lat="47.12279" lon="3.03656">
        <ele>182.39999389648</ele>
        <time>2022-10-29T04:33:43.000Z</time>
      </trkpt>
      <trkpt lat="47.12288" lon="3.03657">
        <ele>182.19999694824</ele>
        <time>2022-10-29T04:33:44.000Z</time>
      </trkpt>
      <trkpt lat="47.12296" lon="3.0366">
        <ele>182.19999694824</ele>
        <time>2022-10-29T04:33:45.000Z</time>
      </trkpt>
      <trkpt lat="47.12332" lon="3.03679">
        <ele>182.60000610352</ele>
        <time>2022-10-29T04:33:50.000Z</time>
      </trkpt>
      <trkpt lat="47.1235" lon="3.0369">
        <ele>183.39999389648</ele>
        <time>2022-10-29T04:33:53.000Z</time>
      </trkpt>
      <trkpt lat="47.12367" lon="3.037">
        <ele>184.39999389648</ele>
        <time>2022-10-29T04:33:56.000Z</time>
      </trkpt>
      <trkpt lat="47.1239" lon="3.0372">
        <ele>185.60000610352</ele>
        <time>2022-10-29T04:34:01.000Z</time>
      </trkpt>
      <trkpt lat="47.12406" lon="3.03736">
        <ele>186.60000610352</ele>
        <time>2022-10-29T04:34:05.000Z</time>
      </trkpt>
      <trkpt lat="47.1241" lon="3.03739">
        <ele>187</ele>
        <time>2022-10-29T04:34:07.000Z</time>
      </trkpt>
      <trkpt lat="47.12426" lon="3.03751">
        <ele>187.60000610352</ele>
        <time>2022-10-29T04:34:10.000Z</time>
      </trkpt>
      <trkpt lat="47.12442" lon="3.03761">
        <ele>188.19999694824</ele>
        <time>2022-10-29T04:34:14.000Z</time>
      </trkpt>
      <trkpt lat="47.12446" lon="3.03763">
        <ele>188.60000610352</ele>
        <time>2022-10-29T04:34:15.000Z</time>
      </trkpt>
      <trkpt lat="47.1245" lon="3.03767">
        <ele>189</ele>
        <time>2022-10-29T04:34:16.000Z</time>
      </trkpt>
      <trkpt lat="47.1246" lon="3.03778">
        <ele>189.39999389648</ele>
        <time>2022-10-29T04:34:19.000Z</time>
      </trkpt>
      <trkpt lat="47.12466" lon="3.03785">
        <ele>190</ele>
        <time>2022-10-29T04:34:21.000Z</time>
      </trkpt>
      <trkpt lat="47.12474" lon="3.03795">
        <ele>191</ele>
        <time>2022-10-29T04:34:24.000Z</time>
      </trkpt>
      <trkpt lat="47.12476" lon="3.03798">
        <ele>191.39999389648</ele>
        <time>2022-10-29T04:34:25.000Z</time>
      </trkpt>
      <trkpt lat="47.12483" lon="3.03806">
        <ele>192</ele>
        <time>2022-10-29T04:34:28.000Z</time>
      </trkpt>
      <trkpt lat="47.12496" lon="3.03821">
        <ele>193.19999694824</ele>
        <time>2022-10-29T04:34:33.000Z</time>
      </trkpt>
      <trkpt lat="47.12506" lon="3.03834">
        <ele>194.60000610352</ele>
        <time>2022-10-29T04:34:37.000Z</time>
      </trkpt>
      <trkpt lat="47.12516" lon="3.03845">
        <ele>195.80000305176</ele>
        <time>2022-10-29T04:34:41.000Z</time>
      </trkpt>
      <trkpt lat="47.12522" lon="3.0385">
        <ele>196.19999694824</ele>
        <time>2022-10-29T04:34:43.000Z</time>
      </trkpt>
      <trkpt lat="47.12528" lon="3.03855">
        <ele>196.80000305176</ele>
        <time>2022-10-29T04:34:45.000Z</time>
      </trkpt>
      <trkpt lat="47.12543" lon="3.03865">
        <ele>197.80000305176</ele>
        <time>2022-10-29T04:34:50.000Z</time>
      </trkpt>
      <trkpt lat="47.12553" lon="3.03869">
        <ele>198.60000610352</ele>
        <time>2022-10-29T04:34:53.000Z</time>
      </trkpt>
      <trkpt lat="47.12559" lon="3.0387">
        <ele>199</ele>
        <time>2022-10-29T04:34:55.000Z</time>
      </trkpt>
      <trkpt lat="47.12576" lon="3.03872">
        <ele>200.19999694824</ele>
        <time>2022-10-29T04:35:00.000Z</time>
      </trkpt>
      <trkpt lat="47.12583" lon="3.03873">
        <ele>200.39999389648</ele>
        <time>2022-10-29T04:35:02.000Z</time>
      </trkpt>
      <trkpt lat="47.12593" lon="3.03874">
        <ele>201.19999694824</ele>
        <time>2022-10-29T04:35:05.000Z</time>
      </trkpt>
      <trkpt lat="47.12615" lon="3.03873">
        <ele>202.19999694824</ele>
        <time>2022-10-29T04:35:11.000Z</time>
      </trkpt>
      <trkpt lat="47.12635" lon="3.03873">
        <ele>203.60000610352</ele>
        <time>2022-10-29T04:35:16.000Z</time>
      </trkpt>
      <trkpt lat="47.12649" lon="3.03872">
        <ele>204</ele>
        <time>2022-10-29T04:35:20.000Z</time>
      </trkpt>
      <trkpt lat="47.12664" lon="3.03872">
        <ele>204.60000610352</ele>
        <time>2022-10-29T04:35:24.000Z</time>
      </trkpt>
      <trkpt lat="47.12684" lon="3.03871">
        <ele>205.19999694824</ele>
        <time>2022-10-29T04:35:29.000Z</time>
      </trkpt>
      <trkpt lat="47.12716" lon="3.03867">
        <ele>205.60000610352</ele>
        <time>2022-10-29T04:35:36.000Z</time>
      </trkpt>
      <trkpt lat="47.12725" lon="3.03866">
        <ele>205.80000305176</ele>
        <time>2022-10-29T04:35:38.000Z</time>
      </trkpt>
      <trkpt lat="47.12757" lon="3.03855">
        <ele>205.60000610352</ele>
        <time>2022-10-29T04:35:44.000Z</time>
      </trkpt>
      <trkpt lat="47.12793" lon="3.03842">
        <ele>205.19999694824</ele>
        <time>2022-10-29T04:35:50.000Z</time>
      </trkpt>
      <trkpt lat="47.12806" lon="3.03837">
        <ele>204.60000610352</ele>
        <time>2022-10-29T04:35:52.000Z</time>
      </trkpt>
      <trkpt lat="47.12834" lon="3.03827">
        <ele>204</ele>
        <time>2022-10-29T04:35:56.000Z</time>
      </trkpt>
      <trkpt lat="47.12857" lon="3.0382">
        <ele>203.39999389648</ele>
        <time>2022-10-29T04:35:59.000Z</time>
      </trkpt>
      <trkpt lat="47.12881" lon="3.03816">
        <ele>202.60000610352</ele>
        <time>2022-10-29T04:36:02.000Z</time>
      </trkpt>
      <trkpt lat="47.1289" lon="3.03815">
        <ele>202.39999389648</ele>
        <time>2022-10-29T04:36:03.000Z</time>
      </trkpt>
      <trkpt lat="47.12928" lon="3.03814">
        <ele>201.19999694824</ele>
        <time>2022-10-29T04:36:08.000Z</time>
      </trkpt>
      <trkpt lat="47.12946" lon="3.03814">
        <ele>200.19999694824</ele>
        <time>2022-10-29T04:36:10.000Z</time>
      </trkpt>
      <trkpt lat="47.12954" lon="3.03815">
        <ele>200</ele>
        <time>2022-10-29T04:36:11.000Z</time>
      </trkpt>
      <trkpt lat="47.12988" lon="3.03818">
        <ele>199</ele>
        <time>2022-10-29T04:36:15.000Z</time>
      </trkpt>
      <trkpt lat="47.13014" lon="3.03822">
        <ele>197.80000305176</ele>
        <time>2022-10-29T04:36:18.000Z</time>
      </trkpt>
      <trkpt lat="47.1304" lon="3.03825">
        <ele>197.19999694824</ele>
        <time>2022-10-29T04:36:21.000Z</time>
      </trkpt>
      <trkpt lat="47.13057" lon="3.03827">
        <ele>196.80000305176</ele>
        <time>2022-10-29T04:36:23.000Z</time>
      </trkpt>
      <trkpt lat="47.13099" lon="3.03829">
        <ele>196</ele>
        <time>2022-10-29T04:36:28.000Z</time>
      </trkpt>
      <trkpt lat="47.13108" lon="3.03829">
        <ele>195.39999389648</ele>
        <time>2022-10-29T04:36:29.000Z</time>
      </trkpt>
      <trkpt lat="47.13166" lon="3.03828">
        <ele>194.39999389648</ele>
        <time>2022-10-29T04:36:36.000Z</time>
      </trkpt>
      <trkpt lat="47.13182" lon="3.03829">
        <ele>194.19999694824</ele>
        <time>2022-10-29T04:36:38.000Z</time>
      </trkpt>
      <trkpt lat="47.13242" lon="3.03827">
        <ele>193.39999389648</ele>
        <time>2022-10-29T04:36:46.000Z</time>
      </trkpt>
      <trkpt lat="47.13257" lon="3.03827">
        <ele>193.19999694824</ele>
        <time>2022-10-29T04:36:48.000Z</time>
      </trkpt>
      <trkpt lat="47.13306" lon="3.03827">
        <ele>193.60000610352</ele>
        <time>2022-10-29T04:36:55.000Z</time>
      </trkpt>
      <trkpt lat="47.13352" lon="3.03838">
        <ele>194.60000610352</ele>
        <time>2022-10-29T04:37:02.000Z</time>
      </trkpt>
      <trkpt lat="47.134" lon="3.03865">
        <ele>194.60000610352</ele>
        <time>2022-10-29T04:37:10.000Z</time>
      </trkpt>
      <trkpt lat="47.13416" lon="3.03874">
        <ele>194.19999694824</ele>
        <time>2022-10-29T04:37:13.000Z</time>
      </trkpt>
      <trkpt lat="47.13426" lon="3.03881">
        <ele>193.80000305176</ele>
        <time>2022-10-29T04:37:15.000Z</time>
      </trkpt>
      <trkpt lat="47.13443" lon="3.03891">
        <ele>193.39999389648</ele>
        <time>2022-10-29T04:37:18.000Z</time>
      </trkpt>
      <trkpt lat="47.13463" lon="3.03898">
        <ele>193</ele>
        <time>2022-10-29T04:37:21.000Z</time>
      </trkpt>
      <trkpt lat="47.1347" lon="3.03899">
        <ele>192.60000610352</ele>
        <time>2022-10-29T04:37:22.000Z</time>
      </trkpt>
      <trkpt lat="47.13477" lon="3.03899">
        <ele>192.39999389648</ele>
        <time>2022-10-29T04:37:23.000Z</time>
      </trkpt>
      <trkpt lat="47.13499" lon="3.03899">
        <ele>191.80000305176</ele>
        <time>2022-10-29T04:37:26.000Z</time>
      </trkpt>
      <trkpt lat="47.13519" lon="3.03897">
        <ele>191.19999694824</ele>
        <time>2022-10-29T04:37:29.000Z</time>
      </trkpt>
      <trkpt lat="47.13552" lon="3.03892">
        <ele>190.60000610352</ele>
        <time>2022-10-29T04:37:34.000Z</time>
      </trkpt>
      <trkpt lat="47.13593" lon="3.03887">
        <ele>190.19999694824</ele>
        <time>2022-10-29T04:37:41.000Z</time>
      </trkpt>
      <trkpt lat="47.13605" lon="3.03885">
        <ele>190.19999694824</ele>
        <time>2022-10-29T04:37:43.000Z</time>
      </trkpt>
      <trkpt lat="47.13632" lon="3.03882">
        <ele>190</ele>
        <time>2022-10-29T04:37:48.000Z</time>
      </trkpt>
      <trkpt lat="47.13644" lon="3.03881">
        <ele>190</ele>
        <time>2022-10-29T04:37:50.000Z</time>
      </trkpt>
      <trkpt lat="47.13682" lon="3.03878">
        <ele>190</ele>
        <time>2022-10-29T04:37:57.000Z</time>
      </trkpt>
      <trkpt lat="47.13695" lon="3.03885">
        <ele>190</ele>
        <time>2022-10-29T04:38:01.000Z</time>
      </trkpt>
      <trkpt lat="47.13698" lon="3.03886">
        <ele>190</ele>
        <time>2022-10-29T04:38:02.000Z</time>
      </trkpt>
      <trkpt lat="47.13707" lon="3.03881">
        <ele>190.19999694824</ele>
        <time>2022-10-29T04:38:04.000Z</time>
      </trkpt>
      <trkpt lat="47.13719" lon="3.03868">
        <ele>190.19999694824</ele>
        <time>2022-10-29T04:38:07.000Z</time>
      </trkpt>
      <trkpt lat="47.13726" lon="3.0386">
        <ele>190.19999694824</ele>
        <time>2022-10-29T04:38:09.000Z</time>
      </trkpt>
      <trkpt lat="47.13756" lon="3.03828">
        <ele>190.80000305176</ele>
        <time>2022-10-29T04:38:16.000Z</time>
      </trkpt>
      <trkpt lat="47.13776" lon="3.03808">
        <ele>191.19999694824</ele>
        <time>2022-10-29T04:38:21.000Z</time>
      </trkpt>
      <trkpt lat="47.13788" lon="3.03796">
        <ele>191.60000610352</ele>
        <time>2022-10-29T04:38:24.000Z</time>
      </trkpt>
      <trkpt lat="47.13796" lon="3.03788">
        <ele>192</ele>
        <time>2022-10-29T04:38:26.000Z</time>
      </trkpt>
      <trkpt lat="47.13812" lon="3.03772">
        <ele>192.39999389648</ele>
        <time>2022-10-29T04:38:30.000Z</time>
      </trkpt>
      <trkpt lat="47.13826" lon="3.03756">
        <ele>193</ele>
        <time>2022-10-29T04:38:34.000Z</time>
      </trkpt>
      <trkpt lat="47.13837" lon="3.03745">
        <ele>193.60000610352</ele>
        <time>2022-10-29T04:38:37.000Z</time>
      </trkpt>
      <trkpt lat="47.13849" lon="3.03734">
        <ele>194</ele>
        <time>2022-10-29T04:38:40.000Z</time>
      </trkpt>
      <trkpt lat="47.13867" lon="3.03715">
        <ele>194.80000305176</ele>
        <time>2022-10-29T04:38:45.000Z</time>
      </trkpt>
      <trkpt lat="47.13886" lon="3.03696">
        <ele>195.60000610352</ele>
        <time>2022-10-29T04:38:50.000Z</time>
      </trkpt>
      <trkpt lat="47.1389" lon="3.03692">
        <ele>195.80000305176</ele>
        <time>2022-10-29T04:38:51.000Z</time>
      </trkpt>
      <trkpt lat="47.13921" lon="3.0366">
        <ele>196.60000610352</ele>
        <time>2022-10-29T04:38:58.000Z</time>
      </trkpt>
      <trkpt lat="47.13951" lon="3.03628">
        <ele>196.19999694824</ele>
        <time>2022-10-29T04:39:04.000Z</time>
      </trkpt>
      <trkpt lat="47.13989" lon="3.03588">
        <ele>194.80000305176</ele>
        <time>2022-10-29T04:39:10.000Z</time>
      </trkpt>
      <trkpt lat="47.14019" lon="3.03558">
        <ele>193</ele>
        <time>2022-10-29T04:39:14.000Z</time>
      </trkpt>
      <trkpt lat="47.14036" lon="3.03542">
        <ele>192.19999694824</ele>
        <time>2022-10-29T04:39:16.000Z</time>
      </trkpt>
      <trkpt lat="47.14044" lon="3.03533">
        <ele>191.80000305176</ele>
        <time>2022-10-29T04:39:17.000Z</time>
      </trkpt>
      <trkpt lat="47.1406" lon="3.03517">
        <ele>190.60000610352</ele>
        <time>2022-10-29T04:39:19.000Z</time>
      </trkpt>
      <trkpt lat="47.14079" lon="3.03498">
        <ele>189.60000610352</ele>
        <time>2022-10-29T04:39:21.000Z</time>
      </trkpt>
      <trkpt lat="47.14097" lon="3.03479">
        <ele>188.39999389648</ele>
        <time>2022-10-29T04:39:23.000Z</time>
      </trkpt>
      <trkpt lat="47.14123" lon="3.03452">
        <ele>186.80000305176</ele>
        <time>2022-10-29T04:39:26.000Z</time>
      </trkpt>
      <trkpt lat="47.14141" lon="3.03434">
        <ele>185.60000610352</ele>
        <time>2022-10-29T04:39:28.000Z</time>
      </trkpt>
      <trkpt lat="47.14158" lon="3.03416">
        <ele>184.39999389648</ele>
        <time>2022-10-29T04:39:30.000Z</time>
      </trkpt>
      <trkpt lat="47.14173" lon="3.034">
        <ele>183.60000610352</ele>
        <time>2022-10-29T04:39:32.000Z</time>
      </trkpt>
      <trkpt lat="47.14183" lon="3.0339">
        <ele>183.19999694824</ele>
        <time>2022-10-29T04:39:33.000Z</time>
      </trkpt>
      <trkpt lat="47.14208" lon="3.03364">
        <ele>182</ele>
        <time>2022-10-29T04:39:36.000Z</time>
      </trkpt>
      <trkpt lat="47.14239" lon="3.03333">
        <ele>180.80000305176</ele>
        <time>2022-10-29T04:39:40.000Z</time>
      </trkpt>
      <trkpt lat="47.14291" lon="3.03282">
        <ele>180.19999694824</ele>
        <time>2022-10-29T04:39:47.000Z</time>
      </trkpt>
      <trkpt lat="47.14337" lon="3.03233">
        <ele>180.39999389648</ele>
        <time>2022-10-29T04:39:54.000Z</time>
      </trkpt>
      <trkpt lat="47.14375" lon="3.03195">
        <ele>180.60000610352</ele>
        <time>2022-10-29T04:40:00.000Z</time>
      </trkpt>
      <trkpt lat="47.1441" lon="3.03159">
        <ele>180.60000610352</ele>
        <time>2022-10-29T04:40:06.000Z</time>
      </trkpt>
      <trkpt lat="47.14421" lon="3.03148">
        <ele>180.60000610352</ele>
        <time>2022-10-29T04:40:08.000Z</time>
      </trkpt>
      <trkpt lat="47.14441" lon="3.03125">
        <ele>181</ele>
        <time>2022-10-29T04:40:12.000Z</time>
      </trkpt>
      <trkpt lat="47.14476" lon="3.03087">
        <ele>181.39999389648</ele>
        <time>2022-10-29T04:40:19.000Z</time>
      </trkpt>
      <trkpt lat="47.14521" lon="3.03043">
        <ele>181.60000610352</ele>
        <time>2022-10-29T04:40:27.000Z</time>
      </trkpt>
      <trkpt lat="47.14527" lon="3.03037">
        <ele>181.39999389648</ele>
        <time>2022-10-29T04:40:28.000Z</time>
      </trkpt>
      <trkpt lat="47.14572" lon="3.03002">
        <ele>180.60000610352</ele>
        <time>2022-10-29T04:40:35.000Z</time>
      </trkpt>
      <trkpt lat="47.14612" lon="3.02977">
        <ele>179.80000305176</ele>
        <time>2022-10-29T04:40:41.000Z</time>
      </trkpt>
      <trkpt lat="47.14626" lon="3.02971">
        <ele>179.80000305176</ele>
        <time>2022-10-29T04:40:43.000Z</time>
      </trkpt>
      <trkpt lat="47.14674" lon="3.02952">
        <ele>179.80000305176</ele>
        <time>2022-10-29T04:40:50.000Z</time>
      </trkpt>
      <trkpt lat="47.14728" lon="3.02937">
        <ele>179.80000305176</ele>
        <time>2022-10-29T04:40:58.000Z</time>
      </trkpt>
      <trkpt lat="47.14734" lon="3.02936">
        <ele>179.80000305176</ele>
        <time>2022-10-29T04:40:59.000Z</time>
      </trkpt>
      <trkpt lat="47.14793" lon="3.02921">
        <ele>179.80000305176</ele>
        <time>2022-10-29T04:41:08.000Z</time>
      </trkpt>
      <trkpt lat="47.14822" lon="3.02912">
        <ele>179.80000305176</ele>
        <time>2022-10-29T04:41:13.000Z</time>
      </trkpt>
      <trkpt lat="47.14827" lon="3.02911">
        <ele>179.60000610352</ele>
        <time>2022-10-29T04:41:14.000Z</time>
      </trkpt>
      <trkpt lat="47.1486" lon="3.02902">
        <ele>179.60000610352</ele>
        <time>2022-10-29T04:41:19.000Z</time>
      </trkpt>
      <trkpt lat="47.14918" lon="3.02887">
        <ele>179.80000305176</ele>
        <time>2022-10-29T04:41:27.000Z</time>
      </trkpt>
      <trkpt lat="47.14967" lon="3.02874">
        <ele>179.60000610352</ele>
        <time>2022-10-29T04:41:34.000Z</time>
      </trkpt>
      <trkpt lat="47.15025" lon="3.02861">
        <ele>179.39999389648</ele>
        <time>2022-10-29T04:41:42.000Z</time>
      </trkpt>
      <trkpt lat="47.15058" lon="3.02853">
        <ele>179.19999694824</ele>
        <time>2022-10-29T04:41:47.000Z</time>
      </trkpt>
      <trkpt lat="47.15114" lon="3.02836">
        <ele>179.19999694824</ele>
        <time>2022-10-29T04:41:55.000Z</time>
      </trkpt>
      <trkpt lat="47.15171" lon="3.0282">
        <ele>179.19999694824</ele>
        <time>2022-10-29T04:42:03.000Z</time>
      </trkpt>
      <trkpt lat="47.15178" lon="3.02817">
        <ele>179.19999694824</ele>
        <time>2022-10-29T04:42:04.000Z</time>
      </trkpt>
      <trkpt lat="47.15226" lon="3.02792">
        <ele>179</ele>
        <time>2022-10-29T04:42:11.000Z</time>
      </trkpt>
      <trkpt lat="47.15273" lon="3.0276">
        <ele>178.60000610352</ele>
        <time>2022-10-29T04:42:18.000Z</time>
      </trkpt>
      <trkpt lat="47.15287" lon="3.02752">
        <ele>178.60000610352</ele>
        <time>2022-10-29T04:42:20.000Z</time>
      </trkpt>
      <trkpt lat="47.15317" lon="3.02731">
        <ele>178.19999694824</ele>
        <time>2022-10-29T04:42:25.000Z</time>
      </trkpt>
      <trkpt lat="47.15361" lon="3.02698">
        <ele>178.19999694824</ele>
        <time>2022-10-29T04:42:32.000Z</time>
      </trkpt>
      <trkpt lat="47.15374" lon="3.02688">
        <ele>178</ele>
        <time>2022-10-29T04:42:34.000Z</time>
      </trkpt>
      <trkpt lat="47.15403" lon="3.02668">
        <ele>178</ele>
        <time>2022-10-29T04:42:38.000Z</time>
      </trkpt>
      <trkpt lat="47.15454" lon="3.02634">
        <ele>178</ele>
        <time>2022-10-29T04:42:45.000Z</time>
      </trkpt>
      <trkpt lat="47.15503" lon="3.02601">
        <ele>178</ele>
        <time>2022-10-29T04:42:52.000Z</time>
      </trkpt>
      <trkpt lat="47.15546" lon="3.02567">
        <ele>178.19999694824</ele>
        <time>2022-10-29T04:42:59.000Z</time>
      </trkpt>
      <trkpt lat="47.15598" lon="3.02528">
        <ele>178.19999694824</ele>
        <time>2022-10-29T04:43:07.000Z</time>
      </trkpt>
      <trkpt lat="47.15618" lon="3.02513">
        <ele>178</ele>
        <time>2022-10-29T04:43:10.000Z</time>
      </trkpt>
      <trkpt lat="47.15624" lon="3.02508">
        <ele>178</ele>
        <time>2022-10-29T04:43:11.000Z</time>
      </trkpt>
      <trkpt lat="47.15665" lon="3.0248">
        <ele>178.19999694824</ele>
        <time>2022-10-29T04:43:17.000Z</time>
      </trkpt>
      <trkpt lat="47.15686" lon="3.02466">
        <ele>178.19999694824</ele>
        <time>2022-10-29T04:43:20.000Z</time>
      </trkpt>
      <trkpt lat="47.15705" lon="3.02454">
        <ele>178.19999694824</ele>
        <time>2022-10-29T04:43:23.000Z</time>
      </trkpt>
      <trkpt lat="47.15751" lon="3.02424">
        <ele>178.19999694824</ele>
        <time>2022-10-29T04:43:29.000Z</time>
      </trkpt>
      <trkpt lat="47.15801" lon="3.0239">
        <ele>178.19999694824</ele>
        <time>2022-10-29T04:43:36.000Z</time>
      </trkpt>
      <trkpt lat="47.15809" lon="3.02386">
        <ele>178.19999694824</ele>
        <time>2022-10-29T04:43:37.000Z</time>
      </trkpt>
      <trkpt lat="47.15859" lon="3.02351">
        <ele>178.19999694824</ele>
        <time>2022-10-29T04:43:45.000Z</time>
      </trkpt>
      <trkpt lat="47.15912" lon="3.02313">
        <ele>178.19999694824</ele>
        <time>2022-10-29T04:43:53.000Z</time>
      </trkpt>
      <trkpt lat="47.15918" lon="3.02309">
        <ele>178.19999694824</ele>
        <time>2022-10-29T04:43:54.000Z</time>
      </trkpt>
      <trkpt lat="47.15968" lon="3.02273">
        <ele>178.19999694824</ele>
        <time>2022-10-29T04:44:02.000Z</time>
      </trkpt>
      <trkpt lat="47.16021" lon="3.02236">
        <ele>178.39999389648</ele>
        <time>2022-10-29T04:44:10.000Z</time>
      </trkpt>
      <trkpt lat="47.16073" lon="3.02199">
        <ele>178.60000610352</ele>
        <time>2022-10-29T04:44:18.000Z</time>
      </trkpt>
      <trkpt lat="47.16122" lon="3.02166">
        <ele>178.80000305176</ele>
        <time>2022-10-29T04:44:25.000Z</time>
      </trkpt>
      <trkpt lat="47.16129" lon="3.02162">
        <ele>178.80000305176</ele>
        <time>2022-10-29T04:44:26.000Z</time>
      </trkpt>
      <trkpt lat="47.1615" lon="3.02148">
        <ele>178.80000305176</ele>
        <time>2022-10-29T04:44:29.000Z</time>
      </trkpt>
      <trkpt lat="47.1617" lon="3.02135">
        <ele>178.80000305176</ele>
        <time>2022-10-29T04:44:32.000Z</time>
      </trkpt>
      <trkpt lat="47.16198" lon="3.02116">
        <ele>178.60000610352</ele>
        <time>2022-10-29T04:44:37.000Z</time>
      </trkpt>
      <trkpt lat="47.16218" lon="3.02103">
        <ele>178.60000610352</ele>
        <time>2022-10-29T04:44:42.000Z</time>
      </trkpt>
      <trkpt lat="47.16223" lon="3.02101">
        <ele>178.39999389648</ele>
        <time>2022-10-29T04:44:44.000Z</time>
      </trkpt>
      <trkpt lat="47.16224" lon="3.021">
        <ele>178.39999389648</ele>
        <time>2022-10-29T04:44:46.000Z</time>
      </trkpt>
      <trkpt lat="47.16225" lon="3.02099">
        <ele>178.39999389648</ele>
        <time>2022-10-29T04:44:49.000Z</time>
      </trkpt>
      <trkpt lat="47.16226" lon="3.02099">
        <ele>178.19999694824</ele>
        <time>2022-10-29T04:44:51.000Z</time>
      </trkpt>
      <trkpt lat="47.16227" lon="3.02099">
        <ele>178.19999694824</ele>
        <time>2022-10-29T04:44:57.000Z</time>
      </trkpt>
      <trkpt lat="47.16227" lon="3.02099">
        <ele>178</ele>
        <time>2022-10-29T04:45:07.000Z</time>
      </trkpt>
      <trkpt lat="47.16227" lon="3.02099">
        <ele>178</ele>
        <time>2022-10-29T04:45:14.000Z</time>
      </trkpt>
      <trkpt lat="47.16228" lon="3.02098">
        <ele>177.39999389648</ele>
        <time>2022-10-29T04:48:18.000Z</time>
      </trkpt>
      <trkpt lat="47.16234" lon="3.02094">
        <ele>177.39999389648</ele>
        <time>2022-10-29T04:48:28.000Z</time>
      </trkpt>
      <trkpt lat="47.1625" lon="3.02085">
        <ele>177.60000610352</ele>
        <time>2022-10-29T04:48:34.000Z</time>
      </trkpt>
      <trkpt lat="47.16266" lon="3.02076">
        <ele>177.80000305176</ele>
        <time>2022-10-29T04:48:40.000Z</time>
      </trkpt>
      <trkpt lat="47.16283" lon="3.02066">
        <ele>177.80000305176</ele>
        <time>2022-10-29T04:48:46.000Z</time>
      </trkpt>
      <trkpt lat="47.16286" lon="3.02064">
        <ele>177.80000305176</ele>
        <time>2022-10-29T04:48:47.000Z</time>
      </trkpt>
      <trkpt lat="47.16304" lon="3.02055">
        <ele>177.80000305176</ele>
        <time>2022-10-29T04:48:52.000Z</time>
      </trkpt>
      <trkpt lat="47.16327" lon="3.02046">
        <ele>177.80000305176</ele>
        <time>2022-10-29T04:48:58.000Z</time>
      </trkpt>
      <trkpt lat="47.16357" lon="3.0203">
        <ele>177.80000305176</ele>
        <time>2022-10-29T04:49:05.000Z</time>
      </trkpt>
      <trkpt lat="47.16389" lon="3.02014">
        <ele>178</ele>
        <time>2022-10-29T04:49:12.000Z</time>
      </trkpt>
      <trkpt lat="47.16425" lon="3.01997">
        <ele>178</ele>
        <time>2022-10-29T04:49:20.000Z</time>
      </trkpt>
      <trkpt lat="47.16457" lon="3.01981">
        <ele>178</ele>
        <time>2022-10-29T04:49:27.000Z</time>
      </trkpt>
      <trkpt lat="47.16511" lon="3.01954">
        <ele>178.19999694824</ele>
        <time>2022-10-29T04:49:39.000Z</time>
      </trkpt>
      <trkpt lat="47.16561" lon="3.01927">
        <ele>178.19999694824</ele>
        <time>2022-10-29T04:49:50.000Z</time>
      </trkpt>
      <trkpt lat="47.16606" lon="3.01905">
        <ele>178</ele>
        <time>2022-10-29T04:50:00.000Z</time>
      </trkpt>
      <trkpt lat="47.16648" lon="3.01889">
        <ele>178.19999694824</ele>
        <time>2022-10-29T04:50:09.000Z</time>
      </trkpt>
      <trkpt lat="47.16687" lon="3.0188">
        <ele>178.39999389648</ele>
        <time>2022-10-29T04:50:17.000Z</time>
      </trkpt>
      <trkpt lat="47.16736" lon="3.0187">
        <ele>178.39999389648</ele>
        <time>2022-10-29T04:50:27.000Z</time>
      </trkpt>
      <trkpt lat="47.16779" lon="3.0186">
        <ele>178.19999694824</ele>
        <time>2022-10-29T04:50:36.000Z</time>
      </trkpt>
      <trkpt lat="47.16833" lon="3.01848">
        <ele>178</ele>
        <time>2022-10-29T04:50:47.000Z</time>
      </trkpt>
      <trkpt lat="47.16874" lon="3.0184">
        <ele>178</ele>
        <time>2022-10-29T04:50:55.000Z</time>
      </trkpt>
      <trkpt lat="47.16902" lon="3.01836">
        <ele>178</ele>
        <time>2022-10-29T04:51:01.000Z</time>
      </trkpt>
      <trkpt lat="47.16937" lon="3.01829">
        <ele>178</ele>
        <time>2022-10-29T04:51:08.000Z</time>
      </trkpt>
      <trkpt lat="47.16957" lon="3.01824">
        <ele>178.19999694824</ele>
        <time>2022-10-29T04:51:12.000Z</time>
      </trkpt>
      <trkpt lat="47.16981" lon="3.01816">
        <ele>178.19999694824</ele>
        <time>2022-10-29T04:51:17.000Z</time>
      </trkpt>
      <trkpt lat="47.1699" lon="3.01814">
        <ele>178.19999694824</ele>
        <time>2022-10-29T04:51:19.000Z</time>
      </trkpt>
      <trkpt lat="47.17003" lon="3.01811">
        <ele>178.19999694824</ele>
        <time>2022-10-29T04:51:22.000Z</time>
      </trkpt>
      <trkpt lat="47.1704" lon="3.01803">
        <ele>178.19999694824</ele>
        <time>2022-10-29T04:51:29.000Z</time>
      </trkpt>
      <trkpt lat="47.17075" lon="3.01796">
        <ele>178.60000610352</ele>
        <time>2022-10-29T04:51:36.000Z</time>
      </trkpt>
      <trkpt lat="47.17118" lon="3.01787">
        <ele>178.60000610352</ele>
        <time>2022-10-29T04:51:44.000Z</time>
      </trkpt>
      <trkpt lat="47.17155" lon="3.01778">
        <ele>178.39999389648</ele>
        <time>2022-10-29T04:51:51.000Z</time>
      </trkpt>
      <trkpt lat="47.17202" lon="3.0176">
        <ele>178.60000610352</ele>
        <time>2022-10-29T04:52:01.000Z</time>
      </trkpt>
      <trkpt lat="47.17214" lon="3.01754">
        <ele>178.39999389648</ele>
        <time>2022-10-29T04:52:04.000Z</time>
      </trkpt>
      <trkpt lat="47.17233" lon="3.01747">
        <ele>178.39999389648</ele>
        <time>2022-10-29T04:52:07.000Z</time>
      </trkpt>
      <trkpt lat="47.17268" lon="3.01732">
        <ele>178.19999694824</ele>
        <time>2022-10-29T04:52:13.000Z</time>
      </trkpt>
      <trkpt lat="47.17317" lon="3.01711">
        <ele>178</ele>
        <time>2022-10-29T04:52:22.000Z</time>
      </trkpt>
      <trkpt lat="47.17344" lon="3.017">
        <ele>177.60000610352</ele>
        <time>2022-10-29T04:52:27.000Z</time>
      </trkpt>
      <trkpt lat="47.17353" lon="3.01695">
        <ele>177.60000610352</ele>
        <time>2022-10-29T04:52:29.000Z</time>
      </trkpt>
      <trkpt lat="47.17367" lon="3.01688">
        <ele>177.39999389648</ele>
        <time>2022-10-29T04:52:32.000Z</time>
      </trkpt>
      <trkpt lat="47.17417" lon="3.01662">
        <ele>177.19999694824</ele>
        <time>2022-10-29T04:52:40.000Z</time>
      </trkpt>
      <trkpt lat="47.17465" lon="3.01639">
        <ele>177.19999694824</ele>
        <time>2022-10-29T04:52:48.000Z</time>
      </trkpt>
      <trkpt lat="47.17482" lon="3.0163">
        <ele>177</ele>
        <time>2022-10-29T04:52:51.000Z</time>
      </trkpt>
      <trkpt lat="47.17505" lon="3.01618">
        <ele>176.80000305176</ele>
        <time>2022-10-29T04:52:55.000Z</time>
      </trkpt>
      <trkpt lat="47.17551" lon="3.01599">
        <ele>176.19999694824</ele>
        <time>2022-10-29T04:53:03.000Z</time>
      </trkpt>
      <trkpt lat="47.17607" lon="3.01573">
        <ele>176.19999694824</ele>
        <time>2022-10-29T04:53:13.000Z</time>
      </trkpt>
      <trkpt lat="47.17635" lon="3.01561">
        <ele>176.19999694824</ele>
        <time>2022-10-29T04:53:18.000Z</time>
      </trkpt>
      <trkpt lat="47.17652" lon="3.01553">
        <ele>176.19999694824</ele>
        <time>2022-10-29T04:53:21.000Z</time>
      </trkpt>
      <trkpt lat="47.1766" lon="3.01549">
        <ele>176.19999694824</ele>
        <time>2022-10-29T04:53:23.000Z</time>
      </trkpt>
      <trkpt lat="47.17664" lon="3.01547">
        <ele>176.39999389648</ele>
        <time>2022-10-29T04:53:25.000Z</time>
      </trkpt>
      <trkpt lat="47.17681" lon="3.0154">
        <ele>176.80000305176</ele>
        <time>2022-10-29T04:53:30.000Z</time>
      </trkpt>
      <trkpt lat="47.17702" lon="3.01534">
        <ele>177.39999389648</ele>
        <time>2022-10-29T04:53:36.000Z</time>
      </trkpt>
      <trkpt lat="47.17721" lon="3.01525">
        <ele>178.19999694824</ele>
        <time>2022-10-29T04:53:41.000Z</time>
      </trkpt>
      <trkpt lat="47.1773" lon="3.01519">
        <ele>178.80000305176</ele>
        <time>2022-10-29T04:53:44.000Z</time>
      </trkpt>
      <trkpt lat="47.17746" lon="3.01512">
        <ele>179.39999389648</ele>
        <time>2022-10-29T04:53:48.000Z</time>
      </trkpt>
      <trkpt lat="47.1775" lon="3.0151">
        <ele>179.39999389648</ele>
        <time>2022-10-29T04:53:49.000Z</time>
      </trkpt>
      <trkpt lat="47.17754" lon="3.01507">
        <ele>179.39999389648</ele>
        <time>2022-10-29T04:53:50.000Z</time>
      </trkpt>
      <trkpt lat="47.17763" lon="3.01503">
        <ele>179.60000610352</ele>
        <time>2022-10-29T04:53:52.000Z</time>
      </trkpt>
      <trkpt lat="47.17768" lon="3.015">
        <ele>179.60000610352</ele>
        <time>2022-10-29T04:53:53.000Z</time>
      </trkpt>
      <trkpt lat="47.17774" lon="3.01496">
        <ele>179.60000610352</ele>
        <time>2022-10-29T04:53:54.000Z</time>
      </trkpt>
      <trkpt lat="47.17785" lon="3.01493">
        <ele>179.39999389648</ele>
        <time>2022-10-29T04:53:56.000Z</time>
      </trkpt>
      <trkpt lat="47.1779" lon="3.01491">
        <ele>179.39999389648</ele>
        <time>2022-10-29T04:53:57.000Z</time>
      </trkpt>
      <trkpt lat="47.17827" lon="3.01478">
        <ele>178.80000305176</ele>
        <time>2022-10-29T04:54:03.000Z</time>
      </trkpt>
      <trkpt lat="47.17834" lon="3.01476">
        <ele>178.80000305176</ele>
        <time>2022-10-29T04:54:04.000Z</time>
      </trkpt>
      <trkpt lat="47.17852" lon="3.01467">
        <ele>178.19999694824</ele>
        <time>2022-10-29T04:54:07.000Z</time>
      </trkpt>
      <trkpt lat="47.17878" lon="3.01456">
        <ele>177.80000305176</ele>
        <time>2022-10-29T04:54:11.000Z</time>
      </trkpt>
      <trkpt lat="47.17917" lon="3.0144">
        <ele>177.19999694824</ele>
        <time>2022-10-29T04:54:17.000Z</time>
      </trkpt>
      <trkpt lat="47.17935" lon="3.01433">
        <ele>176.80000305176</ele>
        <time>2022-10-29T04:54:20.000Z</time>
      </trkpt>
      <trkpt lat="47.1798" lon="3.01413">
        <ele>176.60000610352</ele>
        <time>2022-10-29T04:54:28.000Z</time>
      </trkpt>
      <trkpt lat="47.1802" lon="3.01397">
        <ele>177</ele>
        <time>2022-10-29T04:54:36.000Z</time>
      </trkpt>
      <trkpt lat="47.18031" lon="3.01391">
        <ele>177</ele>
        <time>2022-10-29T04:54:38.000Z</time>
      </trkpt>
      <trkpt lat="47.18052" lon="3.01384">
        <ele>177.19999694824</ele>
        <time>2022-10-29T04:54:42.000Z</time>
      </trkpt>
      <trkpt lat="47.18095" lon="3.01368">
        <ele>177.60000610352</ele>
        <time>2022-10-29T04:54:50.000Z</time>
      </trkpt>
      <trkpt lat="47.18105" lon="3.01365">
        <ele>177.60000610352</ele>
        <time>2022-10-29T04:54:52.000Z</time>
      </trkpt>
      <trkpt lat="47.18152" lon="3.01345">
        <ele>177.80000305176</ele>
        <time>2022-10-29T04:55:01.000Z</time>
      </trkpt>
      <trkpt lat="47.18179" lon="3.01334">
        <ele>178.19999694824</ele>
        <time>2022-10-29T04:55:06.000Z</time>
      </trkpt>
      <trkpt lat="47.18195" lon="3.01327">
        <ele>178.19999694824</ele>
        <time>2022-10-29T04:55:09.000Z</time>
      </trkpt>
      <trkpt lat="47.18237" lon="3.0131">
        <ele>178.39999389648</ele>
        <time>2022-10-29T04:55:17.000Z</time>
      </trkpt>
      <trkpt lat="47.18266" lon="3.01297">
        <ele>178.80000305176</ele>
        <time>2022-10-29T04:55:23.000Z</time>
      </trkpt>
      <trkpt lat="47.18272" lon="3.01295">
        <ele>178.80000305176</ele>
        <time>2022-10-29T04:55:24.000Z</time>
      </trkpt>
      <trkpt lat="47.18298" lon="3.01285">
        <ele>179</ele>
        <time>2022-10-29T04:55:29.000Z</time>
      </trkpt>
      <trkpt lat="47.18352" lon="3.01259">
        <ele>178.80000305176</ele>
        <time>2022-10-29T04:55:39.000Z</time>
      </trkpt>
      <trkpt lat="47.18403" lon="3.01235">
        <ele>178.80000305176</ele>
        <time>2022-10-29T04:55:49.000Z</time>
      </trkpt>
      <trkpt lat="47.18456" lon="3.01209">
        <ele>178.80000305176</ele>
        <time>2022-10-29T04:55:59.000Z</time>
      </trkpt>
      <trkpt lat="47.18471" lon="3.01202">
        <ele>178.80000305176</ele>
        <time>2022-10-29T04:56:02.000Z</time>
      </trkpt>
      <trkpt lat="47.18525" lon="3.01177">
        <ele>179.19999694824</ele>
        <time>2022-10-29T04:56:12.000Z</time>
      </trkpt>
      <trkpt lat="47.18572" lon="3.01155">
        <ele>179</ele>
        <time>2022-10-29T04:56:21.000Z</time>
      </trkpt>
      <trkpt lat="47.18624" lon="3.0113">
        <ele>179</ele>
        <time>2022-10-29T04:56:31.000Z</time>
      </trkpt>
      <trkpt lat="47.18655" lon="3.01115">
        <ele>179</ele>
        <time>2022-10-29T04:56:37.000Z</time>
      </trkpt>
      <trkpt lat="47.18669" lon="3.01109">
        <ele>179.39999389648</ele>
        <time>2022-10-29T04:56:40.000Z</time>
      </trkpt>
      <trkpt lat="47.18674" lon="3.01106">
        <ele>179.60000610352</ele>
        <time>2022-10-29T04:56:41.000Z</time>
      </trkpt>
      <trkpt lat="47.18716" lon="3.01084">
        <ele>180.60000610352</ele>
        <time>2022-10-29T04:56:50.000Z</time>
      </trkpt>
      <trkpt lat="47.18757" lon="3.01065">
        <ele>181.39999389648</ele>
        <time>2022-10-29T04:56:59.000Z</time>
      </trkpt>
      <trkpt lat="47.18761" lon="3.01063">
        <ele>181.60000610352</ele>
        <time>2022-10-29T04:57:00.000Z</time>
      </trkpt>
      <trkpt lat="47.18786" lon="3.01058">
        <ele>182</ele>
        <time>2022-10-29T04:57:05.000Z</time>
      </trkpt>
      <trkpt lat="47.18809" lon="3.01058">
        <ele>182.39999389648</ele>
        <time>2022-10-29T04:57:10.000Z</time>
      </trkpt>
      <trkpt lat="47.18822" lon="3.01062">
        <ele>182.60000610352</ele>
        <time>2022-10-29T04:57:13.000Z</time>
      </trkpt>
      <trkpt lat="47.18827" lon="3.01063">
        <ele>182.60000610352</ele>
        <time>2022-10-29T04:57:14.000Z</time>
      </trkpt>
      <trkpt lat="47.1886" lon="3.01077">
        <ele>183.19999694824</ele>
        <time>2022-10-29T04:57:22.000Z</time>
      </trkpt>
      <trkpt lat="47.1889" lon="3.01098">
        <ele>183.60000610352</ele>
        <time>2022-10-29T04:57:29.000Z</time>
      </trkpt>
      <trkpt lat="47.18895" lon="3.01102">
        <ele>183.60000610352</ele>
        <time>2022-10-29T04:57:30.000Z</time>
      </trkpt>
      <trkpt lat="47.18924" lon="3.01125">
        <ele>184</ele>
        <time>2022-10-29T04:57:36.000Z</time>
      </trkpt>
      <trkpt lat="47.18969" lon="3.01157">
        <ele>184.39999389648</ele>
        <time>2022-10-29T04:57:45.000Z</time>
      </trkpt>
      <trkpt lat="47.18986" lon="3.0117">
        <ele>184.60000610352</ele>
        <time>2022-10-29T04:57:49.000Z</time>
      </trkpt>
      <trkpt lat="47.19003" lon="3.01184">
        <ele>184.80000305176</ele>
        <time>2022-10-29T04:57:53.000Z</time>
      </trkpt>
      <trkpt lat="47.19053" lon="3.01221">
        <ele>185</ele>
        <time>2022-10-29T04:58:04.000Z</time>
      </trkpt>
      <trkpt lat="47.19057" lon="3.01224">
        <ele>185</ele>
        <time>2022-10-29T04:58:05.000Z</time>
      </trkpt>
      <trkpt lat="47.19104" lon="3.01259">
        <ele>185.19999694824</ele>
        <time>2022-10-29T04:58:15.000Z</time>
      </trkpt>
      <trkpt lat="47.19144" lon="3.01289">
        <ele>185.60000610352</ele>
        <time>2022-10-29T04:58:24.000Z</time>
      </trkpt>
      <trkpt lat="47.19149" lon="3.01292">
        <ele>185.60000610352</ele>
        <time>2022-10-29T04:58:25.000Z</time>
      </trkpt>
      <trkpt lat="47.19158" lon="3.01299">
        <ele>185.60000610352</ele>
        <time>2022-10-29T04:58:27.000Z</time>
      </trkpt>
      <trkpt lat="47.19208" lon="3.01335">
        <ele>185.80000305176</ele>
        <time>2022-10-29T04:58:38.000Z</time>
      </trkpt>
      <trkpt lat="47.19213" lon="3.0134">
        <ele>185.80000305176</ele>
        <time>2022-10-29T04:58:39.000Z</time>
      </trkpt>
      <trkpt lat="47.19255" lon="3.01369">
        <ele>186</ele>
        <time>2022-10-29T04:58:49.000Z</time>
      </trkpt>
      <trkpt lat="47.19284" lon="3.01386">
        <ele>186.60000610352</ele>
        <time>2022-10-29T04:58:56.000Z</time>
      </trkpt>
      <trkpt lat="47.19305" lon="3.01395">
        <ele>187.19999694824</ele>
        <time>2022-10-29T04:59:01.000Z</time>
      </trkpt>
      <trkpt lat="47.19318" lon="3.01398">
        <ele>187.60000610352</ele>
        <time>2022-10-29T04:59:04.000Z</time>
      </trkpt>
      <trkpt lat="47.19325" lon="3.01401">
        <ele>188</ele>
        <time>2022-10-29T04:59:06.000Z</time>
      </trkpt>
      <trkpt lat="47.19356" lon="3.01409">
        <ele>189</ele>
        <time>2022-10-29T04:59:14.000Z</time>
      </trkpt>
      <trkpt lat="47.1936" lon="3.0141">
        <ele>189.19999694824</ele>
        <time>2022-10-29T04:59:15.000Z</time>
      </trkpt>
      <trkpt lat="47.19388" lon="3.01412">
        <ele>190.39999389648</ele>
        <time>2022-10-29T04:59:22.000Z</time>
      </trkpt>
      <trkpt lat="47.19392" lon="3.01412">
        <ele>190.60000610352</ele>
        <time>2022-10-29T04:59:23.000Z</time>
      </trkpt>
      <trkpt lat="47.19411" lon="3.01412">
        <ele>191.39999389648</ele>
        <time>2022-10-29T04:59:28.000Z</time>
      </trkpt>
      <trkpt lat="47.19431" lon="3.01408">
        <ele>192.19999694824</ele>
        <time>2022-10-29T04:59:33.000Z</time>
      </trkpt>
      <trkpt lat="47.19439" lon="3.01406">
        <ele>192.60000610352</ele>
        <time>2022-10-29T04:59:35.000Z</time>
      </trkpt>
      <trkpt lat="47.19455" lon="3.01402">
        <ele>193</ele>
        <time>2022-10-29T04:59:39.000Z</time>
      </trkpt>
      <trkpt lat="47.19463" lon="3.014">
        <ele>193.19999694824</ele>
        <time>2022-10-29T04:59:41.000Z</time>
      </trkpt>
      <trkpt lat="47.19471" lon="3.01397">
        <ele>193.60000610352</ele>
        <time>2022-10-29T04:59:43.000Z</time>
      </trkpt>
      <trkpt lat="47.19495" lon="3.01387">
        <ele>194.19999694824</ele>
        <time>2022-10-29T04:59:49.000Z</time>
      </trkpt>
      <trkpt lat="47.19507" lon="3.01382">
        <ele>194.60000610352</ele>
        <time>2022-10-29T04:59:52.000Z</time>
      </trkpt>
      <trkpt lat="47.19534" lon="3.01373">
        <ele>194.80000305176</ele>
        <time>2022-10-29T04:59:58.000Z</time>
      </trkpt>
      <trkpt lat="47.19567" lon="3.01361">
        <ele>195.19999694824</ele>
        <time>2022-10-29T05:00:05.000Z</time>
      </trkpt>
      <trkpt lat="47.19622" lon="3.01341">
        <ele>195.19999694824</ele>
        <time>2022-10-29T05:00:16.000Z</time>
      </trkpt>
      <trkpt lat="47.19668" lon="3.01324">
        <ele>195</ele>
        <time>2022-10-29T05:00:25.000Z</time>
      </trkpt>
      <trkpt lat="47.19725" lon="3.01303">
        <ele>195.19999694824</ele>
        <time>2022-10-29T05:00:36.000Z</time>
      </trkpt>
      <trkpt lat="47.19735" lon="3.013">
        <ele>195.19999694824</ele>
        <time>2022-10-29T05:00:38.000Z</time>
      </trkpt>
      <trkpt lat="47.19763" lon="3.0129">
        <ele>195.60000610352</ele>
        <time>2022-10-29T05:00:44.000Z</time>
      </trkpt>
      <trkpt lat="47.19773" lon="3.01285">
        <ele>195.80000305176</ele>
        <time>2022-10-29T05:00:46.000Z</time>
      </trkpt>
      <trkpt lat="47.19817" lon="3.01269">
        <ele>196.19999694824</ele>
        <time>2022-10-29T05:00:55.000Z</time>
      </trkpt>
      <trkpt lat="47.19875" lon="3.01248">
        <ele>196</ele>
        <time>2022-10-29T05:01:06.000Z</time>
      </trkpt>
      <trkpt lat="47.19926" lon="3.01228">
        <ele>195</ele>
        <time>2022-10-29T05:01:15.000Z</time>
      </trkpt>
      <trkpt lat="47.19933" lon="3.01226">
        <ele>194.80000305176</ele>
        <time>2022-10-29T05:01:16.000Z</time>
      </trkpt>
      <trkpt lat="47.19972" lon="3.0121">
        <ele>193.80000305176</ele>
        <time>2022-10-29T05:01:22.000Z</time>
      </trkpt>
      <trkpt lat="47.19986" lon="3.01205">
        <ele>193.39999389648</ele>
        <time>2022-10-29T05:01:24.000Z</time>
      </trkpt>
      <trkpt lat="47.20014" lon="3.01195">
        <ele>192.60000610352</ele>
        <time>2022-10-29T05:01:28.000Z</time>
      </trkpt>
      <trkpt lat="47.20049" lon="3.01183">
        <ele>191.60000610352</ele>
        <time>2022-10-29T05:01:33.000Z</time>
      </trkpt>
      <trkpt lat="47.20056" lon="3.01181">
        <ele>191.39999389648</ele>
        <time>2022-10-29T05:01:34.000Z</time>
      </trkpt>
      <trkpt lat="47.20085" lon="3.01172">
        <ele>190.19999694824</ele>
        <time>2022-10-29T05:01:38.000Z</time>
      </trkpt>
      <trkpt lat="47.2012" lon="3.01162">
        <ele>189</ele>
        <time>2022-10-29T05:01:43.000Z</time>
      </trkpt>
      <trkpt lat="47.20128" lon="3.0116">
        <ele>188.80000305176</ele>
        <time>2022-10-29T05:01:44.000Z</time>
      </trkpt>
      <trkpt lat="47.20171" lon="3.01148">
        <ele>187.80000305176</ele>
        <time>2022-10-29T05:01:50.000Z</time>
      </trkpt>
      <trkpt lat="47.20193" lon="3.01144">
        <ele>187.60000610352</ele>
        <time>2022-10-29T05:01:53.000Z</time>
      </trkpt>
      <trkpt lat="47.20208" lon="3.01142">
        <ele>186.80000305176</ele>
        <time>2022-10-29T05:01:55.000Z</time>
      </trkpt>
      <trkpt lat="47.20246" lon="3.0114">
        <ele>186</ele>
        <time>2022-10-29T05:02:00.000Z</time>
      </trkpt>
      <trkpt lat="47.2026" lon="3.01143">
        <ele>185.80000305176</ele>
        <time>2022-10-29T05:02:02.000Z</time>
      </trkpt>
      <trkpt lat="47.20272" lon="3.01149">
        <ele>185.60000610352</ele>
        <time>2022-10-29T05:02:04.000Z</time>
      </trkpt>
      <trkpt lat="47.20282" lon="3.01154">
        <ele>185.60000610352</ele>
        <time>2022-10-29T05:02:06.000Z</time>
      </trkpt>
      <trkpt lat="47.20291" lon="3.01162">
        <ele>185.60000610352</ele>
        <time>2022-10-29T05:02:08.000Z</time>
      </trkpt>
      <trkpt lat="47.20319" lon="3.01193">
        <ele>186.19999694824</ele>
        <time>2022-10-29T05:02:15.000Z</time>
      </trkpt>
      <trkpt lat="47.2033" lon="3.01212">
        <ele>187</ele>
        <time>2022-10-29T05:02:19.000Z</time>
      </trkpt>
      <trkpt lat="47.20333" lon="3.01216">
        <ele>187.19999694824</ele>
        <time>2022-10-29T05:02:20.000Z</time>
      </trkpt>
      <trkpt lat="47.20344" lon="3.01233">
        <ele>188.19999694824</ele>
        <time>2022-10-29T05:02:24.000Z</time>
      </trkpt>
      <trkpt lat="47.20346" lon="3.01238">
        <ele>188.39999389648</ele>
        <time>2022-10-29T05:02:25.000Z</time>
      </trkpt>
      <trkpt lat="47.2036" lon="3.01272">
        <ele>189.19999694824</ele>
        <time>2022-10-29T05:02:31.000Z</time>
      </trkpt>
      <trkpt lat="47.20362" lon="3.01279">
        <ele>189.39999389648</ele>
        <time>2022-10-29T05:02:32.000Z</time>
      </trkpt>
      <trkpt lat="47.20372" lon="3.01322">
        <ele>190.19999694824</ele>
        <time>2022-10-29T05:02:39.000Z</time>
      </trkpt>
      <trkpt lat="47.20377" lon="3.01333">
        <ele>190.39999389648</ele>
        <time>2022-10-29T05:02:42.000Z</time>
      </trkpt>
      <trkpt lat="47.20379" lon="3.01333">
        <ele>190.39999389648</ele>
        <time>2022-10-29T05:02:43.000Z</time>
      </trkpt>
      <trkpt lat="47.20385" lon="3.0133">
        <ele>190.39999389648</ele>
        <time>2022-10-29T05:02:46.000Z</time>
      </trkpt>
      <trkpt lat="47.20392" lon="3.01328">
        <ele>190.39999389648</ele>
        <time>2022-10-29T05:02:49.000Z</time>
      </trkpt>
      <trkpt lat="47.20395" lon="3.01327">
        <ele>190.39999389648</ele>
        <time>2022-10-29T05:02:50.000Z</time>
      </trkpt>
      <trkpt lat="47.20408" lon="3.01315">
        <ele>190.39999389648</ele>
        <time>2022-10-29T05:02:55.000Z</time>
      </trkpt>
      <trkpt lat="47.20424" lon="3.01284">
        <ele>189.60000610352</ele>
        <time>2022-10-29T05:03:00.000Z</time>
      </trkpt>
      <trkpt lat="47.20427" lon="3.01276">
        <ele>189.39999389648</ele>
        <time>2022-10-29T05:03:01.000Z</time>
      </trkpt>
      <trkpt lat="47.20439" lon="3.0125">
        <ele>188.19999694824</ele>
        <time>2022-10-29T05:03:04.000Z</time>
      </trkpt>
      <trkpt lat="47.20443" lon="3.01241">
        <ele>188</ele>
        <time>2022-10-29T05:03:05.000Z</time>
      </trkpt>
      <trkpt lat="47.20456" lon="3.01214">
        <ele>187</ele>
        <time>2022-10-29T05:03:08.000Z</time>
      </trkpt>
      <trkpt lat="47.20476" lon="3.01176">
        <ele>186.19999694824</ele>
        <time>2022-10-29T05:03:12.000Z</time>
      </trkpt>
      <trkpt lat="47.20482" lon="3.01167">
        <ele>185.80000305176</ele>
        <time>2022-10-29T05:03:13.000Z</time>
      </trkpt>
      <trkpt lat="47.20487" lon="3.01158">
        <ele>185.39999389648</ele>
        <time>2022-10-29T05:03:14.000Z</time>
      </trkpt>
      <trkpt lat="47.205" lon="3.01142">
        <ele>184.60000610352</ele>
        <time>2022-10-29T05:03:16.000Z</time>
      </trkpt>
      <trkpt lat="47.20507" lon="3.01135">
        <ele>184.19999694824</ele>
        <time>2022-10-29T05:03:17.000Z</time>
      </trkpt>
      <trkpt lat="47.20528" lon="3.01112">
        <ele>183.19999694824</ele>
        <time>2022-10-29T05:03:20.000Z</time>
      </trkpt>
      <trkpt lat="47.2055" lon="3.01092">
        <ele>182</ele>
        <time>2022-10-29T05:03:23.000Z</time>
      </trkpt>
      <trkpt lat="47.20558" lon="3.01085">
        <ele>181.80000305176</ele>
        <time>2022-10-29T05:03:24.000Z</time>
      </trkpt>
      <trkpt lat="47.20587" lon="3.01059">
        <ele>180.80000305176</ele>
        <time>2022-10-29T05:03:28.000Z</time>
      </trkpt>
      <trkpt lat="47.20615" lon="3.01035">
        <ele>180.19999694824</ele>
        <time>2022-10-29T05:03:32.000Z</time>
      </trkpt>
      <trkpt lat="47.20657" lon="3.01004">
        <ele>179.80000305176</ele>
        <time>2022-10-29T05:03:38.000Z</time>
      </trkpt>
      <trkpt lat="47.20713" lon="3.0097">
        <ele>179.19999694824</ele>
        <time>2022-10-29T05:03:46.000Z</time>
      </trkpt>
      <trkpt lat="47.2074" lon="3.00955">
        <ele>178.80000305176</ele>
        <time>2022-10-29T05:03:50.000Z</time>
      </trkpt>
      <trkpt lat="47.20791" lon="3.00927">
        <ele>178.39999389648</ele>
        <time>2022-10-29T05:03:57.000Z</time>
      </trkpt>
      <trkpt lat="47.208" lon="3.00922">
        <ele>178</ele>
        <time>2022-10-29T05:03:58.000Z</time>
      </trkpt>
      <trkpt lat="47.20813" lon="3.00915">
        <ele>177.80000305176</ele>
        <time>2022-10-29T05:04:00.000Z</time>
      </trkpt>
      <trkpt lat="47.20866" lon="3.00891">
        <ele>177</ele>
        <time>2022-10-29T05:04:07.000Z</time>
      </trkpt>
      <trkpt lat="47.20873" lon="3.00888">
        <ele>176.80000305176</ele>
        <time>2022-10-29T05:04:08.000Z</time>
      </trkpt>
      <trkpt lat="47.20881" lon="3.00886">
        <ele>176.80000305176</ele>
        <time>2022-10-29T05:04:09.000Z</time>
      </trkpt>
      <trkpt lat="47.20931" lon="3.00866">
        <ele>176.19999694824</ele>
        <time>2022-10-29T05:04:16.000Z</time>
      </trkpt>
      <trkpt lat="47.2099" lon="3.00845">
        <ele>175.60000610352</ele>
        <time>2022-10-29T05:04:24.000Z</time>
      </trkpt>
      <trkpt lat="47.21026" lon="3.00832">
        <ele>175.39999389648</ele>
        <time>2022-10-29T05:04:29.000Z</time>
      </trkpt>
      <trkpt lat="47.21084" lon="3.0081">
        <ele>174.80000305176</ele>
        <time>2022-10-29T05:04:37.000Z</time>
      </trkpt>
      <trkpt lat="47.211" lon="3.00804">
        <ele>174.60000610352</ele>
        <time>2022-10-29T05:04:39.000Z</time>
      </trkpt>
      <trkpt lat="47.21148" lon="3.00787">
        <ele>174.60000610352</ele>
        <time>2022-10-29T05:04:46.000Z</time>
      </trkpt>
      <trkpt lat="47.21169" lon="3.00779">
        <ele>174.39999389648</ele>
        <time>2022-10-29T05:04:49.000Z</time>
      </trkpt>
      <trkpt lat="47.21219" lon="3.0076">
        <ele>174.19999694824</ele>
        <time>2022-10-29T05:04:56.000Z</time>
      </trkpt>
      <trkpt lat="47.21275" lon="3.00742">
        <ele>174.19999694824</ele>
        <time>2022-10-29T05:05:04.000Z</time>
      </trkpt>
      <trkpt lat="47.2129" lon="3.00739">
        <ele>174.19999694824</ele>
        <time>2022-10-29T05:05:06.000Z</time>
      </trkpt>
      <trkpt lat="47.21346" lon="3.00724">
        <ele>174</ele>
        <time>2022-10-29T05:05:14.000Z</time>
      </trkpt>
      <trkpt lat="47.21362" lon="3.00719">
        <ele>174</ele>
        <time>2022-10-29T05:05:16.000Z</time>
      </trkpt>
      <trkpt lat="47.21417" lon="3.007">
        <ele>173.80000305176</ele>
        <time>2022-10-29T05:05:24.000Z</time>
      </trkpt>
      <trkpt lat="47.21436" lon="3.00694">
        <ele>174</ele>
        <time>2022-10-29T05:05:27.000Z</time>
      </trkpt>
      <trkpt lat="47.21492" lon="3.00674">
        <ele>174</ele>
        <time>2022-10-29T05:05:35.000Z</time>
      </trkpt>
      <trkpt lat="47.21498" lon="3.00671">
        <ele>174</ele>
        <time>2022-10-29T05:05:36.000Z</time>
      </trkpt>
      <trkpt lat="47.21552" lon="3.00651">
        <ele>174</ele>
        <time>2022-10-29T05:05:44.000Z</time>
      </trkpt>
      <trkpt lat="47.21611" lon="3.0063">
        <ele>174.19999694824</ele>
        <time>2022-10-29T05:05:53.000Z</time>
      </trkpt>
      <trkpt lat="47.21666" lon="3.0061">
        <ele>174.19999694824</ele>
        <time>2022-10-29T05:06:01.000Z</time>
      </trkpt>
      <trkpt lat="47.21686" lon="3.00602">
        <ele>174.19999694824</ele>
        <time>2022-10-29T05:06:04.000Z</time>
      </trkpt>
      <trkpt lat="47.21718" lon="3.00592">
        <ele>174.19999694824</ele>
        <time>2022-10-29T05:06:09.000Z</time>
      </trkpt>
      <trkpt lat="47.21731" lon="3.00591">
        <ele>174.19999694824</ele>
        <time>2022-10-29T05:06:11.000Z</time>
      </trkpt>
      <trkpt lat="47.2177" lon="3.00596">
        <ele>174.39999389648</ele>
        <time>2022-10-29T05:06:17.000Z</time>
      </trkpt>
      <trkpt lat="47.21783" lon="3.006">
        <ele>174.60000610352</ele>
        <time>2022-10-29T05:06:19.000Z</time>
      </trkpt>
      <trkpt lat="47.21808" lon="3.00608">
        <ele>175</ele>
        <time>2022-10-29T05:06:23.000Z</time>
      </trkpt>
      <trkpt lat="47.21831" lon="3.00618">
        <ele>175.39999389648</ele>
        <time>2022-10-29T05:06:27.000Z</time>
      </trkpt>
      <trkpt lat="47.21842" lon="3.00622">
        <ele>175.60000610352</ele>
        <time>2022-10-29T05:06:29.000Z</time>
      </trkpt>
      <trkpt lat="47.21848" lon="3.00624">
        <ele>175.80000305176</ele>
        <time>2022-10-29T05:06:30.000Z</time>
      </trkpt>
      <trkpt lat="47.21889" lon="3.00637">
        <ele>176.60000610352</ele>
        <time>2022-10-29T05:06:37.000Z</time>
      </trkpt>
      <trkpt lat="47.21901" lon="3.0064">
        <ele>176.80000305176</ele>
        <time>2022-10-29T05:06:39.000Z</time>
      </trkpt>
      <trkpt lat="47.21919" lon="3.00644">
        <ele>177.19999694824</ele>
        <time>2022-10-29T05:06:42.000Z</time>
      </trkpt>
      <trkpt lat="47.21925" lon="3.00644">
        <ele>177.19999694824</ele>
        <time>2022-10-29T05:06:43.000Z</time>
      </trkpt>
      <trkpt lat="47.21952" lon="3.0064">
        <ele>177.39999389648</ele>
        <time>2022-10-29T05:06:48.000Z</time>
      </trkpt>
      <trkpt lat="47.21986" lon="3.00632">
        <ele>177.60000610352</ele>
        <time>2022-10-29T05:06:53.000Z</time>
      </trkpt>
      <trkpt lat="47.22028" lon="3.00606">
        <ele>177.39999389648</ele>
        <time>2022-10-29T05:07:00.000Z</time>
      </trkpt>
      <trkpt lat="47.22068" lon="3.00568">
        <ele>176.80000305176</ele>
        <time>2022-10-29T05:07:06.000Z</time>
      </trkpt>
      <trkpt lat="47.22106" lon="3.00516">
        <ele>176.19999694824</ele>
        <time>2022-10-29T05:07:13.000Z</time>
      </trkpt>
      <trkpt lat="47.22117" lon="3.005">
        <ele>175.80000305176</ele>
        <time>2022-10-29T05:07:15.000Z</time>
      </trkpt>
      <trkpt lat="47.22146" lon="3.00462">
        <ele>174.80000305176</ele>
        <time>2022-10-29T05:07:20.000Z</time>
      </trkpt>
      <trkpt lat="47.22152" lon="3.00455">
        <ele>174.60000610352</ele>
        <time>2022-10-29T05:07:21.000Z</time>
      </trkpt>
      <trkpt lat="47.22189" lon="3.0042">
        <ele>174</ele>
        <time>2022-10-29T05:07:27.000Z</time>
      </trkpt>
      <trkpt lat="47.22217" lon="3.00405">
        <ele>173.60000610352</ele>
        <time>2022-10-29T05:07:31.000Z</time>
      </trkpt>
      <trkpt lat="47.22229" lon="3.004">
        <ele>173.39999389648</ele>
        <time>2022-10-29T05:07:33.000Z</time>
      </trkpt>
      <trkpt lat="47.22264" lon="3.00388">
        <ele>173.39999389648</ele>
        <time>2022-10-29T05:07:38.000Z</time>
      </trkpt>
      <trkpt lat="47.22276" lon="3.00384">
        <ele>173.39999389648</ele>
        <time>2022-10-29T05:07:40.000Z</time>
      </trkpt>
      <trkpt lat="47.22325" lon="3.00365">
        <ele>173.19999694824</ele>
        <time>2022-10-29T05:07:47.000Z</time>
      </trkpt>
      <trkpt lat="47.2238" lon="3.00354">
        <ele>173.39999389648</ele>
        <time>2022-10-29T05:07:55.000Z</time>
      </trkpt>
      <trkpt lat="47.22428" lon="3.00356">
        <ele>173.39999389648</ele>
        <time>2022-10-29T05:08:02.000Z</time>
      </trkpt>
      <trkpt lat="47.22488" lon="3.00362">
        <ele>173.80000305176</ele>
        <time>2022-10-29T05:08:11.000Z</time>
      </trkpt>
      <trkpt lat="47.22506" lon="3.0036">
        <ele>173.80000305176</ele>
        <time>2022-10-29T05:08:14.000Z</time>
      </trkpt>
      <trkpt lat="47.22553" lon="3.00347">
        <ele>173.80000305176</ele>
        <time>2022-10-29T05:08:21.000Z</time>
      </trkpt>
      <trkpt lat="47.226" lon="3.00329">
        <ele>174</ele>
        <time>2022-10-29T05:08:28.000Z</time>
      </trkpt>
      <trkpt lat="47.22631" lon="3.00315">
        <ele>174.39999389648</ele>
        <time>2022-10-29T05:08:33.000Z</time>
      </trkpt>
      <trkpt lat="47.22639" lon="3.00312">
        <ele>174.60000610352</ele>
        <time>2022-10-29T05:08:34.000Z</time>
      </trkpt>
      <trkpt lat="47.22645" lon="3.00309">
        <ele>174.60000610352</ele>
        <time>2022-10-29T05:08:35.000Z</time>
      </trkpt>
      <trkpt lat="47.22671" lon="3.003">
        <ele>175.19999694824</ele>
        <time>2022-10-29T05:08:39.000Z</time>
      </trkpt>
      <trkpt lat="47.22683" lon="3.00294">
        <ele>175.39999389648</ele>
        <time>2022-10-29T05:08:41.000Z</time>
      </trkpt>
      <trkpt lat="47.22697" lon="3.00289">
        <ele>175.60000610352</ele>
        <time>2022-10-29T05:08:43.000Z</time>
      </trkpt>
      <trkpt lat="47.22708" lon="3.00286">
        <ele>175.80000305176</ele>
        <time>2022-10-29T05:08:45.000Z</time>
      </trkpt>
      <trkpt lat="47.2272" lon="3.00281">
        <ele>176</ele>
        <time>2022-10-29T05:08:47.000Z</time>
      </trkpt>
      <trkpt lat="47.22747" lon="3.00273">
        <ele>176.80000305176</ele>
        <time>2022-10-29T05:08:52.000Z</time>
      </trkpt>
      <trkpt lat="47.22753" lon="3.00272">
        <ele>177</ele>
        <time>2022-10-29T05:08:53.000Z</time>
      </trkpt>
      <trkpt lat="47.22764" lon="3.0027">
        <ele>177.19999694824</ele>
        <time>2022-10-29T05:08:55.000Z</time>
      </trkpt>
      <trkpt lat="47.22792" lon="3.00263">
        <ele>177.80000305176</ele>
        <time>2022-10-29T05:09:00.000Z</time>
      </trkpt>
      <trkpt lat="47.22809" lon="3.0026">
        <ele>178.19999694824</ele>
        <time>2022-10-29T05:09:03.000Z</time>
      </trkpt>
      <trkpt lat="47.22845" lon="3.00256">
        <ele>178.80000305176</ele>
        <time>2022-10-29T05:09:09.000Z</time>
      </trkpt>
      <trkpt lat="47.22855" lon="3.00255">
        <ele>179.19999694824</ele>
        <time>2022-10-29T05:09:11.000Z</time>
      </trkpt>
      <trkpt lat="47.22898" lon="3.00256">
        <ele>180</ele>
        <time>2022-10-29T05:09:18.000Z</time>
      </trkpt>
      <trkpt lat="47.22946" lon="3.0026">
        <ele>181</ele>
        <time>2022-10-29T05:09:26.000Z</time>
      </trkpt>
      <trkpt lat="47.22951" lon="3.00262">
        <ele>181</ele>
        <time>2022-10-29T05:09:27.000Z</time>
      </trkpt>
      <trkpt lat="47.22986" lon="3.00271">
        <ele>181.80000305176</ele>
        <time>2022-10-29T05:09:33.000Z</time>
      </trkpt>
      <trkpt lat="47.22991" lon="3.00274">
        <ele>182.19999694824</ele>
        <time>2022-10-29T05:09:34.000Z</time>
      </trkpt>
      <trkpt lat="47.23024" lon="3.00284">
        <ele>183.39999389648</ele>
        <time>2022-10-29T05:09:40.000Z</time>
      </trkpt>
      <trkpt lat="47.23031" lon="3.00287">
        <ele>183.60000610352</ele>
        <time>2022-10-29T05:09:41.000Z</time>
      </trkpt>
      <trkpt lat="47.23036" lon="3.00289">
        <ele>183.80000305176</ele>
        <time>2022-10-29T05:09:42.000Z</time>
      </trkpt>
      <trkpt lat="47.23063" lon="3.00301">
        <ele>184.19999694824</ele>
        <time>2022-10-29T05:09:48.000Z</time>
      </trkpt>
      <trkpt lat="47.23075" lon="3.00307">
        <ele>184.60000610352</ele>
        <time>2022-10-29T05:09:51.000Z</time>
      </trkpt>
      <trkpt lat="47.23093" lon="3.00318">
        <ele>185.39999389648</ele>
        <time>2022-10-29T05:09:55.000Z</time>
      </trkpt>
      <trkpt lat="47.23108" lon="3.00325">
        <ele>185.60000610352</ele>
        <time>2022-10-29T05:09:58.000Z</time>
      </trkpt>
      <trkpt lat="47.23118" lon="3.0033">
        <ele>185.80000305176</ele>
        <time>2022-10-29T05:10:00.000Z</time>
      </trkpt>
      <trkpt lat="47.23126" lon="3.00331">
        <ele>186</ele>
        <time>2022-10-29T05:10:02.000Z</time>
      </trkpt>
      <trkpt lat="47.23131" lon="3.00331">
        <ele>186</ele>
        <time>2022-10-29T05:10:03.000Z</time>
      </trkpt>
      <trkpt lat="47.23148" lon="3.00331">
        <ele>186.19999694824</ele>
        <time>2022-10-29T05:10:06.000Z</time>
      </trkpt>
      <trkpt lat="47.23163" lon="3.0033">
        <ele>186.39999389648</ele>
        <time>2022-10-29T05:10:09.000Z</time>
      </trkpt>
      <trkpt lat="47.2318" lon="3.0033">
        <ele>186.80000305176</ele>
        <time>2022-10-29T05:10:12.000Z</time>
      </trkpt>
      <trkpt lat="47.2319" lon="3.00327">
        <ele>187</ele>
        <time>2022-10-29T05:10:14.000Z</time>
      </trkpt>
      <trkpt lat="47.232" lon="3.00315">
        <ele>187.19999694824</ele>
        <time>2022-10-29T05:10:16.000Z</time>
      </trkpt>
      <trkpt lat="47.23203" lon="3.00307">
        <ele>187.39999389648</ele>
        <time>2022-10-29T05:10:17.000Z</time>
      </trkpt>
      <trkpt lat="47.23206" lon="3.00298">
        <ele>187.39999389648</ele>
        <time>2022-10-29T05:10:18.000Z</time>
      </trkpt>
      <trkpt lat="47.23207" lon="3.0029">
        <ele>187.60000610352</ele>
        <time>2022-10-29T05:10:19.000Z</time>
      </trkpt>
      <trkpt lat="47.23207" lon="3.00283">
        <ele>187.60000610352</ele>
        <time>2022-10-29T05:10:20.000Z</time>
      </trkpt>
      <trkpt lat="47.23203" lon="3.00267">
        <ele>187.80000305176</ele>
        <time>2022-10-29T05:10:22.000Z</time>
      </trkpt>
      <trkpt lat="47.23204" lon="3.00249">
        <ele>188</ele>
        <time>2022-10-29T05:10:24.000Z</time>
      </trkpt>
      <trkpt lat="47.23205" lon="3.00243">
        <ele>188</ele>
        <time>2022-10-29T05:10:25.000Z</time>
      </trkpt>
      <trkpt lat="47.23212" lon="3.00205">
        <ele>188.39999389648</ele>
        <time>2022-10-29T05:10:30.000Z</time>
      </trkpt>
      <trkpt lat="47.23217" lon="3.0018">
        <ele>188.39999389648</ele>
        <time>2022-10-29T05:10:33.000Z</time>
      </trkpt>
      <trkpt lat="47.23225" lon="3.00127">
        <ele>188.39999389648</ele>
        <time>2022-10-29T05:10:39.000Z</time>
      </trkpt>
      <trkpt lat="47.23235" lon="3.00067">
        <ele>187.80000305176</ele>
        <time>2022-10-29T05:10:45.000Z</time>
      </trkpt>
      <trkpt lat="47.23243" lon="3.00017">
        <ele>187</ele>
        <time>2022-10-29T05:10:50.000Z</time>
      </trkpt>
      <trkpt lat="47.23246" lon="3.00007">
        <ele>186.80000305176</ele>
        <time>2022-10-29T05:10:51.000Z</time>
      </trkpt>
      <trkpt lat="47.2325" lon="2.99999">
        <ele>186.80000305176</ele>
        <time>2022-10-29T05:10:52.000Z</time>
      </trkpt>
      <trkpt lat="47.23262" lon="2.9999">
        <ele>186.39999389648</ele>
        <time>2022-10-29T05:10:54.000Z</time>
      </trkpt>
      <trkpt lat="47.23302" lon="2.99979">
        <ele>186.39999389648</ele>
        <time>2022-10-29T05:11:00.000Z</time>
      </trkpt>
      <trkpt lat="47.23352" lon="2.99962">
        <ele>186.80000305176</ele>
        <time>2022-10-29T05:11:08.000Z</time>
      </trkpt>
      <trkpt lat="47.23409" lon="2.99943">
        <ele>187.39999389648</ele>
        <time>2022-10-29T05:11:17.000Z</time>
      </trkpt>
      <trkpt lat="47.23428" lon="2.99937">
        <ele>187.39999389648</ele>
        <time>2022-10-29T05:11:20.000Z</time>
      </trkpt>
      <trkpt lat="47.23479" lon="2.99918">
        <ele>187.60000610352</ele>
        <time>2022-10-29T05:11:28.000Z</time>
      </trkpt>
      <trkpt lat="47.23493" lon="2.99913">
        <ele>187.60000610352</ele>
        <time>2022-10-29T05:11:30.000Z</time>
      </trkpt>
      <trkpt lat="47.23537" lon="2.99897">
        <ele>187.80000305176</ele>
        <time>2022-10-29T05:11:37.000Z</time>
      </trkpt>
      <trkpt lat="47.23589" lon="2.99874">
        <ele>187.60000610352</ele>
        <time>2022-10-29T05:11:45.000Z</time>
      </trkpt>
      <trkpt lat="47.23604" lon="2.99866">
        <ele>187.60000610352</ele>
        <time>2022-10-29T05:11:47.000Z</time>
      </trkpt>
      <trkpt lat="47.23655" lon="2.99833">
        <ele>187.19999694824</ele>
        <time>2022-10-29T05:11:55.000Z</time>
      </trkpt>
      <trkpt lat="47.23694" lon="2.99801">
        <ele>186.60000610352</ele>
        <time>2022-10-29T05:12:01.000Z</time>
      </trkpt>
      <trkpt lat="47.23701" lon="2.99796">
        <ele>186.60000610352</ele>
        <time>2022-10-29T05:12:02.000Z</time>
      </trkpt>
      <trkpt lat="47.23742" lon="2.9976">
        <ele>185.80000305176</ele>
        <time>2022-10-29T05:12:09.000Z</time>
      </trkpt>
      <trkpt lat="47.23791" lon="2.99719">
        <ele>185.80000305176</ele>
        <time>2022-10-29T05:12:17.000Z</time>
      </trkpt>
      <trkpt lat="47.23796" lon="2.99716">
        <ele>185.80000305176</ele>
        <time>2022-10-29T05:12:18.000Z</time>
      </trkpt>
      <trkpt lat="47.23835" lon="2.99683">
        <ele>186</ele>
        <time>2022-10-29T05:12:25.000Z</time>
      </trkpt>
      <trkpt lat="47.23885" lon="2.99641">
        <ele>186.60000610352</ele>
        <time>2022-10-29T05:12:34.000Z</time>
      </trkpt>
      <trkpt lat="47.23896" lon="2.99633">
        <ele>186.60000610352</ele>
        <time>2022-10-29T05:12:36.000Z</time>
      </trkpt>
      <trkpt lat="47.23946" lon="2.9959">
        <ele>186.60000610352</ele>
        <time>2022-10-29T05:12:45.000Z</time>
      </trkpt>
      <trkpt lat="47.23952" lon="2.99585">
        <ele>186.60000610352</ele>
        <time>2022-10-29T05:12:46.000Z</time>
      </trkpt>
      <trkpt lat="47.24" lon="2.99544">
        <ele>186.19999694824</ele>
        <time>2022-10-29T05:12:54.000Z</time>
      </trkpt>
      <trkpt lat="47.24014" lon="2.99533">
        <ele>185.80000305176</ele>
        <time>2022-10-29T05:12:56.000Z</time>
      </trkpt>
      <trkpt lat="47.24025" lon="2.99524">
        <ele>185.60000610352</ele>
        <time>2022-10-29T05:12:58.000Z</time>
      </trkpt>
      <trkpt lat="47.2405" lon="2.99501">
        <ele>184.39999389648</ele>
        <time>2022-10-29T05:13:02.000Z</time>
      </trkpt>
      <trkpt lat="47.24057" lon="2.99496">
        <ele>184.39999389648</ele>
        <time>2022-10-29T05:13:03.000Z</time>
      </trkpt>
      <trkpt lat="47.24082" lon="2.99474">
        <ele>183.19999694824</ele>
        <time>2022-10-29T05:13:07.000Z</time>
      </trkpt>
      <trkpt lat="47.24108" lon="2.99452">
        <ele>182.19999694824</ele>
        <time>2022-10-29T05:13:11.000Z</time>
      </trkpt>
      <trkpt lat="47.24115" lon="2.99447">
        <ele>182</ele>
        <time>2022-10-29T05:13:12.000Z</time>
      </trkpt>
      <trkpt lat="47.2415" lon="2.99418">
        <ele>181</ele>
        <time>2022-10-29T05:13:17.000Z</time>
      </trkpt>
      <trkpt lat="47.24156" lon="2.99414">
        <ele>180.80000305176</ele>
        <time>2022-10-29T05:13:18.000Z</time>
      </trkpt>
      <trkpt lat="47.2418" lon="2.994">
        <ele>179.80000305176</ele>
        <time>2022-10-29T05:13:21.000Z</time>
      </trkpt>
      <trkpt lat="47.242" lon="2.99394">
        <ele>179.19999694824</ele>
        <time>2022-10-29T05:13:24.000Z</time>
      </trkpt>
      <trkpt lat="47.24209" lon="2.99392">
        <ele>179</ele>
        <time>2022-10-29T05:13:25.000Z</time>
      </trkpt>
      <trkpt lat="47.24215" lon="2.99392">
        <ele>178.80000305176</ele>
        <time>2022-10-29T05:13:26.000Z</time>
      </trkpt>
      <trkpt lat="47.24236" lon="2.99389">
        <ele>178</ele>
        <time>2022-10-29T05:13:29.000Z</time>
      </trkpt>
      <trkpt lat="47.24251" lon="2.99388">
        <ele>177.39999389648</ele>
        <time>2022-10-29T05:13:31.000Z</time>
      </trkpt>
      <trkpt lat="47.24274" lon="2.99387">
        <ele>176.19999694824</ele>
        <time>2022-10-29T05:13:34.000Z</time>
      </trkpt>
      <trkpt lat="47.24281" lon="2.99387">
        <ele>176.19999694824</ele>
        <time>2022-10-29T05:13:35.000Z</time>
      </trkpt>
      <trkpt lat="47.24303" lon="2.99386">
        <ele>175</ele>
        <time>2022-10-29T05:13:38.000Z</time>
      </trkpt>
      <trkpt lat="47.2434" lon="2.99383">
        <ele>174</ele>
        <time>2022-10-29T05:13:43.000Z</time>
      </trkpt>
      <trkpt lat="47.24369" lon="2.99381">
        <ele>173.39999389648</ele>
        <time>2022-10-29T05:13:47.000Z</time>
      </trkpt>
      <trkpt lat="47.24401" lon="2.99378">
        <ele>172.80000305176</ele>
        <time>2022-10-29T05:13:51.000Z</time>
      </trkpt>
      <trkpt lat="47.24433" lon="2.99378">
        <ele>172.60000610352</ele>
        <time>2022-10-29T05:13:56.000Z</time>
      </trkpt>
      <trkpt lat="47.24462" lon="2.99375">
        <ele>173.39999389648</ele>
        <time>2022-10-29T05:14:01.000Z</time>
      </trkpt>
      <trkpt lat="47.24483" lon="2.9937">
        <ele>174.19999694824</ele>
        <time>2022-10-29T05:14:05.000Z</time>
      </trkpt>
      <trkpt lat="47.24492" lon="2.99367">
        <ele>174.80000305176</ele>
        <time>2022-10-29T05:14:07.000Z</time>
      </trkpt>
      <trkpt lat="47.24498" lon="2.99364">
        <ele>175.19999694824</ele>
        <time>2022-10-29T05:14:08.000Z</time>
      </trkpt>
      <trkpt lat="47.24519" lon="2.99352">
        <ele>176.39999389648</ele>
        <time>2022-10-29T05:14:13.000Z</time>
      </trkpt>
      <trkpt lat="47.24548" lon="2.99337">
        <ele>177.60000610352</ele>
        <time>2022-10-29T05:14:19.000Z</time>
      </trkpt>
      <trkpt lat="47.24566" lon="2.99325">
        <ele>178.60000610352</ele>
        <time>2022-10-29T05:14:23.000Z</time>
      </trkpt>
      <trkpt lat="47.24589" lon="2.99312">
        <ele>179.80000305176</ele>
        <time>2022-10-29T05:14:28.000Z</time>
      </trkpt>
      <trkpt lat="47.24602" lon="2.99306">
        <ele>180.39999389648</ele>
        <time>2022-10-29T05:14:31.000Z</time>
      </trkpt>
      <trkpt lat="47.24616" lon="2.99298">
        <ele>180.80000305176</ele>
        <time>2022-10-29T05:14:34.000Z</time>
      </trkpt>
      <trkpt lat="47.24639" lon="2.99286">
        <ele>182</ele>
        <time>2022-10-29T05:14:39.000Z</time>
      </trkpt>
      <trkpt lat="47.24649" lon="2.99283">
        <ele>182.39999389648</ele>
        <time>2022-10-29T05:14:41.000Z</time>
      </trkpt>
      <trkpt lat="47.24669" lon="2.99273">
        <ele>183</ele>
        <time>2022-10-29T05:14:45.000Z</time>
      </trkpt>
      <trkpt lat="47.24711" lon="2.99251">
        <ele>183.39999389648</ele>
        <time>2022-10-29T05:14:53.000Z</time>
      </trkpt>
      <trkpt lat="47.24751" lon="2.99232">
        <ele>182.80000305176</ele>
        <time>2022-10-29T05:15:00.000Z</time>
      </trkpt>
      <trkpt lat="47.24796" lon="2.9921">
        <ele>182</ele>
        <time>2022-10-29T05:15:07.000Z</time>
      </trkpt>
      <trkpt lat="47.2481" lon="2.99203">
        <ele>181.60000610352</ele>
        <time>2022-10-29T05:15:09.000Z</time>
      </trkpt>
      <trkpt lat="47.24838" lon="2.99188">
        <ele>181</ele>
        <time>2022-10-29T05:15:13.000Z</time>
      </trkpt>
      <trkpt lat="47.24875" lon="2.99167">
        <ele>180.80000305176</ele>
        <time>2022-10-29T05:15:19.000Z</time>
      </trkpt>
      <trkpt lat="47.2491" lon="2.99149">
        <ele>180.80000305176</ele>
        <time>2022-10-29T05:15:25.000Z</time>
      </trkpt>
      <trkpt lat="47.24962" lon="2.9912">
        <ele>181.19999694824</ele>
        <time>2022-10-29T05:15:33.000Z</time>
      </trkpt>
      <trkpt lat="47.24968" lon="2.99117">
        <ele>181.19999694824</ele>
        <time>2022-10-29T05:15:34.000Z</time>
      </trkpt>
      <trkpt lat="47.25012" lon="2.99092">
        <ele>182.19999694824</ele>
        <time>2022-10-29T05:15:42.000Z</time>
      </trkpt>
      <trkpt lat="47.25065" lon="2.99065">
        <ele>182.80000305176</ele>
        <time>2022-10-29T05:15:51.000Z</time>
      </trkpt>
      <trkpt lat="47.25071" lon="2.99061">
        <ele>182.39999389648</ele>
        <time>2022-10-29T05:15:52.000Z</time>
      </trkpt>
      <trkpt lat="47.25124" lon="2.99034">
        <ele>181.60000610352</ele>
        <time>2022-10-29T05:16:00.000Z</time>
      </trkpt>
      <trkpt lat="47.25163" lon="2.99013">
        <ele>180.80000305176</ele>
        <time>2022-10-29T05:16:05.000Z</time>
      </trkpt>
      <trkpt lat="47.25177" lon="2.99005">
        <ele>180.60000610352</ele>
        <time>2022-10-29T05:16:07.000Z</time>
      </trkpt>
      <trkpt lat="47.25207" lon="2.98988">
        <ele>179.60000610352</ele>
        <time>2022-10-29T05:16:11.000Z</time>
      </trkpt>
      <trkpt lat="47.25245" lon="2.98967">
        <ele>179</ele>
        <time>2022-10-29T05:16:16.000Z</time>
      </trkpt>
      <trkpt lat="47.253" lon="2.98937">
        <ele>178.80000305176</ele>
        <time>2022-10-29T05:16:24.000Z</time>
      </trkpt>
      <trkpt lat="47.25305" lon="2.98933">
        <ele>178.80000305176</ele>
        <time>2022-10-29T05:16:25.000Z</time>
      </trkpt>
      <trkpt lat="47.25348" lon="2.98911">
        <ele>178.60000610352</ele>
        <time>2022-10-29T05:16:31.000Z</time>
      </trkpt>
      <trkpt lat="47.25376" lon="2.98896">
        <ele>178.60000610352</ele>
        <time>2022-10-29T05:16:35.000Z</time>
      </trkpt>
      <trkpt lat="47.25431" lon="2.98865">
        <ele>178.60000610352</ele>
        <time>2022-10-29T05:16:43.000Z</time>
      </trkpt>
      <trkpt lat="47.25483" lon="2.98824">
        <ele>178.39999389648</ele>
        <time>2022-10-29T05:16:51.000Z</time>
      </trkpt>
      <trkpt lat="47.25503" lon="2.98809">
        <ele>178</ele>
        <time>2022-10-29T05:16:54.000Z</time>
      </trkpt>
      <trkpt lat="47.25532" lon="2.9879">
        <ele>177.60000610352</ele>
        <time>2022-10-29T05:16:58.000Z</time>
      </trkpt>
      <trkpt lat="47.25564" lon="2.98772">
        <ele>177</ele>
        <time>2022-10-29T05:17:02.000Z</time>
      </trkpt>
      <trkpt lat="47.25578" lon="2.98764">
        <ele>176.39999389648</ele>
        <time>2022-10-29T05:17:04.000Z</time>
      </trkpt>
      <trkpt lat="47.25623" lon="2.9874">
        <ele>175.39999389648</ele>
        <time>2022-10-29T05:17:10.000Z</time>
      </trkpt>
      <trkpt lat="47.25633" lon="2.98735">
        <ele>175.19999694824</ele>
        <time>2022-10-29T05:17:11.000Z</time>
      </trkpt>
      <trkpt lat="47.25671" lon="2.98714">
        <ele>174.19999694824</ele>
        <time>2022-10-29T05:17:16.000Z</time>
      </trkpt>
      <trkpt lat="47.25704" lon="2.98695">
        <ele>174</ele>
        <time>2022-10-29T05:17:21.000Z</time>
      </trkpt>
      <trkpt lat="47.25736" lon="2.98679">
        <ele>174</ele>
        <time>2022-10-29T05:17:26.000Z</time>
      </trkpt>
      <trkpt lat="47.25775" lon="2.98659">
        <ele>174.19999694824</ele>
        <time>2022-10-29T05:17:32.000Z</time>
      </trkpt>
      <trkpt lat="47.25826" lon="2.98632">
        <ele>174.19999694824</ele>
        <time>2022-10-29T05:17:40.000Z</time>
      </trkpt>
      <trkpt lat="47.25833" lon="2.98628">
        <ele>174.39999389648</ele>
        <time>2022-10-29T05:17:41.000Z</time>
      </trkpt>
      <trkpt lat="47.25887" lon="2.98597">
        <ele>174.19999694824</ele>
        <time>2022-10-29T05:17:49.000Z</time>
      </trkpt>
      <trkpt lat="47.25894" lon="2.98592">
        <ele>174.19999694824</ele>
        <time>2022-10-29T05:17:50.000Z</time>
      </trkpt>
      <trkpt lat="47.25944" lon="2.98552">
        <ele>173.80000305176</ele>
        <time>2022-10-29T05:17:58.000Z</time>
      </trkpt>
      <trkpt lat="47.2595" lon="2.98547">
        <ele>173.60000610352</ele>
        <time>2022-10-29T05:17:59.000Z</time>
      </trkpt>
      <trkpt lat="47.25974" lon="2.98526">
        <ele>173.39999389648</ele>
        <time>2022-10-29T05:18:03.000Z</time>
      </trkpt>
      <trkpt lat="47.26013" lon="2.98498">
        <ele>173.19999694824</ele>
        <time>2022-10-29T05:18:09.000Z</time>
      </trkpt>
      <trkpt lat="47.26064" lon="2.98469">
        <ele>173.19999694824</ele>
        <time>2022-10-29T05:18:17.000Z</time>
      </trkpt>
      <trkpt lat="47.2611" lon="2.98451">
        <ele>173</ele>
        <time>2022-10-29T05:18:24.000Z</time>
      </trkpt>
      <trkpt lat="47.26158" lon="2.98429">
        <ele>172.80000305176</ele>
        <time>2022-10-29T05:18:31.000Z</time>
      </trkpt>
      <trkpt lat="47.26213" lon="2.98396">
        <ele>172.80000305176</ele>
        <time>2022-10-29T05:18:39.000Z</time>
      </trkpt>
      <trkpt lat="47.26219" lon="2.98392">
        <ele>172.80000305176</ele>
        <time>2022-10-29T05:18:40.000Z</time>
      </trkpt>
      <trkpt lat="47.26231" lon="2.98384">
        <ele>172.60000610352</ele>
        <time>2022-10-29T05:18:42.000Z</time>
      </trkpt>
      <trkpt lat="47.2625" lon="2.98372">
        <ele>172.60000610352</ele>
        <time>2022-10-29T05:18:45.000Z</time>
      </trkpt>
      <trkpt lat="47.26291" lon="2.98342">
        <ele>172.39999389648</ele>
        <time>2022-10-29T05:18:51.000Z</time>
      </trkpt>
      <trkpt lat="47.26299" lon="2.98337">
        <ele>172.19999694824</ele>
        <time>2022-10-29T05:18:52.000Z</time>
      </trkpt>
      <trkpt lat="47.26347" lon="2.98294">
        <ele>171.80000305176</ele>
        <time>2022-10-29T05:18:59.000Z</time>
      </trkpt>
      <trkpt lat="47.26353" lon="2.98287">
        <ele>171.80000305176</ele>
        <time>2022-10-29T05:19:00.000Z</time>
      </trkpt>
      <trkpt lat="47.26396" lon="2.9824">
        <ele>171.39999389648</ele>
        <time>2022-10-29T05:19:07.000Z</time>
      </trkpt>
      <trkpt lat="47.26413" lon="2.98221">
        <ele>171.39999389648</ele>
        <time>2022-10-29T05:19:10.000Z</time>
      </trkpt>
      <trkpt lat="47.26425" lon="2.98208">
        <ele>171.19999694824</ele>
        <time>2022-10-29T05:19:12.000Z</time>
      </trkpt>
      <trkpt lat="47.26475" lon="2.98159">
        <ele>171</ele>
        <time>2022-10-29T05:19:20.000Z</time>
      </trkpt>
      <trkpt lat="47.26523" lon="2.98113">
        <ele>170.80000305176</ele>
        <time>2022-10-29T05:19:28.000Z</time>
      </trkpt>
      <trkpt lat="47.26528" lon="2.98109">
        <ele>170.80000305176</ele>
        <time>2022-10-29T05:19:29.000Z</time>
      </trkpt>
      <trkpt lat="47.26579" lon="2.98065">
        <ele>170.80000305176</ele>
        <time>2022-10-29T05:19:37.000Z</time>
      </trkpt>
      <trkpt lat="47.2659" lon="2.98056">
        <ele>170.80000305176</ele>
        <time>2022-10-29T05:19:39.000Z</time>
      </trkpt>
      <trkpt lat="47.26641" lon="2.98016">
        <ele>170.80000305176</ele>
        <time>2022-10-29T05:19:47.000Z</time>
      </trkpt>
      <trkpt lat="47.26687" lon="2.9797">
        <ele>170.80000305176</ele>
        <time>2022-10-29T05:19:55.000Z</time>
      </trkpt>
      <trkpt lat="47.26693" lon="2.97964">
        <ele>170.80000305176</ele>
        <time>2022-10-29T05:19:56.000Z</time>
      </trkpt>
      <trkpt lat="47.26739" lon="2.97926">
        <ele>171</ele>
        <time>2022-10-29T05:20:04.000Z</time>
      </trkpt>
      <trkpt lat="47.26792" lon="2.97891">
        <ele>170.80000305176</ele>
        <time>2022-10-29T05:20:13.000Z</time>
      </trkpt>
      <trkpt lat="47.26844" lon="2.97865">
        <ele>171</ele>
        <time>2022-10-29T05:20:21.000Z</time>
      </trkpt>
      <trkpt lat="47.26857" lon="2.97861">
        <ele>171</ele>
        <time>2022-10-29T05:20:23.000Z</time>
      </trkpt>
      <trkpt lat="47.26907" lon="2.97845">
        <ele>171</ele>
        <time>2022-10-29T05:20:31.000Z</time>
      </trkpt>
      <trkpt lat="47.26957" lon="2.97822">
        <ele>170.80000305176</ele>
        <time>2022-10-29T05:20:39.000Z</time>
      </trkpt>
      <trkpt lat="47.27012" lon="2.97789">
        <ele>171</ele>
        <time>2022-10-29T05:20:48.000Z</time>
      </trkpt>
      <trkpt lat="47.27064" lon="2.97746">
        <ele>171.19999694824</ele>
        <time>2022-10-29T05:20:57.000Z</time>
      </trkpt>
      <trkpt lat="47.27069" lon="2.9774">
        <ele>171.19999694824</ele>
        <time>2022-10-29T05:20:58.000Z</time>
      </trkpt>
      <trkpt lat="47.27101" lon="2.97708">
        <ele>171</ele>
        <time>2022-10-29T05:21:04.000Z</time>
      </trkpt>
      <trkpt lat="47.27147" lon="2.97651">
        <ele>171</ele>
        <time>2022-10-29T05:21:13.000Z</time>
      </trkpt>
      <trkpt lat="47.27177" lon="2.97603">
        <ele>171.19999694824</ele>
        <time>2022-10-29T05:21:20.000Z</time>
      </trkpt>
      <trkpt lat="47.2721" lon="2.97544">
        <ele>171.39999389648</ele>
        <time>2022-10-29T05:21:28.000Z</time>
      </trkpt>
      <trkpt lat="47.2724" lon="2.97489">
        <ele>171.80000305176</ele>
        <time>2022-10-29T05:21:36.000Z</time>
      </trkpt>
      <trkpt lat="47.27261" lon="2.9745">
        <ele>172.19999694824</ele>
        <time>2022-10-29T05:21:42.000Z</time>
      </trkpt>
      <trkpt lat="47.27265" lon="2.97444">
        <ele>172.39999389648</ele>
        <time>2022-10-29T05:21:43.000Z</time>
      </trkpt>
      <trkpt lat="47.27272" lon="2.97432">
        <ele>172.60000610352</ele>
        <time>2022-10-29T05:21:45.000Z</time>
      </trkpt>
      <trkpt lat="47.27286" lon="2.97405">
        <ele>173</ele>
        <time>2022-10-29T05:21:49.000Z</time>
      </trkpt>
      <trkpt lat="47.27297" lon="2.97386">
        <ele>173.60000610352</ele>
        <time>2022-10-29T05:21:52.000Z</time>
      </trkpt>
      <trkpt lat="47.27301" lon="2.9738">
        <ele>173.60000610352</ele>
        <time>2022-10-29T05:21:53.000Z</time>
      </trkpt>
      <trkpt lat="47.27308" lon="2.97367">
        <ele>174</ele>
        <time>2022-10-29T05:21:55.000Z</time>
      </trkpt>
      <trkpt lat="47.27316" lon="2.9735">
        <ele>174.19999694824</ele>
        <time>2022-10-29T05:21:58.000Z</time>
      </trkpt>
      <trkpt lat="47.27322" lon="2.97339">
        <ele>174.39999389648</ele>
        <time>2022-10-29T05:22:00.000Z</time>
      </trkpt>
      <trkpt lat="47.27338" lon="2.97307">
        <ele>174.60000610352</ele>
        <time>2022-10-29T05:22:05.000Z</time>
      </trkpt>
      <trkpt lat="47.27359" lon="2.97272">
        <ele>175.39999389648</ele>
        <time>2022-10-29T05:22:11.000Z</time>
      </trkpt>
      <trkpt lat="47.27368" lon="2.97253">
        <ele>175.80000305176</ele>
        <time>2022-10-29T05:22:14.000Z</time>
      </trkpt>
      <trkpt lat="47.27376" lon="2.9724">
        <ele>176</ele>
        <time>2022-10-29T05:22:16.000Z</time>
      </trkpt>
      <trkpt lat="47.27401" lon="2.972">
        <ele>176.60000610352</ele>
        <time>2022-10-29T05:22:21.000Z</time>
      </trkpt>
      <trkpt lat="47.27415" lon="2.97177">
        <ele>177</ele>
        <time>2022-10-29T05:22:24.000Z</time>
      </trkpt>
      <trkpt lat="47.27431" lon="2.97148">
        <ele>177.60000610352</ele>
        <time>2022-10-29T05:22:28.000Z</time>
      </trkpt>
      <trkpt lat="47.27446" lon="2.9712">
        <ele>178</ele>
        <time>2022-10-29T05:22:32.000Z</time>
      </trkpt>
      <trkpt lat="47.27463" lon="2.97087">
        <ele>178.39999389648</ele>
        <time>2022-10-29T05:22:37.000Z</time>
      </trkpt>
      <trkpt lat="47.27481" lon="2.97054">
        <ele>179</ele>
        <time>2022-10-29T05:22:43.000Z</time>
      </trkpt>
      <trkpt lat="47.27498" lon="2.97021">
        <ele>179.39999389648</ele>
        <time>2022-10-29T05:22:48.000Z</time>
      </trkpt>
      <trkpt lat="47.27502" lon="2.97013">
        <ele>179.60000610352</ele>
        <time>2022-10-29T05:22:49.000Z</time>
      </trkpt>
      <trkpt lat="47.27511" lon="2.96996">
        <ele>180</ele>
        <time>2022-10-29T05:22:52.000Z</time>
      </trkpt>
      <trkpt lat="47.27514" lon="2.96991">
        <ele>180.19999694824</ele>
        <time>2022-10-29T05:22:53.000Z</time>
      </trkpt>
      <trkpt lat="47.27542" lon="2.96943">
        <ele>181.19999694824</ele>
        <time>2022-10-29T05:23:01.000Z</time>
      </trkpt>
      <trkpt lat="47.27545" lon="2.96937">
        <ele>181.39999389648</ele>
        <time>2022-10-29T05:23:02.000Z</time>
      </trkpt>
      <trkpt lat="47.27561" lon="2.96908">
        <ele>182.19999694824</ele>
        <time>2022-10-29T05:23:07.000Z</time>
      </trkpt>
      <trkpt lat="47.27565" lon="2.96901">
        <ele>182.39999389648</ele>
        <time>2022-10-29T05:23:08.000Z</time>
      </trkpt>
      <trkpt lat="47.27574" lon="2.96888">
        <ele>182.60000610352</ele>
        <time>2022-10-29T05:23:10.000Z</time>
      </trkpt>
      <trkpt lat="47.27582" lon="2.96875">
        <ele>183.19999694824</ele>
        <time>2022-10-29T05:23:12.000Z</time>
      </trkpt>
      <trkpt lat="47.27589" lon="2.96862">
        <ele>183.60000610352</ele>
        <time>2022-10-29T05:23:14.000Z</time>
      </trkpt>
      <trkpt lat="47.27601" lon="2.96839">
        <ele>184.80000305176</ele>
        <time>2022-10-29T05:23:18.000Z</time>
      </trkpt>
      <trkpt lat="47.27625" lon="2.96801">
        <ele>186</ele>
        <time>2022-10-29T05:23:24.000Z</time>
      </trkpt>
      <trkpt lat="47.27641" lon="2.96771">
        <ele>186.60000610352</ele>
        <time>2022-10-29T05:23:29.000Z</time>
      </trkpt>
      <trkpt lat="47.2765" lon="2.96752">
        <ele>187</ele>
        <time>2022-10-29T05:23:32.000Z</time>
      </trkpt>
      <trkpt lat="47.27657" lon="2.96741">
        <ele>187.39999389648</ele>
        <time>2022-10-29T05:23:34.000Z</time>
      </trkpt>
      <trkpt lat="47.27664" lon="2.9673">
        <ele>188</ele>
        <time>2022-10-29T05:23:36.000Z</time>
      </trkpt>
      <trkpt lat="47.27667" lon="2.96724">
        <ele>188.19999694824</ele>
        <time>2022-10-29T05:23:37.000Z</time>
      </trkpt>
      <trkpt lat="47.27678" lon="2.967">
        <ele>189</ele>
        <time>2022-10-29T05:23:41.000Z</time>
      </trkpt>
      <trkpt lat="47.27684" lon="2.96687">
        <ele>189.39999389648</ele>
        <time>2022-10-29T05:23:43.000Z</time>
      </trkpt>
      <trkpt lat="47.27704" lon="2.96652">
        <ele>189.60000610352</ele>
        <time>2022-10-29T05:23:48.000Z</time>
      </trkpt>
      <trkpt lat="47.27737" lon="2.96594">
        <ele>189.60000610352</ele>
        <time>2022-10-29T05:23:56.000Z</time>
      </trkpt>
      <trkpt lat="47.27745" lon="2.9658">
        <ele>189.19999694824</ele>
        <time>2022-10-29T05:23:58.000Z</time>
      </trkpt>
      <trkpt lat="47.27762" lon="2.96551">
        <ele>189</ele>
        <time>2022-10-29T05:24:02.000Z</time>
      </trkpt>
      <trkpt lat="47.27789" lon="2.96504">
        <ele>188.19999694824</ele>
        <time>2022-10-29T05:24:08.000Z</time>
      </trkpt>
      <trkpt lat="47.27798" lon="2.96488">
        <ele>188</ele>
        <time>2022-10-29T05:24:10.000Z</time>
      </trkpt>
      <trkpt lat="47.2782" lon="2.96447">
        <ele>187</ele>
        <time>2022-10-29T05:24:15.000Z</time>
      </trkpt>
      <trkpt lat="47.27838" lon="2.96413">
        <ele>186.19999694824</ele>
        <time>2022-10-29T05:24:19.000Z</time>
      </trkpt>
      <trkpt lat="47.27844" lon="2.96403">
        <ele>185.80000305176</ele>
        <time>2022-10-29T05:24:20.000Z</time>
      </trkpt>
      <trkpt lat="47.27863" lon="2.96367">
        <ele>184.80000305176</ele>
        <time>2022-10-29T05:24:24.000Z</time>
      </trkpt>
      <trkpt lat="47.27878" lon="2.96338">
        <ele>183.80000305176</ele>
        <time>2022-10-29T05:24:27.000Z</time>
      </trkpt>
      <trkpt lat="47.27883" lon="2.96329">
        <ele>183.60000610352</ele>
        <time>2022-10-29T05:24:28.000Z</time>
      </trkpt>
      <trkpt lat="47.27909" lon="2.96283">
        <ele>182.60000610352</ele>
        <time>2022-10-29T05:24:33.000Z</time>
      </trkpt>
      <trkpt lat="47.27919" lon="2.96264">
        <ele>182</ele>
        <time>2022-10-29T05:24:35.000Z</time>
      </trkpt>
      <trkpt lat="47.2793" lon="2.96245">
        <ele>181.39999389648</ele>
        <time>2022-10-29T05:24:37.000Z</time>
      </trkpt>
      <trkpt lat="47.27962" lon="2.96188">
        <ele>180.39999389648</ele>
        <time>2022-10-29T05:24:43.000Z</time>
      </trkpt>
      <trkpt lat="47.27979" lon="2.96156">
        <ele>180.39999389648</ele>
        <time>2022-10-29T05:24:47.000Z</time>
      </trkpt>
      <trkpt lat="47.28004" lon="2.96111">
        <ele>180.80000305176</ele>
        <time>2022-10-29T05:24:53.000Z</time>
      </trkpt>
      <trkpt lat="47.28022" lon="2.96077">
        <ele>181.60000610352</ele>
        <time>2022-10-29T05:24:58.000Z</time>
      </trkpt>
      <trkpt lat="47.28026" lon="2.96071">
        <ele>181.80000305176</ele>
        <time>2022-10-29T05:24:59.000Z</time>
      </trkpt>
      <trkpt lat="47.28032" lon="2.96061">
        <ele>182.19999694824</ele>
        <time>2022-10-29T05:25:01.000Z</time>
      </trkpt>
      <trkpt lat="47.28039" lon="2.9605">
        <ele>182.60000610352</ele>
        <time>2022-10-29T05:25:03.000Z</time>
      </trkpt>
      <trkpt lat="47.28043" lon="2.96043">
        <ele>182.80000305176</ele>
        <time>2022-10-29T05:25:04.000Z</time>
      </trkpt>
      <trkpt lat="47.28069" lon="2.96005">
        <ele>183</ele>
        <time>2022-10-29T05:25:10.000Z</time>
      </trkpt>
      <trkpt lat="47.28083" lon="2.95982">
        <ele>182.60000610352</ele>
        <time>2022-10-29T05:25:13.000Z</time>
      </trkpt>
      <trkpt lat="47.28097" lon="2.9596">
        <ele>182.39999389648</ele>
        <time>2022-10-29T05:25:16.000Z</time>
      </trkpt>
      <trkpt lat="47.28112" lon="2.95938">
        <ele>181.19999694824</ele>
        <time>2022-10-29T05:25:19.000Z</time>
      </trkpt>
      <trkpt lat="47.28117" lon="2.95932">
        <ele>181</ele>
        <time>2022-10-29T05:25:20.000Z</time>
      </trkpt>
      <trkpt lat="47.28121" lon="2.95929">
        <ele>180.80000305176</ele>
        <time>2022-10-29T05:25:21.000Z</time>
      </trkpt>
      <trkpt lat="47.28127" lon="2.95927">
        <ele>180.80000305176</ele>
        <time>2022-10-29T05:25:22.000Z</time>
      </trkpt>
      <trkpt lat="47.28138" lon="2.95933">
        <ele>180.60000610352</ele>
        <time>2022-10-29T05:25:24.000Z</time>
      </trkpt>
      <trkpt lat="47.28147" lon="2.95954">
        <ele>180.80000305176</ele>
        <time>2022-10-29T05:25:27.000Z</time>
      </trkpt>
      <trkpt lat="47.28156" lon="2.95971">
        <ele>181</ele>
        <time>2022-10-29T05:25:30.000Z</time>
      </trkpt>
      <trkpt lat="47.28162" lon="2.95983">
        <ele>181.19999694824</ele>
        <time>2022-10-29T05:25:32.000Z</time>
      </trkpt>
      <trkpt lat="47.28165" lon="2.95989">
        <ele>181.19999694824</ele>
        <time>2022-10-29T05:25:33.000Z</time>
      </trkpt>
      <trkpt lat="47.28171" lon="2.96002">
        <ele>181.60000610352</ele>
        <time>2022-10-29T05:25:35.000Z</time>
      </trkpt>
      <trkpt lat="47.28176" lon="2.96013">
        <ele>182</ele>
        <time>2022-10-29T05:25:37.000Z</time>
      </trkpt>
      <trkpt lat="47.28194" lon="2.96038">
        <ele>182.60000610352</ele>
        <time>2022-10-29T05:25:42.000Z</time>
      </trkpt>
      <trkpt lat="47.2822" lon="2.96066">
        <ele>183.80000305176</ele>
        <time>2022-10-29T05:25:49.000Z</time>
      </trkpt>
      <trkpt lat="47.28227" lon="2.96074">
        <ele>184</ele>
        <time>2022-10-29T05:25:51.000Z</time>
      </trkpt>
      <trkpt lat="47.28236" lon="2.96083">
        <ele>184.19999694824</ele>
        <time>2022-10-29T05:25:53.000Z</time>
      </trkpt>
      <trkpt lat="47.28254" lon="2.96104">
        <ele>184.80000305176</ele>
        <time>2022-10-29T05:25:58.000Z</time>
      </trkpt>
      <trkpt lat="47.28258" lon="2.96108">
        <ele>185</ele>
        <time>2022-10-29T05:25:59.000Z</time>
      </trkpt>
      <trkpt lat="47.2828" lon="2.96131">
        <ele>185.60000610352</ele>
        <time>2022-10-29T05:26:05.000Z</time>
      </trkpt>
      <trkpt lat="47.28288" lon="2.96139">
        <ele>186</ele>
        <time>2022-10-29T05:26:07.000Z</time>
      </trkpt>
      <trkpt lat="47.28317" lon="2.96171">
        <ele>186.80000305176</ele>
        <time>2022-10-29T05:26:15.000Z</time>
      </trkpt>
      <trkpt lat="47.28325" lon="2.96178">
        <ele>187.19999694824</ele>
        <time>2022-10-29T05:26:17.000Z</time>
      </trkpt>
      <trkpt lat="47.28339" lon="2.96192">
        <ele>187.60000610352</ele>
        <time>2022-10-29T05:26:21.000Z</time>
      </trkpt>
      <trkpt lat="47.28352" lon="2.96207">
        <ele>188.19999694824</ele>
        <time>2022-10-29T05:26:25.000Z</time>
      </trkpt>
      <trkpt lat="47.28355" lon="2.96211">
        <ele>188.39999389648</ele>
        <time>2022-10-29T05:26:26.000Z</time>
      </trkpt>
      <trkpt lat="47.28359" lon="2.96215">
        <ele>188.39999389648</ele>
        <time>2022-10-29T05:26:27.000Z</time>
      </trkpt>
      <trkpt lat="47.28366" lon="2.96223">
        <ele>188.60000610352</ele>
        <time>2022-10-29T05:26:29.000Z</time>
      </trkpt>
      <trkpt lat="47.28368" lon="2.96227">
        <ele>188.80000305176</ele>
        <time>2022-10-29T05:26:30.000Z</time>
      </trkpt>
      <trkpt lat="47.28375" lon="2.96241">
        <ele>189</ele>
        <time>2022-10-29T05:26:33.000Z</time>
      </trkpt>
      <trkpt lat="47.28386" lon="2.96259">
        <ele>190</ele>
        <time>2022-10-29T05:26:37.000Z</time>
      </trkpt>
      <trkpt lat="47.28389" lon="2.96263">
        <ele>190.39999389648</ele>
        <time>2022-10-29T05:26:38.000Z</time>
      </trkpt>
      <trkpt lat="47.28403" lon="2.9629">
        <ele>191.60000610352</ele>
        <time>2022-10-29T05:26:44.000Z</time>
      </trkpt>
      <trkpt lat="47.28415" lon="2.96313">
        <ele>192.60000610352</ele>
        <time>2022-10-29T05:26:49.000Z</time>
      </trkpt>
      <trkpt lat="47.28421" lon="2.96322">
        <ele>192.80000305176</ele>
        <time>2022-10-29T05:26:51.000Z</time>
      </trkpt>
      <trkpt lat="47.28429" lon="2.96335">
        <ele>193.60000610352</ele>
        <time>2022-10-29T05:26:54.000Z</time>
      </trkpt>
      <trkpt lat="47.28435" lon="2.96343">
        <ele>194.19999694824</ele>
        <time>2022-10-29T05:26:56.000Z</time>
      </trkpt>
      <trkpt lat="47.28442" lon="2.96357">
        <ele>195</ele>
        <time>2022-10-29T05:26:59.000Z</time>
      </trkpt>
      <trkpt lat="47.28457" lon="2.96383">
        <ele>196</ele>
        <time>2022-10-29T05:27:05.000Z</time>
      </trkpt>
      <trkpt lat="47.28465" lon="2.96396">
        <ele>196.80000305176</ele>
        <time>2022-10-29T05:27:08.000Z</time>
      </trkpt>
      <trkpt lat="47.2847" lon="2.96406">
        <ele>197</ele>
        <time>2022-10-29T05:27:10.000Z</time>
      </trkpt>
      <trkpt lat="47.28483" lon="2.96425">
        <ele>198</ele>
        <time>2022-10-29T05:27:15.000Z</time>
      </trkpt>
      <trkpt lat="47.28486" lon="2.96431">
        <ele>198.19999694824</ele>
        <time>2022-10-29T05:27:16.000Z</time>
      </trkpt>
      <trkpt lat="47.28499" lon="2.96452">
        <ele>199.39999389648</ele>
        <time>2022-10-29T05:27:21.000Z</time>
      </trkpt>
      <trkpt lat="47.28503" lon="2.96459">
        <ele>199.80000305176</ele>
        <time>2022-10-29T05:27:23.000Z</time>
      </trkpt>
      <trkpt lat="47.28512" lon="2.96474">
        <ele>200.39999389648</ele>
        <time>2022-10-29T05:27:26.000Z</time>
      </trkpt>
      <trkpt lat="47.28517" lon="2.96483">
        <ele>200.80000305176</ele>
        <time>2022-10-29T05:27:28.000Z</time>
      </trkpt>
      <trkpt lat="47.28523" lon="2.96492">
        <ele>201</ele>
        <time>2022-10-29T05:27:30.000Z</time>
      </trkpt>
      <trkpt lat="47.28541" lon="2.96523">
        <ele>201.60000610352</ele>
        <time>2022-10-29T05:27:36.000Z</time>
      </trkpt>
      <trkpt lat="47.28544" lon="2.96528">
        <ele>201.60000610352</ele>
        <time>2022-10-29T05:27:37.000Z</time>
      </trkpt>
      <trkpt lat="47.28547" lon="2.96535">
        <ele>201.60000610352</ele>
        <time>2022-10-29T05:27:38.000Z</time>
      </trkpt>
      <trkpt lat="47.28553" lon="2.96546">
        <ele>201.80000305176</ele>
        <time>2022-10-29T05:27:40.000Z</time>
      </trkpt>
      <trkpt lat="47.28562" lon="2.96561">
        <ele>202</ele>
        <time>2022-10-29T05:27:43.000Z</time>
      </trkpt>
      <trkpt lat="47.28566" lon="2.96567">
        <ele>202</ele>
        <time>2022-10-29T05:27:44.000Z</time>
      </trkpt>
      <trkpt lat="47.28577" lon="2.96585">
        <ele>202.60000610352</ele>
        <time>2022-10-29T05:27:48.000Z</time>
      </trkpt>
      <trkpt lat="47.2858" lon="2.9659">
        <ele>202.60000610352</ele>
        <time>2022-10-29T05:27:49.000Z</time>
      </trkpt>
      <trkpt lat="47.28592" lon="2.96609">
        <ele>203.60000610352</ele>
        <time>2022-10-29T05:27:53.000Z</time>
      </trkpt>
      <trkpt lat="47.28602" lon="2.96628">
        <ele>204.60000610352</ele>
        <time>2022-10-29T05:27:57.000Z</time>
      </trkpt>
      <trkpt lat="47.28613" lon="2.96646">
        <ele>205.80000305176</ele>
        <time>2022-10-29T05:28:01.000Z</time>
      </trkpt>
      <trkpt lat="47.28624" lon="2.96664">
        <ele>206.60000610352</ele>
        <time>2022-10-29T05:28:05.000Z</time>
      </trkpt>
      <trkpt lat="47.28627" lon="2.96668">
        <ele>206.80000305176</ele>
        <time>2022-10-29T05:28:06.000Z</time>
      </trkpt>
      <trkpt lat="47.28633" lon="2.96677">
        <ele>207.39999389648</ele>
        <time>2022-10-29T05:28:08.000Z</time>
      </trkpt>
      <trkpt lat="47.28635" lon="2.96681">
        <ele>207.60000610352</ele>
        <time>2022-10-29T05:28:09.000Z</time>
      </trkpt>
      <trkpt lat="47.28638" lon="2.96686">
        <ele>207.80000305176</ele>
        <time>2022-10-29T05:28:10.000Z</time>
      </trkpt>
      <trkpt lat="47.28641" lon="2.9669">
        <ele>208</ele>
        <time>2022-10-29T05:28:11.000Z</time>
      </trkpt>
      <trkpt lat="47.28645" lon="2.96696">
        <ele>208.19999694824</ele>
        <time>2022-10-29T05:28:12.000Z</time>
      </trkpt>
      <trkpt lat="47.28655" lon="2.96712">
        <ele>209</ele>
        <time>2022-10-29T05:28:16.000Z</time>
      </trkpt>
      <trkpt lat="47.28663" lon="2.96725">
        <ele>209.60000610352</ele>
        <time>2022-10-29T05:28:19.000Z</time>
      </trkpt>
      <trkpt lat="47.28676" lon="2.96747">
        <ele>210</ele>
        <time>2022-10-29T05:28:24.000Z</time>
      </trkpt>
      <trkpt lat="47.28689" lon="2.96769">
        <ele>210.60000610352</ele>
        <time>2022-10-29T05:28:29.000Z</time>
      </trkpt>
      <trkpt lat="47.28697" lon="2.96781">
        <ele>211.19999694824</ele>
        <time>2022-10-29T05:28:32.000Z</time>
      </trkpt>
      <trkpt lat="47.28716" lon="2.9681">
        <ele>212.19999694824</ele>
        <time>2022-10-29T05:28:39.000Z</time>
      </trkpt>
      <trkpt lat="47.28735" lon="2.96841">
        <ele>213</ele>
        <time>2022-10-29T05:28:47.000Z</time>
      </trkpt>
      <trkpt lat="47.28745" lon="2.96857">
        <ele>213.19999694824</ele>
        <time>2022-10-29T05:28:51.000Z</time>
      </trkpt>
      <trkpt lat="47.28749" lon="2.96866">
        <ele>213.60000610352</ele>
        <time>2022-10-29T05:28:53.000Z</time>
      </trkpt>
      <trkpt lat="47.28763" lon="2.96888">
        <ele>214.19999694824</ele>
        <time>2022-10-29T05:28:59.000Z</time>
      </trkpt>
      <trkpt lat="47.28765" lon="2.96892">
        <ele>214.19999694824</ele>
        <time>2022-10-29T05:29:00.000Z</time>
      </trkpt>
      <trkpt lat="47.28782" lon="2.96919">
        <ele>215</ele>
        <time>2022-10-29T05:29:06.000Z</time>
      </trkpt>
      <trkpt lat="47.28805" lon="2.96955">
        <ele>215</ele>
        <time>2022-10-29T05:29:13.000Z</time>
      </trkpt>
      <trkpt lat="47.28836" lon="2.97004">
        <ele>214.80000305176</ele>
        <time>2022-10-29T05:29:21.000Z</time>
      </trkpt>
      <trkpt lat="47.28866" lon="2.9705">
        <ele>214</ele>
        <time>2022-10-29T05:29:28.000Z</time>
      </trkpt>
      <trkpt lat="47.28897" lon="2.97096">
        <ele>213.60000610352</ele>
        <time>2022-10-29T05:29:35.000Z</time>
      </trkpt>
      <trkpt lat="47.28923" lon="2.97129">
        <ele>213.39999389648</ele>
        <time>2022-10-29T05:29:40.000Z</time>
      </trkpt>
      <trkpt lat="47.28927" lon="2.97134">
        <ele>213.19999694824</ele>
        <time>2022-10-29T05:29:41.000Z</time>
      </trkpt>
      <trkpt lat="47.28932" lon="2.9714">
        <ele>213.19999694824</ele>
        <time>2022-10-29T05:29:42.000Z</time>
      </trkpt>
      <trkpt lat="47.28977" lon="2.97194">
        <ele>213</ele>
        <time>2022-10-29T05:29:51.000Z</time>
      </trkpt>
      <trkpt lat="47.28982" lon="2.97201">
        <ele>213</ele>
        <time>2022-10-29T05:29:52.000Z</time>
      </trkpt>
      <trkpt lat="47.29016" lon="2.9724">
        <ele>213</ele>
        <time>2022-10-29T05:29:59.000Z</time>
      </trkpt>
      <trkpt lat="47.29058" lon="2.97293">
        <ele>214</ele>
        <time>2022-10-29T05:30:08.000Z</time>
      </trkpt>
      <trkpt lat="47.29068" lon="2.97304">
        <ele>214.39999389648</ele>
        <time>2022-10-29T05:30:10.000Z</time>
      </trkpt>
      <trkpt lat="47.29105" lon="2.9735">
        <ele>215.60000610352</ele>
        <time>2022-10-29T05:30:18.000Z</time>
      </trkpt>
      <trkpt lat="47.29141" lon="2.97394">
        <ele>216.60000610352</ele>
        <time>2022-10-29T05:30:26.000Z</time>
      </trkpt>
      <trkpt lat="47.29166" lon="2.97424">
        <ele>217.80000305176</ele>
        <time>2022-10-29T05:30:32.000Z</time>
      </trkpt>
      <trkpt lat="47.29189" lon="2.97448">
        <ele>218.80000305176</ele>
        <time>2022-10-29T05:30:37.000Z</time>
      </trkpt>
      <trkpt lat="47.29193" lon="2.97451">
        <ele>219.19999694824</ele>
        <time>2022-10-29T05:30:38.000Z</time>
      </trkpt>
      <trkpt lat="47.29203" lon="2.97458">
        <ele>219.39999389648</ele>
        <time>2022-10-29T05:30:40.000Z</time>
      </trkpt>
      <trkpt lat="47.29222" lon="2.97469">
        <ele>220</ele>
        <time>2022-10-29T05:30:44.000Z</time>
      </trkpt>
      <trkpt lat="47.29227" lon="2.97472">
        <ele>220.19999694824</ele>
        <time>2022-10-29T05:30:45.000Z</time>
      </trkpt>
      <trkpt lat="47.29238" lon="2.97477">
        <ele>220.39999389648</ele>
        <time>2022-10-29T05:30:47.000Z</time>
      </trkpt>
      <trkpt lat="47.29263" lon="2.97487">
        <ele>220.80000305176</ele>
        <time>2022-10-29T05:30:52.000Z</time>
      </trkpt>
      <trkpt lat="47.29273" lon="2.9749">
        <ele>221.19999694824</ele>
        <time>2022-10-29T05:30:54.000Z</time>
      </trkpt>
      <trkpt lat="47.29298" lon="2.97501">
        <ele>221.80000305176</ele>
        <time>2022-10-29T05:30:59.000Z</time>
      </trkpt>
      <trkpt lat="47.29317" lon="2.97512">
        <ele>222.19999694824</ele>
        <time>2022-10-29T05:31:03.000Z</time>
      </trkpt>
      <trkpt lat="47.29336" lon="2.97523">
        <ele>222.80000305176</ele>
        <time>2022-10-29T05:31:07.000Z</time>
      </trkpt>
      <trkpt lat="47.29359" lon="2.97542">
        <ele>223.39999389648</ele>
        <time>2022-10-29T05:31:12.000Z</time>
      </trkpt>
      <trkpt lat="47.29377" lon="2.97558">
        <ele>223.80000305176</ele>
        <time>2022-10-29T05:31:16.000Z</time>
      </trkpt>
      <trkpt lat="47.29402" lon="2.97584">
        <ele>224.39999389648</ele>
        <time>2022-10-29T05:31:22.000Z</time>
      </trkpt>
      <trkpt lat="47.29441" lon="2.97622">
        <ele>225.19999694824</ele>
        <time>2022-10-29T05:31:31.000Z</time>
      </trkpt>
      <trkpt lat="47.29446" lon="2.97627">
        <ele>225.39999389648</ele>
        <time>2022-10-29T05:31:32.000Z</time>
      </trkpt>
      <trkpt lat="47.29488" lon="2.97658">
        <ele>226.19999694824</ele>
        <time>2022-10-29T05:31:41.000Z</time>
      </trkpt>
      <trkpt lat="47.29503" lon="2.97665">
        <ele>226.60000610352</ele>
        <time>2022-10-29T05:31:44.000Z</time>
      </trkpt>
      <trkpt lat="47.29538" lon="2.97681">
        <ele>227.39999389648</ele>
        <time>2022-10-29T05:31:51.000Z</time>
      </trkpt>
      <trkpt lat="47.29554" lon="2.97688">
        <ele>227.80000305176</ele>
        <time>2022-10-29T05:31:54.000Z</time>
      </trkpt>
      <trkpt lat="47.29584" lon="2.977">
        <ele>228.19999694824</ele>
        <time>2022-10-29T05:32:00.000Z</time>
      </trkpt>
      <trkpt lat="47.29603" lon="2.9771">
        <ele>228.80000305176</ele>
        <time>2022-10-29T05:32:04.000Z</time>
      </trkpt>
      <trkpt lat="47.29637" lon="2.97728">
        <ele>229.60000610352</ele>
        <time>2022-10-29T05:32:11.000Z</time>
      </trkpt>
      <trkpt lat="47.29647" lon="2.97734">
        <ele>229.80000305176</ele>
        <time>2022-10-29T05:32:13.000Z</time>
      </trkpt>
      <trkpt lat="47.29677" lon="2.97754">
        <ele>231</ele>
        <time>2022-10-29T05:32:20.000Z</time>
      </trkpt>
      <trkpt lat="47.29682" lon="2.97759">
        <ele>231.19999694824</ele>
        <time>2022-10-29T05:32:21.000Z</time>
      </trkpt>
      <trkpt lat="47.29704" lon="2.97781">
        <ele>231.39999389648</ele>
        <time>2022-10-29T05:32:26.000Z</time>
      </trkpt>
      <trkpt lat="47.29722" lon="2.97803">
        <ele>231.60000610352</ele>
        <time>2022-10-29T05:32:30.000Z</time>
      </trkpt>
      <trkpt lat="47.29727" lon="2.9781">
        <ele>231.60000610352</ele>
        <time>2022-10-29T05:32:31.000Z</time>
      </trkpt>
      <trkpt lat="47.29765" lon="2.97863">
        <ele>230.39999389648</ele>
        <time>2022-10-29T05:32:39.000Z</time>
      </trkpt>
      <trkpt lat="47.29801" lon="2.97913">
        <ele>229.80000305176</ele>
        <time>2022-10-29T05:32:46.000Z</time>
      </trkpt>
      <trkpt lat="47.29805" lon="2.97919">
        <ele>229.80000305176</ele>
        <time>2022-10-29T05:32:47.000Z</time>
      </trkpt>
      <trkpt lat="47.29839" lon="2.97967">
        <ele>228.80000305176</ele>
        <time>2022-10-29T05:32:53.000Z</time>
      </trkpt>
      <trkpt lat="47.29883" lon="2.9803">
        <ele>228</ele>
        <time>2022-10-29T05:33:01.000Z</time>
      </trkpt>
      <trkpt lat="47.29895" lon="2.98046">
        <ele>227.80000305176</ele>
        <time>2022-10-29T05:33:03.000Z</time>
      </trkpt>
      <trkpt lat="47.29934" lon="2.98101">
        <ele>227.19999694824</ele>
        <time>2022-10-29T05:33:10.000Z</time>
      </trkpt>
      <trkpt lat="47.29952" lon="2.98127">
        <ele>227</ele>
        <time>2022-10-29T05:33:13.000Z</time>
      </trkpt>
      <trkpt lat="47.29994" lon="2.98185">
        <ele>225.80000305176</ele>
        <time>2022-10-29T05:33:20.000Z</time>
      </trkpt>
      <trkpt lat="47.30006" lon="2.98201">
        <ele>225.60000610352</ele>
        <time>2022-10-29T05:33:22.000Z</time>
      </trkpt>
      <trkpt lat="47.30011" lon="2.98208">
        <ele>225.39999389648</ele>
        <time>2022-10-29T05:33:23.000Z</time>
      </trkpt>
      <trkpt lat="47.30054" lon="2.98269">
        <ele>225</ele>
        <time>2022-10-29T05:33:30.000Z</time>
      </trkpt>
      <trkpt lat="47.30065" lon="2.98284">
        <ele>224.60000610352</ele>
        <time>2022-10-29T05:33:32.000Z</time>
      </trkpt>
      <trkpt lat="47.30071" lon="2.98293">
        <ele>224.60000610352</ele>
        <time>2022-10-29T05:33:33.000Z</time>
      </trkpt>
      <trkpt lat="47.30115" lon="2.98356">
        <ele>223.60000610352</ele>
        <time>2022-10-29T05:33:40.000Z</time>
      </trkpt>
      <trkpt lat="47.3012" lon="2.98363">
        <ele>223.60000610352</ele>
        <time>2022-10-29T05:33:41.000Z</time>
      </trkpt>
      <trkpt lat="47.3014" lon="2.98391">
        <ele>223.39999389648</ele>
        <time>2022-10-29T05:33:44.000Z</time>
      </trkpt>
      <trkpt lat="47.30178" lon="2.98444">
        <ele>222.60000610352</ele>
        <time>2022-10-29T05:33:50.000Z</time>
      </trkpt>
      <trkpt lat="47.30206" lon="2.98485">
        <ele>222.19999694824</ele>
        <time>2022-10-29T05:33:55.000Z</time>
      </trkpt>
      <trkpt lat="47.30246" lon="2.9854">
        <ele>222.19999694824</ele>
        <time>2022-10-29T05:34:02.000Z</time>
      </trkpt>
      <trkpt lat="47.30256" lon="2.98555">
        <ele>222.19999694824</ele>
        <time>2022-10-29T05:34:04.000Z</time>
      </trkpt>
      <trkpt lat="47.30293" lon="2.98616">
        <ele>222.60000610352</ele>
        <time>2022-10-29T05:34:12.000Z</time>
      </trkpt>
      <trkpt lat="47.30317" lon="2.98671">
        <ele>223.19999694824</ele>
        <time>2022-10-29T05:34:19.000Z</time>
      </trkpt>
      <trkpt lat="47.30336" lon="2.98731">
        <ele>223.60000610352</ele>
        <time>2022-10-29T05:34:26.000Z</time>
      </trkpt>
      <trkpt lat="47.30355" lon="2.98812">
        <ele>223.60000610352</ele>
        <time>2022-10-29T05:34:35.000Z</time>
      </trkpt>
      <trkpt lat="47.30372" lon="2.9889">
        <ele>223</ele>
        <time>2022-10-29T05:34:43.000Z</time>
      </trkpt>
      <trkpt lat="47.30374" lon="2.989">
        <ele>223</ele>
        <time>2022-10-29T05:34:44.000Z</time>
      </trkpt>
      <trkpt lat="47.30379" lon="2.9892">
        <ele>222.39999389648</ele>
        <time>2022-10-29T05:34:46.000Z</time>
      </trkpt>
      <trkpt lat="47.30395" lon="2.98994">
        <ele>221.39999389648</ele>
        <time>2022-10-29T05:34:53.000Z</time>
      </trkpt>
      <trkpt lat="47.30398" lon="2.99007">
        <ele>221.39999389648</ele>
        <time>2022-10-29T05:34:54.000Z</time>
      </trkpt>
      <trkpt lat="47.30417" lon="2.9908">
        <ele>220.39999389648</ele>
        <time>2022-10-29T05:35:01.000Z</time>
      </trkpt>
      <trkpt lat="47.3042" lon="2.99089">
        <ele>220.19999694824</ele>
        <time>2022-10-29T05:35:02.000Z</time>
      </trkpt>
      <trkpt lat="47.30437" lon="2.99117">
        <ele>220.39999389648</ele>
        <time>2022-10-29T05:35:06.000Z</time>
      </trkpt>
      <trkpt lat="47.30458" lon="2.99146">
        <ele>220.60000610352</ele>
        <time>2022-10-29T05:35:11.000Z</time>
      </trkpt>
      <trkpt lat="47.30467" lon="2.99159">
        <ele>221</ele>
        <time>2022-10-29T05:35:13.000Z</time>
      </trkpt>
      <trkpt lat="47.30482" lon="2.9918">
        <ele>221.80000305176</ele>
        <time>2022-10-29T05:35:17.000Z</time>
      </trkpt>
      <trkpt lat="47.30488" lon="2.99192">
        <ele>222.19999694824</ele>
        <time>2022-10-29T05:35:19.000Z</time>
      </trkpt>
      <trkpt lat="47.30496" lon="2.99209">
        <ele>222.80000305176</ele>
        <time>2022-10-29T05:35:22.000Z</time>
      </trkpt>
      <trkpt lat="47.30507" lon="2.99231">
        <ele>223.60000610352</ele>
        <time>2022-10-29T05:35:26.000Z</time>
      </trkpt>
      <trkpt lat="47.30513" lon="2.99243">
        <ele>223.80000305176</ele>
        <time>2022-10-29T05:35:28.000Z</time>
      </trkpt>
      <trkpt lat="47.30535" lon="2.99289">
        <ele>225</ele>
        <time>2022-10-29T05:35:36.000Z</time>
      </trkpt>
      <trkpt lat="47.30544" lon="2.99305">
        <ele>225.19999694824</ele>
        <time>2022-10-29T05:35:39.000Z</time>
      </trkpt>
      <trkpt lat="47.30551" lon="2.99319">
        <ele>225.39999389648</ele>
        <time>2022-10-29T05:35:41.000Z</time>
      </trkpt>
      <trkpt lat="47.30572" lon="2.99364">
        <ele>225.39999389648</ele>
        <time>2022-10-29T05:35:48.000Z</time>
      </trkpt>
      <trkpt lat="47.30593" lon="2.99405">
        <ele>224.80000305176</ele>
        <time>2022-10-29T05:35:53.000Z</time>
      </trkpt>
      <trkpt lat="47.30618" lon="2.99447">
        <ele>224</ele>
        <time>2022-10-29T05:35:58.000Z</time>
      </trkpt>
      <trkpt lat="47.30623" lon="2.99455">
        <ele>223.80000305176</ele>
        <time>2022-10-29T05:35:59.000Z</time>
      </trkpt>
      <trkpt lat="47.30638" lon="2.9948">
        <ele>222.60000610352</ele>
        <time>2022-10-29T05:36:02.000Z</time>
      </trkpt>
      <trkpt lat="47.30646" lon="2.9949">
        <ele>222.39999389648</ele>
        <time>2022-10-29T05:36:03.000Z</time>
      </trkpt>
      <trkpt lat="47.30675" lon="2.99528">
        <ele>221.39999389648</ele>
        <time>2022-10-29T05:36:08.000Z</time>
      </trkpt>
      <trkpt lat="47.30689" lon="2.99543">
        <ele>221.19999694824</ele>
        <time>2022-10-29T05:36:10.000Z</time>
      </trkpt>
      <trkpt lat="47.30729" lon="2.99575">
        <ele>220.39999389648</ele>
        <time>2022-10-29T05:36:16.000Z</time>
      </trkpt>
      <trkpt lat="47.30786" lon="2.99607">
        <ele>220</ele>
        <time>2022-10-29T05:36:24.000Z</time>
      </trkpt>
      <trkpt lat="47.30793" lon="2.9961">
        <ele>219.80000305176</ele>
        <time>2022-10-29T05:36:25.000Z</time>
      </trkpt>
      <trkpt lat="47.30828" lon="2.99628">
        <ele>219.39999389648</ele>
        <time>2022-10-29T05:36:30.000Z</time>
      </trkpt>
      <trkpt lat="47.30871" lon="2.99649">
        <ele>219</ele>
        <time>2022-10-29T05:36:36.000Z</time>
      </trkpt>
      <trkpt lat="47.30921" lon="2.99673">
        <ele>218.19999694824</ele>
        <time>2022-10-29T05:36:43.000Z</time>
      </trkpt>
      <trkpt lat="47.30928" lon="2.99677">
        <ele>218.19999694824</ele>
        <time>2022-10-29T05:36:44.000Z</time>
      </trkpt>
      <trkpt lat="47.30984" lon="2.99706">
        <ele>217.60000610352</ele>
        <time>2022-10-29T05:36:52.000Z</time>
      </trkpt>
      <trkpt lat="47.30991" lon="2.9971">
        <ele>217.60000610352</ele>
        <time>2022-10-29T05:36:53.000Z</time>
      </trkpt>
      <trkpt lat="47.3102" lon="2.99724">
        <ele>217.19999694824</ele>
        <time>2022-10-29T05:36:57.000Z</time>
      </trkpt>
      <trkpt lat="47.31041" lon="2.99736">
        <ele>217</ele>
        <time>2022-10-29T05:37:00.000Z</time>
      </trkpt>
      <trkpt lat="47.31098" lon="2.99766">
        <ele>216.39999389648</ele>
        <time>2022-10-29T05:37:08.000Z</time>
      </trkpt>
      <trkpt lat="47.31105" lon="2.99769">
        <ele>216.39999389648</ele>
        <time>2022-10-29T05:37:09.000Z</time>
      </trkpt>
      <trkpt lat="47.31112" lon="2.99772">
        <ele>216.19999694824</ele>
        <time>2022-10-29T05:37:10.000Z</time>
      </trkpt>
      <trkpt lat="47.3116" lon="2.99797">
        <ele>215.60000610352</ele>
        <time>2022-10-29T05:37:17.000Z</time>
      </trkpt>
      <trkpt lat="47.31197" lon="2.99822">
        <ele>215.39999389648</ele>
        <time>2022-10-29T05:37:23.000Z</time>
      </trkpt>
      <trkpt lat="47.31224" lon="2.99855">
        <ele>215.19999694824</ele>
        <time>2022-10-29T05:37:28.000Z</time>
      </trkpt>
      <trkpt lat="47.31257" lon="2.99914">
        <ele>214.19999694824</ele>
        <time>2022-10-29T05:37:35.000Z</time>
      </trkpt>
      <trkpt lat="47.31262" lon="2.99922">
        <ele>214.19999694824</ele>
        <time>2022-10-29T05:37:36.000Z</time>
      </trkpt>
      <trkpt lat="47.31293" lon="2.99979">
        <ele>213.19999694824</ele>
        <time>2022-10-29T05:37:43.000Z</time>
      </trkpt>
      <trkpt lat="47.31307" lon="3.00004">
        <ele>213.19999694824</ele>
        <time>2022-10-29T05:37:46.000Z</time>
      </trkpt>
      <trkpt lat="47.3133" lon="3.00044">
        <ele>212.60000610352</ele>
        <time>2022-10-29T05:37:51.000Z</time>
      </trkpt>
      <trkpt lat="47.31357" lon="3.00093">
        <ele>212.19999694824</ele>
        <time>2022-10-29T05:37:57.000Z</time>
      </trkpt>
      <trkpt lat="47.31376" lon="3.00126">
        <ele>211.80000305176</ele>
        <time>2022-10-29T05:38:01.000Z</time>
      </trkpt>
      <trkpt lat="47.31413" lon="3.00193">
        <ele>211.19999694824</ele>
        <time>2022-10-29T05:38:09.000Z</time>
      </trkpt>
      <trkpt lat="47.31422" lon="3.0021">
        <ele>211</ele>
        <time>2022-10-29T05:38:11.000Z</time>
      </trkpt>
      <trkpt lat="47.3146" lon="3.00276">
        <ele>210.19999694824</ele>
        <time>2022-10-29T05:38:19.000Z</time>
      </trkpt>
      <trkpt lat="47.31464" lon="3.00284">
        <ele>210.19999694824</ele>
        <time>2022-10-29T05:38:20.000Z</time>
      </trkpt>
      <trkpt lat="47.31496" lon="3.0034">
        <ele>209.60000610352</ele>
        <time>2022-10-29T05:38:27.000Z</time>
      </trkpt>
      <trkpt lat="47.31513" lon="3.00372">
        <ele>209</ele>
        <time>2022-10-29T05:38:31.000Z</time>
      </trkpt>
      <trkpt lat="47.31531" lon="3.00405">
        <ele>208.60000610352</ele>
        <time>2022-10-29T05:38:35.000Z</time>
      </trkpt>
      <trkpt lat="47.31564" lon="3.00463">
        <ele>208</ele>
        <time>2022-10-29T05:38:42.000Z</time>
      </trkpt>
      <trkpt lat="47.31579" lon="3.00489">
        <ele>207.60000610352</ele>
        <time>2022-10-29T05:38:45.000Z</time>
      </trkpt>
      <trkpt lat="47.31594" lon="3.00517">
        <ele>207</ele>
        <time>2022-10-29T05:38:48.000Z</time>
      </trkpt>
      <trkpt lat="47.3161" lon="3.00557">
        <ele>206.39999389648</ele>
        <time>2022-10-29T05:38:52.000Z</time>
      </trkpt>
      <trkpt lat="47.31621" lon="3.00589">
        <ele>206</ele>
        <time>2022-10-29T05:38:55.000Z</time>
      </trkpt>
      <trkpt lat="47.31633" lon="3.00634">
        <ele>205.19999694824</ele>
        <time>2022-10-29T05:38:59.000Z</time>
      </trkpt>
      <trkpt lat="47.31635" lon="3.00645">
        <ele>204.60000610352</ele>
        <time>2022-10-29T05:39:00.000Z</time>
      </trkpt>
      <trkpt lat="47.31641" lon="3.00681">
        <ele>203.60000610352</ele>
        <time>2022-10-29T05:39:03.000Z</time>
      </trkpt>
      <trkpt lat="47.31643" lon="3.00706">
        <ele>203.19999694824</ele>
        <time>2022-10-29T05:39:05.000Z</time>
      </trkpt>
      <trkpt lat="47.31645" lon="3.00743">
        <ele>202.60000610352</ele>
        <time>2022-10-29T05:39:08.000Z</time>
      </trkpt>
      <trkpt lat="47.31649" lon="3.00818">
        <ele>201.60000610352</ele>
        <time>2022-10-29T05:39:14.000Z</time>
      </trkpt>
      <trkpt lat="47.3165" lon="3.0083">
        <ele>201.39999389648</ele>
        <time>2022-10-29T05:39:15.000Z</time>
      </trkpt>
      <trkpt lat="47.31654" lon="3.00889">
        <ele>200.60000610352</ele>
        <time>2022-10-29T05:39:20.000Z</time>
      </trkpt>
      <trkpt lat="47.31657" lon="3.00947">
        <ele>200.19999694824</ele>
        <time>2022-10-29T05:39:25.000Z</time>
      </trkpt>
      <trkpt lat="47.31661" lon="3.01026">
        <ele>200</ele>
        <time>2022-10-29T05:39:32.000Z</time>
      </trkpt>
      <trkpt lat="47.31664" lon="3.01094">
        <ele>199.80000305176</ele>
        <time>2022-10-29T05:39:38.000Z</time>
      </trkpt>
      <trkpt lat="47.31665" lon="3.01105">
        <ele>199.60000610352</ele>
        <time>2022-10-29T05:39:39.000Z</time>
      </trkpt>
      <trkpt lat="47.31669" lon="3.01188">
        <ele>199.19999694824</ele>
        <time>2022-10-29T05:39:46.000Z</time>
      </trkpt>
      <trkpt lat="47.31671" lon="3.01221">
        <ele>199</ele>
        <time>2022-10-29T05:39:49.000Z</time>
      </trkpt>
      <trkpt lat="47.31676" lon="3.0131">
        <ele>198.60000610352</ele>
        <time>2022-10-29T05:39:57.000Z</time>
      </trkpt>
      <trkpt lat="47.31677" lon="3.01321">
        <ele>198.60000610352</ele>
        <time>2022-10-29T05:39:58.000Z</time>
      </trkpt>
      <trkpt lat="47.31681" lon="3.01405">
        <ele>198</ele>
        <time>2022-10-29T05:40:06.000Z</time>
      </trkpt>
      <trkpt lat="47.31682" lon="3.01434">
        <ele>197.80000305176</ele>
        <time>2022-10-29T05:40:09.000Z</time>
      </trkpt>
      <trkpt lat="47.31683" lon="3.01445">
        <ele>197.60000610352</ele>
        <time>2022-10-29T05:40:10.000Z</time>
      </trkpt>
      <trkpt lat="47.31685" lon="3.01487">
        <ele>197.39999389648</ele>
        <time>2022-10-29T05:40:14.000Z</time>
      </trkpt>
      <trkpt lat="47.31688" lon="3.01541">
        <ele>197.19999694824</ele>
        <time>2022-10-29T05:40:19.000Z</time>
      </trkpt>
      <trkpt lat="47.31696" lon="3.01618">
        <ele>197.19999694824</ele>
        <time>2022-10-29T05:40:26.000Z</time>
      </trkpt>
      <trkpt lat="47.31705" lon="3.01702">
        <ele>196.80000305176</ele>
        <time>2022-10-29T05:40:34.000Z</time>
      </trkpt>
      <trkpt lat="47.3171" lon="3.01745">
        <ele>196.60000610352</ele>
        <time>2022-10-29T05:40:38.000Z</time>
      </trkpt>
      <trkpt lat="47.31712" lon="3.01756">
        <ele>196.60000610352</ele>
        <time>2022-10-29T05:40:39.000Z</time>
      </trkpt>
      <trkpt lat="47.3172" lon="3.01817">
        <ele>196.39999389648</ele>
        <time>2022-10-29T05:40:45.000Z</time>
      </trkpt>
      <trkpt lat="47.3173" lon="3.01902">
        <ele>195.80000305176</ele>
        <time>2022-10-29T05:40:53.000Z</time>
      </trkpt>
      <trkpt lat="47.31731" lon="3.01912">
        <ele>195.80000305176</ele>
        <time>2022-10-29T05:40:54.000Z</time>
      </trkpt>
      <trkpt lat="47.31739" lon="3.01973">
        <ele>195.39999389648</ele>
        <time>2022-10-29T05:41:00.000Z</time>
      </trkpt>
      <trkpt lat="47.31745" lon="3.02026">
        <ele>195.19999694824</ele>
        <time>2022-10-29T05:41:05.000Z</time>
      </trkpt>
      <trkpt lat="47.31748" lon="3.02047">
        <ele>195</ele>
        <time>2022-10-29T05:41:07.000Z</time>
      </trkpt>
      <trkpt lat="47.31758" lon="3.02122">
        <ele>194.80000305176</ele>
        <time>2022-10-29T05:41:14.000Z</time>
      </trkpt>
      <trkpt lat="47.31762" lon="3.02153">
        <ele>194.39999389648</ele>
        <time>2022-10-29T05:41:17.000Z</time>
      </trkpt>
      <trkpt lat="47.31773" lon="3.02227">
        <ele>194.19999694824</ele>
        <time>2022-10-29T05:41:24.000Z</time>
      </trkpt>
      <trkpt lat="47.3179" lon="3.02309">
        <ele>193.60000610352</ele>
        <time>2022-10-29T05:41:32.000Z</time>
      </trkpt>
      <trkpt lat="47.31793" lon="3.02322">
        <ele>193.39999389648</ele>
        <time>2022-10-29T05:41:33.000Z</time>
      </trkpt>
      <trkpt lat="47.31798" lon="3.02342">
        <ele>193.39999389648</ele>
        <time>2022-10-29T05:41:35.000Z</time>
      </trkpt>
      <trkpt lat="47.31819" lon="3.02412">
        <ele>192.80000305176</ele>
        <time>2022-10-29T05:41:42.000Z</time>
      </trkpt>
      <trkpt lat="47.31847" lon="3.02488">
        <ele>192.60000610352</ele>
        <time>2022-10-29T05:41:50.000Z</time>
      </trkpt>
      <trkpt lat="47.31854" lon="3.02506">
        <ele>192.60000610352</ele>
        <time>2022-10-29T05:41:52.000Z</time>
      </trkpt>
      <trkpt lat="47.31879" lon="3.02559">
        <ele>192.19999694824</ele>
        <time>2022-10-29T05:41:58.000Z</time>
      </trkpt>
      <trkpt lat="47.31897" lon="3.02593">
        <ele>192</ele>
        <time>2022-10-29T05:42:02.000Z</time>
      </trkpt>
      <trkpt lat="47.31925" lon="3.02642">
        <ele>191.60000610352</ele>
        <time>2022-10-29T05:42:08.000Z</time>
      </trkpt>
      <trkpt lat="47.31935" lon="3.02658">
        <ele>191.60000610352</ele>
        <time>2022-10-29T05:42:10.000Z</time>
      </trkpt>
      <trkpt lat="47.31971" lon="3.02714">
        <ele>191.39999389648</ele>
        <time>2022-10-29T05:42:17.000Z</time>
      </trkpt>
      <trkpt lat="47.32011" lon="3.02777">
        <ele>191.39999389648</ele>
        <time>2022-10-29T05:42:25.000Z</time>
      </trkpt>
      <trkpt lat="47.32021" lon="3.02793">
        <ele>191.39999389648</ele>
        <time>2022-10-29T05:42:27.000Z</time>
      </trkpt>
      <trkpt lat="47.32054" lon="3.02843">
        <ele>191.60000610352</ele>
        <time>2022-10-29T05:42:34.000Z</time>
      </trkpt>
      <trkpt lat="47.32095" lon="3.02908">
        <ele>192.80000305176</ele>
        <time>2022-10-29T05:42:43.000Z</time>
      </trkpt>
      <trkpt lat="47.321" lon="3.02916">
        <ele>192.80000305176</ele>
        <time>2022-10-29T05:42:44.000Z</time>
      </trkpt>
      <trkpt lat="47.3213" lon="3.02964">
        <ele>193.19999694824</ele>
        <time>2022-10-29T05:42:51.000Z</time>
      </trkpt>
      <trkpt lat="47.32138" lon="3.02977">
        <ele>193.60000610352</ele>
        <time>2022-10-29T05:42:53.000Z</time>
      </trkpt>
      <trkpt lat="47.32166" lon="3.03019">
        <ele>194.39999389648</ele>
        <time>2022-10-29T05:43:00.000Z</time>
      </trkpt>
      <trkpt lat="47.3217" lon="3.03025">
        <ele>194.60000610352</ele>
        <time>2022-10-29T05:43:01.000Z</time>
      </trkpt>
      <trkpt lat="47.32196" lon="3.03066">
        <ele>195.39999389648</ele>
        <time>2022-10-29T05:43:08.000Z</time>
      </trkpt>
      <trkpt lat="47.32203" lon="3.03077">
        <ele>195.60000610352</ele>
        <time>2022-10-29T05:43:10.000Z</time>
      </trkpt>
      <trkpt lat="47.32224" lon="3.03112">
        <ele>196.60000610352</ele>
        <time>2022-10-29T05:43:16.000Z</time>
      </trkpt>
      <trkpt lat="47.32227" lon="3.03117">
        <ele>196.80000305176</ele>
        <time>2022-10-29T05:43:17.000Z</time>
      </trkpt>
      <trkpt lat="47.3225" lon="3.03153">
        <ele>197.80000305176</ele>
        <time>2022-10-29T05:43:24.000Z</time>
      </trkpt>
      <trkpt lat="47.3227" lon="3.03185">
        <ele>199</ele>
        <time>2022-10-29T05:43:30.000Z</time>
      </trkpt>
      <trkpt lat="47.3228" lon="3.032">
        <ele>199.19999694824</ele>
        <time>2022-10-29T05:43:33.000Z</time>
      </trkpt>
      <trkpt lat="47.32299" lon="3.0323">
        <ele>200</ele>
        <time>2022-10-29T05:43:39.000Z</time>
      </trkpt>
      <trkpt lat="47.32305" lon="3.0324">
        <ele>200.19999694824</ele>
        <time>2022-10-29T05:43:41.000Z</time>
      </trkpt>
      <trkpt lat="47.32325" lon="3.03272">
        <ele>201</ele>
        <time>2022-10-29T05:43:47.000Z</time>
      </trkpt>
      <trkpt lat="47.32334" lon="3.03286">
        <ele>201.39999389648</ele>
        <time>2022-10-29T05:43:50.000Z</time>
      </trkpt>
      <trkpt lat="47.32352" lon="3.03313">
        <ele>202</ele>
        <time>2022-10-29T05:43:55.000Z</time>
      </trkpt>
      <trkpt lat="47.32365" lon="3.03335">
        <ele>203</ele>
        <time>2022-10-29T05:43:59.000Z</time>
      </trkpt>
      <trkpt lat="47.32378" lon="3.03356">
        <ele>203.39999389648</ele>
        <time>2022-10-29T05:44:03.000Z</time>
      </trkpt>
      <trkpt lat="47.32392" lon="3.03378">
        <ele>203.80000305176</ele>
        <time>2022-10-29T05:44:07.000Z</time>
      </trkpt>
      <trkpt lat="47.32412" lon="3.0341">
        <ele>204.60000610352</ele>
        <time>2022-10-29T05:44:13.000Z</time>
      </trkpt>
      <trkpt lat="47.32425" lon="3.03434">
        <ele>205</ele>
        <time>2022-10-29T05:44:17.000Z</time>
      </trkpt>
      <trkpt lat="47.3243" lon="3.03445">
        <ele>205.19999694824</ele>
        <time>2022-10-29T05:44:19.000Z</time>
      </trkpt>
      <trkpt lat="47.3244" lon="3.03474">
        <ele>205.19999694824</ele>
        <time>2022-10-29T05:44:23.000Z</time>
      </trkpt>
      <trkpt lat="47.32459" lon="3.03534">
        <ele>204.80000305176</ele>
        <time>2022-10-29T05:44:30.000Z</time>
      </trkpt>
      <trkpt lat="47.32474" lon="3.0358">
        <ele>203.60000610352</ele>
        <time>2022-10-29T05:44:35.000Z</time>
      </trkpt>
      <trkpt lat="47.32483" lon="3.03609">
        <ele>203.19999694824</ele>
        <time>2022-10-29T05:44:38.000Z</time>
      </trkpt>
      <trkpt lat="47.32492" lon="3.03638">
        <ele>202.39999389648</ele>
        <time>2022-10-29T05:44:41.000Z</time>
      </trkpt>
      <trkpt lat="47.32509" lon="3.0369">
        <ele>201.19999694824</ele>
        <time>2022-10-29T05:44:46.000Z</time>
      </trkpt>
      <trkpt lat="47.32512" lon="3.037">
        <ele>201</ele>
        <time>2022-10-29T05:44:47.000Z</time>
      </trkpt>
      <trkpt lat="47.32529" lon="3.03753">
        <ele>200.19999694824</ele>
        <time>2022-10-29T05:44:52.000Z</time>
      </trkpt>
      <trkpt lat="47.32539" lon="3.03785">
        <ele>199.19999694824</ele>
        <time>2022-10-29T05:44:55.000Z</time>
      </trkpt>
      <trkpt lat="47.32542" lon="3.03796">
        <ele>198.80000305176</ele>
        <time>2022-10-29T05:44:56.000Z</time>
      </trkpt>
      <trkpt lat="47.32567" lon="3.03874">
        <ele>198.60000610352</ele>
        <time>2022-10-29T05:45:04.000Z</time>
      </trkpt>
      <trkpt lat="47.32586" lon="3.03932">
        <ele>199.39999389648</ele>
        <time>2022-10-29T05:45:11.000Z</time>
      </trkpt>
      <trkpt lat="47.32599" lon="3.03973">
        <ele>200.19999694824</ele>
        <time>2022-10-29T05:45:16.000Z</time>
      </trkpt>
      <trkpt lat="47.32603" lon="3.03988">
        <ele>201</ele>
        <time>2022-10-29T05:45:18.000Z</time>
      </trkpt>
      <trkpt lat="47.32607" lon="3.04002">
        <ele>201.39999389648</ele>
        <time>2022-10-29T05:45:20.000Z</time>
      </trkpt>
      <trkpt lat="47.32619" lon="3.04037">
        <ele>202.19999694824</ele>
        <time>2022-10-29T05:45:25.000Z</time>
      </trkpt>
      <trkpt lat="47.32624" lon="3.0405">
        <ele>202.60000610352</ele>
        <time>2022-10-29T05:45:27.000Z</time>
      </trkpt>
      <trkpt lat="47.32636" lon="3.04075">
        <ele>203</ele>
        <time>2022-10-29T05:45:31.000Z</time>
      </trkpt>
      <trkpt lat="47.32655" lon="3.0411">
        <ele>203.19999694824</ele>
        <time>2022-10-29T05:45:36.000Z</time>
      </trkpt>
      <trkpt lat="47.32689" lon="3.04162">
        <ele>202.19999694824</ele>
        <time>2022-10-29T05:45:43.000Z</time>
      </trkpt>
      <trkpt lat="47.32711" lon="3.04194">
        <ele>201.39999389648</ele>
        <time>2022-10-29T05:45:47.000Z</time>
      </trkpt>
      <trkpt lat="47.32727" lon="3.04217">
        <ele>201</ele>
        <time>2022-10-29T05:45:50.000Z</time>
      </trkpt>
      <trkpt lat="47.32741" lon="3.04235">
        <ele>200.60000610352</ele>
        <time>2022-10-29T05:45:52.000Z</time>
      </trkpt>
      <trkpt lat="47.3277" lon="3.04274">
        <ele>200</ele>
        <time>2022-10-29T05:45:57.000Z</time>
      </trkpt>
      <trkpt lat="47.32801" lon="3.04318">
        <ele>199.80000305176</ele>
        <time>2022-10-29T05:46:03.000Z</time>
      </trkpt>
      <trkpt lat="47.32829" lon="3.04354">
        <ele>200.80000305176</ele>
        <time>2022-10-29T05:46:09.000Z</time>
      </trkpt>
      <trkpt lat="47.3286" lon="3.044">
        <ele>201.80000305176</ele>
        <time>2022-10-29T05:46:17.000Z</time>
      </trkpt>
      <trkpt lat="47.32886" lon="3.04438">
        <ele>203</ele>
        <time>2022-10-29T05:46:24.000Z</time>
      </trkpt>
      <trkpt lat="47.32893" lon="3.04449">
        <ele>203.60000610352</ele>
        <time>2022-10-29T05:46:26.000Z</time>
      </trkpt>
      <trkpt lat="47.32903" lon="3.04468">
        <ele>204</ele>
        <time>2022-10-29T05:46:29.000Z</time>
      </trkpt>
      <trkpt lat="47.3292" lon="3.04498">
        <ele>205</ele>
        <time>2022-10-29T05:46:34.000Z</time>
      </trkpt>
      <trkpt lat="47.32937" lon="3.04529">
        <ele>206.19999694824</ele>
        <time>2022-10-29T05:46:39.000Z</time>
      </trkpt>
      <trkpt lat="47.32951" lon="3.04554">
        <ele>206.80000305176</ele>
        <time>2022-10-29T05:46:43.000Z</time>
      </trkpt>
      <trkpt lat="47.32965" lon="3.0458">
        <ele>207.19999694824</ele>
        <time>2022-10-29T05:46:47.000Z</time>
      </trkpt>
      <trkpt lat="47.32987" lon="3.04619">
        <ele>207.60000610352</ele>
        <time>2022-10-29T05:46:53.000Z</time>
      </trkpt>
      <trkpt lat="47.33014" lon="3.04666">
        <ele>207.80000305176</ele>
        <time>2022-10-29T05:47:00.000Z</time>
      </trkpt>
      <trkpt lat="47.33043" lon="3.0472">
        <ele>207.80000305176</ele>
        <time>2022-10-29T05:47:08.000Z</time>
      </trkpt>
      <trkpt lat="47.33074" lon="3.04775">
        <ele>207.80000305176</ele>
        <time>2022-10-29T05:47:16.000Z</time>
      </trkpt>
      <trkpt lat="47.33097" lon="3.04816">
        <ele>207.39999389648</ele>
        <time>2022-10-29T05:47:22.000Z</time>
      </trkpt>
      <trkpt lat="47.33129" lon="3.0487">
        <ele>207.19999694824</ele>
        <time>2022-10-29T05:47:30.000Z</time>
      </trkpt>
      <trkpt lat="47.33156" lon="3.04919">
        <ele>207.19999694824</ele>
        <time>2022-10-29T05:47:37.000Z</time>
      </trkpt>
      <trkpt lat="47.3319" lon="3.04981">
        <ele>206.80000305176</ele>
        <time>2022-10-29T05:47:46.000Z</time>
      </trkpt>
      <trkpt lat="47.33194" lon="3.04988">
        <ele>206.80000305176</ele>
        <time>2022-10-29T05:47:47.000Z</time>
      </trkpt>
      <trkpt lat="47.33225" lon="3.05043">
        <ele>206.60000610352</ele>
        <time>2022-10-29T05:47:55.000Z</time>
      </trkpt>
      <trkpt lat="47.33247" lon="3.05083">
        <ele>206.19999694824</ele>
        <time>2022-10-29T05:48:01.000Z</time>
      </trkpt>
      <trkpt lat="47.33261" lon="3.05109">
        <ele>206.19999694824</ele>
        <time>2022-10-29T05:48:05.000Z</time>
      </trkpt>
      <trkpt lat="47.33299" lon="3.05177">
        <ele>205.80000305176</ele>
        <time>2022-10-29T05:48:15.000Z</time>
      </trkpt>
      <trkpt lat="47.33322" lon="3.05217">
        <ele>205.60000610352</ele>
        <time>2022-10-29T05:48:21.000Z</time>
      </trkpt>
      <trkpt lat="47.33333" lon="3.05237">
        <ele>205.19999694824</ele>
        <time>2022-10-29T05:48:24.000Z</time>
      </trkpt>
      <trkpt lat="47.33337" lon="3.05244">
        <ele>205</ele>
        <time>2022-10-29T05:48:25.000Z</time>
      </trkpt>
      <trkpt lat="47.33364" lon="3.05292">
        <ele>204.19999694824</ele>
        <time>2022-10-29T05:48:32.000Z</time>
      </trkpt>
      <trkpt lat="47.33368" lon="3.05299">
        <ele>204.19999694824</ele>
        <time>2022-10-29T05:48:33.000Z</time>
      </trkpt>
      <trkpt lat="47.33397" lon="3.05352">
        <ele>203</ele>
        <time>2022-10-29T05:48:40.000Z</time>
      </trkpt>
      <trkpt lat="47.3342" lon="3.05393">
        <ele>201.80000305176</ele>
        <time>2022-10-29T05:48:45.000Z</time>
      </trkpt>
      <trkpt lat="47.33435" lon="3.05417">
        <ele>201.19999694824</ele>
        <time>2022-10-29T05:48:48.000Z</time>
      </trkpt>
      <trkpt lat="47.33441" lon="3.05425">
        <ele>201</ele>
        <time>2022-10-29T05:48:49.000Z</time>
      </trkpt>
      <trkpt lat="47.33447" lon="3.05432">
        <ele>200.39999389648</ele>
        <time>2022-10-29T05:48:50.000Z</time>
      </trkpt>
      <trkpt lat="47.33465" lon="3.0545">
        <ele>199.60000610352</ele>
        <time>2022-10-29T05:48:53.000Z</time>
      </trkpt>
      <trkpt lat="47.33471" lon="3.05456">
        <ele>199.39999389648</ele>
        <time>2022-10-29T05:48:54.000Z</time>
      </trkpt>
      <trkpt lat="47.33498" lon="3.05478">
        <ele>198.39999389648</ele>
        <time>2022-10-29T05:48:58.000Z</time>
      </trkpt>
      <trkpt lat="47.33505" lon="3.05484">
        <ele>198</ele>
        <time>2022-10-29T05:48:59.000Z</time>
      </trkpt>
      <trkpt lat="47.33533" lon="3.05508">
        <ele>197.19999694824</ele>
        <time>2022-10-29T05:49:03.000Z</time>
      </trkpt>
      <trkpt lat="47.33563" lon="3.0553">
        <ele>196.19999694824</ele>
        <time>2022-10-29T05:49:07.000Z</time>
      </trkpt>
      <trkpt lat="47.3357" lon="3.05536">
        <ele>195.80000305176</ele>
        <time>2022-10-29T05:49:08.000Z</time>
      </trkpt>
      <trkpt lat="47.33592" lon="3.05553">
        <ele>195</ele>
        <time>2022-10-29T05:49:11.000Z</time>
      </trkpt>
      <trkpt lat="47.33612" lon="3.0557">
        <ele>193.80000305176</ele>
        <time>2022-10-29T05:49:14.000Z</time>
      </trkpt>
      <trkpt lat="47.33619" lon="3.05575">
        <ele>193.80000305176</ele>
        <time>2022-10-29T05:49:15.000Z</time>
      </trkpt>
      <trkpt lat="47.33639" lon="3.05592">
        <ele>192.80000305176</ele>
        <time>2022-10-29T05:49:18.000Z</time>
      </trkpt>
      <trkpt lat="47.33668" lon="3.05615">
        <ele>191.39999389648</ele>
        <time>2022-10-29T05:49:22.000Z</time>
      </trkpt>
      <trkpt lat="47.3369" lon="3.05632">
        <ele>190.39999389648</ele>
        <time>2022-10-29T05:49:25.000Z</time>
      </trkpt>
      <trkpt lat="47.3372" lon="3.05657">
        <ele>189.19999694824</ele>
        <time>2022-10-29T05:49:29.000Z</time>
      </trkpt>
      <trkpt lat="47.33742" lon="3.05674">
        <ele>187.80000305176</ele>
        <time>2022-10-29T05:49:32.000Z</time>
      </trkpt>
      <trkpt lat="47.33763" lon="3.05689">
        <ele>187</ele>
        <time>2022-10-29T05:49:35.000Z</time>
      </trkpt>
      <trkpt lat="47.33771" lon="3.05695">
        <ele>186.80000305176</ele>
        <time>2022-10-29T05:49:36.000Z</time>
      </trkpt>
      <trkpt lat="47.33784" lon="3.05706">
        <ele>186.19999694824</ele>
        <time>2022-10-29T05:49:38.000Z</time>
      </trkpt>
      <trkpt lat="47.33795" lon="3.0572">
        <ele>185.60000610352</ele>
        <time>2022-10-29T05:49:40.000Z</time>
      </trkpt>
      <trkpt lat="47.33801" lon="3.05741">
        <ele>184.80000305176</ele>
        <time>2022-10-29T05:49:42.000Z</time>
      </trkpt>
      <trkpt lat="47.33802" lon="3.05751">
        <ele>184.80000305176</ele>
        <time>2022-10-29T05:49:43.000Z</time>
      </trkpt>
      <trkpt lat="47.33803" lon="3.05772">
        <ele>184.60000610352</ele>
        <time>2022-10-29T05:49:45.000Z</time>
      </trkpt>
      <trkpt lat="47.33804" lon="3.05824">
        <ele>184.39999389648</ele>
        <time>2022-10-29T05:49:50.000Z</time>
      </trkpt>
      <trkpt lat="47.33805" lon="3.05882">
        <ele>184.60000610352</ele>
        <time>2022-10-29T05:49:56.000Z</time>
      </trkpt>
      <trkpt lat="47.33807" lon="3.0593">
        <ele>184.80000305176</ele>
        <time>2022-10-29T05:50:01.000Z</time>
      </trkpt>
      <trkpt lat="47.33808" lon="3.05973">
        <ele>185.19999694824</ele>
        <time>2022-10-29T05:50:06.000Z</time>
      </trkpt>
      <trkpt lat="47.33807" lon="3.05989">
        <ele>185.39999389648</ele>
        <time>2022-10-29T05:50:08.000Z</time>
      </trkpt>
      <trkpt lat="47.33807" lon="3.05996">
        <ele>185.60000610352</ele>
        <time>2022-10-29T05:50:09.000Z</time>
      </trkpt>
      <trkpt lat="47.33803" lon="3.06029">
        <ele>186.39999389648</ele>
        <time>2022-10-29T05:50:14.000Z</time>
      </trkpt>
      <trkpt lat="47.33803" lon="3.06035">
        <ele>186.60000610352</ele>
        <time>2022-10-29T05:50:15.000Z</time>
      </trkpt>
      <trkpt lat="47.338" lon="3.06058">
        <ele>187.19999694824</ele>
        <time>2022-10-29T05:50:19.000Z</time>
      </trkpt>
      <trkpt lat="47.33799" lon="3.0607">
        <ele>187.80000305176</ele>
        <time>2022-10-29T05:50:21.000Z</time>
      </trkpt>
      <trkpt lat="47.33798" lon="3.06101">
        <ele>188.19999694824</ele>
        <time>2022-10-29T05:50:26.000Z</time>
      </trkpt>
      <trkpt lat="47.33799" lon="3.06108">
        <ele>188.19999694824</ele>
        <time>2022-10-29T05:50:27.000Z</time>
      </trkpt>
      <trkpt lat="47.33804" lon="3.06123">
        <ele>188.19999694824</ele>
        <time>2022-10-29T05:50:29.000Z</time>
      </trkpt>
      <trkpt lat="47.33808" lon="3.0613">
        <ele>188.19999694824</ele>
        <time>2022-10-29T05:50:30.000Z</time>
      </trkpt>
      <trkpt lat="47.33813" lon="3.06135">
        <ele>188</ele>
        <time>2022-10-29T05:50:31.000Z</time>
      </trkpt>
      <trkpt lat="47.33824" lon="3.06145">
        <ele>187.60000610352</ele>
        <time>2022-10-29T05:50:33.000Z</time>
      </trkpt>
      <trkpt lat="47.33843" lon="3.06156">
        <ele>186.39999389648</ele>
        <time>2022-10-29T05:50:36.000Z</time>
      </trkpt>
      <trkpt lat="47.33866" lon="3.06172">
        <ele>185.80000305176</ele>
        <time>2022-10-29T05:50:39.000Z</time>
      </trkpt>
      <trkpt lat="47.3388" lon="3.0618">
        <ele>185.39999389648</ele>
        <time>2022-10-29T05:50:41.000Z</time>
      </trkpt>
      <trkpt lat="47.33913" lon="3.06201">
        <ele>184.80000305176</ele>
        <time>2022-10-29T05:50:46.000Z</time>
      </trkpt>
      <trkpt lat="47.33948" lon="3.06223">
        <ele>184.80000305176</ele>
        <time>2022-10-29T05:50:52.000Z</time>
      </trkpt>
      <trkpt lat="47.33983" lon="3.06246">
        <ele>185</ele>
        <time>2022-10-29T05:50:58.000Z</time>
      </trkpt>
      <trkpt lat="47.34028" lon="3.06274">
        <ele>184.80000305176</ele>
        <time>2022-10-29T05:51:05.000Z</time>
      </trkpt>
      <trkpt lat="47.34076" lon="3.06305">
        <ele>184.80000305176</ele>
        <time>2022-10-29T05:51:13.000Z</time>
      </trkpt>
      <trkpt lat="47.34129" lon="3.06338">
        <ele>185.60000610352</ele>
        <time>2022-10-29T05:51:23.000Z</time>
      </trkpt>
      <trkpt lat="47.34134" lon="3.06342">
        <ele>185.80000305176</ele>
        <time>2022-10-29T05:51:24.000Z</time>
      </trkpt>
      <trkpt lat="47.3414" lon="3.06353">
        <ele>186.19999694824</ele>
        <time>2022-10-29T05:51:26.000Z</time>
      </trkpt>
      <trkpt lat="47.34148" lon="3.06381">
        <ele>186.60000610352</ele>
        <time>2022-10-29T05:51:30.000Z</time>
      </trkpt>
      <trkpt lat="47.34149" lon="3.06387">
        <ele>186.80000305176</ele>
        <time>2022-10-29T05:51:31.000Z</time>
      </trkpt>
      <trkpt lat="47.34154" lon="3.06403">
        <ele>186.80000305176</ele>
        <time>2022-10-29T05:51:33.000Z</time>
      </trkpt>
      <trkpt lat="47.3416" lon="3.06427">
        <ele>187</ele>
        <time>2022-10-29T05:51:36.000Z</time>
      </trkpt>
      <trkpt lat="47.34175" lon="3.06487">
        <ele>187</ele>
        <time>2022-10-29T05:51:43.000Z</time>
      </trkpt>
      <trkpt lat="47.34176" lon="3.06496">
        <ele>187</ele>
        <time>2022-10-29T05:51:44.000Z</time>
      </trkpt>
      <trkpt lat="47.34186" lon="3.06547">
        <ele>187</ele>
        <time>2022-10-29T05:51:50.000Z</time>
      </trkpt>
      <trkpt lat="47.34205" lon="3.06597">
        <ele>187</ele>
        <time>2022-10-29T05:51:57.000Z</time>
      </trkpt>
      <trkpt lat="47.34215" lon="3.06619">
        <ele>186.80000305176</ele>
        <time>2022-10-29T05:52:00.000Z</time>
      </trkpt>
      <trkpt lat="47.34225" lon="3.06631">
        <ele>186.80000305176</ele>
        <time>2022-10-29T05:52:02.000Z</time>
      </trkpt>
      <trkpt lat="47.3425" lon="3.06659">
        <ele>186.80000305176</ele>
        <time>2022-10-29T05:52:07.000Z</time>
      </trkpt>
      <trkpt lat="47.34267" lon="3.06696">
        <ele>186.60000610352</ele>
        <time>2022-10-29T05:52:12.000Z</time>
      </trkpt>
      <trkpt lat="47.34282" lon="3.06739">
        <ele>186.80000305176</ele>
        <time>2022-10-29T05:52:18.000Z</time>
      </trkpt>
      <trkpt lat="47.34305" lon="3.06799">
        <ele>187.60000610352</ele>
        <time>2022-10-29T05:52:27.000Z</time>
      </trkpt>
      <trkpt lat="47.34307" lon="3.06805">
        <ele>187.80000305176</ele>
        <time>2022-10-29T05:52:28.000Z</time>
      </trkpt>
      <trkpt lat="47.34318" lon="3.06838">
        <ele>188</ele>
        <time>2022-10-29T05:52:33.000Z</time>
      </trkpt>
      <trkpt lat="47.34332" lon="3.06885">
        <ele>188.19999694824</ele>
        <time>2022-10-29T05:52:40.000Z</time>
      </trkpt>
      <trkpt lat="47.34347" lon="3.06932">
        <ele>187.80000305176</ele>
        <time>2022-10-29T05:52:46.000Z</time>
      </trkpt>
      <trkpt lat="47.34371" lon="3.06982">
        <ele>187</ele>
        <time>2022-10-29T05:52:52.000Z</time>
      </trkpt>
      <trkpt lat="47.34376" lon="3.06991">
        <ele>186.80000305176</ele>
        <time>2022-10-29T05:52:53.000Z</time>
      </trkpt>
      <trkpt lat="47.34406" lon="3.07045">
        <ele>185.60000610352</ele>
        <time>2022-10-29T05:53:00.000Z</time>
      </trkpt>
      <trkpt lat="47.34434" lon="3.07101">
        <ele>185.19999694824</ele>
        <time>2022-10-29T05:53:07.000Z</time>
      </trkpt>
      <trkpt lat="47.34448" lon="3.07132">
        <ele>185.19999694824</ele>
        <time>2022-10-29T05:53:11.000Z</time>
      </trkpt>
      <trkpt lat="47.34459" lon="3.07165">
        <ele>185.19999694824</ele>
        <time>2022-10-29T05:53:15.000Z</time>
      </trkpt>
      <trkpt lat="47.34478" lon="3.07245">
        <ele>185</ele>
        <time>2022-10-29T05:53:24.000Z</time>
      </trkpt>
      <trkpt lat="47.3448" lon="3.07253">
        <ele>185</ele>
        <time>2022-10-29T05:53:25.000Z</time>
      </trkpt>
      <trkpt lat="47.34499" lon="3.0733">
        <ele>185</ele>
        <time>2022-10-29T05:53:34.000Z</time>
      </trkpt>
      <trkpt lat="47.34521" lon="3.07393">
        <ele>185.19999694824</ele>
        <time>2022-10-29T05:53:42.000Z</time>
      </trkpt>
      <trkpt lat="47.3453" lon="3.07417">
        <ele>185.19999694824</ele>
        <time>2022-10-29T05:53:45.000Z</time>
      </trkpt>
      <trkpt lat="47.34533" lon="3.07433">
        <ele>185.19999694824</ele>
        <time>2022-10-29T05:53:47.000Z</time>
      </trkpt>
      <trkpt lat="47.34534" lon="3.07441">
        <ele>185.19999694824</ele>
        <time>2022-10-29T05:53:48.000Z</time>
      </trkpt>
      <trkpt lat="47.34535" lon="3.07488">
        <ele>185.60000610352</ele>
        <time>2022-10-29T05:53:54.000Z</time>
      </trkpt>
      <trkpt lat="47.34536" lon="3.07496">
        <ele>185.80000305176</ele>
        <time>2022-10-29T05:53:55.000Z</time>
      </trkpt>
      <trkpt lat="47.34542" lon="3.0751">
        <ele>186</ele>
        <time>2022-10-29T05:53:57.000Z</time>
      </trkpt>
      <trkpt lat="47.34551" lon="3.07517">
        <ele>186.39999389648</ele>
        <time>2022-10-29T05:53:59.000Z</time>
      </trkpt>
      <trkpt lat="47.34556" lon="3.07517">
        <ele>186.60000610352</ele>
        <time>2022-10-29T05:54:00.000Z</time>
      </trkpt>
      <trkpt lat="47.34562" lon="3.07517">
        <ele>186.60000610352</ele>
        <time>2022-10-29T05:54:01.000Z</time>
      </trkpt>
      <trkpt lat="47.34572" lon="3.07522">
        <ele>187</ele>
        <time>2022-10-29T05:54:03.000Z</time>
      </trkpt>
      <trkpt lat="47.34577" lon="3.07526">
        <ele>187.19999694824</ele>
        <time>2022-10-29T05:54:04.000Z</time>
      </trkpt>
      <trkpt lat="47.34581" lon="3.07531">
        <ele>187.19999694824</ele>
        <time>2022-10-29T05:54:05.000Z</time>
      </trkpt>
      <trkpt lat="47.34588" lon="3.07543">
        <ele>187.39999389648</ele>
        <time>2022-10-29T05:54:07.000Z</time>
      </trkpt>
      <trkpt lat="47.34591" lon="3.0755">
        <ele>187.39999389648</ele>
        <time>2022-10-29T05:54:08.000Z</time>
      </trkpt>
      <trkpt lat="47.34612" lon="3.07597">
        <ele>187.60000610352</ele>
        <time>2022-10-29T05:54:15.000Z</time>
      </trkpt>
      <trkpt lat="47.34615" lon="3.07604">
        <ele>187.60000610352</ele>
        <time>2022-10-29T05:54:16.000Z</time>
      </trkpt>
      <trkpt lat="47.34645" lon="3.07669">
        <ele>188</ele>
        <time>2022-10-29T05:54:26.000Z</time>
      </trkpt>
      <trkpt lat="47.34668" lon="3.07719">
        <ele>188.80000305176</ele>
        <time>2022-10-29T05:54:34.000Z</time>
      </trkpt>
      <trkpt lat="47.34685" lon="3.07759">
        <ele>189.80000305176</ele>
        <time>2022-10-29T05:54:41.000Z</time>
      </trkpt>
      <trkpt lat="47.34688" lon="3.07765">
        <ele>189.80000305176</ele>
        <time>2022-10-29T05:54:42.000Z</time>
      </trkpt>
      <trkpt lat="47.34706" lon="3.07807">
        <ele>190.80000305176</ele>
        <time>2022-10-29T05:54:49.000Z</time>
      </trkpt>
      <trkpt lat="47.34718" lon="3.07833">
        <ele>191</ele>
        <time>2022-10-29T05:54:53.000Z</time>
      </trkpt>
      <trkpt lat="47.34731" lon="3.0786">
        <ele>191.39999389648</ele>
        <time>2022-10-29T05:54:57.000Z</time>
      </trkpt>
      <trkpt lat="47.34757" lon="3.07919">
        <ele>191.60000610352</ele>
        <time>2022-10-29T05:55:06.000Z</time>
      </trkpt>
      <trkpt lat="47.34789" lon="3.07988">
        <ele>191.39999389648</ele>
        <time>2022-10-29T05:55:17.000Z</time>
      </trkpt>
      <trkpt lat="47.34793" lon="3.07995">
        <ele>191.39999389648</ele>
        <time>2022-10-29T05:55:18.000Z</time>
      </trkpt>
      <trkpt lat="47.34814" lon="3.08042">
        <ele>191</ele>
        <time>2022-10-29T05:55:24.000Z</time>
      </trkpt>
      <trkpt lat="47.34834" lon="3.08084">
        <ele>190</ele>
        <time>2022-10-29T05:55:30.000Z</time>
      </trkpt>
      <trkpt lat="47.3484" lon="3.08098">
        <ele>190</ele>
        <time>2022-10-29T05:55:32.000Z</time>
      </trkpt>
      <trkpt lat="47.34855" lon="3.08129">
        <ele>190</ele>
        <time>2022-10-29T05:55:37.000Z</time>
      </trkpt>
      <trkpt lat="47.3487" lon="3.08161">
        <ele>190.80000305176</ele>
        <time>2022-10-29T05:55:43.000Z</time>
      </trkpt>
      <trkpt lat="47.34873" lon="3.08166">
        <ele>191</ele>
        <time>2022-10-29T05:55:44.000Z</time>
      </trkpt>
      <trkpt lat="47.34875" lon="3.0817">
        <ele>191.19999694824</ele>
        <time>2022-10-29T05:55:45.000Z</time>
      </trkpt>
      <trkpt lat="47.34882" lon="3.08189">
        <ele>192</ele>
        <time>2022-10-29T05:55:49.000Z</time>
      </trkpt>
      <trkpt lat="47.34888" lon="3.08208">
        <ele>193.39999389648</ele>
        <time>2022-10-29T05:55:53.000Z</time>
      </trkpt>
      <trkpt lat="47.34892" lon="3.08223">
        <ele>193.80000305176</ele>
        <time>2022-10-29T05:55:56.000Z</time>
      </trkpt>
      <trkpt lat="47.34896" lon="3.08241">
        <ele>194.39999389648</ele>
        <time>2022-10-29T05:56:00.000Z</time>
      </trkpt>
      <trkpt lat="47.34898" lon="3.08252">
        <ele>194.60000610352</ele>
        <time>2022-10-29T05:56:02.000Z</time>
      </trkpt>
      <trkpt lat="47.34906" lon="3.08286">
        <ele>195</ele>
        <time>2022-10-29T05:56:09.000Z</time>
      </trkpt>
      <trkpt lat="47.34914" lon="3.08329">
        <ele>195.19999694824</ele>
        <time>2022-10-29T05:56:16.000Z</time>
      </trkpt>
      <trkpt lat="47.34922" lon="3.08368">
        <ele>195</ele>
        <time>2022-10-29T05:56:21.000Z</time>
      </trkpt>
      <trkpt lat="47.34935" lon="3.08426">
        <ele>193.39999389648</ele>
        <time>2022-10-29T05:56:27.000Z</time>
      </trkpt>
      <trkpt lat="47.34938" lon="3.08436">
        <ele>192.80000305176</ele>
        <time>2022-10-29T05:56:28.000Z</time>
      </trkpt>
      <trkpt lat="47.34948" lon="3.08475">
        <ele>191.60000610352</ele>
        <time>2022-10-29T05:56:32.000Z</time>
      </trkpt>
      <trkpt lat="47.34958" lon="3.0851">
        <ele>191</ele>
        <time>2022-10-29T05:56:36.000Z</time>
      </trkpt>
      <trkpt lat="47.34976" lon="3.08567">
        <ele>190.80000305176</ele>
        <time>2022-10-29T05:56:43.000Z</time>
      </trkpt>
      <trkpt lat="47.3499" lon="3.0861">
        <ele>191</ele>
        <time>2022-10-29T05:56:49.000Z</time>
      </trkpt>
      <trkpt lat="47.34992" lon="3.08617">
        <ele>191</ele>
        <time>2022-10-29T05:56:50.000Z</time>
      </trkpt>
      <trkpt lat="47.35" lon="3.08642">
        <ele>191.60000610352</ele>
        <time>2022-10-29T05:56:54.000Z</time>
      </trkpt>
      <trkpt lat="47.35011" lon="3.08678">
        <ele>192.80000305176</ele>
        <time>2022-10-29T05:57:00.000Z</time>
      </trkpt>
      <trkpt lat="47.35015" lon="3.08689">
        <ele>193</ele>
        <time>2022-10-29T05:57:02.000Z</time>
      </trkpt>
      <trkpt lat="47.3502" lon="3.08714">
        <ele>193.80000305176</ele>
        <time>2022-10-29T05:57:06.000Z</time>
      </trkpt>
      <trkpt lat="47.35023" lon="3.08726">
        <ele>194</ele>
        <time>2022-10-29T05:57:08.000Z</time>
      </trkpt>
      <trkpt lat="47.3503" lon="3.08755">
        <ele>195</ele>
        <time>2022-10-29T05:57:13.000Z</time>
      </trkpt>
      <trkpt lat="47.35035" lon="3.08773">
        <ele>195.39999389648</ele>
        <time>2022-10-29T05:57:16.000Z</time>
      </trkpt>
      <trkpt lat="47.35044" lon="3.08795">
        <ele>196.19999694824</ele>
        <time>2022-10-29T05:57:20.000Z</time>
      </trkpt>
      <trkpt lat="47.35054" lon="3.08817">
        <ele>196.80000305176</ele>
        <time>2022-10-29T05:57:24.000Z</time>
      </trkpt>
      <trkpt lat="47.35065" lon="3.08838">
        <ele>197.19999694824</ele>
        <time>2022-10-29T05:57:28.000Z</time>
      </trkpt>
      <trkpt lat="47.35079" lon="3.08864">
        <ele>197.60000610352</ele>
        <time>2022-10-29T05:57:33.000Z</time>
      </trkpt>
      <trkpt lat="47.35092" lon="3.08891">
        <ele>198.39999389648</ele>
        <time>2022-10-29T05:57:38.000Z</time>
      </trkpt>
      <trkpt lat="47.35103" lon="3.08918">
        <ele>199.39999389648</ele>
        <time>2022-10-29T05:57:43.000Z</time>
      </trkpt>
      <trkpt lat="47.35105" lon="3.08923">
        <ele>199.60000610352</ele>
        <time>2022-10-29T05:57:44.000Z</time>
      </trkpt>
      <trkpt lat="47.35113" lon="3.08943">
        <ele>200.60000610352</ele>
        <time>2022-10-29T05:57:48.000Z</time>
      </trkpt>
      <trkpt lat="47.35117" lon="3.08952">
        <ele>200.80000305176</ele>
        <time>2022-10-29T05:57:50.000Z</time>
      </trkpt>
      <trkpt lat="47.35129" lon="3.0898">
        <ele>201.80000305176</ele>
        <time>2022-10-29T05:57:56.000Z</time>
      </trkpt>
      <trkpt lat="47.35136" lon="3.08995">
        <ele>202.19999694824</ele>
        <time>2022-10-29T05:57:59.000Z</time>
      </trkpt>
      <trkpt lat="47.35141" lon="3.09009">
        <ele>203</ele>
        <time>2022-10-29T05:58:02.000Z</time>
      </trkpt>
      <trkpt lat="47.35148" lon="3.09026">
        <ele>203.80000305176</ele>
        <time>2022-10-29T05:58:06.000Z</time>
      </trkpt>
      <trkpt lat="47.35151" lon="3.09035">
        <ele>204.39999389648</ele>
        <time>2022-10-29T05:58:08.000Z</time>
      </trkpt>
      <trkpt lat="47.35157" lon="3.09057">
        <ele>205.39999389648</ele>
        <time>2022-10-29T05:58:13.000Z</time>
      </trkpt>
      <trkpt lat="47.35159" lon="3.09063">
        <ele>205.80000305176</ele>
        <time>2022-10-29T05:58:14.000Z</time>
      </trkpt>
      <trkpt lat="47.35165" lon="3.09086">
        <ele>206.80000305176</ele>
        <time>2022-10-29T05:58:19.000Z</time>
      </trkpt>
      <trkpt lat="47.35167" lon="3.09093">
        <ele>207.19999694824</ele>
        <time>2022-10-29T05:58:21.000Z</time>
      </trkpt>
      <trkpt lat="47.3517" lon="3.09106">
        <ele>207.80000305176</ele>
        <time>2022-10-29T05:58:24.000Z</time>
      </trkpt>
      <trkpt lat="47.35174" lon="3.09125">
        <ele>209</ele>
        <time>2022-10-29T05:58:28.000Z</time>
      </trkpt>
      <trkpt lat="47.35175" lon="3.09128">
        <ele>209.39999389648</ele>
        <time>2022-10-29T05:58:29.000Z</time>
      </trkpt>
      <trkpt lat="47.35178" lon="3.09142">
        <ele>210.19999694824</ele>
        <time>2022-10-29T05:58:32.000Z</time>
      </trkpt>
      <trkpt lat="47.35181" lon="3.09164">
        <ele>211.60000610352</ele>
        <time>2022-10-29T05:58:37.000Z</time>
      </trkpt>
      <trkpt lat="47.35183" lon="3.09173">
        <ele>212</ele>
        <time>2022-10-29T05:58:39.000Z</time>
      </trkpt>
      <trkpt lat="47.35186" lon="3.09188">
        <ele>213</ele>
        <time>2022-10-29T05:58:42.000Z</time>
      </trkpt>
      <trkpt lat="47.3519" lon="3.09204">
        <ele>213.60000610352</ele>
        <time>2022-10-29T05:58:45.000Z</time>
      </trkpt>
      <trkpt lat="47.35193" lon="3.09217">
        <ele>214.19999694824</ele>
        <time>2022-10-29T05:58:48.000Z</time>
      </trkpt>
      <trkpt lat="47.35197" lon="3.0923">
        <ele>215.19999694824</ele>
        <time>2022-10-29T05:58:51.000Z</time>
      </trkpt>
      <trkpt lat="47.35198" lon="3.09236">
        <ele>215.60000610352</ele>
        <time>2022-10-29T05:58:52.000Z</time>
      </trkpt>
      <trkpt lat="47.35204" lon="3.09255">
        <ele>216.39999389648</ele>
        <time>2022-10-29T05:58:56.000Z</time>
      </trkpt>
      <trkpt lat="47.35211" lon="3.09273">
        <ele>216.80000305176</ele>
        <time>2022-10-29T05:59:00.000Z</time>
      </trkpt>
      <trkpt lat="47.35214" lon="3.09281">
        <ele>217.39999389648</ele>
        <time>2022-10-29T05:59:02.000Z</time>
      </trkpt>
      <trkpt lat="47.35226" lon="3.09305">
        <ele>218.60000610352</ele>
        <time>2022-10-29T05:59:08.000Z</time>
      </trkpt>
      <trkpt lat="47.35229" lon="3.0931">
        <ele>218.60000610352</ele>
        <time>2022-10-29T05:59:09.000Z</time>
      </trkpt>
      <trkpt lat="47.35237" lon="3.09327">
        <ele>219.60000610352</ele>
        <time>2022-10-29T05:59:13.000Z</time>
      </trkpt>
      <trkpt lat="47.35247" lon="3.09345">
        <ele>220</ele>
        <time>2022-10-29T05:59:17.000Z</time>
      </trkpt>
      <trkpt lat="47.35266" lon="3.09378">
        <ele>220.60000610352</ele>
        <time>2022-10-29T05:59:24.000Z</time>
      </trkpt>
      <trkpt lat="47.35268" lon="3.09383">
        <ele>220.60000610352</ele>
        <time>2022-10-29T05:59:25.000Z</time>
      </trkpt>
      <trkpt lat="47.35287" lon="3.09417">
        <ele>221</ele>
        <time>2022-10-29T05:59:32.000Z</time>
      </trkpt>
      <trkpt lat="47.3529" lon="3.09423">
        <ele>221</ele>
        <time>2022-10-29T05:59:33.000Z</time>
      </trkpt>
      <trkpt lat="47.35293" lon="3.09428">
        <ele>221</ele>
        <time>2022-10-29T05:59:34.000Z</time>
      </trkpt>
      <trkpt lat="47.35302" lon="3.09445">
        <ele>221</ele>
        <time>2022-10-29T05:59:38.000Z</time>
      </trkpt>
      <trkpt lat="47.35307" lon="3.09453">
        <ele>221</ele>
        <time>2022-10-29T05:59:40.000Z</time>
      </trkpt>
      <trkpt lat="47.35322" lon="3.09482">
        <ele>221</ele>
        <time>2022-10-29T05:59:46.000Z</time>
      </trkpt>
      <trkpt lat="47.35341" lon="3.09516">
        <ele>220.60000610352</ele>
        <time>2022-10-29T05:59:52.000Z</time>
      </trkpt>
      <trkpt lat="47.35345" lon="3.09523">
        <ele>220.60000610352</ele>
        <time>2022-10-29T05:59:53.000Z</time>
      </trkpt>
      <trkpt lat="47.3535" lon="3.09534">
        <ele>220.39999389648</ele>
        <time>2022-10-29T05:59:55.000Z</time>
      </trkpt>
      <trkpt lat="47.35358" lon="3.09547">
        <ele>220</ele>
        <time>2022-10-29T05:59:57.000Z</time>
      </trkpt>
      <trkpt lat="47.35378" lon="3.09586">
        <ele>219.39999389648</ele>
        <time>2022-10-29T06:00:03.000Z</time>
      </trkpt>
      <trkpt lat="47.35398" lon="3.09621">
        <ele>218.60000610352</ele>
        <time>2022-10-29T06:00:08.000Z</time>
      </trkpt>
      <trkpt lat="47.35405" lon="3.09633">
        <ele>218.39999389648</ele>
        <time>2022-10-29T06:00:10.000Z</time>
      </trkpt>
      <trkpt lat="47.3541" lon="3.09642">
        <ele>218.19999694824</ele>
        <time>2022-10-29T06:00:11.000Z</time>
      </trkpt>
      <trkpt lat="47.35429" lon="3.09678">
        <ele>217.19999694824</ele>
        <time>2022-10-29T06:00:16.000Z</time>
      </trkpt>
      <trkpt lat="47.35455" lon="3.09725">
        <ele>216.39999389648</ele>
        <time>2022-10-29T06:00:22.000Z</time>
      </trkpt>
      <trkpt lat="47.35459" lon="3.0973">
        <ele>216.19999694824</ele>
        <time>2022-10-29T06:00:23.000Z</time>
      </trkpt>
      <trkpt lat="47.35482" lon="3.09775">
        <ele>215.39999389648</ele>
        <time>2022-10-29T06:00:29.000Z</time>
      </trkpt>
      <trkpt lat="47.35491" lon="3.09791">
        <ele>215</ele>
        <time>2022-10-29T06:00:31.000Z</time>
      </trkpt>
      <trkpt lat="47.3551" lon="3.09827">
        <ele>215</ele>
        <time>2022-10-29T06:00:36.000Z</time>
      </trkpt>
      <trkpt lat="47.35541" lon="3.09882">
        <ele>215</ele>
        <time>2022-10-29T06:00:44.000Z</time>
      </trkpt>
      <trkpt lat="47.35577" lon="3.09947">
        <ele>214.80000305176</ele>
        <time>2022-10-29T06:00:53.000Z</time>
      </trkpt>
      <trkpt lat="47.3558" lon="3.09954">
        <ele>214.80000305176</ele>
        <time>2022-10-29T06:00:54.000Z</time>
      </trkpt>
      <trkpt lat="47.35616" lon="3.10019">
        <ele>214.60000610352</ele>
        <time>2022-10-29T06:01:03.000Z</time>
      </trkpt>
      <trkpt lat="47.35622" lon="3.10032">
        <ele>214.39999389648</ele>
        <time>2022-10-29T06:01:05.000Z</time>
      </trkpt>
      <trkpt lat="47.35656" lon="3.10093">
        <ele>214.19999694824</ele>
        <time>2022-10-29T06:01:14.000Z</time>
      </trkpt>
      <trkpt lat="47.35686" lon="3.10144">
        <ele>214.80000305176</ele>
        <time>2022-10-29T06:01:22.000Z</time>
      </trkpt>
      <trkpt lat="47.35709" lon="3.1019">
        <ele>215.39999389648</ele>
        <time>2022-10-29T06:01:29.000Z</time>
      </trkpt>
      <trkpt lat="47.35718" lon="3.1021">
        <ele>215.80000305176</ele>
        <time>2022-10-29T06:01:32.000Z</time>
      </trkpt>
      <trkpt lat="47.35729" lon="3.10228">
        <ele>216</ele>
        <time>2022-10-29T06:01:35.000Z</time>
      </trkpt>
      <trkpt lat="47.35733" lon="3.10234">
        <ele>216.19999694824</ele>
        <time>2022-10-29T06:01:36.000Z</time>
      </trkpt>
      <trkpt lat="47.3574" lon="3.10247">
        <ele>216.60000610352</ele>
        <time>2022-10-29T06:01:38.000Z</time>
      </trkpt>
      <trkpt lat="47.35747" lon="3.1026">
        <ele>217.19999694824</ele>
        <time>2022-10-29T06:01:40.000Z</time>
      </trkpt>
      <trkpt lat="47.35754" lon="3.10272">
        <ele>217.39999389648</ele>
        <time>2022-10-29T06:01:42.000Z</time>
      </trkpt>
      <trkpt lat="47.35761" lon="3.10284">
        <ele>217.60000610352</ele>
        <time>2022-10-29T06:01:44.000Z</time>
      </trkpt>
      <trkpt lat="47.35778" lon="3.10316">
        <ele>218</ele>
        <time>2022-10-29T06:01:49.000Z</time>
      </trkpt>
      <trkpt lat="47.35788" lon="3.10335">
        <ele>218.19999694824</ele>
        <time>2022-10-29T06:01:52.000Z</time>
      </trkpt>
      <trkpt lat="47.35814" lon="3.10384">
        <ele>219.39999389648</ele>
        <time>2022-10-29T06:02:00.000Z</time>
      </trkpt>
      <trkpt lat="47.35817" lon="3.10389">
        <ele>219.60000610352</ele>
        <time>2022-10-29T06:02:01.000Z</time>
      </trkpt>
      <trkpt lat="47.35826" lon="3.10407">
        <ele>220.60000610352</ele>
        <time>2022-10-29T06:02:04.000Z</time>
      </trkpt>
      <trkpt lat="47.35848" lon="3.10444">
        <ele>221.39999389648</ele>
        <time>2022-10-29T06:02:10.000Z</time>
      </trkpt>
      <trkpt lat="47.35854" lon="3.10456">
        <ele>221.60000610352</ele>
        <time>2022-10-29T06:02:12.000Z</time>
      </trkpt>
      <trkpt lat="47.35874" lon="3.10492">
        <ele>222.80000305176</ele>
        <time>2022-10-29T06:02:18.000Z</time>
      </trkpt>
      <trkpt lat="47.35878" lon="3.10497">
        <ele>223</ele>
        <time>2022-10-29T06:02:19.000Z</time>
      </trkpt>
      <trkpt lat="47.35888" lon="3.10515">
        <ele>223.19999694824</ele>
        <time>2022-10-29T06:02:22.000Z</time>
      </trkpt>
      <trkpt lat="47.35901" lon="3.1054">
        <ele>223.80000305176</ele>
        <time>2022-10-29T06:02:26.000Z</time>
      </trkpt>
      <trkpt lat="47.35926" lon="3.10589">
        <ele>225</ele>
        <time>2022-10-29T06:02:34.000Z</time>
      </trkpt>
      <trkpt lat="47.3593" lon="3.10594">
        <ele>225</ele>
        <time>2022-10-29T06:02:35.000Z</time>
      </trkpt>
      <trkpt lat="47.35948" lon="3.10627">
        <ele>225.39999389648</ele>
        <time>2022-10-29T06:02:41.000Z</time>
      </trkpt>
      <trkpt lat="47.35954" lon="3.10637">
        <ele>225.60000610352</ele>
        <time>2022-10-29T06:02:43.000Z</time>
      </trkpt>
      <trkpt lat="47.3596" lon="3.10645">
        <ele>225.80000305176</ele>
        <time>2022-10-29T06:02:45.000Z</time>
      </trkpt>
      <trkpt lat="47.35963" lon="3.1065">
        <ele>225.80000305176</ele>
        <time>2022-10-29T06:02:46.000Z</time>
      </trkpt>
      <trkpt lat="47.35968" lon="3.10658">
        <ele>226</ele>
        <time>2022-10-29T06:02:48.000Z</time>
      </trkpt>
      <trkpt lat="47.35973" lon="3.10663">
        <ele>226.19999694824</ele>
        <time>2022-10-29T06:02:50.000Z</time>
      </trkpt>
      <trkpt lat="47.35985" lon="3.10678">
        <ele>226.19999694824</ele>
        <time>2022-10-29T06:02:56.000Z</time>
      </trkpt>
      <trkpt lat="47.35991" lon="3.10689">
        <ele>226.19999694824</ele>
        <time>2022-10-29T06:03:01.000Z</time>
      </trkpt>
      <trkpt lat="47.35992" lon="3.10691">
        <ele>226.19999694824</ele>
        <time>2022-10-29T06:03:02.000Z</time>
      </trkpt>
      <trkpt lat="47.35994" lon="3.10695">
        <ele>226.19999694824</ele>
        <time>2022-10-29T06:03:05.000Z</time>
      </trkpt>
      <trkpt lat="47.36004" lon="3.10701">
        <ele>225.80000305176</ele>
        <time>2022-10-29T06:03:13.000Z</time>
      </trkpt>
      <trkpt lat="47.36006" lon="3.10703">
        <ele>225.80000305176</ele>
        <time>2022-10-29T06:03:14.000Z</time>
      </trkpt>
      <trkpt lat="47.3601" lon="3.10703">
        <ele>225.60000610352</ele>
        <time>2022-10-29T06:03:19.000Z</time>
      </trkpt>
      <trkpt lat="47.36013" lon="3.10703">
        <ele>225.60000610352</ele>
        <time>2022-10-29T06:03:21.000Z</time>
      </trkpt>
      <trkpt lat="47.36015" lon="3.10708">
        <ele>225.39999389648</ele>
        <time>2022-10-29T06:03:24.000Z</time>
      </trkpt>
      <trkpt lat="47.36024" lon="3.10715">
        <ele>225.19999694824</ele>
        <time>2022-10-29T06:03:31.000Z</time>
      </trkpt>
      <trkpt lat="47.36027" lon="3.10717">
        <ele>225</ele>
        <time>2022-10-29T06:03:34.000Z</time>
      </trkpt>
      <trkpt lat="47.3603" lon="3.10718">
        <ele>224.80000305176</ele>
        <time>2022-10-29T06:03:39.000Z</time>
      </trkpt>
      <trkpt lat="47.36035" lon="3.10722">
        <ele>224.19999694824</ele>
        <time>2022-10-29T06:04:00.000Z</time>
      </trkpt>
      <trkpt lat="47.36045" lon="3.1073">
        <ele>224</ele>
        <time>2022-10-29T06:04:05.000Z</time>
      </trkpt>
      <trkpt lat="47.36059" lon="3.10738">
        <ele>223.60000610352</ele>
        <time>2022-10-29T06:04:10.000Z</time>
      </trkpt>
      <trkpt lat="47.36079" lon="3.10752">
        <ele>223.19999694824</ele>
        <time>2022-10-29T06:04:16.000Z</time>
      </trkpt>
      <trkpt lat="47.36082" lon="3.10755">
        <ele>223</ele>
        <time>2022-10-29T06:04:17.000Z</time>
      </trkpt>
      <trkpt lat="47.361" lon="3.10766">
        <ele>222.39999389648</ele>
        <time>2022-10-29T06:04:21.000Z</time>
      </trkpt>
      <trkpt lat="47.36104" lon="3.1077">
        <ele>222</ele>
        <time>2022-10-29T06:04:22.000Z</time>
      </trkpt>
      <trkpt lat="47.36126" lon="3.10785">
        <ele>221</ele>
        <time>2022-10-29T06:04:26.000Z</time>
      </trkpt>
      <trkpt lat="47.36133" lon="3.10789">
        <ele>220.80000305176</ele>
        <time>2022-10-29T06:04:27.000Z</time>
      </trkpt>
      <trkpt lat="47.36153" lon="3.10804">
        <ele>219.80000305176</ele>
        <time>2022-10-29T06:04:30.000Z</time>
      </trkpt>
      <trkpt lat="47.36161" lon="3.10809">
        <ele>219.19999694824</ele>
        <time>2022-10-29T06:04:31.000Z</time>
      </trkpt>
      <trkpt lat="47.36175" lon="3.10818">
        <ele>218.19999694824</ele>
        <time>2022-10-29T06:04:33.000Z</time>
      </trkpt>
      <trkpt lat="47.3619" lon="3.10829">
        <ele>217.19999694824</ele>
        <time>2022-10-29T06:04:35.000Z</time>
      </trkpt>
      <trkpt lat="47.36221" lon="3.10849">
        <ele>216</ele>
        <time>2022-10-29T06:04:39.000Z</time>
      </trkpt>
      <trkpt lat="47.36229" lon="3.10855">
        <ele>215.39999389648</ele>
        <time>2022-10-29T06:04:40.000Z</time>
      </trkpt>
      <trkpt lat="47.36245" lon="3.10866">
        <ele>214.60000610352</ele>
        <time>2022-10-29T06:04:42.000Z</time>
      </trkpt>
      <trkpt lat="47.36261" lon="3.10877">
        <ele>213</ele>
        <time>2022-10-29T06:04:44.000Z</time>
      </trkpt>
      <trkpt lat="47.36277" lon="3.10887">
        <ele>211.80000305176</ele>
        <time>2022-10-29T06:04:46.000Z</time>
      </trkpt>
      <trkpt lat="47.36293" lon="3.10898">
        <ele>210.60000610352</ele>
        <time>2022-10-29T06:04:48.000Z</time>
      </trkpt>
      <trkpt lat="47.36301" lon="3.10904">
        <ele>210</ele>
        <time>2022-10-29T06:04:49.000Z</time>
      </trkpt>
      <trkpt lat="47.3631" lon="3.10909">
        <ele>209.39999389648</ele>
        <time>2022-10-29T06:04:50.000Z</time>
      </trkpt>
      <trkpt lat="47.36326" lon="3.1092">
        <ele>208</ele>
        <time>2022-10-29T06:04:52.000Z</time>
      </trkpt>
      <trkpt lat="47.36343" lon="3.10931">
        <ele>206.60000610352</ele>
        <time>2022-10-29T06:04:54.000Z</time>
      </trkpt>
      <trkpt lat="47.3636" lon="3.10942">
        <ele>205.39999389648</ele>
        <time>2022-10-29T06:04:56.000Z</time>
      </trkpt>
      <trkpt lat="47.36375" lon="3.10953">
        <ele>204.60000610352</ele>
        <time>2022-10-29T06:04:58.000Z</time>
      </trkpt>
      <trkpt lat="47.36382" lon="3.10959">
        <ele>203.80000305176</ele>
        <time>2022-10-29T06:04:59.000Z</time>
      </trkpt>
      <trkpt lat="47.36397" lon="3.10971">
        <ele>202.60000610352</ele>
        <time>2022-10-29T06:05:02.000Z</time>
      </trkpt>
      <trkpt lat="47.36404" lon="3.10976">
        <ele>202.19999694824</ele>
        <time>2022-10-29T06:05:05.000Z</time>
      </trkpt>
      <trkpt lat="47.36421" lon="3.10987">
        <ele>202.19999694824</ele>
        <time>2022-10-29T06:05:11.000Z</time>
      </trkpt>
      <trkpt lat="47.36445" lon="3.11002">
        <ele>203.39999389648</ele>
        <time>2022-10-29T06:05:19.000Z</time>
      </trkpt>
      <trkpt lat="47.36452" lon="3.11005">
        <ele>203.80000305176</ele>
        <time>2022-10-29T06:05:21.000Z</time>
      </trkpt>
      <trkpt lat="47.36462" lon="3.1101">
        <ele>204.80000305176</ele>
        <time>2022-10-29T06:05:24.000Z</time>
      </trkpt>
      <trkpt lat="47.36466" lon="3.11011">
        <ele>205</ele>
        <time>2022-10-29T06:05:25.000Z</time>
      </trkpt>
      <trkpt lat="47.36489" lon="3.11019">
        <ele>206</ele>
        <time>2022-10-29T06:05:31.000Z</time>
      </trkpt>
      <trkpt lat="47.36493" lon="3.1102">
        <ele>206</ele>
        <time>2022-10-29T06:05:32.000Z</time>
      </trkpt>
      <trkpt lat="47.36515" lon="3.11032">
        <ele>206.80000305176</ele>
        <time>2022-10-29T06:05:39.000Z</time>
      </trkpt>
      <trkpt lat="47.36528" lon="3.11041">
        <ele>207</ele>
        <time>2022-10-29T06:05:43.000Z</time>
      </trkpt>
      <trkpt lat="47.36539" lon="3.11049">
        <ele>207</ele>
        <time>2022-10-29T06:05:46.000Z</time>
      </trkpt>
      <trkpt lat="47.36559" lon="3.11067">
        <ele>207</ele>
        <time>2022-10-29T06:05:51.000Z</time>
      </trkpt>
      <trkpt lat="47.36562" lon="3.1107">
        <ele>207</ele>
        <time>2022-10-29T06:05:52.000Z</time>
      </trkpt>
      <trkpt lat="47.36581" lon="3.11084">
        <ele>207.19999694824</ele>
        <time>2022-10-29T06:05:57.000Z</time>
      </trkpt>
      <trkpt lat="47.36605" lon="3.11096">
        <ele>207.80000305176</ele>
        <time>2022-10-29T06:06:04.000Z</time>
      </trkpt>
      <trkpt lat="47.36611" lon="3.111">
        <ele>208</ele>
        <time>2022-10-29T06:06:06.000Z</time>
      </trkpt>
      <trkpt lat="47.36614" lon="3.11106">
        <ele>208.39999389648</ele>
        <time>2022-10-29T06:06:08.000Z</time>
      </trkpt>
      <trkpt lat="47.36624" lon="3.11124">
        <ele>208.60000610352</ele>
        <time>2022-10-29T06:06:13.000Z</time>
      </trkpt>
      <trkpt lat="47.36643" lon="3.11158">
        <ele>208.80000305176</ele>
        <time>2022-10-29T06:06:21.000Z</time>
      </trkpt>
      <trkpt lat="47.36664" lon="3.11183">
        <ele>208.60000610352</ele>
        <time>2022-10-29T06:06:27.000Z</time>
      </trkpt>
      <trkpt lat="47.36691" lon="3.11211">
        <ele>208</ele>
        <time>2022-10-29T06:06:34.000Z</time>
      </trkpt>
      <trkpt lat="47.36695" lon="3.11214">
        <ele>207.80000305176</ele>
        <time>2022-10-29T06:06:35.000Z</time>
      </trkpt>
      <trkpt lat="47.36698" lon="3.11219">
        <ele>207.80000305176</ele>
        <time>2022-10-29T06:06:36.000Z</time>
      </trkpt>
      <trkpt lat="47.3671" lon="3.11234">
        <ele>207.80000305176</ele>
        <time>2022-10-29T06:06:39.000Z</time>
      </trkpt>
      <trkpt lat="47.36714" lon="3.1124">
        <ele>207.60000610352</ele>
        <time>2022-10-29T06:06:40.000Z</time>
      </trkpt>
      <trkpt lat="47.36732" lon="3.11263">
        <ele>207</ele>
        <time>2022-10-29T06:06:44.000Z</time>
      </trkpt>
      <trkpt lat="47.36742" lon="3.11274">
        <ele>206.60000610352</ele>
        <time>2022-10-29T06:06:46.000Z</time>
      </trkpt>
      <trkpt lat="47.36756" lon="3.11292">
        <ele>206</ele>
        <time>2022-10-29T06:06:49.000Z</time>
      </trkpt>
      <trkpt lat="47.36783" lon="3.11324">
        <ele>205</ele>
        <time>2022-10-29T06:06:55.000Z</time>
      </trkpt>
      <trkpt lat="47.36787" lon="3.11328">
        <ele>204.80000305176</ele>
        <time>2022-10-29T06:06:56.000Z</time>
      </trkpt>
      <trkpt lat="47.36795" lon="3.11338">
        <ele>204.60000610352</ele>
        <time>2022-10-29T06:06:58.000Z</time>
      </trkpt>
      <trkpt lat="47.36798" lon="3.11344">
        <ele>204.39999389648</ele>
        <time>2022-10-29T06:06:59.000Z</time>
      </trkpt>
      <trkpt lat="47.36807" lon="3.11355">
        <ele>204.39999389648</ele>
        <time>2022-10-29T06:07:01.000Z</time>
      </trkpt>
      <trkpt lat="47.36819" lon="3.11371">
        <ele>203.80000305176</ele>
        <time>2022-10-29T06:07:04.000Z</time>
      </trkpt>
      <trkpt lat="47.36831" lon="3.11385">
        <ele>203.39999389648</ele>
        <time>2022-10-29T06:07:07.000Z</time>
      </trkpt>
      <trkpt lat="47.3684" lon="3.11395">
        <ele>203</ele>
        <time>2022-10-29T06:07:09.000Z</time>
      </trkpt>
      <trkpt lat="47.36848" lon="3.11407">
        <ele>202.80000305176</ele>
        <time>2022-10-29T06:07:11.000Z</time>
      </trkpt>
      <trkpt lat="47.36859" lon="3.11422">
        <ele>202.39999389648</ele>
        <time>2022-10-29T06:07:14.000Z</time>
      </trkpt>
      <trkpt lat="47.36862" lon="3.11428">
        <ele>202.39999389648</ele>
        <time>2022-10-29T06:07:15.000Z</time>
      </trkpt>
      <trkpt lat="47.36879" lon="3.11449">
        <ele>202.39999389648</ele>
        <time>2022-10-29T06:07:20.000Z</time>
      </trkpt>
      <trkpt lat="47.36898" lon="3.11474">
        <ele>202.80000305176</ele>
        <time>2022-10-29T06:07:26.000Z</time>
      </trkpt>
      <trkpt lat="47.36923" lon="3.11508">
        <ele>202.39999389648</ele>
        <time>2022-10-29T06:07:33.000Z</time>
      </trkpt>
      <trkpt lat="47.36943" lon="3.11534">
        <ele>202</ele>
        <time>2022-10-29T06:07:38.000Z</time>
      </trkpt>
      <trkpt lat="47.36953" lon="3.11551">
        <ele>201.80000305176</ele>
        <time>2022-10-29T06:07:41.000Z</time>
      </trkpt>
      <trkpt lat="47.36962" lon="3.11568">
        <ele>201.60000610352</ele>
        <time>2022-10-29T06:07:44.000Z</time>
      </trkpt>
      <trkpt lat="47.36982" lon="3.11604">
        <ele>202.39999389648</ele>
        <time>2022-10-29T06:07:51.000Z</time>
      </trkpt>
      <trkpt lat="47.36989" lon="3.11621">
        <ele>202.80000305176</ele>
        <time>2022-10-29T06:07:54.000Z</time>
      </trkpt>
      <trkpt lat="47.37" lon="3.11641">
        <ele>203.19999694824</ele>
        <time>2022-10-29T06:07:58.000Z</time>
      </trkpt>
      <trkpt lat="47.37009" lon="3.11657">
        <ele>203.80000305176</ele>
        <time>2022-10-29T06:08:02.000Z</time>
      </trkpt>
      <trkpt lat="47.37011" lon="3.1166">
        <ele>204</ele>
        <time>2022-10-29T06:08:03.000Z</time>
      </trkpt>
      <trkpt lat="47.37019" lon="3.11674">
        <ele>204.60000610352</ele>
        <time>2022-10-29T06:08:08.000Z</time>
      </trkpt>
      <trkpt lat="47.37026" lon="3.11701">
        <ele>204.80000305176</ele>
        <time>2022-10-29T06:08:13.000Z</time>
      </trkpt>
      <trkpt lat="47.37028" lon="3.11707">
        <ele>204.80000305176</ele>
        <time>2022-10-29T06:08:14.000Z</time>
      </trkpt>
      <trkpt lat="47.37037" lon="3.11744">
        <ele>205</ele>
        <time>2022-10-29T06:08:19.000Z</time>
      </trkpt>
      <trkpt lat="47.37046" lon="3.11784">
        <ele>204.80000305176</ele>
        <time>2022-10-29T06:08:26.000Z</time>
      </trkpt>
      <trkpt lat="47.37049" lon="3.11798">
        <ele>204.80000305176</ele>
        <time>2022-10-29T06:08:31.000Z</time>
      </trkpt>
      <trkpt lat="47.37054" lon="3.1182">
        <ele>204.80000305176</ele>
        <time>2022-10-29T06:08:36.000Z</time>
      </trkpt>
      <trkpt lat="47.37055" lon="3.11826">
        <ele>204.80000305176</ele>
        <time>2022-10-29T06:08:37.000Z</time>
      </trkpt>
      <trkpt lat="47.3706" lon="3.11847">
        <ele>204.80000305176</ele>
        <time>2022-10-29T06:08:40.000Z</time>
      </trkpt>
      <trkpt lat="47.37062" lon="3.11854">
        <ele>204.80000305176</ele>
        <time>2022-10-29T06:08:41.000Z</time>
      </trkpt>
      <trkpt lat="47.37066" lon="3.1187">
        <ele>204.80000305176</ele>
        <time>2022-10-29T06:08:43.000Z</time>
      </trkpt>
      <trkpt lat="47.37071" lon="3.11895">
        <ele>204.60000610352</ele>
        <time>2022-10-29T06:08:46.000Z</time>
      </trkpt>
      <trkpt lat="47.37083" lon="3.11944">
        <ele>204.19999694824</ele>
        <time>2022-10-29T06:08:52.000Z</time>
      </trkpt>
      <trkpt lat="47.3709" lon="3.11969">
        <ele>203.80000305176</ele>
        <time>2022-10-29T06:08:55.000Z</time>
      </trkpt>
      <trkpt lat="47.37097" lon="3.12003">
        <ele>203.60000610352</ele>
        <time>2022-10-29T06:08:59.000Z</time>
      </trkpt>
      <trkpt lat="47.37117" lon="3.12082">
        <ele>203</ele>
        <time>2022-10-29T06:09:09.000Z</time>
      </trkpt>
      <trkpt lat="47.37118" lon="3.12089">
        <ele>203</ele>
        <time>2022-10-29T06:09:10.000Z</time>
      </trkpt>
      <trkpt lat="47.37122" lon="3.12107">
        <ele>202.80000305176</ele>
        <time>2022-10-29T06:09:13.000Z</time>
      </trkpt>
      <trkpt lat="47.37124" lon="3.12113">
        <ele>202.80000305176</ele>
        <time>2022-10-29T06:09:14.000Z</time>
      </trkpt>
      <trkpt lat="47.37125" lon="3.1212">
        <ele>202.80000305176</ele>
        <time>2022-10-29T06:09:15.000Z</time>
      </trkpt>
      <trkpt lat="47.37126" lon="3.12134">
        <ele>202.60000610352</ele>
        <time>2022-10-29T06:09:17.000Z</time>
      </trkpt>
      <trkpt lat="47.37126" lon="3.12149">
        <ele>202.60000610352</ele>
        <time>2022-10-29T06:09:19.000Z</time>
      </trkpt>
      <trkpt lat="47.37126" lon="3.12179">
        <ele>202.39999389648</ele>
        <time>2022-10-29T06:09:23.000Z</time>
      </trkpt>
      <trkpt lat="47.37123" lon="3.122">
        <ele>202</ele>
        <time>2022-10-29T06:09:26.000Z</time>
      </trkpt>
      <trkpt lat="47.3712" lon="3.12222">
        <ele>201.60000610352</ele>
        <time>2022-10-29T06:09:29.000Z</time>
      </trkpt>
      <trkpt lat="47.37115" lon="3.12241">
        <ele>201.39999389648</ele>
        <time>2022-10-29T06:09:32.000Z</time>
      </trkpt>
      <trkpt lat="47.37109" lon="3.12258">
        <ele>201.39999389648</ele>
        <time>2022-10-29T06:09:35.000Z</time>
      </trkpt>
      <trkpt lat="47.37107" lon="3.12271">
        <ele>201.19999694824</ele>
        <time>2022-10-29T06:09:37.000Z</time>
      </trkpt>
      <trkpt lat="47.37107" lon="3.12278">
        <ele>201.19999694824</ele>
        <time>2022-10-29T06:09:38.000Z</time>
      </trkpt>
      <trkpt lat="47.3711" lon="3.12291">
        <ele>201.19999694824</ele>
        <time>2022-10-29T06:09:40.000Z</time>
      </trkpt>
      <trkpt lat="47.3711" lon="3.12299">
        <ele>201.19999694824</ele>
        <time>2022-10-29T06:09:41.000Z</time>
      </trkpt>
      <trkpt lat="47.37109" lon="3.12313">
        <ele>201.19999694824</ele>
        <time>2022-10-29T06:09:43.000Z</time>
      </trkpt>
      <trkpt lat="47.37108" lon="3.12326">
        <ele>201</ele>
        <time>2022-10-29T06:09:45.000Z</time>
      </trkpt>
      <trkpt lat="47.37115" lon="3.12345">
        <ele>200.80000305176</ele>
        <time>2022-10-29T06:09:49.000Z</time>
      </trkpt>
      <trkpt lat="47.37118" lon="3.12349">
        <ele>200.60000610352</ele>
        <time>2022-10-29T06:09:50.000Z</time>
      </trkpt>
      <trkpt lat="47.37125" lon="3.12362">
        <ele>200.39999389648</ele>
        <time>2022-10-29T06:09:54.000Z</time>
      </trkpt>
      <trkpt lat="47.3713" lon="3.12376">
        <ele>200</ele>
        <time>2022-10-29T06:09:59.000Z</time>
      </trkpt>
      <trkpt lat="47.37132" lon="3.12381">
        <ele>200</ele>
        <time>2022-10-29T06:10:02.000Z</time>
      </trkpt>
      <trkpt lat="47.37136" lon="3.12386">
        <ele>200</ele>
        <time>2022-10-29T06:10:04.000Z</time>
      </trkpt>
      <trkpt lat="47.37146" lon="3.12408">
        <ele>199.80000305176</ele>
        <time>2022-10-29T06:10:08.000Z</time>
      </trkpt>
      <trkpt lat="47.37151" lon="3.1242">
        <ele>199.60000610352</ele>
        <time>2022-10-29T06:10:10.000Z</time>
      </trkpt>
      <trkpt lat="47.37161" lon="3.12446">
        <ele>199.60000610352</ele>
        <time>2022-10-29T06:10:14.000Z</time>
      </trkpt>
      <trkpt lat="47.37163" lon="3.12452">
        <ele>199.60000610352</ele>
        <time>2022-10-29T06:10:15.000Z</time>
      </trkpt>
      <trkpt lat="47.37167" lon="3.12463">
        <ele>199.60000610352</ele>
        <time>2022-10-29T06:10:17.000Z</time>
      </trkpt>
      <trkpt lat="47.37172" lon="3.12474">
        <ele>199.60000610352</ele>
        <time>2022-10-29T06:10:19.000Z</time>
      </trkpt>
      <trkpt lat="47.37187" lon="3.12506">
        <ele>199.80000305176</ele>
        <time>2022-10-29T06:10:26.000Z</time>
      </trkpt>
      <trkpt lat="47.37184" lon="3.12514">
        <ele>199.80000305176</ele>
        <time>2022-10-29T06:10:31.000Z</time>
      </trkpt>
      <trkpt lat="47.37183" lon="3.12515">
        <ele>199.80000305176</ele>
        <time>2022-10-29T06:10:32.000Z</time>
      </trkpt>
      <trkpt lat="47.37181" lon="3.12516">
        <ele>199.80000305176</ele>
        <time>2022-10-29T06:10:33.000Z</time>
      </trkpt>
      <trkpt lat="47.37177" lon="3.12515">
        <ele>200</ele>
        <time>2022-10-29T06:10:35.000Z</time>
      </trkpt>
      <trkpt lat="47.37173" lon="3.12513">
        <ele>200</ele>
        <time>2022-10-29T06:10:37.000Z</time>
      </trkpt>
      <trkpt lat="47.37171" lon="3.12515">
        <ele>200</ele>
        <time>2022-10-29T06:10:39.000Z</time>
      </trkpt>
      <trkpt lat="47.37171" lon="3.12516">
        <ele>200</ele>
        <time>2022-10-29T06:10:41.000Z</time>
      </trkpt>
      <trkpt lat="47.37171" lon="3.12516">
        <ele>200</ele>
        <time>2022-10-29T06:10:48.000Z</time>
      </trkpt>
      <trkpt lat="47.37171" lon="3.12516">
        <ele>199.80000305176</ele>
        <time>2022-10-29T06:11:00.000Z</time>
      </trkpt>
      <trkpt lat="47.37171" lon="3.12517">
        <ele>200</ele>
        <time>2022-10-29T06:19:22.000Z</time>
      </trkpt>
      <trkpt lat="47.37171" lon="3.12517">
        <ele>200</ele>
        <time>2022-10-29T06:19:45.000Z</time>
      </trkpt>
      <trkpt lat="47.37175" lon="3.12513">
        <ele>200</ele>
        <time>2022-10-29T06:19:48.000Z</time>
      </trkpt>
      <trkpt lat="47.3718" lon="3.12506">
        <ele>199.80000305176</ele>
        <time>2022-10-29T06:19:53.000Z</time>
      </trkpt>
      <trkpt lat="47.37182" lon="3.12505">
        <ele>200</ele>
        <time>2022-10-29T06:19:55.000Z</time>
      </trkpt>
      <trkpt lat="47.37183" lon="3.12504">
        <ele>200</ele>
        <time>2022-10-29T06:20:02.000Z</time>
      </trkpt>
      <trkpt lat="47.37184" lon="3.125">
        <ele>200</ele>
        <time>2022-10-29T06:20:04.000Z</time>
      </trkpt>
      <trkpt lat="47.3718" lon="3.12489">
        <ele>200</ele>
        <time>2022-10-29T06:20:09.000Z</time>
      </trkpt>
      <trkpt lat="47.37173" lon="3.12474">
        <ele>200</ele>
        <time>2022-10-29T06:20:15.000Z</time>
      </trkpt>
      <trkpt lat="47.37165" lon="3.12455">
        <ele>200</ele>
        <time>2022-10-29T06:20:20.000Z</time>
      </trkpt>
      <trkpt lat="47.37154" lon="3.12431">
        <ele>200</ele>
        <time>2022-10-29T06:20:25.000Z</time>
      </trkpt>
      <trkpt lat="47.3715" lon="3.1242">
        <ele>200</ele>
        <time>2022-10-29T06:20:27.000Z</time>
      </trkpt>
      <trkpt lat="47.37143" lon="3.12403">
        <ele>199.80000305176</ele>
        <time>2022-10-29T06:20:30.000Z</time>
      </trkpt>
      <trkpt lat="47.37141" lon="3.12398">
        <ele>199.80000305176</ele>
        <time>2022-10-29T06:20:31.000Z</time>
      </trkpt>
      <trkpt lat="47.37132" lon="3.12381">
        <ele>200</ele>
        <time>2022-10-29T06:20:34.000Z</time>
      </trkpt>
      <trkpt lat="47.3713" lon="3.12375">
        <ele>199.80000305176</ele>
        <time>2022-10-29T06:20:35.000Z</time>
      </trkpt>
      <trkpt lat="47.37127" lon="3.1237">
        <ele>199.80000305176</ele>
        <time>2022-10-29T06:20:36.000Z</time>
      </trkpt>
      <trkpt lat="47.37117" lon="3.12354">
        <ele>200</ele>
        <time>2022-10-29T06:20:39.000Z</time>
      </trkpt>
      <trkpt lat="47.37111" lon="3.12343">
        <ele>200.19999694824</ele>
        <time>2022-10-29T06:20:41.000Z</time>
      </trkpt>
      <trkpt lat="47.37107" lon="3.12325">
        <ele>200.60000610352</ele>
        <time>2022-10-29T06:20:44.000Z</time>
      </trkpt>
      <trkpt lat="47.37107" lon="3.12318">
        <ele>200.80000305176</ele>
        <time>2022-10-29T06:20:45.000Z</time>
      </trkpt>
      <trkpt lat="47.37109" lon="3.12294">
        <ele>201</ele>
        <time>2022-10-29T06:20:48.000Z</time>
      </trkpt>
      <trkpt lat="47.37109" lon="3.12286">
        <ele>201</ele>
        <time>2022-10-29T06:20:49.000Z</time>
      </trkpt>
      <trkpt lat="47.37109" lon="3.12265">
        <ele>201.39999389648</ele>
        <time>2022-10-29T06:20:52.000Z</time>
      </trkpt>
      <trkpt lat="47.3711" lon="3.12258">
        <ele>201.39999389648</ele>
        <time>2022-10-29T06:20:53.000Z</time>
      </trkpt>
      <trkpt lat="47.37116" lon="3.12229">
        <ele>201.60000610352</ele>
        <time>2022-10-29T06:20:57.000Z</time>
      </trkpt>
      <trkpt lat="47.37121" lon="3.12207">
        <ele>201.80000305176</ele>
        <time>2022-10-29T06:21:00.000Z</time>
      </trkpt>
      <trkpt lat="47.37126" lon="3.12165">
        <ele>202</ele>
        <time>2022-10-29T06:21:06.000Z</time>
      </trkpt>
      <trkpt lat="47.37127" lon="3.12152">
        <ele>202.19999694824</ele>
        <time>2022-10-29T06:21:08.000Z</time>
      </trkpt>
      <trkpt lat="47.37125" lon="3.121">
        <ele>202.60000610352</ele>
        <time>2022-10-29T06:21:15.000Z</time>
      </trkpt>
      <trkpt lat="47.37123" lon="3.12085">
        <ele>203</ele>
        <time>2022-10-29T06:21:17.000Z</time>
      </trkpt>
      <trkpt lat="47.3712" lon="3.12069">
        <ele>203.19999694824</ele>
        <time>2022-10-29T06:21:19.000Z</time>
      </trkpt>
      <trkpt lat="47.37119" lon="3.12061">
        <ele>203.19999694824</ele>
        <time>2022-10-29T06:21:20.000Z</time>
      </trkpt>
      <trkpt lat="47.37105" lon="3.12003">
        <ele>203.60000610352</ele>
        <time>2022-10-29T06:21:28.000Z</time>
      </trkpt>
      <trkpt lat="47.37091" lon="3.11944">
        <ele>204.19999694824</ele>
        <time>2022-10-29T06:21:36.000Z</time>
      </trkpt>
      <trkpt lat="47.37074" lon="3.11874">
        <ele>204.60000610352</ele>
        <time>2022-10-29T06:21:45.000Z</time>
      </trkpt>
      <trkpt lat="47.3706" lon="3.11819">
        <ele>205</ele>
        <time>2022-10-29T06:21:52.000Z</time>
      </trkpt>
      <trkpt lat="47.37057" lon="3.11803">
        <ele>205.19999694824</ele>
        <time>2022-10-29T06:21:54.000Z</time>
      </trkpt>
      <trkpt lat="47.37049" lon="3.11772">
        <ele>205.39999389648</ele>
        <time>2022-10-29T06:21:58.000Z</time>
      </trkpt>
      <trkpt lat="47.3703" lon="3.11699">
        <ele>205.39999389648</ele>
        <time>2022-10-29T06:22:07.000Z</time>
      </trkpt>
      <trkpt lat="47.37022" lon="3.11641">
        <ele>205.39999389648</ele>
        <time>2022-10-29T06:22:14.000Z</time>
      </trkpt>
      <trkpt lat="47.37023" lon="3.11562">
        <ele>205.60000610352</ele>
        <time>2022-10-29T06:22:23.000Z</time>
      </trkpt>
      <trkpt lat="47.37024" lon="3.11516">
        <ele>205.39999389648</ele>
        <time>2022-10-29T06:22:28.000Z</time>
      </trkpt>
      <trkpt lat="47.37026" lon="3.11507">
        <ele>205.39999389648</ele>
        <time>2022-10-29T06:22:29.000Z</time>
      </trkpt>
      <trkpt lat="47.37029" lon="3.115">
        <ele>205.19999694824</ele>
        <time>2022-10-29T06:22:30.000Z</time>
      </trkpt>
      <trkpt lat="47.37039" lon="3.11489">
        <ele>205.19999694824</ele>
        <time>2022-10-29T06:22:32.000Z</time>
      </trkpt>
      <trkpt lat="47.3706" lon="3.11485">
        <ele>205.60000610352</ele>
        <time>2022-10-29T06:22:36.000Z</time>
      </trkpt>
      <trkpt lat="47.37084" lon="3.11482">
        <ele>206.19999694824</ele>
        <time>2022-10-29T06:22:41.000Z</time>
      </trkpt>
      <trkpt lat="47.37103" lon="3.11479">
        <ele>207.39999389648</ele>
        <time>2022-10-29T06:22:45.000Z</time>
      </trkpt>
      <trkpt lat="47.37121" lon="3.11476">
        <ele>208</ele>
        <time>2022-10-29T06:22:49.000Z</time>
      </trkpt>
      <trkpt lat="47.3713" lon="3.11475">
        <ele>208.39999389648</ele>
        <time>2022-10-29T06:22:51.000Z</time>
      </trkpt>
      <trkpt lat="47.37159" lon="3.11471">
        <ele>209.39999389648</ele>
        <time>2022-10-29T06:22:57.000Z</time>
      </trkpt>
      <trkpt lat="47.37193" lon="3.11464">
        <ele>210.60000610352</ele>
        <time>2022-10-29T06:23:04.000Z</time>
      </trkpt>
      <trkpt lat="47.37198" lon="3.11462">
        <ele>211</ele>
        <time>2022-10-29T06:23:05.000Z</time>
      </trkpt>
      <trkpt lat="47.37249" lon="3.11443">
        <ele>211.60000610352</ele>
        <time>2022-10-29T06:23:15.000Z</time>
      </trkpt>
      <trkpt lat="47.37259" lon="3.11437">
        <ele>211.80000305176</ele>
        <time>2022-10-29T06:23:17.000Z</time>
      </trkpt>
      <trkpt lat="47.37289" lon="3.11418">
        <ele>212</ele>
        <time>2022-10-29T06:23:23.000Z</time>
      </trkpt>
      <trkpt lat="47.37328" lon="3.11382">
        <ele>212.60000610352</ele>
        <time>2022-10-29T06:23:31.000Z</time>
      </trkpt>
      <trkpt lat="47.37341" lon="3.11369">
        <ele>212.80000305176</ele>
        <time>2022-10-29T06:23:34.000Z</time>
      </trkpt>
      <trkpt lat="47.37365" lon="3.11351">
        <ele>213.19999694824</ele>
        <time>2022-10-29T06:23:39.000Z</time>
      </trkpt>
      <trkpt lat="47.37412" lon="3.11333">
        <ele>213</ele>
        <time>2022-10-29T06:23:47.000Z</time>
      </trkpt>
      <trkpt lat="47.37458" lon="3.1132">
        <ele>212.19999694824</ele>
        <time>2022-10-29T06:23:54.000Z</time>
      </trkpt>
      <trkpt lat="47.37498" lon="3.11309">
        <ele>211.80000305176</ele>
        <time>2022-10-29T06:24:00.000Z</time>
      </trkpt>
      <trkpt lat="47.37522" lon="3.11302">
        <ele>211.60000610352</ele>
        <time>2022-10-29T06:24:04.000Z</time>
      </trkpt>
      <trkpt lat="47.37579" lon="3.11287">
        <ele>211.60000610352</ele>
        <time>2022-10-29T06:24:13.000Z</time>
      </trkpt>
      <trkpt lat="47.37597" lon="3.11282">
        <ele>211.60000610352</ele>
        <time>2022-10-29T06:24:16.000Z</time>
      </trkpt>
      <trkpt lat="47.37652" lon="3.11266">
        <ele>211.60000610352</ele>
        <time>2022-10-29T06:24:25.000Z</time>
      </trkpt>
      <trkpt lat="47.3767" lon="3.11261">
        <ele>211.60000610352</ele>
        <time>2022-10-29T06:24:28.000Z</time>
      </trkpt>
      <trkpt lat="47.37713" lon="3.11248">
        <ele>211.60000610352</ele>
        <time>2022-10-29T06:24:34.000Z</time>
      </trkpt>
      <trkpt lat="47.3777" lon="3.11232">
        <ele>211.19999694824</ele>
        <time>2022-10-29T06:24:43.000Z</time>
      </trkpt>
      <trkpt lat="47.37802" lon="3.11223">
        <ele>210.80000305176</ele>
        <time>2022-10-29T06:24:48.000Z</time>
      </trkpt>
      <trkpt lat="47.37809" lon="3.11221">
        <ele>210.80000305176</ele>
        <time>2022-10-29T06:24:49.000Z</time>
      </trkpt>
      <trkpt lat="47.37867" lon="3.11204">
        <ele>210.39999389648</ele>
        <time>2022-10-29T06:24:58.000Z</time>
      </trkpt>
      <trkpt lat="47.37885" lon="3.112">
        <ele>210.39999389648</ele>
        <time>2022-10-29T06:25:01.000Z</time>
      </trkpt>
      <trkpt lat="47.37928" lon="3.11186">
        <ele>211</ele>
        <time>2022-10-29T06:25:09.000Z</time>
      </trkpt>
      <trkpt lat="47.37963" lon="3.11177">
        <ele>212</ele>
        <time>2022-10-29T06:25:16.000Z</time>
      </trkpt>
      <trkpt lat="47.37983" lon="3.11172">
        <ele>212.60000610352</ele>
        <time>2022-10-29T06:25:20.000Z</time>
      </trkpt>
      <trkpt lat="47.37998" lon="3.11168">
        <ele>213</ele>
        <time>2022-10-29T06:25:23.000Z</time>
      </trkpt>
      <trkpt lat="47.38038" lon="3.11155">
        <ele>214.19999694824</ele>
        <time>2022-10-29T06:25:31.000Z</time>
      </trkpt>
      <trkpt lat="47.38043" lon="3.11154">
        <ele>214.39999389648</ele>
        <time>2022-10-29T06:25:32.000Z</time>
      </trkpt>
      <trkpt lat="47.38073" lon="3.11145">
        <ele>215.19999694824</ele>
        <time>2022-10-29T06:25:38.000Z</time>
      </trkpt>
      <trkpt lat="47.381" lon="3.11138">
        <ele>216.19999694824</ele>
        <time>2022-10-29T06:25:44.000Z</time>
      </trkpt>
      <trkpt lat="47.3811" lon="3.11136">
        <ele>216.19999694824</ele>
        <time>2022-10-29T06:25:45.000Z</time>
      </trkpt>
      <trkpt lat="47.38163" lon="3.11121">
        <ele>217</ele>
        <time>2022-10-29T06:25:55.000Z</time>
      </trkpt>
      <trkpt lat="47.3818" lon="3.11117">
        <ele>217.19999694824</ele>
        <time>2022-10-29T06:25:58.000Z</time>
      </trkpt>
      <trkpt lat="47.38185" lon="3.11115">
        <ele>217.39999389648</ele>
        <time>2022-10-29T06:25:59.000Z</time>
      </trkpt>
      <trkpt lat="47.38234" lon="3.11102">
        <ele>217.80000305176</ele>
        <time>2022-10-29T06:26:08.000Z</time>
      </trkpt>
      <trkpt lat="47.38291" lon="3.11086">
        <ele>218.19999694824</ele>
        <time>2022-10-29T06:26:18.000Z</time>
      </trkpt>
      <trkpt lat="47.38297" lon="3.11084">
        <ele>218.19999694824</ele>
        <time>2022-10-29T06:26:19.000Z</time>
      </trkpt>
      <trkpt lat="47.38303" lon="3.11082">
        <ele>218.39999389648</ele>
        <time>2022-10-29T06:26:21.000Z</time>
      </trkpt>
      <trkpt lat="47.38359" lon="3.11067">
        <ele>219.39999389648</ele>
        <time>2022-10-29T06:26:30.000Z</time>
      </trkpt>
      <trkpt lat="47.3837" lon="3.11063">
        <ele>219.60000610352</ele>
        <time>2022-10-29T06:26:32.000Z</time>
      </trkpt>
      <trkpt lat="47.38382" lon="3.1106">
        <ele>219.80000305176</ele>
        <time>2022-10-29T06:26:34.000Z</time>
      </trkpt>
      <trkpt lat="47.38438" lon="3.11044">
        <ele>220.39999389648</ele>
        <time>2022-10-29T06:26:44.000Z</time>
      </trkpt>
      <trkpt lat="47.38455" lon="3.11039">
        <ele>220.60000610352</ele>
        <time>2022-10-29T06:26:47.000Z</time>
      </trkpt>
      <trkpt lat="47.38512" lon="3.11023">
        <ele>221.60000610352</ele>
        <time>2022-10-29T06:26:57.000Z</time>
      </trkpt>
      <trkpt lat="47.38542" lon="3.11013">
        <ele>222.19999694824</ele>
        <time>2022-10-29T06:27:03.000Z</time>
      </trkpt>
      <trkpt lat="47.38563" lon="3.11008">
        <ele>222.60000610352</ele>
        <time>2022-10-29T06:27:08.000Z</time>
      </trkpt>
      <trkpt lat="47.38567" lon="3.11007">
        <ele>222.80000305176</ele>
        <time>2022-10-29T06:27:10.000Z</time>
      </trkpt>
      <trkpt lat="47.38576" lon="3.11004">
        <ele>223</ele>
        <time>2022-10-29T06:27:11.000Z</time>
      </trkpt>
      <trkpt lat="47.38623" lon="3.10991">
        <ele>224</ele>
        <time>2022-10-29T06:27:21.000Z</time>
      </trkpt>
      <trkpt lat="47.38633" lon="3.10989">
        <ele>224.19999694824</ele>
        <time>2022-10-29T06:27:23.000Z</time>
      </trkpt>
      <trkpt lat="47.38664" lon="3.10981">
        <ele>224.39999389648</ele>
        <time>2022-10-29T06:27:29.000Z</time>
      </trkpt>
      <trkpt lat="47.38717" lon="3.10962">
        <ele>224.39999389648</ele>
        <time>2022-10-29T06:27:38.000Z</time>
      </trkpt>
      <trkpt lat="47.38745" lon="3.10935">
        <ele>223.80000305176</ele>
        <time>2022-10-29T06:27:43.000Z</time>
      </trkpt>
      <trkpt lat="47.3876" lon="3.1091">
        <ele>222.80000305176</ele>
        <time>2022-10-29T06:27:46.000Z</time>
      </trkpt>
      <trkpt lat="47.3877" lon="3.10892">
        <ele>222</ele>
        <time>2022-10-29T06:27:48.000Z</time>
      </trkpt>
      <trkpt lat="47.38774" lon="3.10882">
        <ele>221.60000610352</ele>
        <time>2022-10-29T06:27:49.000Z</time>
      </trkpt>
      <trkpt lat="47.38778" lon="3.10873">
        <ele>221.39999389648</ele>
        <time>2022-10-29T06:27:50.000Z</time>
      </trkpt>
      <trkpt lat="47.38783" lon="3.10852">
        <ele>220.60000610352</ele>
        <time>2022-10-29T06:27:52.000Z</time>
      </trkpt>
      <trkpt lat="47.38785" lon="3.10842">
        <ele>220.19999694824</ele>
        <time>2022-10-29T06:27:53.000Z</time>
      </trkpt>
      <trkpt lat="47.38789" lon="3.10809">
        <ele>218.80000305176</ele>
        <time>2022-10-29T06:27:56.000Z</time>
      </trkpt>
      <trkpt lat="47.38791" lon="3.10775">
        <ele>217.80000305176</ele>
        <time>2022-10-29T06:27:59.000Z</time>
      </trkpt>
      <trkpt lat="47.38792" lon="3.10763">
        <ele>217.19999694824</ele>
        <time>2022-10-29T06:28:00.000Z</time>
      </trkpt>
      <trkpt lat="47.38795" lon="3.10726">
        <ele>216</ele>
        <time>2022-10-29T06:28:03.000Z</time>
      </trkpt>
      <trkpt lat="47.38797" lon="3.107">
        <ele>215.39999389648</ele>
        <time>2022-10-29T06:28:05.000Z</time>
      </trkpt>
      <trkpt lat="47.38799" lon="3.10687">
        <ele>215</ele>
        <time>2022-10-29T06:28:06.000Z</time>
      </trkpt>
      <trkpt lat="47.38803" lon="3.10661">
        <ele>214.39999389648</ele>
        <time>2022-10-29T06:28:08.000Z</time>
      </trkpt>
      <trkpt lat="47.38812" lon="3.10636">
        <ele>213.39999389648</ele>
        <time>2022-10-29T06:28:10.000Z</time>
      </trkpt>
      <trkpt lat="47.38824" lon="3.10614">
        <ele>212.60000610352</ele>
        <time>2022-10-29T06:28:12.000Z</time>
      </trkpt>
      <trkpt lat="47.38831" lon="3.10604">
        <ele>212.19999694824</ele>
        <time>2022-10-29T06:28:13.000Z</time>
      </trkpt>
      <trkpt lat="47.38839" lon="3.10596">
        <ele>211.80000305176</ele>
        <time>2022-10-29T06:28:14.000Z</time>
      </trkpt>
      <trkpt lat="47.38856" lon="3.10581">
        <ele>210.60000610352</ele>
        <time>2022-10-29T06:28:16.000Z</time>
      </trkpt>
      <trkpt lat="47.38865" lon="3.10575">
        <ele>210.39999389648</ele>
        <time>2022-10-29T06:28:17.000Z</time>
      </trkpt>
      <trkpt lat="47.38874" lon="3.1057">
        <ele>209.39999389648</ele>
        <time>2022-10-29T06:28:18.000Z</time>
      </trkpt>
      <trkpt lat="47.38894" lon="3.10563">
        <ele>208.39999389648</ele>
        <time>2022-10-29T06:28:20.000Z</time>
      </trkpt>
      <trkpt lat="47.38913" lon="3.10556">
        <ele>207</ele>
        <time>2022-10-29T06:28:22.000Z</time>
      </trkpt>
      <trkpt lat="47.38923" lon="3.10551">
        <ele>206.39999389648</ele>
        <time>2022-10-29T06:28:23.000Z</time>
      </trkpt>
      <trkpt lat="47.38933" lon="3.10546">
        <ele>206</ele>
        <time>2022-10-29T06:28:24.000Z</time>
      </trkpt>
      <trkpt lat="47.38951" lon="3.10532">
        <ele>204.60000610352</ele>
        <time>2022-10-29T06:28:26.000Z</time>
      </trkpt>
      <trkpt lat="47.38968" lon="3.10516">
        <ele>203.39999389648</ele>
        <time>2022-10-29T06:28:28.000Z</time>
      </trkpt>
      <trkpt lat="47.38989" lon="3.10491">
        <ele>202</ele>
        <time>2022-10-29T06:28:31.000Z</time>
      </trkpt>
      <trkpt lat="47.39002" lon="3.10476">
        <ele>201.60000610352</ele>
        <time>2022-10-29T06:28:33.000Z</time>
      </trkpt>
      <trkpt lat="47.39026" lon="3.10448">
        <ele>201</ele>
        <time>2022-10-29T06:28:37.000Z</time>
      </trkpt>
      <trkpt lat="47.39042" lon="3.10428">
        <ele>201</ele>
        <time>2022-10-29T06:28:40.000Z</time>
      </trkpt>
      <trkpt lat="47.39082" lon="3.10379">
        <ele>200.80000305176</ele>
        <time>2022-10-29T06:28:48.000Z</time>
      </trkpt>
      <trkpt lat="47.39125" lon="3.10328">
        <ele>201</ele>
        <time>2022-10-29T06:28:57.000Z</time>
      </trkpt>
      <trkpt lat="47.39155" lon="3.10292">
        <ele>201.39999389648</ele>
        <time>2022-10-29T06:29:04.000Z</time>
      </trkpt>
      <trkpt lat="47.39179" lon="3.10263">
        <ele>202.19999694824</ele>
        <time>2022-10-29T06:29:10.000Z</time>
      </trkpt>
      <trkpt lat="47.39187" lon="3.10253">
        <ele>202.39999389648</ele>
        <time>2022-10-29T06:29:12.000Z</time>
      </trkpt>
      <trkpt lat="47.39214" lon="3.10218">
        <ele>203.39999389648</ele>
        <time>2022-10-29T06:29:19.000Z</time>
      </trkpt>
      <trkpt lat="47.39222" lon="3.10209">
        <ele>203.80000305176</ele>
        <time>2022-10-29T06:29:21.000Z</time>
      </trkpt>
      <trkpt lat="47.39237" lon="3.10191">
        <ele>204.39999389648</ele>
        <time>2022-10-29T06:29:25.000Z</time>
      </trkpt>
      <trkpt lat="47.39244" lon="3.10183">
        <ele>204.80000305176</ele>
        <time>2022-10-29T06:29:27.000Z</time>
      </trkpt>
      <trkpt lat="47.39251" lon="3.10175">
        <ele>205</ele>
        <time>2022-10-29T06:29:29.000Z</time>
      </trkpt>
      <trkpt lat="47.3928" lon="3.10141">
        <ele>205</ele>
        <time>2022-10-29T06:29:37.000Z</time>
      </trkpt>
      <trkpt lat="47.39287" lon="3.10133">
        <ele>204.60000610352</ele>
        <time>2022-10-29T06:29:39.000Z</time>
      </trkpt>
      <trkpt lat="47.39304" lon="3.10113">
        <ele>204.19999694824</ele>
        <time>2022-10-29T06:29:44.000Z</time>
      </trkpt>
      <trkpt lat="47.39337" lon="3.10073">
        <ele>203.60000610352</ele>
        <time>2022-10-29T06:29:52.000Z</time>
      </trkpt>
      <trkpt lat="47.39342" lon="3.10067">
        <ele>203.60000610352</ele>
        <time>2022-10-29T06:29:53.000Z</time>
      </trkpt>
      <trkpt lat="47.39357" lon="3.1005">
        <ele>203.60000610352</ele>
        <time>2022-10-29T06:29:56.000Z</time>
      </trkpt>
      <trkpt lat="47.39362" lon="3.10044">
        <ele>203.60000610352</ele>
        <time>2022-10-29T06:29:57.000Z</time>
      </trkpt>
      <trkpt lat="47.39394" lon="3.10006">
        <ele>203.19999694824</ele>
        <time>2022-10-29T06:30:03.000Z</time>
      </trkpt>
      <trkpt lat="47.39438" lon="3.09955">
        <ele>202.60000610352</ele>
        <time>2022-10-29T06:30:11.000Z</time>
      </trkpt>
      <trkpt lat="47.39448" lon="3.09943">
        <ele>202.39999389648</ele>
        <time>2022-10-29T06:30:13.000Z</time>
      </trkpt>
      <trkpt lat="47.39491" lon="3.09893">
        <ele>202</ele>
        <time>2022-10-29T06:30:21.000Z</time>
      </trkpt>
      <trkpt lat="47.39507" lon="3.09874">
        <ele>202</ele>
        <time>2022-10-29T06:30:24.000Z</time>
      </trkpt>
      <trkpt lat="47.39553" lon="3.09819">
        <ele>202</ele>
        <time>2022-10-29T06:30:33.000Z</time>
      </trkpt>
      <trkpt lat="47.39574" lon="3.09795">
        <ele>202</ele>
        <time>2022-10-29T06:30:37.000Z</time>
      </trkpt>
      <trkpt lat="47.3962" lon="3.09739">
        <ele>202.19999694824</ele>
        <time>2022-10-29T06:30:46.000Z</time>
      </trkpt>
      <trkpt lat="47.39631" lon="3.09727">
        <ele>202.19999694824</ele>
        <time>2022-10-29T06:30:48.000Z</time>
      </trkpt>
      <trkpt lat="47.39677" lon="3.09673">
        <ele>202</ele>
        <time>2022-10-29T06:30:57.000Z</time>
      </trkpt>
      <trkpt lat="47.39682" lon="3.09667">
        <ele>201.80000305176</ele>
        <time>2022-10-29T06:30:58.000Z</time>
      </trkpt>
      <trkpt lat="47.39724" lon="3.09623">
        <ele>201.80000305176</ele>
        <time>2022-10-29T06:31:06.000Z</time>
      </trkpt>
      <trkpt lat="47.39759" lon="3.096">
        <ele>202</ele>
        <time>2022-10-29T06:31:12.000Z</time>
      </trkpt>
      <trkpt lat="47.39802" lon="3.09578">
        <ele>202.39999389648</ele>
        <time>2022-10-29T06:31:20.000Z</time>
      </trkpt>
      <trkpt lat="47.39855" lon="3.09554">
        <ele>203</ele>
        <time>2022-10-29T06:31:30.000Z</time>
      </trkpt>
      <trkpt lat="47.39908" lon="3.09531">
        <ele>203.19999694824</ele>
        <time>2022-10-29T06:31:40.000Z</time>
      </trkpt>
      <trkpt lat="47.39913" lon="3.09529">
        <ele>203.19999694824</ele>
        <time>2022-10-29T06:31:41.000Z</time>
      </trkpt>
      <trkpt lat="47.39963" lon="3.09506">
        <ele>203.39999389648</ele>
        <time>2022-10-29T06:31:50.000Z</time>
      </trkpt>
      <trkpt lat="47.40013" lon="3.09484">
        <ele>203.80000305176</ele>
        <time>2022-10-29T06:31:59.000Z</time>
      </trkpt>
      <trkpt lat="47.40018" lon="3.09481">
        <ele>203.80000305176</ele>
        <time>2022-10-29T06:32:00.000Z</time>
      </trkpt>
      <trkpt lat="47.4007" lon="3.09457">
        <ele>204.19999694824</ele>
        <time>2022-10-29T06:32:10.000Z</time>
      </trkpt>
      <trkpt lat="47.40075" lon="3.09455">
        <ele>204.19999694824</ele>
        <time>2022-10-29T06:32:11.000Z</time>
      </trkpt>
      <trkpt lat="47.40103" lon="3.09441">
        <ele>204.80000305176</ele>
        <time>2022-10-29T06:32:17.000Z</time>
      </trkpt>
      <trkpt lat="47.40118" lon="3.09435">
        <ele>205.19999694824</ele>
        <time>2022-10-29T06:32:20.000Z</time>
      </trkpt>
      <trkpt lat="47.40149" lon="3.09421">
        <ele>206.19999694824</ele>
        <time>2022-10-29T06:32:27.000Z</time>
      </trkpt>
      <trkpt lat="47.40162" lon="3.09414">
        <ele>206.80000305176</ele>
        <time>2022-10-29T06:32:30.000Z</time>
      </trkpt>
      <trkpt lat="47.40174" lon="3.09405">
        <ele>207.19999694824</ele>
        <time>2022-10-29T06:32:33.000Z</time>
      </trkpt>
      <trkpt lat="47.40186" lon="3.09396">
        <ele>207.80000305176</ele>
        <time>2022-10-29T06:32:36.000Z</time>
      </trkpt>
      <trkpt lat="47.40198" lon="3.09387">
        <ele>208.39999389648</ele>
        <time>2022-10-29T06:32:39.000Z</time>
      </trkpt>
      <trkpt lat="47.40208" lon="3.09376">
        <ele>208.80000305176</ele>
        <time>2022-10-29T06:32:42.000Z</time>
      </trkpt>
      <trkpt lat="47.40226" lon="3.09357">
        <ele>209.60000610352</ele>
        <time>2022-10-29T06:32:47.000Z</time>
      </trkpt>
      <trkpt lat="47.40235" lon="3.09345">
        <ele>209.80000305176</ele>
        <time>2022-10-29T06:32:50.000Z</time>
      </trkpt>
      <trkpt lat="47.40253" lon="3.09324">
        <ele>210.60000610352</ele>
        <time>2022-10-29T06:32:55.000Z</time>
      </trkpt>
      <trkpt lat="47.40281" lon="3.09291">
        <ele>210.80000305176</ele>
        <time>2022-10-29T06:33:02.000Z</time>
      </trkpt>
      <trkpt lat="47.40309" lon="3.09258">
        <ele>210.60000610352</ele>
        <time>2022-10-29T06:33:08.000Z</time>
      </trkpt>
      <trkpt lat="47.40351" lon="3.09206">
        <ele>209.39999389648</ele>
        <time>2022-10-29T06:33:17.000Z</time>
      </trkpt>
      <trkpt lat="47.40355" lon="3.092">
        <ele>209.39999389648</ele>
        <time>2022-10-29T06:33:18.000Z</time>
      </trkpt>
      <trkpt lat="47.40389" lon="3.09171">
        <ele>208.80000305176</ele>
        <time>2022-10-29T06:33:24.000Z</time>
      </trkpt>
      <trkpt lat="47.40407" lon="3.09162">
        <ele>208.39999389648</ele>
        <time>2022-10-29T06:33:27.000Z</time>
      </trkpt>
      <trkpt lat="47.40426" lon="3.09157">
        <ele>208.39999389648</ele>
        <time>2022-10-29T06:33:30.000Z</time>
      </trkpt>
      <trkpt lat="47.40474" lon="3.09154">
        <ele>208</ele>
        <time>2022-10-29T06:33:37.000Z</time>
      </trkpt>
      <trkpt lat="47.40531" lon="3.09154">
        <ele>207.80000305176</ele>
        <time>2022-10-29T06:33:46.000Z</time>
      </trkpt>
      <trkpt lat="47.40543" lon="3.09153">
        <ele>208</ele>
        <time>2022-10-29T06:33:48.000Z</time>
      </trkpt>
      <trkpt lat="47.40595" lon="3.09152">
        <ele>209.19999694824</ele>
        <time>2022-10-29T06:33:57.000Z</time>
      </trkpt>
      <trkpt lat="47.4065" lon="3.09145">
        <ele>209</ele>
        <time>2022-10-29T06:34:06.000Z</time>
      </trkpt>
      <trkpt lat="47.40696" lon="3.09125">
        <ele>208.80000305176</ele>
        <time>2022-10-29T06:34:13.000Z</time>
      </trkpt>
      <trkpt lat="47.40729" lon="3.09108">
        <ele>207.60000610352</ele>
        <time>2022-10-29T06:34:18.000Z</time>
      </trkpt>
      <trkpt lat="47.40754" lon="3.09096">
        <ele>207</ele>
        <time>2022-10-29T06:34:22.000Z</time>
      </trkpt>
      <trkpt lat="47.40808" lon="3.09069">
        <ele>206.80000305176</ele>
        <time>2022-10-29T06:34:31.000Z</time>
      </trkpt>
      <trkpt lat="47.40814" lon="3.09066">
        <ele>206.80000305176</ele>
        <time>2022-10-29T06:34:32.000Z</time>
      </trkpt>
      <trkpt lat="47.40867" lon="3.0904">
        <ele>206.80000305176</ele>
        <time>2022-10-29T06:34:41.000Z</time>
      </trkpt>
      <trkpt lat="47.40879" lon="3.09034">
        <ele>207</ele>
        <time>2022-10-29T06:34:43.000Z</time>
      </trkpt>
      <trkpt lat="47.4093" lon="3.09007">
        <ele>207.60000610352</ele>
        <time>2022-10-29T06:34:52.000Z</time>
      </trkpt>
      <trkpt lat="47.40934" lon="3.09004">
        <ele>207.60000610352</ele>
        <time>2022-10-29T06:34:53.000Z</time>
      </trkpt>
      <trkpt lat="47.40973" lon="3.08971">
        <ele>208</ele>
        <time>2022-10-29T06:35:00.000Z</time>
      </trkpt>
      <trkpt lat="47.41005" lon="3.08927">
        <ele>208.19999694824</ele>
        <time>2022-10-29T06:35:07.000Z</time>
      </trkpt>
      <trkpt lat="47.41043" lon="3.08864">
        <ele>208</ele>
        <time>2022-10-29T06:35:16.000Z</time>
      </trkpt>
      <trkpt lat="47.41043" lon="3.08864">
        <ele>208</ele>
        <time>2022-10-29T06:35:17.000Z</time>
      </trkpt>
      <trkpt lat="47.41081" lon="3.08801">
        <ele>208.19999694824</ele>
        <time>2022-10-29T06:35:25.000Z</time>
      </trkpt>
      <trkpt lat="47.411" lon="3.08775">
        <ele>208.39999389648</ele>
        <time>2022-10-29T06:35:29.000Z</time>
      </trkpt>
      <trkpt lat="47.41131" lon="3.08743">
        <ele>208.19999694824</ele>
        <time>2022-10-29T06:35:35.000Z</time>
      </trkpt>
      <trkpt lat="47.41171" lon="3.08718">
        <ele>208.39999389648</ele>
        <time>2022-10-29T06:35:42.000Z</time>
      </trkpt>
      <trkpt lat="47.41214" lon="3.08708">
        <ele>208.39999389648</ele>
        <time>2022-10-29T06:35:49.000Z</time>
      </trkpt>
      <trkpt lat="47.41272" lon="3.08708">
        <ele>208.60000610352</ele>
        <time>2022-10-29T06:35:58.000Z</time>
      </trkpt>
      <trkpt lat="47.41278" lon="3.08708">
        <ele>208.60000610352</ele>
        <time>2022-10-29T06:35:59.000Z</time>
      </trkpt>
      <trkpt lat="47.41285" lon="3.08708">
        <ele>208.60000610352</ele>
        <time>2022-10-29T06:36:00.000Z</time>
      </trkpt>
      <trkpt lat="47.41343" lon="3.08708">
        <ele>209</ele>
        <time>2022-10-29T06:36:09.000Z</time>
      </trkpt>
      <trkpt lat="47.41355" lon="3.08708">
        <ele>209.19999694824</ele>
        <time>2022-10-29T06:36:11.000Z</time>
      </trkpt>
      <trkpt lat="47.41413" lon="3.08708">
        <ele>209.19999694824</ele>
        <time>2022-10-29T06:36:20.000Z</time>
      </trkpt>
      <trkpt lat="47.41439" lon="3.08708">
        <ele>209</ele>
        <time>2022-10-29T06:36:24.000Z</time>
      </trkpt>
      <trkpt lat="47.41497" lon="3.08708">
        <ele>209</ele>
        <time>2022-10-29T06:36:33.000Z</time>
      </trkpt>
      <trkpt lat="47.41553" lon="3.08709">
        <ele>209.39999389648</ele>
        <time>2022-10-29T06:36:42.000Z</time>
      </trkpt>
      <trkpt lat="47.41557" lon="3.08709">
        <ele>209.39999389648</ele>
        <time>2022-10-29T06:36:43.000Z</time>
      </trkpt>
      <trkpt lat="47.41596" lon="3.0871">
        <ele>209.60000610352</ele>
        <time>2022-10-29T06:36:49.000Z</time>
      </trkpt>
      <trkpt lat="47.41608" lon="3.0871">
        <ele>209.80000305176</ele>
        <time>2022-10-29T06:36:51.000Z</time>
      </trkpt>
      <trkpt lat="47.41626" lon="3.08711">
        <ele>210</ele>
        <time>2022-10-29T06:36:54.000Z</time>
      </trkpt>
      <trkpt lat="47.41684" lon="3.08707">
        <ele>210.19999694824</ele>
        <time>2022-10-29T06:37:03.000Z</time>
      </trkpt>
      <trkpt lat="47.41697" lon="3.08705">
        <ele>210.19999694824</ele>
        <time>2022-10-29T06:37:05.000Z</time>
      </trkpt>
      <trkpt lat="47.41755" lon="3.08687">
        <ele>210.60000610352</ele>
        <time>2022-10-29T06:37:14.000Z</time>
      </trkpt>
      <trkpt lat="47.41761" lon="3.08684">
        <ele>210.60000610352</ele>
        <time>2022-10-29T06:37:15.000Z</time>
      </trkpt>
      <trkpt lat="47.41767" lon="3.08681">
        <ele>210.80000305176</ele>
        <time>2022-10-29T06:37:16.000Z</time>
      </trkpt>
      <trkpt lat="47.41823" lon="3.08651">
        <ele>210.80000305176</ele>
        <time>2022-10-29T06:37:25.000Z</time>
      </trkpt>
      <trkpt lat="47.41876" lon="3.0861">
        <ele>211</ele>
        <time>2022-10-29T06:37:34.000Z</time>
      </trkpt>
      <trkpt lat="47.4192" lon="3.08563">
        <ele>211.39999389648</ele>
        <time>2022-10-29T06:37:42.000Z</time>
      </trkpt>
      <trkpt lat="47.41926" lon="3.08556">
        <ele>211.60000610352</ele>
        <time>2022-10-29T06:37:43.000Z</time>
      </trkpt>
      <trkpt lat="47.41951" lon="3.08523">
        <ele>211.80000305176</ele>
        <time>2022-10-29T06:37:48.000Z</time>
      </trkpt>
      <trkpt lat="47.4198" lon="3.08482">
        <ele>212</ele>
        <time>2022-10-29T06:37:54.000Z</time>
      </trkpt>
      <trkpt lat="47.42022" lon="3.08427">
        <ele>212.19999694824</ele>
        <time>2022-10-29T06:38:02.000Z</time>
      </trkpt>
      <trkpt lat="47.42027" lon="3.0842">
        <ele>212.19999694824</ele>
        <time>2022-10-29T06:38:03.000Z</time>
      </trkpt>
      <trkpt lat="47.42071" lon="3.08371">
        <ele>212.39999389648</ele>
        <time>2022-10-29T06:38:11.000Z</time>
      </trkpt>
      <trkpt lat="47.42108" lon="3.08348">
        <ele>212.39999389648</ele>
        <time>2022-10-29T06:38:17.000Z</time>
      </trkpt>
      <trkpt lat="47.42153" lon="3.08337">
        <ele>212.80000305176</ele>
        <time>2022-10-29T06:38:24.000Z</time>
      </trkpt>
      <trkpt lat="47.4216" lon="3.08336">
        <ele>212.80000305176</ele>
        <time>2022-10-29T06:38:25.000Z</time>
      </trkpt>
      <trkpt lat="47.4222" lon="3.08326">
        <ele>213</ele>
        <time>2022-10-29T06:38:34.000Z</time>
      </trkpt>
      <trkpt lat="47.42227" lon="3.08325">
        <ele>213</ele>
        <time>2022-10-29T06:38:35.000Z</time>
      </trkpt>
      <trkpt lat="47.42281" lon="3.08317">
        <ele>213</ele>
        <time>2022-10-29T06:38:43.000Z</time>
      </trkpt>
      <trkpt lat="47.42302" lon="3.08313">
        <ele>213.19999694824</ele>
        <time>2022-10-29T06:38:46.000Z</time>
      </trkpt>
      <trkpt lat="47.42358" lon="3.08304">
        <ele>213.39999389648</ele>
        <time>2022-10-29T06:38:54.000Z</time>
      </trkpt>
      <trkpt lat="47.42384" lon="3.083">
        <ele>213.39999389648</ele>
        <time>2022-10-29T06:38:58.000Z</time>
      </trkpt>
      <trkpt lat="47.4243" lon="3.08292">
        <ele>213.80000305176</ele>
        <time>2022-10-29T06:39:05.000Z</time>
      </trkpt>
      <trkpt lat="47.42443" lon="3.08288">
        <ele>214</ele>
        <time>2022-10-29T06:39:07.000Z</time>
      </trkpt>
      <trkpt lat="47.42482" lon="3.08263">
        <ele>214.80000305176</ele>
        <time>2022-10-29T06:39:13.000Z</time>
      </trkpt>
      <trkpt lat="47.42522" lon="3.08225">
        <ele>215.39999389648</ele>
        <time>2022-10-29T06:39:20.000Z</time>
      </trkpt>
      <trkpt lat="47.42565" lon="3.08187">
        <ele>216</ele>
        <time>2022-10-29T06:39:27.000Z</time>
      </trkpt>
      <trkpt lat="47.42571" lon="3.08183">
        <ele>216</ele>
        <time>2022-10-29T06:39:28.000Z</time>
      </trkpt>
      <trkpt lat="47.42617" lon="3.08162">
        <ele>216.60000610352</ele>
        <time>2022-10-29T06:39:35.000Z</time>
      </trkpt>
      <trkpt lat="47.42645" lon="3.08151">
        <ele>216.80000305176</ele>
        <time>2022-10-29T06:39:39.000Z</time>
      </trkpt>
      <trkpt lat="47.42691" lon="3.08133">
        <ele>217.80000305176</ele>
        <time>2022-10-29T06:39:46.000Z</time>
      </trkpt>
      <trkpt lat="47.42698" lon="3.0813">
        <ele>218</ele>
        <time>2022-10-29T06:39:47.000Z</time>
      </trkpt>
      <trkpt lat="47.42741" lon="3.08112">
        <ele>218.80000305176</ele>
        <time>2022-10-29T06:39:54.000Z</time>
      </trkpt>
      <trkpt lat="47.42747" lon="3.08108">
        <ele>219</ele>
        <time>2022-10-29T06:39:55.000Z</time>
      </trkpt>
      <trkpt lat="47.42764" lon="3.08094">
        <ele>219.39999389648</ele>
        <time>2022-10-29T06:39:58.000Z</time>
      </trkpt>
      <trkpt lat="47.42769" lon="3.08087">
        <ele>219.39999389648</ele>
        <time>2022-10-29T06:39:59.000Z</time>
      </trkpt>
      <trkpt lat="47.42795" lon="3.08037">
        <ele>219.39999389648</ele>
        <time>2022-10-29T06:40:05.000Z</time>
      </trkpt>
      <trkpt lat="47.42807" lon="3.0801">
        <ele>219.19999694824</ele>
        <time>2022-10-29T06:40:08.000Z</time>
      </trkpt>
      <trkpt lat="47.42826" lon="3.07977">
        <ele>219</ele>
        <time>2022-10-29T06:40:12.000Z</time>
      </trkpt>
      <trkpt lat="47.42871" lon="3.07918">
        <ele>218.39999389648</ele>
        <time>2022-10-29T06:40:20.000Z</time>
      </trkpt>
      <trkpt lat="47.42915" lon="3.07863">
        <ele>218.19999694824</ele>
        <time>2022-10-29T06:40:28.000Z</time>
      </trkpt>
      <trkpt lat="47.42931" lon="3.07842">
        <ele>218.39999389648</ele>
        <time>2022-10-29T06:40:31.000Z</time>
      </trkpt>
      <trkpt lat="47.42971" lon="3.07791">
        <ele>219</ele>
        <time>2022-10-29T06:40:39.000Z</time>
      </trkpt>
      <trkpt lat="47.43004" lon="3.07749">
        <ele>219.80000305176</ele>
        <time>2022-10-29T06:40:46.000Z</time>
      </trkpt>
      <trkpt lat="47.43013" lon="3.07739">
        <ele>220.19999694824</ele>
        <time>2022-10-29T06:40:48.000Z</time>
      </trkpt>
      <trkpt lat="47.4303" lon="3.07717">
        <ele>220.80000305176</ele>
        <time>2022-10-29T06:40:52.000Z</time>
      </trkpt>
      <trkpt lat="47.43034" lon="3.07711">
        <ele>221.19999694824</ele>
        <time>2022-10-29T06:40:53.000Z</time>
      </trkpt>
      <trkpt lat="47.43039" lon="3.07706">
        <ele>221.39999389648</ele>
        <time>2022-10-29T06:40:54.000Z</time>
      </trkpt>
      <trkpt lat="47.43067" lon="3.07671">
        <ele>222.39999389648</ele>
        <time>2022-10-29T06:41:01.000Z</time>
      </trkpt>
      <trkpt lat="47.43084" lon="3.0765">
        <ele>223.39999389648</ele>
        <time>2022-10-29T06:41:05.000Z</time>
      </trkpt>
      <trkpt lat="47.43088" lon="3.07645">
        <ele>223.60000610352</ele>
        <time>2022-10-29T06:41:06.000Z</time>
      </trkpt>
      <trkpt lat="47.43092" lon="3.0764">
        <ele>223.60000610352</ele>
        <time>2022-10-29T06:41:07.000Z</time>
      </trkpt>
      <trkpt lat="47.431" lon="3.07629">
        <ele>223.80000305176</ele>
        <time>2022-10-29T06:41:09.000Z</time>
      </trkpt>
      <trkpt lat="47.43105" lon="3.07623">
        <ele>224</ele>
        <time>2022-10-29T06:41:10.000Z</time>
      </trkpt>
      <trkpt lat="47.43109" lon="3.07617">
        <ele>224</ele>
        <time>2022-10-29T06:41:11.000Z</time>
      </trkpt>
      <trkpt lat="47.4313" lon="3.07585">
        <ele>224.39999389648</ele>
        <time>2022-10-29T06:41:16.000Z</time>
      </trkpt>
      <trkpt lat="47.43134" lon="3.07579">
        <ele>224.60000610352</ele>
        <time>2022-10-29T06:41:17.000Z</time>
      </trkpt>
      <trkpt lat="47.43167" lon="3.07538">
        <ele>225.19999694824</ele>
        <time>2022-10-29T06:41:24.000Z</time>
      </trkpt>
      <trkpt lat="47.43191" lon="3.07506">
        <ele>225.60000610352</ele>
        <time>2022-10-29T06:41:29.000Z</time>
      </trkpt>
      <trkpt lat="47.43204" lon="3.07489">
        <ele>226</ele>
        <time>2022-10-29T06:41:32.000Z</time>
      </trkpt>
      <trkpt lat="47.43232" lon="3.07455">
        <ele>226.60000610352</ele>
        <time>2022-10-29T06:41:38.000Z</time>
      </trkpt>
      <trkpt lat="47.43251" lon="3.07432">
        <ele>226.80000305176</ele>
        <time>2022-10-29T06:41:42.000Z</time>
      </trkpt>
      <trkpt lat="47.43283" lon="3.07391">
        <ele>227.60000610352</ele>
        <time>2022-10-29T06:41:49.000Z</time>
      </trkpt>
      <trkpt lat="47.43296" lon="3.07373">
        <ele>227.60000610352</ele>
        <time>2022-10-29T06:41:52.000Z</time>
      </trkpt>
      <trkpt lat="47.43334" lon="3.07326">
        <ele>228.19999694824</ele>
        <time>2022-10-29T06:42:00.000Z</time>
      </trkpt>
      <trkpt lat="47.43357" lon="3.07297">
        <ele>228.60000610352</ele>
        <time>2022-10-29T06:42:05.000Z</time>
      </trkpt>
      <trkpt lat="47.4338" lon="3.07268">
        <ele>229.19999694824</ele>
        <time>2022-10-29T06:42:10.000Z</time>
      </trkpt>
      <trkpt lat="47.43402" lon="3.07241">
        <ele>229.80000305176</ele>
        <time>2022-10-29T06:42:15.000Z</time>
      </trkpt>
      <trkpt lat="47.43424" lon="3.07215">
        <ele>230.39999389648</ele>
        <time>2022-10-29T06:42:20.000Z</time>
      </trkpt>
      <trkpt lat="47.43437" lon="3.07202">
        <ele>230.80000305176</ele>
        <time>2022-10-29T06:42:23.000Z</time>
      </trkpt>
      <trkpt lat="47.43454" lon="3.07188">
        <ele>231.39999389648</ele>
        <time>2022-10-29T06:42:27.000Z</time>
      </trkpt>
      <trkpt lat="47.43472" lon="3.07176">
        <ele>231.80000305176</ele>
        <time>2022-10-29T06:42:31.000Z</time>
      </trkpt>
      <trkpt lat="47.43495" lon="3.07163">
        <ele>232.80000305176</ele>
        <time>2022-10-29T06:42:36.000Z</time>
      </trkpt>
      <trkpt lat="47.435" lon="3.0716">
        <ele>233</ele>
        <time>2022-10-29T06:42:37.000Z</time>
      </trkpt>
      <trkpt lat="47.43539" lon="3.0714">
        <ele>234.19999694824</ele>
        <time>2022-10-29T06:42:45.000Z</time>
      </trkpt>
      <trkpt lat="47.43549" lon="3.07136">
        <ele>234.39999389648</ele>
        <time>2022-10-29T06:42:47.000Z</time>
      </trkpt>
      <trkpt lat="47.43565" lon="3.07129">
        <ele>234.60000610352</ele>
        <time>2022-10-29T06:42:50.000Z</time>
      </trkpt>
      <trkpt lat="47.43585" lon="3.0712">
        <ele>235.19999694824</ele>
        <time>2022-10-29T06:42:54.000Z</time>
      </trkpt>
      <trkpt lat="47.4359" lon="3.07117">
        <ele>235.39999389648</ele>
        <time>2022-10-29T06:42:55.000Z</time>
      </trkpt>
      <trkpt lat="47.43632" lon="3.07099">
        <ele>236.19999694824</ele>
        <time>2022-10-29T06:43:03.000Z</time>
      </trkpt>
      <trkpt lat="47.43637" lon="3.07097">
        <ele>236.39999389648</ele>
        <time>2022-10-29T06:43:04.000Z</time>
      </trkpt>
      <trkpt lat="47.43689" lon="3.07073">
        <ele>237.39999389648</ele>
        <time>2022-10-29T06:43:14.000Z</time>
      </trkpt>
      <trkpt lat="47.43694" lon="3.07071">
        <ele>237.39999389648</ele>
        <time>2022-10-29T06:43:15.000Z</time>
      </trkpt>
      <trkpt lat="47.43732" lon="3.07051">
        <ele>238.60000610352</ele>
        <time>2022-10-29T06:43:23.000Z</time>
      </trkpt>
      <trkpt lat="47.43747" lon="3.07045">
        <ele>239</ele>
        <time>2022-10-29T06:43:26.000Z</time>
      </trkpt>
      <trkpt lat="47.43782" lon="3.07032">
        <ele>239.60000610352</ele>
        <time>2022-10-29T06:43:33.000Z</time>
      </trkpt>
      <trkpt lat="47.43802" lon="3.07023">
        <ele>239.80000305176</ele>
        <time>2022-10-29T06:43:37.000Z</time>
      </trkpt>
      <trkpt lat="47.43832" lon="3.0701">
        <ele>240.60000610352</ele>
        <time>2022-10-29T06:43:43.000Z</time>
      </trkpt>
      <trkpt lat="47.43846" lon="3.07003">
        <ele>240.80000305176</ele>
        <time>2022-10-29T06:43:46.000Z</time>
      </trkpt>
      <trkpt lat="47.43875" lon="3.0699">
        <ele>241.60000610352</ele>
        <time>2022-10-29T06:43:52.000Z</time>
      </trkpt>
      <trkpt lat="47.439" lon="3.06979">
        <ele>242.39999389648</ele>
        <time>2022-10-29T06:43:57.000Z</time>
      </trkpt>
      <trkpt lat="47.43916" lon="3.06972">
        <ele>242.80000305176</ele>
        <time>2022-10-29T06:44:00.000Z</time>
      </trkpt>
      <trkpt lat="47.43951" lon="3.06956">
        <ele>243.80000305176</ele>
        <time>2022-10-29T06:44:07.000Z</time>
      </trkpt>
      <trkpt lat="47.4396" lon="3.06952">
        <ele>244</ele>
        <time>2022-10-29T06:44:09.000Z</time>
      </trkpt>
      <trkpt lat="47.43985" lon="3.06941">
        <ele>245</ele>
        <time>2022-10-29T06:44:14.000Z</time>
      </trkpt>
      <trkpt lat="47.44015" lon="3.06927">
        <ele>245.60000610352</ele>
        <time>2022-10-29T06:44:20.000Z</time>
      </trkpt>
      <trkpt lat="47.44051" lon="3.06911">
        <ele>246</ele>
        <time>2022-10-29T06:44:27.000Z</time>
      </trkpt>
      <trkpt lat="47.44079" lon="3.06899">
        <ele>246.19999694824</ele>
        <time>2022-10-29T06:44:32.000Z</time>
      </trkpt>
      <trkpt lat="47.44131" lon="3.06875">
        <ele>246.39999389648</ele>
        <time>2022-10-29T06:44:41.000Z</time>
      </trkpt>
      <trkpt lat="47.44142" lon="3.0687">
        <ele>246.39999389648</ele>
        <time>2022-10-29T06:44:43.000Z</time>
      </trkpt>
      <trkpt lat="47.44176" lon="3.06852">
        <ele>246.39999389648</ele>
        <time>2022-10-29T06:44:49.000Z</time>
      </trkpt>
      <trkpt lat="47.44199" lon="3.0684">
        <ele>246.39999389648</ele>
        <time>2022-10-29T06:44:53.000Z</time>
      </trkpt>
      <trkpt lat="47.44248" lon="3.06809">
        <ele>246.60000610352</ele>
        <time>2022-10-29T06:45:02.000Z</time>
      </trkpt>
      <trkpt lat="47.4429" lon="3.06782">
        <ele>247</ele>
        <time>2022-10-29T06:45:10.000Z</time>
      </trkpt>
      <trkpt lat="47.44295" lon="3.06779">
        <ele>247</ele>
        <time>2022-10-29T06:45:11.000Z</time>
      </trkpt>
      <trkpt lat="47.44341" lon="3.0675">
        <ele>247.80000305176</ele>
        <time>2022-10-29T06:45:20.000Z</time>
      </trkpt>
      <trkpt lat="47.4436" lon="3.06737">
        <ele>248.19999694824</ele>
        <time>2022-10-29T06:45:24.000Z</time>
      </trkpt>
      <trkpt lat="47.4439" lon="3.06717">
        <ele>248.60000610352</ele>
        <time>2022-10-29T06:45:30.000Z</time>
      </trkpt>
      <trkpt lat="47.44411" lon="3.06705">
        <ele>249</ele>
        <time>2022-10-29T06:45:34.000Z</time>
      </trkpt>
      <trkpt lat="47.44426" lon="3.06695">
        <ele>249.39999389648</ele>
        <time>2022-10-29T06:45:37.000Z</time>
      </trkpt>
      <trkpt lat="47.4444" lon="3.06685">
        <ele>249.80000305176</ele>
        <time>2022-10-29T06:45:40.000Z</time>
      </trkpt>
      <trkpt lat="47.4446" lon="3.06672">
        <ele>250</ele>
        <time>2022-10-29T06:45:44.000Z</time>
      </trkpt>
      <trkpt lat="47.44479" lon="3.06659">
        <ele>250.19999694824</ele>
        <time>2022-10-29T06:45:48.000Z</time>
      </trkpt>
      <trkpt lat="47.44532" lon="3.06626">
        <ele>251</ele>
        <time>2022-10-29T06:45:58.000Z</time>
      </trkpt>
      <trkpt lat="47.44543" lon="3.0662">
        <ele>251</ele>
        <time>2022-10-29T06:46:00.000Z</time>
      </trkpt>
      <trkpt lat="47.44579" lon="3.06596">
        <ele>251.80000305176</ele>
        <time>2022-10-29T06:46:07.000Z</time>
      </trkpt>
      <trkpt lat="47.44606" lon="3.06578">
        <ele>252</ele>
        <time>2022-10-29T06:46:12.000Z</time>
      </trkpt>
      <trkpt lat="47.44626" lon="3.06564">
        <ele>252.60000610352</ele>
        <time>2022-10-29T06:46:16.000Z</time>
      </trkpt>
      <trkpt lat="47.44667" lon="3.06538">
        <ele>253.19999694824</ele>
        <time>2022-10-29T06:46:24.000Z</time>
      </trkpt>
      <trkpt lat="47.44677" lon="3.06531">
        <ele>253.19999694824</ele>
        <time>2022-10-29T06:46:26.000Z</time>
      </trkpt>
      <trkpt lat="47.44723" lon="3.06502">
        <ele>254</ele>
        <time>2022-10-29T06:46:35.000Z</time>
      </trkpt>
      <trkpt lat="47.44732" lon="3.06496">
        <ele>254.19999694824</ele>
        <time>2022-10-29T06:46:37.000Z</time>
      </trkpt>
      <trkpt lat="47.44784" lon="3.06462">
        <ele>255.39999389648</ele>
        <time>2022-10-29T06:46:47.000Z</time>
      </trkpt>
      <trkpt lat="47.44819" lon="3.0644">
        <ele>256.60000610352</ele>
        <time>2022-10-29T06:46:54.000Z</time>
      </trkpt>
      <trkpt lat="47.44838" lon="3.06427">
        <ele>257.20001220703</ele>
        <time>2022-10-29T06:46:58.000Z</time>
      </trkpt>
      <trkpt lat="47.44848" lon="3.06421">
        <ele>257.60000610352</ele>
        <time>2022-10-29T06:47:00.000Z</time>
      </trkpt>
      <trkpt lat="47.44879" lon="3.06402">
        <ele>258.39999389648</ele>
        <time>2022-10-29T06:47:07.000Z</time>
      </trkpt>
      <trkpt lat="47.44888" lon="3.06396">
        <ele>258.79998779297</ele>
        <time>2022-10-29T06:47:09.000Z</time>
      </trkpt>
      <trkpt lat="47.44907" lon="3.06383">
        <ele>259.79998779297</ele>
        <time>2022-10-29T06:47:14.000Z</time>
      </trkpt>
      <trkpt lat="47.44915" lon="3.06378">
        <ele>260.20001220703</ele>
        <time>2022-10-29T06:47:16.000Z</time>
      </trkpt>
      <trkpt lat="47.44934" lon="3.06365">
        <ele>261</ele>
        <time>2022-10-29T06:47:21.000Z</time>
      </trkpt>
      <trkpt lat="47.44953" lon="3.06355">
        <ele>262.20001220703</ele>
        <time>2022-10-29T06:47:26.000Z</time>
      </trkpt>
      <trkpt lat="47.44972" lon="3.06343">
        <ele>263.20001220703</ele>
        <time>2022-10-29T06:47:31.000Z</time>
      </trkpt>
      <trkpt lat="47.44994" lon="3.06327">
        <ele>264.20001220703</ele>
        <time>2022-10-29T06:47:37.000Z</time>
      </trkpt>
      <trkpt lat="47.45013" lon="3.06315">
        <ele>265</ele>
        <time>2022-10-29T06:47:42.000Z</time>
      </trkpt>
      <trkpt lat="47.45017" lon="3.06312">
        <ele>265.20001220703</ele>
        <time>2022-10-29T06:47:43.000Z</time>
      </trkpt>
      <trkpt lat="47.45028" lon="3.06305">
        <ele>265.79998779297</ele>
        <time>2022-10-29T06:47:46.000Z</time>
      </trkpt>
      <trkpt lat="47.45035" lon="3.06301">
        <ele>266.39999389648</ele>
        <time>2022-10-29T06:47:48.000Z</time>
      </trkpt>
      <trkpt lat="47.45061" lon="3.06285">
        <ele>267.39999389648</ele>
        <time>2022-10-29T06:47:55.000Z</time>
      </trkpt>
      <trkpt lat="47.45079" lon="3.06273">
        <ele>268.39999389648</ele>
        <time>2022-10-29T06:48:00.000Z</time>
      </trkpt>
      <trkpt lat="47.45105" lon="3.06255">
        <ele>269.39999389648</ele>
        <time>2022-10-29T06:48:07.000Z</time>
      </trkpt>
      <trkpt lat="47.45123" lon="3.06244">
        <ele>270.60000610352</ele>
        <time>2022-10-29T06:48:12.000Z</time>
      </trkpt>
      <trkpt lat="47.45138" lon="3.06234">
        <ele>271.39999389648</ele>
        <time>2022-10-29T06:48:16.000Z</time>
      </trkpt>
      <trkpt lat="47.45146" lon="3.06229">
        <ele>272</ele>
        <time>2022-10-29T06:48:19.000Z</time>
      </trkpt>
      <trkpt lat="47.45172" lon="3.06212">
        <ele>273</ele>
        <time>2022-10-29T06:48:25.000Z</time>
      </trkpt>
      <trkpt lat="47.45179" lon="3.06206">
        <ele>273.39999389648</ele>
        <time>2022-10-29T06:48:27.000Z</time>
      </trkpt>
      <trkpt lat="47.45198" lon="3.06194">
        <ele>274.20001220703</ele>
        <time>2022-10-29T06:48:32.000Z</time>
      </trkpt>
      <trkpt lat="47.45213" lon="3.06185">
        <ele>274.79998779297</ele>
        <time>2022-10-29T06:48:36.000Z</time>
      </trkpt>
      <trkpt lat="47.45221" lon="3.0618">
        <ele>275.39999389648</ele>
        <time>2022-10-29T06:48:38.000Z</time>
      </trkpt>
      <trkpt lat="47.4524" lon="3.0617">
        <ele>276.39999389648</ele>
        <time>2022-10-29T06:48:43.000Z</time>
      </trkpt>
      <trkpt lat="47.45247" lon="3.06166">
        <ele>276.79998779297</ele>
        <time>2022-10-29T06:48:45.000Z</time>
      </trkpt>
      <trkpt lat="47.4526" lon="3.06156">
        <ele>277.60000610352</ele>
        <time>2022-10-29T06:48:49.000Z</time>
      </trkpt>
      <trkpt lat="47.45275" lon="3.06146">
        <ele>278.60000610352</ele>
        <time>2022-10-29T06:48:53.000Z</time>
      </trkpt>
      <trkpt lat="47.45285" lon="3.06139">
        <ele>279.79998779297</ele>
        <time>2022-10-29T06:48:56.000Z</time>
      </trkpt>
      <trkpt lat="47.45296" lon="3.06132">
        <ele>280.79998779297</ele>
        <time>2022-10-29T06:48:59.000Z</time>
      </trkpt>
      <trkpt lat="47.45307" lon="3.06125">
        <ele>281.39999389648</ele>
        <time>2022-10-29T06:49:02.000Z</time>
      </trkpt>
      <trkpt lat="47.45313" lon="3.0612">
        <ele>282.20001220703</ele>
        <time>2022-10-29T06:49:04.000Z</time>
      </trkpt>
      <trkpt lat="47.45329" lon="3.06109">
        <ele>283.39999389648</ele>
        <time>2022-10-29T06:49:09.000Z</time>
      </trkpt>
      <trkpt lat="47.45332" lon="3.06107">
        <ele>283.60000610352</ele>
        <time>2022-10-29T06:49:10.000Z</time>
      </trkpt>
      <trkpt lat="47.45345" lon="3.06098">
        <ele>284.39999389648</ele>
        <time>2022-10-29T06:49:14.000Z</time>
      </trkpt>
      <trkpt lat="47.45356" lon="3.06089">
        <ele>285.39999389648</ele>
        <time>2022-10-29T06:49:18.000Z</time>
      </trkpt>
      <trkpt lat="47.45359" lon="3.06088">
        <ele>285.60000610352</ele>
        <time>2022-10-29T06:49:19.000Z</time>
      </trkpt>
      <trkpt lat="47.45367" lon="3.06083">
        <ele>286.39999389648</ele>
        <time>2022-10-29T06:49:24.000Z</time>
      </trkpt>
      <trkpt lat="47.45369" lon="3.06083">
        <ele>286.79998779297</ele>
        <time>2022-10-29T06:49:28.000Z</time>
      </trkpt>
      <trkpt lat="47.45371" lon="3.06084">
        <ele>286.79998779297</ele>
        <time>2022-10-29T06:49:29.000Z</time>
      </trkpt>
      <trkpt lat="47.45378" lon="3.06084">
        <ele>286.79998779297</ele>
        <time>2022-10-29T06:49:32.000Z</time>
      </trkpt>
      <trkpt lat="47.45388" lon="3.0607">
        <ele>287.20001220703</ele>
        <time>2022-10-29T06:49:37.000Z</time>
      </trkpt>
      <trkpt lat="47.4539" lon="3.06068">
        <ele>287.39999389648</ele>
        <time>2022-10-29T06:49:38.000Z</time>
      </trkpt>
      <trkpt lat="47.454" lon="3.06055">
        <ele>288</ele>
        <time>2022-10-29T06:49:43.000Z</time>
      </trkpt>
      <trkpt lat="47.45403" lon="3.06048">
        <ele>288.39999389648</ele>
        <time>2022-10-29T06:49:45.000Z</time>
      </trkpt>
      <trkpt lat="47.45413" lon="3.06034">
        <ele>289.79998779297</ele>
        <time>2022-10-29T06:49:50.000Z</time>
      </trkpt>
      <trkpt lat="47.45416" lon="3.06032">
        <ele>289.79998779297</ele>
        <time>2022-10-29T06:49:51.000Z</time>
      </trkpt>
      <trkpt lat="47.45423" lon="3.06024">
        <ele>290.39999389648</ele>
        <time>2022-10-29T06:49:54.000Z</time>
      </trkpt>
      <trkpt lat="47.45427" lon="3.06018">
        <ele>290.79998779297</ele>
        <time>2022-10-29T06:49:56.000Z</time>
      </trkpt>
      <trkpt lat="47.45436" lon="3.06005">
        <ele>291.79998779297</ele>
        <time>2022-10-29T06:50:00.000Z</time>
      </trkpt>
      <trkpt lat="47.45446" lon="3.0599">
        <ele>293</ele>
        <time>2022-10-29T06:50:05.000Z</time>
      </trkpt>
      <trkpt lat="47.45452" lon="3.05981">
        <ele>293.60000610352</ele>
        <time>2022-10-29T06:50:08.000Z</time>
      </trkpt>
      <trkpt lat="47.45456" lon="3.05974">
        <ele>294</ele>
        <time>2022-10-29T06:50:10.000Z</time>
      </trkpt>
      <trkpt lat="47.45465" lon="3.0596">
        <ele>294.60000610352</ele>
        <time>2022-10-29T06:50:14.000Z</time>
      </trkpt>
      <trkpt lat="47.45469" lon="3.05954">
        <ele>295.20001220703</ele>
        <time>2022-10-29T06:50:16.000Z</time>
      </trkpt>
      <trkpt lat="47.45479" lon="3.05943">
        <ele>296.39999389648</ele>
        <time>2022-10-29T06:50:20.000Z</time>
      </trkpt>
      <trkpt lat="47.45489" lon="3.05927">
        <ele>297.60000610352</ele>
        <time>2022-10-29T06:50:25.000Z</time>
      </trkpt>
      <trkpt lat="47.45495" lon="3.05918">
        <ele>298.20001220703</ele>
        <time>2022-10-29T06:50:28.000Z</time>
      </trkpt>
      <trkpt lat="47.45497" lon="3.05915">
        <ele>298.60000610352</ele>
        <time>2022-10-29T06:50:29.000Z</time>
      </trkpt>
      <trkpt lat="47.45507" lon="3.05898">
        <ele>299.79998779297</ele>
        <time>2022-10-29T06:50:34.000Z</time>
      </trkpt>
      <trkpt lat="47.45515" lon="3.05885">
        <ele>300.60000610352</ele>
        <time>2022-10-29T06:50:38.000Z</time>
      </trkpt>
      <trkpt lat="47.45517" lon="3.05882">
        <ele>301</ele>
        <time>2022-10-29T06:50:39.000Z</time>
      </trkpt>
      <trkpt lat="47.45525" lon="3.0587">
        <ele>302.20001220703</ele>
        <time>2022-10-29T06:50:43.000Z</time>
      </trkpt>
      <trkpt lat="47.45529" lon="3.05865">
        <ele>302.60000610352</ele>
        <time>2022-10-29T06:50:45.000Z</time>
      </trkpt>
      <trkpt lat="47.45536" lon="3.05858">
        <ele>303.20001220703</ele>
        <time>2022-10-29T06:50:48.000Z</time>
      </trkpt>
      <trkpt lat="47.45545" lon="3.05842">
        <ele>304.39999389648</ele>
        <time>2022-10-29T06:50:53.000Z</time>
      </trkpt>
      <trkpt lat="47.45556" lon="3.05826">
        <ele>305.79998779297</ele>
        <time>2022-10-29T06:50:58.000Z</time>
      </trkpt>
      <trkpt lat="47.45565" lon="3.05811">
        <ele>306.60000610352</ele>
        <time>2022-10-29T06:51:02.000Z</time>
      </trkpt>
      <trkpt lat="47.45567" lon="3.05809">
        <ele>307</ele>
        <time>2022-10-29T06:51:03.000Z</time>
      </trkpt>
      <trkpt lat="47.4558" lon="3.05791">
        <ele>308.39999389648</ele>
        <time>2022-10-29T06:51:08.000Z</time>
      </trkpt>
      <trkpt lat="47.45588" lon="3.05781">
        <ele>309.20001220703</ele>
        <time>2022-10-29T06:51:11.000Z</time>
      </trkpt>
      <trkpt lat="47.45591" lon="3.05778">
        <ele>309.39999389648</ele>
        <time>2022-10-29T06:51:12.000Z</time>
      </trkpt>
      <trkpt lat="47.45606" lon="3.05766">
        <ele>310.79998779297</ele>
        <time>2022-10-29T06:51:17.000Z</time>
      </trkpt>
      <trkpt lat="47.45609" lon="3.05764">
        <ele>311</ele>
        <time>2022-10-29T06:51:18.000Z</time>
      </trkpt>
      <trkpt lat="47.4562" lon="3.05755">
        <ele>312.39999389648</ele>
        <time>2022-10-29T06:51:22.000Z</time>
      </trkpt>
      <trkpt lat="47.45632" lon="3.05745">
        <ele>313.20001220703</ele>
        <time>2022-10-29T06:51:26.000Z</time>
      </trkpt>
      <trkpt lat="47.45635" lon="3.05744">
        <ele>313.39999389648</ele>
        <time>2022-10-29T06:51:27.000Z</time>
      </trkpt>
      <trkpt lat="47.4565" lon="3.05736">
        <ele>314.79998779297</ele>
        <time>2022-10-29T06:51:32.000Z</time>
      </trkpt>
      <trkpt lat="47.45656" lon="3.05733">
        <ele>315.20001220703</ele>
        <time>2022-10-29T06:51:34.000Z</time>
      </trkpt>
      <trkpt lat="47.45662" lon="3.05731">
        <ele>315.79998779297</ele>
        <time>2022-10-29T06:51:36.000Z</time>
      </trkpt>
      <trkpt lat="47.45671" lon="3.05728">
        <ele>316.79998779297</ele>
        <time>2022-10-29T06:51:39.000Z</time>
      </trkpt>
      <trkpt lat="47.45682" lon="3.05725">
        <ele>317.79998779297</ele>
        <time>2022-10-29T06:51:43.000Z</time>
      </trkpt>
      <trkpt lat="47.45685" lon="3.05724">
        <ele>318</ele>
        <time>2022-10-29T06:51:44.000Z</time>
      </trkpt>
      <trkpt lat="47.45701" lon="3.05721">
        <ele>319.20001220703</ele>
        <time>2022-10-29T06:51:49.000Z</time>
      </trkpt>
      <trkpt lat="47.45711" lon="3.05721">
        <ele>319.79998779297</ele>
        <time>2022-10-29T06:51:52.000Z</time>
      </trkpt>
      <trkpt lat="47.45719" lon="3.0572">
        <ele>320.39999389648</ele>
        <time>2022-10-29T06:51:55.000Z</time>
      </trkpt>
      <trkpt lat="47.45731" lon="3.05718">
        <ele>321.39999389648</ele>
        <time>2022-10-29T06:51:59.000Z</time>
      </trkpt>
      <trkpt lat="47.45753" lon="3.05716">
        <ele>322.39999389648</ele>
        <time>2022-10-29T06:52:07.000Z</time>
      </trkpt>
      <trkpt lat="47.45756" lon="3.05716">
        <ele>322.60000610352</ele>
        <time>2022-10-29T06:52:08.000Z</time>
      </trkpt>
      <trkpt lat="47.45771" lon="3.05715">
        <ele>323</ele>
        <time>2022-10-29T06:52:14.000Z</time>
      </trkpt>
      <trkpt lat="47.4579" lon="3.05713">
        <ele>323.20001220703</ele>
        <time>2022-10-29T06:52:21.000Z</time>
      </trkpt>
      <trkpt lat="47.45813" lon="3.05712">
        <ele>323.20001220703</ele>
        <time>2022-10-29T06:52:27.000Z</time>
      </trkpt>
      <trkpt lat="47.45844" lon="3.0571">
        <ele>322.79998779297</ele>
        <time>2022-10-29T06:52:34.000Z</time>
      </trkpt>
      <trkpt lat="47.45849" lon="3.0571">
        <ele>322.60000610352</ele>
        <time>2022-10-29T06:52:35.000Z</time>
      </trkpt>
      <trkpt lat="47.45879" lon="3.05706">
        <ele>322</ele>
        <time>2022-10-29T06:52:41.000Z</time>
      </trkpt>
      <trkpt lat="47.45909" lon="3.05704">
        <ele>321.39999389648</ele>
        <time>2022-10-29T06:52:47.000Z</time>
      </trkpt>
      <trkpt lat="47.45923" lon="3.05703">
        <ele>321.20001220703</ele>
        <time>2022-10-29T06:52:50.000Z</time>
      </trkpt>
      <trkpt lat="47.45947" lon="3.05701">
        <ele>321.20001220703</ele>
        <time>2022-10-29T06:52:56.000Z</time>
      </trkpt>
      <trkpt lat="47.45979" lon="3.05698">
        <ele>321.79998779297</ele>
        <time>2022-10-29T06:53:04.000Z</time>
      </trkpt>
      <trkpt lat="47.46006" lon="3.05696">
        <ele>322.39999389648</ele>
        <time>2022-10-29T06:53:12.000Z</time>
      </trkpt>
      <trkpt lat="47.46012" lon="3.05696">
        <ele>322.60000610352</ele>
        <time>2022-10-29T06:53:14.000Z</time>
      </trkpt>
      <trkpt lat="47.46027" lon="3.05695">
        <ele>322.60000610352</ele>
        <time>2022-10-29T06:53:19.000Z</time>
      </trkpt>
      <trkpt lat="47.46055" lon="3.05693">
        <ele>322.60000610352</ele>
        <time>2022-10-29T06:53:27.000Z</time>
      </trkpt>
      <trkpt lat="47.46081" lon="3.05691">
        <ele>322.60000610352</ele>
        <time>2022-10-29T06:53:34.000Z</time>
      </trkpt>
      <trkpt lat="47.46098" lon="3.05687">
        <ele>322.39999389648</ele>
        <time>2022-10-29T06:53:40.000Z</time>
      </trkpt>
      <trkpt lat="47.46115" lon="3.05687">
        <ele>322.20001220703</ele>
        <time>2022-10-29T06:53:47.000Z</time>
      </trkpt>
      <trkpt lat="47.46136" lon="3.05686">
        <ele>322.20001220703</ele>
        <time>2022-10-29T06:53:54.000Z</time>
      </trkpt>
      <trkpt lat="47.46161" lon="3.05685">
        <ele>322</ele>
        <time>2022-10-29T06:54:02.000Z</time>
      </trkpt>
      <trkpt lat="47.46185" lon="3.05684">
        <ele>321.79998779297</ele>
        <time>2022-10-29T06:54:08.000Z</time>
      </trkpt>
      <trkpt lat="47.46206" lon="3.05682">
        <ele>321.39999389648</ele>
        <time>2022-10-29T06:54:12.000Z</time>
      </trkpt>
      <trkpt lat="47.46217" lon="3.0568">
        <ele>321.20001220703</ele>
        <time>2022-10-29T06:54:14.000Z</time>
      </trkpt>
      <trkpt lat="47.46255" lon="3.05678">
        <ele>320.20001220703</ele>
        <time>2022-10-29T06:54:20.000Z</time>
      </trkpt>
      <trkpt lat="47.46261" lon="3.05677">
        <ele>320</ele>
        <time>2022-10-29T06:54:21.000Z</time>
      </trkpt>
      <trkpt lat="47.46294" lon="3.05674">
        <ele>319.20001220703</ele>
        <time>2022-10-29T06:54:26.000Z</time>
      </trkpt>
      <trkpt lat="47.46314" lon="3.05672">
        <ele>318.39999389648</ele>
        <time>2022-10-29T06:54:29.000Z</time>
      </trkpt>
      <trkpt lat="47.46348" lon="3.05669">
        <ele>318.20001220703</ele>
        <time>2022-10-29T06:54:35.000Z</time>
      </trkpt>
      <trkpt lat="47.46374" lon="3.05667">
        <ele>318.39999389648</ele>
        <time>2022-10-29T06:54:41.000Z</time>
      </trkpt>
      <trkpt lat="47.46396" lon="3.05666">
        <ele>319.20001220703</ele>
        <time>2022-10-29T06:54:46.000Z</time>
      </trkpt>
      <trkpt lat="47.46404" lon="3.05665">
        <ele>319.39999389648</ele>
        <time>2022-10-29T06:54:48.000Z</time>
      </trkpt>
      <trkpt lat="47.46419" lon="3.05664">
        <ele>319.79998779297</ele>
        <time>2022-10-29T06:54:52.000Z</time>
      </trkpt>
      <trkpt lat="47.46432" lon="3.05662">
        <ele>320.20001220703</ele>
        <time>2022-10-29T06:54:56.000Z</time>
      </trkpt>
      <trkpt lat="47.46461" lon="3.0566">
        <ele>321</ele>
        <time>2022-10-29T06:55:04.000Z</time>
      </trkpt>
      <trkpt lat="47.46474" lon="3.05659">
        <ele>321.20001220703</ele>
        <time>2022-10-29T06:55:08.000Z</time>
      </trkpt>
      <trkpt lat="47.46498" lon="3.05657">
        <ele>321.39999389648</ele>
        <time>2022-10-29T06:55:16.000Z</time>
      </trkpt>
      <trkpt lat="47.46518" lon="3.05657">
        <ele>321.60000610352</ele>
        <time>2022-10-29T06:55:23.000Z</time>
      </trkpt>
      <trkpt lat="47.46545" lon="3.05655">
        <ele>321.39999389648</ele>
        <time>2022-10-29T06:55:32.000Z</time>
      </trkpt>
      <trkpt lat="47.46569" lon="3.05654">
        <ele>320.79998779297</ele>
        <time>2022-10-29T06:55:39.000Z</time>
      </trkpt>
      <trkpt lat="47.46588" lon="3.05652">
        <ele>320.60000610352</ele>
        <time>2022-10-29T06:55:45.000Z</time>
      </trkpt>
      <trkpt lat="47.46608" lon="3.0565">
        <ele>320.39999389648</ele>
        <time>2022-10-29T06:55:50.000Z</time>
      </trkpt>
      <trkpt lat="47.46615" lon="3.0565">
        <ele>320.20001220703</ele>
        <time>2022-10-29T06:55:52.000Z</time>
      </trkpt>
      <trkpt lat="47.46639" lon="3.05648">
        <ele>319.60000610352</ele>
        <time>2022-10-29T06:55:58.000Z</time>
      </trkpt>
      <trkpt lat="47.4667" lon="3.05646">
        <ele>319.20001220703</ele>
        <time>2022-10-29T06:56:06.000Z</time>
      </trkpt>
      <trkpt lat="47.467" lon="3.05643">
        <ele>319.20001220703</ele>
        <time>2022-10-29T06:56:14.000Z</time>
      </trkpt>
      <trkpt lat="47.46728" lon="3.0564">
        <ele>319.20001220703</ele>
        <time>2022-10-29T06:56:21.000Z</time>
      </trkpt>
      <trkpt lat="47.4676" lon="3.05638">
        <ele>319.20001220703</ele>
        <time>2022-10-29T06:56:29.000Z</time>
      </trkpt>
      <trkpt lat="47.46767" lon="3.05637">
        <ele>319.20001220703</ele>
        <time>2022-10-29T06:56:31.000Z</time>
      </trkpt>
      <trkpt lat="47.46803" lon="3.05635">
        <ele>319</ele>
        <time>2022-10-29T06:56:40.000Z</time>
      </trkpt>
      <trkpt lat="47.46842" lon="3.05631">
        <ele>318.60000610352</ele>
        <time>2022-10-29T06:56:49.000Z</time>
      </trkpt>
      <trkpt lat="47.46846" lon="3.05631">
        <ele>318.60000610352</ele>
        <time>2022-10-29T06:56:50.000Z</time>
      </trkpt>
      <trkpt lat="47.46868" lon="3.05629">
        <ele>318.20001220703</ele>
        <time>2022-10-29T06:56:55.000Z</time>
      </trkpt>
      <trkpt lat="47.46873" lon="3.05629">
        <ele>318</ele>
        <time>2022-10-29T06:56:56.000Z</time>
      </trkpt>
      <trkpt lat="47.46911" lon="3.05626">
        <ele>317.39999389648</ele>
        <time>2022-10-29T06:57:03.000Z</time>
      </trkpt>
      <trkpt lat="47.46923" lon="3.05625">
        <ele>317.20001220703</ele>
        <time>2022-10-29T06:57:05.000Z</time>
      </trkpt>
      <trkpt lat="47.4693" lon="3.05625">
        <ele>317</ele>
        <time>2022-10-29T06:57:06.000Z</time>
      </trkpt>
      <trkpt lat="47.4695" lon="3.05624">
        <ele>316.60000610352</ele>
        <time>2022-10-29T06:57:09.000Z</time>
      </trkpt>
      <trkpt lat="47.46983" lon="3.0562">
        <ele>316</ele>
        <time>2022-10-29T06:57:14.000Z</time>
      </trkpt>
      <trkpt lat="47.46997" lon="3.05619">
        <ele>315.79998779297</ele>
        <time>2022-10-29T06:57:16.000Z</time>
      </trkpt>
      <trkpt lat="47.47031" lon="3.05616">
        <ele>314.79998779297</ele>
        <time>2022-10-29T06:57:21.000Z</time>
      </trkpt>
      <trkpt lat="47.47052" lon="3.05615">
        <ele>314.60000610352</ele>
        <time>2022-10-29T06:57:24.000Z</time>
      </trkpt>
      <trkpt lat="47.47103" lon="3.0561">
        <ele>313.79998779297</ele>
        <time>2022-10-29T06:57:31.000Z</time>
      </trkpt>
      <trkpt lat="47.47118" lon="3.0561">
        <ele>313.60000610352</ele>
        <time>2022-10-29T06:57:33.000Z</time>
      </trkpt>
      <trkpt lat="47.4716" lon="3.05607">
        <ele>312.60000610352</ele>
        <time>2022-10-29T06:57:38.000Z</time>
      </trkpt>
      <trkpt lat="47.47188" lon="3.05605">
        <ele>311.60000610352</ele>
        <time>2022-10-29T06:57:41.000Z</time>
      </trkpt>
      <trkpt lat="47.47217" lon="3.05602">
        <ele>310.79998779297</ele>
        <time>2022-10-29T06:57:44.000Z</time>
      </trkpt>
      <trkpt lat="47.47225" lon="3.05601">
        <ele>310.39999389648</ele>
        <time>2022-10-29T06:57:45.000Z</time>
      </trkpt>
      <trkpt lat="47.47256" lon="3.05599">
        <ele>308.79998779297</ele>
        <time>2022-10-29T06:57:48.000Z</time>
      </trkpt>
      <trkpt lat="47.47286" lon="3.05598">
        <ele>307.60000610352</ele>
        <time>2022-10-29T06:57:51.000Z</time>
      </trkpt>
      <trkpt lat="47.47333" lon="3.05606">
        <ele>306.39999389648</ele>
        <time>2022-10-29T06:57:56.000Z</time>
      </trkpt>
      <trkpt lat="47.47391" lon="3.05628">
        <ele>305.79998779297</ele>
        <time>2022-10-29T06:58:03.000Z</time>
      </trkpt>
      <trkpt lat="47.47439" lon="3.05646">
        <ele>306.20001220703</ele>
        <time>2022-10-29T06:58:10.000Z</time>
      </trkpt>
      <trkpt lat="47.47498" lon="3.05667">
        <ele>307</ele>
        <time>2022-10-29T06:58:19.000Z</time>
      </trkpt>
      <trkpt lat="47.47545" lon="3.05684">
        <ele>306.60000610352</ele>
        <time>2022-10-29T06:58:25.000Z</time>
      </trkpt>
      <trkpt lat="47.47579" lon="3.05696">
        <ele>305.39999389648</ele>
        <time>2022-10-29T06:58:29.000Z</time>
      </trkpt>
      <trkpt lat="47.47597" lon="3.05702">
        <ele>305</ele>
        <time>2022-10-29T06:58:31.000Z</time>
      </trkpt>
      <trkpt lat="47.47616" lon="3.05709">
        <ele>304.39999389648</ele>
        <time>2022-10-29T06:58:33.000Z</time>
      </trkpt>
      <trkpt lat="47.47636" lon="3.05716">
        <ele>303.39999389648</ele>
        <time>2022-10-29T06:58:35.000Z</time>
      </trkpt>
      <trkpt lat="47.47667" lon="3.05727">
        <ele>302</ele>
        <time>2022-10-29T06:58:38.000Z</time>
      </trkpt>
      <trkpt lat="47.47677" lon="3.0573">
        <ele>301</ele>
        <time>2022-10-29T06:58:39.000Z</time>
      </trkpt>
      <trkpt lat="47.47699" lon="3.05738">
        <ele>299.39999389648</ele>
        <time>2022-10-29T06:58:41.000Z</time>
      </trkpt>
      <trkpt lat="47.47721" lon="3.05746">
        <ele>298</ele>
        <time>2022-10-29T06:58:43.000Z</time>
      </trkpt>
      <trkpt lat="47.47731" lon="3.05749">
        <ele>297</ele>
        <time>2022-10-29T06:58:44.000Z</time>
      </trkpt>
      <trkpt lat="47.47756" lon="3.05756">
        <ele>295.79998779297</ele>
        <time>2022-10-29T06:58:46.000Z</time>
      </trkpt>
      <trkpt lat="47.47778" lon="3.05759">
        <ele>294</ele>
        <time>2022-10-29T06:58:48.000Z</time>
      </trkpt>
      <trkpt lat="47.47787" lon="3.05758">
        <ele>292.79998779297</ele>
        <time>2022-10-29T06:58:49.000Z</time>
      </trkpt>
      <trkpt lat="47.47811" lon="3.05757">
        <ele>290.79998779297</ele>
        <time>2022-10-29T06:58:51.000Z</time>
      </trkpt>
      <trkpt lat="47.47831" lon="3.05756">
        <ele>289.20001220703</ele>
        <time>2022-10-29T06:58:53.000Z</time>
      </trkpt>
      <trkpt lat="47.47841" lon="3.05755">
        <ele>288.60000610352</ele>
        <time>2022-10-29T06:58:54.000Z</time>
      </trkpt>
      <trkpt lat="47.47851" lon="3.05754">
        <ele>287.60000610352</ele>
        <time>2022-10-29T06:58:55.000Z</time>
      </trkpt>
      <trkpt lat="47.47861" lon="3.05753">
        <ele>286.39999389648</ele>
        <time>2022-10-29T06:58:56.000Z</time>
      </trkpt>
      <trkpt lat="47.4788" lon="3.05752">
        <ele>285.20001220703</ele>
        <time>2022-10-29T06:58:58.000Z</time>
      </trkpt>
      <trkpt lat="47.47898" lon="3.05751">
        <ele>283.79998779297</ele>
        <time>2022-10-29T06:59:00.000Z</time>
      </trkpt>
      <trkpt lat="47.47907" lon="3.05751">
        <ele>283.20001220703</ele>
        <time>2022-10-29T06:59:01.000Z</time>
      </trkpt>
      <trkpt lat="47.47916" lon="3.05751">
        <ele>282.39999389648</ele>
        <time>2022-10-29T06:59:02.000Z</time>
      </trkpt>
      <trkpt lat="47.47925" lon="3.0575">
        <ele>281.20001220703</ele>
        <time>2022-10-29T06:59:03.000Z</time>
      </trkpt>
      <trkpt lat="47.47942" lon="3.0575">
        <ele>279.79998779297</ele>
        <time>2022-10-29T06:59:05.000Z</time>
      </trkpt>
      <trkpt lat="47.4795" lon="3.0575">
        <ele>279</ele>
        <time>2022-10-29T06:59:06.000Z</time>
      </trkpt>
      <trkpt lat="47.47958" lon="3.0575">
        <ele>278.60000610352</ele>
        <time>2022-10-29T06:59:07.000Z</time>
      </trkpt>
      <trkpt lat="47.47971" lon="3.05748">
        <ele>277.39999389648</ele>
        <time>2022-10-29T06:59:09.000Z</time>
      </trkpt>
      <trkpt lat="47.47978" lon="3.05745">
        <ele>276.39999389648</ele>
        <time>2022-10-29T06:59:10.000Z</time>
      </trkpt>
      <trkpt lat="47.47984" lon="3.05739">
        <ele>276.20001220703</ele>
        <time>2022-10-29T06:59:11.000Z</time>
      </trkpt>
      <trkpt lat="47.47988" lon="3.05732">
        <ele>275.39999389648</ele>
        <time>2022-10-29T06:59:12.000Z</time>
      </trkpt>
      <trkpt lat="47.47992" lon="3.05723">
        <ele>274.79998779297</ele>
        <time>2022-10-29T06:59:13.000Z</time>
      </trkpt>
      <trkpt lat="47.47996" lon="3.05705">
        <ele>274</ele>
        <time>2022-10-29T06:59:15.000Z</time>
      </trkpt>
      <trkpt lat="47.48002" lon="3.05675">
        <ele>272.79998779297</ele>
        <time>2022-10-29T06:59:18.000Z</time>
      </trkpt>
      <trkpt lat="47.48005" lon="3.05666">
        <ele>272.60000610352</ele>
        <time>2022-10-29T06:59:19.000Z</time>
      </trkpt>
      <trkpt lat="47.48011" lon="3.05637">
        <ele>272</ele>
        <time>2022-10-29T06:59:22.000Z</time>
      </trkpt>
      <trkpt lat="47.48019" lon="3.05623">
        <ele>272</ele>
        <time>2022-10-29T06:59:24.000Z</time>
      </trkpt>
      <trkpt lat="47.48027" lon="3.05613">
        <ele>271.79998779297</ele>
        <time>2022-10-29T06:59:26.000Z</time>
      </trkpt>
      <trkpt lat="47.48042" lon="3.05597">
        <ele>272</ele>
        <time>2022-10-29T06:59:29.000Z</time>
      </trkpt>
      <trkpt lat="47.48052" lon="3.05585">
        <ele>272.39999389648</ele>
        <time>2022-10-29T06:59:32.000Z</time>
      </trkpt>
      <trkpt lat="47.48056" lon="3.05583">
        <ele>272.60000610352</ele>
        <time>2022-10-29T06:59:33.000Z</time>
      </trkpt>
      <trkpt lat="47.48067" lon="3.05572">
        <ele>273.79998779297</ele>
        <time>2022-10-29T06:59:37.000Z</time>
      </trkpt>
      <trkpt lat="47.4807" lon="3.05569">
        <ele>273.79998779297</ele>
        <time>2022-10-29T06:59:38.000Z</time>
      </trkpt>
      <trkpt lat="47.48082" lon="3.05561">
        <ele>274.39999389648</ele>
        <time>2022-10-29T06:59:43.000Z</time>
      </trkpt>
      <trkpt lat="47.48093" lon="3.05561">
        <ele>274.79998779297</ele>
        <time>2022-10-29T06:59:48.000Z</time>
      </trkpt>
      <trkpt lat="47.48101" lon="3.05563">
        <ele>275</ele>
        <time>2022-10-29T06:59:52.000Z</time>
      </trkpt>
      <trkpt lat="47.48106" lon="3.05566">
        <ele>274.79998779297</ele>
        <time>2022-10-29T06:59:54.000Z</time>
      </trkpt>
      <trkpt lat="47.48115" lon="3.05572">
        <ele>274.79998779297</ele>
        <time>2022-10-29T06:59:57.000Z</time>
      </trkpt>
      <trkpt lat="47.48119" lon="3.05573">
        <ele>274.79998779297</ele>
        <time>2022-10-29T06:59:58.000Z</time>
      </trkpt>
      <trkpt lat="47.48143" lon="3.05585">
        <ele>274.39999389648</ele>
        <time>2022-10-29T07:00:04.000Z</time>
      </trkpt>
      <trkpt lat="47.4818" lon="3.05602">
        <ele>274</ele>
        <time>2022-10-29T07:00:12.000Z</time>
      </trkpt>
      <trkpt lat="47.48203" lon="3.05613">
        <ele>274</ele>
        <time>2022-10-29T07:00:17.000Z</time>
      </trkpt>
      <trkpt lat="47.48217" lon="3.05619">
        <ele>274</ele>
        <time>2022-10-29T07:00:20.000Z</time>
      </trkpt>
      <trkpt lat="47.48246" lon="3.05633">
        <ele>273.79998779297</ele>
        <time>2022-10-29T07:00:28.000Z</time>
      </trkpt>
      <trkpt lat="47.48252" lon="3.05636">
        <ele>273.79998779297</ele>
        <time>2022-10-29T07:00:31.000Z</time>
      </trkpt>
      <trkpt lat="47.48253" lon="3.05636">
        <ele>273.79998779297</ele>
        <time>2022-10-29T07:00:33.000Z</time>
      </trkpt>
      <trkpt lat="47.48254" lon="3.05637">
        <ele>273.60000610352</ele>
        <time>2022-10-29T07:00:38.000Z</time>
      </trkpt>
      <trkpt lat="47.48255" lon="3.05636">
        <ele>273.60000610352</ele>
        <time>2022-10-29T07:00:39.000Z</time>
      </trkpt>
      <trkpt lat="47.48255" lon="3.05636">
        <ele>273.60000610352</ele>
        <time>2022-10-29T07:00:44.000Z</time>
      </trkpt>
      <trkpt lat="47.48255" lon="3.05636">
        <ele>273.39999389648</ele>
        <time>2022-10-29T07:00:56.000Z</time>
      </trkpt>
      <trkpt lat="47.48255" lon="3.05636">
        <ele>273.79998779297</ele>
        <time>2022-10-29T07:02:52.000Z</time>
      </trkpt>
      <trkpt lat="47.48256" lon="3.05637">
        <ele>274.20001220703</ele>
        <time>2022-10-29T07:04:45.000Z</time>
      </trkpt>
      <trkpt lat="47.48256" lon="3.05637">
        <ele>274.20001220703</ele>
        <time>2022-10-29T07:04:46.000Z</time>
      </trkpt>
      <trkpt lat="47.48256" lon="3.05637">
        <ele>274</ele>
        <time>2022-10-29T07:04:50.000Z</time>
      </trkpt>
      <trkpt lat="47.48256" lon="3.05637">
        <ele>274</ele>
        <time>2022-10-29T07:05:00.000Z</time>
      </trkpt>
      <trkpt lat="47.48257" lon="3.05637">
        <ele>274</ele>
        <time>2022-10-29T07:05:01.000Z</time>
      </trkpt>
      <trkpt lat="47.48265" lon="3.05642">
        <ele>274</ele>
        <time>2022-10-29T07:05:04.000Z</time>
      </trkpt>
      <trkpt lat="47.48281" lon="3.0565">
        <ele>274</ele>
        <time>2022-10-29T07:05:10.000Z</time>
      </trkpt>
      <trkpt lat="47.48308" lon="3.05662">
        <ele>273.60000610352</ele>
        <time>2022-10-29T07:05:18.000Z</time>
      </trkpt>
      <trkpt lat="47.48337" lon="3.05665">
        <ele>273.39999389648</ele>
        <time>2022-10-29T07:05:25.000Z</time>
      </trkpt>
      <trkpt lat="47.48346" lon="3.05663">
        <ele>273.20001220703</ele>
        <time>2022-10-29T07:05:27.000Z</time>
      </trkpt>
      <trkpt lat="47.48364" lon="3.05656">
        <ele>273.20001220703</ele>
        <time>2022-10-29T07:05:31.000Z</time>
      </trkpt>
      <trkpt lat="47.48368" lon="3.05654">
        <ele>273.20001220703</ele>
        <time>2022-10-29T07:05:32.000Z</time>
      </trkpt>
      <trkpt lat="47.48381" lon="3.05645">
        <ele>273</ele>
        <time>2022-10-29T07:05:35.000Z</time>
      </trkpt>
      <trkpt lat="47.48389" lon="3.05637">
        <ele>272.79998779297</ele>
        <time>2022-10-29T07:05:37.000Z</time>
      </trkpt>
      <trkpt lat="47.48409" lon="3.05609">
        <ele>272.20001220703</ele>
        <time>2022-10-29T07:05:42.000Z</time>
      </trkpt>
      <trkpt lat="47.48417" lon="3.05596">
        <ele>272</ele>
        <time>2022-10-29T07:05:44.000Z</time>
      </trkpt>
      <trkpt lat="47.48439" lon="3.05563">
        <ele>271</ele>
        <time>2022-10-29T07:05:49.000Z</time>
      </trkpt>
      <trkpt lat="47.48444" lon="3.05556">
        <ele>270.39999389648</ele>
        <time>2022-10-29T07:05:50.000Z</time>
      </trkpt>
      <trkpt lat="47.48463" lon="3.05527">
        <ele>269.20001220703</ele>
        <time>2022-10-29T07:05:54.000Z</time>
      </trkpt>
      <trkpt lat="47.48473" lon="3.05514">
        <ele>269</ele>
        <time>2022-10-29T07:05:56.000Z</time>
      </trkpt>
      <trkpt lat="47.4849" lon="3.05496">
        <ele>268</ele>
        <time>2022-10-29T07:05:59.000Z</time>
      </trkpt>
      <trkpt lat="47.48509" lon="3.05482">
        <ele>266.79998779297</ele>
        <time>2022-10-29T07:06:02.000Z</time>
      </trkpt>
      <trkpt lat="47.48515" lon="3.05479">
        <ele>266.60000610352</ele>
        <time>2022-10-29T07:06:03.000Z</time>
      </trkpt>
      <trkpt lat="47.48528" lon="3.05474">
        <ele>265.79998779297</ele>
        <time>2022-10-29T07:06:05.000Z</time>
      </trkpt>
      <trkpt lat="47.4854" lon="3.05471">
        <ele>265.20001220703</ele>
        <time>2022-10-29T07:06:07.000Z</time>
      </trkpt>
      <trkpt lat="47.48553" lon="3.0547">
        <ele>264.60000610352</ele>
        <time>2022-10-29T07:06:09.000Z</time>
      </trkpt>
      <trkpt lat="47.4857" lon="3.0547">
        <ele>263.39999389648</ele>
        <time>2022-10-29T07:06:12.000Z</time>
      </trkpt>
      <trkpt lat="47.48576" lon="3.05471">
        <ele>263</ele>
        <time>2022-10-29T07:06:13.000Z</time>
      </trkpt>
      <trkpt lat="47.48593" lon="3.05471">
        <ele>262.20001220703</ele>
        <time>2022-10-29T07:06:16.000Z</time>
      </trkpt>
      <trkpt lat="47.48605" lon="3.05469">
        <ele>261.60000610352</ele>
        <time>2022-10-29T07:06:18.000Z</time>
      </trkpt>
      <trkpt lat="47.48611" lon="3.05467">
        <ele>261</ele>
        <time>2022-10-29T07:06:19.000Z</time>
      </trkpt>
      <trkpt lat="47.48634" lon="3.0546">
        <ele>259.79998779297</ele>
        <time>2022-10-29T07:06:23.000Z</time>
      </trkpt>
      <trkpt lat="47.48646" lon="3.05454">
        <ele>259</ele>
        <time>2022-10-29T07:06:25.000Z</time>
      </trkpt>
      <trkpt lat="47.48651" lon="3.05451">
        <ele>258.60000610352</ele>
        <time>2022-10-29T07:06:26.000Z</time>
      </trkpt>
      <trkpt lat="47.48675" lon="3.05436">
        <ele>257.39999389648</ele>
        <time>2022-10-29T07:06:30.000Z</time>
      </trkpt>
      <trkpt lat="47.48685" lon="3.05427">
        <ele>256.60000610352</ele>
        <time>2022-10-29T07:06:32.000Z</time>
      </trkpt>
      <trkpt lat="47.48691" lon="3.05421">
        <ele>256</ele>
        <time>2022-10-29T07:06:33.000Z</time>
      </trkpt>
      <trkpt lat="47.48706" lon="3.05406">
        <ele>254.80000305176</ele>
        <time>2022-10-29T07:06:36.000Z</time>
      </trkpt>
      <trkpt lat="47.48711" lon="3.05401">
        <ele>254.60000610352</ele>
        <time>2022-10-29T07:06:37.000Z</time>
      </trkpt>
      <trkpt lat="47.48724" lon="3.05395">
        <ele>254.19999694824</ele>
        <time>2022-10-29T07:06:39.000Z</time>
      </trkpt>
      <trkpt lat="47.48739" lon="3.05396">
        <ele>253.39999389648</ele>
        <time>2022-10-29T07:06:41.000Z</time>
      </trkpt>
      <trkpt lat="47.48753" lon="3.05403">
        <ele>252.39999389648</ele>
        <time>2022-10-29T07:06:43.000Z</time>
      </trkpt>
      <trkpt lat="47.48759" lon="3.05408">
        <ele>252.19999694824</ele>
        <time>2022-10-29T07:06:44.000Z</time>
      </trkpt>
      <trkpt lat="47.48765" lon="3.05414">
        <ele>251.60000610352</ele>
        <time>2022-10-29T07:06:45.000Z</time>
      </trkpt>
      <trkpt lat="47.48769" lon="3.0542">
        <ele>251</ele>
        <time>2022-10-29T07:06:46.000Z</time>
      </trkpt>
      <trkpt lat="47.48775" lon="3.0543">
        <ele>250.80000305176</ele>
        <time>2022-10-29T07:06:47.000Z</time>
      </trkpt>
      <trkpt lat="47.48783" lon="3.05448">
        <ele>250.19999694824</ele>
        <time>2022-10-29T07:06:49.000Z</time>
      </trkpt>
      <trkpt lat="47.48785" lon="3.05456">
        <ele>249.80000305176</ele>
        <time>2022-10-29T07:06:50.000Z</time>
      </trkpt>
      <trkpt lat="47.48787" lon="3.05468">
        <ele>249.60000610352</ele>
        <time>2022-10-29T07:06:51.000Z</time>
      </trkpt>
      <trkpt lat="47.4879" lon="3.05489">
        <ele>248.80000305176</ele>
        <time>2022-10-29T07:06:53.000Z</time>
      </trkpt>
      <trkpt lat="47.48792" lon="3.05511">
        <ele>248.39999389648</ele>
        <time>2022-10-29T07:06:55.000Z</time>
      </trkpt>
      <trkpt lat="47.48803" lon="3.05573">
        <ele>247.19999694824</ele>
        <time>2022-10-29T07:07:01.000Z</time>
      </trkpt>
      <trkpt lat="47.48815" lon="3.05612">
        <ele>246.80000305176</ele>
        <time>2022-10-29T07:07:05.000Z</time>
      </trkpt>
      <trkpt lat="47.4882" lon="3.05621">
        <ele>246.80000305176</ele>
        <time>2022-10-29T07:07:06.000Z</time>
      </trkpt>
      <trkpt lat="47.48837" lon="3.05646">
        <ele>246</ele>
        <time>2022-10-29T07:07:09.000Z</time>
      </trkpt>
      <trkpt lat="47.48843" lon="3.05653">
        <ele>245.80000305176</ele>
        <time>2022-10-29T07:07:10.000Z</time>
      </trkpt>
      <trkpt lat="47.48865" lon="3.05674">
        <ele>245</ele>
        <time>2022-10-29T07:07:13.000Z</time>
      </trkpt>
      <trkpt lat="47.4888" lon="3.05685">
        <ele>244.19999694824</ele>
        <time>2022-10-29T07:07:15.000Z</time>
      </trkpt>
      <trkpt lat="47.48888" lon="3.05688">
        <ele>243.60000610352</ele>
        <time>2022-10-29T07:07:16.000Z</time>
      </trkpt>
      <trkpt lat="47.48896" lon="3.0569">
        <ele>243.39999389648</ele>
        <time>2022-10-29T07:07:17.000Z</time>
      </trkpt>
      <trkpt lat="47.48905" lon="3.05689">
        <ele>243</ele>
        <time>2022-10-29T07:07:18.000Z</time>
      </trkpt>
      <trkpt lat="47.48913" lon="3.05687">
        <ele>242.60000610352</ele>
        <time>2022-10-29T07:07:19.000Z</time>
      </trkpt>
      <trkpt lat="47.48928" lon="3.05677">
        <ele>242.19999694824</ele>
        <time>2022-10-29T07:07:21.000Z</time>
      </trkpt>
      <trkpt lat="47.4895" lon="3.05653">
        <ele>241</ele>
        <time>2022-10-29T07:07:24.000Z</time>
      </trkpt>
      <trkpt lat="47.48958" lon="3.05644">
        <ele>240.80000305176</ele>
        <time>2022-10-29T07:07:25.000Z</time>
      </trkpt>
      <trkpt lat="47.48981" lon="3.0562">
        <ele>239.80000305176</ele>
        <time>2022-10-29T07:07:28.000Z</time>
      </trkpt>
      <trkpt lat="47.49005" lon="3.05598">
        <ele>238.60000610352</ele>
        <time>2022-10-29T07:07:31.000Z</time>
      </trkpt>
      <trkpt lat="47.49023" lon="3.05585">
        <ele>237.39999389648</ele>
        <time>2022-10-29T07:07:33.000Z</time>
      </trkpt>
      <trkpt lat="47.49032" lon="3.05579">
        <ele>236.80000305176</ele>
        <time>2022-10-29T07:07:34.000Z</time>
      </trkpt>
      <trkpt lat="47.49048" lon="3.05569">
        <ele>236.19999694824</ele>
        <time>2022-10-29T07:07:36.000Z</time>
      </trkpt>
      <trkpt lat="47.49057" lon="3.05563">
        <ele>236</ele>
        <time>2022-10-29T07:07:37.000Z</time>
      </trkpt>
      <trkpt lat="47.49079" lon="3.0555">
        <ele>235</ele>
        <time>2022-10-29T07:07:39.000Z</time>
      </trkpt>
      <trkpt lat="47.4911" lon="3.05536">
        <ele>234</ele>
        <time>2022-10-29T07:07:42.000Z</time>
      </trkpt>
      <trkpt lat="47.49121" lon="3.05532">
        <ele>233.19999694824</ele>
        <time>2022-10-29T07:07:43.000Z</time>
      </trkpt>
      <trkpt lat="47.49151" lon="3.05521">
        <ele>232.19999694824</ele>
        <time>2022-10-29T07:07:46.000Z</time>
      </trkpt>
      <trkpt lat="47.4917" lon="3.05517">
        <ele>231.80000305176</ele>
        <time>2022-10-29T07:07:48.000Z</time>
      </trkpt>
      <trkpt lat="47.49197" lon="3.05511">
        <ele>230.80000305176</ele>
        <time>2022-10-29T07:07:51.000Z</time>
      </trkpt>
      <trkpt lat="47.49229" lon="3.05503">
        <ele>230.19999694824</ele>
        <time>2022-10-29T07:07:55.000Z</time>
      </trkpt>
      <trkpt lat="47.49256" lon="3.05497">
        <ele>230</ele>
        <time>2022-10-29T07:07:59.000Z</time>
      </trkpt>
      <trkpt lat="47.49276" lon="3.0549">
        <ele>229.80000305176</ele>
        <time>2022-10-29T07:08:02.000Z</time>
      </trkpt>
      <trkpt lat="47.49296" lon="3.0548">
        <ele>229.80000305176</ele>
        <time>2022-10-29T07:08:05.000Z</time>
      </trkpt>
      <trkpt lat="47.49302" lon="3.05476">
        <ele>229.80000305176</ele>
        <time>2022-10-29T07:08:06.000Z</time>
      </trkpt>
      <trkpt lat="47.49308" lon="3.05471">
        <ele>229.60000610352</ele>
        <time>2022-10-29T07:08:07.000Z</time>
      </trkpt>
      <trkpt lat="47.49313" lon="3.05467">
        <ele>229.60000610352</ele>
        <time>2022-10-29T07:08:08.000Z</time>
      </trkpt>
      <trkpt lat="47.49317" lon="3.05464">
        <ele>229.60000610352</ele>
        <time>2022-10-29T07:08:09.000Z</time>
      </trkpt>
      <trkpt lat="47.49322" lon="3.05458">
        <ele>229.80000305176</ele>
        <time>2022-10-29T07:08:10.000Z</time>
      </trkpt>
      <trkpt lat="47.49331" lon="3.05448">
        <ele>230</ele>
        <time>2022-10-29T07:08:12.000Z</time>
      </trkpt>
      <trkpt lat="47.49339" lon="3.05439">
        <ele>230</ele>
        <time>2022-10-29T07:08:14.000Z</time>
      </trkpt>
      <trkpt lat="47.4935" lon="3.05423">
        <ele>230</ele>
        <time>2022-10-29T07:08:17.000Z</time>
      </trkpt>
      <trkpt lat="47.49383" lon="3.0539">
        <ele>229.60000610352</ele>
        <time>2022-10-29T07:08:23.000Z</time>
      </trkpt>
      <trkpt lat="47.49413" lon="3.0536">
        <ele>229.60000610352</ele>
        <time>2022-10-29T07:08:29.000Z</time>
      </trkpt>
      <trkpt lat="47.49435" lon="3.05349">
        <ele>229.80000305176</ele>
        <time>2022-10-29T07:08:33.000Z</time>
      </trkpt>
      <trkpt lat="47.49444" lon="3.05344">
        <ele>229.80000305176</ele>
        <time>2022-10-29T07:08:35.000Z</time>
      </trkpt>
      <trkpt lat="47.49449" lon="3.05343">
        <ele>229.80000305176</ele>
        <time>2022-10-29T07:08:36.000Z</time>
      </trkpt>
      <trkpt lat="47.49474" lon="3.05334">
        <ele>230</ele>
        <time>2022-10-29T07:08:40.000Z</time>
      </trkpt>
      <trkpt lat="47.49522" lon="3.05313">
        <ele>229.80000305176</ele>
        <time>2022-10-29T07:08:48.000Z</time>
      </trkpt>
      <trkpt lat="47.49568" lon="3.05296">
        <ele>229.80000305176</ele>
        <time>2022-10-29T07:08:56.000Z</time>
      </trkpt>
      <trkpt lat="47.49573" lon="3.05294">
        <ele>229.80000305176</ele>
        <time>2022-10-29T07:08:57.000Z</time>
      </trkpt>
      <trkpt lat="47.49619" lon="3.0528">
        <ele>229.80000305176</ele>
        <time>2022-10-29T07:09:05.000Z</time>
      </trkpt>
      <trkpt lat="47.49666" lon="3.05277">
        <ele>229.60000610352</ele>
        <time>2022-10-29T07:09:14.000Z</time>
      </trkpt>
      <trkpt lat="47.49689" lon="3.05285">
        <ele>229.39999389648</ele>
        <time>2022-10-29T07:09:19.000Z</time>
      </trkpt>
      <trkpt lat="47.49698" lon="3.05289">
        <ele>229.39999389648</ele>
        <time>2022-10-29T07:09:21.000Z</time>
      </trkpt>
      <trkpt lat="47.49711" lon="3.05295">
        <ele>229.39999389648</ele>
        <time>2022-10-29T07:09:24.000Z</time>
      </trkpt>
      <trkpt lat="47.4974" lon="3.05309">
        <ele>229.60000610352</ele>
        <time>2022-10-29T07:09:31.000Z</time>
      </trkpt>
      <trkpt lat="47.49744" lon="3.05311">
        <ele>229.60000610352</ele>
        <time>2022-10-29T07:09:32.000Z</time>
      </trkpt>
      <trkpt lat="47.49767" lon="3.05325">
        <ele>229.60000610352</ele>
        <time>2022-10-29T07:09:36.000Z</time>
      </trkpt>
      <trkpt lat="47.49807" lon="3.05345">
        <ele>229.60000610352</ele>
        <time>2022-10-29T07:09:42.000Z</time>
      </trkpt>
      <trkpt lat="47.49856" lon="3.05369">
        <ele>229.39999389648</ele>
        <time>2022-10-29T07:09:51.000Z</time>
      </trkpt>
      <trkpt lat="47.49895" lon="3.05389">
        <ele>229.39999389648</ele>
        <time>2022-10-29T07:09:59.000Z</time>
      </trkpt>
      <trkpt lat="47.49933" lon="3.05406">
        <ele>229.60000610352</ele>
        <time>2022-10-29T07:10:07.000Z</time>
      </trkpt>
      <trkpt lat="47.49938" lon="3.05408">
        <ele>229.60000610352</ele>
        <time>2022-10-29T07:10:08.000Z</time>
      </trkpt>
      <trkpt lat="47.49952" lon="3.05414">
        <ele>229.39999389648</ele>
        <time>2022-10-29T07:10:11.000Z</time>
      </trkpt>
      <trkpt lat="47.49977" lon="3.05426">
        <ele>228.80000305176</ele>
        <time>2022-10-29T07:10:16.000Z</time>
      </trkpt>
      <trkpt lat="47.49996" lon="3.05435">
        <ele>228.39999389648</ele>
        <time>2022-10-29T07:10:20.000Z</time>
      </trkpt>
      <trkpt lat="47.5003" lon="3.05449">
        <ele>227.80000305176</ele>
        <time>2022-10-29T07:10:27.000Z</time>
      </trkpt>
      <trkpt lat="47.50037" lon="3.05452">
        <ele>227.60000610352</ele>
        <time>2022-10-29T07:10:28.000Z</time>
      </trkpt>
      <trkpt lat="47.50075" lon="3.05471">
        <ele>227</ele>
        <time>2022-10-29T07:10:35.000Z</time>
      </trkpt>
      <trkpt lat="47.50091" lon="3.05477">
        <ele>226.39999389648</ele>
        <time>2022-10-29T07:10:38.000Z</time>
      </trkpt>
      <trkpt lat="47.50114" lon="3.05489">
        <ele>225.39999389648</ele>
        <time>2022-10-29T07:10:42.000Z</time>
      </trkpt>
      <trkpt lat="47.50125" lon="3.05495">
        <ele>224.80000305176</ele>
        <time>2022-10-29T07:10:44.000Z</time>
      </trkpt>
      <trkpt lat="47.50144" lon="3.05503">
        <ele>224.19999694824</ele>
        <time>2022-10-29T07:10:47.000Z</time>
      </trkpt>
      <trkpt lat="47.50157" lon="3.05508">
        <ele>223.60000610352</ele>
        <time>2022-10-29T07:10:49.000Z</time>
      </trkpt>
      <trkpt lat="47.50176" lon="3.05517">
        <ele>223.19999694824</ele>
        <time>2022-10-29T07:10:52.000Z</time>
      </trkpt>
      <trkpt lat="47.50195" lon="3.05526">
        <ele>222.39999389648</ele>
        <time>2022-10-29T07:10:55.000Z</time>
      </trkpt>
      <trkpt lat="47.50208" lon="3.05533">
        <ele>222</ele>
        <time>2022-10-29T07:10:57.000Z</time>
      </trkpt>
      <trkpt lat="47.50229" lon="3.05543">
        <ele>221</ele>
        <time>2022-10-29T07:11:00.000Z</time>
      </trkpt>
      <trkpt lat="47.50263" lon="3.05559">
        <ele>219.80000305176</ele>
        <time>2022-10-29T07:11:05.000Z</time>
      </trkpt>
      <trkpt lat="47.50277" lon="3.05566">
        <ele>219.39999389648</ele>
        <time>2022-10-29T07:11:07.000Z</time>
      </trkpt>
      <trkpt lat="47.50304" lon="3.05579">
        <ele>218.80000305176</ele>
        <time>2022-10-29T07:11:11.000Z</time>
      </trkpt>
      <trkpt lat="47.50328" lon="3.05589">
        <ele>218.19999694824</ele>
        <time>2022-10-29T07:11:15.000Z</time>
      </trkpt>
      <trkpt lat="47.50357" lon="3.05602">
        <ele>218</ele>
        <time>2022-10-29T07:11:20.000Z</time>
      </trkpt>
      <trkpt lat="47.50361" lon="3.05604">
        <ele>218</ele>
        <time>2022-10-29T07:11:21.000Z</time>
      </trkpt>
      <trkpt lat="47.50371" lon="3.0561">
        <ele>218.19999694824</ele>
        <time>2022-10-29T07:11:23.000Z</time>
      </trkpt>
      <trkpt lat="47.50384" lon="3.05615">
        <ele>218.39999389648</ele>
        <time>2022-10-29T07:11:26.000Z</time>
      </trkpt>
      <trkpt lat="47.50424" lon="3.05632">
        <ele>219.19999694824</ele>
        <time>2022-10-29T07:11:34.000Z</time>
      </trkpt>
      <trkpt lat="47.50429" lon="3.05633">
        <ele>219.19999694824</ele>
        <time>2022-10-29T07:11:35.000Z</time>
      </trkpt>
      <trkpt lat="47.50455" lon="3.05638">
        <ele>219</ele>
        <time>2022-10-29T07:11:39.000Z</time>
      </trkpt>
      <trkpt lat="47.50462" lon="3.05637">
        <ele>219</ele>
        <time>2022-10-29T07:11:40.000Z</time>
      </trkpt>
      <trkpt lat="47.50479" lon="3.05633">
        <ele>218.39999389648</ele>
        <time>2022-10-29T07:11:42.000Z</time>
      </trkpt>
      <trkpt lat="47.50487" lon="3.05631">
        <ele>218</ele>
        <time>2022-10-29T07:11:43.000Z</time>
      </trkpt>
      <trkpt lat="47.50493" lon="3.0563">
        <ele>217.60000610352</ele>
        <time>2022-10-29T07:11:44.000Z</time>
      </trkpt>
      <trkpt lat="47.50501" lon="3.05628">
        <ele>217.60000610352</ele>
        <time>2022-10-29T07:11:45.000Z</time>
      </trkpt>
      <trkpt lat="47.50508" lon="3.05628">
        <ele>217.19999694824</ele>
        <time>2022-10-29T07:11:46.000Z</time>
      </trkpt>
      <trkpt lat="47.50526" lon="3.05626">
        <ele>216.60000610352</ele>
        <time>2022-10-29T07:11:48.000Z</time>
      </trkpt>
      <trkpt lat="47.50533" lon="3.05626">
        <ele>216.39999389648</ele>
        <time>2022-10-29T07:11:49.000Z</time>
      </trkpt>
      <trkpt lat="47.50564" lon="3.05622">
        <ele>215.39999389648</ele>
        <time>2022-10-29T07:11:53.000Z</time>
      </trkpt>
      <trkpt lat="47.50586" lon="3.05619">
        <ele>215.19999694824</ele>
        <time>2022-10-29T07:11:56.000Z</time>
      </trkpt>
      <trkpt lat="47.50607" lon="3.05616">
        <ele>215</ele>
        <time>2022-10-29T07:12:00.000Z</time>
      </trkpt>
      <trkpt lat="47.50613" lon="3.05615">
        <ele>215</ele>
        <time>2022-10-29T07:12:01.000Z</time>
      </trkpt>
      <trkpt lat="47.50649" lon="3.0561">
        <ele>215.60000610352</ele>
        <time>2022-10-29T07:12:08.000Z</time>
      </trkpt>
      <trkpt lat="47.5068" lon="3.05606">
        <ele>216.19999694824</ele>
        <time>2022-10-29T07:12:14.000Z</time>
      </trkpt>
      <trkpt lat="47.50689" lon="3.05605">
        <ele>216.60000610352</ele>
        <time>2022-10-29T07:12:16.000Z</time>
      </trkpt>
      <trkpt lat="47.50702" lon="3.05602">
        <ele>217.19999694824</ele>
        <time>2022-10-29T07:12:19.000Z</time>
      </trkpt>
      <trkpt lat="47.50708" lon="3.056">
        <ele>217.39999389648</ele>
        <time>2022-10-29T07:12:20.000Z</time>
      </trkpt>
      <trkpt lat="47.50717" lon="3.05599">
        <ele>217.60000610352</ele>
        <time>2022-10-29T07:12:22.000Z</time>
      </trkpt>
      <trkpt lat="47.50728" lon="3.05598">
        <ele>218</ele>
        <time>2022-10-29T07:12:24.000Z</time>
      </trkpt>
      <trkpt lat="47.50737" lon="3.05599">
        <ele>218.39999389648</ele>
        <time>2022-10-29T07:12:26.000Z</time>
      </trkpt>
      <trkpt lat="47.50758" lon="3.05596">
        <ele>218.80000305176</ele>
        <time>2022-10-29T07:12:30.000Z</time>
      </trkpt>
      <trkpt lat="47.50762" lon="3.05596">
        <ele>219</ele>
        <time>2022-10-29T07:12:31.000Z</time>
      </trkpt>
      <trkpt lat="47.50795" lon="3.05592">
        <ele>219.60000610352</ele>
        <time>2022-10-29T07:12:37.000Z</time>
      </trkpt>
      <trkpt lat="47.50818" lon="3.05588">
        <ele>220</ele>
        <time>2022-10-29T07:12:41.000Z</time>
      </trkpt>
      <trkpt lat="47.5084" lon="3.05585">
        <ele>220</ele>
        <time>2022-10-29T07:12:45.000Z</time>
      </trkpt>
      <trkpt lat="47.50857" lon="3.05581">
        <ele>220.19999694824</ele>
        <time>2022-10-29T07:12:48.000Z</time>
      </trkpt>
      <trkpt lat="47.50866" lon="3.05579">
        <ele>220.19999694824</ele>
        <time>2022-10-29T07:12:50.000Z</time>
      </trkpt>
      <trkpt lat="47.50872" lon="3.05578">
        <ele>220.19999694824</ele>
        <time>2022-10-29T07:12:51.000Z</time>
      </trkpt>
      <trkpt lat="47.50914" lon="3.05574">
        <ele>220.19999694824</ele>
        <time>2022-10-29T07:12:59.000Z</time>
      </trkpt>
      <trkpt lat="47.50959" lon="3.05569">
        <ele>220.60000610352</ele>
        <time>2022-10-29T07:13:07.000Z</time>
      </trkpt>
      <trkpt lat="47.51008" lon="3.05562">
        <ele>220.60000610352</ele>
        <time>2022-10-29T07:13:16.000Z</time>
      </trkpt>
      <trkpt lat="47.51042" lon="3.05559">
        <ele>220.39999389648</ele>
        <time>2022-10-29T07:13:22.000Z</time>
      </trkpt>
      <trkpt lat="47.51084" lon="3.05554">
        <ele>219.60000610352</ele>
        <time>2022-10-29T07:13:29.000Z</time>
      </trkpt>
      <trkpt lat="47.5109" lon="3.05553">
        <ele>219.60000610352</ele>
        <time>2022-10-29T07:13:30.000Z</time>
      </trkpt>
      <trkpt lat="47.51133" lon="3.05547">
        <ele>219</ele>
        <time>2022-10-29T07:13:37.000Z</time>
      </trkpt>
      <trkpt lat="47.5114" lon="3.05546">
        <ele>218.80000305176</ele>
        <time>2022-10-29T07:13:38.000Z</time>
      </trkpt>
      <trkpt lat="47.51182" lon="3.05541">
        <ele>218</ele>
        <time>2022-10-29T07:13:44.000Z</time>
      </trkpt>
      <trkpt lat="47.51188" lon="3.0554">
        <ele>217.80000305176</ele>
        <time>2022-10-29T07:13:45.000Z</time>
      </trkpt>
      <trkpt lat="47.51224" lon="3.05537">
        <ele>217.19999694824</ele>
        <time>2022-10-29T07:13:50.000Z</time>
      </trkpt>
      <trkpt lat="47.51255" lon="3.05531">
        <ele>216.60000610352</ele>
        <time>2022-10-29T07:13:55.000Z</time>
      </trkpt>
      <trkpt lat="47.51268" lon="3.05529">
        <ele>216.60000610352</ele>
        <time>2022-10-29T07:13:57.000Z</time>
      </trkpt>
      <trkpt lat="47.51312" lon="3.05524">
        <ele>216</ele>
        <time>2022-10-29T07:14:04.000Z</time>
      </trkpt>
      <trkpt lat="47.51337" lon="3.05522">
        <ele>215.60000610352</ele>
        <time>2022-10-29T07:14:08.000Z</time>
      </trkpt>
      <trkpt lat="47.51364" lon="3.05518">
        <ele>215.39999389648</ele>
        <time>2022-10-29T07:14:12.000Z</time>
      </trkpt>
      <trkpt lat="47.51404" lon="3.05514">
        <ele>215</ele>
        <time>2022-10-29T07:14:18.000Z</time>
      </trkpt>
      <trkpt lat="47.51418" lon="3.05511">
        <ele>214.80000305176</ele>
        <time>2022-10-29T07:14:20.000Z</time>
      </trkpt>
      <trkpt lat="47.51436" lon="3.05507">
        <ele>214.60000610352</ele>
        <time>2022-10-29T07:14:23.000Z</time>
      </trkpt>
      <trkpt lat="47.51443" lon="3.05507">
        <ele>214.60000610352</ele>
        <time>2022-10-29T07:14:24.000Z</time>
      </trkpt>
      <trkpt lat="47.51456" lon="3.05505">
        <ele>214.19999694824</ele>
        <time>2022-10-29T07:14:26.000Z</time>
      </trkpt>
      <trkpt lat="47.51496" lon="3.05503">
        <ele>213.80000305176</ele>
        <time>2022-10-29T07:14:32.000Z</time>
      </trkpt>
      <trkpt lat="47.51547" lon="3.05497">
        <ele>213.60000610352</ele>
        <time>2022-10-29T07:14:40.000Z</time>
      </trkpt>
      <trkpt lat="47.51564" lon="3.05494">
        <ele>213.39999389648</ele>
        <time>2022-10-29T07:14:43.000Z</time>
      </trkpt>
      <trkpt lat="47.51605" lon="3.05489">
        <ele>213.39999389648</ele>
        <time>2022-10-29T07:14:50.000Z</time>
      </trkpt>
      <trkpt lat="47.51658" lon="3.05481">
        <ele>213.60000610352</ele>
        <time>2022-10-29T07:14:59.000Z</time>
      </trkpt>
      <trkpt lat="47.51697" lon="3.05477">
        <ele>213.39999389648</ele>
        <time>2022-10-29T07:15:06.000Z</time>
      </trkpt>
      <trkpt lat="47.51744" lon="3.05471">
        <ele>213.39999389648</ele>
        <time>2022-10-29T07:15:14.000Z</time>
      </trkpt>
      <trkpt lat="47.51796" lon="3.05464">
        <ele>213.80000305176</ele>
        <time>2022-10-29T07:15:23.000Z</time>
      </trkpt>
      <trkpt lat="47.51834" lon="3.05459">
        <ele>214.19999694824</ele>
        <time>2022-10-29T07:15:30.000Z</time>
      </trkpt>
      <trkpt lat="47.51893" lon="3.05453">
        <ele>214.39999389648</ele>
        <time>2022-10-29T07:15:40.000Z</time>
      </trkpt>
      <trkpt lat="47.51945" lon="3.05445">
        <ele>214.39999389648</ele>
        <time>2022-10-29T07:15:49.000Z</time>
      </trkpt>
      <trkpt lat="47.51996" lon="3.05436">
        <ele>214</ele>
        <time>2022-10-29T07:15:58.000Z</time>
      </trkpt>
      <trkpt lat="47.52052" lon="3.0543">
        <ele>213.60000610352</ele>
        <time>2022-10-29T07:16:07.000Z</time>
      </trkpt>
      <trkpt lat="47.52088" lon="3.05425">
        <ele>213.39999389648</ele>
        <time>2022-10-29T07:16:13.000Z</time>
      </trkpt>
      <trkpt lat="47.52128" lon="3.05421">
        <ele>213.39999389648</ele>
        <time>2022-10-29T07:16:20.000Z</time>
      </trkpt>
      <trkpt lat="47.52158" lon="3.05418">
        <ele>213.19999694824</ele>
        <time>2022-10-29T07:16:26.000Z</time>
      </trkpt>
      <trkpt lat="47.52202" lon="3.05412">
        <ele>213.39999389648</ele>
        <time>2022-10-29T07:16:34.000Z</time>
      </trkpt>
      <trkpt lat="47.52249" lon="3.05407">
        <ele>213.39999389648</ele>
        <time>2022-10-29T07:16:42.000Z</time>
      </trkpt>
      <trkpt lat="47.52292" lon="3.05401">
        <ele>213.80000305176</ele>
        <time>2022-10-29T07:16:50.000Z</time>
      </trkpt>
      <trkpt lat="47.52348" lon="3.05394">
        <ele>214.60000610352</ele>
        <time>2022-10-29T07:17:01.000Z</time>
      </trkpt>
      <trkpt lat="47.52381" lon="3.0539">
        <ele>214.80000305176</ele>
        <time>2022-10-29T07:17:07.000Z</time>
      </trkpt>
      <trkpt lat="47.52403" lon="3.05387">
        <ele>214.80000305176</ele>
        <time>2022-10-29T07:17:11.000Z</time>
      </trkpt>
      <trkpt lat="47.52449" lon="3.05382">
        <ele>214.39999389648</ele>
        <time>2022-10-29T07:17:19.000Z</time>
      </trkpt>
      <trkpt lat="47.52493" lon="3.05376">
        <ele>213.80000305176</ele>
        <time>2022-10-29T07:17:26.000Z</time>
      </trkpt>
      <trkpt lat="47.525" lon="3.05375">
        <ele>213.80000305176</ele>
        <time>2022-10-29T07:17:27.000Z</time>
      </trkpt>
      <trkpt lat="47.52529" lon="3.05372">
        <ele>212.60000610352</ele>
        <time>2022-10-29T07:17:31.000Z</time>
      </trkpt>
      <trkpt lat="47.52536" lon="3.05371">
        <ele>212.39999389648</ele>
        <time>2022-10-29T07:17:32.000Z</time>
      </trkpt>
      <trkpt lat="47.52558" lon="3.05368">
        <ele>211.60000610352</ele>
        <time>2022-10-29T07:17:35.000Z</time>
      </trkpt>
      <trkpt lat="47.52594" lon="3.05363">
        <ele>210.60000610352</ele>
        <time>2022-10-29T07:17:40.000Z</time>
      </trkpt>
      <trkpt lat="47.52602" lon="3.05363">
        <ele>210.19999694824</ele>
        <time>2022-10-29T07:17:41.000Z</time>
      </trkpt>
      <trkpt lat="47.5263" lon="3.05358">
        <ele>209</ele>
        <time>2022-10-29T07:17:45.000Z</time>
      </trkpt>
      <trkpt lat="47.52643" lon="3.05356">
        <ele>208.39999389648</ele>
        <time>2022-10-29T07:17:47.000Z</time>
      </trkpt>
      <trkpt lat="47.52655" lon="3.05354">
        <ele>207.80000305176</ele>
        <time>2022-10-29T07:17:49.000Z</time>
      </trkpt>
      <trkpt lat="47.52678" lon="3.0535">
        <ele>206.60000610352</ele>
        <time>2022-10-29T07:17:52.000Z</time>
      </trkpt>
      <trkpt lat="47.52699" lon="3.05348">
        <ele>205.19999694824</ele>
        <time>2022-10-29T07:17:55.000Z</time>
      </trkpt>
      <trkpt lat="47.52713" lon="3.05346">
        <ele>204.60000610352</ele>
        <time>2022-10-29T07:17:57.000Z</time>
      </trkpt>
      <trkpt lat="47.52733" lon="3.05343">
        <ele>204.19999694824</ele>
        <time>2022-10-29T07:18:00.000Z</time>
      </trkpt>
      <trkpt lat="47.52755" lon="3.05342">
        <ele>203.60000610352</ele>
        <time>2022-10-29T07:18:04.000Z</time>
      </trkpt>
      <trkpt lat="47.5276" lon="3.05344">
        <ele>203.19999694824</ele>
        <time>2022-10-29T07:18:05.000Z</time>
      </trkpt>
      <trkpt lat="47.52763" lon="3.05347">
        <ele>203</ele>
        <time>2022-10-29T07:18:06.000Z</time>
      </trkpt>
      <trkpt lat="47.52765" lon="3.05351">
        <ele>203</ele>
        <time>2022-10-29T07:18:07.000Z</time>
      </trkpt>
      <trkpt lat="47.52766" lon="3.05357">
        <ele>202.80000305176</ele>
        <time>2022-10-29T07:18:08.000Z</time>
      </trkpt>
      <trkpt lat="47.52767" lon="3.05379">
        <ele>202.60000610352</ele>
        <time>2022-10-29T07:18:11.000Z</time>
      </trkpt>
      <trkpt lat="47.52767" lon="3.05427">
        <ele>202.19999694824</ele>
        <time>2022-10-29T07:18:17.000Z</time>
      </trkpt>
      <trkpt lat="47.52768" lon="3.05435">
        <ele>202</ele>
        <time>2022-10-29T07:18:18.000Z</time>
      </trkpt>
      <trkpt lat="47.5277" lon="3.05505">
        <ele>201</ele>
        <time>2022-10-29T07:18:26.000Z</time>
      </trkpt>
      <trkpt lat="47.5277" lon="3.05513">
        <ele>201</ele>
        <time>2022-10-29T07:18:27.000Z</time>
      </trkpt>
      <trkpt lat="47.52772" lon="3.0559">
        <ele>200</ele>
        <time>2022-10-29T07:18:36.000Z</time>
      </trkpt>
      <trkpt lat="47.52776" lon="3.05675">
        <ele>199.19999694824</ele>
        <time>2022-10-29T07:18:45.000Z</time>
      </trkpt>
      <trkpt lat="47.52776" lon="3.05696">
        <ele>199</ele>
        <time>2022-10-29T07:18:47.000Z</time>
      </trkpt>
      <trkpt lat="47.52778" lon="3.05769">
        <ele>198.39999389648</ele>
        <time>2022-10-29T07:18:55.000Z</time>
      </trkpt>
      <trkpt lat="47.52779" lon="3.0583">
        <ele>198.19999694824</ele>
        <time>2022-10-29T07:19:02.000Z</time>
      </trkpt>
      <trkpt lat="47.52783" lon="3.05885">
        <ele>198.80000305176</ele>
        <time>2022-10-29T07:19:09.000Z</time>
      </trkpt>
      <trkpt lat="47.52783" lon="3.05892">
        <ele>199</ele>
        <time>2022-10-29T07:19:10.000Z</time>
      </trkpt>
      <trkpt lat="47.52784" lon="3.05923">
        <ele>199.60000610352</ele>
        <time>2022-10-29T07:19:14.000Z</time>
      </trkpt>
      <trkpt lat="47.52784" lon="3.05959">
        <ele>200.19999694824</ele>
        <time>2022-10-29T07:19:19.000Z</time>
      </trkpt>
      <trkpt lat="47.52785" lon="3.05974">
        <ele>200.39999389648</ele>
        <time>2022-10-29T07:19:21.000Z</time>
      </trkpt>
      <trkpt lat="47.52787" lon="3.06018">
        <ele>201.19999694824</ele>
        <time>2022-10-29T07:19:27.000Z</time>
      </trkpt>
      <trkpt lat="47.52788" lon="3.06024">
        <ele>201.19999694824</ele>
        <time>2022-10-29T07:19:28.000Z</time>
      </trkpt>
      <trkpt lat="47.52789" lon="3.06044">
        <ele>201.80000305176</ele>
        <time>2022-10-29T07:19:31.000Z</time>
      </trkpt>
      <trkpt lat="47.52789" lon="3.06057">
        <ele>202.19999694824</ele>
        <time>2022-10-29T07:19:33.000Z</time>
      </trkpt>
      <trkpt lat="47.5279" lon="3.06062">
        <ele>202.39999389648</ele>
        <time>2022-10-29T07:19:34.000Z</time>
      </trkpt>
      <trkpt lat="47.52789" lon="3.06079">
        <ele>203.19999694824</ele>
        <time>2022-10-29T07:19:38.000Z</time>
      </trkpt>
      <trkpt lat="47.52789" lon="3.06081">
        <ele>203.39999389648</ele>
        <time>2022-10-29T07:19:39.000Z</time>
      </trkpt>
      <trkpt lat="47.52788" lon="3.06095">
        <ele>204</ele>
        <time>2022-10-29T07:19:45.000Z</time>
      </trkpt>
      <trkpt lat="47.52788" lon="3.06096">
        <ele>204.39999389648</ele>
        <time>2022-10-29T07:19:50.000Z</time>
      </trkpt>
      <trkpt lat="47.52788" lon="3.06096">
        <ele>204.39999389648</ele>
        <time>2022-10-29T07:19:51.000Z</time>
      </trkpt>
      <trkpt lat="47.52789" lon="3.06099">
        <ele>204.60000610352</ele>
        <time>2022-10-29T07:19:55.000Z</time>
      </trkpt>
      <trkpt lat="47.5279" lon="3.06105">
        <ele>204.60000610352</ele>
        <time>2022-10-29T07:19:58.000Z</time>
      </trkpt>
      <trkpt lat="47.5279" lon="3.06125">
        <ele>204.60000610352</ele>
        <time>2022-10-29T07:20:08.000Z</time>
      </trkpt>
      <trkpt lat="47.52789" lon="3.06127">
        <ele>204.80000305176</ele>
        <time>2022-10-29T07:20:12.000Z</time>
      </trkpt>
      <trkpt lat="47.52789" lon="3.06127">
        <ele>204.80000305176</ele>
        <time>2022-10-29T07:21:21.000Z</time>
      </trkpt>
      <trkpt lat="47.52787" lon="3.06135">
        <ele>204.80000305176</ele>
        <time>2022-10-29T07:21:25.000Z</time>
      </trkpt>
      <trkpt lat="47.52783" lon="3.0615">
        <ele>204.80000305176</ele>
        <time>2022-10-29T07:21:33.000Z</time>
      </trkpt>
      <trkpt lat="47.52783" lon="3.0615">
        <ele>205</ele>
        <time>2022-10-29T07:21:40.000Z</time>
      </trkpt>
      <trkpt lat="47.52784" lon="3.06153">
        <ele>205</ele>
        <time>2022-10-29T07:22:17.000Z</time>
      </trkpt>
      <trkpt lat="47.52785" lon="3.06162">
        <ele>204.60000610352</ele>
        <time>2022-10-29T07:24:17.000Z</time>
      </trkpt>
      <trkpt lat="47.52793" lon="3.06189">
        <ele>204.60000610352</ele>
        <time>2022-10-29T07:24:23.000Z</time>
      </trkpt>
      <trkpt lat="47.52796" lon="3.06223">
        <ele>205</ele>
        <time>2022-10-29T07:24:28.000Z</time>
      </trkpt>
      <trkpt lat="47.52796" lon="3.0623">
        <ele>205.19999694824</ele>
        <time>2022-10-29T07:24:29.000Z</time>
      </trkpt>
      <trkpt lat="47.52796" lon="3.06242">
        <ele>205.80000305176</ele>
        <time>2022-10-29T07:24:31.000Z</time>
      </trkpt>
      <trkpt lat="47.52797" lon="3.06251">
        <ele>206.19999694824</ele>
        <time>2022-10-29T07:24:33.000Z</time>
      </trkpt>
      <trkpt lat="47.52799" lon="3.06272">
        <ele>206.80000305176</ele>
        <time>2022-10-29T07:24:38.000Z</time>
      </trkpt>
      <trkpt lat="47.52804" lon="3.06313">
        <ele>207.80000305176</ele>
        <time>2022-10-29T07:24:46.000Z</time>
      </trkpt>
      <trkpt lat="47.52804" lon="3.06317">
        <ele>207.80000305176</ele>
        <time>2022-10-29T07:24:47.000Z</time>
      </trkpt>
      <trkpt lat="47.52807" lon="3.06341">
        <ele>208.19999694824</ele>
        <time>2022-10-29T07:24:52.000Z</time>
      </trkpt>
      <trkpt lat="47.5281" lon="3.06379">
        <ele>208.80000305176</ele>
        <time>2022-10-29T07:24:59.000Z</time>
      </trkpt>
      <trkpt lat="47.52811" lon="3.06385">
        <ele>208.80000305176</ele>
        <time>2022-10-29T07:25:00.000Z</time>
      </trkpt>
      <trkpt lat="47.52815" lon="3.0642">
        <ele>209.39999389648</ele>
        <time>2022-10-29T07:25:07.000Z</time>
      </trkpt>
      <trkpt lat="47.52819" lon="3.06446">
        <ele>209.80000305176</ele>
        <time>2022-10-29T07:25:12.000Z</time>
      </trkpt>
      <trkpt lat="47.52822" lon="3.06473">
        <ele>210.39999389648</ele>
        <time>2022-10-29T07:25:17.000Z</time>
      </trkpt>
      <trkpt lat="47.52824" lon="3.06499">
        <ele>211</ele>
        <time>2022-10-29T07:25:22.000Z</time>
      </trkpt>
      <trkpt lat="47.52827" lon="3.0652">
        <ele>211.19999694824</ele>
        <time>2022-10-29T07:25:26.000Z</time>
      </trkpt>
      <trkpt lat="47.52833" lon="3.06571">
        <ele>211.60000610352</ele>
        <time>2022-10-29T07:25:35.000Z</time>
      </trkpt>
      <trkpt lat="47.52837" lon="3.06612">
        <ele>211.80000305176</ele>
        <time>2022-10-29T07:25:42.000Z</time>
      </trkpt>
      <trkpt lat="47.52838" lon="3.0663">
        <ele>211.80000305176</ele>
        <time>2022-10-29T07:25:45.000Z</time>
      </trkpt>
      <trkpt lat="47.52841" lon="3.06662">
        <ele>211.60000610352</ele>
        <time>2022-10-29T07:25:50.000Z</time>
      </trkpt>
      <trkpt lat="47.52848" lon="3.0672">
        <ele>211</ele>
        <time>2022-10-29T07:25:58.000Z</time>
      </trkpt>
      <trkpt lat="47.52856" lon="3.06793">
        <ele>210.60000610352</ele>
        <time>2022-10-29T07:26:07.000Z</time>
      </trkpt>
      <trkpt lat="47.52864" lon="3.06876">
        <ele>210</ele>
        <time>2022-10-29T07:26:17.000Z</time>
      </trkpt>
      <trkpt lat="47.52864" lon="3.06884">
        <ele>210</ele>
        <time>2022-10-29T07:26:18.000Z</time>
      </trkpt>
      <trkpt lat="47.52872" lon="3.06955">
        <ele>209.39999389648</ele>
        <time>2022-10-29T07:26:26.000Z</time>
      </trkpt>
      <trkpt lat="47.52877" lon="3.07007">
        <ele>208.80000305176</ele>
        <time>2022-10-29T07:26:32.000Z</time>
      </trkpt>
      <trkpt lat="47.52878" lon="3.07022">
        <ele>208.60000610352</ele>
        <time>2022-10-29T07:26:34.000Z</time>
      </trkpt>
      <trkpt lat="47.52887" lon="3.07097">
        <ele>207.80000305176</ele>
        <time>2022-10-29T07:26:43.000Z</time>
      </trkpt>
      <trkpt lat="47.52896" lon="3.0718">
        <ele>207</ele>
        <time>2022-10-29T07:26:52.000Z</time>
      </trkpt>
      <trkpt lat="47.52898" lon="3.07199">
        <ele>206.80000305176</ele>
        <time>2022-10-29T07:26:54.000Z</time>
      </trkpt>
      <trkpt lat="47.52903" lon="3.07222">
        <ele>206</ele>
        <time>2022-10-29T07:26:57.000Z</time>
      </trkpt>
      <trkpt lat="47.52907" lon="3.07233">
        <ele>205.60000610352</ele>
        <time>2022-10-29T07:26:59.000Z</time>
      </trkpt>
      <trkpt lat="47.52917" lon="3.07265">
        <ele>204.80000305176</ele>
        <time>2022-10-29T07:27:04.000Z</time>
      </trkpt>
      <trkpt lat="47.52923" lon="3.07279">
        <ele>204.60000610352</ele>
        <time>2022-10-29T07:27:06.000Z</time>
      </trkpt>
      <trkpt lat="47.52925" lon="3.07286">
        <ele>204.60000610352</ele>
        <time>2022-10-29T07:27:07.000Z</time>
      </trkpt>
      <trkpt lat="47.52927" lon="3.07294">
        <ele>204.60000610352</ele>
        <time>2022-10-29T07:27:08.000Z</time>
      </trkpt>
      <trkpt lat="47.52936" lon="3.07328">
        <ele>204.39999389648</ele>
        <time>2022-10-29T07:27:13.000Z</time>
      </trkpt>
      <trkpt lat="47.52938" lon="3.0734">
        <ele>204.60000610352</ele>
        <time>2022-10-29T07:27:15.000Z</time>
      </trkpt>
      <trkpt lat="47.52939" lon="3.07367">
        <ele>205</ele>
        <time>2022-10-29T07:27:20.000Z</time>
      </trkpt>
      <trkpt lat="47.52943" lon="3.0738">
        <ele>205.19999694824</ele>
        <time>2022-10-29T07:27:24.000Z</time>
      </trkpt>
      <trkpt lat="47.52948" lon="3.07383">
        <ele>205.19999694824</ele>
        <time>2022-10-29T07:27:27.000Z</time>
      </trkpt>
      <trkpt lat="47.5295" lon="3.07383">
        <ele>205.19999694824</ele>
        <time>2022-10-29T07:27:28.000Z</time>
      </trkpt>
      <trkpt lat="47.52966" lon="3.07374">
        <ele>204.80000305176</ele>
        <time>2022-10-29T07:27:34.000Z</time>
      </trkpt>
      <trkpt lat="47.52968" lon="3.07373">
        <ele>204.39999389648</ele>
        <time>2022-10-29T07:27:36.000Z</time>
      </trkpt>
      <trkpt lat="47.52969" lon="3.07373">
        <ele>204.39999389648</ele>
        <time>2022-10-29T07:27:38.000Z</time>
      </trkpt>
      <trkpt lat="47.52971" lon="3.07374">
        <ele>204.19999694824</ele>
        <time>2022-10-29T07:27:42.000Z</time>
      </trkpt>
      <trkpt lat="47.52971" lon="3.07374">
        <ele>204</ele>
        <time>2022-10-29T07:27:45.000Z</time>
      </trkpt>
      <trkpt lat="47.52971" lon="3.07374">
        <ele>204.19999694824</ele>
        <time>2022-10-29T07:27:53.000Z</time>
      </trkpt>
      <trkpt lat="47.52967" lon="3.07358">
        <ele>204.60000610352</ele>
        <time>2022-10-29T07:43:33.000Z</time>
      </trkpt>
      <trkpt lat="47.52966" lon="3.07353">
        <ele>204.60000610352</ele>
        <time>2022-10-29T07:43:37.000Z</time>
      </trkpt>
      <trkpt lat="47.52968" lon="3.07357">
        <ele>204.39999389648</ele>
        <time>2022-10-29T07:43:40.000Z</time>
      </trkpt>
      <trkpt lat="47.52973" lon="3.07362">
        <ele>204.19999694824</ele>
        <time>2022-10-29T07:43:45.000Z</time>
      </trkpt>
      <trkpt lat="47.52974" lon="3.07364">
        <ele>204</ele>
        <time>2022-10-29T07:43:53.000Z</time>
      </trkpt>
      <trkpt lat="47.52974" lon="3.07368">
        <ele>204.19999694824</ele>
        <time>2022-10-29T07:43:59.000Z</time>
      </trkpt>
      <trkpt lat="47.52974" lon="3.07367">
        <ele>204.39999389648</ele>
        <time>2022-10-29T07:44:02.000Z</time>
      </trkpt>
      <trkpt lat="47.52973" lon="3.07369">
        <ele>204</ele>
        <time>2022-10-29T07:44:11.000Z</time>
      </trkpt>
      <trkpt lat="47.52973" lon="3.07369">
        <ele>204</ele>
        <time>2022-10-29T07:44:17.000Z</time>
      </trkpt>
      <trkpt lat="47.52977" lon="3.07366">
        <ele>204.39999389648</ele>
        <time>2022-10-29T07:45:44.000Z</time>
      </trkpt>
      <trkpt lat="47.52988" lon="3.0736">
        <ele>204.19999694824</ele>
        <time>2022-10-29T07:45:49.000Z</time>
      </trkpt>
      <trkpt lat="47.53008" lon="3.07353">
        <ele>204</ele>
        <time>2022-10-29T07:45:54.000Z</time>
      </trkpt>
      <trkpt lat="47.53025" lon="3.07347">
        <ele>203.80000305176</ele>
        <time>2022-10-29T07:45:57.000Z</time>
      </trkpt>
      <trkpt lat="47.53037" lon="3.07343">
        <ele>203.60000610352</ele>
        <time>2022-10-29T07:45:59.000Z</time>
      </trkpt>
      <trkpt lat="47.53049" lon="3.07338">
        <ele>203.39999389648</ele>
        <time>2022-10-29T07:46:01.000Z</time>
      </trkpt>
      <trkpt lat="47.53063" lon="3.07334">
        <ele>202.39999389648</ele>
        <time>2022-10-29T07:46:04.000Z</time>
      </trkpt>
      <trkpt lat="47.53068" lon="3.07333">
        <ele>202.19999694824</ele>
        <time>2022-10-29T07:46:05.000Z</time>
      </trkpt>
      <trkpt lat="47.53088" lon="3.07327">
        <ele>201</ele>
        <time>2022-10-29T07:46:09.000Z</time>
      </trkpt>
      <trkpt lat="47.531" lon="3.07325">
        <ele>200.80000305176</ele>
        <time>2022-10-29T07:46:11.000Z</time>
      </trkpt>
      <trkpt lat="47.5312" lon="3.07317">
        <ele>200.19999694824</ele>
        <time>2022-10-29T07:46:15.000Z</time>
      </trkpt>
      <trkpt lat="47.53125" lon="3.07315">
        <ele>200</ele>
        <time>2022-10-29T07:46:16.000Z</time>
      </trkpt>
      <trkpt lat="47.53165" lon="3.07296">
        <ele>199.19999694824</ele>
        <time>2022-10-29T07:46:24.000Z</time>
      </trkpt>
      <trkpt lat="47.53191" lon="3.07285">
        <ele>199</ele>
        <time>2022-10-29T07:46:30.000Z</time>
      </trkpt>
      <trkpt lat="47.53199" lon="3.07281">
        <ele>198.80000305176</ele>
        <time>2022-10-29T07:46:32.000Z</time>
      </trkpt>
      <trkpt lat="47.53211" lon="3.07277">
        <ele>198.60000610352</ele>
        <time>2022-10-29T07:46:35.000Z</time>
      </trkpt>
      <trkpt lat="47.53223" lon="3.0727">
        <ele>198.80000305176</ele>
        <time>2022-10-29T07:46:38.000Z</time>
      </trkpt>
      <trkpt lat="47.53242" lon="3.07262">
        <ele>198.60000610352</ele>
        <time>2022-10-29T07:46:44.000Z</time>
      </trkpt>
      <trkpt lat="47.53245" lon="3.07262">
        <ele>198.60000610352</ele>
        <time>2022-10-29T07:46:45.000Z</time>
      </trkpt>
      <trkpt lat="47.53251" lon="3.07269">
        <ele>198.60000610352</ele>
        <time>2022-10-29T07:46:47.000Z</time>
      </trkpt>
      <trkpt lat="47.53267" lon="3.07289">
        <ele>198.19999694824</ele>
        <time>2022-10-29T07:46:52.000Z</time>
      </trkpt>
      <trkpt lat="47.53297" lon="3.07325">
        <ele>198</ele>
        <time>2022-10-29T07:47:00.000Z</time>
      </trkpt>
      <trkpt lat="47.53325" lon="3.07362">
        <ele>198.39999389648</ele>
        <time>2022-10-29T07:47:07.000Z</time>
      </trkpt>
      <trkpt lat="47.53347" lon="3.07388">
        <ele>198.80000305176</ele>
        <time>2022-10-29T07:47:13.000Z</time>
      </trkpt>
      <trkpt lat="47.53372" lon="3.07419">
        <ele>199.19999694824</ele>
        <time>2022-10-29T07:47:20.000Z</time>
      </trkpt>
      <trkpt lat="47.53379" lon="3.07428">
        <ele>199.19999694824</ele>
        <time>2022-10-29T07:47:22.000Z</time>
      </trkpt>
      <trkpt lat="47.53386" lon="3.07437">
        <ele>199.39999389648</ele>
        <time>2022-10-29T07:47:24.000Z</time>
      </trkpt>
      <trkpt lat="47.53393" lon="3.07445">
        <ele>199.39999389648</ele>
        <time>2022-10-29T07:47:26.000Z</time>
      </trkpt>
      <trkpt lat="47.53397" lon="3.07449">
        <ele>199.39999389648</ele>
        <time>2022-10-29T07:47:27.000Z</time>
      </trkpt>
      <trkpt lat="47.53414" lon="3.0747">
        <ele>199.80000305176</ele>
        <time>2022-10-29T07:47:32.000Z</time>
      </trkpt>
      <trkpt lat="47.53429" lon="3.07489">
        <ele>200</ele>
        <time>2022-10-29T07:47:36.000Z</time>
      </trkpt>
      <trkpt lat="47.5344" lon="3.07503">
        <ele>200</ele>
        <time>2022-10-29T07:47:39.000Z</time>
      </trkpt>
      <trkpt lat="47.53471" lon="3.07541">
        <ele>200.39999389648</ele>
        <time>2022-10-29T07:47:48.000Z</time>
      </trkpt>
      <trkpt lat="47.53474" lon="3.07545">
        <ele>200.39999389648</ele>
        <time>2022-10-29T07:47:49.000Z</time>
      </trkpt>
      <trkpt lat="47.535" lon="3.0758">
        <ele>201</ele>
        <time>2022-10-29T07:47:57.000Z</time>
      </trkpt>
      <trkpt lat="47.53513" lon="3.07605">
        <ele>201.39999389648</ele>
        <time>2022-10-29T07:48:02.000Z</time>
      </trkpt>
      <trkpt lat="47.53518" lon="3.07615">
        <ele>201.39999389648</ele>
        <time>2022-10-29T07:48:04.000Z</time>
      </trkpt>
      <trkpt lat="47.53535" lon="3.07661">
        <ele>202</ele>
        <time>2022-10-29T07:48:12.000Z</time>
      </trkpt>
      <trkpt lat="47.53549" lon="3.07712">
        <ele>202.39999389648</ele>
        <time>2022-10-29T07:48:21.000Z</time>
      </trkpt>
      <trkpt lat="47.53566" lon="3.07769">
        <ele>202.80000305176</ele>
        <time>2022-10-29T07:48:30.000Z</time>
      </trkpt>
      <trkpt lat="47.53573" lon="3.07794">
        <ele>203.19999694824</ele>
        <time>2022-10-29T07:48:34.000Z</time>
      </trkpt>
      <trkpt lat="47.53579" lon="3.07813">
        <ele>203.19999694824</ele>
        <time>2022-10-29T07:48:37.000Z</time>
      </trkpt>
      <trkpt lat="47.5359" lon="3.07854">
        <ele>203.80000305176</ele>
        <time>2022-10-29T07:48:44.000Z</time>
      </trkpt>
      <trkpt lat="47.536" lon="3.07893">
        <ele>204.19999694824</ele>
        <time>2022-10-29T07:48:50.000Z</time>
      </trkpt>
      <trkpt lat="47.53608" lon="3.07918">
        <ele>204.19999694824</ele>
        <time>2022-10-29T07:48:54.000Z</time>
      </trkpt>
      <trkpt lat="47.53629" lon="3.07994">
        <ele>204.60000610352</ele>
        <time>2022-10-29T07:49:06.000Z</time>
      </trkpt>
      <trkpt lat="47.53637" lon="3.08025">
        <ele>204.80000305176</ele>
        <time>2022-10-29T07:49:11.000Z</time>
      </trkpt>
      <trkpt lat="47.53644" lon="3.08051">
        <ele>204.80000305176</ele>
        <time>2022-10-29T07:49:15.000Z</time>
      </trkpt>
      <trkpt lat="47.53658" lon="3.08103">
        <ele>204.39999389648</ele>
        <time>2022-10-29T07:49:23.000Z</time>
      </trkpt>
      <trkpt lat="47.53679" lon="3.0818">
        <ele>204.80000305176</ele>
        <time>2022-10-29T07:49:34.000Z</time>
      </trkpt>
      <trkpt lat="47.53681" lon="3.08187">
        <ele>204.80000305176</ele>
        <time>2022-10-29T07:49:35.000Z</time>
      </trkpt>
      <trkpt lat="47.53695" lon="3.08236">
        <ele>205</ele>
        <time>2022-10-29T07:49:42.000Z</time>
      </trkpt>
      <trkpt lat="47.53715" lon="3.08306">
        <ele>205.19999694824</ele>
        <time>2022-10-29T07:49:52.000Z</time>
      </trkpt>
      <trkpt lat="47.53718" lon="3.08319">
        <ele>205.19999694824</ele>
        <time>2022-10-29T07:49:54.000Z</time>
      </trkpt>
      <trkpt lat="47.53732" lon="3.08368">
        <ele>205.60000610352</ele>
        <time>2022-10-29T07:50:01.000Z</time>
      </trkpt>
      <trkpt lat="47.53739" lon="3.08395">
        <ele>205.80000305176</ele>
        <time>2022-10-29T07:50:05.000Z</time>
      </trkpt>
      <trkpt lat="47.53747" lon="3.08425">
        <ele>205.60000610352</ele>
        <time>2022-10-29T07:50:09.000Z</time>
      </trkpt>
      <trkpt lat="47.53761" lon="3.08472">
        <ele>205.19999694824</ele>
        <time>2022-10-29T07:50:16.000Z</time>
      </trkpt>
      <trkpt lat="47.53781" lon="3.08547">
        <ele>204.80000305176</ele>
        <time>2022-10-29T07:50:26.000Z</time>
      </trkpt>
      <trkpt lat="47.538" lon="3.08615">
        <ele>204.39999389648</ele>
        <time>2022-10-29T07:50:35.000Z</time>
      </trkpt>
      <trkpt lat="47.53808" lon="3.08646">
        <ele>204.19999694824</ele>
        <time>2022-10-29T07:50:39.000Z</time>
      </trkpt>
      <trkpt lat="47.53822" lon="3.08692">
        <ele>203.60000610352</ele>
        <time>2022-10-29T07:50:45.000Z</time>
      </trkpt>
      <trkpt lat="47.53842" lon="3.08755">
        <ele>203.60000610352</ele>
        <time>2022-10-29T07:50:54.000Z</time>
      </trkpt>
      <trkpt lat="47.53866" lon="3.0881">
        <ele>203.80000305176</ele>
        <time>2022-10-29T07:51:03.000Z</time>
      </trkpt>
      <trkpt lat="47.53897" lon="3.0887">
        <ele>204.80000305176</ele>
        <time>2022-10-29T07:51:14.000Z</time>
      </trkpt>
      <trkpt lat="47.5391" lon="3.08896">
        <ele>205.19999694824</ele>
        <time>2022-10-29T07:51:19.000Z</time>
      </trkpt>
      <trkpt lat="47.53918" lon="3.08911">
        <ele>205.60000610352</ele>
        <time>2022-10-29T07:51:22.000Z</time>
      </trkpt>
      <trkpt lat="47.53937" lon="3.08944">
        <ele>206.19999694824</ele>
        <time>2022-10-29T07:51:29.000Z</time>
      </trkpt>
      <trkpt lat="47.53944" lon="3.08959">
        <ele>206.60000610352</ele>
        <time>2022-10-29T07:51:32.000Z</time>
      </trkpt>
      <trkpt lat="47.53952" lon="3.08973">
        <ele>207</ele>
        <time>2022-10-29T07:51:35.000Z</time>
      </trkpt>
      <trkpt lat="47.5396" lon="3.08988">
        <ele>207.19999694824</ele>
        <time>2022-10-29T07:51:38.000Z</time>
      </trkpt>
      <trkpt lat="47.53963" lon="3.08993">
        <ele>207.39999389648</ele>
        <time>2022-10-29T07:51:39.000Z</time>
      </trkpt>
      <trkpt lat="47.53981" lon="3.09027">
        <ele>208</ele>
        <time>2022-10-29T07:51:46.000Z</time>
      </trkpt>
      <trkpt lat="47.53983" lon="3.09032">
        <ele>208.19999694824</ele>
        <time>2022-10-29T07:51:47.000Z</time>
      </trkpt>
      <trkpt lat="47.53986" lon="3.09036">
        <ele>208.39999389648</ele>
        <time>2022-10-29T07:51:48.000Z</time>
      </trkpt>
      <trkpt lat="47.54004" lon="3.09069">
        <ele>209</ele>
        <time>2022-10-29T07:51:55.000Z</time>
      </trkpt>
      <trkpt lat="47.54015" lon="3.0909">
        <ele>209.39999389648</ele>
        <time>2022-10-29T07:51:59.000Z</time>
      </trkpt>
      <trkpt lat="47.54026" lon="3.0911">
        <ele>209.60000610352</ele>
        <time>2022-10-29T07:52:03.000Z</time>
      </trkpt>
      <trkpt lat="47.54044" lon="3.09147">
        <ele>210.19999694824</ele>
        <time>2022-10-29T07:52:10.000Z</time>
      </trkpt>
      <trkpt lat="47.5405" lon="3.09158">
        <ele>210.39999389648</ele>
        <time>2022-10-29T07:52:12.000Z</time>
      </trkpt>
      <trkpt lat="47.54076" lon="3.09206">
        <ele>210.39999389648</ele>
        <time>2022-10-29T07:52:20.000Z</time>
      </trkpt>
      <trkpt lat="47.54094" lon="3.09239">
        <ele>210.19999694824</ele>
        <time>2022-10-29T07:52:25.000Z</time>
      </trkpt>
      <trkpt lat="47.54101" lon="3.09252">
        <ele>210</ele>
        <time>2022-10-29T07:52:27.000Z</time>
      </trkpt>
      <trkpt lat="47.54131" lon="3.09307">
        <ele>209.39999389648</ele>
        <time>2022-10-29T07:52:35.000Z</time>
      </trkpt>
      <trkpt lat="47.54135" lon="3.09314">
        <ele>209.19999694824</ele>
        <time>2022-10-29T07:52:36.000Z</time>
      </trkpt>
      <trkpt lat="47.54169" lon="3.09378">
        <ele>208.80000305176</ele>
        <time>2022-10-29T07:52:45.000Z</time>
      </trkpt>
      <trkpt lat="47.54177" lon="3.09392">
        <ele>208.60000610352</ele>
        <time>2022-10-29T07:52:47.000Z</time>
      </trkpt>
      <trkpt lat="47.54189" lon="3.09414">
        <ele>208.39999389648</ele>
        <time>2022-10-29T07:52:50.000Z</time>
      </trkpt>
      <trkpt lat="47.54209" lon="3.09451">
        <ele>207.80000305176</ele>
        <time>2022-10-29T07:52:55.000Z</time>
      </trkpt>
      <trkpt lat="47.54234" lon="3.09497">
        <ele>207.19999694824</ele>
        <time>2022-10-29T07:53:01.000Z</time>
      </trkpt>
      <trkpt lat="47.54247" lon="3.0952">
        <ele>206.60000610352</ele>
        <time>2022-10-29T07:53:04.000Z</time>
      </trkpt>
      <trkpt lat="47.54272" lon="3.09568">
        <ele>206</ele>
        <time>2022-10-29T07:53:10.000Z</time>
      </trkpt>
      <trkpt lat="47.54284" lon="3.09594">
        <ele>205.80000305176</ele>
        <time>2022-10-29T07:53:13.000Z</time>
      </trkpt>
      <trkpt lat="47.54312" lon="3.09669">
        <ele>205.19999694824</ele>
        <time>2022-10-29T07:53:22.000Z</time>
      </trkpt>
      <trkpt lat="47.54331" lon="3.09729">
        <ele>205.60000610352</ele>
        <time>2022-10-29T07:53:30.000Z</time>
      </trkpt>
      <trkpt lat="47.54344" lon="3.0977">
        <ele>206.19999694824</ele>
        <time>2022-10-29T07:53:36.000Z</time>
      </trkpt>
      <trkpt lat="47.54364" lon="3.09831">
        <ele>207.19999694824</ele>
        <time>2022-10-29T07:53:45.000Z</time>
      </trkpt>
      <trkpt lat="47.54367" lon="3.09842">
        <ele>207.39999389648</ele>
        <time>2022-10-29T07:53:47.000Z</time>
      </trkpt>
      <trkpt lat="47.54376" lon="3.09865">
        <ele>207.80000305176</ele>
        <time>2022-10-29T07:53:51.000Z</time>
      </trkpt>
      <trkpt lat="47.54378" lon="3.09871">
        <ele>207.80000305176</ele>
        <time>2022-10-29T07:53:52.000Z</time>
      </trkpt>
      <trkpt lat="47.54383" lon="3.09885">
        <ele>207.60000610352</ele>
        <time>2022-10-29T07:53:54.000Z</time>
      </trkpt>
      <trkpt lat="47.54387" lon="3.09898">
        <ele>207.80000305176</ele>
        <time>2022-10-29T07:53:56.000Z</time>
      </trkpt>
      <trkpt lat="47.54391" lon="3.09913">
        <ele>208</ele>
        <time>2022-10-29T07:53:58.000Z</time>
      </trkpt>
      <trkpt lat="47.54403" lon="3.09949">
        <ele>208.60000610352</ele>
        <time>2022-10-29T07:54:03.000Z</time>
      </trkpt>
      <trkpt lat="47.54409" lon="3.09964">
        <ele>209</ele>
        <time>2022-10-29T07:54:05.000Z</time>
      </trkpt>
      <trkpt lat="47.54423" lon="3.10008">
        <ele>209.80000305176</ele>
        <time>2022-10-29T07:54:11.000Z</time>
      </trkpt>
      <trkpt lat="47.54434" lon="3.10043">
        <ele>210</ele>
        <time>2022-10-29T07:54:16.000Z</time>
      </trkpt>
      <trkpt lat="47.54441" lon="3.10063">
        <ele>210.39999389648</ele>
        <time>2022-10-29T07:54:19.000Z</time>
      </trkpt>
      <trkpt lat="47.54457" lon="3.10112">
        <ele>210.60000610352</ele>
        <time>2022-10-29T07:54:26.000Z</time>
      </trkpt>
      <trkpt lat="47.54469" lon="3.1015">
        <ele>211.19999694824</ele>
        <time>2022-10-29T07:54:32.000Z</time>
      </trkpt>
      <trkpt lat="47.54473" lon="3.10162">
        <ele>211.60000610352</ele>
        <time>2022-10-29T07:54:34.000Z</time>
      </trkpt>
      <trkpt lat="47.54483" lon="3.10192">
        <ele>212.39999389648</ele>
        <time>2022-10-29T07:54:39.000Z</time>
      </trkpt>
      <trkpt lat="47.54489" lon="3.10208">
        <ele>212.60000610352</ele>
        <time>2022-10-29T07:54:42.000Z</time>
      </trkpt>
      <trkpt lat="47.54501" lon="3.10243">
        <ele>213.39999389648</ele>
        <time>2022-10-29T07:54:48.000Z</time>
      </trkpt>
      <trkpt lat="47.54503" lon="3.10249">
        <ele>213.39999389648</ele>
        <time>2022-10-29T07:54:49.000Z</time>
      </trkpt>
      <trkpt lat="47.54519" lon="3.10297">
        <ele>213.80000305176</ele>
        <time>2022-10-29T07:54:57.000Z</time>
      </trkpt>
      <trkpt lat="47.54522" lon="3.1031">
        <ele>214.19999694824</ele>
        <time>2022-10-29T07:54:59.000Z</time>
      </trkpt>
      <trkpt lat="47.54531" lon="3.10335">
        <ele>214.39999389648</ele>
        <time>2022-10-29T07:55:03.000Z</time>
      </trkpt>
      <trkpt lat="47.54535" lon="3.10347">
        <ele>214.39999389648</ele>
        <time>2022-10-29T07:55:05.000Z</time>
      </trkpt>
      <trkpt lat="47.5455" lon="3.10391">
        <ele>214.60000610352</ele>
        <time>2022-10-29T07:55:11.000Z</time>
      </trkpt>
      <trkpt lat="47.54552" lon="3.10398">
        <ele>214.60000610352</ele>
        <time>2022-10-29T07:55:12.000Z</time>
      </trkpt>
      <trkpt lat="47.54564" lon="3.10433">
        <ele>214.19999694824</ele>
        <time>2022-10-29T07:55:17.000Z</time>
      </trkpt>
      <trkpt lat="47.54565" lon="3.1044">
        <ele>214.19999694824</ele>
        <time>2022-10-29T07:55:18.000Z</time>
      </trkpt>
      <trkpt lat="47.54572" lon="3.10482">
        <ele>213.80000305176</ele>
        <time>2022-10-29T07:55:23.000Z</time>
      </trkpt>
      <trkpt lat="47.54574" lon="3.1052">
        <ele>213</ele>
        <time>2022-10-29T07:55:27.000Z</time>
      </trkpt>
      <trkpt lat="47.54573" lon="3.10538">
        <ele>212.60000610352</ele>
        <time>2022-10-29T07:55:29.000Z</time>
      </trkpt>
      <trkpt lat="47.5457" lon="3.10559">
        <ele>212.39999389648</ele>
        <time>2022-10-29T07:55:31.000Z</time>
      </trkpt>
      <trkpt lat="47.54566" lon="3.10585">
        <ele>212.19999694824</ele>
        <time>2022-10-29T07:55:34.000Z</time>
      </trkpt>
      <trkpt lat="47.54562" lon="3.10605">
        <ele>212</ele>
        <time>2022-10-29T07:55:36.000Z</time>
      </trkpt>
      <trkpt lat="47.54551" lon="3.10657">
        <ele>211.60000610352</ele>
        <time>2022-10-29T07:55:42.000Z</time>
      </trkpt>
      <trkpt lat="47.54533" lon="3.10735">
        <ele>212</ele>
        <time>2022-10-29T07:55:51.000Z</time>
      </trkpt>
      <trkpt lat="47.54524" lon="3.10775">
        <ele>213.19999694824</ele>
        <time>2022-10-29T07:55:57.000Z</time>
      </trkpt>
      <trkpt lat="47.54523" lon="3.10782">
        <ele>213.39999389648</ele>
        <time>2022-10-29T07:55:58.000Z</time>
      </trkpt>
      <trkpt lat="47.54518" lon="3.10806">
        <ele>214.19999694824</ele>
        <time>2022-10-29T07:56:02.000Z</time>
      </trkpt>
      <trkpt lat="47.54511" lon="3.10838">
        <ele>215</ele>
        <time>2022-10-29T07:56:07.000Z</time>
      </trkpt>
      <trkpt lat="47.54508" lon="3.1085">
        <ele>215.39999389648</ele>
        <time>2022-10-29T07:56:09.000Z</time>
      </trkpt>
      <trkpt lat="47.545" lon="3.10885">
        <ele>216.39999389648</ele>
        <time>2022-10-29T07:56:15.000Z</time>
      </trkpt>
      <trkpt lat="47.54498" lon="3.10897">
        <ele>216.80000305176</ele>
        <time>2022-10-29T07:56:17.000Z</time>
      </trkpt>
      <trkpt lat="47.54493" lon="3.1092">
        <ele>217.60000610352</ele>
        <time>2022-10-29T07:56:21.000Z</time>
      </trkpt>
      <trkpt lat="47.54488" lon="3.10949">
        <ele>218.39999389648</ele>
        <time>2022-10-29T07:56:26.000Z</time>
      </trkpt>
      <trkpt lat="47.54488" lon="3.10955">
        <ele>218.60000610352</ele>
        <time>2022-10-29T07:56:27.000Z</time>
      </trkpt>
      <trkpt lat="47.54486" lon="3.10982">
        <ele>219.39999389648</ele>
        <time>2022-10-29T07:56:32.000Z</time>
      </trkpt>
      <trkpt lat="47.54487" lon="3.10988">
        <ele>219.80000305176</ele>
        <time>2022-10-29T07:56:33.000Z</time>
      </trkpt>
      <trkpt lat="47.54487" lon="3.10993">
        <ele>220</ele>
        <time>2022-10-29T07:56:34.000Z</time>
      </trkpt>
      <trkpt lat="47.54489" lon="3.11016">
        <ele>221</ele>
        <time>2022-10-29T07:56:38.000Z</time>
      </trkpt>
      <trkpt lat="47.5449" lon="3.11022">
        <ele>221.19999694824</ele>
        <time>2022-10-29T07:56:39.000Z</time>
      </trkpt>
      <trkpt lat="47.54494" lon="3.11043">
        <ele>222.19999694824</ele>
        <time>2022-10-29T07:56:43.000Z</time>
      </trkpt>
      <trkpt lat="47.545" lon="3.11069">
        <ele>222.60000610352</ele>
        <time>2022-10-29T07:56:48.000Z</time>
      </trkpt>
      <trkpt lat="47.54504" lon="3.11086">
        <ele>223.19999694824</ele>
        <time>2022-10-29T07:56:51.000Z</time>
      </trkpt>
      <trkpt lat="47.54509" lon="3.11103">
        <ele>223.80000305176</ele>
        <time>2022-10-29T07:56:54.000Z</time>
      </trkpt>
      <trkpt lat="47.54515" lon="3.1113">
        <ele>224.39999389648</ele>
        <time>2022-10-29T07:56:59.000Z</time>
      </trkpt>
      <trkpt lat="47.54521" lon="3.11152">
        <ele>224.80000305176</ele>
        <time>2022-10-29T07:57:03.000Z</time>
      </trkpt>
      <trkpt lat="47.5453" lon="3.1119">
        <ele>225.39999389648</ele>
        <time>2022-10-29T07:57:10.000Z</time>
      </trkpt>
      <trkpt lat="47.54544" lon="3.11241">
        <ele>226.19999694824</ele>
        <time>2022-10-29T07:57:19.000Z</time>
      </trkpt>
      <trkpt lat="47.54546" lon="3.11252">
        <ele>226.39999389648</ele>
        <time>2022-10-29T07:57:21.000Z</time>
      </trkpt>
      <trkpt lat="47.54556" lon="3.11288">
        <ele>226.60000610352</ele>
        <time>2022-10-29T07:57:27.000Z</time>
      </trkpt>
      <trkpt lat="47.54568" lon="3.11336">
        <ele>227</ele>
        <time>2022-10-29T07:57:35.000Z</time>
      </trkpt>
      <trkpt lat="47.54578" lon="3.11373">
        <ele>227.39999389648</ele>
        <time>2022-10-29T07:57:41.000Z</time>
      </trkpt>
      <trkpt lat="47.5458" lon="3.11379">
        <ele>227.39999389648</ele>
        <time>2022-10-29T07:57:42.000Z</time>
      </trkpt>
      <trkpt lat="47.54586" lon="3.11405">
        <ele>227.60000610352</ele>
        <time>2022-10-29T07:57:46.000Z</time>
      </trkpt>
      <trkpt lat="47.54601" lon="3.1147">
        <ele>228.19999694824</ele>
        <time>2022-10-29T07:57:56.000Z</time>
      </trkpt>
      <trkpt lat="47.54611" lon="3.11507">
        <ele>228.39999389648</ele>
        <time>2022-10-29T07:58:02.000Z</time>
      </trkpt>
      <trkpt lat="47.54616" lon="3.11526">
        <ele>228.60000610352</ele>
        <time>2022-10-29T07:58:05.000Z</time>
      </trkpt>
      <trkpt lat="47.54619" lon="3.11539">
        <ele>228.60000610352</ele>
        <time>2022-10-29T07:58:07.000Z</time>
      </trkpt>
      <trkpt lat="47.5463" lon="3.11578">
        <ele>229</ele>
        <time>2022-10-29T07:58:13.000Z</time>
      </trkpt>
      <trkpt lat="47.54649" lon="3.1162">
        <ele>229.39999389648</ele>
        <time>2022-10-29T07:58:20.000Z</time>
      </trkpt>
      <trkpt lat="47.54662" lon="3.11642">
        <ele>229.39999389648</ele>
        <time>2022-10-29T07:58:24.000Z</time>
      </trkpt>
      <trkpt lat="47.54676" lon="3.11662">
        <ele>229.60000610352</ele>
        <time>2022-10-29T07:58:28.000Z</time>
      </trkpt>
      <trkpt lat="47.54704" lon="3.1169">
        <ele>230</ele>
        <time>2022-10-29T07:58:35.000Z</time>
      </trkpt>
      <trkpt lat="47.54732" lon="3.11715">
        <ele>230.60000610352</ele>
        <time>2022-10-29T07:58:42.000Z</time>
      </trkpt>
      <trkpt lat="47.5474" lon="3.11722">
        <ele>230.80000305176</ele>
        <time>2022-10-29T07:58:44.000Z</time>
      </trkpt>
      <trkpt lat="47.54747" lon="3.11729">
        <ele>231.19999694824</ele>
        <time>2022-10-29T07:58:46.000Z</time>
      </trkpt>
      <trkpt lat="47.54754" lon="3.11743">
        <ele>231.19999694824</ele>
        <time>2022-10-29T07:58:49.000Z</time>
      </trkpt>
      <trkpt lat="47.54755" lon="3.11755">
        <ele>231.39999389648</ele>
        <time>2022-10-29T07:58:51.000Z</time>
      </trkpt>
      <trkpt lat="47.54753" lon="3.11769">
        <ele>231.39999389648</ele>
        <time>2022-10-29T07:58:53.000Z</time>
      </trkpt>
      <trkpt lat="47.54748" lon="3.11787">
        <ele>231.39999389648</ele>
        <time>2022-10-29T07:58:56.000Z</time>
      </trkpt>
      <trkpt lat="47.54743" lon="3.11807">
        <ele>231.39999389648</ele>
        <time>2022-10-29T07:58:59.000Z</time>
      </trkpt>
      <trkpt lat="47.54724" lon="3.11877">
        <ele>231.60000610352</ele>
        <time>2022-10-29T07:59:09.000Z</time>
      </trkpt>
      <trkpt lat="47.54712" lon="3.11922">
        <ele>231.60000610352</ele>
        <time>2022-10-29T07:59:16.000Z</time>
      </trkpt>
      <trkpt lat="47.54707" lon="3.11942">
        <ele>232</ele>
        <time>2022-10-29T07:59:19.000Z</time>
      </trkpt>
      <trkpt lat="47.54701" lon="3.11962">
        <ele>232.19999694824</ele>
        <time>2022-10-29T07:59:22.000Z</time>
      </trkpt>
      <trkpt lat="47.54696" lon="3.11981">
        <ele>232.60000610352</ele>
        <time>2022-10-29T07:59:25.000Z</time>
      </trkpt>
      <trkpt lat="47.54687" lon="3.12013">
        <ele>233.19999694824</ele>
        <time>2022-10-29T07:59:30.000Z</time>
      </trkpt>
      <trkpt lat="47.54677" lon="3.1204">
        <ele>233.60000610352</ele>
        <time>2022-10-29T07:59:35.000Z</time>
      </trkpt>
      <trkpt lat="47.54675" lon="3.12044">
        <ele>233.60000610352</ele>
        <time>2022-10-29T07:59:36.000Z</time>
      </trkpt>
      <trkpt lat="47.54657" lon="3.12076">
        <ele>234.60000610352</ele>
        <time>2022-10-29T07:59:43.000Z</time>
      </trkpt>
      <trkpt lat="47.54654" lon="3.1208">
        <ele>234.80000305176</ele>
        <time>2022-10-29T07:59:44.000Z</time>
      </trkpt>
      <trkpt lat="47.54635" lon="3.12108">
        <ele>235.60000610352</ele>
        <time>2022-10-29T07:59:51.000Z</time>
      </trkpt>
      <trkpt lat="47.54628" lon="3.12116">
        <ele>236</ele>
        <time>2022-10-29T07:59:53.000Z</time>
      </trkpt>
      <trkpt lat="47.5461" lon="3.12145">
        <ele>236.80000305176</ele>
        <time>2022-10-29T07:59:59.000Z</time>
      </trkpt>
      <trkpt lat="47.54604" lon="3.12156">
        <ele>236.80000305176</ele>
        <time>2022-10-29T08:00:01.000Z</time>
      </trkpt>
      <trkpt lat="47.54594" lon="3.12173">
        <ele>237</ele>
        <time>2022-10-29T08:00:04.000Z</time>
      </trkpt>
      <trkpt lat="47.54577" lon="3.12213">
        <ele>236.80000305176</ele>
        <time>2022-10-29T08:00:11.000Z</time>
      </trkpt>
      <trkpt lat="47.54565" lon="3.12244">
        <ele>236.80000305176</ele>
        <time>2022-10-29T08:00:17.000Z</time>
      </trkpt>
      <trkpt lat="47.54551" lon="3.12281">
        <ele>236.80000305176</ele>
        <time>2022-10-29T08:00:23.000Z</time>
      </trkpt>
      <trkpt lat="47.54538" lon="3.12325">
        <ele>236.80000305176</ele>
        <time>2022-10-29T08:00:29.000Z</time>
      </trkpt>
      <trkpt lat="47.54529" lon="3.12382">
        <ele>236.60000610352</ele>
        <time>2022-10-29T08:00:35.000Z</time>
      </trkpt>
      <trkpt lat="47.54527" lon="3.12418">
        <ele>236.39999389648</ele>
        <time>2022-10-29T08:00:39.000Z</time>
      </trkpt>
      <trkpt lat="47.5453" lon="3.12434">
        <ele>236.39999389648</ele>
        <time>2022-10-29T08:00:41.000Z</time>
      </trkpt>
      <trkpt lat="47.54533" lon="3.12492">
        <ele>236.19999694824</ele>
        <time>2022-10-29T08:00:48.000Z</time>
      </trkpt>
      <trkpt lat="47.54533" lon="3.12511">
        <ele>236.19999694824</ele>
        <time>2022-10-29T08:00:50.000Z</time>
      </trkpt>
      <trkpt lat="47.54534" lon="3.12546">
        <ele>236.19999694824</ele>
        <time>2022-10-29T08:00:54.000Z</time>
      </trkpt>
      <trkpt lat="47.54537" lon="3.1256">
        <ele>236.19999694824</ele>
        <time>2022-10-29T08:00:56.000Z</time>
      </trkpt>
      <trkpt lat="47.54538" lon="3.12574">
        <ele>236</ele>
        <time>2022-10-29T08:00:58.000Z</time>
      </trkpt>
      <trkpt lat="47.54538" lon="3.12581">
        <ele>236</ele>
        <time>2022-10-29T08:00:59.000Z</time>
      </trkpt>
      <trkpt lat="47.54537" lon="3.12593">
        <ele>235.80000305176</ele>
        <time>2022-10-29T08:01:01.000Z</time>
      </trkpt>
      <trkpt lat="47.54535" lon="3.12617">
        <ele>235.60000610352</ele>
        <time>2022-10-29T08:01:04.000Z</time>
      </trkpt>
      <trkpt lat="47.54532" lon="3.1264">
        <ele>235.39999389648</ele>
        <time>2022-10-29T08:01:06.000Z</time>
      </trkpt>
      <trkpt lat="47.54525" lon="3.12672">
        <ele>234.19999694824</ele>
        <time>2022-10-29T08:01:09.000Z</time>
      </trkpt>
      <trkpt lat="47.54519" lon="3.12707">
        <ele>233</ele>
        <time>2022-10-29T08:01:12.000Z</time>
      </trkpt>
      <trkpt lat="47.54515" lon="3.12745">
        <ele>232.19999694824</ele>
        <time>2022-10-29T08:01:15.000Z</time>
      </trkpt>
      <trkpt lat="47.54513" lon="3.12759">
        <ele>231.80000305176</ele>
        <time>2022-10-29T08:01:16.000Z</time>
      </trkpt>
      <trkpt lat="47.54508" lon="3.12789">
        <ele>230.80000305176</ele>
        <time>2022-10-29T08:01:19.000Z</time>
      </trkpt>
      <trkpt lat="47.54506" lon="3.12801">
        <ele>230.39999389648</ele>
        <time>2022-10-29T08:01:20.000Z</time>
      </trkpt>
      <trkpt lat="47.54505" lon="3.1281">
        <ele>229.80000305176</ele>
        <time>2022-10-29T08:01:21.000Z</time>
      </trkpt>
      <trkpt lat="47.54499" lon="3.12849">
        <ele>228.60000610352</ele>
        <time>2022-10-29T08:01:24.000Z</time>
      </trkpt>
      <trkpt lat="47.54494" lon="3.12878">
        <ele>227.39999389648</ele>
        <time>2022-10-29T08:01:26.000Z</time>
      </trkpt>
      <trkpt lat="47.54488" lon="3.12931">
        <ele>226.19999694824</ele>
        <time>2022-10-29T08:01:30.000Z</time>
      </trkpt>
      <trkpt lat="47.54481" lon="3.12984">
        <ele>225</ele>
        <time>2022-10-29T08:01:34.000Z</time>
      </trkpt>
      <trkpt lat="47.54474" lon="3.13026">
        <ele>223.80000305176</ele>
        <time>2022-10-29T08:01:37.000Z</time>
      </trkpt>
      <trkpt lat="47.54474" lon="3.13069">
        <ele>222.39999389648</ele>
        <time>2022-10-29T08:01:40.000Z</time>
      </trkpt>
      <trkpt lat="47.54473" lon="3.1311">
        <ele>221</ele>
        <time>2022-10-29T08:01:43.000Z</time>
      </trkpt>
      <trkpt lat="47.54474" lon="3.13135">
        <ele>220.39999389648</ele>
        <time>2022-10-29T08:01:45.000Z</time>
      </trkpt>
      <trkpt lat="47.54475" lon="3.13146">
        <ele>220.19999694824</ele>
        <time>2022-10-29T08:01:46.000Z</time>
      </trkpt>
      <trkpt lat="47.54476" lon="3.13158">
        <ele>220</ele>
        <time>2022-10-29T08:01:47.000Z</time>
      </trkpt>
      <trkpt lat="47.54482" lon="3.13209">
        <ele>218.80000305176</ele>
        <time>2022-10-29T08:01:51.000Z</time>
      </trkpt>
      <trkpt lat="47.54486" lon="3.13237">
        <ele>218.19999694824</ele>
        <time>2022-10-29T08:01:53.000Z</time>
      </trkpt>
      <trkpt lat="47.54487" lon="3.13247">
        <ele>217.80000305176</ele>
        <time>2022-10-29T08:01:54.000Z</time>
      </trkpt>
      <trkpt lat="47.54493" lon="3.13297">
        <ele>216.60000610352</ele>
        <time>2022-10-29T08:01:58.000Z</time>
      </trkpt>
      <trkpt lat="47.54498" lon="3.13334">
        <ele>215.60000610352</ele>
        <time>2022-10-29T08:02:01.000Z</time>
      </trkpt>
      <trkpt lat="47.54503" lon="3.13368">
        <ele>214.60000610352</ele>
        <time>2022-10-29T08:02:04.000Z</time>
      </trkpt>
      <trkpt lat="47.54504" lon="3.13378">
        <ele>214.60000610352</ele>
        <time>2022-10-29T08:02:05.000Z</time>
      </trkpt>
      <trkpt lat="47.5451" lon="3.13437">
        <ele>213.60000610352</ele>
        <time>2022-10-29T08:02:11.000Z</time>
      </trkpt>
      <trkpt lat="47.54513" lon="3.13476">
        <ele>214</ele>
        <time>2022-10-29T08:02:16.000Z</time>
      </trkpt>
      <trkpt lat="47.54514" lon="3.13509">
        <ele>215</ele>
        <time>2022-10-29T08:02:21.000Z</time>
      </trkpt>
      <trkpt lat="47.54514" lon="3.13522">
        <ele>215.19999694824</ele>
        <time>2022-10-29T08:02:23.000Z</time>
      </trkpt>
      <trkpt lat="47.54514" lon="3.13526">
        <ele>215.60000610352</ele>
        <time>2022-10-29T08:02:24.000Z</time>
      </trkpt>
      <trkpt lat="47.54512" lon="3.13539">
        <ele>216</ele>
        <time>2022-10-29T08:02:26.000Z</time>
      </trkpt>
      <trkpt lat="47.5451" lon="3.13556">
        <ele>216.80000305176</ele>
        <time>2022-10-29T08:02:29.000Z</time>
      </trkpt>
      <trkpt lat="47.54504" lon="3.13592">
        <ele>218</ele>
        <time>2022-10-29T08:02:35.000Z</time>
      </trkpt>
      <trkpt lat="47.54502" lon="3.13598">
        <ele>218.39999389648</ele>
        <time>2022-10-29T08:02:36.000Z</time>
      </trkpt>
      <trkpt lat="47.54498" lon="3.1362">
        <ele>219</ele>
        <time>2022-10-29T08:02:40.000Z</time>
      </trkpt>
      <trkpt lat="47.54497" lon="3.13625">
        <ele>219.19999694824</ele>
        <time>2022-10-29T08:02:41.000Z</time>
      </trkpt>
      <trkpt lat="47.54493" lon="3.13648">
        <ele>220.19999694824</ele>
        <time>2022-10-29T08:02:45.000Z</time>
      </trkpt>
      <trkpt lat="47.54489" lon="3.1367">
        <ele>220.80000305176</ele>
        <time>2022-10-29T08:02:49.000Z</time>
      </trkpt>
      <trkpt lat="47.54488" lon="3.1368">
        <ele>221.19999694824</ele>
        <time>2022-10-29T08:02:51.000Z</time>
      </trkpt>
      <trkpt lat="47.54485" lon="3.13709">
        <ele>222</ele>
        <time>2022-10-29T08:02:56.000Z</time>
      </trkpt>
      <trkpt lat="47.54484" lon="3.13728">
        <ele>222.19999694824</ele>
        <time>2022-10-29T08:02:59.000Z</time>
      </trkpt>
      <trkpt lat="47.54484" lon="3.13757">
        <ele>222.39999389648</ele>
        <time>2022-10-29T08:03:03.000Z</time>
      </trkpt>
      <trkpt lat="47.54484" lon="3.13809">
        <ele>221.80000305176</ele>
        <time>2022-10-29T08:03:10.000Z</time>
      </trkpt>
      <trkpt lat="47.54484" lon="3.13852">
        <ele>221</ele>
        <time>2022-10-29T08:03:15.000Z</time>
      </trkpt>
      <trkpt lat="47.54483" lon="3.13862">
        <ele>221</ele>
        <time>2022-10-29T08:03:16.000Z</time>
      </trkpt>
      <trkpt lat="47.54482" lon="3.13879">
        <ele>220.60000610352</ele>
        <time>2022-10-29T08:03:18.000Z</time>
      </trkpt>
      <trkpt lat="47.54479" lon="3.13898">
        <ele>220.19999694824</ele>
        <time>2022-10-29T08:03:20.000Z</time>
      </trkpt>
      <trkpt lat="47.54476" lon="3.13909">
        <ele>219.80000305176</ele>
        <time>2022-10-29T08:03:21.000Z</time>
      </trkpt>
      <trkpt lat="47.54471" lon="3.13925">
        <ele>219.39999389648</ele>
        <time>2022-10-29T08:03:23.000Z</time>
      </trkpt>
      <trkpt lat="47.54453" lon="3.13971">
        <ele>218.80000305176</ele>
        <time>2022-10-29T08:03:28.000Z</time>
      </trkpt>
      <trkpt lat="47.54446" lon="3.13989">
        <ele>218.39999389648</ele>
        <time>2022-10-29T08:03:30.000Z</time>
      </trkpt>
      <trkpt lat="47.5443" lon="3.14036">
        <ele>218.19999694824</ele>
        <time>2022-10-29T08:03:36.000Z</time>
      </trkpt>
      <trkpt lat="47.54424" lon="3.14056">
        <ele>218.19999694824</ele>
        <time>2022-10-29T08:03:39.000Z</time>
      </trkpt>
      <trkpt lat="47.54422" lon="3.1407">
        <ele>218.60000610352</ele>
        <time>2022-10-29T08:03:41.000Z</time>
      </trkpt>
      <trkpt lat="47.54422" lon="3.14091">
        <ele>219.19999694824</ele>
        <time>2022-10-29T08:03:45.000Z</time>
      </trkpt>
      <trkpt lat="47.54423" lon="3.14102">
        <ele>219.80000305176</ele>
        <time>2022-10-29T08:03:47.000Z</time>
      </trkpt>
      <trkpt lat="47.54425" lon="3.14117">
        <ele>221</ele>
        <time>2022-10-29T08:03:50.000Z</time>
      </trkpt>
      <trkpt lat="47.54426" lon="3.14122">
        <ele>221.19999694824</ele>
        <time>2022-10-29T08:03:51.000Z</time>
      </trkpt>
      <trkpt lat="47.54428" lon="3.14137">
        <ele>222</ele>
        <time>2022-10-29T08:03:54.000Z</time>
      </trkpt>
      <trkpt lat="47.54429" lon="3.14146">
        <ele>222.39999389648</ele>
        <time>2022-10-29T08:03:56.000Z</time>
      </trkpt>
      <trkpt lat="47.54431" lon="3.14155">
        <ele>223.19999694824</ele>
        <time>2022-10-29T08:03:58.000Z</time>
      </trkpt>
      <trkpt lat="47.54433" lon="3.14159">
        <ele>223.39999389648</ele>
        <time>2022-10-29T08:03:59.000Z</time>
      </trkpt>
      <trkpt lat="47.54434" lon="3.14164">
        <ele>223.60000610352</ele>
        <time>2022-10-29T08:04:00.000Z</time>
      </trkpt>
      <trkpt lat="47.54435" lon="3.14181">
        <ele>224.39999389648</ele>
        <time>2022-10-29T08:04:03.000Z</time>
      </trkpt>
      <trkpt lat="47.54438" lon="3.14194">
        <ele>224.80000305176</ele>
        <time>2022-10-29T08:04:05.000Z</time>
      </trkpt>
      <trkpt lat="47.54438" lon="3.14208">
        <ele>225.39999389648</ele>
        <time>2022-10-29T08:04:07.000Z</time>
      </trkpt>
      <trkpt lat="47.5444" lon="3.14231">
        <ele>226.19999694824</ele>
        <time>2022-10-29T08:04:11.000Z</time>
      </trkpt>
      <trkpt lat="47.54439" lon="3.14236">
        <ele>226.60000610352</ele>
        <time>2022-10-29T08:04:12.000Z</time>
      </trkpt>
      <trkpt lat="47.54439" lon="3.14259">
        <ele>227.39999389648</ele>
        <time>2022-10-29T08:04:16.000Z</time>
      </trkpt>
      <trkpt lat="47.54439" lon="3.14262">
        <ele>227.60000610352</ele>
        <time>2022-10-29T08:04:17.000Z</time>
      </trkpt>
      <trkpt lat="47.54436" lon="3.14287">
        <ele>228.19999694824</ele>
        <time>2022-10-29T08:04:22.000Z</time>
      </trkpt>
      <trkpt lat="47.54432" lon="3.14306">
        <ele>228.60000610352</ele>
        <time>2022-10-29T08:04:25.000Z</time>
      </trkpt>
      <trkpt lat="47.54427" lon="3.14327">
        <ele>229.19999694824</ele>
        <time>2022-10-29T08:04:29.000Z</time>
      </trkpt>
      <trkpt lat="47.54424" lon="3.14349">
        <ele>229.80000305176</ele>
        <time>2022-10-29T08:04:33.000Z</time>
      </trkpt>
      <trkpt lat="47.54425" lon="3.14361">
        <ele>229.80000305176</ele>
        <time>2022-10-29T08:04:35.000Z</time>
      </trkpt>
      <trkpt lat="47.54418" lon="3.14399">
        <ele>230</ele>
        <time>2022-10-29T08:04:40.000Z</time>
      </trkpt>
      <trkpt lat="47.54412" lon="3.14425">
        <ele>230.19999694824</ele>
        <time>2022-10-29T08:04:44.000Z</time>
      </trkpt>
      <trkpt lat="47.54409" lon="3.14452">
        <ele>230.39999389648</ele>
        <time>2022-10-29T08:04:48.000Z</time>
      </trkpt>
      <trkpt lat="47.54401" lon="3.14509">
        <ele>230.60000610352</ele>
        <time>2022-10-29T08:04:57.000Z</time>
      </trkpt>
      <trkpt lat="47.54398" lon="3.14546">
        <ele>230</ele>
        <time>2022-10-29T08:05:04.000Z</time>
      </trkpt>
      <trkpt lat="47.54397" lon="3.1456">
        <ele>229.80000305176</ele>
        <time>2022-10-29T08:05:09.000Z</time>
      </trkpt>
      <trkpt lat="47.54393" lon="3.14576">
        <ele>229</ele>
        <time>2022-10-29T08:05:15.000Z</time>
      </trkpt>
      <trkpt lat="47.54393" lon="3.14577">
        <ele>228.60000610352</ele>
        <time>2022-10-29T08:05:20.000Z</time>
      </trkpt>
      <trkpt lat="47.54393" lon="3.14577">
        <ele>228.60000610352</ele>
        <time>2022-10-29T08:05:24.000Z</time>
      </trkpt>
      <trkpt lat="47.54393" lon="3.14577">
        <ele>228.60000610352</ele>
        <time>2022-10-29T08:05:40.000Z</time>
      </trkpt>
      <trkpt lat="47.54393" lon="3.14577">
        <ele>229.19999694824</ele>
        <time>2022-10-29T08:07:33.000Z</time>
      </trkpt>
      <trkpt lat="47.54393" lon="3.14577">
        <ele>229</ele>
        <time>2022-10-29T08:09:02.000Z</time>
      </trkpt>
      <trkpt lat="47.54393" lon="3.14584">
        <ele>229</ele>
        <time>2022-10-29T08:09:04.000Z</time>
      </trkpt>
      <trkpt lat="47.54393" lon="3.14588">
        <ele>229</ele>
        <time>2022-10-29T08:09:05.000Z</time>
      </trkpt>
      <trkpt lat="47.54392" lon="3.14614">
        <ele>229</ele>
        <time>2022-10-29T08:09:09.000Z</time>
      </trkpt>
      <trkpt lat="47.54389" lon="3.14654">
        <ele>228.39999389648</ele>
        <time>2022-10-29T08:09:14.000Z</time>
      </trkpt>
      <trkpt lat="47.54387" lon="3.14705">
        <ele>227.19999694824</ele>
        <time>2022-10-29T08:09:19.000Z</time>
      </trkpt>
      <trkpt lat="47.54387" lon="3.14715">
        <ele>227</ele>
        <time>2022-10-29T08:09:20.000Z</time>
      </trkpt>
      <trkpt lat="47.54384" lon="3.14742">
        <ele>225.80000305176</ele>
        <time>2022-10-29T08:09:23.000Z</time>
      </trkpt>
      <trkpt lat="47.5438" lon="3.1476">
        <ele>225</ele>
        <time>2022-10-29T08:09:25.000Z</time>
      </trkpt>
      <trkpt lat="47.54377" lon="3.14768">
        <ele>224.60000610352</ele>
        <time>2022-10-29T08:09:26.000Z</time>
      </trkpt>
      <trkpt lat="47.5437" lon="3.14783">
        <ele>224.19999694824</ele>
        <time>2022-10-29T08:09:28.000Z</time>
      </trkpt>
      <trkpt lat="47.54362" lon="3.14796">
        <ele>223.80000305176</ele>
        <time>2022-10-29T08:09:30.000Z</time>
      </trkpt>
      <trkpt lat="47.54358" lon="3.14801">
        <ele>223.39999389648</ele>
        <time>2022-10-29T08:09:31.000Z</time>
      </trkpt>
      <trkpt lat="47.54333" lon="3.14822">
        <ele>223.19999694824</ele>
        <time>2022-10-29T08:09:36.000Z</time>
      </trkpt>
      <trkpt lat="47.54302" lon="3.14842">
        <ele>223</ele>
        <time>2022-10-29T08:09:43.000Z</time>
      </trkpt>
      <trkpt lat="47.54285" lon="3.14853">
        <ele>223.19999694824</ele>
        <time>2022-10-29T08:09:47.000Z</time>
      </trkpt>
      <trkpt lat="47.54277" lon="3.1486">
        <ele>223.60000610352</ele>
        <time>2022-10-29T08:09:49.000Z</time>
      </trkpt>
      <trkpt lat="47.54263" lon="3.14873">
        <ele>224</ele>
        <time>2022-10-29T08:09:53.000Z</time>
      </trkpt>
      <trkpt lat="47.54254" lon="3.14886">
        <ele>224.39999389648</ele>
        <time>2022-10-29T08:09:56.000Z</time>
      </trkpt>
      <trkpt lat="47.54251" lon="3.1489">
        <ele>224.39999389648</ele>
        <time>2022-10-29T08:09:57.000Z</time>
      </trkpt>
      <trkpt lat="47.54248" lon="3.14895">
        <ele>224.60000610352</ele>
        <time>2022-10-29T08:09:58.000Z</time>
      </trkpt>
      <trkpt lat="47.5424" lon="3.14915">
        <ele>225</ele>
        <time>2022-10-29T08:10:02.000Z</time>
      </trkpt>
      <trkpt lat="47.54237" lon="3.14924">
        <ele>225.60000610352</ele>
        <time>2022-10-29T08:10:04.000Z</time>
      </trkpt>
      <trkpt lat="47.54229" lon="3.14948">
        <ele>226.60000610352</ele>
        <time>2022-10-29T08:10:09.000Z</time>
      </trkpt>
      <trkpt lat="47.54227" lon="3.14953">
        <ele>226.80000305176</ele>
        <time>2022-10-29T08:10:10.000Z</time>
      </trkpt>
      <trkpt lat="47.5422" lon="3.1498">
        <ele>227.80000305176</ele>
        <time>2022-10-29T08:10:16.000Z</time>
      </trkpt>
      <trkpt lat="47.5421" lon="3.15014">
        <ele>228.39999389648</ele>
        <time>2022-10-29T08:10:23.000Z</time>
      </trkpt>
      <trkpt lat="47.54204" lon="3.15034">
        <ele>228.80000305176</ele>
        <time>2022-10-29T08:10:27.000Z</time>
      </trkpt>
      <trkpt lat="47.54196" lon="3.15055">
        <ele>229.19999694824</ele>
        <time>2022-10-29T08:10:31.000Z</time>
      </trkpt>
      <trkpt lat="47.54178" lon="3.15112">
        <ele>229.80000305176</ele>
        <time>2022-10-29T08:10:41.000Z</time>
      </trkpt>
      <trkpt lat="47.54174" lon="3.15123">
        <ele>229.80000305176</ele>
        <time>2022-10-29T08:10:43.000Z</time>
      </trkpt>
      <trkpt lat="47.54163" lon="3.1516">
        <ele>230</ele>
        <time>2022-10-29T08:10:49.000Z</time>
      </trkpt>
      <trkpt lat="47.54145" lon="3.15217">
        <ele>230.19999694824</ele>
        <time>2022-10-29T08:10:58.000Z</time>
      </trkpt>
      <trkpt lat="47.54128" lon="3.15271">
        <ele>230.19999694824</ele>
        <time>2022-10-29T08:11:06.000Z</time>
      </trkpt>
      <trkpt lat="47.54114" lon="3.15317">
        <ele>230.39999389648</ele>
        <time>2022-10-29T08:11:13.000Z</time>
      </trkpt>
      <trkpt lat="47.54098" lon="3.15368">
        <ele>230.80000305176</ele>
        <time>2022-10-29T08:11:21.000Z</time>
      </trkpt>
      <trkpt lat="47.54086" lon="3.15406">
        <ele>231.19999694824</ele>
        <time>2022-10-29T08:11:27.000Z</time>
      </trkpt>
      <trkpt lat="47.54082" lon="3.15417">
        <ele>231.19999694824</ele>
        <time>2022-10-29T08:11:29.000Z</time>
      </trkpt>
      <trkpt lat="47.54066" lon="3.15468">
        <ele>231.80000305176</ele>
        <time>2022-10-29T08:11:37.000Z</time>
      </trkpt>
      <trkpt lat="47.54062" lon="3.15481">
        <ele>232</ele>
        <time>2022-10-29T08:11:39.000Z</time>
      </trkpt>
      <trkpt lat="47.54048" lon="3.15529">
        <ele>232</ele>
        <time>2022-10-29T08:11:46.000Z</time>
      </trkpt>
      <trkpt lat="47.5403" lon="3.1559">
        <ele>232.19999694824</ele>
        <time>2022-10-29T08:11:54.000Z</time>
      </trkpt>
      <trkpt lat="47.54014" lon="3.15644">
        <ele>232</ele>
        <time>2022-10-29T08:12:01.000Z</time>
      </trkpt>
      <trkpt lat="47.53996" lon="3.15703">
        <ele>231.39999389648</ele>
        <time>2022-10-29T08:12:08.000Z</time>
      </trkpt>
      <trkpt lat="47.53975" lon="3.15768">
        <ele>231</ele>
        <time>2022-10-29T08:12:16.000Z</time>
      </trkpt>
      <trkpt lat="47.53973" lon="3.15776">
        <ele>230.80000305176</ele>
        <time>2022-10-29T08:12:17.000Z</time>
      </trkpt>
      <trkpt lat="47.53954" lon="3.15835">
        <ele>231</ele>
        <time>2022-10-29T08:12:25.000Z</time>
      </trkpt>
      <trkpt lat="47.53937" lon="3.15893">
        <ele>231.80000305176</ele>
        <time>2022-10-29T08:12:33.000Z</time>
      </trkpt>
      <trkpt lat="47.53931" lon="3.15917">
        <ele>232.19999694824</ele>
        <time>2022-10-29T08:12:36.000Z</time>
      </trkpt>
      <trkpt lat="47.53928" lon="3.15941">
        <ele>232.39999389648</ele>
        <time>2022-10-29T08:12:39.000Z</time>
      </trkpt>
      <trkpt lat="47.53927" lon="3.15949">
        <ele>232.60000610352</ele>
        <time>2022-10-29T08:12:40.000Z</time>
      </trkpt>
      <trkpt lat="47.53925" lon="3.15988">
        <ele>232.80000305176</ele>
        <time>2022-10-29T08:12:45.000Z</time>
      </trkpt>
      <trkpt lat="47.53924" lon="3.16051">
        <ele>232.39999389648</ele>
        <time>2022-10-29T08:12:52.000Z</time>
      </trkpt>
      <trkpt lat="47.53917" lon="3.16114">
        <ele>232.39999389648</ele>
        <time>2022-10-29T08:12:59.000Z</time>
      </trkpt>
      <trkpt lat="47.53914" lon="3.16139">
        <ele>232.39999389648</ele>
        <time>2022-10-29T08:13:02.000Z</time>
      </trkpt>
      <trkpt lat="47.53913" lon="3.16152">
        <ele>232.60000610352</ele>
        <time>2022-10-29T08:13:04.000Z</time>
      </trkpt>
      <trkpt lat="47.53909" lon="3.16187">
        <ele>233.19999694824</ele>
        <time>2022-10-29T08:13:09.000Z</time>
      </trkpt>
      <trkpt lat="47.53907" lon="3.162">
        <ele>233.39999389648</ele>
        <time>2022-10-29T08:13:11.000Z</time>
      </trkpt>
      <trkpt lat="47.53907" lon="3.16207">
        <ele>233.39999389648</ele>
        <time>2022-10-29T08:13:12.000Z</time>
      </trkpt>
      <trkpt lat="47.53904" lon="3.16233">
        <ele>234.19999694824</ele>
        <time>2022-10-29T08:13:16.000Z</time>
      </trkpt>
      <trkpt lat="47.53903" lon="3.1624">
        <ele>234.19999694824</ele>
        <time>2022-10-29T08:13:17.000Z</time>
      </trkpt>
      <trkpt lat="47.53898" lon="3.16288">
        <ele>235.39999389648</ele>
        <time>2022-10-29T08:13:24.000Z</time>
      </trkpt>
      <trkpt lat="47.53897" lon="3.16295">
        <ele>235.60000610352</ele>
        <time>2022-10-29T08:13:25.000Z</time>
      </trkpt>
      <trkpt lat="47.53895" lon="3.16341">
        <ele>236.39999389648</ele>
        <time>2022-10-29T08:13:32.000Z</time>
      </trkpt>
      <trkpt lat="47.53895" lon="3.16348">
        <ele>236.60000610352</ele>
        <time>2022-10-29T08:13:33.000Z</time>
      </trkpt>
      <trkpt lat="47.53896" lon="3.16389">
        <ele>237.60000610352</ele>
        <time>2022-10-29T08:13:39.000Z</time>
      </trkpt>
      <trkpt lat="47.53896" lon="3.16396">
        <ele>237.60000610352</ele>
        <time>2022-10-29T08:13:40.000Z</time>
      </trkpt>
      <trkpt lat="47.53897" lon="3.16403">
        <ele>237.60000610352</ele>
        <time>2022-10-29T08:13:41.000Z</time>
      </trkpt>
      <trkpt lat="47.53903" lon="3.16471">
        <ele>238</ele>
        <time>2022-10-29T08:13:50.000Z</time>
      </trkpt>
      <trkpt lat="47.53909" lon="3.16541">
        <ele>238</ele>
        <time>2022-10-29T08:13:59.000Z</time>
      </trkpt>
      <trkpt lat="47.53911" lon="3.16628">
        <ele>237.39999389648</ele>
        <time>2022-10-29T08:14:09.000Z</time>
      </trkpt>
      <trkpt lat="47.53911" lon="3.16638">
        <ele>237.39999389648</ele>
        <time>2022-10-29T08:14:10.000Z</time>
      </trkpt>
      <trkpt lat="47.53911" lon="3.16699">
        <ele>236.39999389648</ele>
        <time>2022-10-29T08:14:16.000Z</time>
      </trkpt>
      <trkpt lat="47.5391" lon="3.16765">
        <ele>235</ele>
        <time>2022-10-29T08:14:22.000Z</time>
      </trkpt>
      <trkpt lat="47.5391" lon="3.16777">
        <ele>234.80000305176</ele>
        <time>2022-10-29T08:14:23.000Z</time>
      </trkpt>
      <trkpt lat="47.53909" lon="3.16813">
        <ele>234</ele>
        <time>2022-10-29T08:14:26.000Z</time>
      </trkpt>
      <trkpt lat="47.53908" lon="3.16861">
        <ele>232.80000305176</ele>
        <time>2022-10-29T08:14:30.000Z</time>
      </trkpt>
      <trkpt lat="47.53908" lon="3.16874">
        <ele>232.60000610352</ele>
        <time>2022-10-29T08:14:31.000Z</time>
      </trkpt>
      <trkpt lat="47.53907" lon="3.1691">
        <ele>231.39999389648</ele>
        <time>2022-10-29T08:14:34.000Z</time>
      </trkpt>
      <trkpt lat="47.53906" lon="3.16969">
        <ele>230.39999389648</ele>
        <time>2022-10-29T08:14:39.000Z</time>
      </trkpt>
      <trkpt lat="47.53905" lon="3.16993">
        <ele>230.19999694824</ele>
        <time>2022-10-29T08:14:41.000Z</time>
      </trkpt>
      <trkpt lat="47.53904" lon="3.17038">
        <ele>229.39999389648</ele>
        <time>2022-10-29T08:14:45.000Z</time>
      </trkpt>
      <trkpt lat="47.53903" lon="3.17071">
        <ele>229.19999694824</ele>
        <time>2022-10-29T08:14:48.000Z</time>
      </trkpt>
      <trkpt lat="47.53902" lon="3.17155">
        <ele>228.80000305176</ele>
        <time>2022-10-29T08:14:56.000Z</time>
      </trkpt>
      <trkpt lat="47.53904" lon="3.17224">
        <ele>228.39999389648</ele>
        <time>2022-10-29T08:15:03.000Z</time>
      </trkpt>
      <trkpt lat="47.53904" lon="3.17233">
        <ele>228.39999389648</ele>
        <time>2022-10-29T08:15:04.000Z</time>
      </trkpt>
      <trkpt lat="47.5391" lon="3.17288">
        <ele>228</ele>
        <time>2022-10-29T08:15:10.000Z</time>
      </trkpt>
      <trkpt lat="47.53916" lon="3.17328">
        <ele>227.80000305176</ele>
        <time>2022-10-29T08:15:15.000Z</time>
      </trkpt>
      <trkpt lat="47.53915" lon="3.17334">
        <ele>227.80000305176</ele>
        <time>2022-10-29T08:15:16.000Z</time>
      </trkpt>
      <trkpt lat="47.53912" lon="3.1734">
        <ele>227.80000305176</ele>
        <time>2022-10-29T08:15:17.000Z</time>
      </trkpt>
      <trkpt lat="47.53902" lon="3.1735">
        <ele>227.80000305176</ele>
        <time>2022-10-29T08:15:19.000Z</time>
      </trkpt>
      <trkpt lat="47.53887" lon="3.17368">
        <ele>227.39999389648</ele>
        <time>2022-10-29T08:15:22.000Z</time>
      </trkpt>
      <trkpt lat="47.53883" lon="3.17375">
        <ele>227.19999694824</ele>
        <time>2022-10-29T08:15:23.000Z</time>
      </trkpt>
      <trkpt lat="47.53875" lon="3.17388">
        <ele>226.80000305176</ele>
        <time>2022-10-29T08:15:25.000Z</time>
      </trkpt>
      <trkpt lat="47.53863" lon="3.17413">
        <ele>226.39999389648</ele>
        <time>2022-10-29T08:15:29.000Z</time>
      </trkpt>
      <trkpt lat="47.53858" lon="3.17419">
        <ele>226.39999389648</ele>
        <time>2022-10-29T08:15:31.000Z</time>
      </trkpt>
      <trkpt lat="47.53857" lon="3.17423">
        <ele>226.19999694824</ele>
        <time>2022-10-29T08:15:32.000Z</time>
      </trkpt>
      <trkpt lat="47.53846" lon="3.17448">
        <ele>226.19999694824</ele>
        <time>2022-10-29T08:15:37.000Z</time>
      </trkpt>
      <trkpt lat="47.53833" lon="3.17474">
        <ele>225.80000305176</ele>
        <time>2022-10-29T08:15:43.000Z</time>
      </trkpt>
      <trkpt lat="47.5383" lon="3.17478">
        <ele>225.39999389648</ele>
        <time>2022-10-29T08:15:47.000Z</time>
      </trkpt>
      <trkpt lat="47.53829" lon="3.17478">
        <ele>225.19999694824</ele>
        <time>2022-10-29T08:15:48.000Z</time>
      </trkpt>
      <trkpt lat="47.53825" lon="3.1748">
        <ele>225</ele>
        <time>2022-10-29T08:15:53.000Z</time>
      </trkpt>
      <trkpt lat="47.53824" lon="3.17481">
        <ele>225</ele>
        <time>2022-10-29T08:15:54.000Z</time>
      </trkpt>
      <trkpt lat="47.53822" lon="3.17488">
        <ele>225</ele>
        <time>2022-10-29T08:15:59.000Z</time>
      </trkpt>
      <trkpt lat="47.53819" lon="3.17494">
        <ele>225</ele>
        <time>2022-10-29T08:16:06.000Z</time>
      </trkpt>
      <trkpt lat="47.53818" lon="3.17497">
        <ele>224.80000305176</ele>
        <time>2022-10-29T08:16:11.000Z</time>
      </trkpt>
      <trkpt lat="47.53817" lon="3.17499">
        <ele>224.60000610352</ele>
        <time>2022-10-29T08:16:12.000Z</time>
      </trkpt>
      <trkpt lat="47.53811" lon="3.17514">
        <ele>224.80000305176</ele>
        <time>2022-10-29T08:16:17.000Z</time>
      </trkpt>
      <trkpt lat="47.53802" lon="3.17533">
        <ele>225</ele>
        <time>2022-10-29T08:16:21.000Z</time>
      </trkpt>
      <trkpt lat="47.5379" lon="3.17557">
        <ele>225.39999389648</ele>
        <time>2022-10-29T08:16:25.000Z</time>
      </trkpt>
      <trkpt lat="47.53785" lon="3.17571">
        <ele>225.60000610352</ele>
        <time>2022-10-29T08:16:27.000Z</time>
      </trkpt>
      <trkpt lat="47.53783" lon="3.17587">
        <ele>225.60000610352</ele>
        <time>2022-10-29T08:16:29.000Z</time>
      </trkpt>
      <trkpt lat="47.53784" lon="3.17604">
        <ele>225.80000305176</ele>
        <time>2022-10-29T08:16:31.000Z</time>
      </trkpt>
      <trkpt lat="47.53791" lon="3.17653">
        <ele>226</ele>
        <time>2022-10-29T08:16:37.000Z</time>
      </trkpt>
      <trkpt lat="47.53806" lon="3.17688">
        <ele>226.19999694824</ele>
        <time>2022-10-29T08:16:42.000Z</time>
      </trkpt>
      <trkpt lat="47.53813" lon="3.17702">
        <ele>226.39999389648</ele>
        <time>2022-10-29T08:16:44.000Z</time>
      </trkpt>
      <trkpt lat="47.53842" lon="3.17766">
        <ele>226.60000610352</ele>
        <time>2022-10-29T08:16:53.000Z</time>
      </trkpt>
      <trkpt lat="47.53844" lon="3.17774">
        <ele>226.80000305176</ele>
        <time>2022-10-29T08:16:54.000Z</time>
      </trkpt>
      <trkpt lat="47.5385" lon="3.17808">
        <ele>226.80000305176</ele>
        <time>2022-10-29T08:16:58.000Z</time>
      </trkpt>
      <trkpt lat="47.53854" lon="3.1785">
        <ele>227</ele>
        <time>2022-10-29T08:17:03.000Z</time>
      </trkpt>
      <trkpt lat="47.53857" lon="3.17865">
        <ele>227.19999694824</ele>
        <time>2022-10-29T08:17:05.000Z</time>
      </trkpt>
      <trkpt lat="47.53858" lon="3.17872">
        <ele>227.19999694824</ele>
        <time>2022-10-29T08:17:06.000Z</time>
      </trkpt>
      <trkpt lat="47.53859" lon="3.17879">
        <ele>227.19999694824</ele>
        <time>2022-10-29T08:17:07.000Z</time>
      </trkpt>
      <trkpt lat="47.53862" lon="3.17901">
        <ele>227.39999389648</ele>
        <time>2022-10-29T08:17:10.000Z</time>
      </trkpt>
      <trkpt lat="47.53863" lon="3.1791">
        <ele>227.39999389648</ele>
        <time>2022-10-29T08:17:11.000Z</time>
      </trkpt>
      <trkpt lat="47.53864" lon="3.17918">
        <ele>227.60000610352</ele>
        <time>2022-10-29T08:17:12.000Z</time>
      </trkpt>
      <trkpt lat="47.53863" lon="3.17947">
        <ele>227.80000305176</ele>
        <time>2022-10-29T08:17:16.000Z</time>
      </trkpt>
      <trkpt lat="47.53862" lon="3.17966">
        <ele>228.39999389648</ele>
        <time>2022-10-29T08:17:19.000Z</time>
      </trkpt>
      <trkpt lat="47.53863" lon="3.17977">
        <ele>229</ele>
        <time>2022-10-29T08:17:21.000Z</time>
      </trkpt>
      <trkpt lat="47.53862" lon="3.17983">
        <ele>229.39999389648</ele>
        <time>2022-10-29T08:17:22.000Z</time>
      </trkpt>
      <trkpt lat="47.53863" lon="3.18001">
        <ele>230.60000610352</ele>
        <time>2022-10-29T08:17:25.000Z</time>
      </trkpt>
      <trkpt lat="47.53861" lon="3.18016">
        <ele>231.39999389648</ele>
        <time>2022-10-29T08:17:28.000Z</time>
      </trkpt>
      <trkpt lat="47.53859" lon="3.18019">
        <ele>232</ele>
        <time>2022-10-29T08:17:29.000Z</time>
      </trkpt>
      <trkpt lat="47.53852" lon="3.18022">
        <ele>233</ele>
        <time>2022-10-29T08:17:31.000Z</time>
      </trkpt>
      <trkpt lat="47.53849" lon="3.18023">
        <ele>233.80000305176</ele>
        <time>2022-10-29T08:17:32.000Z</time>
      </trkpt>
      <trkpt lat="47.53817" lon="3.18032">
        <ele>234.80000305176</ele>
        <time>2022-10-29T08:17:41.000Z</time>
      </trkpt>
      <trkpt lat="47.53813" lon="3.18033">
        <ele>234.80000305176</ele>
        <time>2022-10-29T08:17:42.000Z</time>
      </trkpt>
      <trkpt lat="47.53792" lon="3.18039">
        <ele>235</ele>
        <time>2022-10-29T08:17:47.000Z</time>
      </trkpt>
      <trkpt lat="47.53752" lon="3.18059">
        <ele>235.19999694824</ele>
        <time>2022-10-29T08:17:56.000Z</time>
      </trkpt>
      <trkpt lat="47.53744" lon="3.18064">
        <ele>235.19999694824</ele>
        <time>2022-10-29T08:17:58.000Z</time>
      </trkpt>
      <trkpt lat="47.53722" lon="3.18083">
        <ele>235.19999694824</ele>
        <time>2022-10-29T08:18:03.000Z</time>
      </trkpt>
      <trkpt lat="47.53695" lon="3.18122">
        <ele>235.60000610352</ele>
        <time>2022-10-29T08:18:11.000Z</time>
      </trkpt>
      <trkpt lat="47.53685" lon="3.18144">
        <ele>235.80000305176</ele>
        <time>2022-10-29T08:18:15.000Z</time>
      </trkpt>
      <trkpt lat="47.5368" lon="3.18155">
        <ele>235.80000305176</ele>
        <time>2022-10-29T08:18:17.000Z</time>
      </trkpt>
      <trkpt lat="47.53658" lon="3.18213">
        <ele>236.39999389648</ele>
        <time>2022-10-29T08:18:27.000Z</time>
      </trkpt>
      <trkpt lat="47.53636" lon="3.18271">
        <ele>236.80000305176</ele>
        <time>2022-10-29T08:18:37.000Z</time>
      </trkpt>
      <trkpt lat="47.53614" lon="3.18329">
        <ele>237.60000610352</ele>
        <time>2022-10-29T08:18:47.000Z</time>
      </trkpt>
      <trkpt lat="47.53611" lon="3.18334">
        <ele>237.80000305176</ele>
        <time>2022-10-29T08:18:48.000Z</time>
      </trkpt>
      <trkpt lat="47.53609" lon="3.1834">
        <ele>237.80000305176</ele>
        <time>2022-10-29T08:18:49.000Z</time>
      </trkpt>
      <trkpt lat="47.53607" lon="3.18345">
        <ele>238</ele>
        <time>2022-10-29T08:18:50.000Z</time>
      </trkpt>
      <trkpt lat="47.53601" lon="3.1836">
        <ele>238</ele>
        <time>2022-10-29T08:18:53.000Z</time>
      </trkpt>
      <trkpt lat="47.53574" lon="3.18416">
        <ele>238.60000610352</ele>
        <time>2022-10-29T08:19:04.000Z</time>
      </trkpt>
      <trkpt lat="47.53567" lon="3.18432">
        <ele>239</ele>
        <time>2022-10-29T08:19:07.000Z</time>
      </trkpt>
      <trkpt lat="47.53555" lon="3.18459">
        <ele>239.39999389648</ele>
        <time>2022-10-29T08:19:12.000Z</time>
      </trkpt>
      <trkpt lat="47.5355" lon="3.18469">
        <ele>239.60000610352</ele>
        <time>2022-10-29T08:19:14.000Z</time>
      </trkpt>
      <trkpt lat="47.53536" lon="3.18492">
        <ele>240</ele>
        <time>2022-10-29T08:19:19.000Z</time>
      </trkpt>
      <trkpt lat="47.53527" lon="3.18499">
        <ele>240</ele>
        <time>2022-10-29T08:19:21.000Z</time>
      </trkpt>
      <trkpt lat="47.53517" lon="3.18501">
        <ele>240</ele>
        <time>2022-10-29T08:19:23.000Z</time>
      </trkpt>
      <trkpt lat="47.53489" lon="3.18495">
        <ele>240.19999694824</ele>
        <time>2022-10-29T08:19:29.000Z</time>
      </trkpt>
      <trkpt lat="47.53457" lon="3.18484">
        <ele>240.39999389648</ele>
        <time>2022-10-29T08:19:36.000Z</time>
      </trkpt>
      <trkpt lat="47.53424" lon="3.18482">
        <ele>240.39999389648</ele>
        <time>2022-10-29T08:19:43.000Z</time>
      </trkpt>
      <trkpt lat="47.53415" lon="3.18484">
        <ele>240.60000610352</ele>
        <time>2022-10-29T08:19:45.000Z</time>
      </trkpt>
      <trkpt lat="47.53389" lon="3.18495">
        <ele>240.60000610352</ele>
        <time>2022-10-29T08:19:51.000Z</time>
      </trkpt>
      <trkpt lat="47.53363" lon="3.18506">
        <ele>241.19999694824</ele>
        <time>2022-10-29T08:19:58.000Z</time>
      </trkpt>
      <trkpt lat="47.53359" lon="3.18508">
        <ele>241.19999694824</ele>
        <time>2022-10-29T08:19:59.000Z</time>
      </trkpt>
      <trkpt lat="47.5334" lon="3.18517">
        <ele>242.39999389648</ele>
        <time>2022-10-29T08:20:05.000Z</time>
      </trkpt>
      <trkpt lat="47.53337" lon="3.18518">
        <ele>242.39999389648</ele>
        <time>2022-10-29T08:20:06.000Z</time>
      </trkpt>
      <trkpt lat="47.53315" lon="3.18526">
        <ele>243.39999389648</ele>
        <time>2022-10-29T08:20:13.000Z</time>
      </trkpt>
      <trkpt lat="47.53309" lon="3.18528">
        <ele>243.80000305176</ele>
        <time>2022-10-29T08:20:15.000Z</time>
      </trkpt>
      <trkpt lat="47.53297" lon="3.18532">
        <ele>244.60000610352</ele>
        <time>2022-10-29T08:20:19.000Z</time>
      </trkpt>
      <trkpt lat="47.53281" lon="3.18536">
        <ele>245.80000305176</ele>
        <time>2022-10-29T08:20:24.000Z</time>
      </trkpt>
      <trkpt lat="47.53258" lon="3.18542">
        <ele>247</ele>
        <time>2022-10-29T08:20:31.000Z</time>
      </trkpt>
      <trkpt lat="47.5323" lon="3.18548">
        <ele>248</ele>
        <time>2022-10-29T08:20:39.000Z</time>
      </trkpt>
      <trkpt lat="47.53223" lon="3.1855">
        <ele>248.39999389648</ele>
        <time>2022-10-29T08:20:41.000Z</time>
      </trkpt>
      <trkpt lat="47.53205" lon="3.18553">
        <ele>249.19999694824</ele>
        <time>2022-10-29T08:20:46.000Z</time>
      </trkpt>
      <trkpt lat="47.53193" lon="3.18555">
        <ele>249.19999694824</ele>
        <time>2022-10-29T08:20:49.000Z</time>
      </trkpt>
      <trkpt lat="47.5317" lon="3.18559">
        <ele>250.19999694824</ele>
        <time>2022-10-29T08:20:55.000Z</time>
      </trkpt>
      <trkpt lat="47.53163" lon="3.1856">
        <ele>250.39999389648</ele>
        <time>2022-10-29T08:20:57.000Z</time>
      </trkpt>
      <trkpt lat="47.53133" lon="3.18562">
        <ele>251.19999694824</ele>
        <time>2022-10-29T08:21:05.000Z</time>
      </trkpt>
      <trkpt lat="47.53128" lon="3.18562">
        <ele>251.19999694824</ele>
        <time>2022-10-29T08:21:06.000Z</time>
      </trkpt>
      <trkpt lat="47.53105" lon="3.1856">
        <ele>252.19999694824</ele>
        <time>2022-10-29T08:21:12.000Z</time>
      </trkpt>
      <trkpt lat="47.53079" lon="3.18559">
        <ele>253.39999389648</ele>
        <time>2022-10-29T08:21:19.000Z</time>
      </trkpt>
      <trkpt lat="47.53056" lon="3.18561">
        <ele>254.60000610352</ele>
        <time>2022-10-29T08:21:25.000Z</time>
      </trkpt>
      <trkpt lat="47.53045" lon="3.18565">
        <ele>255</ele>
        <time>2022-10-29T08:21:28.000Z</time>
      </trkpt>
      <trkpt lat="47.53034" lon="3.18569">
        <ele>255.60000610352</ele>
        <time>2022-10-29T08:21:31.000Z</time>
      </trkpt>
      <trkpt lat="47.53013" lon="3.18576">
        <ele>256.79998779297</ele>
        <time>2022-10-29T08:21:37.000Z</time>
      </trkpt>
      <trkpt lat="47.52993" lon="3.18582">
        <ele>257.79998779297</ele>
        <time>2022-10-29T08:21:42.000Z</time>
      </trkpt>
      <trkpt lat="47.52983" lon="3.18585">
        <ele>258.39999389648</ele>
        <time>2022-10-29T08:21:45.000Z</time>
      </trkpt>
      <trkpt lat="47.52978" lon="3.18586">
        <ele>258.79998779297</ele>
        <time>2022-10-29T08:21:46.000Z</time>
      </trkpt>
      <trkpt lat="47.52964" lon="3.18592">
        <ele>259.79998779297</ele>
        <time>2022-10-29T08:21:50.000Z</time>
      </trkpt>
      <trkpt lat="47.52946" lon="3.186">
        <ele>261</ele>
        <time>2022-10-29T08:21:55.000Z</time>
      </trkpt>
      <trkpt lat="47.52943" lon="3.18601">
        <ele>261.20001220703</ele>
        <time>2022-10-29T08:21:56.000Z</time>
      </trkpt>
      <trkpt lat="47.5292" lon="3.1861">
        <ele>262.20001220703</ele>
        <time>2022-10-29T08:22:02.000Z</time>
      </trkpt>
      <trkpt lat="47.52908" lon="3.18614">
        <ele>262.79998779297</ele>
        <time>2022-10-29T08:22:05.000Z</time>
      </trkpt>
      <trkpt lat="47.52897" lon="3.18617">
        <ele>263.39999389648</ele>
        <time>2022-10-29T08:22:08.000Z</time>
      </trkpt>
      <trkpt lat="47.52877" lon="3.18624">
        <ele>264.20001220703</ele>
        <time>2022-10-29T08:22:13.000Z</time>
      </trkpt>
      <trkpt lat="47.52869" lon="3.18626">
        <ele>264.39999389648</ele>
        <time>2022-10-29T08:22:15.000Z</time>
      </trkpt>
      <trkpt lat="47.52862" lon="3.18629">
        <ele>264.39999389648</ele>
        <time>2022-10-29T08:22:17.000Z</time>
      </trkpt>
      <trkpt lat="47.52833" lon="3.1864">
        <ele>265.60000610352</ele>
        <time>2022-10-29T08:22:24.000Z</time>
      </trkpt>
      <trkpt lat="47.5283" lon="3.18641">
        <ele>265.60000610352</ele>
        <time>2022-10-29T08:22:25.000Z</time>
      </trkpt>
      <trkpt lat="47.52821" lon="3.18646">
        <ele>265.79998779297</ele>
        <time>2022-10-29T08:22:27.000Z</time>
      </trkpt>
      <trkpt lat="47.52808" lon="3.18659">
        <ele>266.20001220703</ele>
        <time>2022-10-29T08:22:31.000Z</time>
      </trkpt>
      <trkpt lat="47.528" lon="3.18672">
        <ele>266.60000610352</ele>
        <time>2022-10-29T08:22:34.000Z</time>
      </trkpt>
      <trkpt lat="47.52797" lon="3.18682">
        <ele>267</ele>
        <time>2022-10-29T08:22:36.000Z</time>
      </trkpt>
      <trkpt lat="47.52791" lon="3.18705">
        <ele>267.79998779297</ele>
        <time>2022-10-29T08:22:40.000Z</time>
      </trkpt>
      <trkpt lat="47.52786" lon="3.18737">
        <ele>268.79998779297</ele>
        <time>2022-10-29T08:22:46.000Z</time>
      </trkpt>
      <trkpt lat="47.5278" lon="3.18773">
        <ele>269.79998779297</ele>
        <time>2022-10-29T08:22:53.000Z</time>
      </trkpt>
      <trkpt lat="47.52775" lon="3.18799">
        <ele>270.79998779297</ele>
        <time>2022-10-29T08:22:58.000Z</time>
      </trkpt>
      <trkpt lat="47.52773" lon="3.18812">
        <ele>271.20001220703</ele>
        <time>2022-10-29T08:23:01.000Z</time>
      </trkpt>
      <trkpt lat="47.52769" lon="3.18831">
        <ele>272</ele>
        <time>2022-10-29T08:23:05.000Z</time>
      </trkpt>
      <trkpt lat="47.52768" lon="3.18838">
        <ele>272.39999389648</ele>
        <time>2022-10-29T08:23:07.000Z</time>
      </trkpt>
      <trkpt lat="47.52765" lon="3.18861">
        <ele>273</ele>
        <time>2022-10-29T08:23:12.000Z</time>
      </trkpt>
      <trkpt lat="47.52761" lon="3.18888">
        <ele>274.20001220703</ele>
        <time>2022-10-29T08:23:17.000Z</time>
      </trkpt>
      <trkpt lat="47.5276" lon="3.18894">
        <ele>274.20001220703</ele>
        <time>2022-10-29T08:23:18.000Z</time>
      </trkpt>
      <trkpt lat="47.52756" lon="3.18942">
        <ele>275.20001220703</ele>
        <time>2022-10-29T08:23:26.000Z</time>
      </trkpt>
      <trkpt lat="47.52754" lon="3.18982">
        <ele>276.20001220703</ele>
        <time>2022-10-29T08:23:33.000Z</time>
      </trkpt>
      <trkpt lat="47.52753" lon="3.19009">
        <ele>277.20001220703</ele>
        <time>2022-10-29T08:23:38.000Z</time>
      </trkpt>
      <trkpt lat="47.52752" lon="3.19032">
        <ele>278</ele>
        <time>2022-10-29T08:23:42.000Z</time>
      </trkpt>
      <trkpt lat="47.52752" lon="3.19048">
        <ele>278.60000610352</ele>
        <time>2022-10-29T08:23:45.000Z</time>
      </trkpt>
      <trkpt lat="47.5275" lon="3.19079">
        <ele>279.60000610352</ele>
        <time>2022-10-29T08:23:51.000Z</time>
      </trkpt>
      <trkpt lat="47.52748" lon="3.19116">
        <ele>280.60000610352</ele>
        <time>2022-10-29T08:23:58.000Z</time>
      </trkpt>
      <trkpt lat="47.52748" lon="3.19121">
        <ele>280.79998779297</ele>
        <time>2022-10-29T08:23:59.000Z</time>
      </trkpt>
      <trkpt lat="47.52746" lon="3.19158">
        <ele>281.79998779297</ele>
        <time>2022-10-29T08:24:06.000Z</time>
      </trkpt>
      <trkpt lat="47.52745" lon="3.1917">
        <ele>282</ele>
        <time>2022-10-29T08:24:08.000Z</time>
      </trkpt>
      <trkpt lat="47.52743" lon="3.19203">
        <ele>283</ele>
        <time>2022-10-29T08:24:14.000Z</time>
      </trkpt>
      <trkpt lat="47.52741" lon="3.19225">
        <ele>283.39999389648</ele>
        <time>2022-10-29T08:24:18.000Z</time>
      </trkpt>
      <trkpt lat="47.52735" lon="3.1925">
        <ele>284</ele>
        <time>2022-10-29T08:24:24.000Z</time>
      </trkpt>
      <trkpt lat="47.52734" lon="3.19254">
        <ele>284</ele>
        <time>2022-10-29T08:24:25.000Z</time>
      </trkpt>
      <trkpt lat="47.52723" lon="3.1928">
        <ele>283.79998779297</ele>
        <time>2022-10-29T08:24:32.000Z</time>
      </trkpt>
      <trkpt lat="47.52702" lon="3.19312">
        <ele>283</ele>
        <time>2022-10-29T08:24:41.000Z</time>
      </trkpt>
      <trkpt lat="47.527" lon="3.19315">
        <ele>283</ele>
        <time>2022-10-29T08:24:42.000Z</time>
      </trkpt>
      <trkpt lat="47.52684" lon="3.1934">
        <ele>282</ele>
        <time>2022-10-29T08:24:48.000Z</time>
      </trkpt>
      <trkpt lat="47.5268" lon="3.19345">
        <ele>281.79998779297</ele>
        <time>2022-10-29T08:24:49.000Z</time>
      </trkpt>
      <trkpt lat="47.52667" lon="3.19365">
        <ele>281</ele>
        <time>2022-10-29T08:24:53.000Z</time>
      </trkpt>
      <trkpt lat="47.52664" lon="3.1937">
        <ele>280.60000610352</ele>
        <time>2022-10-29T08:24:54.000Z</time>
      </trkpt>
      <trkpt lat="47.52651" lon="3.1939">
        <ele>279.60000610352</ele>
        <time>2022-10-29T08:24:59.000Z</time>
      </trkpt>
      <trkpt lat="47.52643" lon="3.19403">
        <ele>278.60000610352</ele>
        <time>2022-10-29T08:25:02.000Z</time>
      </trkpt>
      <trkpt lat="47.52636" lon="3.19414">
        <ele>278.20001220703</ele>
        <time>2022-10-29T08:25:04.000Z</time>
      </trkpt>
      <trkpt lat="47.52633" lon="3.19419">
        <ele>278</ele>
        <time>2022-10-29T08:25:05.000Z</time>
      </trkpt>
      <trkpt lat="47.52624" lon="3.19436">
        <ele>277.60000610352</ele>
        <time>2022-10-29T08:25:08.000Z</time>
      </trkpt>
      <trkpt lat="47.52619" lon="3.19446">
        <ele>277.39999389648</ele>
        <time>2022-10-29T08:25:10.000Z</time>
      </trkpt>
      <trkpt lat="47.52599" lon="3.19477">
        <ele>276.79998779297</ele>
        <time>2022-10-29T08:25:16.000Z</time>
      </trkpt>
      <trkpt lat="47.52592" lon="3.19488">
        <ele>276.60000610352</ele>
        <time>2022-10-29T08:25:18.000Z</time>
      </trkpt>
      <trkpt lat="47.52582" lon="3.19504">
        <ele>276.20001220703</ele>
        <time>2022-10-29T08:25:21.000Z</time>
      </trkpt>
      <trkpt lat="47.52575" lon="3.19516">
        <ele>276</ele>
        <time>2022-10-29T08:25:23.000Z</time>
      </trkpt>
      <trkpt lat="47.52565" lon="3.19533">
        <ele>275.60000610352</ele>
        <time>2022-10-29T08:25:26.000Z</time>
      </trkpt>
      <trkpt lat="47.52561" lon="3.19539">
        <ele>275.60000610352</ele>
        <time>2022-10-29T08:25:27.000Z</time>
      </trkpt>
      <trkpt lat="47.52544" lon="3.19556">
        <ele>275</ele>
        <time>2022-10-29T08:25:31.000Z</time>
      </trkpt>
      <trkpt lat="47.52511" lon="3.19581">
        <ele>274</ele>
        <time>2022-10-29T08:25:37.000Z</time>
      </trkpt>
      <trkpt lat="47.52506" lon="3.19584">
        <ele>273.79998779297</ele>
        <time>2022-10-29T08:25:38.000Z</time>
      </trkpt>
      <trkpt lat="47.52473" lon="3.1961">
        <ele>272.39999389648</ele>
        <time>2022-10-29T08:25:43.000Z</time>
      </trkpt>
      <trkpt lat="47.52467" lon="3.19615">
        <ele>272.39999389648</ele>
        <time>2022-10-29T08:25:44.000Z</time>
      </trkpt>
      <trkpt lat="47.52449" lon="3.19629">
        <ele>271.39999389648</ele>
        <time>2022-10-29T08:25:47.000Z</time>
      </trkpt>
      <trkpt lat="47.52428" lon="3.19646">
        <ele>270</ele>
        <time>2022-10-29T08:25:50.000Z</time>
      </trkpt>
      <trkpt lat="47.52417" lon="3.19654">
        <ele>269.39999389648</ele>
        <time>2022-10-29T08:25:52.000Z</time>
      </trkpt>
      <trkpt lat="47.52403" lon="3.19663">
        <ele>269</ele>
        <time>2022-10-29T08:25:54.000Z</time>
      </trkpt>
      <trkpt lat="47.5237" lon="3.1969">
        <ele>268</ele>
        <time>2022-10-29T08:25:59.000Z</time>
      </trkpt>
      <trkpt lat="47.52334" lon="3.19718">
        <ele>267</ele>
        <time>2022-10-29T08:26:04.000Z</time>
      </trkpt>
      <trkpt lat="47.52315" lon="3.19734">
        <ele>266</ele>
        <time>2022-10-29T08:26:07.000Z</time>
      </trkpt>
      <trkpt lat="47.52307" lon="3.1974">
        <ele>265.79998779297</ele>
        <time>2022-10-29T08:26:08.000Z</time>
      </trkpt>
      <trkpt lat="47.52271" lon="3.19767">
        <ele>264.60000610352</ele>
        <time>2022-10-29T08:26:14.000Z</time>
      </trkpt>
      <trkpt lat="47.52238" lon="3.19804">
        <ele>264</ele>
        <time>2022-10-29T08:26:20.000Z</time>
      </trkpt>
      <trkpt lat="47.52213" lon="3.19853">
        <ele>263.79998779297</ele>
        <time>2022-10-29T08:26:26.000Z</time>
      </trkpt>
      <trkpt lat="47.52181" lon="3.19918">
        <ele>263.60000610352</ele>
        <time>2022-10-29T08:26:34.000Z</time>
      </trkpt>
      <trkpt lat="47.52177" lon="3.19925">
        <ele>263.39999389648</ele>
        <time>2022-10-29T08:26:35.000Z</time>
      </trkpt>
      <trkpt lat="47.5216" lon="3.19951">
        <ele>263.20001220703</ele>
        <time>2022-10-29T08:26:39.000Z</time>
      </trkpt>
      <trkpt lat="47.52156" lon="3.19957">
        <ele>263.20001220703</ele>
        <time>2022-10-29T08:26:40.000Z</time>
      </trkpt>
      <trkpt lat="47.52128" lon="3.19995">
        <ele>262.79998779297</ele>
        <time>2022-10-29T08:26:46.000Z</time>
      </trkpt>
      <trkpt lat="47.52114" lon="3.20012">
        <ele>262.60000610352</ele>
        <time>2022-10-29T08:26:49.000Z</time>
      </trkpt>
      <trkpt lat="47.52091" lon="3.20032">
        <ele>261.60000610352</ele>
        <time>2022-10-29T08:26:53.000Z</time>
      </trkpt>
      <trkpt lat="47.52078" lon="3.20042">
        <ele>261.39999389648</ele>
        <time>2022-10-29T08:26:55.000Z</time>
      </trkpt>
      <trkpt lat="47.52044" lon="3.20063">
        <ele>261.20001220703</ele>
        <time>2022-10-29T08:27:01.000Z</time>
      </trkpt>
      <trkpt lat="47.5201" lon="3.20083">
        <ele>261.39999389648</ele>
        <time>2022-10-29T08:27:08.000Z</time>
      </trkpt>
      <trkpt lat="47.51987" lon="3.20101">
        <ele>261.60000610352</ele>
        <time>2022-10-29T08:27:13.000Z</time>
      </trkpt>
      <trkpt lat="47.5198" lon="3.20109">
        <ele>262</ele>
        <time>2022-10-29T08:27:15.000Z</time>
      </trkpt>
      <trkpt lat="47.51973" lon="3.20116">
        <ele>262.60000610352</ele>
        <time>2022-10-29T08:27:17.000Z</time>
      </trkpt>
      <trkpt lat="47.51961" lon="3.20133">
        <ele>263.39999389648</ele>
        <time>2022-10-29T08:27:21.000Z</time>
      </trkpt>
      <trkpt lat="47.51952" lon="3.20146">
        <ele>263.79998779297</ele>
        <time>2022-10-29T08:27:24.000Z</time>
      </trkpt>
      <trkpt lat="47.51943" lon="3.20159">
        <ele>264</ele>
        <time>2022-10-29T08:27:27.000Z</time>
      </trkpt>
      <trkpt lat="47.51925" lon="3.20187">
        <ele>264.79998779297</ele>
        <time>2022-10-29T08:27:33.000Z</time>
      </trkpt>
      <trkpt lat="47.51916" lon="3.20202">
        <ele>265.20001220703</ele>
        <time>2022-10-29T08:27:36.000Z</time>
      </trkpt>
      <trkpt lat="47.51913" lon="3.20207">
        <ele>265.20001220703</ele>
        <time>2022-10-29T08:27:37.000Z</time>
      </trkpt>
      <trkpt lat="47.51899" lon="3.20234">
        <ele>265.39999389648</ele>
        <time>2022-10-29T08:27:42.000Z</time>
      </trkpt>
      <trkpt lat="47.51896" lon="3.2024">
        <ele>265.39999389648</ele>
        <time>2022-10-29T08:27:43.000Z</time>
      </trkpt>
      <trkpt lat="47.51873" lon="3.20306">
        <ele>265.20001220703</ele>
        <time>2022-10-29T08:27:53.000Z</time>
      </trkpt>
      <trkpt lat="47.51856" lon="3.20361">
        <ele>265</ele>
        <time>2022-10-29T08:28:00.000Z</time>
      </trkpt>
      <trkpt lat="47.51833" lon="3.20433">
        <ele>264</ele>
        <time>2022-10-29T08:28:09.000Z</time>
      </trkpt>
      <trkpt lat="47.51826" lon="3.20458">
        <ele>263.60000610352</ele>
        <time>2022-10-29T08:28:12.000Z</time>
      </trkpt>
      <trkpt lat="47.51813" lon="3.20501">
        <ele>262.79998779297</ele>
        <time>2022-10-29T08:28:17.000Z</time>
      </trkpt>
      <trkpt lat="47.51807" lon="3.2052">
        <ele>262.39999389648</ele>
        <time>2022-10-29T08:28:19.000Z</time>
      </trkpt>
      <trkpt lat="47.51785" lon="3.20593">
        <ele>261.39999389648</ele>
        <time>2022-10-29T08:28:27.000Z</time>
      </trkpt>
      <trkpt lat="47.51765" lon="3.20661">
        <ele>260.39999389648</ele>
        <time>2022-10-29T08:28:35.000Z</time>
      </trkpt>
      <trkpt lat="47.51759" lon="3.2068">
        <ele>260</ele>
        <time>2022-10-29T08:28:37.000Z</time>
      </trkpt>
      <trkpt lat="47.51744" lon="3.20729">
        <ele>259.79998779297</ele>
        <time>2022-10-29T08:28:43.000Z</time>
      </trkpt>
      <trkpt lat="47.51727" lon="3.20784">
        <ele>259.39999389648</ele>
        <time>2022-10-29T08:28:50.000Z</time>
      </trkpt>
      <trkpt lat="47.51721" lon="3.20803">
        <ele>259.20001220703</ele>
        <time>2022-10-29T08:28:52.000Z</time>
      </trkpt>
      <trkpt lat="47.51706" lon="3.20853">
        <ele>258.79998779297</ele>
        <time>2022-10-29T08:28:58.000Z</time>
      </trkpt>
      <trkpt lat="47.51681" lon="3.20924">
        <ele>258.20001220703</ele>
        <time>2022-10-29T08:29:07.000Z</time>
      </trkpt>
      <trkpt lat="47.51678" lon="3.20932">
        <ele>258.20001220703</ele>
        <time>2022-10-29T08:29:08.000Z</time>
      </trkpt>
      <trkpt lat="47.51663" lon="3.2096">
        <ele>257</ele>
        <time>2022-10-29T08:29:12.000Z</time>
      </trkpt>
      <trkpt lat="47.51649" lon="3.20981">
        <ele>256.79998779297</ele>
        <time>2022-10-29T08:29:15.000Z</time>
      </trkpt>
      <trkpt lat="47.51623" lon="3.21019">
        <ele>256</ele>
        <time>2022-10-29T08:29:21.000Z</time>
      </trkpt>
      <trkpt lat="47.51608" lon="3.21039">
        <ele>255.60000610352</ele>
        <time>2022-10-29T08:29:24.000Z</time>
      </trkpt>
      <trkpt lat="47.51592" lon="3.21059">
        <ele>255</ele>
        <time>2022-10-29T08:29:27.000Z</time>
      </trkpt>
      <trkpt lat="47.51564" lon="3.21098">
        <ele>253.80000305176</ele>
        <time>2022-10-29T08:29:33.000Z</time>
      </trkpt>
      <trkpt lat="47.51529" lon="3.21154">
        <ele>253.60000610352</ele>
        <time>2022-10-29T08:29:41.000Z</time>
      </trkpt>
      <trkpt lat="47.51502" lon="3.21203">
        <ele>254</ele>
        <time>2022-10-29T08:29:49.000Z</time>
      </trkpt>
      <trkpt lat="47.51484" lon="3.21235">
        <ele>254.80000305176</ele>
        <time>2022-10-29T08:29:55.000Z</time>
      </trkpt>
      <trkpt lat="47.51477" lon="3.21248">
        <ele>255</ele>
        <time>2022-10-29T08:29:57.000Z</time>
      </trkpt>
      <trkpt lat="47.51472" lon="3.21256">
        <ele>255</ele>
        <time>2022-10-29T08:29:58.000Z</time>
      </trkpt>
      <trkpt lat="47.51466" lon="3.21267">
        <ele>255</ele>
        <time>2022-10-29T08:30:00.000Z</time>
      </trkpt>
      <trkpt lat="47.51458" lon="3.2128">
        <ele>255</ele>
        <time>2022-10-29T08:30:02.000Z</time>
      </trkpt>
      <trkpt lat="47.51439" lon="3.21312">
        <ele>254.39999389648</ele>
        <time>2022-10-29T08:30:08.000Z</time>
      </trkpt>
      <trkpt lat="47.51437" lon="3.21318">
        <ele>254.19999694824</ele>
        <time>2022-10-29T08:30:09.000Z</time>
      </trkpt>
      <trkpt lat="47.51435" lon="3.21324">
        <ele>254.19999694824</ele>
        <time>2022-10-29T08:30:10.000Z</time>
      </trkpt>
      <trkpt lat="47.51434" lon="3.21338">
        <ele>254.19999694824</ele>
        <time>2022-10-29T08:30:12.000Z</time>
      </trkpt>
      <trkpt lat="47.51435" lon="3.21345">
        <ele>254.19999694824</ele>
        <time>2022-10-29T08:30:13.000Z</time>
      </trkpt>
      <trkpt lat="47.51435" lon="3.21362">
        <ele>254</ele>
        <time>2022-10-29T08:30:16.000Z</time>
      </trkpt>
      <trkpt lat="47.51432" lon="3.21367">
        <ele>254</ele>
        <time>2022-10-29T08:30:17.000Z</time>
      </trkpt>
      <trkpt lat="47.51425" lon="3.21376">
        <ele>254</ele>
        <time>2022-10-29T08:30:19.000Z</time>
      </trkpt>
      <trkpt lat="47.51421" lon="3.21381">
        <ele>254</ele>
        <time>2022-10-29T08:30:20.000Z</time>
      </trkpt>
      <trkpt lat="47.51403" lon="3.21392">
        <ele>254.19999694824</ele>
        <time>2022-10-29T08:30:24.000Z</time>
      </trkpt>
      <trkpt lat="47.51393" lon="3.21399">
        <ele>254</ele>
        <time>2022-10-29T08:30:26.000Z</time>
      </trkpt>
      <trkpt lat="47.51373" lon="3.21416">
        <ele>254.19999694824</ele>
        <time>2022-10-29T08:30:31.000Z</time>
      </trkpt>
      <trkpt lat="47.51369" lon="3.21419">
        <ele>254.19999694824</ele>
        <time>2022-10-29T08:30:32.000Z</time>
      </trkpt>
      <trkpt lat="47.51334" lon="3.21451">
        <ele>255</ele>
        <time>2022-10-29T08:30:40.000Z</time>
      </trkpt>
      <trkpt lat="47.51315" lon="3.2147">
        <ele>255.60000610352</ele>
        <time>2022-10-29T08:30:45.000Z</time>
      </trkpt>
      <trkpt lat="47.51307" lon="3.21479">
        <ele>255.80000305176</ele>
        <time>2022-10-29T08:30:47.000Z</time>
      </trkpt>
      <trkpt lat="47.51273" lon="3.21516">
        <ele>256.60000610352</ele>
        <time>2022-10-29T08:30:56.000Z</time>
      </trkpt>
      <trkpt lat="47.51269" lon="3.2152">
        <ele>256.79998779297</ele>
        <time>2022-10-29T08:30:57.000Z</time>
      </trkpt>
      <trkpt lat="47.51264" lon="3.21525">
        <ele>256.79998779297</ele>
        <time>2022-10-29T08:30:58.000Z</time>
      </trkpt>
      <trkpt lat="47.51257" lon="3.21532">
        <ele>257</ele>
        <time>2022-10-29T08:31:00.000Z</time>
      </trkpt>
      <trkpt lat="47.51254" lon="3.21536">
        <ele>257.20001220703</ele>
        <time>2022-10-29T08:31:01.000Z</time>
      </trkpt>
      <trkpt lat="47.51239" lon="3.21551">
        <ele>257.60000610352</ele>
        <time>2022-10-29T08:31:05.000Z</time>
      </trkpt>
      <trkpt lat="47.51223" lon="3.21566">
        <ele>257.79998779297</ele>
        <time>2022-10-29T08:31:09.000Z</time>
      </trkpt>
      <trkpt lat="47.5122" lon="3.21568">
        <ele>258</ele>
        <time>2022-10-29T08:31:10.000Z</time>
      </trkpt>
      <trkpt lat="47.51204" lon="3.2158">
        <ele>258.20001220703</ele>
        <time>2022-10-29T08:31:14.000Z</time>
      </trkpt>
      <trkpt lat="47.51191" lon="3.21587">
        <ele>258.39999389648</ele>
        <time>2022-10-29T08:31:17.000Z</time>
      </trkpt>
      <trkpt lat="47.51161" lon="3.21608">
        <ele>259</ele>
        <time>2022-10-29T08:31:24.000Z</time>
      </trkpt>
      <trkpt lat="47.51157" lon="3.21611">
        <ele>259</ele>
        <time>2022-10-29T08:31:25.000Z</time>
      </trkpt>
      <trkpt lat="47.51124" lon="3.21638">
        <ele>258.79998779297</ele>
        <time>2022-10-29T08:31:32.000Z</time>
      </trkpt>
      <trkpt lat="47.51088" lon="3.21674">
        <ele>258.60000610352</ele>
        <time>2022-10-29T08:31:40.000Z</time>
      </trkpt>
      <trkpt lat="47.51042" lon="3.2172">
        <ele>258</ele>
        <time>2022-10-29T08:31:50.000Z</time>
      </trkpt>
      <trkpt lat="47.51036" lon="3.21726">
        <ele>258</ele>
        <time>2022-10-29T08:31:51.000Z</time>
      </trkpt>
      <trkpt lat="47.51028" lon="3.21735">
        <ele>257.79998779297</ele>
        <time>2022-10-29T08:31:53.000Z</time>
      </trkpt>
      <trkpt lat="47.50994" lon="3.21769">
        <ele>257.39999389648</ele>
        <time>2022-10-29T08:32:00.000Z</time>
      </trkpt>
      <trkpt lat="47.50949" lon="3.21814">
        <ele>257</ele>
        <time>2022-10-29T08:32:09.000Z</time>
      </trkpt>
      <trkpt lat="47.50904" lon="3.21858">
        <ele>256.79998779297</ele>
        <time>2022-10-29T08:32:18.000Z</time>
      </trkpt>
      <trkpt lat="47.50899" lon="3.21864">
        <ele>256.79998779297</ele>
        <time>2022-10-29T08:32:19.000Z</time>
      </trkpt>
      <trkpt lat="47.50889" lon="3.21875">
        <ele>256.60000610352</ele>
        <time>2022-10-29T08:32:21.000Z</time>
      </trkpt>
      <trkpt lat="47.5086" lon="3.21901">
        <ele>255.60000610352</ele>
        <time>2022-10-29T08:32:26.000Z</time>
      </trkpt>
      <trkpt lat="47.50836" lon="3.21924">
        <ele>254.39999389648</ele>
        <time>2022-10-29T08:32:30.000Z</time>
      </trkpt>
      <trkpt lat="47.50804" lon="3.21952">
        <ele>253.39999389648</ele>
        <time>2022-10-29T08:32:35.000Z</time>
      </trkpt>
      <trkpt lat="47.50792" lon="3.21964">
        <ele>253</ele>
        <time>2022-10-29T08:32:37.000Z</time>
      </trkpt>
      <trkpt lat="47.50773" lon="3.21982">
        <ele>252.19999694824</ele>
        <time>2022-10-29T08:32:40.000Z</time>
      </trkpt>
      <trkpt lat="47.50742" lon="3.22012">
        <ele>251.19999694824</ele>
        <time>2022-10-29T08:32:45.000Z</time>
      </trkpt>
      <trkpt lat="47.50735" lon="3.22018">
        <ele>251</ele>
        <time>2022-10-29T08:32:46.000Z</time>
      </trkpt>
      <trkpt lat="47.50697" lon="3.22052">
        <ele>249.80000305176</ele>
        <time>2022-10-29T08:32:52.000Z</time>
      </trkpt>
      <trkpt lat="47.50691" lon="3.22059">
        <ele>249.60000610352</ele>
        <time>2022-10-29T08:32:53.000Z</time>
      </trkpt>
      <trkpt lat="47.50652" lon="3.22109">
        <ele>248.80000305176</ele>
        <time>2022-10-29T08:33:00.000Z</time>
      </trkpt>
      <trkpt lat="47.50625" lon="3.22159">
        <ele>248</ele>
        <time>2022-10-29T08:33:06.000Z</time>
      </trkpt>
      <trkpt lat="47.50618" lon="3.22177">
        <ele>247.60000610352</ele>
        <time>2022-10-29T08:33:08.000Z</time>
      </trkpt>
      <trkpt lat="47.50607" lon="3.22216">
        <ele>247</ele>
        <time>2022-10-29T08:33:12.000Z</time>
      </trkpt>
      <trkpt lat="47.50592" lon="3.22285">
        <ele>246.60000610352</ele>
        <time>2022-10-29T08:33:19.000Z</time>
      </trkpt>
      <trkpt lat="47.50587" lon="3.22301">
        <ele>246.39999389648</ele>
        <time>2022-10-29T08:33:21.000Z</time>
      </trkpt>
      <trkpt lat="47.50565" lon="3.22348">
        <ele>246</ele>
        <time>2022-10-29T08:33:27.000Z</time>
      </trkpt>
      <trkpt lat="47.50535" lon="3.22396">
        <ele>245.80000305176</ele>
        <time>2022-10-29T08:33:34.000Z</time>
      </trkpt>
      <trkpt lat="47.5053" lon="3.22402">
        <ele>245.80000305176</ele>
        <time>2022-10-29T08:33:35.000Z</time>
      </trkpt>
      <trkpt lat="47.50492" lon="3.22459">
        <ele>245.60000610352</ele>
        <time>2022-10-29T08:33:44.000Z</time>
      </trkpt>
      <trkpt lat="47.50488" lon="3.22465">
        <ele>245.60000610352</ele>
        <time>2022-10-29T08:33:45.000Z</time>
      </trkpt>
      <trkpt lat="47.50462" lon="3.22505">
        <ele>245.60000610352</ele>
        <time>2022-10-29T08:33:51.000Z</time>
      </trkpt>
      <trkpt lat="47.50445" lon="3.22531">
        <ele>245.39999389648</ele>
        <time>2022-10-29T08:33:55.000Z</time>
      </trkpt>
      <trkpt lat="47.50423" lon="3.22563">
        <ele>245.39999389648</ele>
        <time>2022-10-29T08:34:00.000Z</time>
      </trkpt>
      <trkpt lat="47.50408" lon="3.2258">
        <ele>245.39999389648</ele>
        <time>2022-10-29T08:34:03.000Z</time>
      </trkpt>
      <trkpt lat="47.5037" lon="3.2261">
        <ele>245.19999694824</ele>
        <time>2022-10-29T08:34:10.000Z</time>
      </trkpt>
      <trkpt lat="47.50328" lon="3.22634">
        <ele>245.19999694824</ele>
        <time>2022-10-29T08:34:17.000Z</time>
      </trkpt>
      <trkpt lat="47.50277" lon="3.22663">
        <ele>245.60000610352</ele>
        <time>2022-10-29T08:34:26.000Z</time>
      </trkpt>
      <trkpt lat="47.50271" lon="3.22666">
        <ele>245.60000610352</ele>
        <time>2022-10-29T08:34:27.000Z</time>
      </trkpt>
      <trkpt lat="47.50226" lon="3.22692">
        <ele>245.60000610352</ele>
        <time>2022-10-29T08:34:35.000Z</time>
      </trkpt>
      <trkpt lat="47.50175" lon="3.2272">
        <ele>245.60000610352</ele>
        <time>2022-10-29T08:34:44.000Z</time>
      </trkpt>
      <trkpt lat="47.5017" lon="3.22723">
        <ele>245.60000610352</ele>
        <time>2022-10-29T08:34:45.000Z</time>
      </trkpt>
      <trkpt lat="47.50117" lon="3.22749">
        <ele>245.80000305176</ele>
        <time>2022-10-29T08:34:54.000Z</time>
      </trkpt>
      <trkpt lat="47.50111" lon="3.22751">
        <ele>245.80000305176</ele>
        <time>2022-10-29T08:34:55.000Z</time>
      </trkpt>
      <trkpt lat="47.50062" lon="3.2277">
        <ele>246.19999694824</ele>
        <time>2022-10-29T08:35:04.000Z</time>
      </trkpt>
      <trkpt lat="47.50046" lon="3.22776">
        <ele>246.19999694824</ele>
        <time>2022-10-29T08:35:07.000Z</time>
      </trkpt>
      <trkpt lat="47.50032" lon="3.22782">
        <ele>246.39999389648</ele>
        <time>2022-10-29T08:35:10.000Z</time>
      </trkpt>
      <trkpt lat="47.50027" lon="3.22783">
        <ele>246.60000610352</ele>
        <time>2022-10-29T08:35:11.000Z</time>
      </trkpt>
      <trkpt lat="47.4999" lon="3.22797">
        <ele>247.19999694824</ele>
        <time>2022-10-29T08:35:18.000Z</time>
      </trkpt>
      <trkpt lat="47.4996" lon="3.22809">
        <ele>247.60000610352</ele>
        <time>2022-10-29T08:35:24.000Z</time>
      </trkpt>
      <trkpt lat="47.49943" lon="3.22818">
        <ele>247.80000305176</ele>
        <time>2022-10-29T08:35:27.000Z</time>
      </trkpt>
      <trkpt lat="47.49921" lon="3.22835">
        <ele>248</ele>
        <time>2022-10-29T08:35:31.000Z</time>
      </trkpt>
      <trkpt lat="47.49889" lon="3.22865">
        <ele>248</ele>
        <time>2022-10-29T08:35:37.000Z</time>
      </trkpt>
      <trkpt lat="47.49885" lon="3.22868">
        <ele>248</ele>
        <time>2022-10-29T08:35:38.000Z</time>
      </trkpt>
      <trkpt lat="47.49849" lon="3.229">
        <ele>248</ele>
        <time>2022-10-29T08:35:45.000Z</time>
      </trkpt>
      <trkpt lat="47.49813" lon="3.22922">
        <ele>248.19999694824</ele>
        <time>2022-10-29T08:35:52.000Z</time>
      </trkpt>
      <trkpt lat="47.49769" lon="3.22946">
        <ele>247.60000610352</ele>
        <time>2022-10-29T08:36:01.000Z</time>
      </trkpt>
      <trkpt lat="47.49738" lon="3.22964">
        <ele>247.39999389648</ele>
        <time>2022-10-29T08:36:07.000Z</time>
      </trkpt>
      <trkpt lat="47.49716" lon="3.22979">
        <ele>247.39999389648</ele>
        <time>2022-10-29T08:36:11.000Z</time>
      </trkpt>
      <trkpt lat="47.49705" lon="3.22986">
        <ele>247.19999694824</ele>
        <time>2022-10-29T08:36:13.000Z</time>
      </trkpt>
      <trkpt lat="47.49683" lon="3.23002">
        <ele>246.80000305176</ele>
        <time>2022-10-29T08:36:17.000Z</time>
      </trkpt>
      <trkpt lat="47.49659" lon="3.2302">
        <ele>246.39999389648</ele>
        <time>2022-10-29T08:36:21.000Z</time>
      </trkpt>
      <trkpt lat="47.49612" lon="3.2306">
        <ele>245.80000305176</ele>
        <time>2022-10-29T08:36:29.000Z</time>
      </trkpt>
      <trkpt lat="47.49601" lon="3.23069">
        <ele>245.39999389648</ele>
        <time>2022-10-29T08:36:31.000Z</time>
      </trkpt>
      <trkpt lat="47.49557" lon="3.23108">
        <ele>244.19999694824</ele>
        <time>2022-10-29T08:36:38.000Z</time>
      </trkpt>
      <trkpt lat="47.49523" lon="3.23137">
        <ele>243.19999694824</ele>
        <time>2022-10-29T08:36:43.000Z</time>
      </trkpt>
      <trkpt lat="47.49503" lon="3.23155">
        <ele>242.19999694824</ele>
        <time>2022-10-29T08:36:46.000Z</time>
      </trkpt>
      <trkpt lat="47.49496" lon="3.23161">
        <ele>241.60000610352</ele>
        <time>2022-10-29T08:36:47.000Z</time>
      </trkpt>
      <trkpt lat="47.49483" lon="3.23172">
        <ele>241</ele>
        <time>2022-10-29T08:36:49.000Z</time>
      </trkpt>
      <trkpt lat="47.49445" lon="3.23205">
        <ele>240</ele>
        <time>2022-10-29T08:36:55.000Z</time>
      </trkpt>
      <trkpt lat="47.49433" lon="3.23217">
        <ele>240</ele>
        <time>2022-10-29T08:36:57.000Z</time>
      </trkpt>
      <trkpt lat="47.49397" lon="3.2326">
        <ele>239.39999389648</ele>
        <time>2022-10-29T08:37:04.000Z</time>
      </trkpt>
      <trkpt lat="47.49383" lon="3.23279">
        <ele>239.60000610352</ele>
        <time>2022-10-29T08:37:07.000Z</time>
      </trkpt>
      <trkpt lat="47.49375" lon="3.23289">
        <ele>239.60000610352</ele>
        <time>2022-10-29T08:37:09.000Z</time>
      </trkpt>
      <trkpt lat="47.49344" lon="3.23323">
        <ele>241</ele>
        <time>2022-10-29T08:37:16.000Z</time>
      </trkpt>
      <trkpt lat="47.49334" lon="3.2333">
        <ele>241.19999694824</ele>
        <time>2022-10-29T08:37:18.000Z</time>
      </trkpt>
      <trkpt lat="47.49303" lon="3.23348">
        <ele>242</ele>
        <time>2022-10-29T08:37:24.000Z</time>
      </trkpt>
      <trkpt lat="47.49265" lon="3.23369">
        <ele>242.19999694824</ele>
        <time>2022-10-29T08:37:31.000Z</time>
      </trkpt>
      <trkpt lat="47.49228" lon="3.23383">
        <ele>242.19999694824</ele>
        <time>2022-10-29T08:37:38.000Z</time>
      </trkpt>
      <trkpt lat="47.49182" lon="3.23394">
        <ele>243</ele>
        <time>2022-10-29T08:37:47.000Z</time>
      </trkpt>
      <trkpt lat="47.49168" lon="3.23397">
        <ele>243.39999389648</ele>
        <time>2022-10-29T08:37:50.000Z</time>
      </trkpt>
      <trkpt lat="47.49157" lon="3.23399">
        <ele>243.60000610352</ele>
        <time>2022-10-29T08:37:52.000Z</time>
      </trkpt>
      <trkpt lat="47.49145" lon="3.23401">
        <ele>244</ele>
        <time>2022-10-29T08:37:55.000Z</time>
      </trkpt>
      <trkpt lat="47.49132" lon="3.23404">
        <ele>244.39999389648</ele>
        <time>2022-10-29T08:37:58.000Z</time>
      </trkpt>
      <trkpt lat="47.49094" lon="3.23414">
        <ele>245.39999389648</ele>
        <time>2022-10-29T08:38:06.000Z</time>
      </trkpt>
      <trkpt lat="47.49089" lon="3.23417">
        <ele>245.60000610352</ele>
        <time>2022-10-29T08:38:07.000Z</time>
      </trkpt>
      <trkpt lat="47.49066" lon="3.23431">
        <ele>245.80000305176</ele>
        <time>2022-10-29T08:38:12.000Z</time>
      </trkpt>
      <trkpt lat="47.49053" lon="3.23442">
        <ele>246</ele>
        <time>2022-10-29T08:38:15.000Z</time>
      </trkpt>
      <trkpt lat="47.49021" lon="3.2347">
        <ele>246</ele>
        <time>2022-10-29T08:38:22.000Z</time>
      </trkpt>
      <trkpt lat="47.48985" lon="3.235">
        <ele>245.39999389648</ele>
        <time>2022-10-29T08:38:29.000Z</time>
      </trkpt>
      <trkpt lat="47.48956" lon="3.23523">
        <ele>244.39999389648</ele>
        <time>2022-10-29T08:38:34.000Z</time>
      </trkpt>
      <trkpt lat="47.48944" lon="3.23532">
        <ele>243.80000305176</ele>
        <time>2022-10-29T08:38:36.000Z</time>
      </trkpt>
      <trkpt lat="47.48926" lon="3.23546">
        <ele>243</ele>
        <time>2022-10-29T08:38:39.000Z</time>
      </trkpt>
      <trkpt lat="47.48895" lon="3.23569">
        <ele>241.80000305176</ele>
        <time>2022-10-29T08:38:44.000Z</time>
      </trkpt>
      <trkpt lat="47.48861" lon="3.23593">
        <ele>240.39999389648</ele>
        <time>2022-10-29T08:38:49.000Z</time>
      </trkpt>
      <trkpt lat="47.48847" lon="3.23603">
        <ele>239.80000305176</ele>
        <time>2022-10-29T08:38:51.000Z</time>
      </trkpt>
      <trkpt lat="47.48834" lon="3.23613">
        <ele>239.39999389648</ele>
        <time>2022-10-29T08:38:53.000Z</time>
      </trkpt>
      <trkpt lat="47.48802" lon="3.23636">
        <ele>239.19999694824</ele>
        <time>2022-10-29T08:38:58.000Z</time>
      </trkpt>
      <trkpt lat="47.48754" lon="3.23667">
        <ele>238.80000305176</ele>
        <time>2022-10-29T08:39:06.000Z</time>
      </trkpt>
      <trkpt lat="47.48718" lon="3.23697">
        <ele>238.80000305176</ele>
        <time>2022-10-29T08:39:13.000Z</time>
      </trkpt>
      <trkpt lat="47.48709" lon="3.23708">
        <ele>239</ele>
        <time>2022-10-29T08:39:15.000Z</time>
      </trkpt>
      <trkpt lat="47.48698" lon="3.23724">
        <ele>239.39999389648</ele>
        <time>2022-10-29T08:39:18.000Z</time>
      </trkpt>
      <trkpt lat="47.48673" lon="3.23758">
        <ele>240.39999389648</ele>
        <time>2022-10-29T08:39:25.000Z</time>
      </trkpt>
      <trkpt lat="47.48655" lon="3.2378">
        <ele>241.60000610352</ele>
        <time>2022-10-29T08:39:30.000Z</time>
      </trkpt>
      <trkpt lat="47.48644" lon="3.23793">
        <ele>242.60000610352</ele>
        <time>2022-10-29T08:39:33.000Z</time>
      </trkpt>
      <trkpt lat="47.4864" lon="3.23796">
        <ele>242.60000610352</ele>
        <time>2022-10-29T08:39:34.000Z</time>
      </trkpt>
      <trkpt lat="47.48622" lon="3.23816">
        <ele>243.80000305176</ele>
        <time>2022-10-29T08:39:39.000Z</time>
      </trkpt>
      <trkpt lat="47.48618" lon="3.2382">
        <ele>244.19999694824</ele>
        <time>2022-10-29T08:39:40.000Z</time>
      </trkpt>
      <trkpt lat="47.48595" lon="3.23846">
        <ele>245</ele>
        <time>2022-10-29T08:39:47.000Z</time>
      </trkpt>
      <trkpt lat="47.48592" lon="3.2385">
        <ele>245</ele>
        <time>2022-10-29T08:39:48.000Z</time>
      </trkpt>
      <trkpt lat="47.48578" lon="3.23868">
        <ele>245.19999694824</ele>
        <time>2022-10-29T08:39:53.000Z</time>
      </trkpt>
      <trkpt lat="47.48564" lon="3.23887">
        <ele>244.80000305176</ele>
        <time>2022-10-29T08:39:57.000Z</time>
      </trkpt>
      <trkpt lat="47.4856" lon="3.23892">
        <ele>244.80000305176</ele>
        <time>2022-10-29T08:39:58.000Z</time>
      </trkpt>
      <trkpt lat="47.48542" lon="3.23916">
        <ele>244</ele>
        <time>2022-10-29T08:40:02.000Z</time>
      </trkpt>
      <trkpt lat="47.48532" lon="3.23926">
        <ele>243.80000305176</ele>
        <time>2022-10-29T08:40:04.000Z</time>
      </trkpt>
      <trkpt lat="47.48508" lon="3.23946">
        <ele>243.19999694824</ele>
        <time>2022-10-29T08:40:08.000Z</time>
      </trkpt>
      <trkpt lat="47.48479" lon="3.23972">
        <ele>242.60000610352</ele>
        <time>2022-10-29T08:40:13.000Z</time>
      </trkpt>
      <trkpt lat="47.48473" lon="3.23978">
        <ele>242.60000610352</ele>
        <time>2022-10-29T08:40:14.000Z</time>
      </trkpt>
      <trkpt lat="47.48432" lon="3.24025">
        <ele>242.19999694824</ele>
        <time>2022-10-29T08:40:22.000Z</time>
      </trkpt>
      <trkpt lat="47.48412" lon="3.24043">
        <ele>242.19999694824</ele>
        <time>2022-10-29T08:40:26.000Z</time>
      </trkpt>
      <trkpt lat="47.48407" lon="3.24046">
        <ele>242.19999694824</ele>
        <time>2022-10-29T08:40:27.000Z</time>
      </trkpt>
      <trkpt lat="47.48397" lon="3.24051">
        <ele>242.19999694824</ele>
        <time>2022-10-29T08:40:29.000Z</time>
      </trkpt>
      <trkpt lat="47.48381" lon="3.24054">
        <ele>242.39999389648</ele>
        <time>2022-10-29T08:40:32.000Z</time>
      </trkpt>
      <trkpt lat="47.48343" lon="3.24059">
        <ele>243.80000305176</ele>
        <time>2022-10-29T08:40:40.000Z</time>
      </trkpt>
      <trkpt lat="47.48315" lon="3.24069">
        <ele>244.80000305176</ele>
        <time>2022-10-29T08:40:46.000Z</time>
      </trkpt>
      <trkpt lat="47.48311" lon="3.24071">
        <ele>245</ele>
        <time>2022-10-29T08:40:47.000Z</time>
      </trkpt>
      <trkpt lat="47.4828" lon="3.24088">
        <ele>246.19999694824</ele>
        <time>2022-10-29T08:40:54.000Z</time>
      </trkpt>
      <trkpt lat="47.48276" lon="3.2409">
        <ele>246.39999389648</ele>
        <time>2022-10-29T08:40:55.000Z</time>
      </trkpt>
      <trkpt lat="47.48272" lon="3.24092">
        <ele>246.80000305176</ele>
        <time>2022-10-29T08:40:56.000Z</time>
      </trkpt>
      <trkpt lat="47.48267" lon="3.24094">
        <ele>246.80000305176</ele>
        <time>2022-10-29T08:40:57.000Z</time>
      </trkpt>
      <trkpt lat="47.48244" lon="3.24098">
        <ele>247</ele>
        <time>2022-10-29T08:41:02.000Z</time>
      </trkpt>
      <trkpt lat="47.48211" lon="3.24104">
        <ele>246.60000610352</ele>
        <time>2022-10-29T08:41:08.000Z</time>
      </trkpt>
      <trkpt lat="47.48174" lon="3.24116">
        <ele>246</ele>
        <time>2022-10-29T08:41:14.000Z</time>
      </trkpt>
      <trkpt lat="47.48168" lon="3.2412">
        <ele>245.80000305176</ele>
        <time>2022-10-29T08:41:15.000Z</time>
      </trkpt>
      <trkpt lat="47.48162" lon="3.24124">
        <ele>245.60000610352</ele>
        <time>2022-10-29T08:41:16.000Z</time>
      </trkpt>
      <trkpt lat="47.4815" lon="3.24136">
        <ele>245.19999694824</ele>
        <time>2022-10-29T08:41:18.000Z</time>
      </trkpt>
      <trkpt lat="47.48139" lon="3.24148">
        <ele>244.80000305176</ele>
        <time>2022-10-29T08:41:20.000Z</time>
      </trkpt>
      <trkpt lat="47.4811" lon="3.24181">
        <ele>244</ele>
        <time>2022-10-29T08:41:25.000Z</time>
      </trkpt>
      <trkpt lat="47.48093" lon="3.242">
        <ele>243.19999694824</ele>
        <time>2022-10-29T08:41:28.000Z</time>
      </trkpt>
      <trkpt lat="47.48077" lon="3.24218">
        <ele>242.80000305176</ele>
        <time>2022-10-29T08:41:31.000Z</time>
      </trkpt>
      <trkpt lat="47.4805" lon="3.24245">
        <ele>242.60000610352</ele>
        <time>2022-10-29T08:41:36.000Z</time>
      </trkpt>
      <trkpt lat="47.48006" lon="3.2429">
        <ele>243.19999694824</ele>
        <time>2022-10-29T08:41:45.000Z</time>
      </trkpt>
      <trkpt lat="47.47977" lon="3.24317">
        <ele>244</ele>
        <time>2022-10-29T08:41:51.000Z</time>
      </trkpt>
      <trkpt lat="47.47948" lon="3.2435">
        <ele>245.19999694824</ele>
        <time>2022-10-29T08:41:58.000Z</time>
      </trkpt>
      <trkpt lat="47.47944" lon="3.24355">
        <ele>245.39999389648</ele>
        <time>2022-10-29T08:41:59.000Z</time>
      </trkpt>
      <trkpt lat="47.47927" lon="3.2438">
        <ele>246.19999694824</ele>
        <time>2022-10-29T08:42:04.000Z</time>
      </trkpt>
      <trkpt lat="47.47921" lon="3.24391">
        <ele>246.60000610352</ele>
        <time>2022-10-29T08:42:06.000Z</time>
      </trkpt>
      <trkpt lat="47.47918" lon="3.24397">
        <ele>246.80000305176</ele>
        <time>2022-10-29T08:42:07.000Z</time>
      </trkpt>
      <trkpt lat="47.47908" lon="3.24413">
        <ele>247.19999694824</ele>
        <time>2022-10-29T08:42:10.000Z</time>
      </trkpt>
      <trkpt lat="47.47899" lon="3.24429">
        <ele>247.39999389648</ele>
        <time>2022-10-29T08:42:13.000Z</time>
      </trkpt>
      <trkpt lat="47.47891" lon="3.24437">
        <ele>247.60000610352</ele>
        <time>2022-10-29T08:42:15.000Z</time>
      </trkpt>
      <trkpt lat="47.47876" lon="3.24448">
        <ele>247.60000610352</ele>
        <time>2022-10-29T08:42:18.000Z</time>
      </trkpt>
      <trkpt lat="47.47871" lon="3.2445">
        <ele>247.80000305176</ele>
        <time>2022-10-29T08:42:19.000Z</time>
      </trkpt>
      <trkpt lat="47.47839" lon="3.24455">
        <ele>247.80000305176</ele>
        <time>2022-10-29T08:42:25.000Z</time>
      </trkpt>
      <trkpt lat="47.47834" lon="3.24456">
        <ele>247.80000305176</ele>
        <time>2022-10-29T08:42:26.000Z</time>
      </trkpt>
      <trkpt lat="47.4783" lon="3.24457">
        <ele>247.80000305176</ele>
        <time>2022-10-29T08:42:27.000Z</time>
      </trkpt>
      <trkpt lat="47.47804" lon="3.24458">
        <ele>247.80000305176</ele>
        <time>2022-10-29T08:42:32.000Z</time>
      </trkpt>
      <trkpt lat="47.47777" lon="3.24462">
        <ele>248</ele>
        <time>2022-10-29T08:42:37.000Z</time>
      </trkpt>
      <trkpt lat="47.47766" lon="3.24464">
        <ele>248</ele>
        <time>2022-10-29T08:42:39.000Z</time>
      </trkpt>
      <trkpt lat="47.47743" lon="3.24471">
        <ele>248</ele>
        <time>2022-10-29T08:42:43.000Z</time>
      </trkpt>
      <trkpt lat="47.47733" lon="3.24478">
        <ele>248</ele>
        <time>2022-10-29T08:42:45.000Z</time>
      </trkpt>
      <trkpt lat="47.47728" lon="3.24483">
        <ele>248</ele>
        <time>2022-10-29T08:42:46.000Z</time>
      </trkpt>
      <trkpt lat="47.47719" lon="3.24494">
        <ele>248</ele>
        <time>2022-10-29T08:42:48.000Z</time>
      </trkpt>
      <trkpt lat="47.47712" lon="3.24508">
        <ele>248</ele>
        <time>2022-10-29T08:42:50.000Z</time>
      </trkpt>
      <trkpt lat="47.477" lon="3.24538">
        <ele>248.19999694824</ele>
        <time>2022-10-29T08:42:54.000Z</time>
      </trkpt>
      <trkpt lat="47.47695" lon="3.24553">
        <ele>248.19999694824</ele>
        <time>2022-10-29T08:42:56.000Z</time>
      </trkpt>
      <trkpt lat="47.47683" lon="3.24593">
        <ele>248</ele>
        <time>2022-10-29T08:43:01.000Z</time>
      </trkpt>
      <trkpt lat="47.47677" lon="3.24609">
        <ele>248</ele>
        <time>2022-10-29T08:43:03.000Z</time>
      </trkpt>
      <trkpt lat="47.47662" lon="3.24649">
        <ele>248</ele>
        <time>2022-10-29T08:43:08.000Z</time>
      </trkpt>
      <trkpt lat="47.47656" lon="3.24664">
        <ele>247.80000305176</ele>
        <time>2022-10-29T08:43:10.000Z</time>
      </trkpt>
      <trkpt lat="47.47645" lon="3.24684">
        <ele>247.39999389648</ele>
        <time>2022-10-29T08:43:13.000Z</time>
      </trkpt>
      <trkpt lat="47.47643" lon="3.2469">
        <ele>247.19999694824</ele>
        <time>2022-10-29T08:43:14.000Z</time>
      </trkpt>
      <trkpt lat="47.47638" lon="3.24704">
        <ele>247</ele>
        <time>2022-10-29T08:43:16.000Z</time>
      </trkpt>
      <trkpt lat="47.47623" lon="3.24732">
        <ele>246.60000610352</ele>
        <time>2022-10-29T08:43:20.000Z</time>
      </trkpt>
      <trkpt lat="47.476" lon="3.24769">
        <ele>246.19999694824</ele>
        <time>2022-10-29T08:43:25.000Z</time>
      </trkpt>
      <trkpt lat="47.47591" lon="3.24782">
        <ele>246</ele>
        <time>2022-10-29T08:43:27.000Z</time>
      </trkpt>
      <trkpt lat="47.47564" lon="3.24811">
        <ele>245.80000305176</ele>
        <time>2022-10-29T08:43:32.000Z</time>
      </trkpt>
      <trkpt lat="47.47524" lon="3.24844">
        <ele>245.80000305176</ele>
        <time>2022-10-29T08:43:39.000Z</time>
      </trkpt>
      <trkpt lat="47.47483" lon="3.24875">
        <ele>244.80000305176</ele>
        <time>2022-10-29T08:43:46.000Z</time>
      </trkpt>
      <trkpt lat="47.47465" lon="3.24889">
        <ele>244.19999694824</ele>
        <time>2022-10-29T08:43:49.000Z</time>
      </trkpt>
      <trkpt lat="47.47444" lon="3.24904">
        <ele>243.80000305176</ele>
        <time>2022-10-29T08:43:52.000Z</time>
      </trkpt>
      <trkpt lat="47.47423" lon="3.24915">
        <ele>243.19999694824</ele>
        <time>2022-10-29T08:43:55.000Z</time>
      </trkpt>
      <trkpt lat="47.474" lon="3.24922">
        <ele>242.19999694824</ele>
        <time>2022-10-29T08:43:58.000Z</time>
      </trkpt>
      <trkpt lat="47.47377" lon="3.24927">
        <ele>241.19999694824</ele>
        <time>2022-10-29T08:44:01.000Z</time>
      </trkpt>
      <trkpt lat="47.47369" lon="3.24928">
        <ele>241</ele>
        <time>2022-10-29T08:44:02.000Z</time>
      </trkpt>
      <trkpt lat="47.47337" lon="3.24933">
        <ele>239.80000305176</ele>
        <time>2022-10-29T08:44:06.000Z</time>
      </trkpt>
      <trkpt lat="47.47313" lon="3.24938">
        <ele>239.19999694824</ele>
        <time>2022-10-29T08:44:09.000Z</time>
      </trkpt>
      <trkpt lat="47.47267" lon="3.24945">
        <ele>238.80000305176</ele>
        <time>2022-10-29T08:44:15.000Z</time>
      </trkpt>
      <trkpt lat="47.47246" lon="3.24949">
        <ele>238.80000305176</ele>
        <time>2022-10-29T08:44:18.000Z</time>
      </trkpt>
      <trkpt lat="47.47194" lon="3.24958">
        <ele>239.39999389648</ele>
        <time>2022-10-29T08:44:26.000Z</time>
      </trkpt>
      <trkpt lat="47.47159" lon="3.24964">
        <ele>240</ele>
        <time>2022-10-29T08:44:32.000Z</time>
      </trkpt>
      <trkpt lat="47.47153" lon="3.24965">
        <ele>240</ele>
        <time>2022-10-29T08:44:33.000Z</time>
      </trkpt>
      <trkpt lat="47.47135" lon="3.24968">
        <ele>240.39999389648</ele>
        <time>2022-10-29T08:44:36.000Z</time>
      </trkpt>
      <trkpt lat="47.47111" lon="3.24972">
        <ele>241</ele>
        <time>2022-10-29T08:44:40.000Z</time>
      </trkpt>
      <trkpt lat="47.47105" lon="3.24973">
        <ele>241.19999694824</ele>
        <time>2022-10-29T08:44:41.000Z</time>
      </trkpt>
      <trkpt lat="47.47099" lon="3.24974">
        <ele>241.19999694824</ele>
        <time>2022-10-29T08:44:42.000Z</time>
      </trkpt>
      <trkpt lat="47.47075" lon="3.24976">
        <ele>241.60000610352</ele>
        <time>2022-10-29T08:44:46.000Z</time>
      </trkpt>
      <trkpt lat="47.47025" lon="3.24979">
        <ele>242.39999389648</ele>
        <time>2022-10-29T08:44:55.000Z</time>
      </trkpt>
      <trkpt lat="47.47008" lon="3.24977">
        <ele>243</ele>
        <time>2022-10-29T08:44:58.000Z</time>
      </trkpt>
      <trkpt lat="47.46992" lon="3.24972">
        <ele>243.39999389648</ele>
        <time>2022-10-29T08:45:01.000Z</time>
      </trkpt>
      <trkpt lat="47.46948" lon="3.24959">
        <ele>244.39999389648</ele>
        <time>2022-10-29T08:45:09.000Z</time>
      </trkpt>
      <trkpt lat="47.46937" lon="3.24954">
        <ele>244.60000610352</ele>
        <time>2022-10-29T08:45:11.000Z</time>
      </trkpt>
      <trkpt lat="47.46898" lon="3.24941">
        <ele>245.39999389648</ele>
        <time>2022-10-29T08:45:18.000Z</time>
      </trkpt>
      <trkpt lat="47.46893" lon="3.24939">
        <ele>245.60000610352</ele>
        <time>2022-10-29T08:45:19.000Z</time>
      </trkpt>
      <trkpt lat="47.46854" lon="3.2492">
        <ele>246.39999389648</ele>
        <time>2022-10-29T08:45:26.000Z</time>
      </trkpt>
      <trkpt lat="47.46838" lon="3.24908">
        <ele>246.60000610352</ele>
        <time>2022-10-29T08:45:29.000Z</time>
      </trkpt>
      <trkpt lat="47.46801" lon="3.24879">
        <ele>246.80000305176</ele>
        <time>2022-10-29T08:45:36.000Z</time>
      </trkpt>
      <trkpt lat="47.46761" lon="3.24849">
        <ele>246.19999694824</ele>
        <time>2022-10-29T08:45:43.000Z</time>
      </trkpt>
      <trkpt lat="47.46723" lon="3.24823">
        <ele>245.39999389648</ele>
        <time>2022-10-29T08:45:50.000Z</time>
      </trkpt>
      <trkpt lat="47.46689" lon="3.24802">
        <ele>244.80000305176</ele>
        <time>2022-10-29T08:45:57.000Z</time>
      </trkpt>
      <trkpt lat="47.46685" lon="3.24799">
        <ele>244.80000305176</ele>
        <time>2022-10-29T08:45:59.000Z</time>
      </trkpt>
      <trkpt lat="47.46683" lon="3.24799">
        <ele>244.60000610352</ele>
        <time>2022-10-29T08:46:00.000Z</time>
      </trkpt>
      <trkpt lat="47.46679" lon="3.248">
        <ele>244.39999389648</ele>
        <time>2022-10-29T08:46:02.000Z</time>
      </trkpt>
      <trkpt lat="47.46672" lon="3.24807">
        <ele>244.39999389648</ele>
        <time>2022-10-29T08:46:04.000Z</time>
      </trkpt>
      <trkpt lat="47.4667" lon="3.24812">
        <ele>244.19999694824</ele>
        <time>2022-10-29T08:46:05.000Z</time>
      </trkpt>
      <trkpt lat="47.46665" lon="3.24826">
        <ele>244.19999694824</ele>
        <time>2022-10-29T08:46:07.000Z</time>
      </trkpt>
      <trkpt lat="47.46648" lon="3.24873">
        <ele>243.80000305176</ele>
        <time>2022-10-29T08:46:13.000Z</time>
      </trkpt>
      <trkpt lat="47.46636" lon="3.24904">
        <ele>243.60000610352</ele>
        <time>2022-10-29T08:46:17.000Z</time>
      </trkpt>
      <trkpt lat="47.46628" lon="3.24927">
        <ele>243.60000610352</ele>
        <time>2022-10-29T08:46:20.000Z</time>
      </trkpt>
      <trkpt lat="47.46621" lon="3.24942">
        <ele>243.39999389648</ele>
        <time>2022-10-29T08:46:22.000Z</time>
      </trkpt>
      <trkpt lat="47.46603" lon="3.24991">
        <ele>242.39999389648</ele>
        <time>2022-10-29T08:46:28.000Z</time>
      </trkpt>
      <trkpt lat="47.46597" lon="3.25008">
        <ele>242.19999694824</ele>
        <time>2022-10-29T08:46:30.000Z</time>
      </trkpt>
      <trkpt lat="47.46576" lon="3.25064">
        <ele>241.19999694824</ele>
        <time>2022-10-29T08:46:36.000Z</time>
      </trkpt>
      <trkpt lat="47.46572" lon="3.25074">
        <ele>241.19999694824</ele>
        <time>2022-10-29T08:46:37.000Z</time>
      </trkpt>
      <trkpt lat="47.46553" lon="3.25125">
        <ele>240</ele>
        <time>2022-10-29T08:46:42.000Z</time>
      </trkpt>
      <trkpt lat="47.46547" lon="3.25142">
        <ele>239.39999389648</ele>
        <time>2022-10-29T08:46:44.000Z</time>
      </trkpt>
      <trkpt lat="47.46539" lon="3.25162">
        <ele>239</ele>
        <time>2022-10-29T08:46:46.000Z</time>
      </trkpt>
      <trkpt lat="47.46519" lon="3.25213">
        <ele>237.80000305176</ele>
        <time>2022-10-29T08:46:51.000Z</time>
      </trkpt>
      <trkpt lat="47.46508" lon="3.25243">
        <ele>237.39999389648</ele>
        <time>2022-10-29T08:46:54.000Z</time>
      </trkpt>
      <trkpt lat="47.46499" lon="3.25266">
        <ele>236.60000610352</ele>
        <time>2022-10-29T08:46:56.000Z</time>
      </trkpt>
      <trkpt lat="47.46496" lon="3.25277">
        <ele>236.19999694824</ele>
        <time>2022-10-29T08:46:57.000Z</time>
      </trkpt>
      <trkpt lat="47.46487" lon="3.25307">
        <ele>235.60000610352</ele>
        <time>2022-10-29T08:47:00.000Z</time>
      </trkpt>
      <trkpt lat="47.46481" lon="3.25325">
        <ele>235.39999389648</ele>
        <time>2022-10-29T08:47:02.000Z</time>
      </trkpt>
      <trkpt lat="47.46468" lon="3.2536">
        <ele>235.19999694824</ele>
        <time>2022-10-29T08:47:06.000Z</time>
      </trkpt>
      <trkpt lat="47.46465" lon="3.25378">
        <ele>235.19999694824</ele>
        <time>2022-10-29T08:47:08.000Z</time>
      </trkpt>
      <trkpt lat="47.46462" lon="3.2542">
        <ele>235.19999694824</ele>
        <time>2022-10-29T08:47:13.000Z</time>
      </trkpt>
      <trkpt lat="47.46461" lon="3.25464">
        <ele>235.60000610352</ele>
        <time>2022-10-29T08:47:18.000Z</time>
      </trkpt>
      <trkpt lat="47.46459" lon="3.25486">
        <ele>235.80000305176</ele>
        <time>2022-10-29T08:47:21.000Z</time>
      </trkpt>
      <trkpt lat="47.46458" lon="3.255">
        <ele>236.19999694824</ele>
        <time>2022-10-29T08:47:23.000Z</time>
      </trkpt>
      <trkpt lat="47.46454" lon="3.25518">
        <ele>236.80000305176</ele>
        <time>2022-10-29T08:47:26.000Z</time>
      </trkpt>
      <trkpt lat="47.46451" lon="3.25536">
        <ele>238</ele>
        <time>2022-10-29T08:47:29.000Z</time>
      </trkpt>
      <trkpt lat="47.46448" lon="3.25547">
        <ele>238.39999389648</ele>
        <time>2022-10-29T08:47:31.000Z</time>
      </trkpt>
      <trkpt lat="47.46446" lon="3.25558">
        <ele>239.19999694824</ele>
        <time>2022-10-29T08:47:33.000Z</time>
      </trkpt>
      <trkpt lat="47.46444" lon="3.25564">
        <ele>239.39999389648</ele>
        <time>2022-10-29T08:47:34.000Z</time>
      </trkpt>
      <trkpt lat="47.46439" lon="3.25581">
        <ele>240.39999389648</ele>
        <time>2022-10-29T08:47:37.000Z</time>
      </trkpt>
      <trkpt lat="47.46437" lon="3.25592">
        <ele>240.80000305176</ele>
        <time>2022-10-29T08:47:39.000Z</time>
      </trkpt>
      <trkpt lat="47.46433" lon="3.2561">
        <ele>241.19999694824</ele>
        <time>2022-10-29T08:47:42.000Z</time>
      </trkpt>
      <trkpt lat="47.46431" lon="3.2562">
        <ele>241.60000610352</ele>
        <time>2022-10-29T08:47:44.000Z</time>
      </trkpt>
      <trkpt lat="47.46429" lon="3.25625">
        <ele>241.60000610352</ele>
        <time>2022-10-29T08:47:45.000Z</time>
      </trkpt>
      <trkpt lat="47.46419" lon="3.2566">
        <ele>242.60000610352</ele>
        <time>2022-10-29T08:47:50.000Z</time>
      </trkpt>
      <trkpt lat="47.46417" lon="3.25668">
        <ele>242.60000610352</ele>
        <time>2022-10-29T08:47:51.000Z</time>
      </trkpt>
      <trkpt lat="47.46412" lon="3.25699">
        <ele>242.60000610352</ele>
        <time>2022-10-29T08:47:55.000Z</time>
      </trkpt>
      <trkpt lat="47.46411" lon="3.25748">
        <ele>241.60000610352</ele>
        <time>2022-10-29T08:48:01.000Z</time>
      </trkpt>
      <trkpt lat="47.46411" lon="3.25756">
        <ele>241.39999389648</ele>
        <time>2022-10-29T08:48:02.000Z</time>
      </trkpt>
      <trkpt lat="47.46411" lon="3.25772">
        <ele>241.19999694824</ele>
        <time>2022-10-29T08:48:04.000Z</time>
      </trkpt>
      <trkpt lat="47.46412" lon="3.25789">
        <ele>240.39999389648</ele>
        <time>2022-10-29T08:48:06.000Z</time>
      </trkpt>
      <trkpt lat="47.46411" lon="3.25796">
        <ele>240.39999389648</ele>
        <time>2022-10-29T08:48:07.000Z</time>
      </trkpt>
      <trkpt lat="47.46404" lon="3.25809">
        <ele>240</ele>
        <time>2022-10-29T08:48:09.000Z</time>
      </trkpt>
      <trkpt lat="47.46401" lon="3.25815">
        <ele>239.39999389648</ele>
        <time>2022-10-29T08:48:10.000Z</time>
      </trkpt>
      <trkpt lat="47.46391" lon="3.25839">
        <ele>238.80000305176</ele>
        <time>2022-10-29T08:48:13.000Z</time>
      </trkpt>
      <trkpt lat="47.46385" lon="3.25853">
        <ele>238.19999694824</ele>
        <time>2022-10-29T08:48:15.000Z</time>
      </trkpt>
      <trkpt lat="47.46373" lon="3.25882">
        <ele>237.60000610352</ele>
        <time>2022-10-29T08:48:19.000Z</time>
      </trkpt>
      <trkpt lat="47.4635" lon="3.25932">
        <ele>237.39999389648</ele>
        <time>2022-10-29T08:48:26.000Z</time>
      </trkpt>
      <trkpt lat="47.46329" lon="3.25983">
        <ele>237.80000305176</ele>
        <time>2022-10-29T08:48:34.000Z</time>
      </trkpt>
      <trkpt lat="47.46305" lon="3.26033">
        <ele>238</ele>
        <time>2022-10-29T08:48:41.000Z</time>
      </trkpt>
      <trkpt lat="47.4628" lon="3.2609">
        <ele>237.80000305176</ele>
        <time>2022-10-29T08:48:49.000Z</time>
      </trkpt>
      <trkpt lat="47.46254" lon="3.26148">
        <ele>238</ele>
        <time>2022-10-29T08:48:57.000Z</time>
      </trkpt>
      <trkpt lat="47.46232" lon="3.26201">
        <ele>238.19999694824</ele>
        <time>2022-10-29T08:49:05.000Z</time>
      </trkpt>
      <trkpt lat="47.4621" lon="3.2625">
        <ele>239</ele>
        <time>2022-10-29T08:49:13.000Z</time>
      </trkpt>
      <trkpt lat="47.46203" lon="3.26269">
        <ele>239.39999389648</ele>
        <time>2022-10-29T08:49:16.000Z</time>
      </trkpt>
      <trkpt lat="47.46192" lon="3.26293">
        <ele>239.80000305176</ele>
        <time>2022-10-29T08:49:20.000Z</time>
      </trkpt>
      <trkpt lat="47.46174" lon="3.26336">
        <ele>240.39999389648</ele>
        <time>2022-10-29T08:49:27.000Z</time>
      </trkpt>
      <trkpt lat="47.46169" lon="3.26349">
        <ele>240.60000610352</ele>
        <time>2022-10-29T08:49:29.000Z</time>
      </trkpt>
      <trkpt lat="47.46144" lon="3.26409">
        <ele>241</ele>
        <time>2022-10-29T08:49:38.000Z</time>
      </trkpt>
      <trkpt lat="47.46131" lon="3.26456">
        <ele>241.19999694824</ele>
        <time>2022-10-29T08:49:44.000Z</time>
      </trkpt>
      <trkpt lat="47.46126" lon="3.2651">
        <ele>241</ele>
        <time>2022-10-29T08:49:50.000Z</time>
      </trkpt>
      <trkpt lat="47.46127" lon="3.26596">
        <ele>240.60000610352</ele>
        <time>2022-10-29T08:49:59.000Z</time>
      </trkpt>
      <trkpt lat="47.46129" lon="3.26681">
        <ele>240.19999694824</ele>
        <time>2022-10-29T08:50:08.000Z</time>
      </trkpt>
      <trkpt lat="47.46131" lon="3.26732">
        <ele>240.19999694824</ele>
        <time>2022-10-29T08:50:13.000Z</time>
      </trkpt>
      <trkpt lat="47.46134" lon="3.26818">
        <ele>240.19999694824</ele>
        <time>2022-10-29T08:50:22.000Z</time>
      </trkpt>
      <trkpt lat="47.46136" lon="3.26844">
        <ele>240.39999389648</ele>
        <time>2022-10-29T08:50:25.000Z</time>
      </trkpt>
      <trkpt lat="47.46143" lon="3.26903">
        <ele>241.39999389648</ele>
        <time>2022-10-29T08:50:32.000Z</time>
      </trkpt>
      <trkpt lat="47.46147" lon="3.26928">
        <ele>241.60000610352</ele>
        <time>2022-10-29T08:50:35.000Z</time>
      </trkpt>
      <trkpt lat="47.46155" lon="3.26963">
        <ele>242.39999389648</ele>
        <time>2022-10-29T08:50:40.000Z</time>
      </trkpt>
      <trkpt lat="47.46158" lon="3.26978">
        <ele>242.80000305176</ele>
        <time>2022-10-29T08:50:42.000Z</time>
      </trkpt>
      <trkpt lat="47.46168" lon="3.27029">
        <ele>243.80000305176</ele>
        <time>2022-10-29T08:50:49.000Z</time>
      </trkpt>
      <trkpt lat="47.4617" lon="3.27036">
        <ele>244</ele>
        <time>2022-10-29T08:50:50.000Z</time>
      </trkpt>
      <trkpt lat="47.46179" lon="3.2708">
        <ele>245.19999694824</ele>
        <time>2022-10-29T08:50:56.000Z</time>
      </trkpt>
      <trkpt lat="47.46181" lon="3.27088">
        <ele>245.39999389648</ele>
        <time>2022-10-29T08:50:57.000Z</time>
      </trkpt>
      <trkpt lat="47.46188" lon="3.27124">
        <ele>246.39999389648</ele>
        <time>2022-10-29T08:51:02.000Z</time>
      </trkpt>
      <trkpt lat="47.46197" lon="3.27167">
        <ele>247.19999694824</ele>
        <time>2022-10-29T08:51:08.000Z</time>
      </trkpt>
      <trkpt lat="47.46199" lon="3.27174">
        <ele>247.39999389648</ele>
        <time>2022-10-29T08:51:09.000Z</time>
      </trkpt>
      <trkpt lat="47.4621" lon="3.27225">
        <ele>248</ele>
        <time>2022-10-29T08:51:16.000Z</time>
      </trkpt>
      <trkpt lat="47.46215" lon="3.27253">
        <ele>248.39999389648</ele>
        <time>2022-10-29T08:51:20.000Z</time>
      </trkpt>
      <trkpt lat="47.46225" lon="3.27303">
        <ele>249.39999389648</ele>
        <time>2022-10-29T08:51:27.000Z</time>
      </trkpt>
      <trkpt lat="47.46227" lon="3.2731">
        <ele>249.80000305176</ele>
        <time>2022-10-29T08:51:28.000Z</time>
      </trkpt>
      <trkpt lat="47.46235" lon="3.2736">
        <ele>250.60000610352</ele>
        <time>2022-10-29T08:51:35.000Z</time>
      </trkpt>
      <trkpt lat="47.4624" lon="3.27396">
        <ele>251.19999694824</ele>
        <time>2022-10-29T08:51:40.000Z</time>
      </trkpt>
      <trkpt lat="47.46242" lon="3.27417">
        <ele>251.60000610352</ele>
        <time>2022-10-29T08:51:43.000Z</time>
      </trkpt>
      <trkpt lat="47.46245" lon="3.27467">
        <ele>252.60000610352</ele>
        <time>2022-10-29T08:51:50.000Z</time>
      </trkpt>
      <trkpt lat="47.46247" lon="3.27519">
        <ele>253.60000610352</ele>
        <time>2022-10-29T08:51:57.000Z</time>
      </trkpt>
      <trkpt lat="47.4625" lon="3.27566">
        <ele>254</ele>
        <time>2022-10-29T08:52:03.000Z</time>
      </trkpt>
      <trkpt lat="47.46254" lon="3.27636">
        <ele>254.60000610352</ele>
        <time>2022-10-29T08:52:12.000Z</time>
      </trkpt>
      <trkpt lat="47.46255" lon="3.2767">
        <ele>255</ele>
        <time>2022-10-29T08:52:16.000Z</time>
      </trkpt>
      <trkpt lat="47.46255" lon="3.27687">
        <ele>255</ele>
        <time>2022-10-29T08:52:18.000Z</time>
      </trkpt>
      <trkpt lat="47.46256" lon="3.27757">
        <ele>254.60000610352</ele>
        <time>2022-10-29T08:52:26.000Z</time>
      </trkpt>
      <trkpt lat="47.46255" lon="3.27831">
        <ele>254</ele>
        <time>2022-10-29T08:52:34.000Z</time>
      </trkpt>
      <trkpt lat="47.46255" lon="3.27908">
        <ele>253.39999389648</ele>
        <time>2022-10-29T08:52:42.000Z</time>
      </trkpt>
      <trkpt lat="47.46255" lon="3.27918">
        <ele>253.19999694824</ele>
        <time>2022-10-29T08:52:43.000Z</time>
      </trkpt>
      <trkpt lat="47.46255" lon="3.27978">
        <ele>252.19999694824</ele>
        <time>2022-10-29T08:52:49.000Z</time>
      </trkpt>
      <trkpt lat="47.46255" lon="3.28026">
        <ele>252.19999694824</ele>
        <time>2022-10-29T08:52:54.000Z</time>
      </trkpt>
      <trkpt lat="47.46254" lon="3.28104">
        <ele>251.80000305176</ele>
        <time>2022-10-29T08:53:02.000Z</time>
      </trkpt>
      <trkpt lat="47.46254" lon="3.28187">
        <ele>251.39999389648</ele>
        <time>2022-10-29T08:53:11.000Z</time>
      </trkpt>
      <trkpt lat="47.46254" lon="3.28197">
        <ele>251.39999389648</ele>
        <time>2022-10-29T08:53:12.000Z</time>
      </trkpt>
      <trkpt lat="47.46252" lon="3.28261">
        <ele>251.39999389648</ele>
        <time>2022-10-29T08:53:19.000Z</time>
      </trkpt>
      <trkpt lat="47.4625" lon="3.2827">
        <ele>251.39999389648</ele>
        <time>2022-10-29T08:53:20.000Z</time>
      </trkpt>
      <trkpt lat="47.46247" lon="3.28278">
        <ele>251.39999389648</ele>
        <time>2022-10-29T08:53:21.000Z</time>
      </trkpt>
      <trkpt lat="47.46235" lon="3.28301">
        <ele>251.60000610352</ele>
        <time>2022-10-29T08:53:24.000Z</time>
      </trkpt>
      <trkpt lat="47.46199" lon="3.28365">
        <ele>251.60000610352</ele>
        <time>2022-10-29T08:53:33.000Z</time>
      </trkpt>
      <trkpt lat="47.46169" lon="3.2842">
        <ele>251.80000305176</ele>
        <time>2022-10-29T08:53:41.000Z</time>
      </trkpt>
      <trkpt lat="47.46146" lon="3.28463">
        <ele>253</ele>
        <time>2022-10-29T08:53:48.000Z</time>
      </trkpt>
      <trkpt lat="47.46137" lon="3.28479">
        <ele>253.60000610352</ele>
        <time>2022-10-29T08:53:51.000Z</time>
      </trkpt>
      <trkpt lat="47.46122" lon="3.28506">
        <ele>254.39999389648</ele>
        <time>2022-10-29T08:53:56.000Z</time>
      </trkpt>
      <trkpt lat="47.46109" lon="3.28529">
        <ele>254.60000610352</ele>
        <time>2022-10-29T08:54:00.000Z</time>
      </trkpt>
      <trkpt lat="47.46096" lon="3.28557">
        <ele>255.39999389648</ele>
        <time>2022-10-29T08:54:05.000Z</time>
      </trkpt>
      <trkpt lat="47.46091" lon="3.28569">
        <ele>255.80000305176</ele>
        <time>2022-10-29T08:54:07.000Z</time>
      </trkpt>
      <trkpt lat="47.46074" lon="3.28612">
        <ele>256.60000610352</ele>
        <time>2022-10-29T08:54:14.000Z</time>
      </trkpt>
      <trkpt lat="47.4607" lon="3.28625">
        <ele>256.79998779297</ele>
        <time>2022-10-29T08:54:16.000Z</time>
      </trkpt>
      <trkpt lat="47.46059" lon="3.28665">
        <ele>257.79998779297</ele>
        <time>2022-10-29T08:54:22.000Z</time>
      </trkpt>
      <trkpt lat="47.46057" lon="3.28672">
        <ele>257.79998779297</ele>
        <time>2022-10-29T08:54:23.000Z</time>
      </trkpt>
      <trkpt lat="47.46044" lon="3.28728">
        <ele>258.79998779297</ele>
        <time>2022-10-29T08:54:31.000Z</time>
      </trkpt>
      <trkpt lat="47.46039" lon="3.28749">
        <ele>259.20001220703</ele>
        <time>2022-10-29T08:54:34.000Z</time>
      </trkpt>
      <trkpt lat="47.4603" lon="3.28777">
        <ele>259.79998779297</ele>
        <time>2022-10-29T08:54:38.000Z</time>
      </trkpt>
      <trkpt lat="47.4602" lon="3.28802">
        <ele>260.60000610352</ele>
        <time>2022-10-29T08:54:42.000Z</time>
      </trkpt>
      <trkpt lat="47.46014" lon="3.28814">
        <ele>260.79998779297</ele>
        <time>2022-10-29T08:54:44.000Z</time>
      </trkpt>
      <trkpt lat="47.45994" lon="3.28856">
        <ele>261.79998779297</ele>
        <time>2022-10-29T08:54:51.000Z</time>
      </trkpt>
      <trkpt lat="47.45992" lon="3.28861">
        <ele>262</ele>
        <time>2022-10-29T08:54:52.000Z</time>
      </trkpt>
      <trkpt lat="47.45979" lon="3.28892">
        <ele>263</ele>
        <time>2022-10-29T08:54:57.000Z</time>
      </trkpt>
      <trkpt lat="47.45972" lon="3.2891">
        <ele>263.60000610352</ele>
        <time>2022-10-29T08:55:00.000Z</time>
      </trkpt>
      <trkpt lat="47.45965" lon="3.2893">
        <ele>264.20001220703</ele>
        <time>2022-10-29T08:55:03.000Z</time>
      </trkpt>
      <trkpt lat="47.4595" lon="3.28972">
        <ele>265</ele>
        <time>2022-10-29T08:55:09.000Z</time>
      </trkpt>
      <trkpt lat="47.45941" lon="3.29">
        <ele>265.20001220703</ele>
        <time>2022-10-29T08:55:13.000Z</time>
      </trkpt>
      <trkpt lat="47.45929" lon="3.29042">
        <ele>266.20001220703</ele>
        <time>2022-10-29T08:55:19.000Z</time>
      </trkpt>
      <trkpt lat="47.45927" lon="3.29049">
        <ele>266.60000610352</ele>
        <time>2022-10-29T08:55:20.000Z</time>
      </trkpt>
      <trkpt lat="47.4592" lon="3.29083">
        <ele>267.79998779297</ele>
        <time>2022-10-29T08:55:25.000Z</time>
      </trkpt>
      <trkpt lat="47.45916" lon="3.29096">
        <ele>268.20001220703</ele>
        <time>2022-10-29T08:55:27.000Z</time>
      </trkpt>
      <trkpt lat="47.45913" lon="3.29102">
        <ele>268.39999389648</ele>
        <time>2022-10-29T08:55:28.000Z</time>
      </trkpt>
      <trkpt lat="47.45905" lon="3.2912">
        <ele>268.79998779297</ele>
        <time>2022-10-29T08:55:31.000Z</time>
      </trkpt>
      <trkpt lat="47.45891" lon="3.29148">
        <ele>269.60000610352</ele>
        <time>2022-10-29T08:55:36.000Z</time>
      </trkpt>
      <trkpt lat="47.45884" lon="3.29158">
        <ele>270</ele>
        <time>2022-10-29T08:55:38.000Z</time>
      </trkpt>
      <trkpt lat="47.45866" lon="3.29184">
        <ele>270.39999389648</ele>
        <time>2022-10-29T08:55:43.000Z</time>
      </trkpt>
      <trkpt lat="47.45846" lon="3.29212">
        <ele>271</ele>
        <time>2022-10-29T08:55:48.000Z</time>
      </trkpt>
      <trkpt lat="47.45836" lon="3.2923">
        <ele>271.39999389648</ele>
        <time>2022-10-29T08:55:51.000Z</time>
      </trkpt>
      <trkpt lat="47.45817" lon="3.29267">
        <ele>272</ele>
        <time>2022-10-29T08:55:57.000Z</time>
      </trkpt>
      <trkpt lat="47.45806" lon="3.29293">
        <ele>272.39999389648</ele>
        <time>2022-10-29T08:56:01.000Z</time>
      </trkpt>
      <trkpt lat="47.4578" lon="3.29343">
        <ele>272.39999389648</ele>
        <time>2022-10-29T08:56:09.000Z</time>
      </trkpt>
      <trkpt lat="47.45762" lon="3.29382">
        <ele>272.39999389648</ele>
        <time>2022-10-29T08:56:15.000Z</time>
      </trkpt>
      <trkpt lat="47.45755" lon="3.29395">
        <ele>272.39999389648</ele>
        <time>2022-10-29T08:56:17.000Z</time>
      </trkpt>
      <trkpt lat="47.45736" lon="3.29444">
        <ele>272</ele>
        <time>2022-10-29T08:56:24.000Z</time>
      </trkpt>
      <trkpt lat="47.45732" lon="3.29452">
        <ele>272</ele>
        <time>2022-10-29T08:56:25.000Z</time>
      </trkpt>
      <trkpt lat="47.4572" lon="3.29485">
        <ele>271.79998779297</ele>
        <time>2022-10-29T08:56:30.000Z</time>
      </trkpt>
      <trkpt lat="47.457" lon="3.29539">
        <ele>271.39999389648</ele>
        <time>2022-10-29T08:56:37.000Z</time>
      </trkpt>
      <trkpt lat="47.4568" lon="3.29599">
        <ele>271.20001220703</ele>
        <time>2022-10-29T08:56:45.000Z</time>
      </trkpt>
      <trkpt lat="47.45675" lon="3.2962">
        <ele>271.20001220703</ele>
        <time>2022-10-29T08:56:48.000Z</time>
      </trkpt>
      <trkpt lat="47.45669" lon="3.29644">
        <ele>271.20001220703</ele>
        <time>2022-10-29T08:56:51.000Z</time>
      </trkpt>
      <trkpt lat="47.45658" lon="3.2971">
        <ele>272.20001220703</ele>
        <time>2022-10-29T08:57:00.000Z</time>
      </trkpt>
      <trkpt lat="47.45655" lon="3.29738">
        <ele>272.79998779297</ele>
        <time>2022-10-29T08:57:04.000Z</time>
      </trkpt>
      <trkpt lat="47.45653" lon="3.29752">
        <ele>273</ele>
        <time>2022-10-29T08:57:06.000Z</time>
      </trkpt>
      <trkpt lat="47.45651" lon="3.29767">
        <ele>273.39999389648</ele>
        <time>2022-10-29T08:57:08.000Z</time>
      </trkpt>
      <trkpt lat="47.45648" lon="3.29796">
        <ele>273.60000610352</ele>
        <time>2022-10-29T08:57:12.000Z</time>
      </trkpt>
      <trkpt lat="47.45647" lon="3.29803">
        <ele>273.60000610352</ele>
        <time>2022-10-29T08:57:13.000Z</time>
      </trkpt>
      <trkpt lat="47.45645" lon="3.29817">
        <ele>273.79998779297</ele>
        <time>2022-10-29T08:57:15.000Z</time>
      </trkpt>
      <trkpt lat="47.45644" lon="3.29824">
        <ele>273.79998779297</ele>
        <time>2022-10-29T08:57:16.000Z</time>
      </trkpt>
      <trkpt lat="47.45643" lon="3.29837">
        <ele>274</ele>
        <time>2022-10-29T08:57:18.000Z</time>
      </trkpt>
      <trkpt lat="47.45641" lon="3.29864">
        <ele>273.79998779297</ele>
        <time>2022-10-29T08:57:22.000Z</time>
      </trkpt>
      <trkpt lat="47.45641" lon="3.29871">
        <ele>273.79998779297</ele>
        <time>2022-10-29T08:57:23.000Z</time>
      </trkpt>
      <trkpt lat="47.4564" lon="3.29878">
        <ele>273.79998779297</ele>
        <time>2022-10-29T08:57:24.000Z</time>
      </trkpt>
      <trkpt lat="47.45639" lon="3.299">
        <ele>273.79998779297</ele>
        <time>2022-10-29T08:57:27.000Z</time>
      </trkpt>
      <trkpt lat="47.45637" lon="3.29909">
        <ele>273.79998779297</ele>
        <time>2022-10-29T08:57:28.000Z</time>
      </trkpt>
      <trkpt lat="47.45632" lon="3.29933">
        <ele>273.79998779297</ele>
        <time>2022-10-29T08:57:31.000Z</time>
      </trkpt>
      <trkpt lat="47.45631" lon="3.29941">
        <ele>273.60000610352</ele>
        <time>2022-10-29T08:57:32.000Z</time>
      </trkpt>
      <trkpt lat="47.4563" lon="3.2995">
        <ele>273.60000610352</ele>
        <time>2022-10-29T08:57:33.000Z</time>
      </trkpt>
      <trkpt lat="47.4562" lon="3.29993">
        <ele>272.79998779297</ele>
        <time>2022-10-29T08:57:38.000Z</time>
      </trkpt>
      <trkpt lat="47.45615" lon="3.30011">
        <ele>272.39999389648</ele>
        <time>2022-10-29T08:57:40.000Z</time>
      </trkpt>
      <trkpt lat="47.45613" lon="3.30021">
        <ele>272.20001220703</ele>
        <time>2022-10-29T08:57:41.000Z</time>
      </trkpt>
      <trkpt lat="47.45611" lon="3.30039">
        <ele>272</ele>
        <time>2022-10-29T08:57:43.000Z</time>
      </trkpt>
      <trkpt lat="47.45609" lon="3.30048">
        <ele>271.79998779297</ele>
        <time>2022-10-29T08:57:44.000Z</time>
      </trkpt>
      <trkpt lat="47.45605" lon="3.30067">
        <ele>271.60000610352</ele>
        <time>2022-10-29T08:57:46.000Z</time>
      </trkpt>
      <trkpt lat="47.45602" lon="3.30085">
        <ele>271.39999389648</ele>
        <time>2022-10-29T08:57:48.000Z</time>
      </trkpt>
      <trkpt lat="47.45601" lon="3.3011">
        <ele>271.39999389648</ele>
        <time>2022-10-29T08:57:51.000Z</time>
      </trkpt>
      <trkpt lat="47.45599" lon="3.30127">
        <ele>271.39999389648</ele>
        <time>2022-10-29T08:57:53.000Z</time>
      </trkpt>
      <trkpt lat="47.45599" lon="3.30134">
        <ele>271.39999389648</ele>
        <time>2022-10-29T08:57:54.000Z</time>
      </trkpt>
      <trkpt lat="47.456" lon="3.30143">
        <ele>271.20001220703</ele>
        <time>2022-10-29T08:57:55.000Z</time>
      </trkpt>
      <trkpt lat="47.45599" lon="3.30156">
        <ele>271</ele>
        <time>2022-10-29T08:57:57.000Z</time>
      </trkpt>
      <trkpt lat="47.45597" lon="3.30172">
        <ele>270.60000610352</ele>
        <time>2022-10-29T08:57:59.000Z</time>
      </trkpt>
      <trkpt lat="47.45589" lon="3.30199">
        <ele>270.39999389648</ele>
        <time>2022-10-29T08:58:02.000Z</time>
      </trkpt>
      <trkpt lat="47.45588" lon="3.30206">
        <ele>270.39999389648</ele>
        <time>2022-10-29T08:58:03.000Z</time>
      </trkpt>
      <trkpt lat="47.45584" lon="3.30224">
        <ele>270.39999389648</ele>
        <time>2022-10-29T08:58:05.000Z</time>
      </trkpt>
      <trkpt lat="47.45584" lon="3.30251">
        <ele>270.60000610352</ele>
        <time>2022-10-29T08:58:09.000Z</time>
      </trkpt>
      <trkpt lat="47.45582" lon="3.30267">
        <ele>270.79998779297</ele>
        <time>2022-10-29T08:58:11.000Z</time>
      </trkpt>
      <trkpt lat="47.45576" lon="3.30283">
        <ele>270.60000610352</ele>
        <time>2022-10-29T08:58:13.000Z</time>
      </trkpt>
      <trkpt lat="47.45572" lon="3.30304">
        <ele>271</ele>
        <time>2022-10-29T08:58:16.000Z</time>
      </trkpt>
      <trkpt lat="47.4557" lon="3.30311">
        <ele>271</ele>
        <time>2022-10-29T08:58:17.000Z</time>
      </trkpt>
      <trkpt lat="47.45569" lon="3.30317">
        <ele>271</ele>
        <time>2022-10-29T08:58:18.000Z</time>
      </trkpt>
      <trkpt lat="47.45569" lon="3.30329">
        <ele>270.79998779297</ele>
        <time>2022-10-29T08:58:20.000Z</time>
      </trkpt>
      <trkpt lat="47.45567" lon="3.30342">
        <ele>271</ele>
        <time>2022-10-29T08:58:22.000Z</time>
      </trkpt>
      <trkpt lat="47.45558" lon="3.30389">
        <ele>272.20001220703</ele>
        <time>2022-10-29T08:58:30.000Z</time>
      </trkpt>
      <trkpt lat="47.45556" lon="3.30396">
        <ele>272.39999389648</ele>
        <time>2022-10-29T08:58:31.000Z</time>
      </trkpt>
      <trkpt lat="47.45552" lon="3.30421">
        <ele>272.79998779297</ele>
        <time>2022-10-29T08:58:35.000Z</time>
      </trkpt>
      <trkpt lat="47.45547" lon="3.30468">
        <ele>273.20001220703</ele>
        <time>2022-10-29T08:58:42.000Z</time>
      </trkpt>
      <trkpt lat="47.45542" lon="3.30493">
        <ele>273.20001220703</ele>
        <time>2022-10-29T08:58:45.000Z</time>
      </trkpt>
      <trkpt lat="47.45539" lon="3.30508">
        <ele>273.39999389648</ele>
        <time>2022-10-29T08:58:47.000Z</time>
      </trkpt>
      <trkpt lat="47.4553" lon="3.30567">
        <ele>273.60000610352</ele>
        <time>2022-10-29T08:58:55.000Z</time>
      </trkpt>
      <trkpt lat="47.45518" lon="3.30612">
        <ele>273.79998779297</ele>
        <time>2022-10-29T08:59:00.000Z</time>
      </trkpt>
      <trkpt lat="47.45511" lon="3.30664">
        <ele>273.79998779297</ele>
        <time>2022-10-29T08:59:06.000Z</time>
      </trkpt>
      <trkpt lat="47.45511" lon="3.30672">
        <ele>273.79998779297</ele>
        <time>2022-10-29T08:59:07.000Z</time>
      </trkpt>
      <trkpt lat="47.45511" lon="3.30681">
        <ele>273.79998779297</ele>
        <time>2022-10-29T08:59:08.000Z</time>
      </trkpt>
      <trkpt lat="47.4551" lon="3.30699">
        <ele>273.60000610352</ele>
        <time>2022-10-29T08:59:11.000Z</time>
      </trkpt>
      <trkpt lat="47.45502" lon="3.30747">
        <ele>273.20001220703</ele>
        <time>2022-10-29T08:59:17.000Z</time>
      </trkpt>
      <trkpt lat="47.45498" lon="3.30772">
        <ele>272.79998779297</ele>
        <time>2022-10-29T08:59:20.000Z</time>
      </trkpt>
      <trkpt lat="47.45496" lon="3.30788">
        <ele>272.79998779297</ele>
        <time>2022-10-29T08:59:22.000Z</time>
      </trkpt>
      <trkpt lat="47.45494" lon="3.30805">
        <ele>272.39999389648</ele>
        <time>2022-10-29T08:59:24.000Z</time>
      </trkpt>
      <trkpt lat="47.45493" lon="3.3083">
        <ele>272.20001220703</ele>
        <time>2022-10-29T08:59:27.000Z</time>
      </trkpt>
      <trkpt lat="47.45487" lon="3.30858">
        <ele>272.20001220703</ele>
        <time>2022-10-29T08:59:30.000Z</time>
      </trkpt>
      <trkpt lat="47.45483" lon="3.30877">
        <ele>272.20001220703</ele>
        <time>2022-10-29T08:59:32.000Z</time>
      </trkpt>
      <trkpt lat="47.45482" lon="3.30888">
        <ele>272</ele>
        <time>2022-10-29T08:59:33.000Z</time>
      </trkpt>
      <trkpt lat="47.45475" lon="3.30936">
        <ele>272</ele>
        <time>2022-10-29T08:59:38.000Z</time>
      </trkpt>
      <trkpt lat="47.45465" lon="3.30967">
        <ele>271.79998779297</ele>
        <time>2022-10-29T08:59:41.000Z</time>
      </trkpt>
      <trkpt lat="47.45459" lon="3.30999">
        <ele>272.20001220703</ele>
        <time>2022-10-29T08:59:45.000Z</time>
      </trkpt>
      <trkpt lat="47.45457" lon="3.31007">
        <ele>272.39999389648</ele>
        <time>2022-10-29T08:59:46.000Z</time>
      </trkpt>
      <trkpt lat="47.45454" lon="3.31046">
        <ele>272.79998779297</ele>
        <time>2022-10-29T08:59:51.000Z</time>
      </trkpt>
      <trkpt lat="47.4545" lon="3.31062">
        <ele>273.20001220703</ele>
        <time>2022-10-29T08:59:53.000Z</time>
      </trkpt>
      <trkpt lat="47.45446" lon="3.31075">
        <ele>273.39999389648</ele>
        <time>2022-10-29T08:59:55.000Z</time>
      </trkpt>
      <trkpt lat="47.45438" lon="3.31104">
        <ele>274</ele>
        <time>2022-10-29T08:59:59.000Z</time>
      </trkpt>
      <trkpt lat="47.45436" lon="3.31119">
        <ele>274.20001220703</ele>
        <time>2022-10-29T09:00:01.000Z</time>
      </trkpt>
      <trkpt lat="47.45434" lon="3.3115">
        <ele>274.79998779297</ele>
        <time>2022-10-29T09:00:05.000Z</time>
      </trkpt>
      <trkpt lat="47.45431" lon="3.31168">
        <ele>274.79998779297</ele>
        <time>2022-10-29T09:00:07.000Z</time>
      </trkpt>
      <trkpt lat="47.4543" lon="3.31176">
        <ele>275</ele>
        <time>2022-10-29T09:00:08.000Z</time>
      </trkpt>
      <trkpt lat="47.45424" lon="3.31218">
        <ele>275.60000610352</ele>
        <time>2022-10-29T09:00:13.000Z</time>
      </trkpt>
      <trkpt lat="47.4542" lon="3.31242">
        <ele>275.60000610352</ele>
        <time>2022-10-29T09:00:16.000Z</time>
      </trkpt>
      <trkpt lat="47.45417" lon="3.31257">
        <ele>275.79998779297</ele>
        <time>2022-10-29T09:00:18.000Z</time>
      </trkpt>
      <trkpt lat="47.45415" lon="3.31272">
        <ele>275.79998779297</ele>
        <time>2022-10-29T09:00:20.000Z</time>
      </trkpt>
      <trkpt lat="47.45412" lon="3.3129">
        <ele>275.60000610352</ele>
        <time>2022-10-29T09:00:22.000Z</time>
      </trkpt>
      <trkpt lat="47.45411" lon="3.31298">
        <ele>275.60000610352</ele>
        <time>2022-10-29T09:00:23.000Z</time>
      </trkpt>
      <trkpt lat="47.4541" lon="3.31308">
        <ele>275.60000610352</ele>
        <time>2022-10-29T09:00:24.000Z</time>
      </trkpt>
      <trkpt lat="47.45407" lon="3.31324">
        <ele>275.60000610352</ele>
        <time>2022-10-29T09:00:26.000Z</time>
      </trkpt>
      <trkpt lat="47.45405" lon="3.3133">
        <ele>275.60000610352</ele>
        <time>2022-10-29T09:00:27.000Z</time>
      </trkpt>
      <trkpt lat="47.45397" lon="3.31378">
        <ele>275.79998779297</ele>
        <time>2022-10-29T09:00:33.000Z</time>
      </trkpt>
      <trkpt lat="47.45392" lon="3.31396">
        <ele>276</ele>
        <time>2022-10-29T09:00:35.000Z</time>
      </trkpt>
      <trkpt lat="47.45385" lon="3.31418">
        <ele>276</ele>
        <time>2022-10-29T09:00:37.000Z</time>
      </trkpt>
      <trkpt lat="47.45386" lon="3.31425">
        <ele>276</ele>
        <time>2022-10-29T09:00:38.000Z</time>
      </trkpt>
      <trkpt lat="47.45385" lon="3.31451">
        <ele>276</ele>
        <time>2022-10-29T09:00:41.000Z</time>
      </trkpt>
      <trkpt lat="47.45384" lon="3.31457">
        <ele>276</ele>
        <time>2022-10-29T09:00:42.000Z</time>
      </trkpt>
      <trkpt lat="47.45385" lon="3.31472">
        <ele>276.20001220703</ele>
        <time>2022-10-29T09:00:44.000Z</time>
      </trkpt>
      <trkpt lat="47.45385" lon="3.31478">
        <ele>276.20001220703</ele>
        <time>2022-10-29T09:00:45.000Z</time>
      </trkpt>
      <trkpt lat="47.45383" lon="3.31484">
        <ele>276.20001220703</ele>
        <time>2022-10-29T09:00:46.000Z</time>
      </trkpt>
      <trkpt lat="47.45381" lon="3.31498">
        <ele>276.39999389648</ele>
        <time>2022-10-29T09:00:48.000Z</time>
      </trkpt>
      <trkpt lat="47.4538" lon="3.31508">
        <ele>276.20001220703</ele>
        <time>2022-10-29T09:00:49.000Z</time>
      </trkpt>
      <trkpt lat="47.45377" lon="3.31527">
        <ele>276.39999389648</ele>
        <time>2022-10-29T09:00:51.000Z</time>
      </trkpt>
      <trkpt lat="47.45376" lon="3.31535">
        <ele>276.39999389648</ele>
        <time>2022-10-29T09:00:52.000Z</time>
      </trkpt>
      <trkpt lat="47.45374" lon="3.31549">
        <ele>276.39999389648</ele>
        <time>2022-10-29T09:00:54.000Z</time>
      </trkpt>
      <trkpt lat="47.45371" lon="3.31566">
        <ele>276.60000610352</ele>
        <time>2022-10-29T09:00:57.000Z</time>
      </trkpt>
      <trkpt lat="47.45365" lon="3.31582">
        <ele>277</ele>
        <time>2022-10-29T09:00:59.000Z</time>
      </trkpt>
      <trkpt lat="47.45363" lon="3.31601">
        <ele>277.20001220703</ele>
        <time>2022-10-29T09:01:02.000Z</time>
      </trkpt>
      <trkpt lat="47.45358" lon="3.31631">
        <ele>278.20001220703</ele>
        <time>2022-10-29T09:01:06.000Z</time>
      </trkpt>
      <trkpt lat="47.45356" lon="3.31643">
        <ele>278.60000610352</ele>
        <time>2022-10-29T09:01:08.000Z</time>
      </trkpt>
      <trkpt lat="47.45345" lon="3.31682">
        <ele>279.20001220703</ele>
        <time>2022-10-29T09:01:13.000Z</time>
      </trkpt>
      <trkpt lat="47.45345" lon="3.31688">
        <ele>279.39999389648</ele>
        <time>2022-10-29T09:01:14.000Z</time>
      </trkpt>
      <trkpt lat="47.45342" lon="3.31725">
        <ele>280.39999389648</ele>
        <time>2022-10-29T09:01:19.000Z</time>
      </trkpt>
      <trkpt lat="47.45343" lon="3.3173">
        <ele>280.20001220703</ele>
        <time>2022-10-29T09:01:20.000Z</time>
      </trkpt>
      <trkpt lat="47.45341" lon="3.3176">
        <ele>280.79998779297</ele>
        <time>2022-10-29T09:01:24.000Z</time>
      </trkpt>
      <trkpt lat="47.45333" lon="3.31799">
        <ele>281.39999389648</ele>
        <time>2022-10-29T09:01:30.000Z</time>
      </trkpt>
      <trkpt lat="47.45333" lon="3.31808">
        <ele>281.39999389648</ele>
        <time>2022-10-29T09:01:31.000Z</time>
      </trkpt>
      <trkpt lat="47.4533" lon="3.31839">
        <ele>282.20001220703</ele>
        <time>2022-10-29T09:01:36.000Z</time>
      </trkpt>
      <trkpt lat="47.45324" lon="3.31854">
        <ele>282.39999389648</ele>
        <time>2022-10-29T09:01:38.000Z</time>
      </trkpt>
      <trkpt lat="47.45323" lon="3.3186">
        <ele>282.39999389648</ele>
        <time>2022-10-29T09:01:39.000Z</time>
      </trkpt>
      <trkpt lat="47.45321" lon="3.31879">
        <ele>282.79998779297</ele>
        <time>2022-10-29T09:01:42.000Z</time>
      </trkpt>
      <trkpt lat="47.45314" lon="3.31914">
        <ele>283.39999389648</ele>
        <time>2022-10-29T09:01:47.000Z</time>
      </trkpt>
      <trkpt lat="47.4531" lon="3.31954">
        <ele>284</ele>
        <time>2022-10-29T09:01:52.000Z</time>
      </trkpt>
      <trkpt lat="47.45307" lon="3.31984">
        <ele>284.60000610352</ele>
        <time>2022-10-29T09:01:56.000Z</time>
      </trkpt>
      <trkpt lat="47.45306" lon="3.31989">
        <ele>284.60000610352</ele>
        <time>2022-10-29T09:01:57.000Z</time>
      </trkpt>
      <trkpt lat="47.45302" lon="3.32014">
        <ele>285</ele>
        <time>2022-10-29T09:02:02.000Z</time>
      </trkpt>
      <trkpt lat="47.45293" lon="3.32049">
        <ele>285.39999389648</ele>
        <time>2022-10-29T09:02:07.000Z</time>
      </trkpt>
      <trkpt lat="47.45292" lon="3.32055">
        <ele>285.39999389648</ele>
        <time>2022-10-29T09:02:08.000Z</time>
      </trkpt>
      <trkpt lat="47.45281" lon="3.32099">
        <ele>286</ele>
        <time>2022-10-29T09:02:15.000Z</time>
      </trkpt>
      <trkpt lat="47.45274" lon="3.32133">
        <ele>286.39999389648</ele>
        <time>2022-10-29T09:02:20.000Z</time>
      </trkpt>
      <trkpt lat="47.4527" lon="3.3217">
        <ele>286.79998779297</ele>
        <time>2022-10-29T09:02:26.000Z</time>
      </trkpt>
      <trkpt lat="47.45265" lon="3.32199">
        <ele>287.39999389648</ele>
        <time>2022-10-29T09:02:30.000Z</time>
      </trkpt>
      <trkpt lat="47.45259" lon="3.32237">
        <ele>287.79998779297</ele>
        <time>2022-10-29T09:02:36.000Z</time>
      </trkpt>
      <trkpt lat="47.45256" lon="3.3227">
        <ele>288.39999389648</ele>
        <time>2022-10-29T09:02:41.000Z</time>
      </trkpt>
      <trkpt lat="47.45254" lon="3.32314">
        <ele>289</ele>
        <time>2022-10-29T09:02:48.000Z</time>
      </trkpt>
      <trkpt lat="47.45253" lon="3.32339">
        <ele>289.39999389648</ele>
        <time>2022-10-29T09:02:52.000Z</time>
      </trkpt>
      <trkpt lat="47.45253" lon="3.32359">
        <ele>289.79998779297</ele>
        <time>2022-10-29T09:02:55.000Z</time>
      </trkpt>
      <trkpt lat="47.4525" lon="3.32398">
        <ele>290.60000610352</ele>
        <time>2022-10-29T09:03:01.000Z</time>
      </trkpt>
      <trkpt lat="47.45248" lon="3.32404">
        <ele>290.60000610352</ele>
        <time>2022-10-29T09:03:02.000Z</time>
      </trkpt>
      <trkpt lat="47.45246" lon="3.32444">
        <ele>291.20001220703</ele>
        <time>2022-10-29T09:03:08.000Z</time>
      </trkpt>
      <trkpt lat="47.45246" lon="3.32456">
        <ele>291.60000610352</ele>
        <time>2022-10-29T09:03:10.000Z</time>
      </trkpt>
      <trkpt lat="47.45246" lon="3.32473">
        <ele>291.60000610352</ele>
        <time>2022-10-29T09:03:13.000Z</time>
      </trkpt>
      <trkpt lat="47.45243" lon="3.32494">
        <ele>291.79998779297</ele>
        <time>2022-10-29T09:03:16.000Z</time>
      </trkpt>
      <trkpt lat="47.45238" lon="3.32535">
        <ele>292.39999389648</ele>
        <time>2022-10-29T09:03:23.000Z</time>
      </trkpt>
      <trkpt lat="47.45237" lon="3.32541">
        <ele>292.60000610352</ele>
        <time>2022-10-29T09:03:24.000Z</time>
      </trkpt>
      <trkpt lat="47.45232" lon="3.32564">
        <ele>293</ele>
        <time>2022-10-29T09:03:28.000Z</time>
      </trkpt>
      <trkpt lat="47.45232" lon="3.32579">
        <ele>293.20001220703</ele>
        <time>2022-10-29T09:03:30.000Z</time>
      </trkpt>
      <trkpt lat="47.45233" lon="3.32593">
        <ele>293.39999389648</ele>
        <time>2022-10-29T09:03:32.000Z</time>
      </trkpt>
      <trkpt lat="47.45231" lon="3.32618">
        <ele>293.60000610352</ele>
        <time>2022-10-29T09:03:35.000Z</time>
      </trkpt>
      <trkpt lat="47.4523" lon="3.32646">
        <ele>293.79998779297</ele>
        <time>2022-10-29T09:03:39.000Z</time>
      </trkpt>
      <trkpt lat="47.45227" lon="3.32683">
        <ele>294.20001220703</ele>
        <time>2022-10-29T09:03:45.000Z</time>
      </trkpt>
      <trkpt lat="47.45226" lon="3.32718">
        <ele>294.20001220703</ele>
        <time>2022-10-29T09:03:51.000Z</time>
      </trkpt>
      <trkpt lat="47.45226" lon="3.32731">
        <ele>294.39999389648</ele>
        <time>2022-10-29T09:03:53.000Z</time>
      </trkpt>
      <trkpt lat="47.45224" lon="3.32757">
        <ele>294.60000610352</ele>
        <time>2022-10-29T09:03:57.000Z</time>
      </trkpt>
      <trkpt lat="47.4522" lon="3.32815">
        <ele>294.79998779297</ele>
        <time>2022-10-29T09:04:04.000Z</time>
      </trkpt>
      <trkpt lat="47.45219" lon="3.32821">
        <ele>294.79998779297</ele>
        <time>2022-10-29T09:04:05.000Z</time>
      </trkpt>
      <trkpt lat="47.45214" lon="3.3287">
        <ele>294.79998779297</ele>
        <time>2022-10-29T09:04:11.000Z</time>
      </trkpt>
      <trkpt lat="47.4521" lon="3.32904">
        <ele>295</ele>
        <time>2022-10-29T09:04:15.000Z</time>
      </trkpt>
      <trkpt lat="47.4521" lon="3.32918">
        <ele>295.20001220703</ele>
        <time>2022-10-29T09:04:17.000Z</time>
      </trkpt>
      <trkpt lat="47.45204" lon="3.32967">
        <ele>295.20001220703</ele>
        <time>2022-10-29T09:04:23.000Z</time>
      </trkpt>
      <trkpt lat="47.45203" lon="3.32996">
        <ele>295.60000610352</ele>
        <time>2022-10-29T09:04:26.000Z</time>
      </trkpt>
      <trkpt lat="47.45202" lon="3.33004">
        <ele>295.60000610352</ele>
        <time>2022-10-29T09:04:27.000Z</time>
      </trkpt>
      <trkpt lat="47.45197" lon="3.33035">
        <ele>295.79998779297</ele>
        <time>2022-10-29T09:04:31.000Z</time>
      </trkpt>
      <trkpt lat="47.45197" lon="3.33071">
        <ele>296.20001220703</ele>
        <time>2022-10-29T09:04:36.000Z</time>
      </trkpt>
      <trkpt lat="47.45195" lon="3.33079">
        <ele>296.39999389648</ele>
        <time>2022-10-29T09:04:37.000Z</time>
      </trkpt>
      <trkpt lat="47.45194" lon="3.33116">
        <ele>297</ele>
        <time>2022-10-29T09:04:42.000Z</time>
      </trkpt>
      <trkpt lat="47.45194" lon="3.33123">
        <ele>297</ele>
        <time>2022-10-29T09:04:43.000Z</time>
      </trkpt>
      <trkpt lat="47.45192" lon="3.33141">
        <ele>297</ele>
        <time>2022-10-29T09:04:45.000Z</time>
      </trkpt>
      <trkpt lat="47.45192" lon="3.33146">
        <ele>297</ele>
        <time>2022-10-29T09:04:46.000Z</time>
      </trkpt>
      <trkpt lat="47.45186" lon="3.332">
        <ele>297.39999389648</ele>
        <time>2022-10-29T09:04:53.000Z</time>
      </trkpt>
      <trkpt lat="47.45186" lon="3.33213">
        <ele>297.60000610352</ele>
        <time>2022-10-29T09:04:55.000Z</time>
      </trkpt>
      <trkpt lat="47.45185" lon="3.33233">
        <ele>297.79998779297</ele>
        <time>2022-10-29T09:04:58.000Z</time>
      </trkpt>
      <trkpt lat="47.45178" lon="3.33286">
        <ele>298.20001220703</ele>
        <time>2022-10-29T09:05:05.000Z</time>
      </trkpt>
      <trkpt lat="47.45179" lon="3.33292">
        <ele>298.39999389648</ele>
        <time>2022-10-29T09:05:06.000Z</time>
      </trkpt>
      <trkpt lat="47.45178" lon="3.33333">
        <ele>298.60000610352</ele>
        <time>2022-10-29T09:05:12.000Z</time>
      </trkpt>
      <trkpt lat="47.45171" lon="3.3337">
        <ele>299.20001220703</ele>
        <time>2022-10-29T09:05:17.000Z</time>
      </trkpt>
      <trkpt lat="47.4517" lon="3.33376">
        <ele>299.20001220703</ele>
        <time>2022-10-29T09:05:18.000Z</time>
      </trkpt>
      <trkpt lat="47.45176" lon="3.33404">
        <ele>299.60000610352</ele>
        <time>2022-10-29T09:05:22.000Z</time>
      </trkpt>
      <trkpt lat="47.45173" lon="3.33434">
        <ele>299.79998779297</ele>
        <time>2022-10-29T09:05:26.000Z</time>
      </trkpt>
      <trkpt lat="47.45172" lon="3.33453">
        <ele>300</ele>
        <time>2022-10-29T09:05:29.000Z</time>
      </trkpt>
      <trkpt lat="47.4517" lon="3.33468">
        <ele>300.20001220703</ele>
        <time>2022-10-29T09:05:32.000Z</time>
      </trkpt>
      <trkpt lat="47.45168" lon="3.33498">
        <ele>300.60000610352</ele>
        <time>2022-10-29T09:05:36.000Z</time>
      </trkpt>
      <trkpt lat="47.45168" lon="3.33511">
        <ele>300.79998779297</ele>
        <time>2022-10-29T09:05:38.000Z</time>
      </trkpt>
      <trkpt lat="47.45166" lon="3.33538">
        <ele>301.20001220703</ele>
        <time>2022-10-29T09:05:42.000Z</time>
      </trkpt>
      <trkpt lat="47.45164" lon="3.33552">
        <ele>301.39999389648</ele>
        <time>2022-10-29T09:05:44.000Z</time>
      </trkpt>
      <trkpt lat="47.4516" lon="3.33582">
        <ele>301.60000610352</ele>
        <time>2022-10-29T09:05:48.000Z</time>
      </trkpt>
      <trkpt lat="47.45158" lon="3.33605">
        <ele>302</ele>
        <time>2022-10-29T09:05:51.000Z</time>
      </trkpt>
      <trkpt lat="47.45156" lon="3.33633">
        <ele>302</ele>
        <time>2022-10-29T09:05:55.000Z</time>
      </trkpt>
      <trkpt lat="47.45155" lon="3.33681">
        <ele>302</ele>
        <time>2022-10-29T09:06:01.000Z</time>
      </trkpt>
      <trkpt lat="47.45155" lon="3.33689">
        <ele>302</ele>
        <time>2022-10-29T09:06:02.000Z</time>
      </trkpt>
      <trkpt lat="47.45156" lon="3.33712">
        <ele>302</ele>
        <time>2022-10-29T09:06:05.000Z</time>
      </trkpt>
      <trkpt lat="47.45156" lon="3.33742">
        <ele>302.20001220703</ele>
        <time>2022-10-29T09:06:09.000Z</time>
      </trkpt>
      <trkpt lat="47.45155" lon="3.33756">
        <ele>302.20001220703</ele>
        <time>2022-10-29T09:06:11.000Z</time>
      </trkpt>
      <trkpt lat="47.45156" lon="3.33787">
        <ele>302.39999389648</ele>
        <time>2022-10-29T09:06:15.000Z</time>
      </trkpt>
      <trkpt lat="47.45158" lon="3.33856">
        <ele>302.60000610352</ele>
        <time>2022-10-29T09:06:24.000Z</time>
      </trkpt>
      <trkpt lat="47.45158" lon="3.33865">
        <ele>302.79998779297</ele>
        <time>2022-10-29T09:06:25.000Z</time>
      </trkpt>
      <trkpt lat="47.45157" lon="3.33897">
        <ele>303</ele>
        <time>2022-10-29T09:06:29.000Z</time>
      </trkpt>
      <trkpt lat="47.45158" lon="3.33903">
        <ele>303</ele>
        <time>2022-10-29T09:06:30.000Z</time>
      </trkpt>
      <trkpt lat="47.45159" lon="3.33956">
        <ele>303.20001220703</ele>
        <time>2022-10-29T09:06:37.000Z</time>
      </trkpt>
      <trkpt lat="47.4516" lon="3.34005">
        <ele>303</ele>
        <time>2022-10-29T09:06:43.000Z</time>
      </trkpt>
      <trkpt lat="47.45159" lon="3.34015">
        <ele>303</ele>
        <time>2022-10-29T09:06:44.000Z</time>
      </trkpt>
      <trkpt lat="47.45158" lon="3.34023">
        <ele>303</ele>
        <time>2022-10-29T09:06:45.000Z</time>
      </trkpt>
      <trkpt lat="47.45155" lon="3.34041">
        <ele>303</ele>
        <time>2022-10-29T09:06:47.000Z</time>
      </trkpt>
      <trkpt lat="47.45155" lon="3.34049">
        <ele>303</ele>
        <time>2022-10-29T09:06:48.000Z</time>
      </trkpt>
      <trkpt lat="47.45155" lon="3.34054">
        <ele>303</ele>
        <time>2022-10-29T09:06:49.000Z</time>
      </trkpt>
      <trkpt lat="47.4515" lon="3.34069">
        <ele>303</ele>
        <time>2022-10-29T09:06:51.000Z</time>
      </trkpt>
      <trkpt lat="47.45147" lon="3.34086">
        <ele>302.79998779297</ele>
        <time>2022-10-29T09:06:53.000Z</time>
      </trkpt>
      <trkpt lat="47.45143" lon="3.34105">
        <ele>302.39999389648</ele>
        <time>2022-10-29T09:06:56.000Z</time>
      </trkpt>
      <trkpt lat="47.4514" lon="3.3413">
        <ele>302</ele>
        <time>2022-10-29T09:06:59.000Z</time>
      </trkpt>
      <trkpt lat="47.45139" lon="3.34153">
        <ele>301</ele>
        <time>2022-10-29T09:07:03.000Z</time>
      </trkpt>
      <trkpt lat="47.45137" lon="3.34161">
        <ele>300.60000610352</ele>
        <time>2022-10-29T09:07:05.000Z</time>
      </trkpt>
      <trkpt lat="47.45132" lon="3.34188">
        <ele>299.79998779297</ele>
        <time>2022-10-29T09:07:09.000Z</time>
      </trkpt>
      <trkpt lat="47.45131" lon="3.34194">
        <ele>299.60000610352</ele>
        <time>2022-10-29T09:07:10.000Z</time>
      </trkpt>
      <trkpt lat="47.4513" lon="3.34212">
        <ele>298.60000610352</ele>
        <time>2022-10-29T09:07:15.000Z</time>
      </trkpt>
      <trkpt lat="47.4513" lon="3.34216">
        <ele>298.20001220703</ele>
        <time>2022-10-29T09:07:16.000Z</time>
      </trkpt>
      <trkpt lat="47.45127" lon="3.34233">
        <ele>296.79998779297</ele>
        <time>2022-10-29T09:07:21.000Z</time>
      </trkpt>
      <trkpt lat="47.45126" lon="3.34237">
        <ele>296.79998779297</ele>
        <time>2022-10-29T09:07:22.000Z</time>
      </trkpt>
      <trkpt lat="47.4512" lon="3.34265">
        <ele>296</ele>
        <time>2022-10-29T09:07:26.000Z</time>
      </trkpt>
      <trkpt lat="47.45117" lon="3.34272">
        <ele>296</ele>
        <time>2022-10-29T09:07:27.000Z</time>
      </trkpt>
      <trkpt lat="47.45115" lon="3.3428">
        <ele>295.60000610352</ele>
        <time>2022-10-29T09:07:28.000Z</time>
      </trkpt>
      <trkpt lat="47.45112" lon="3.34299">
        <ele>295.20001220703</ele>
        <time>2022-10-29T09:07:30.000Z</time>
      </trkpt>
      <trkpt lat="47.45111" lon="3.34308">
        <ele>295</ele>
        <time>2022-10-29T09:07:31.000Z</time>
      </trkpt>
      <trkpt lat="47.45111" lon="3.34317">
        <ele>294.39999389648</ele>
        <time>2022-10-29T09:07:32.000Z</time>
      </trkpt>
      <trkpt lat="47.45109" lon="3.34325">
        <ele>293.79998779297</ele>
        <time>2022-10-29T09:07:33.000Z</time>
      </trkpt>
      <trkpt lat="47.45107" lon="3.34338">
        <ele>293</ele>
        <time>2022-10-29T09:07:35.000Z</time>
      </trkpt>
      <trkpt lat="47.45102" lon="3.34357">
        <ele>292.60000610352</ele>
        <time>2022-10-29T09:07:37.000Z</time>
      </trkpt>
      <trkpt lat="47.45098" lon="3.34377">
        <ele>291.79998779297</ele>
        <time>2022-10-29T09:07:39.000Z</time>
      </trkpt>
      <trkpt lat="47.45093" lon="3.34398">
        <ele>290.60000610352</ele>
        <time>2022-10-29T09:07:41.000Z</time>
      </trkpt>
      <trkpt lat="47.45086" lon="3.34426">
        <ele>289.39999389648</ele>
        <time>2022-10-29T09:07:44.000Z</time>
      </trkpt>
      <trkpt lat="47.45083" lon="3.34437">
        <ele>288.79998779297</ele>
        <time>2022-10-29T09:07:45.000Z</time>
      </trkpt>
      <trkpt lat="47.45078" lon="3.34455">
        <ele>288</ele>
        <time>2022-10-29T09:07:47.000Z</time>
      </trkpt>
      <trkpt lat="47.45073" lon="3.34475">
        <ele>286.39999389648</ele>
        <time>2022-10-29T09:07:50.000Z</time>
      </trkpt>
      <trkpt lat="47.45068" lon="3.34496">
        <ele>285.20001220703</ele>
        <time>2022-10-29T09:07:52.000Z</time>
      </trkpt>
      <trkpt lat="47.45061" lon="3.34534">
        <ele>283.60000610352</ele>
        <time>2022-10-29T09:07:54.000Z</time>
      </trkpt>
      <trkpt lat="47.45058" lon="3.34548">
        <ele>283</ele>
        <time>2022-10-29T09:07:55.000Z</time>
      </trkpt>
      <trkpt lat="47.45055" lon="3.34562">
        <ele>282.39999389648</ele>
        <time>2022-10-29T09:07:56.000Z</time>
      </trkpt>
      <trkpt lat="47.45053" lon="3.34575">
        <ele>281.39999389648</ele>
        <time>2022-10-29T09:07:57.000Z</time>
      </trkpt>
      <trkpt lat="47.45048" lon="3.34601">
        <ele>280.20001220703</ele>
        <time>2022-10-29T09:07:59.000Z</time>
      </trkpt>
      <trkpt lat="47.45041" lon="3.34629">
        <ele>279</ele>
        <time>2022-10-29T09:08:01.000Z</time>
      </trkpt>
      <trkpt lat="47.45041" lon="3.34629">
        <ele>278.20001220703</ele>
        <time>2022-10-29T09:08:02.000Z</time>
      </trkpt>
      <trkpt lat="47.45034" lon="3.34657">
        <ele>277.79998779297</ele>
        <time>2022-10-29T09:08:03.000Z</time>
      </trkpt>
      <trkpt lat="47.45029" lon="3.34685">
        <ele>276.60000610352</ele>
        <time>2022-10-29T09:08:05.000Z</time>
      </trkpt>
      <trkpt lat="47.45024" lon="3.34727">
        <ele>275.20001220703</ele>
        <time>2022-10-29T09:08:08.000Z</time>
      </trkpt>
      <trkpt lat="47.45018" lon="3.34769">
        <ele>273.60000610352</ele>
        <time>2022-10-29T09:08:11.000Z</time>
      </trkpt>
      <trkpt lat="47.45014" lon="3.34809">
        <ele>272.60000610352</ele>
        <time>2022-10-29T09:08:14.000Z</time>
      </trkpt>
      <trkpt lat="47.45013" lon="3.34822">
        <ele>272.39999389648</ele>
        <time>2022-10-29T09:08:15.000Z</time>
      </trkpt>
      <trkpt lat="47.45013" lon="3.34849">
        <ele>271.60000610352</ele>
        <time>2022-10-29T09:08:17.000Z</time>
      </trkpt>
      <trkpt lat="47.45016" lon="3.34889">
        <ele>270.39999389648</ele>
        <time>2022-10-29T09:08:20.000Z</time>
      </trkpt>
      <trkpt lat="47.45019" lon="3.3493">
        <ele>269.39999389648</ele>
        <time>2022-10-29T09:08:23.000Z</time>
      </trkpt>
      <trkpt lat="47.45021" lon="3.34969">
        <ele>268</ele>
        <time>2022-10-29T09:08:26.000Z</time>
      </trkpt>
      <trkpt lat="47.45023" lon="3.35">
        <ele>267.39999389648</ele>
        <time>2022-10-29T09:08:28.000Z</time>
      </trkpt>
      <trkpt lat="47.45025" lon="3.35028">
        <ele>266.39999389648</ele>
        <time>2022-10-29T09:08:30.000Z</time>
      </trkpt>
      <trkpt lat="47.45027" lon="3.35069">
        <ele>265</ele>
        <time>2022-10-29T09:08:33.000Z</time>
      </trkpt>
      <trkpt lat="47.45029" lon="3.35083">
        <ele>264.60000610352</ele>
        <time>2022-10-29T09:08:34.000Z</time>
      </trkpt>
      <trkpt lat="47.45031" lon="3.35124">
        <ele>263.20001220703</ele>
        <time>2022-10-29T09:08:37.000Z</time>
      </trkpt>
      <trkpt lat="47.4503" lon="3.35149">
        <ele>262.60000610352</ele>
        <time>2022-10-29T09:08:39.000Z</time>
      </trkpt>
      <trkpt lat="47.45028" lon="3.35162">
        <ele>262.20001220703</ele>
        <time>2022-10-29T09:08:40.000Z</time>
      </trkpt>
      <trkpt lat="47.45017" lon="3.35196">
        <ele>261.79998779297</ele>
        <time>2022-10-29T09:08:43.000Z</time>
      </trkpt>
      <trkpt lat="47.44997" lon="3.35235">
        <ele>262</ele>
        <time>2022-10-29T09:08:48.000Z</time>
      </trkpt>
      <trkpt lat="47.4497" lon="3.35283">
        <ele>262.79998779297</ele>
        <time>2022-10-29T09:08:55.000Z</time>
      </trkpt>
      <trkpt lat="47.44958" lon="3.35302">
        <ele>263.60000610352</ele>
        <time>2022-10-29T09:08:59.000Z</time>
      </trkpt>
      <trkpt lat="47.44956" lon="3.35306">
        <ele>264.39999389648</ele>
        <time>2022-10-29T09:09:01.000Z</time>
      </trkpt>
      <trkpt lat="47.44951" lon="3.35314">
        <ele>264.60000610352</ele>
        <time>2022-10-29T09:09:02.000Z</time>
      </trkpt>
      <trkpt lat="47.44944" lon="3.35325">
        <ele>265.60000610352</ele>
        <time>2022-10-29T09:09:05.000Z</time>
      </trkpt>
      <trkpt lat="47.44942" lon="3.35329">
        <ele>266</ele>
        <time>2022-10-29T09:09:06.000Z</time>
      </trkpt>
      <trkpt lat="47.44935" lon="3.3534">
        <ele>267</ele>
        <time>2022-10-29T09:09:09.000Z</time>
      </trkpt>
      <trkpt lat="47.44929" lon="3.35351">
        <ele>267.79998779297</ele>
        <time>2022-10-29T09:09:12.000Z</time>
      </trkpt>
      <trkpt lat="47.44927" lon="3.35355">
        <ele>268</ele>
        <time>2022-10-29T09:09:13.000Z</time>
      </trkpt>
      <trkpt lat="47.4492" lon="3.35367">
        <ele>269.60000610352</ele>
        <time>2022-10-29T09:09:16.000Z</time>
      </trkpt>
      <trkpt lat="47.44914" lon="3.35378">
        <ele>270.39999389648</ele>
        <time>2022-10-29T09:09:19.000Z</time>
      </trkpt>
      <trkpt lat="47.44914" lon="3.35378">
        <ele>270.60000610352</ele>
        <time>2022-10-29T09:09:20.000Z</time>
      </trkpt>
      <trkpt lat="47.44903" lon="3.35397">
        <ele>271.39999389648</ele>
        <time>2022-10-29T09:09:24.000Z</time>
      </trkpt>
      <trkpt lat="47.44893" lon="3.35415">
        <ele>272.79998779297</ele>
        <time>2022-10-29T09:09:28.000Z</time>
      </trkpt>
      <trkpt lat="47.44886" lon="3.35429">
        <ele>273.79998779297</ele>
        <time>2022-10-29T09:09:31.000Z</time>
      </trkpt>
      <trkpt lat="47.44879" lon="3.35441">
        <ele>274.60000610352</ele>
        <time>2022-10-29T09:09:34.000Z</time>
      </trkpt>
      <trkpt lat="47.44876" lon="3.35446">
        <ele>274.79998779297</ele>
        <time>2022-10-29T09:09:35.000Z</time>
      </trkpt>
      <trkpt lat="47.44866" lon="3.35469">
        <ele>276.20001220703</ele>
        <time>2022-10-29T09:09:40.000Z</time>
      </trkpt>
      <trkpt lat="47.44858" lon="3.35488">
        <ele>277.20001220703</ele>
        <time>2022-10-29T09:09:44.000Z</time>
      </trkpt>
      <trkpt lat="47.44853" lon="3.35495">
        <ele>277.60000610352</ele>
        <time>2022-10-29T09:09:46.000Z</time>
      </trkpt>
      <trkpt lat="47.44847" lon="3.35504">
        <ele>278.39999389648</ele>
        <time>2022-10-29T09:09:48.000Z</time>
      </trkpt>
      <trkpt lat="47.44839" lon="3.35519">
        <ele>278.79998779297</ele>
        <time>2022-10-29T09:09:51.000Z</time>
      </trkpt>
      <trkpt lat="47.44834" lon="3.35526">
        <ele>279.39999389648</ele>
        <time>2022-10-29T09:09:53.000Z</time>
      </trkpt>
      <trkpt lat="47.44827" lon="3.35537">
        <ele>280</ele>
        <time>2022-10-29T09:09:56.000Z</time>
      </trkpt>
      <trkpt lat="47.44822" lon="3.35544">
        <ele>280.39999389648</ele>
        <time>2022-10-29T09:09:58.000Z</time>
      </trkpt>
      <trkpt lat="47.44812" lon="3.35558">
        <ele>280.79998779297</ele>
        <time>2022-10-29T09:10:02.000Z</time>
      </trkpt>
      <trkpt lat="47.44788" lon="3.35594">
        <ele>281.20001220703</ele>
        <time>2022-10-29T09:10:09.000Z</time>
      </trkpt>
      <trkpt lat="47.44777" lon="3.35615">
        <ele>280.79998779297</ele>
        <time>2022-10-29T09:10:12.000Z</time>
      </trkpt>
      <trkpt lat="47.44764" lon="3.35636">
        <ele>280.79998779297</ele>
        <time>2022-10-29T09:10:15.000Z</time>
      </trkpt>
      <trkpt lat="47.4473" lon="3.35687">
        <ele>280.20001220703</ele>
        <time>2022-10-29T09:10:23.000Z</time>
      </trkpt>
      <trkpt lat="47.44693" lon="3.35732">
        <ele>279.79998779297</ele>
        <time>2022-10-29T09:10:30.000Z</time>
      </trkpt>
      <trkpt lat="47.44655" lon="3.3578">
        <ele>280</ele>
        <time>2022-10-29T09:10:39.000Z</time>
      </trkpt>
      <trkpt lat="47.44645" lon="3.35793">
        <ele>280.39999389648</ele>
        <time>2022-10-29T09:10:42.000Z</time>
      </trkpt>
      <trkpt lat="47.44633" lon="3.35805">
        <ele>280.79998779297</ele>
        <time>2022-10-29T09:10:45.000Z</time>
      </trkpt>
      <trkpt lat="47.44626" lon="3.35812">
        <ele>281.20001220703</ele>
        <time>2022-10-29T09:10:47.000Z</time>
      </trkpt>
      <trkpt lat="47.44622" lon="3.35817">
        <ele>281.39999389648</ele>
        <time>2022-10-29T09:10:48.000Z</time>
      </trkpt>
      <trkpt lat="47.44619" lon="3.35821">
        <ele>281.39999389648</ele>
        <time>2022-10-29T09:10:49.000Z</time>
      </trkpt>
      <trkpt lat="47.44615" lon="3.35828">
        <ele>281.60000610352</ele>
        <time>2022-10-29T09:10:50.000Z</time>
      </trkpt>
      <trkpt lat="47.44605" lon="3.35841">
        <ele>282</ele>
        <time>2022-10-29T09:10:53.000Z</time>
      </trkpt>
      <trkpt lat="47.44596" lon="3.35854">
        <ele>282.60000610352</ele>
        <time>2022-10-29T09:10:56.000Z</time>
      </trkpt>
      <trkpt lat="47.44594" lon="3.35857">
        <ele>282.79998779297</ele>
        <time>2022-10-29T09:10:57.000Z</time>
      </trkpt>
      <trkpt lat="47.4458" lon="3.35882">
        <ele>283.79998779297</ele>
        <time>2022-10-29T09:11:02.000Z</time>
      </trkpt>
      <trkpt lat="47.4458" lon="3.35882">
        <ele>284</ele>
        <time>2022-10-29T09:11:03.000Z</time>
      </trkpt>
      <trkpt lat="47.44566" lon="3.35914">
        <ele>284.60000610352</ele>
        <time>2022-10-29T09:11:08.000Z</time>
      </trkpt>
      <trkpt lat="47.44563" lon="3.35921">
        <ele>285</ele>
        <time>2022-10-29T09:11:09.000Z</time>
      </trkpt>
      <trkpt lat="47.44549" lon="3.35956">
        <ele>286</ele>
        <time>2022-10-29T09:11:15.000Z</time>
      </trkpt>
      <trkpt lat="47.44549" lon="3.35961">
        <ele>286.20001220703</ele>
        <time>2022-10-29T09:11:16.000Z</time>
      </trkpt>
      <trkpt lat="47.44543" lon="3.35986">
        <ele>287</ele>
        <time>2022-10-29T09:11:21.000Z</time>
      </trkpt>
      <trkpt lat="47.44537" lon="3.35997">
        <ele>287.20001220703</ele>
        <time>2022-10-29T09:11:22.000Z</time>
      </trkpt>
      <trkpt lat="47.44531" lon="3.36031">
        <ele>288.20001220703</ele>
        <time>2022-10-29T09:11:27.000Z</time>
      </trkpt>
      <trkpt lat="47.4453" lon="3.36038">
        <ele>288.39999389648</ele>
        <time>2022-10-29T09:11:28.000Z</time>
      </trkpt>
      <trkpt lat="47.4452" lon="3.3607">
        <ele>289.39999389648</ele>
        <time>2022-10-29T09:11:33.000Z</time>
      </trkpt>
      <trkpt lat="47.44514" lon="3.36104">
        <ele>290</ele>
        <time>2022-10-29T09:11:39.000Z</time>
      </trkpt>
      <trkpt lat="47.44509" lon="3.36122">
        <ele>290.20001220703</ele>
        <time>2022-10-29T09:11:42.000Z</time>
      </trkpt>
      <trkpt lat="47.44501" lon="3.36148">
        <ele>290.79998779297</ele>
        <time>2022-10-29T09:11:46.000Z</time>
      </trkpt>
      <trkpt lat="47.4449" lon="3.36182">
        <ele>291</ele>
        <time>2022-10-29T09:11:52.000Z</time>
      </trkpt>
      <trkpt lat="47.44474" lon="3.36222">
        <ele>291.20001220703</ele>
        <time>2022-10-29T09:11:59.000Z</time>
      </trkpt>
      <trkpt lat="47.44462" lon="3.36246">
        <ele>291.20001220703</ele>
        <time>2022-10-29T09:12:03.000Z</time>
      </trkpt>
      <trkpt lat="47.44453" lon="3.36263">
        <ele>291.20001220703</ele>
        <time>2022-10-29T09:12:06.000Z</time>
      </trkpt>
      <trkpt lat="47.44431" lon="3.36307">
        <ele>291.20001220703</ele>
        <time>2022-10-29T09:12:13.000Z</time>
      </trkpt>
      <trkpt lat="47.44428" lon="3.36314">
        <ele>291.20001220703</ele>
        <time>2022-10-29T09:12:14.000Z</time>
      </trkpt>
      <trkpt lat="47.44425" lon="3.3632">
        <ele>291.20001220703</ele>
        <time>2022-10-29T09:12:15.000Z</time>
      </trkpt>
      <trkpt lat="47.44422" lon="3.36325">
        <ele>291.39999389648</ele>
        <time>2022-10-29T09:12:16.000Z</time>
      </trkpt>
      <trkpt lat="47.44417" lon="3.36336">
        <ele>291.60000610352</ele>
        <time>2022-10-29T09:12:19.000Z</time>
      </trkpt>
      <trkpt lat="47.444" lon="3.36371">
        <ele>291.79998779297</ele>
        <time>2022-10-29T09:12:24.000Z</time>
      </trkpt>
      <trkpt lat="47.44398" lon="3.36374">
        <ele>292</ele>
        <time>2022-10-29T09:12:25.000Z</time>
      </trkpt>
      <trkpt lat="47.44392" lon="3.36384">
        <ele>292.20001220703</ele>
        <time>2022-10-29T09:12:27.000Z</time>
      </trkpt>
      <trkpt lat="47.44388" lon="3.36393">
        <ele>292.60000610352</ele>
        <time>2022-10-29T09:12:28.000Z</time>
      </trkpt>
      <trkpt lat="47.44384" lon="3.36403">
        <ele>293</ele>
        <time>2022-10-29T09:12:30.000Z</time>
      </trkpt>
      <trkpt lat="47.44372" lon="3.36427">
        <ele>293.60000610352</ele>
        <time>2022-10-29T09:12:34.000Z</time>
      </trkpt>
      <trkpt lat="47.44356" lon="3.3646">
        <ele>294.20001220703</ele>
        <time>2022-10-29T09:12:39.000Z</time>
      </trkpt>
      <trkpt lat="47.44352" lon="3.36471">
        <ele>294.60000610352</ele>
        <time>2022-10-29T09:12:41.000Z</time>
      </trkpt>
      <trkpt lat="47.4435" lon="3.36478">
        <ele>294.60000610352</ele>
        <time>2022-10-29T09:12:42.000Z</time>
      </trkpt>
      <trkpt lat="47.44346" lon="3.36498">
        <ele>295</ele>
        <time>2022-10-29T09:12:45.000Z</time>
      </trkpt>
      <trkpt lat="47.44344" lon="3.36503">
        <ele>295.20001220703</ele>
        <time>2022-10-29T09:12:46.000Z</time>
      </trkpt>
      <trkpt lat="47.44342" lon="3.36517">
        <ele>295.60000610352</ele>
        <time>2022-10-29T09:12:48.000Z</time>
      </trkpt>
      <trkpt lat="47.44341" lon="3.36523">
        <ele>295.60000610352</ele>
        <time>2022-10-29T09:12:49.000Z</time>
      </trkpt>
      <trkpt lat="47.44333" lon="3.36574">
        <ele>295.79998779297</ele>
        <time>2022-10-29T09:12:57.000Z</time>
      </trkpt>
      <trkpt lat="47.44329" lon="3.36594">
        <ele>295.60000610352</ele>
        <time>2022-10-29T09:13:00.000Z</time>
      </trkpt>
      <trkpt lat="47.44326" lon="3.36601">
        <ele>295.39999389648</ele>
        <time>2022-10-29T09:13:02.000Z</time>
      </trkpt>
      <trkpt lat="47.44324" lon="3.36618">
        <ele>295.39999389648</ele>
        <time>2022-10-29T09:13:03.000Z</time>
      </trkpt>
      <trkpt lat="47.44322" lon="3.36634">
        <ele>294.60000610352</ele>
        <time>2022-10-29T09:13:05.000Z</time>
      </trkpt>
      <trkpt lat="47.44322" lon="3.36643">
        <ele>294.39999389648</ele>
        <time>2022-10-29T09:13:06.000Z</time>
      </trkpt>
      <trkpt lat="47.44322" lon="3.36662">
        <ele>293.79998779297</ele>
        <time>2022-10-29T09:13:08.000Z</time>
      </trkpt>
      <trkpt lat="47.44323" lon="3.36681">
        <ele>293</ele>
        <time>2022-10-29T09:13:10.000Z</time>
      </trkpt>
      <trkpt lat="47.44323" lon="3.36693">
        <ele>292.79998779297</ele>
        <time>2022-10-29T09:13:11.000Z</time>
      </trkpt>
      <trkpt lat="47.44325" lon="3.36725">
        <ele>291.79998779297</ele>
        <time>2022-10-29T09:13:13.000Z</time>
      </trkpt>
      <trkpt lat="47.44326" lon="3.36741">
        <ele>291.20001220703</ele>
        <time>2022-10-29T09:13:14.000Z</time>
      </trkpt>
      <trkpt lat="47.44326" lon="3.36754">
        <ele>290.39999389648</ele>
        <time>2022-10-29T09:13:15.000Z</time>
      </trkpt>
      <trkpt lat="47.44327" lon="3.3677">
        <ele>289.20001220703</ele>
        <time>2022-10-29T09:13:16.000Z</time>
      </trkpt>
      <trkpt lat="47.44328" lon="3.3679">
        <ele>288.20001220703</ele>
        <time>2022-10-29T09:13:17.000Z</time>
      </trkpt>
      <trkpt lat="47.44329" lon="3.36819">
        <ele>287</ele>
        <time>2022-10-29T09:13:19.000Z</time>
      </trkpt>
      <trkpt lat="47.44331" lon="3.36846">
        <ele>285.79998779297</ele>
        <time>2022-10-29T09:13:21.000Z</time>
      </trkpt>
      <trkpt lat="47.44333" lon="3.36892">
        <ele>284.60000610352</ele>
        <time>2022-10-29T09:13:24.000Z</time>
      </trkpt>
      <trkpt lat="47.44333" lon="3.36905">
        <ele>284.39999389648</ele>
        <time>2022-10-29T09:13:25.000Z</time>
      </trkpt>
      <trkpt lat="47.44335" lon="3.36939">
        <ele>283.60000610352</ele>
        <time>2022-10-29T09:13:28.000Z</time>
      </trkpt>
      <trkpt lat="47.44336" lon="3.36951">
        <ele>283.39999389648</ele>
        <time>2022-10-29T09:13:29.000Z</time>
      </trkpt>
      <trkpt lat="47.44336" lon="3.36963">
        <ele>283.20001220703</ele>
        <time>2022-10-29T09:13:30.000Z</time>
      </trkpt>
      <trkpt lat="47.44337" lon="3.36974">
        <ele>283</ele>
        <time>2022-10-29T09:13:31.000Z</time>
      </trkpt>
      <trkpt lat="47.4434" lon="3.37009">
        <ele>282.39999389648</ele>
        <time>2022-10-29T09:13:34.000Z</time>
      </trkpt>
      <trkpt lat="47.44339" lon="3.37078">
        <ele>281.20001220703</ele>
        <time>2022-10-29T09:13:40.000Z</time>
      </trkpt>
      <trkpt lat="47.44335" lon="3.37114">
        <ele>280</ele>
        <time>2022-10-29T09:13:43.000Z</time>
      </trkpt>
      <trkpt lat="47.44329" lon="3.37144">
        <ele>279.39999389648</ele>
        <time>2022-10-29T09:13:46.000Z</time>
      </trkpt>
      <trkpt lat="47.44318" lon="3.37169">
        <ele>278.60000610352</ele>
        <time>2022-10-29T09:13:48.000Z</time>
      </trkpt>
      <trkpt lat="47.44307" lon="3.3719">
        <ele>277.60000610352</ele>
        <time>2022-10-29T09:13:50.000Z</time>
      </trkpt>
      <trkpt lat="47.44307" lon="3.3719">
        <ele>277.20001220703</ele>
        <time>2022-10-29T09:13:51.000Z</time>
      </trkpt>
      <trkpt lat="47.44278" lon="3.37244">
        <ele>276</ele>
        <time>2022-10-29T09:13:55.000Z</time>
      </trkpt>
      <trkpt lat="47.44267" lon="3.37266">
        <ele>275.20001220703</ele>
        <time>2022-10-29T09:13:57.000Z</time>
      </trkpt>
      <trkpt lat="47.44267" lon="3.37266">
        <ele>274.39999389648</ele>
        <time>2022-10-29T09:13:58.000Z</time>
      </trkpt>
      <trkpt lat="47.44254" lon="3.37298">
        <ele>273.39999389648</ele>
        <time>2022-10-29T09:14:00.000Z</time>
      </trkpt>
      <trkpt lat="47.44243" lon="3.37322">
        <ele>272.20001220703</ele>
        <time>2022-10-29T09:14:02.000Z</time>
      </trkpt>
      <trkpt lat="47.44226" lon="3.37363">
        <ele>271.39999389648</ele>
        <time>2022-10-29T09:14:06.000Z</time>
      </trkpt>
      <trkpt lat="47.44217" lon="3.37381">
        <ele>271.20001220703</ele>
        <time>2022-10-29T09:14:08.000Z</time>
      </trkpt>
      <trkpt lat="47.44198" lon="3.37413">
        <ele>270.39999389648</ele>
        <time>2022-10-29T09:14:12.000Z</time>
      </trkpt>
      <trkpt lat="47.44165" lon="3.37457">
        <ele>270.60000610352</ele>
        <time>2022-10-29T09:14:19.000Z</time>
      </trkpt>
      <trkpt lat="47.44134" lon="3.37495">
        <ele>271.20001220703</ele>
        <time>2022-10-29T09:14:26.000Z</time>
      </trkpt>
      <trkpt lat="47.44108" lon="3.3753">
        <ele>272.39999389648</ele>
        <time>2022-10-29T09:14:33.000Z</time>
      </trkpt>
      <trkpt lat="47.44085" lon="3.37565">
        <ele>273</ele>
        <time>2022-10-29T09:14:40.000Z</time>
      </trkpt>
      <trkpt lat="47.44075" lon="3.3758">
        <ele>273.39999389648</ele>
        <time>2022-10-29T09:14:43.000Z</time>
      </trkpt>
      <trkpt lat="47.44059" lon="3.37607">
        <ele>273.79998779297</ele>
        <time>2022-10-29T09:14:48.000Z</time>
      </trkpt>
      <trkpt lat="47.44038" lon="3.37662">
        <ele>274</ele>
        <time>2022-10-29T09:14:57.000Z</time>
      </trkpt>
      <trkpt lat="47.44024" lon="3.37704">
        <ele>273.79998779297</ele>
        <time>2022-10-29T09:15:04.000Z</time>
      </trkpt>
      <trkpt lat="47.44019" lon="3.37718">
        <ele>273.60000610352</ele>
        <time>2022-10-29T09:15:06.000Z</time>
      </trkpt>
      <trkpt lat="47.44001" lon="3.37757">
        <ele>273</ele>
        <time>2022-10-29T09:15:11.000Z</time>
      </trkpt>
      <trkpt lat="47.43994" lon="3.37775">
        <ele>272.39999389648</ele>
        <time>2022-10-29T09:15:13.000Z</time>
      </trkpt>
      <trkpt lat="47.43991" lon="3.37784">
        <ele>272</ele>
        <time>2022-10-29T09:15:14.000Z</time>
      </trkpt>
      <trkpt lat="47.43986" lon="3.37803">
        <ele>271.20001220703</ele>
        <time>2022-10-29T09:15:16.000Z</time>
      </trkpt>
      <trkpt lat="47.43986" lon="3.37803">
        <ele>270.60000610352</ele>
        <time>2022-10-29T09:15:17.000Z</time>
      </trkpt>
      <trkpt lat="47.43982" lon="3.37827">
        <ele>270.39999389648</ele>
        <time>2022-10-29T09:15:18.000Z</time>
      </trkpt>
      <trkpt lat="47.43979" lon="3.3786">
        <ele>269.20001220703</ele>
        <time>2022-10-29T09:15:21.000Z</time>
      </trkpt>
      <trkpt lat="47.43976" lon="3.37897">
        <ele>268</ele>
        <time>2022-10-29T09:15:24.000Z</time>
      </trkpt>
      <trkpt lat="47.4397" lon="3.37961">
        <ele>267</ele>
        <time>2022-10-29T09:15:30.000Z</time>
      </trkpt>
      <trkpt lat="47.43963" lon="3.38011">
        <ele>266</ele>
        <time>2022-10-29T09:15:35.000Z</time>
      </trkpt>
      <trkpt lat="47.43959" lon="3.38032">
        <ele>265.60000610352</ele>
        <time>2022-10-29T09:15:37.000Z</time>
      </trkpt>
      <trkpt lat="47.4395" lon="3.38083">
        <ele>265.79998779297</ele>
        <time>2022-10-29T09:15:43.000Z</time>
      </trkpt>
      <trkpt lat="47.43945" lon="3.38109">
        <ele>266</ele>
        <time>2022-10-29T09:15:46.000Z</time>
      </trkpt>
      <trkpt lat="47.43939" lon="3.38141">
        <ele>266.20001220703</ele>
        <time>2022-10-29T09:15:50.000Z</time>
      </trkpt>
      <trkpt lat="47.4393" lon="3.38186">
        <ele>266.60000610352</ele>
        <time>2022-10-29T09:15:56.000Z</time>
      </trkpt>
      <trkpt lat="47.43918" lon="3.38251">
        <ele>267.20001220703</ele>
        <time>2022-10-29T09:16:05.000Z</time>
      </trkpt>
      <trkpt lat="47.43913" lon="3.38282">
        <ele>267.60000610352</ele>
        <time>2022-10-29T09:16:09.000Z</time>
      </trkpt>
      <trkpt lat="47.43906" lon="3.38316">
        <ele>268.39999389648</ele>
        <time>2022-10-29T09:16:14.000Z</time>
      </trkpt>
      <trkpt lat="47.439" lon="3.38335">
        <ele>268.60000610352</ele>
        <time>2022-10-29T09:16:17.000Z</time>
      </trkpt>
      <trkpt lat="47.43892" lon="3.38351">
        <ele>269.20001220703</ele>
        <time>2022-10-29T09:16:20.000Z</time>
      </trkpt>
      <trkpt lat="47.43885" lon="3.38362">
        <ele>269.39999389648</ele>
        <time>2022-10-29T09:16:22.000Z</time>
      </trkpt>
      <trkpt lat="47.43879" lon="3.38371">
        <ele>269.60000610352</ele>
        <time>2022-10-29T09:16:24.000Z</time>
      </trkpt>
      <trkpt lat="47.43872" lon="3.38379">
        <ele>269.60000610352</ele>
        <time>2022-10-29T09:16:26.000Z</time>
      </trkpt>
      <trkpt lat="47.43863" lon="3.3839">
        <ele>269.60000610352</ele>
        <time>2022-10-29T09:16:29.000Z</time>
      </trkpt>
      <trkpt lat="47.43856" lon="3.38396">
        <ele>269.60000610352</ele>
        <time>2022-10-29T09:16:31.000Z</time>
      </trkpt>
      <trkpt lat="47.43847" lon="3.38403">
        <ele>269</ele>
        <time>2022-10-29T09:16:36.000Z</time>
      </trkpt>
      <trkpt lat="47.43846" lon="3.38404">
        <ele>268.39999389648</ele>
        <time>2022-10-29T09:16:39.000Z</time>
      </trkpt>
      <trkpt lat="47.43846" lon="3.38404">
        <ele>268</ele>
        <time>2022-10-29T09:16:42.000Z</time>
      </trkpt>
      <trkpt lat="47.43846" lon="3.38404">
        <ele>267.60000610352</ele>
        <time>2022-10-29T09:17:09.000Z</time>
      </trkpt>
      <trkpt lat="47.43846" lon="3.38404">
        <ele>267.39999389648</ele>
        <time>2022-10-29T09:17:20.000Z</time>
      </trkpt>
      <trkpt lat="47.43846" lon="3.38404">
        <ele>267</ele>
        <time>2022-10-29T09:17:43.000Z</time>
      </trkpt>
      <trkpt lat="47.43846" lon="3.38404">
        <ele>267</ele>
        <time>2022-10-29T09:17:53.000Z</time>
      </trkpt>
      <trkpt lat="47.43846" lon="3.38404">
        <ele>267.20001220703</ele>
        <time>2022-10-29T09:18:16.000Z</time>
      </trkpt>
      <trkpt lat="47.43846" lon="3.38404">
        <ele>267.20001220703</ele>
        <time>2022-10-29T09:18:51.000Z</time>
      </trkpt>
      <trkpt lat="47.43846" lon="3.38404">
        <ele>267.39999389648</ele>
        <time>2022-10-29T09:19:32.000Z</time>
      </trkpt>
      <trkpt lat="47.43846" lon="3.38404">
        <ele>267.39999389648</ele>
        <time>2022-10-29T09:20:21.000Z</time>
      </trkpt>
      <trkpt lat="47.43843" lon="3.38408">
        <ele>267.20001220703</ele>
        <time>2022-10-29T09:20:40.000Z</time>
      </trkpt>
      <trkpt lat="47.43837" lon="3.38414">
        <ele>267</ele>
        <time>2022-10-29T09:21:00.000Z</time>
      </trkpt>
      <trkpt lat="47.43824" lon="3.38428">
        <ele>266.79998779297</ele>
        <time>2022-10-29T09:21:05.000Z</time>
      </trkpt>
      <trkpt lat="47.43813" lon="3.38438">
        <ele>266.20001220703</ele>
        <time>2022-10-29T09:21:08.000Z</time>
      </trkpt>
      <trkpt lat="47.43799" lon="3.38452">
        <ele>266</ele>
        <time>2022-10-29T09:21:11.000Z</time>
      </trkpt>
      <trkpt lat="47.43788" lon="3.38463">
        <ele>265.79998779297</ele>
        <time>2022-10-29T09:21:13.000Z</time>
      </trkpt>
      <trkpt lat="47.43775" lon="3.38476">
        <ele>265.20001220703</ele>
        <time>2022-10-29T09:21:16.000Z</time>
      </trkpt>
      <trkpt lat="47.43765" lon="3.38486">
        <ele>264.79998779297</ele>
        <time>2022-10-29T09:21:18.000Z</time>
      </trkpt>
      <trkpt lat="47.43751" lon="3.38503">
        <ele>264.20001220703</ele>
        <time>2022-10-29T09:21:21.000Z</time>
      </trkpt>
      <trkpt lat="47.43731" lon="3.38529">
        <ele>263</ele>
        <time>2022-10-29T09:21:25.000Z</time>
      </trkpt>
      <trkpt lat="47.43709" lon="3.38557">
        <ele>261.79998779297</ele>
        <time>2022-10-29T09:21:29.000Z</time>
      </trkpt>
      <trkpt lat="47.43704" lon="3.38566">
        <ele>261.39999389648</ele>
        <time>2022-10-29T09:21:30.000Z</time>
      </trkpt>
      <trkpt lat="47.43693" lon="3.38586">
        <ele>260.79998779297</ele>
        <time>2022-10-29T09:21:32.000Z</time>
      </trkpt>
      <trkpt lat="47.43682" lon="3.38611">
        <ele>260.20001220703</ele>
        <time>2022-10-29T09:21:34.000Z</time>
      </trkpt>
      <trkpt lat="47.43677" lon="3.38627">
        <ele>259.20001220703</ele>
        <time>2022-10-29T09:21:35.000Z</time>
      </trkpt>
      <trkpt lat="47.43671" lon="3.38654">
        <ele>257.60000610352</ele>
        <time>2022-10-29T09:21:37.000Z</time>
      </trkpt>
      <trkpt lat="47.43668" lon="3.38682">
        <ele>256.20001220703</ele>
        <time>2022-10-29T09:21:39.000Z</time>
      </trkpt>
      <trkpt lat="47.43664" lon="3.38732">
        <ele>254</ele>
        <time>2022-10-29T09:21:42.000Z</time>
      </trkpt>
      <trkpt lat="47.43663" lon="3.38765">
        <ele>252.60000610352</ele>
        <time>2022-10-29T09:21:44.000Z</time>
      </trkpt>
      <trkpt lat="47.43662" lon="3.38783">
        <ele>251.39999389648</ele>
        <time>2022-10-29T09:21:45.000Z</time>
      </trkpt>
      <trkpt lat="47.43661" lon="3.38815">
        <ele>250</ele>
        <time>2022-10-29T09:21:47.000Z</time>
      </trkpt>
      <trkpt lat="47.43659" lon="3.38833">
        <ele>249.19999694824</ele>
        <time>2022-10-29T09:21:48.000Z</time>
      </trkpt>
      <trkpt lat="47.43657" lon="3.38851">
        <ele>248.19999694824</ele>
        <time>2022-10-29T09:21:49.000Z</time>
      </trkpt>
      <trkpt lat="47.43654" lon="3.38869">
        <ele>247.39999389648</ele>
        <time>2022-10-29T09:21:50.000Z</time>
      </trkpt>
      <trkpt lat="47.4365" lon="3.38886">
        <ele>246.19999694824</ele>
        <time>2022-10-29T09:21:51.000Z</time>
      </trkpt>
      <trkpt lat="47.43644" lon="3.38902">
        <ele>244.80000305176</ele>
        <time>2022-10-29T09:21:52.000Z</time>
      </trkpt>
      <trkpt lat="47.43636" lon="3.38917">
        <ele>244.39999389648</ele>
        <time>2022-10-29T09:21:53.000Z</time>
      </trkpt>
      <trkpt lat="47.43628" lon="3.38931">
        <ele>243</ele>
        <time>2022-10-29T09:21:54.000Z</time>
      </trkpt>
      <trkpt lat="47.4361" lon="3.38959">
        <ele>241.80000305176</ele>
        <time>2022-10-29T09:21:56.000Z</time>
      </trkpt>
      <trkpt lat="47.43601" lon="3.38972">
        <ele>241.19999694824</ele>
        <time>2022-10-29T09:21:57.000Z</time>
      </trkpt>
      <trkpt lat="47.43589" lon="3.38986">
        <ele>240.19999694824</ele>
        <time>2022-10-29T09:21:58.000Z</time>
      </trkpt>
      <trkpt lat="47.43578" lon="3.38997">
        <ele>238.80000305176</ele>
        <time>2022-10-29T09:21:59.000Z</time>
      </trkpt>
      <trkpt lat="47.43555" lon="3.39017">
        <ele>237</ele>
        <time>2022-10-29T09:22:01.000Z</time>
      </trkpt>
      <trkpt lat="47.43532" lon="3.39037">
        <ele>235</ele>
        <time>2022-10-29T09:22:03.000Z</time>
      </trkpt>
      <trkpt lat="47.43513" lon="3.39057">
        <ele>232.60000610352</ele>
        <time>2022-10-29T09:22:05.000Z</time>
      </trkpt>
      <trkpt lat="47.43502" lon="3.39068">
        <ele>231</ele>
        <time>2022-10-29T09:22:06.000Z</time>
      </trkpt>
      <trkpt lat="47.4348" lon="3.39091">
        <ele>228.60000610352</ele>
        <time>2022-10-29T09:22:08.000Z</time>
      </trkpt>
      <trkpt lat="47.43468" lon="3.39106">
        <ele>227.60000610352</ele>
        <time>2022-10-29T09:22:09.000Z</time>
      </trkpt>
      <trkpt lat="47.4346" lon="3.39116">
        <ele>226</ele>
        <time>2022-10-29T09:22:10.000Z</time>
      </trkpt>
      <trkpt lat="47.4345" lon="3.39129">
        <ele>224.60000610352</ele>
        <time>2022-10-29T09:22:11.000Z</time>
      </trkpt>
      <trkpt lat="47.43432" lon="3.39152">
        <ele>222.39999389648</ele>
        <time>2022-10-29T09:22:13.000Z</time>
      </trkpt>
      <trkpt lat="47.43421" lon="3.39161">
        <ele>221.60000610352</ele>
        <time>2022-10-29T09:22:14.000Z</time>
      </trkpt>
      <trkpt lat="47.43411" lon="3.39167">
        <ele>220.19999694824</ele>
        <time>2022-10-29T09:22:15.000Z</time>
      </trkpt>
      <trkpt lat="47.43399" lon="3.3917">
        <ele>219.19999694824</ele>
        <time>2022-10-29T09:22:16.000Z</time>
      </trkpt>
      <trkpt lat="47.43387" lon="3.39171">
        <ele>217.39999389648</ele>
        <time>2022-10-29T09:22:17.000Z</time>
      </trkpt>
      <trkpt lat="47.43372" lon="3.39171">
        <ele>216.19999694824</ele>
        <time>2022-10-29T09:22:18.000Z</time>
      </trkpt>
      <trkpt lat="47.43362" lon="3.39171">
        <ele>215.60000610352</ele>
        <time>2022-10-29T09:22:19.000Z</time>
      </trkpt>
      <trkpt lat="47.4335" lon="3.3917">
        <ele>214.39999389648</ele>
        <time>2022-10-29T09:22:20.000Z</time>
      </trkpt>
      <trkpt lat="47.43328" lon="3.39171">
        <ele>212.39999389648</ele>
        <time>2022-10-29T09:22:22.000Z</time>
      </trkpt>
      <trkpt lat="47.43305" lon="3.39177">
        <ele>211</ele>
        <time>2022-10-29T09:22:24.000Z</time>
      </trkpt>
      <trkpt lat="47.43287" lon="3.39183">
        <ele>209.60000610352</ele>
        <time>2022-10-29T09:22:26.000Z</time>
      </trkpt>
      <trkpt lat="47.43276" lon="3.39186">
        <ele>208.39999389648</ele>
        <time>2022-10-29T09:22:27.000Z</time>
      </trkpt>
      <trkpt lat="47.43256" lon="3.39193">
        <ele>206.80000305176</ele>
        <time>2022-10-29T09:22:29.000Z</time>
      </trkpt>
      <trkpt lat="47.4325" lon="3.39195">
        <ele>206.60000610352</ele>
        <time>2022-10-29T09:22:30.000Z</time>
      </trkpt>
      <trkpt lat="47.43236" lon="3.392">
        <ele>205.60000610352</ele>
        <time>2022-10-29T09:22:32.000Z</time>
      </trkpt>
      <trkpt lat="47.43229" lon="3.39202">
        <ele>204.39999389648</ele>
        <time>2022-10-29T09:22:34.000Z</time>
      </trkpt>
      <trkpt lat="47.43224" lon="3.39207">
        <ele>203.19999694824</ele>
        <time>2022-10-29T09:22:36.000Z</time>
      </trkpt>
      <trkpt lat="47.43221" lon="3.39213">
        <ele>202.80000305176</ele>
        <time>2022-10-29T09:22:37.000Z</time>
      </trkpt>
      <trkpt lat="47.43219" lon="3.3922">
        <ele>202.60000610352</ele>
        <time>2022-10-29T09:22:38.000Z</time>
      </trkpt>
      <trkpt lat="47.43217" lon="3.39227">
        <ele>202</ele>
        <time>2022-10-29T09:22:39.000Z</time>
      </trkpt>
      <trkpt lat="47.43209" lon="3.39269">
        <ele>201</ele>
        <time>2022-10-29T09:22:44.000Z</time>
      </trkpt>
      <trkpt lat="47.43207" lon="3.39276">
        <ele>200.80000305176</ele>
        <time>2022-10-29T09:22:45.000Z</time>
      </trkpt>
      <trkpt lat="47.43195" lon="3.3933">
        <ele>200.19999694824</ele>
        <time>2022-10-29T09:22:51.000Z</time>
      </trkpt>
      <trkpt lat="47.43187" lon="3.39367">
        <ele>199.80000305176</ele>
        <time>2022-10-29T09:22:55.000Z</time>
      </trkpt>
      <trkpt lat="47.4317" lon="3.39433">
        <ele>199.80000305176</ele>
        <time>2022-10-29T09:23:02.000Z</time>
      </trkpt>
      <trkpt lat="47.43148" lon="3.39506">
        <ele>199.19999694824</ele>
        <time>2022-10-29T09:23:10.000Z</time>
      </trkpt>
      <trkpt lat="47.43134" lon="3.39542">
        <ele>198.80000305176</ele>
        <time>2022-10-29T09:23:14.000Z</time>
      </trkpt>
      <trkpt lat="47.43128" lon="3.39561">
        <ele>198.60000610352</ele>
        <time>2022-10-29T09:23:16.000Z</time>
      </trkpt>
      <trkpt lat="47.43116" lon="3.39621">
        <ele>198.39999389648</ele>
        <time>2022-10-29T09:23:22.000Z</time>
      </trkpt>
      <trkpt lat="47.43112" lon="3.39669">
        <ele>198</ele>
        <time>2022-10-29T09:23:27.000Z</time>
      </trkpt>
      <trkpt lat="47.43111" lon="3.39683">
        <ele>197.60000610352</ele>
        <time>2022-10-29T09:23:29.000Z</time>
      </trkpt>
      <trkpt lat="47.43108" lon="3.39716">
        <ele>197.39999389648</ele>
        <time>2022-10-29T09:23:33.000Z</time>
      </trkpt>
      <trkpt lat="47.43105" lon="3.39763">
        <ele>197.39999389648</ele>
        <time>2022-10-29T09:23:39.000Z</time>
      </trkpt>
      <trkpt lat="47.43104" lon="3.39772">
        <ele>197.39999389648</ele>
        <time>2022-10-29T09:23:40.000Z</time>
      </trkpt>
      <trkpt lat="47.43103" lon="3.3978">
        <ele>197.39999389648</ele>
        <time>2022-10-29T09:23:41.000Z</time>
      </trkpt>
      <trkpt lat="47.431" lon="3.39815">
        <ele>197</ele>
        <time>2022-10-29T09:23:45.000Z</time>
      </trkpt>
      <trkpt lat="47.43098" lon="3.39832">
        <ele>196.60000610352</ele>
        <time>2022-10-29T09:23:47.000Z</time>
      </trkpt>
      <trkpt lat="47.43098" lon="3.3984">
        <ele>196.60000610352</ele>
        <time>2022-10-29T09:23:48.000Z</time>
      </trkpt>
      <trkpt lat="47.43098" lon="3.39883">
        <ele>196.19999694824</ele>
        <time>2022-10-29T09:23:53.000Z</time>
      </trkpt>
      <trkpt lat="47.43098" lon="3.39891">
        <ele>196.39999389648</ele>
        <time>2022-10-29T09:23:54.000Z</time>
      </trkpt>
      <trkpt lat="47.43102" lon="3.39948">
        <ele>196.80000305176</ele>
        <time>2022-10-29T09:24:01.000Z</time>
      </trkpt>
      <trkpt lat="47.43103" lon="3.39964">
        <ele>197</ele>
        <time>2022-10-29T09:24:03.000Z</time>
      </trkpt>
      <trkpt lat="47.43104" lon="3.3998">
        <ele>197.19999694824</ele>
        <time>2022-10-29T09:24:05.000Z</time>
      </trkpt>
      <trkpt lat="47.43106" lon="3.39995">
        <ele>197.39999389648</ele>
        <time>2022-10-29T09:24:07.000Z</time>
      </trkpt>
      <trkpt lat="47.43108" lon="3.40003">
        <ele>197.39999389648</ele>
        <time>2022-10-29T09:24:08.000Z</time>
      </trkpt>
      <trkpt lat="47.43115" lon="3.40058">
        <ele>198</ele>
        <time>2022-10-29T09:24:15.000Z</time>
      </trkpt>
      <trkpt lat="47.43117" lon="3.40073">
        <ele>198</ele>
        <time>2022-10-29T09:24:17.000Z</time>
      </trkpt>
      <trkpt lat="47.43122" lon="3.40104">
        <ele>198</ele>
        <time>2022-10-29T09:24:21.000Z</time>
      </trkpt>
      <trkpt lat="47.43124" lon="3.40112">
        <ele>198</ele>
        <time>2022-10-29T09:24:22.000Z</time>
      </trkpt>
      <trkpt lat="47.4313" lon="3.40135">
        <ele>198</ele>
        <time>2022-10-29T09:24:25.000Z</time>
      </trkpt>
      <trkpt lat="47.43136" lon="3.40157">
        <ele>198</ele>
        <time>2022-10-29T09:24:28.000Z</time>
      </trkpt>
      <trkpt lat="47.4314" lon="3.40171">
        <ele>198.19999694824</ele>
        <time>2022-10-29T09:24:30.000Z</time>
      </trkpt>
      <trkpt lat="47.43145" lon="3.40193">
        <ele>198.39999389648</ele>
        <time>2022-10-29T09:24:33.000Z</time>
      </trkpt>
      <trkpt lat="47.43147" lon="3.402">
        <ele>198.39999389648</ele>
        <time>2022-10-29T09:24:34.000Z</time>
      </trkpt>
      <trkpt lat="47.4315" lon="3.40224">
        <ele>198.39999389648</ele>
        <time>2022-10-29T09:24:37.000Z</time>
      </trkpt>
      <trkpt lat="47.43153" lon="3.4024">
        <ele>198.39999389648</ele>
        <time>2022-10-29T09:24:39.000Z</time>
      </trkpt>
      <trkpt lat="47.43156" lon="3.40255">
        <ele>198.39999389648</ele>
        <time>2022-10-29T09:24:41.000Z</time>
      </trkpt>
      <trkpt lat="47.43163" lon="3.40281">
        <ele>198.39999389648</ele>
        <time>2022-10-29T09:24:45.000Z</time>
      </trkpt>
      <trkpt lat="47.43168" lon="3.40331">
        <ele>197.80000305176</ele>
        <time>2022-10-29T09:24:52.000Z</time>
      </trkpt>
      <trkpt lat="47.43168" lon="3.40339">
        <ele>197.39999389648</ele>
        <time>2022-10-29T09:24:53.000Z</time>
      </trkpt>
      <trkpt lat="47.43169" lon="3.40347">
        <ele>197.19999694824</ele>
        <time>2022-10-29T09:24:54.000Z</time>
      </trkpt>
      <trkpt lat="47.43171" lon="3.40382">
        <ele>196.80000305176</ele>
        <time>2022-10-29T09:24:58.000Z</time>
      </trkpt>
      <trkpt lat="47.43175" lon="3.40419">
        <ele>196.39999389648</ele>
        <time>2022-10-29T09:25:02.000Z</time>
      </trkpt>
      <trkpt lat="47.43176" lon="3.40427">
        <ele>196</ele>
        <time>2022-10-29T09:25:03.000Z</time>
      </trkpt>
      <trkpt lat="47.43179" lon="3.40454">
        <ele>195.39999389648</ele>
        <time>2022-10-29T09:25:06.000Z</time>
      </trkpt>
      <trkpt lat="47.43183" lon="3.40481">
        <ele>195</ele>
        <time>2022-10-29T09:25:09.000Z</time>
      </trkpt>
      <trkpt lat="47.43187" lon="3.40507">
        <ele>194.60000610352</ele>
        <time>2022-10-29T09:25:12.000Z</time>
      </trkpt>
      <trkpt lat="47.43189" lon="3.40523">
        <ele>194.19999694824</ele>
        <time>2022-10-29T09:25:14.000Z</time>
      </trkpt>
      <trkpt lat="47.43192" lon="3.40574">
        <ele>193.80000305176</ele>
        <time>2022-10-29T09:25:20.000Z</time>
      </trkpt>
      <trkpt lat="47.43196" lon="3.4063">
        <ele>193.19999694824</ele>
        <time>2022-10-29T09:25:26.000Z</time>
      </trkpt>
      <trkpt lat="47.43197" lon="3.40647">
        <ele>193</ele>
        <time>2022-10-29T09:25:28.000Z</time>
      </trkpt>
      <trkpt lat="47.43197" lon="3.40675">
        <ele>192.80000305176</ele>
        <time>2022-10-29T09:25:31.000Z</time>
      </trkpt>
      <trkpt lat="47.43195" lon="3.40694">
        <ele>192.39999389648</ele>
        <time>2022-10-29T09:25:33.000Z</time>
      </trkpt>
      <trkpt lat="47.43192" lon="3.40712">
        <ele>192.19999694824</ele>
        <time>2022-10-29T09:25:35.000Z</time>
      </trkpt>
      <trkpt lat="47.43188" lon="3.4074">
        <ele>191.80000305176</ele>
        <time>2022-10-29T09:25:38.000Z</time>
      </trkpt>
      <trkpt lat="47.43188" lon="3.4075">
        <ele>191.60000610352</ele>
        <time>2022-10-29T09:25:39.000Z</time>
      </trkpt>
      <trkpt lat="47.43188" lon="3.40769">
        <ele>191.39999389648</ele>
        <time>2022-10-29T09:25:41.000Z</time>
      </trkpt>
      <trkpt lat="47.4319" lon="3.40787">
        <ele>191.19999694824</ele>
        <time>2022-10-29T09:25:43.000Z</time>
      </trkpt>
      <trkpt lat="47.43192" lon="3.40797">
        <ele>191</ele>
        <time>2022-10-29T09:25:44.000Z</time>
      </trkpt>
      <trkpt lat="47.43207" lon="3.40872">
        <ele>190.39999389648</ele>
        <time>2022-10-29T09:25:53.000Z</time>
      </trkpt>
      <trkpt lat="47.43212" lon="3.40893">
        <ele>190.19999694824</ele>
        <time>2022-10-29T09:25:56.000Z</time>
      </trkpt>
      <trkpt lat="47.43213" lon="3.409">
        <ele>190.19999694824</ele>
        <time>2022-10-29T09:25:57.000Z</time>
      </trkpt>
      <trkpt lat="47.43215" lon="3.40915">
        <ele>190.19999694824</ele>
        <time>2022-10-29T09:25:59.000Z</time>
      </trkpt>
      <trkpt lat="47.43214" lon="3.40929">
        <ele>190.19999694824</ele>
        <time>2022-10-29T09:26:01.000Z</time>
      </trkpt>
      <trkpt lat="47.43213" lon="3.40936">
        <ele>190.19999694824</ele>
        <time>2022-10-29T09:26:02.000Z</time>
      </trkpt>
      <trkpt lat="47.43207" lon="3.40947">
        <ele>190.19999694824</ele>
        <time>2022-10-29T09:26:04.000Z</time>
      </trkpt>
      <trkpt lat="47.43204" lon="3.40952">
        <ele>190.19999694824</ele>
        <time>2022-10-29T09:26:05.000Z</time>
      </trkpt>
      <trkpt lat="47.43194" lon="3.40968">
        <ele>190.19999694824</ele>
        <time>2022-10-29T09:26:08.000Z</time>
      </trkpt>
      <trkpt lat="47.43186" lon="3.40974">
        <ele>190.19999694824</ele>
        <time>2022-10-29T09:26:10.000Z</time>
      </trkpt>
      <trkpt lat="47.43156" lon="3.40987">
        <ele>190.19999694824</ele>
        <time>2022-10-29T09:26:15.000Z</time>
      </trkpt>
      <trkpt lat="47.4315" lon="3.4099">
        <ele>190.19999694824</ele>
        <time>2022-10-29T09:26:16.000Z</time>
      </trkpt>
      <trkpt lat="47.4311" lon="3.41004">
        <ele>189.19999694824</ele>
        <time>2022-10-29T09:26:22.000Z</time>
      </trkpt>
      <trkpt lat="47.43084" lon="3.41011">
        <ele>189</ele>
        <time>2022-10-29T09:26:26.000Z</time>
      </trkpt>
      <trkpt lat="47.43051" lon="3.41019">
        <ele>189.39999389648</ele>
        <time>2022-10-29T09:26:31.000Z</time>
      </trkpt>
      <trkpt lat="47.43032" lon="3.41023">
        <ele>189.39999389648</ele>
        <time>2022-10-29T09:26:34.000Z</time>
      </trkpt>
      <trkpt lat="47.43006" lon="3.41021">
        <ele>189.39999389648</ele>
        <time>2022-10-29T09:26:38.000Z</time>
      </trkpt>
      <trkpt lat="47.42981" lon="3.41017">
        <ele>189.39999389648</ele>
        <time>2022-10-29T09:26:42.000Z</time>
      </trkpt>
      <trkpt lat="47.42962" lon="3.4102">
        <ele>189.39999389648</ele>
        <time>2022-10-29T09:26:45.000Z</time>
      </trkpt>
      <trkpt lat="47.42933" lon="3.41029">
        <ele>189.39999389648</ele>
        <time>2022-10-29T09:26:50.000Z</time>
      </trkpt>
      <trkpt lat="47.42927" lon="3.41033">
        <ele>189.19999694824</ele>
        <time>2022-10-29T09:26:51.000Z</time>
      </trkpt>
      <trkpt lat="47.42923" lon="3.41039">
        <ele>189.19999694824</ele>
        <time>2022-10-29T09:26:52.000Z</time>
      </trkpt>
      <trkpt lat="47.42917" lon="3.41055">
        <ele>189.19999694824</ele>
        <time>2022-10-29T09:26:54.000Z</time>
      </trkpt>
      <trkpt lat="47.42917" lon="3.41099">
        <ele>189.19999694824</ele>
        <time>2022-10-29T09:26:59.000Z</time>
      </trkpt>
      <trkpt lat="47.42916" lon="3.41152">
        <ele>189.19999694824</ele>
        <time>2022-10-29T09:27:05.000Z</time>
      </trkpt>
      <trkpt lat="47.42915" lon="3.41161">
        <ele>189.19999694824</ele>
        <time>2022-10-29T09:27:06.000Z</time>
      </trkpt>
      <trkpt lat="47.4291" lon="3.41218">
        <ele>189</ele>
        <time>2022-10-29T09:27:13.000Z</time>
      </trkpt>
      <trkpt lat="47.42907" lon="3.41247">
        <ele>188.60000610352</ele>
        <time>2022-10-29T09:27:18.000Z</time>
      </trkpt>
      <trkpt lat="47.42902" lon="3.41283">
        <ele>188.80000305176</ele>
        <time>2022-10-29T09:27:24.000Z</time>
      </trkpt>
      <trkpt lat="47.42897" lon="3.41323">
        <ele>188.80000305176</ele>
        <time>2022-10-29T09:27:29.000Z</time>
      </trkpt>
      <trkpt lat="47.42887" lon="3.41385">
        <ele>188.60000610352</ele>
        <time>2022-10-29T09:27:36.000Z</time>
      </trkpt>
      <trkpt lat="47.42879" lon="3.41443">
        <ele>188.39999389648</ele>
        <time>2022-10-29T09:27:43.000Z</time>
      </trkpt>
      <trkpt lat="47.42868" lon="3.41514">
        <ele>188.39999389648</ele>
        <time>2022-10-29T09:27:52.000Z</time>
      </trkpt>
      <trkpt lat="47.4286" lon="3.41582">
        <ele>188.39999389648</ele>
        <time>2022-10-29T09:28:00.000Z</time>
      </trkpt>
      <trkpt lat="47.4286" lon="3.4159">
        <ele>188.60000610352</ele>
        <time>2022-10-29T09:28:01.000Z</time>
      </trkpt>
      <trkpt lat="47.42863" lon="3.41621">
        <ele>188.60000610352</ele>
        <time>2022-10-29T09:28:05.000Z</time>
      </trkpt>
      <trkpt lat="47.42866" lon="3.41648">
        <ele>189</ele>
        <time>2022-10-29T09:28:09.000Z</time>
      </trkpt>
      <trkpt lat="47.42867" lon="3.41656">
        <ele>189</ele>
        <time>2022-10-29T09:28:10.000Z</time>
      </trkpt>
      <trkpt lat="47.42875" lon="3.41708">
        <ele>188.80000305176</ele>
        <time>2022-10-29T09:28:16.000Z</time>
      </trkpt>
      <trkpt lat="47.42877" lon="3.41717">
        <ele>188.80000305176</ele>
        <time>2022-10-29T09:28:17.000Z</time>
      </trkpt>
      <trkpt lat="47.42888" lon="3.41758">
        <ele>188.60000610352</ele>
        <time>2022-10-29T09:28:22.000Z</time>
      </trkpt>
      <trkpt lat="47.42908" lon="3.41822">
        <ele>188.39999389648</ele>
        <time>2022-10-29T09:28:30.000Z</time>
      </trkpt>
      <trkpt lat="47.4293" lon="3.41878">
        <ele>188.39999389648</ele>
        <time>2022-10-29T09:28:37.000Z</time>
      </trkpt>
      <trkpt lat="47.42955" lon="3.41955">
        <ele>188.39999389648</ele>
        <time>2022-10-29T09:28:46.000Z</time>
      </trkpt>
      <trkpt lat="47.42972" lon="3.42035">
        <ele>188.39999389648</ele>
        <time>2022-10-29T09:28:55.000Z</time>
      </trkpt>
      <trkpt lat="47.42984" lon="3.42097">
        <ele>188.39999389648</ele>
        <time>2022-10-29T09:29:02.000Z</time>
      </trkpt>
      <trkpt lat="47.42985" lon="3.42103">
        <ele>188.39999389648</ele>
        <time>2022-10-29T09:29:03.000Z</time>
      </trkpt>
      <trkpt lat="47.42993" lon="3.42161">
        <ele>188.60000610352</ele>
        <time>2022-10-29T09:29:10.000Z</time>
      </trkpt>
      <trkpt lat="47.42997" lon="3.42186">
        <ele>188.19999694824</ele>
        <time>2022-10-29T09:29:13.000Z</time>
      </trkpt>
      <trkpt lat="47.43006" lon="3.42237">
        <ele>188</ele>
        <time>2022-10-29T09:29:19.000Z</time>
      </trkpt>
      <trkpt lat="47.43023" lon="3.42316">
        <ele>187.60000610352</ele>
        <time>2022-10-29T09:29:28.000Z</time>
      </trkpt>
      <trkpt lat="47.43024" lon="3.42325">
        <ele>187.60000610352</ele>
        <time>2022-10-29T09:29:29.000Z</time>
      </trkpt>
      <trkpt lat="47.43035" lon="3.42385">
        <ele>187.39999389648</ele>
        <time>2022-10-29T09:29:36.000Z</time>
      </trkpt>
      <trkpt lat="47.43041" lon="3.4241">
        <ele>187.19999694824</ele>
        <time>2022-10-29T09:29:39.000Z</time>
      </trkpt>
      <trkpt lat="47.43062" lon="3.42485">
        <ele>186.80000305176</ele>
        <time>2022-10-29T09:29:48.000Z</time>
      </trkpt>
      <trkpt lat="47.43065" lon="3.42493">
        <ele>187</ele>
        <time>2022-10-29T09:29:49.000Z</time>
      </trkpt>
      <trkpt lat="47.4308" lon="3.42545">
        <ele>187</ele>
        <time>2022-10-29T09:29:55.000Z</time>
      </trkpt>
      <trkpt lat="47.43092" lon="3.42589">
        <ele>186.19999694824</ele>
        <time>2022-10-29T09:30:00.000Z</time>
      </trkpt>
      <trkpt lat="47.43108" lon="3.42639">
        <ele>185.80000305176</ele>
        <time>2022-10-29T09:30:06.000Z</time>
      </trkpt>
      <trkpt lat="47.43125" lon="3.42697">
        <ele>185.60000610352</ele>
        <time>2022-10-29T09:30:13.000Z</time>
      </trkpt>
      <trkpt lat="47.43139" lon="3.42745">
        <ele>185.19999694824</ele>
        <time>2022-10-29T09:30:19.000Z</time>
      </trkpt>
      <trkpt lat="47.43146" lon="3.42769">
        <ele>185.19999694824</ele>
        <time>2022-10-29T09:30:22.000Z</time>
      </trkpt>
      <trkpt lat="47.43158" lon="3.42828">
        <ele>185</ele>
        <time>2022-10-29T09:30:29.000Z</time>
      </trkpt>
      <trkpt lat="47.43163" lon="3.4289">
        <ele>185</ele>
        <time>2022-10-29T09:30:36.000Z</time>
      </trkpt>
      <trkpt lat="47.43166" lon="3.42977">
        <ele>185</ele>
        <time>2022-10-29T09:30:46.000Z</time>
      </trkpt>
      <trkpt lat="47.43166" lon="3.42994">
        <ele>184.80000305176</ele>
        <time>2022-10-29T09:30:48.000Z</time>
      </trkpt>
      <trkpt lat="47.43166" lon="3.43046">
        <ele>184.80000305176</ele>
        <time>2022-10-29T09:30:54.000Z</time>
      </trkpt>
      <trkpt lat="47.43163" lon="3.43104">
        <ele>184.80000305176</ele>
        <time>2022-10-29T09:31:01.000Z</time>
      </trkpt>
      <trkpt lat="47.43159" lon="3.43166">
        <ele>185.19999694824</ele>
        <time>2022-10-29T09:31:09.000Z</time>
      </trkpt>
      <trkpt lat="47.43155" lon="3.43223">
        <ele>185.60000610352</ele>
        <time>2022-10-29T09:31:17.000Z</time>
      </trkpt>
      <trkpt lat="47.43148" lon="3.43257">
        <ele>186.39999389648</ele>
        <time>2022-10-29T09:31:22.000Z</time>
      </trkpt>
      <trkpt lat="47.43143" lon="3.43275">
        <ele>186.60000610352</ele>
        <time>2022-10-29T09:31:25.000Z</time>
      </trkpt>
      <trkpt lat="47.4314" lon="3.43287">
        <ele>186.80000305176</ele>
        <time>2022-10-29T09:31:27.000Z</time>
      </trkpt>
      <trkpt lat="47.43138" lon="3.43299">
        <ele>187.39999389648</ele>
        <time>2022-10-29T09:31:29.000Z</time>
      </trkpt>
      <trkpt lat="47.43136" lon="3.43305">
        <ele>187.60000610352</ele>
        <time>2022-10-29T09:31:30.000Z</time>
      </trkpt>
      <trkpt lat="47.43133" lon="3.43316">
        <ele>188</ele>
        <time>2022-10-29T09:31:32.000Z</time>
      </trkpt>
      <trkpt lat="47.4313" lon="3.43327">
        <ele>188.39999389648</ele>
        <time>2022-10-29T09:31:34.000Z</time>
      </trkpt>
      <trkpt lat="47.43125" lon="3.43346">
        <ele>189.60000610352</ele>
        <time>2022-10-29T09:31:38.000Z</time>
      </trkpt>
      <trkpt lat="47.43124" lon="3.43351">
        <ele>189.80000305176</ele>
        <time>2022-10-29T09:31:39.000Z</time>
      </trkpt>
      <trkpt lat="47.4312" lon="3.43365">
        <ele>190.80000305176</ele>
        <time>2022-10-29T09:31:42.000Z</time>
      </trkpt>
      <trkpt lat="47.43113" lon="3.43392">
        <ele>191.80000305176</ele>
        <time>2022-10-29T09:31:48.000Z</time>
      </trkpt>
      <trkpt lat="47.43111" lon="3.43396">
        <ele>192.19999694824</ele>
        <time>2022-10-29T09:31:49.000Z</time>
      </trkpt>
      <trkpt lat="47.43108" lon="3.4341">
        <ele>193</ele>
        <time>2022-10-29T09:31:52.000Z</time>
      </trkpt>
      <trkpt lat="47.43107" lon="3.43421">
        <ele>193.19999694824</ele>
        <time>2022-10-29T09:31:54.000Z</time>
      </trkpt>
      <trkpt lat="47.43104" lon="3.43452">
        <ele>193.39999389648</ele>
        <time>2022-10-29T09:31:59.000Z</time>
      </trkpt>
      <trkpt lat="47.43103" lon="3.4346">
        <ele>193.39999389648</ele>
        <time>2022-10-29T09:32:00.000Z</time>
      </trkpt>
      <trkpt lat="47.43095" lon="3.43487">
        <ele>193.39999389648</ele>
        <time>2022-10-29T09:32:04.000Z</time>
      </trkpt>
      <trkpt lat="47.43077" lon="3.43513">
        <ele>193.19999694824</ele>
        <time>2022-10-29T09:32:09.000Z</time>
      </trkpt>
      <trkpt lat="47.43056" lon="3.43533">
        <ele>193</ele>
        <time>2022-10-29T09:32:14.000Z</time>
      </trkpt>
      <trkpt lat="47.4305" lon="3.43544">
        <ele>193</ele>
        <time>2022-10-29T09:32:16.000Z</time>
      </trkpt>
      <trkpt lat="47.43046" lon="3.43556">
        <ele>193</ele>
        <time>2022-10-29T09:32:18.000Z</time>
      </trkpt>
      <trkpt lat="47.43043" lon="3.43579">
        <ele>193</ele>
        <time>2022-10-29T09:32:21.000Z</time>
      </trkpt>
      <trkpt lat="47.43036" lon="3.43643">
        <ele>192.80000305176</ele>
        <time>2022-10-29T09:32:29.000Z</time>
      </trkpt>
      <trkpt lat="47.43029" lon="3.43712">
        <ele>192.39999389648</ele>
        <time>2022-10-29T09:32:37.000Z</time>
      </trkpt>
      <trkpt lat="47.43028" lon="3.4372">
        <ele>192.19999694824</ele>
        <time>2022-10-29T09:32:38.000Z</time>
      </trkpt>
      <trkpt lat="47.43019" lon="3.43779">
        <ele>192</ele>
        <time>2022-10-29T09:32:45.000Z</time>
      </trkpt>
      <trkpt lat="47.43018" lon="3.43788">
        <ele>192</ele>
        <time>2022-10-29T09:32:46.000Z</time>
      </trkpt>
      <trkpt lat="47.43006" lon="3.43862">
        <ele>192</ele>
        <time>2022-10-29T09:32:55.000Z</time>
      </trkpt>
      <trkpt lat="47.42998" lon="3.43922">
        <ele>191.60000610352</ele>
        <time>2022-10-29T09:33:02.000Z</time>
      </trkpt>
      <trkpt lat="47.42993" lon="3.43958">
        <ele>191.19999694824</ele>
        <time>2022-10-29T09:33:06.000Z</time>
      </trkpt>
      <trkpt lat="47.4299" lon="3.43986">
        <ele>191</ele>
        <time>2022-10-29T09:33:09.000Z</time>
      </trkpt>
      <trkpt lat="47.42986" lon="3.44042">
        <ele>190.19999694824</ele>
        <time>2022-10-29T09:33:15.000Z</time>
      </trkpt>
      <trkpt lat="47.42985" lon="3.4407">
        <ele>189.80000305176</ele>
        <time>2022-10-29T09:33:18.000Z</time>
      </trkpt>
      <trkpt lat="47.4298" lon="3.44151">
        <ele>189.19999694824</ele>
        <time>2022-10-29T09:33:26.000Z</time>
      </trkpt>
      <trkpt lat="47.42979" lon="3.44161">
        <ele>189.19999694824</ele>
        <time>2022-10-29T09:33:27.000Z</time>
      </trkpt>
      <trkpt lat="47.42974" lon="3.44225">
        <ele>188</ele>
        <time>2022-10-29T09:33:33.000Z</time>
      </trkpt>
      <trkpt lat="47.42973" lon="3.44246">
        <ele>187.60000610352</ele>
        <time>2022-10-29T09:33:35.000Z</time>
      </trkpt>
      <trkpt lat="47.4297" lon="3.44285">
        <ele>187</ele>
        <time>2022-10-29T09:33:39.000Z</time>
      </trkpt>
      <trkpt lat="47.42968" lon="3.44314">
        <ele>186.80000305176</ele>
        <time>2022-10-29T09:33:42.000Z</time>
      </trkpt>
      <trkpt lat="47.42966" lon="3.44365">
        <ele>187</ele>
        <time>2022-10-29T09:33:48.000Z</time>
      </trkpt>
      <trkpt lat="47.42963" lon="3.44414">
        <ele>187.80000305176</ele>
        <time>2022-10-29T09:33:55.000Z</time>
      </trkpt>
      <trkpt lat="47.42963" lon="3.4442">
        <ele>188</ele>
        <time>2022-10-29T09:33:56.000Z</time>
      </trkpt>
      <trkpt lat="47.42959" lon="3.44448">
        <ele>189</ele>
        <time>2022-10-29T09:34:01.000Z</time>
      </trkpt>
      <trkpt lat="47.42959" lon="3.44453">
        <ele>189.19999694824</ele>
        <time>2022-10-29T09:34:02.000Z</time>
      </trkpt>
      <trkpt lat="47.42956" lon="3.44475">
        <ele>190.39999389648</ele>
        <time>2022-10-29T09:34:06.000Z</time>
      </trkpt>
      <trkpt lat="47.42954" lon="3.445">
        <ele>191.60000610352</ele>
        <time>2022-10-29T09:34:11.000Z</time>
      </trkpt>
      <trkpt lat="47.4295" lon="3.4453">
        <ele>192.60000610352</ele>
        <time>2022-10-29T09:34:17.000Z</time>
      </trkpt>
      <trkpt lat="47.42948" lon="3.4455">
        <ele>193.19999694824</ele>
        <time>2022-10-29T09:34:21.000Z</time>
      </trkpt>
      <trkpt lat="47.42946" lon="3.44566">
        <ele>193.60000610352</ele>
        <time>2022-10-29T09:34:24.000Z</time>
      </trkpt>
      <trkpt lat="47.42943" lon="3.44589">
        <ele>194.19999694824</ele>
        <time>2022-10-29T09:34:29.000Z</time>
      </trkpt>
      <trkpt lat="47.42941" lon="3.44603">
        <ele>194.80000305176</ele>
        <time>2022-10-29T09:34:32.000Z</time>
      </trkpt>
      <trkpt lat="47.42938" lon="3.44626">
        <ele>195.39999389648</ele>
        <time>2022-10-29T09:34:37.000Z</time>
      </trkpt>
      <trkpt lat="47.42934" lon="3.44651">
        <ele>195.80000305176</ele>
        <time>2022-10-29T09:34:42.000Z</time>
      </trkpt>
      <trkpt lat="47.42931" lon="3.4467">
        <ele>196.19999694824</ele>
        <time>2022-10-29T09:34:46.000Z</time>
      </trkpt>
      <trkpt lat="47.42928" lon="3.44692">
        <ele>196.80000305176</ele>
        <time>2022-10-29T09:34:51.000Z</time>
      </trkpt>
      <trkpt lat="47.42926" lon="3.44707">
        <ele>197.19999694824</ele>
        <time>2022-10-29T09:34:54.000Z</time>
      </trkpt>
      <trkpt lat="47.42921" lon="3.4474">
        <ele>198</ele>
        <time>2022-10-29T09:35:01.000Z</time>
      </trkpt>
      <trkpt lat="47.42913" lon="3.44791">
        <ele>198.80000305176</ele>
        <time>2022-10-29T09:35:11.000Z</time>
      </trkpt>
      <trkpt lat="47.4291" lon="3.44811">
        <ele>199</ele>
        <time>2022-10-29T09:35:15.000Z</time>
      </trkpt>
      <trkpt lat="47.42907" lon="3.44827">
        <ele>199.19999694824</ele>
        <time>2022-10-29T09:35:18.000Z</time>
      </trkpt>
      <trkpt lat="47.429" lon="3.44867">
        <ele>200</ele>
        <time>2022-10-29T09:35:26.000Z</time>
      </trkpt>
      <trkpt lat="47.42898" lon="3.44876">
        <ele>200.19999694824</ele>
        <time>2022-10-29T09:35:28.000Z</time>
      </trkpt>
      <trkpt lat="47.42894" lon="3.44899">
        <ele>201</ele>
        <time>2022-10-29T09:35:33.000Z</time>
      </trkpt>
      <trkpt lat="47.42893" lon="3.44904">
        <ele>201.19999694824</ele>
        <time>2022-10-29T09:35:34.000Z</time>
      </trkpt>
      <trkpt lat="47.42886" lon="3.44936">
        <ele>202</ele>
        <time>2022-10-29T09:35:41.000Z</time>
      </trkpt>
      <trkpt lat="47.42885" lon="3.4494">
        <ele>202.19999694824</ele>
        <time>2022-10-29T09:35:42.000Z</time>
      </trkpt>
      <trkpt lat="47.42883" lon="3.44948">
        <ele>202.19999694824</ele>
        <time>2022-10-29T09:35:44.000Z</time>
      </trkpt>
      <trkpt lat="47.42874" lon="3.44971">
        <ele>203</ele>
        <time>2022-10-29T09:35:50.000Z</time>
      </trkpt>
      <trkpt lat="47.42859" lon="3.44983">
        <ele>203.39999389648</ele>
        <time>2022-10-29T09:35:55.000Z</time>
      </trkpt>
      <trkpt lat="47.42851" lon="3.44993">
        <ele>203.60000610352</ele>
        <time>2022-10-29T09:35:58.000Z</time>
      </trkpt>
      <trkpt lat="47.42841" lon="3.45015">
        <ele>204.39999389648</ele>
        <time>2022-10-29T09:36:04.000Z</time>
      </trkpt>
      <trkpt lat="47.42839" lon="3.45024">
        <ele>204.39999389648</ele>
        <time>2022-10-29T09:36:06.000Z</time>
      </trkpt>
      <trkpt lat="47.42837" lon="3.45041">
        <ele>205</ele>
        <time>2022-10-29T09:36:10.000Z</time>
      </trkpt>
      <trkpt lat="47.42836" lon="3.45057">
        <ele>205.60000610352</ele>
        <time>2022-10-29T09:36:14.000Z</time>
      </trkpt>
      <trkpt lat="47.42835" lon="3.45069">
        <ele>205.80000305176</ele>
        <time>2022-10-29T09:36:17.000Z</time>
      </trkpt>
      <trkpt lat="47.42835" lon="3.45086">
        <ele>206.80000305176</ele>
        <time>2022-10-29T09:36:21.000Z</time>
      </trkpt>
      <trkpt lat="47.42834" lon="3.45098">
        <ele>206.80000305176</ele>
        <time>2022-10-29T09:36:24.000Z</time>
      </trkpt>
      <trkpt lat="47.42829" lon="3.45125">
        <ele>207.60000610352</ele>
        <time>2022-10-29T09:36:31.000Z</time>
      </trkpt>
      <trkpt lat="47.42829" lon="3.45129">
        <ele>207.80000305176</ele>
        <time>2022-10-29T09:36:32.000Z</time>
      </trkpt>
      <trkpt lat="47.42824" lon="3.45158">
        <ele>208.60000610352</ele>
        <time>2022-10-29T09:36:39.000Z</time>
      </trkpt>
      <trkpt lat="47.42824" lon="3.45162">
        <ele>208.80000305176</ele>
        <time>2022-10-29T09:36:40.000Z</time>
      </trkpt>
      <trkpt lat="47.42819" lon="3.45191">
        <ele>209.80000305176</ele>
        <time>2022-10-29T09:36:47.000Z</time>
      </trkpt>
      <trkpt lat="47.42817" lon="3.45204">
        <ele>210.19999694824</ele>
        <time>2022-10-29T09:36:50.000Z</time>
      </trkpt>
      <trkpt lat="47.42814" lon="3.45217">
        <ele>210.80000305176</ele>
        <time>2022-10-29T09:36:53.000Z</time>
      </trkpt>
      <trkpt lat="47.42809" lon="3.45231">
        <ele>211.80000305176</ele>
        <time>2022-10-29T09:36:57.000Z</time>
      </trkpt>
      <trkpt lat="47.42802" lon="3.45256">
        <ele>212.60000610352</ele>
        <time>2022-10-29T09:37:03.000Z</time>
      </trkpt>
      <trkpt lat="47.42799" lon="3.45264">
        <ele>213.19999694824</ele>
        <time>2022-10-29T09:37:05.000Z</time>
      </trkpt>
      <trkpt lat="47.42795" lon="3.45281">
        <ele>214.39999389648</ele>
        <time>2022-10-29T09:37:09.000Z</time>
      </trkpt>
      <trkpt lat="47.4279" lon="3.45294">
        <ele>215.39999389648</ele>
        <time>2022-10-29T09:37:12.000Z</time>
      </trkpt>
      <trkpt lat="47.42783" lon="3.45315">
        <ele>216.19999694824</ele>
        <time>2022-10-29T09:37:17.000Z</time>
      </trkpt>
      <trkpt lat="47.42779" lon="3.45322">
        <ele>216.39999389648</ele>
        <time>2022-10-29T09:37:19.000Z</time>
      </trkpt>
      <trkpt lat="47.42772" lon="3.45333">
        <ele>217.39999389648</ele>
        <time>2022-10-29T09:37:22.000Z</time>
      </trkpt>
      <trkpt lat="47.42758" lon="3.45347">
        <ele>218.39999389648</ele>
        <time>2022-10-29T09:37:27.000Z</time>
      </trkpt>
      <trkpt lat="47.42755" lon="3.45348">
        <ele>218.60000610352</ele>
        <time>2022-10-29T09:37:28.000Z</time>
      </trkpt>
      <trkpt lat="47.42741" lon="3.45353">
        <ele>220</ele>
        <time>2022-10-29T09:37:32.000Z</time>
      </trkpt>
      <trkpt lat="47.42738" lon="3.45354">
        <ele>220.19999694824</ele>
        <time>2022-10-29T09:37:33.000Z</time>
      </trkpt>
      <trkpt lat="47.42723" lon="3.45356">
        <ele>221.19999694824</ele>
        <time>2022-10-29T09:37:37.000Z</time>
      </trkpt>
      <trkpt lat="47.42715" lon="3.45357">
        <ele>221.80000305176</ele>
        <time>2022-10-29T09:37:39.000Z</time>
      </trkpt>
      <trkpt lat="47.42704" lon="3.45357">
        <ele>222.39999389648</ele>
        <time>2022-10-29T09:37:42.000Z</time>
      </trkpt>
      <trkpt lat="47.42687" lon="3.45362">
        <ele>223.19999694824</ele>
        <time>2022-10-29T09:37:47.000Z</time>
      </trkpt>
      <trkpt lat="47.42683" lon="3.45364">
        <ele>223.60000610352</ele>
        <time>2022-10-29T09:37:48.000Z</time>
      </trkpt>
      <trkpt lat="47.42653" lon="3.4538">
        <ele>224.39999389648</ele>
        <time>2022-10-29T09:37:57.000Z</time>
      </trkpt>
      <trkpt lat="47.42642" lon="3.45386">
        <ele>224.60000610352</ele>
        <time>2022-10-29T09:38:00.000Z</time>
      </trkpt>
      <trkpt lat="47.42617" lon="3.45398">
        <ele>225.19999694824</ele>
        <time>2022-10-29T09:38:07.000Z</time>
      </trkpt>
      <trkpt lat="47.42599" lon="3.45403">
        <ele>225.80000305176</ele>
        <time>2022-10-29T09:38:12.000Z</time>
      </trkpt>
      <trkpt lat="47.42588" lon="3.45403">
        <ele>226</ele>
        <time>2022-10-29T09:38:15.000Z</time>
      </trkpt>
      <trkpt lat="47.42548" lon="3.45399">
        <ele>226.60000610352</ele>
        <time>2022-10-29T09:38:25.000Z</time>
      </trkpt>
      <trkpt lat="47.42536" lon="3.45398">
        <ele>226.80000305176</ele>
        <time>2022-10-29T09:38:28.000Z</time>
      </trkpt>
      <trkpt lat="47.42514" lon="3.45396">
        <ele>227</ele>
        <time>2022-10-29T09:38:34.000Z</time>
      </trkpt>
      <trkpt lat="47.42496" lon="3.45398">
        <ele>227.80000305176</ele>
        <time>2022-10-29T09:38:40.000Z</time>
      </trkpt>
      <trkpt lat="47.42488" lon="3.45398">
        <ele>227.80000305176</ele>
        <time>2022-10-29T09:38:43.000Z</time>
      </trkpt>
      <trkpt lat="47.42483" lon="3.45397">
        <ele>227.80000305176</ele>
        <time>2022-10-29T09:38:45.000Z</time>
      </trkpt>
      <trkpt lat="47.42479" lon="3.45399">
        <ele>228</ele>
        <time>2022-10-29T09:38:48.000Z</time>
      </trkpt>
      <trkpt lat="47.42476" lon="3.45398">
        <ele>228.19999694824</ele>
        <time>2022-10-29T09:38:50.000Z</time>
      </trkpt>
      <trkpt lat="47.42471" lon="3.45398">
        <ele>228.19999694824</ele>
        <time>2022-10-29T09:38:54.000Z</time>
      </trkpt>
      <trkpt lat="47.4247" lon="3.45398">
        <ele>228.19999694824</ele>
        <time>2022-10-29T09:38:56.000Z</time>
      </trkpt>
      <trkpt lat="47.42471" lon="3.45401">
        <ele>228.19999694824</ele>
        <time>2022-10-29T09:39:01.000Z</time>
      </trkpt>
      <trkpt lat="47.42473" lon="3.45402">
        <ele>228.19999694824</ele>
        <time>2022-10-29T09:39:02.000Z</time>
      </trkpt>
      <trkpt lat="47.42479" lon="3.454">
        <ele>228.19999694824</ele>
        <time>2022-10-29T09:39:05.000Z</time>
      </trkpt>
      <trkpt lat="47.42482" lon="3.45401">
        <ele>228.19999694824</ele>
        <time>2022-10-29T09:39:06.000Z</time>
      </trkpt>
      <trkpt lat="47.42497" lon="3.454">
        <ele>228.19999694824</ele>
        <time>2022-10-29T09:39:11.000Z</time>
      </trkpt>
      <trkpt lat="47.42524" lon="3.45401">
        <ele>228</ele>
        <time>2022-10-29T09:39:17.000Z</time>
      </trkpt>
      <trkpt lat="47.42562" lon="3.45406">
        <ele>227.39999389648</ele>
        <time>2022-10-29T09:39:25.000Z</time>
      </trkpt>
      <trkpt lat="47.42591" lon="3.45411">
        <ele>227.39999389648</ele>
        <time>2022-10-29T09:39:32.000Z</time>
      </trkpt>
      <trkpt lat="47.42594" lon="3.45413">
        <ele>227.39999389648</ele>
        <time>2022-10-29T09:39:33.000Z</time>
      </trkpt>
      <trkpt lat="47.42594" lon="3.45419">
        <ele>227.39999389648</ele>
        <time>2022-10-29T09:39:35.000Z</time>
      </trkpt>
      <trkpt lat="47.42584" lon="3.45435">
        <ele>227.39999389648</ele>
        <time>2022-10-29T09:39:40.000Z</time>
      </trkpt>
      <trkpt lat="47.42573" lon="3.45437">
        <ele>228.19999694824</ele>
        <time>2022-10-29T09:39:44.000Z</time>
      </trkpt>
      <trkpt lat="47.42567" lon="3.45437">
        <ele>228.80000305176</ele>
        <time>2022-10-29T09:39:48.000Z</time>
      </trkpt>
      <trkpt lat="47.42567" lon="3.45439">
        <ele>228.80000305176</ele>
        <time>2022-10-29T09:39:53.000Z</time>
      </trkpt>
      <trkpt lat="47.42567" lon="3.45439">
        <ele>228.60000610352</ele>
        <time>2022-10-29T09:39:59.000Z</time>
      </trkpt>
      <trkpt lat="47.42567" lon="3.45439">
        <ele>228.60000610352</ele>
        <time>2022-10-29T09:40:17.000Z</time>
      </trkpt>
      <trkpt lat="47.42567" lon="3.45439">
        <ele>228</ele>
        <time>2022-10-29T09:40:57.000Z</time>
      </trkpt>
      <trkpt lat="47.42567" lon="3.45439">
        <ele>228</ele>
        <time>2022-10-29T09:41:27.000Z</time>
      </trkpt>
      <trkpt lat="47.42567" lon="3.45439">
        <ele>227.80000305176</ele>
        <time>2022-10-29T09:41:53.000Z</time>
      </trkpt>
      <trkpt lat="47.42567" lon="3.45439">
        <ele>228.19999694824</ele>
        <time>2022-10-29T09:42:23.000Z</time>
      </trkpt>
      <trkpt lat="47.42569" lon="3.45439">
        <ele>228.80000305176</ele>
        <time>2022-10-29T09:42:42.000Z</time>
      </trkpt>
      <trkpt lat="47.42569" lon="3.45438">
        <ele>229</ele>
        <time>2022-10-29T09:42:52.000Z</time>
      </trkpt>
      <trkpt lat="47.4257" lon="3.45438">
        <ele>229.39999389648</ele>
        <time>2022-10-29T09:43:06.000Z</time>
      </trkpt>
      <trkpt lat="47.42572" lon="3.45438">
        <ele>229.39999389648</ele>
        <time>2022-10-29T09:43:08.000Z</time>
      </trkpt>
      <trkpt lat="47.42576" lon="3.45438">
        <ele>229.60000610352</ele>
        <time>2022-10-29T09:43:11.000Z</time>
      </trkpt>
      <trkpt lat="47.42589" lon="3.45426">
        <ele>229.60000610352</ele>
        <time>2022-10-29T09:43:18.000Z</time>
      </trkpt>
      <trkpt lat="47.42595" lon="3.45417">
        <ele>229.19999694824</ele>
        <time>2022-10-29T09:43:22.000Z</time>
      </trkpt>
      <trkpt lat="47.42596" lon="3.45415">
        <ele>229.19999694824</ele>
        <time>2022-10-29T09:43:23.000Z</time>
      </trkpt>
      <trkpt lat="47.42592" lon="3.45407">
        <ele>228.80000305176</ele>
        <time>2022-10-29T09:43:26.000Z</time>
      </trkpt>
      <trkpt lat="47.42589" lon="3.45406">
        <ele>228.60000610352</ele>
        <time>2022-10-29T09:43:27.000Z</time>
      </trkpt>
      <trkpt lat="47.42572" lon="3.45403">
        <ele>228.19999694824</ele>
        <time>2022-10-29T09:43:32.000Z</time>
      </trkpt>
      <trkpt lat="47.42547" lon="3.45399">
        <ele>228</ele>
        <time>2022-10-29T09:43:38.000Z</time>
      </trkpt>
      <trkpt lat="47.42511" lon="3.45397">
        <ele>228.39999389648</ele>
        <time>2022-10-29T09:43:46.000Z</time>
      </trkpt>
      <trkpt lat="47.42468" lon="3.454">
        <ele>228.80000305176</ele>
        <time>2022-10-29T09:43:55.000Z</time>
      </trkpt>
      <trkpt lat="47.42433" lon="3.45402">
        <ele>229</ele>
        <time>2022-10-29T09:44:02.000Z</time>
      </trkpt>
      <trkpt lat="47.42392" lon="3.45405">
        <ele>229.19999694824</ele>
        <time>2022-10-29T09:44:10.000Z</time>
      </trkpt>
      <trkpt lat="47.42346" lon="3.45413">
        <ele>228.39999389648</ele>
        <time>2022-10-29T09:44:19.000Z</time>
      </trkpt>
      <trkpt lat="47.42315" lon="3.45426">
        <ele>227.80000305176</ele>
        <time>2022-10-29T09:44:26.000Z</time>
      </trkpt>
      <trkpt lat="47.42274" lon="3.45441">
        <ele>227.39999389648</ele>
        <time>2022-10-29T09:44:35.000Z</time>
      </trkpt>
      <trkpt lat="47.42258" lon="3.45444">
        <ele>227.39999389648</ele>
        <time>2022-10-29T09:44:38.000Z</time>
      </trkpt>
      <trkpt lat="47.42244" lon="3.45444">
        <ele>227.19999694824</ele>
        <time>2022-10-29T09:44:41.000Z</time>
      </trkpt>
      <trkpt lat="47.42239" lon="3.45445">
        <ele>227</ele>
        <time>2022-10-29T09:44:42.000Z</time>
      </trkpt>
      <trkpt lat="47.42227" lon="3.45444">
        <ele>226.60000610352</ele>
        <time>2022-10-29T09:44:44.000Z</time>
      </trkpt>
      <trkpt lat="47.42203" lon="3.45445">
        <ele>226.19999694824</ele>
        <time>2022-10-29T09:44:48.000Z</time>
      </trkpt>
      <trkpt lat="47.42174" lon="3.45445">
        <ele>225.60000610352</ele>
        <time>2022-10-29T09:44:53.000Z</time>
      </trkpt>
      <trkpt lat="47.42166" lon="3.45452">
        <ele>225.39999389648</ele>
        <time>2022-10-29T09:44:55.000Z</time>
      </trkpt>
      <trkpt lat="47.42163" lon="3.45458">
        <ele>225.19999694824</ele>
        <time>2022-10-29T09:44:56.000Z</time>
      </trkpt>
      <trkpt lat="47.4216" lon="3.45466">
        <ele>225.19999694824</ele>
        <time>2022-10-29T09:44:57.000Z</time>
      </trkpt>
      <trkpt lat="47.42154" lon="3.45484">
        <ele>225</ele>
        <time>2022-10-29T09:45:00.000Z</time>
      </trkpt>
      <trkpt lat="47.42153" lon="3.45492">
        <ele>225</ele>
        <time>2022-10-29T09:45:01.000Z</time>
      </trkpt>
      <trkpt lat="47.42147" lon="3.45523">
        <ele>225.60000610352</ele>
        <time>2022-10-29T09:45:06.000Z</time>
      </trkpt>
      <trkpt lat="47.42145" lon="3.45536">
        <ele>226</ele>
        <time>2022-10-29T09:45:08.000Z</time>
      </trkpt>
      <trkpt lat="47.42144" lon="3.45569">
        <ele>226.60000610352</ele>
        <time>2022-10-29T09:45:13.000Z</time>
      </trkpt>
      <trkpt lat="47.42143" lon="3.45596">
        <ele>227.60000610352</ele>
        <time>2022-10-29T09:45:17.000Z</time>
      </trkpt>
      <trkpt lat="47.42143" lon="3.45603">
        <ele>227.80000305176</ele>
        <time>2022-10-29T09:45:18.000Z</time>
      </trkpt>
      <trkpt lat="47.42143" lon="3.45612">
        <ele>228</ele>
        <time>2022-10-29T09:45:19.000Z</time>
      </trkpt>
      <trkpt lat="47.42142" lon="3.45646">
        <ele>228.80000305176</ele>
        <time>2022-10-29T09:45:24.000Z</time>
      </trkpt>
      <trkpt lat="47.42142" lon="3.45652">
        <ele>229</ele>
        <time>2022-10-29T09:45:25.000Z</time>
      </trkpt>
      <trkpt lat="47.42143" lon="3.45665">
        <ele>229.39999389648</ele>
        <time>2022-10-29T09:45:27.000Z</time>
      </trkpt>
      <trkpt lat="47.42143" lon="3.45692">
        <ele>230</ele>
        <time>2022-10-29T09:45:31.000Z</time>
      </trkpt>
      <trkpt lat="47.42143" lon="3.45706">
        <ele>230.19999694824</ele>
        <time>2022-10-29T09:45:33.000Z</time>
      </trkpt>
      <trkpt lat="47.42144" lon="3.45786">
        <ele>230.80000305176</ele>
        <time>2022-10-29T09:45:44.000Z</time>
      </trkpt>
      <trkpt lat="47.42145" lon="3.4586">
        <ele>231</ele>
        <time>2022-10-29T09:45:54.000Z</time>
      </trkpt>
      <trkpt lat="47.42145" lon="3.45876">
        <ele>231</ele>
        <time>2022-10-29T09:45:56.000Z</time>
      </trkpt>
      <trkpt lat="47.42146" lon="3.45956">
        <ele>231</ele>
        <time>2022-10-29T09:46:06.000Z</time>
      </trkpt>
      <trkpt lat="47.42146" lon="3.46031">
        <ele>231.19999694824</ele>
        <time>2022-10-29T09:46:15.000Z</time>
      </trkpt>
      <trkpt lat="47.42145" lon="3.46109">
        <ele>231</ele>
        <time>2022-10-29T09:46:24.000Z</time>
      </trkpt>
      <trkpt lat="47.42137" lon="3.46194">
        <ele>230.80000305176</ele>
        <time>2022-10-29T09:46:33.000Z</time>
      </trkpt>
      <trkpt lat="47.42125" lon="3.4628">
        <ele>230</ele>
        <time>2022-10-29T09:46:42.000Z</time>
      </trkpt>
      <trkpt lat="47.42119" lon="3.46318">
        <ele>230</ele>
        <time>2022-10-29T09:46:46.000Z</time>
      </trkpt>
      <trkpt lat="47.42108" lon="3.46394">
        <ele>230.19999694824</ele>
        <time>2022-10-29T09:46:54.000Z</time>
      </trkpt>
      <trkpt lat="47.42096" lon="3.46474">
        <ele>229.80000305176</ele>
        <time>2022-10-29T09:47:03.000Z</time>
      </trkpt>
      <trkpt lat="47.42092" lon="3.46497">
        <ele>229.60000610352</ele>
        <time>2022-10-29T09:47:06.000Z</time>
      </trkpt>
      <trkpt lat="47.42085" lon="3.4655">
        <ele>229.19999694824</ele>
        <time>2022-10-29T09:47:12.000Z</time>
      </trkpt>
      <trkpt lat="47.42082" lon="3.46564">
        <ele>229</ele>
        <time>2022-10-29T09:47:14.000Z</time>
      </trkpt>
      <trkpt lat="47.42078" lon="3.46591">
        <ele>228.60000610352</ele>
        <time>2022-10-29T09:47:17.000Z</time>
      </trkpt>
      <trkpt lat="47.42073" lon="3.46612">
        <ele>228.39999389648</ele>
        <time>2022-10-29T09:47:20.000Z</time>
      </trkpt>
      <trkpt lat="47.4207" lon="3.4663">
        <ele>228</ele>
        <time>2022-10-29T09:47:22.000Z</time>
      </trkpt>
      <trkpt lat="47.42071" lon="3.46644">
        <ele>227.80000305176</ele>
        <time>2022-10-29T09:47:24.000Z</time>
      </trkpt>
      <trkpt lat="47.42081" lon="3.46697">
        <ele>227.39999389648</ele>
        <time>2022-10-29T09:47:30.000Z</time>
      </trkpt>
      <trkpt lat="47.42082" lon="3.46709">
        <ele>227</ele>
        <time>2022-10-29T09:47:31.000Z</time>
      </trkpt>
      <trkpt lat="47.42089" lon="3.46755">
        <ele>226</ele>
        <time>2022-10-29T09:47:36.000Z</time>
      </trkpt>
      <trkpt lat="47.4209" lon="3.46765">
        <ele>225.80000305176</ele>
        <time>2022-10-29T09:47:37.000Z</time>
      </trkpt>
      <trkpt lat="47.42102" lon="3.46847">
        <ele>224.80000305176</ele>
        <time>2022-10-29T09:47:45.000Z</time>
      </trkpt>
      <trkpt lat="47.42104" lon="3.46866">
        <ele>224.60000610352</ele>
        <time>2022-10-29T09:47:47.000Z</time>
      </trkpt>
      <trkpt lat="47.42111" lon="3.46918">
        <ele>223.39999389648</ele>
        <time>2022-10-29T09:47:52.000Z</time>
      </trkpt>
      <trkpt lat="47.42122" lon="3.46995">
        <ele>222.39999389648</ele>
        <time>2022-10-29T09:47:59.000Z</time>
      </trkpt>
      <trkpt lat="47.42123" lon="3.47005">
        <ele>222.19999694824</ele>
        <time>2022-10-29T09:48:00.000Z</time>
      </trkpt>
      <trkpt lat="47.4213" lon="3.47056">
        <ele>221.19999694824</ele>
        <time>2022-10-29T09:48:05.000Z</time>
      </trkpt>
      <trkpt lat="47.42136" lon="3.47099">
        <ele>220.60000610352</ele>
        <time>2022-10-29T09:48:09.000Z</time>
      </trkpt>
      <trkpt lat="47.42139" lon="3.47118">
        <ele>220.19999694824</ele>
        <time>2022-10-29T09:48:11.000Z</time>
      </trkpt>
      <trkpt lat="47.42143" lon="3.47178">
        <ele>219.19999694824</ele>
        <time>2022-10-29T09:48:17.000Z</time>
      </trkpt>
      <trkpt lat="47.42143" lon="3.47191">
        <ele>218.80000305176</ele>
        <time>2022-10-29T09:48:18.000Z</time>
      </trkpt>
      <trkpt lat="47.4214" lon="3.47252">
        <ele>217.60000610352</ele>
        <time>2022-10-29T09:48:24.000Z</time>
      </trkpt>
      <trkpt lat="47.42135" lon="3.47327">
        <ele>217</ele>
        <time>2022-10-29T09:48:31.000Z</time>
      </trkpt>
      <trkpt lat="47.42134" lon="3.47359">
        <ele>216.60000610352</ele>
        <time>2022-10-29T09:48:34.000Z</time>
      </trkpt>
      <trkpt lat="47.42131" lon="3.47422">
        <ele>216.19999694824</ele>
        <time>2022-10-29T09:48:40.000Z</time>
      </trkpt>
      <trkpt lat="47.4213" lon="3.47501">
        <ele>216.39999389648</ele>
        <time>2022-10-29T09:48:48.000Z</time>
      </trkpt>
      <trkpt lat="47.42132" lon="3.47557">
        <ele>216.60000610352</ele>
        <time>2022-10-29T09:48:54.000Z</time>
      </trkpt>
      <trkpt lat="47.42132" lon="3.47643">
        <ele>216.60000610352</ele>
        <time>2022-10-29T09:49:04.000Z</time>
      </trkpt>
      <trkpt lat="47.42131" lon="3.47651">
        <ele>216.60000610352</ele>
        <time>2022-10-29T09:49:05.000Z</time>
      </trkpt>
      <trkpt lat="47.4213" lon="3.47668">
        <ele>216.60000610352</ele>
        <time>2022-10-29T09:49:07.000Z</time>
      </trkpt>
      <trkpt lat="47.42126" lon="3.47703">
        <ele>216.60000610352</ele>
        <time>2022-10-29T09:49:11.000Z</time>
      </trkpt>
      <trkpt lat="47.42116" lon="3.47783">
        <ele>216.19999694824</ele>
        <time>2022-10-29T09:49:20.000Z</time>
      </trkpt>
      <trkpt lat="47.42115" lon="3.4779">
        <ele>216</ele>
        <time>2022-10-29T09:49:21.000Z</time>
      </trkpt>
      <trkpt lat="47.4211" lon="3.47829">
        <ele>215.60000610352</ele>
        <time>2022-10-29T09:49:25.000Z</time>
      </trkpt>
      <trkpt lat="47.42105" lon="3.47868">
        <ele>215</ele>
        <time>2022-10-29T09:49:29.000Z</time>
      </trkpt>
      <trkpt lat="47.42102" lon="3.47896">
        <ele>214.39999389648</ele>
        <time>2022-10-29T09:49:32.000Z</time>
      </trkpt>
      <trkpt lat="47.42097" lon="3.47946">
        <ele>213.60000610352</ele>
        <time>2022-10-29T09:49:37.000Z</time>
      </trkpt>
      <trkpt lat="47.42096" lon="3.47969">
        <ele>213.19999694824</ele>
        <time>2022-10-29T09:49:39.000Z</time>
      </trkpt>
      <trkpt lat="47.42092" lon="3.48011">
        <ele>212.39999389648</ele>
        <time>2022-10-29T09:49:43.000Z</time>
      </trkpt>
      <trkpt lat="47.4209" lon="3.48022">
        <ele>212</ele>
        <time>2022-10-29T09:49:44.000Z</time>
      </trkpt>
      <trkpt lat="47.42087" lon="3.48055">
        <ele>211.39999389648</ele>
        <time>2022-10-29T09:49:47.000Z</time>
      </trkpt>
      <trkpt lat="47.42083" lon="3.48077">
        <ele>211</ele>
        <time>2022-10-29T09:49:49.000Z</time>
      </trkpt>
      <trkpt lat="47.42082" lon="3.48085">
        <ele>210.80000305176</ele>
        <time>2022-10-29T09:49:50.000Z</time>
      </trkpt>
      <trkpt lat="47.42076" lon="3.48122">
        <ele>210</ele>
        <time>2022-10-29T09:49:53.000Z</time>
      </trkpt>
      <trkpt lat="47.42075" lon="3.48133">
        <ele>209.80000305176</ele>
        <time>2022-10-29T09:49:54.000Z</time>
      </trkpt>
      <trkpt lat="47.42072" lon="3.48183">
        <ele>209</ele>
        <time>2022-10-29T09:49:58.000Z</time>
      </trkpt>
      <trkpt lat="47.42072" lon="3.48195">
        <ele>208.80000305176</ele>
        <time>2022-10-29T09:49:59.000Z</time>
      </trkpt>
      <trkpt lat="47.42073" lon="3.48219">
        <ele>207.60000610352</ele>
        <time>2022-10-29T09:50:01.000Z</time>
      </trkpt>
      <trkpt lat="47.42075" lon="3.4827">
        <ele>206.19999694824</ele>
        <time>2022-10-29T09:50:05.000Z</time>
      </trkpt>
      <trkpt lat="47.4208" lon="3.48313">
        <ele>204.80000305176</ele>
        <time>2022-10-29T09:50:08.000Z</time>
      </trkpt>
      <trkpt lat="47.42086" lon="3.4835">
        <ele>204</ele>
        <time>2022-10-29T09:50:11.000Z</time>
      </trkpt>
      <trkpt lat="47.42089" lon="3.48362">
        <ele>203.60000610352</ele>
        <time>2022-10-29T09:50:12.000Z</time>
      </trkpt>
      <trkpt lat="47.42098" lon="3.48399">
        <ele>202.39999389648</ele>
        <time>2022-10-29T09:50:15.000Z</time>
      </trkpt>
      <trkpt lat="47.42106" lon="3.48421">
        <ele>201.60000610352</ele>
        <time>2022-10-29T09:50:17.000Z</time>
      </trkpt>
      <trkpt lat="47.4211" lon="3.48431">
        <ele>201.60000610352</ele>
        <time>2022-10-29T09:50:18.000Z</time>
      </trkpt>
      <trkpt lat="47.42121" lon="3.48449">
        <ele>201.39999389648</ele>
        <time>2022-10-29T09:50:20.000Z</time>
      </trkpt>
      <trkpt lat="47.42127" lon="3.48456">
        <ele>201.39999389648</ele>
        <time>2022-10-29T09:50:21.000Z</time>
      </trkpt>
      <trkpt lat="47.42156" lon="3.48489">
        <ele>201.39999389648</ele>
        <time>2022-10-29T09:50:26.000Z</time>
      </trkpt>
      <trkpt lat="47.42175" lon="3.48519">
        <ele>201.60000610352</ele>
        <time>2022-10-29T09:50:30.000Z</time>
      </trkpt>
      <trkpt lat="47.42182" lon="3.48535">
        <ele>201.80000305176</ele>
        <time>2022-10-29T09:50:32.000Z</time>
      </trkpt>
      <trkpt lat="47.42198" lon="3.48588">
        <ele>202</ele>
        <time>2022-10-29T09:50:38.000Z</time>
      </trkpt>
      <trkpt lat="47.42218" lon="3.48671">
        <ele>202</ele>
        <time>2022-10-29T09:50:47.000Z</time>
      </trkpt>
      <trkpt lat="47.4222" lon="3.4868">
        <ele>202.19999694824</ele>
        <time>2022-10-29T09:50:48.000Z</time>
      </trkpt>
      <trkpt lat="47.42236" lon="3.48747">
        <ele>202.60000610352</ele>
        <time>2022-10-29T09:50:56.000Z</time>
      </trkpt>
      <trkpt lat="47.4225" lon="3.48802">
        <ele>203.60000610352</ele>
        <time>2022-10-29T09:51:03.000Z</time>
      </trkpt>
      <trkpt lat="47.42252" lon="3.4881">
        <ele>203.80000305176</ele>
        <time>2022-10-29T09:51:04.000Z</time>
      </trkpt>
      <trkpt lat="47.42267" lon="3.48868">
        <ele>205</ele>
        <time>2022-10-29T09:51:11.000Z</time>
      </trkpt>
      <trkpt lat="47.42271" lon="3.48884">
        <ele>205.60000610352</ele>
        <time>2022-10-29T09:51:13.000Z</time>
      </trkpt>
      <trkpt lat="47.42277" lon="3.48908">
        <ele>205.80000305176</ele>
        <time>2022-10-29T09:51:16.000Z</time>
      </trkpt>
      <trkpt lat="47.42288" lon="3.48948">
        <ele>206</ele>
        <time>2022-10-29T09:51:21.000Z</time>
      </trkpt>
      <trkpt lat="47.42292" lon="3.48965">
        <ele>206.19999694824</ele>
        <time>2022-10-29T09:51:23.000Z</time>
      </trkpt>
      <trkpt lat="47.42307" lon="3.49021">
        <ele>206.60000610352</ele>
        <time>2022-10-29T09:51:30.000Z</time>
      </trkpt>
      <trkpt lat="47.42323" lon="3.49085">
        <ele>207</ele>
        <time>2022-10-29T09:51:38.000Z</time>
      </trkpt>
      <trkpt lat="47.42327" lon="3.49102">
        <ele>207.19999694824</ele>
        <time>2022-10-29T09:51:40.000Z</time>
      </trkpt>
      <trkpt lat="47.42335" lon="3.49133">
        <ele>207.60000610352</ele>
        <time>2022-10-29T09:51:44.000Z</time>
      </trkpt>
      <trkpt lat="47.42346" lon="3.49183">
        <ele>207.80000305176</ele>
        <time>2022-10-29T09:51:50.000Z</time>
      </trkpt>
      <trkpt lat="47.42359" lon="3.49243">
        <ele>207.39999389648</ele>
        <time>2022-10-29T09:51:57.000Z</time>
      </trkpt>
      <trkpt lat="47.42371" lon="3.49298">
        <ele>207</ele>
        <time>2022-10-29T09:52:04.000Z</time>
      </trkpt>
      <trkpt lat="47.42374" lon="3.49317">
        <ele>206.80000305176</ele>
        <time>2022-10-29T09:52:06.000Z</time>
      </trkpt>
      <trkpt lat="47.42373" lon="3.49342">
        <ele>206.80000305176</ele>
        <time>2022-10-29T09:52:09.000Z</time>
      </trkpt>
      <trkpt lat="47.42359" lon="3.49374">
        <ele>206.39999389648</ele>
        <time>2022-10-29T09:52:12.000Z</time>
      </trkpt>
      <trkpt lat="47.42341" lon="3.49392">
        <ele>206</ele>
        <time>2022-10-29T09:52:15.000Z</time>
      </trkpt>
      <trkpt lat="47.42327" lon="3.494">
        <ele>205.80000305176</ele>
        <time>2022-10-29T09:52:17.000Z</time>
      </trkpt>
      <trkpt lat="47.42311" lon="3.49403">
        <ele>205.39999389648</ele>
        <time>2022-10-29T09:52:19.000Z</time>
      </trkpt>
      <trkpt lat="47.42295" lon="3.49402">
        <ele>205.19999694824</ele>
        <time>2022-10-29T09:52:21.000Z</time>
      </trkpt>
      <trkpt lat="47.42287" lon="3.49399">
        <ele>205</ele>
        <time>2022-10-29T09:52:22.000Z</time>
      </trkpt>
      <trkpt lat="47.42279" lon="3.49395">
        <ele>204.60000610352</ele>
        <time>2022-10-29T09:52:23.000Z</time>
      </trkpt>
      <trkpt lat="47.42262" lon="3.49386">
        <ele>203.60000610352</ele>
        <time>2022-10-29T09:52:25.000Z</time>
      </trkpt>
      <trkpt lat="47.42229" lon="3.49369">
        <ele>202</ele>
        <time>2022-10-29T09:52:29.000Z</time>
      </trkpt>
      <trkpt lat="47.4222" lon="3.49365">
        <ele>201.80000305176</ele>
        <time>2022-10-29T09:52:30.000Z</time>
      </trkpt>
      <trkpt lat="47.42202" lon="3.49355">
        <ele>200.60000610352</ele>
        <time>2022-10-29T09:52:32.000Z</time>
      </trkpt>
      <trkpt lat="47.42164" lon="3.49334">
        <ele>199</ele>
        <time>2022-10-29T09:52:36.000Z</time>
      </trkpt>
      <trkpt lat="47.42145" lon="3.49324">
        <ele>197.80000305176</ele>
        <time>2022-10-29T09:52:38.000Z</time>
      </trkpt>
      <trkpt lat="47.42126" lon="3.49315">
        <ele>196.60000610352</ele>
        <time>2022-10-29T09:52:40.000Z</time>
      </trkpt>
      <trkpt lat="47.42117" lon="3.4931">
        <ele>195.39999389648</ele>
        <time>2022-10-29T09:52:41.000Z</time>
      </trkpt>
      <trkpt lat="47.42097" lon="3.49303">
        <ele>194.19999694824</ele>
        <time>2022-10-29T09:52:43.000Z</time>
      </trkpt>
      <trkpt lat="47.42078" lon="3.49299">
        <ele>193.19999694824</ele>
        <time>2022-10-29T09:52:45.000Z</time>
      </trkpt>
      <trkpt lat="47.42068" lon="3.49301">
        <ele>192.60000610352</ele>
        <time>2022-10-29T09:52:46.000Z</time>
      </trkpt>
      <trkpt lat="47.42058" lon="3.49304">
        <ele>192.39999389648</ele>
        <time>2022-10-29T09:52:47.000Z</time>
      </trkpt>
      <trkpt lat="47.42049" lon="3.4931">
        <ele>191.60000610352</ele>
        <time>2022-10-29T09:52:48.000Z</time>
      </trkpt>
      <trkpt lat="47.4204" lon="3.49319">
        <ele>191.39999389648</ele>
        <time>2022-10-29T09:52:49.000Z</time>
      </trkpt>
      <trkpt lat="47.42031" lon="3.49328">
        <ele>190.60000610352</ele>
        <time>2022-10-29T09:52:50.000Z</time>
      </trkpt>
      <trkpt lat="47.42024" lon="3.4934">
        <ele>190.19999694824</ele>
        <time>2022-10-29T09:52:51.000Z</time>
      </trkpt>
      <trkpt lat="47.42012" lon="3.49367">
        <ele>188.80000305176</ele>
        <time>2022-10-29T09:52:53.000Z</time>
      </trkpt>
      <trkpt lat="47.41994" lon="3.49409">
        <ele>187.60000610352</ele>
        <time>2022-10-29T09:52:56.000Z</time>
      </trkpt>
      <trkpt lat="47.41988" lon="3.49424">
        <ele>186.60000610352</ele>
        <time>2022-10-29T09:52:57.000Z</time>
      </trkpt>
      <trkpt lat="47.41976" lon="3.49453">
        <ele>185.19999694824</ele>
        <time>2022-10-29T09:52:59.000Z</time>
      </trkpt>
      <trkpt lat="47.4197" lon="3.49467">
        <ele>184</ele>
        <time>2022-10-29T09:53:00.000Z</time>
      </trkpt>
      <trkpt lat="47.4196" lon="3.49494">
        <ele>183</ele>
        <time>2022-10-29T09:53:02.000Z</time>
      </trkpt>
      <trkpt lat="47.4195" lon="3.49517">
        <ele>181.80000305176</ele>
        <time>2022-10-29T09:53:04.000Z</time>
      </trkpt>
      <trkpt lat="47.41946" lon="3.49527">
        <ele>181</ele>
        <time>2022-10-29T09:53:05.000Z</time>
      </trkpt>
      <trkpt lat="47.4194" lon="3.49545">
        <ele>180.60000610352</ele>
        <time>2022-10-29T09:53:07.000Z</time>
      </trkpt>
      <trkpt lat="47.41932" lon="3.49563">
        <ele>180.39999389648</ele>
        <time>2022-10-29T09:53:09.000Z</time>
      </trkpt>
      <trkpt lat="47.41923" lon="3.49588">
        <ele>180.19999694824</ele>
        <time>2022-10-29T09:53:13.000Z</time>
      </trkpt>
      <trkpt lat="47.4192" lon="3.49598">
        <ele>180.39999389648</ele>
        <time>2022-10-29T09:53:15.000Z</time>
      </trkpt>
      <trkpt lat="47.41918" lon="3.49604">
        <ele>180.39999389648</ele>
        <time>2022-10-29T09:53:16.000Z</time>
      </trkpt>
      <trkpt lat="47.41911" lon="3.4961">
        <ele>180.60000610352</ele>
        <time>2022-10-29T09:53:18.000Z</time>
      </trkpt>
      <trkpt lat="47.41895" lon="3.49607">
        <ele>181</ele>
        <time>2022-10-29T09:53:22.000Z</time>
      </trkpt>
      <trkpt lat="47.41882" lon="3.49603">
        <ele>182</ele>
        <time>2022-10-29T09:53:25.000Z</time>
      </trkpt>
      <trkpt lat="47.41867" lon="3.49596">
        <ele>182.39999389648</ele>
        <time>2022-10-29T09:53:29.000Z</time>
      </trkpt>
      <trkpt lat="47.41856" lon="3.49592">
        <ele>183</ele>
        <time>2022-10-29T09:53:32.000Z</time>
      </trkpt>
      <trkpt lat="47.4184" lon="3.49583">
        <ele>183.80000305176</ele>
        <time>2022-10-29T09:53:36.000Z</time>
      </trkpt>
      <trkpt lat="47.41832" lon="3.49579">
        <ele>184.19999694824</ele>
        <time>2022-10-29T09:53:38.000Z</time>
      </trkpt>
      <trkpt lat="47.41813" lon="3.4957">
        <ele>185</ele>
        <time>2022-10-29T09:53:43.000Z</time>
      </trkpt>
      <trkpt lat="47.41809" lon="3.49568">
        <ele>185.39999389648</ele>
        <time>2022-10-29T09:53:44.000Z</time>
      </trkpt>
      <trkpt lat="47.41788" lon="3.49556">
        <ele>186.60000610352</ele>
        <time>2022-10-29T09:53:49.000Z</time>
      </trkpt>
      <trkpt lat="47.41774" lon="3.49552">
        <ele>187.39999389648</ele>
        <time>2022-10-29T09:53:52.000Z</time>
      </trkpt>
      <trkpt lat="47.41762" lon="3.49548">
        <ele>187.80000305176</ele>
        <time>2022-10-29T09:53:55.000Z</time>
      </trkpt>
      <trkpt lat="47.41745" lon="3.49543">
        <ele>188.60000610352</ele>
        <time>2022-10-29T09:53:59.000Z</time>
      </trkpt>
      <trkpt lat="47.41737" lon="3.49543">
        <ele>189</ele>
        <time>2022-10-29T09:54:01.000Z</time>
      </trkpt>
      <trkpt lat="47.41715" lon="3.4954">
        <ele>189.80000305176</ele>
        <time>2022-10-29T09:54:07.000Z</time>
      </trkpt>
      <trkpt lat="47.41712" lon="3.49539">
        <ele>190.19999694824</ele>
        <time>2022-10-29T09:54:08.000Z</time>
      </trkpt>
      <trkpt lat="47.41692" lon="3.49541">
        <ele>191.19999694824</ele>
        <time>2022-10-29T09:54:14.000Z</time>
      </trkpt>
      <trkpt lat="47.41689" lon="3.49541">
        <ele>191.39999389648</ele>
        <time>2022-10-29T09:54:15.000Z</time>
      </trkpt>
      <trkpt lat="47.41671" lon="3.49545">
        <ele>192</ele>
        <time>2022-10-29T09:54:21.000Z</time>
      </trkpt>
      <trkpt lat="47.41665" lon="3.49547">
        <ele>192.39999389648</ele>
        <time>2022-10-29T09:54:23.000Z</time>
      </trkpt>
      <trkpt lat="47.41655" lon="3.49551">
        <ele>193.60000610352</ele>
        <time>2022-10-29T09:54:27.000Z</time>
      </trkpt>
      <trkpt lat="47.41638" lon="3.49555">
        <ele>194.80000305176</ele>
        <time>2022-10-29T09:54:34.000Z</time>
      </trkpt>
      <trkpt lat="47.41629" lon="3.49562">
        <ele>195.60000610352</ele>
        <time>2022-10-29T09:54:38.000Z</time>
      </trkpt>
      <trkpt lat="47.41628" lon="3.49565">
        <ele>195.80000305176</ele>
        <time>2022-10-29T09:54:39.000Z</time>
      </trkpt>
      <trkpt lat="47.41629" lon="3.49567">
        <ele>195.80000305176</ele>
        <time>2022-10-29T09:54:40.000Z</time>
      </trkpt>
      <trkpt lat="47.41633" lon="3.49571">
        <ele>196.19999694824</ele>
        <time>2022-10-29T09:54:42.000Z</time>
      </trkpt>
      <trkpt lat="47.41651" lon="3.49578">
        <ele>196.80000305176</ele>
        <time>2022-10-29T09:54:48.000Z</time>
      </trkpt>
      <trkpt lat="47.4166" lon="3.49582">
        <ele>197</ele>
        <time>2022-10-29T09:54:51.000Z</time>
      </trkpt>
      <trkpt lat="47.41674" lon="3.49588">
        <ele>197.19999694824</ele>
        <time>2022-10-29T09:54:55.000Z</time>
      </trkpt>
      <trkpt lat="47.41702" lon="3.496">
        <ele>197.80000305176</ele>
        <time>2022-10-29T09:55:03.000Z</time>
      </trkpt>
      <trkpt lat="47.41709" lon="3.49603">
        <ele>198</ele>
        <time>2022-10-29T09:55:05.000Z</time>
      </trkpt>
      <trkpt lat="47.41733" lon="3.49615">
        <ele>198.60000610352</ele>
        <time>2022-10-29T09:55:12.000Z</time>
      </trkpt>
      <trkpt lat="47.4176" lon="3.49631">
        <ele>199</ele>
        <time>2022-10-29T09:55:20.000Z</time>
      </trkpt>
      <trkpt lat="47.41763" lon="3.49634">
        <ele>199</ele>
        <time>2022-10-29T09:55:21.000Z</time>
      </trkpt>
      <trkpt lat="47.41766" lon="3.49641">
        <ele>199.19999694824</ele>
        <time>2022-10-29T09:55:23.000Z</time>
      </trkpt>
      <trkpt lat="47.41767" lon="3.49642">
        <ele>199.19999694824</ele>
        <time>2022-10-29T09:55:26.000Z</time>
      </trkpt>
      <trkpt lat="47.41769" lon="3.49641">
        <ele>199.19999694824</ele>
        <time>2022-10-29T09:55:36.000Z</time>
      </trkpt>
      <trkpt lat="47.41771" lon="3.49638">
        <ele>199.19999694824</ele>
        <time>2022-10-29T09:55:38.000Z</time>
      </trkpt>
      <trkpt lat="47.41768" lon="3.49633">
        <ele>199.19999694824</ele>
        <time>2022-10-29T09:55:41.000Z</time>
      </trkpt>
      <trkpt lat="47.41766" lon="3.49634">
        <ele>199</ele>
        <time>2022-10-29T09:55:43.000Z</time>
      </trkpt>
      <trkpt lat="47.41764" lon="3.49639">
        <ele>198.80000305176</ele>
        <time>2022-10-29T09:55:45.000Z</time>
      </trkpt>
      <trkpt lat="47.41765" lon="3.49646">
        <ele>198.80000305176</ele>
        <time>2022-10-29T09:55:47.000Z</time>
      </trkpt>
      <trkpt lat="47.4176" lon="3.49654">
        <ele>199</ele>
        <time>2022-10-29T09:55:50.000Z</time>
      </trkpt>
      <trkpt lat="47.41755" lon="3.49657">
        <ele>200.19999694824</ele>
        <time>2022-10-29T09:55:53.000Z</time>
      </trkpt>
      <trkpt lat="47.4175" lon="3.49663">
        <ele>200.80000305176</ele>
        <time>2022-10-29T09:55:56.000Z</time>
      </trkpt>
      <trkpt lat="47.41746" lon="3.49667">
        <ele>201.39999389648</ele>
        <time>2022-10-29T09:55:58.000Z</time>
      </trkpt>
      <trkpt lat="47.41738" lon="3.49675">
        <ele>202.39999389648</ele>
        <time>2022-10-29T09:56:02.000Z</time>
      </trkpt>
      <trkpt lat="47.41732" lon="3.49681">
        <ele>203</ele>
        <time>2022-10-29T09:56:05.000Z</time>
      </trkpt>
      <trkpt lat="47.41729" lon="3.49683">
        <ele>203.80000305176</ele>
        <time>2022-10-29T09:56:06.000Z</time>
      </trkpt>
      <trkpt lat="47.4172" lon="3.49693">
        <ele>204.80000305176</ele>
        <time>2022-10-29T09:56:10.000Z</time>
      </trkpt>
      <trkpt lat="47.41715" lon="3.49698">
        <ele>205.19999694824</ele>
        <time>2022-10-29T09:56:12.000Z</time>
      </trkpt>
      <trkpt lat="47.41711" lon="3.49705">
        <ele>206</ele>
        <time>2022-10-29T09:56:14.000Z</time>
      </trkpt>
      <trkpt lat="47.41703" lon="3.49718">
        <ele>207</ele>
        <time>2022-10-29T09:56:18.000Z</time>
      </trkpt>
      <trkpt lat="47.41701" lon="3.49722">
        <ele>207.19999694824</ele>
        <time>2022-10-29T09:56:19.000Z</time>
      </trkpt>
      <trkpt lat="47.41692" lon="3.4974">
        <ele>208.19999694824</ele>
        <time>2022-10-29T09:56:24.000Z</time>
      </trkpt>
      <trkpt lat="47.41687" lon="3.49752">
        <ele>209</ele>
        <time>2022-10-29T09:56:27.000Z</time>
      </trkpt>
      <trkpt lat="47.41684" lon="3.4976">
        <ele>209.19999694824</ele>
        <time>2022-10-29T09:56:29.000Z</time>
      </trkpt>
      <trkpt lat="47.41678" lon="3.49772">
        <ele>210.39999389648</ele>
        <time>2022-10-29T09:56:33.000Z</time>
      </trkpt>
      <trkpt lat="47.41677" lon="3.49775">
        <ele>210.60000610352</ele>
        <time>2022-10-29T09:56:34.000Z</time>
      </trkpt>
      <trkpt lat="47.41672" lon="3.49788">
        <ele>211.60000610352</ele>
        <time>2022-10-29T09:56:39.000Z</time>
      </trkpt>
      <trkpt lat="47.41669" lon="3.49794">
        <ele>211.80000305176</ele>
        <time>2022-10-29T09:56:41.000Z</time>
      </trkpt>
      <trkpt lat="47.41657" lon="3.49818">
        <ele>212.39999389648</ele>
        <time>2022-10-29T09:56:48.000Z</time>
      </trkpt>
      <trkpt lat="47.41656" lon="3.49821">
        <ele>212.60000610352</ele>
        <time>2022-10-29T09:56:49.000Z</time>
      </trkpt>
      <trkpt lat="47.41649" lon="3.4984">
        <ele>213.80000305176</ele>
        <time>2022-10-29T09:56:55.000Z</time>
      </trkpt>
      <trkpt lat="47.41647" lon="3.49843">
        <ele>213.80000305176</ele>
        <time>2022-10-29T09:56:56.000Z</time>
      </trkpt>
      <trkpt lat="47.41633" lon="3.49872">
        <ele>214.60000610352</ele>
        <time>2022-10-29T09:57:03.000Z</time>
      </trkpt>
      <trkpt lat="47.41631" lon="3.49877">
        <ele>215</ele>
        <time>2022-10-29T09:57:04.000Z</time>
      </trkpt>
      <trkpt lat="47.41624" lon="3.49898">
        <ele>215.39999389648</ele>
        <time>2022-10-29T09:57:09.000Z</time>
      </trkpt>
      <trkpt lat="47.41618" lon="3.49914">
        <ele>216</ele>
        <time>2022-10-29T09:57:13.000Z</time>
      </trkpt>
      <trkpt lat="47.41613" lon="3.49931">
        <ele>216.39999389648</ele>
        <time>2022-10-29T09:57:17.000Z</time>
      </trkpt>
      <trkpt lat="47.41606" lon="3.49947">
        <ele>217</ele>
        <time>2022-10-29T09:57:21.000Z</time>
      </trkpt>
      <trkpt lat="47.41603" lon="3.49954">
        <ele>217.19999694824</ele>
        <time>2022-10-29T09:57:23.000Z</time>
      </trkpt>
      <trkpt lat="47.41596" lon="3.49976">
        <ele>218.19999694824</ele>
        <time>2022-10-29T09:57:28.000Z</time>
      </trkpt>
      <trkpt lat="47.41596" lon="3.49985">
        <ele>218.19999694824</ele>
        <time>2022-10-29T09:57:30.000Z</time>
      </trkpt>
      <trkpt lat="47.41592" lon="3.50019">
        <ele>219.19999694824</ele>
        <time>2022-10-29T09:57:38.000Z</time>
      </trkpt>
      <trkpt lat="47.4159" lon="3.50046">
        <ele>220.19999694824</ele>
        <time>2022-10-29T09:57:44.000Z</time>
      </trkpt>
      <trkpt lat="47.4159" lon="3.50053">
        <ele>220.39999389648</ele>
        <time>2022-10-29T09:57:46.000Z</time>
      </trkpt>
      <trkpt lat="47.41589" lon="3.50079">
        <ele>221.39999389648</ele>
        <time>2022-10-29T09:57:52.000Z</time>
      </trkpt>
      <trkpt lat="47.41589" lon="3.50084">
        <ele>221.60000610352</ele>
        <time>2022-10-29T09:57:53.000Z</time>
      </trkpt>
      <trkpt lat="47.41589" lon="3.50098">
        <ele>222.39999389648</ele>
        <time>2022-10-29T09:57:56.000Z</time>
      </trkpt>
      <trkpt lat="47.41588" lon="3.50122">
        <ele>223.19999694824</ele>
        <time>2022-10-29T09:58:01.000Z</time>
      </trkpt>
      <trkpt lat="47.41588" lon="3.50136">
        <ele>223.60000610352</ele>
        <time>2022-10-29T09:58:04.000Z</time>
      </trkpt>
      <trkpt lat="47.41587" lon="3.50157">
        <ele>223.80000305176</ele>
        <time>2022-10-29T09:58:08.000Z</time>
      </trkpt>
      <trkpt lat="47.41585" lon="3.50184">
        <ele>224.80000305176</ele>
        <time>2022-10-29T09:58:13.000Z</time>
      </trkpt>
      <trkpt lat="47.41584" lon="3.50189">
        <ele>225</ele>
        <time>2022-10-29T09:58:15.000Z</time>
      </trkpt>
      <trkpt lat="47.41583" lon="3.50228">
        <ele>225.80000305176</ele>
        <time>2022-10-29T09:58:22.000Z</time>
      </trkpt>
      <trkpt lat="47.41582" lon="3.50233">
        <ele>225.80000305176</ele>
        <time>2022-10-29T09:58:23.000Z</time>
      </trkpt>
      <trkpt lat="47.41579" lon="3.50269">
        <ele>226.60000610352</ele>
        <time>2022-10-29T09:58:30.000Z</time>
      </trkpt>
      <trkpt lat="47.41578" lon="3.50279">
        <ele>226.80000305176</ele>
        <time>2022-10-29T09:58:32.000Z</time>
      </trkpt>
      <trkpt lat="47.41575" lon="3.50332">
        <ele>227.39999389648</ele>
        <time>2022-10-29T09:58:41.000Z</time>
      </trkpt>
      <trkpt lat="47.41575" lon="3.50365">
        <ele>228</ele>
        <time>2022-10-29T09:58:46.000Z</time>
      </trkpt>
      <trkpt lat="47.41573" lon="3.50386">
        <ele>228.19999694824</ele>
        <time>2022-10-29T09:58:49.000Z</time>
      </trkpt>
      <trkpt lat="47.41573" lon="3.50393">
        <ele>228.19999694824</ele>
        <time>2022-10-29T09:58:50.000Z</time>
      </trkpt>
      <trkpt lat="47.41572" lon="3.50414">
        <ele>228.39999389648</ele>
        <time>2022-10-29T09:58:53.000Z</time>
      </trkpt>
      <trkpt lat="47.4157" lon="3.50428">
        <ele>228.39999389648</ele>
        <time>2022-10-29T09:58:55.000Z</time>
      </trkpt>
      <trkpt lat="47.4157" lon="3.50435">
        <ele>228.39999389648</ele>
        <time>2022-10-29T09:58:56.000Z</time>
      </trkpt>
      <trkpt lat="47.41566" lon="3.50521">
        <ele>229</ele>
        <time>2022-10-29T09:59:08.000Z</time>
      </trkpt>
      <trkpt lat="47.41565" lon="3.50528">
        <ele>229.19999694824</ele>
        <time>2022-10-29T09:59:09.000Z</time>
      </trkpt>
      <trkpt lat="47.41563" lon="3.50578">
        <ele>229.39999389648</ele>
        <time>2022-10-29T09:59:16.000Z</time>
      </trkpt>
      <trkpt lat="47.4156" lon="3.50659">
        <ele>229.60000610352</ele>
        <time>2022-10-29T09:59:27.000Z</time>
      </trkpt>
      <trkpt lat="47.41556" lon="3.50719">
        <ele>230</ele>
        <time>2022-10-29T09:59:35.000Z</time>
      </trkpt>
      <trkpt lat="47.41556" lon="3.50726">
        <ele>230.19999694824</ele>
        <time>2022-10-29T09:59:37.000Z</time>
      </trkpt>
      <trkpt lat="47.41555" lon="3.50741">
        <ele>230.19999694824</ele>
        <time>2022-10-29T09:59:38.000Z</time>
      </trkpt>
      <trkpt lat="47.41554" lon="3.5077">
        <ele>230.60000610352</ele>
        <time>2022-10-29T09:59:42.000Z</time>
      </trkpt>
      <trkpt lat="47.41552" lon="3.50808">
        <ele>230.80000305176</ele>
        <time>2022-10-29T09:59:47.000Z</time>
      </trkpt>
      <trkpt lat="47.41552" lon="3.50815">
        <ele>230.80000305176</ele>
        <time>2022-10-29T09:59:48.000Z</time>
      </trkpt>
      <trkpt lat="47.41551" lon="3.50845">
        <ele>231.19999694824</ele>
        <time>2022-10-29T09:59:52.000Z</time>
      </trkpt>
      <trkpt lat="47.41549" lon="3.5088">
        <ele>231.19999694824</ele>
        <time>2022-10-29T09:59:57.000Z</time>
      </trkpt>
      <trkpt lat="47.41547" lon="3.50899">
        <ele>231.19999694824</ele>
        <time>2022-10-29T10:00:00.000Z</time>
      </trkpt>
      <trkpt lat="47.41546" lon="3.50923">
        <ele>231.19999694824</ele>
        <time>2022-10-29T10:00:04.000Z</time>
      </trkpt>
      <trkpt lat="47.41546" lon="3.50934">
        <ele>231.19999694824</ele>
        <time>2022-10-29T10:00:06.000Z</time>
      </trkpt>
      <trkpt lat="47.41547" lon="3.50953">
        <ele>231</ele>
        <time>2022-10-29T10:00:09.000Z</time>
      </trkpt>
      <trkpt lat="47.41547" lon="3.5096">
        <ele>231</ele>
        <time>2022-10-29T10:00:10.000Z</time>
      </trkpt>
      <trkpt lat="47.41546" lon="3.50974">
        <ele>230.80000305176</ele>
        <time>2022-10-29T10:00:12.000Z</time>
      </trkpt>
      <trkpt lat="47.41544" lon="3.50988">
        <ele>230.60000610352</ele>
        <time>2022-10-29T10:00:14.000Z</time>
      </trkpt>
      <trkpt lat="47.41542" lon="3.51008">
        <ele>230.19999694824</ele>
        <time>2022-10-29T10:00:16.000Z</time>
      </trkpt>
      <trkpt lat="47.41541" lon="3.51018">
        <ele>229.60000610352</ele>
        <time>2022-10-29T10:00:17.000Z</time>
      </trkpt>
      <trkpt lat="47.41541" lon="3.51027">
        <ele>229</ele>
        <time>2022-10-29T10:00:18.000Z</time>
      </trkpt>
      <trkpt lat="47.41537" lon="3.51084">
        <ele>228</ele>
        <time>2022-10-29T10:00:23.000Z</time>
      </trkpt>
      <trkpt lat="47.41534" lon="3.51137">
        <ele>226.80000305176</ele>
        <time>2022-10-29T10:00:27.000Z</time>
      </trkpt>
      <trkpt lat="47.41533" lon="3.51165">
        <ele>226</ele>
        <time>2022-10-29T10:00:29.000Z</time>
      </trkpt>
      <trkpt lat="47.41533" lon="3.51179">
        <ele>225.39999389648</ele>
        <time>2022-10-29T10:00:30.000Z</time>
      </trkpt>
      <trkpt lat="47.41529" lon="3.51235">
        <ele>224</ele>
        <time>2022-10-29T10:00:34.000Z</time>
      </trkpt>
      <trkpt lat="47.41528" lon="3.51264">
        <ele>223.19999694824</ele>
        <time>2022-10-29T10:00:36.000Z</time>
      </trkpt>
      <trkpt lat="47.41527" lon="3.51278">
        <ele>222.60000610352</ele>
        <time>2022-10-29T10:00:37.000Z</time>
      </trkpt>
      <trkpt lat="47.41526" lon="3.51305">
        <ele>221.39999389648</ele>
        <time>2022-10-29T10:00:40.000Z</time>
      </trkpt>
      <trkpt lat="47.41524" lon="3.51342">
        <ele>220.19999694824</ele>
        <time>2022-10-29T10:00:42.000Z</time>
      </trkpt>
      <trkpt lat="47.41523" lon="3.51354">
        <ele>219.80000305176</ele>
        <time>2022-10-29T10:00:43.000Z</time>
      </trkpt>
      <trkpt lat="47.41522" lon="3.51375">
        <ele>218.80000305176</ele>
        <time>2022-10-29T10:00:45.000Z</time>
      </trkpt>
      <trkpt lat="47.41522" lon="3.51406">
        <ele>217.39999389648</ele>
        <time>2022-10-29T10:00:48.000Z</time>
      </trkpt>
      <trkpt lat="47.41522" lon="3.51415">
        <ele>217.19999694824</ele>
        <time>2022-10-29T10:00:49.000Z</time>
      </trkpt>
      <trkpt lat="47.41523" lon="3.51434">
        <ele>216.39999389648</ele>
        <time>2022-10-29T10:00:51.000Z</time>
      </trkpt>
      <trkpt lat="47.41525" lon="3.51454">
        <ele>215.60000610352</ele>
        <time>2022-10-29T10:00:53.000Z</time>
      </trkpt>
      <trkpt lat="47.41527" lon="3.51464">
        <ele>215.39999389648</ele>
        <time>2022-10-29T10:00:54.000Z</time>
      </trkpt>
      <trkpt lat="47.41529" lon="3.51473">
        <ele>215</ele>
        <time>2022-10-29T10:00:55.000Z</time>
      </trkpt>
      <trkpt lat="47.41539" lon="3.51512">
        <ele>214</ele>
        <time>2022-10-29T10:00:59.000Z</time>
      </trkpt>
      <trkpt lat="47.41542" lon="3.51521">
        <ele>214</ele>
        <time>2022-10-29T10:01:00.000Z</time>
      </trkpt>
      <trkpt lat="47.41546" lon="3.5153">
        <ele>214</ele>
        <time>2022-10-29T10:01:01.000Z</time>
      </trkpt>
      <trkpt lat="47.41558" lon="3.51556">
        <ele>213.60000610352</ele>
        <time>2022-10-29T10:01:04.000Z</time>
      </trkpt>
      <trkpt lat="47.41566" lon="3.51575">
        <ele>213.19999694824</ele>
        <time>2022-10-29T10:01:06.000Z</time>
      </trkpt>
      <trkpt lat="47.41574" lon="3.51592">
        <ele>212.60000610352</ele>
        <time>2022-10-29T10:01:08.000Z</time>
      </trkpt>
      <trkpt lat="47.41578" lon="3.51602">
        <ele>212.19999694824</ele>
        <time>2022-10-29T10:01:09.000Z</time>
      </trkpt>
      <trkpt lat="47.41582" lon="3.51611">
        <ele>211.60000610352</ele>
        <time>2022-10-29T10:01:10.000Z</time>
      </trkpt>
      <trkpt lat="47.41585" lon="3.51621">
        <ele>211.39999389648</ele>
        <time>2022-10-29T10:01:11.000Z</time>
      </trkpt>
      <trkpt lat="47.41593" lon="3.51661">
        <ele>210.60000610352</ele>
        <time>2022-10-29T10:01:15.000Z</time>
      </trkpt>
      <trkpt lat="47.41594" lon="3.5167">
        <ele>210.60000610352</ele>
        <time>2022-10-29T10:01:16.000Z</time>
      </trkpt>
      <trkpt lat="47.41595" lon="3.51681">
        <ele>210.39999389648</ele>
        <time>2022-10-29T10:01:17.000Z</time>
      </trkpt>
      <trkpt lat="47.41592" lon="3.51701">
        <ele>210.39999389648</ele>
        <time>2022-10-29T10:01:19.000Z</time>
      </trkpt>
      <trkpt lat="47.4159" lon="3.5171">
        <ele>210.39999389648</ele>
        <time>2022-10-29T10:01:20.000Z</time>
      </trkpt>
      <trkpt lat="47.41588" lon="3.5172">
        <ele>210.19999694824</ele>
        <time>2022-10-29T10:01:21.000Z</time>
      </trkpt>
      <trkpt lat="47.41584" lon="3.51738">
        <ele>210</ele>
        <time>2022-10-29T10:01:23.000Z</time>
      </trkpt>
      <trkpt lat="47.41572" lon="3.51773">
        <ele>209.39999389648</ele>
        <time>2022-10-29T10:01:27.000Z</time>
      </trkpt>
      <trkpt lat="47.41571" lon="3.51781">
        <ele>209.19999694824</ele>
        <time>2022-10-29T10:01:28.000Z</time>
      </trkpt>
      <trkpt lat="47.41567" lon="3.51789">
        <ele>209</ele>
        <time>2022-10-29T10:01:29.000Z</time>
      </trkpt>
      <trkpt lat="47.41563" lon="3.51808">
        <ele>208.80000305176</ele>
        <time>2022-10-29T10:01:31.000Z</time>
      </trkpt>
      <trkpt lat="47.41564" lon="3.51826">
        <ele>208.60000610352</ele>
        <time>2022-10-29T10:01:33.000Z</time>
      </trkpt>
      <trkpt lat="47.41565" lon="3.51835">
        <ele>208.60000610352</ele>
        <time>2022-10-29T10:01:34.000Z</time>
      </trkpt>
      <trkpt lat="47.41568" lon="3.51845">
        <ele>208.39999389648</ele>
        <time>2022-10-29T10:01:35.000Z</time>
      </trkpt>
      <trkpt lat="47.41571" lon="3.51863">
        <ele>208</ele>
        <time>2022-10-29T10:01:37.000Z</time>
      </trkpt>
      <trkpt lat="47.41577" lon="3.51882">
        <ele>207.80000305176</ele>
        <time>2022-10-29T10:01:39.000Z</time>
      </trkpt>
      <trkpt lat="47.41581" lon="3.519">
        <ele>207.60000610352</ele>
        <time>2022-10-29T10:01:41.000Z</time>
      </trkpt>
      <trkpt lat="47.41591" lon="3.51925">
        <ele>207.19999694824</ele>
        <time>2022-10-29T10:01:44.000Z</time>
      </trkpt>
      <trkpt lat="47.41594" lon="3.51933">
        <ele>207.19999694824</ele>
        <time>2022-10-29T10:01:45.000Z</time>
      </trkpt>
      <trkpt lat="47.41597" lon="3.51941">
        <ele>207</ele>
        <time>2022-10-29T10:01:46.000Z</time>
      </trkpt>
      <trkpt lat="47.41622" lon="3.51993">
        <ele>206.19999694824</ele>
        <time>2022-10-29T10:01:52.000Z</time>
      </trkpt>
      <trkpt lat="47.41628" lon="3.52006">
        <ele>205.80000305176</ele>
        <time>2022-10-29T10:01:54.000Z</time>
      </trkpt>
      <trkpt lat="47.41635" lon="3.52022">
        <ele>205.39999389648</ele>
        <time>2022-10-29T10:01:56.000Z</time>
      </trkpt>
      <trkpt lat="47.41638" lon="3.52028">
        <ele>205.39999389648</ele>
        <time>2022-10-29T10:01:57.000Z</time>
      </trkpt>
      <trkpt lat="47.41653" lon="3.52065">
        <ele>205.39999389648</ele>
        <time>2022-10-29T10:02:02.000Z</time>
      </trkpt>
      <trkpt lat="47.41654" lon="3.52074">
        <ele>205.39999389648</ele>
        <time>2022-10-29T10:02:03.000Z</time>
      </trkpt>
      <trkpt lat="47.41655" lon="3.52093">
        <ele>205.39999389648</ele>
        <time>2022-10-29T10:02:05.000Z</time>
      </trkpt>
      <trkpt lat="47.41656" lon="3.52124">
        <ele>204.80000305176</ele>
        <time>2022-10-29T10:02:08.000Z</time>
      </trkpt>
      <trkpt lat="47.41655" lon="3.52134">
        <ele>204.60000610352</ele>
        <time>2022-10-29T10:02:09.000Z</time>
      </trkpt>
      <trkpt lat="47.41648" lon="3.52167">
        <ele>203.80000305176</ele>
        <time>2022-10-29T10:02:12.000Z</time>
      </trkpt>
      <trkpt lat="47.41645" lon="3.5218">
        <ele>203.19999694824</ele>
        <time>2022-10-29T10:02:13.000Z</time>
      </trkpt>
      <trkpt lat="47.41638" lon="3.52202">
        <ele>202</ele>
        <time>2022-10-29T10:02:15.000Z</time>
      </trkpt>
      <trkpt lat="47.41625" lon="3.52246">
        <ele>201</ele>
        <time>2022-10-29T10:02:20.000Z</time>
      </trkpt>
      <trkpt lat="47.41612" lon="3.52295">
        <ele>201</ele>
        <time>2022-10-29T10:02:26.000Z</time>
      </trkpt>
      <trkpt lat="47.41601" lon="3.52335">
        <ele>201.19999694824</ele>
        <time>2022-10-29T10:02:31.000Z</time>
      </trkpt>
      <trkpt lat="47.41599" lon="3.52343">
        <ele>201.19999694824</ele>
        <time>2022-10-29T10:02:32.000Z</time>
      </trkpt>
      <trkpt lat="47.41596" lon="3.52391">
        <ele>201.39999389648</ele>
        <time>2022-10-29T10:02:38.000Z</time>
      </trkpt>
      <trkpt lat="47.41599" lon="3.52421">
        <ele>201.60000610352</ele>
        <time>2022-10-29T10:02:42.000Z</time>
      </trkpt>
      <trkpt lat="47.41603" lon="3.52451">
        <ele>201.80000305176</ele>
        <time>2022-10-29T10:02:46.000Z</time>
      </trkpt>
      <trkpt lat="47.41613" lon="3.52496">
        <ele>201.80000305176</ele>
        <time>2022-10-29T10:02:52.000Z</time>
      </trkpt>
      <trkpt lat="47.41619" lon="3.52525">
        <ele>202</ele>
        <time>2022-10-29T10:02:56.000Z</time>
      </trkpt>
      <trkpt lat="47.41628" lon="3.52562">
        <ele>202.19999694824</ele>
        <time>2022-10-29T10:03:01.000Z</time>
      </trkpt>
      <trkpt lat="47.41637" lon="3.52615">
        <ele>202</ele>
        <time>2022-10-29T10:03:08.000Z</time>
      </trkpt>
      <trkpt lat="47.41642" lon="3.52663">
        <ele>202.19999694824</ele>
        <time>2022-10-29T10:03:14.000Z</time>
      </trkpt>
      <trkpt lat="47.4164" lon="3.52679">
        <ele>202.19999694824</ele>
        <time>2022-10-29T10:03:16.000Z</time>
      </trkpt>
      <trkpt lat="47.41633" lon="3.52735">
        <ele>202.80000305176</ele>
        <time>2022-10-29T10:03:23.000Z</time>
      </trkpt>
      <trkpt lat="47.41628" lon="3.52763">
        <ele>203</ele>
        <time>2022-10-29T10:03:27.000Z</time>
      </trkpt>
      <trkpt lat="47.4162" lon="3.52794">
        <ele>203.39999389648</ele>
        <time>2022-10-29T10:03:31.000Z</time>
      </trkpt>
      <trkpt lat="47.41618" lon="3.52801">
        <ele>203.39999389648</ele>
        <time>2022-10-29T10:03:32.000Z</time>
      </trkpt>
      <trkpt lat="47.41605" lon="3.52836">
        <ele>203.39999389648</ele>
        <time>2022-10-29T10:03:37.000Z</time>
      </trkpt>
      <trkpt lat="47.41599" lon="3.5285">
        <ele>203.39999389648</ele>
        <time>2022-10-29T10:03:39.000Z</time>
      </trkpt>
      <trkpt lat="47.41594" lon="3.52873">
        <ele>203.19999694824</ele>
        <time>2022-10-29T10:03:42.000Z</time>
      </trkpt>
      <trkpt lat="47.41593" lon="3.52881">
        <ele>203.19999694824</ele>
        <time>2022-10-29T10:03:43.000Z</time>
      </trkpt>
      <trkpt lat="47.41593" lon="3.52889">
        <ele>203.19999694824</ele>
        <time>2022-10-29T10:03:44.000Z</time>
      </trkpt>
      <trkpt lat="47.41595" lon="3.52903">
        <ele>203.19999694824</ele>
        <time>2022-10-29T10:03:46.000Z</time>
      </trkpt>
      <trkpt lat="47.41597" lon="3.5291">
        <ele>203.19999694824</ele>
        <time>2022-10-29T10:03:47.000Z</time>
      </trkpt>
      <trkpt lat="47.41599" lon="3.52916">
        <ele>203.19999694824</ele>
        <time>2022-10-29T10:03:48.000Z</time>
      </trkpt>
      <trkpt lat="47.41609" lon="3.52934">
        <ele>203.19999694824</ele>
        <time>2022-10-29T10:03:51.000Z</time>
      </trkpt>
      <trkpt lat="47.41613" lon="3.52939">
        <ele>203.19999694824</ele>
        <time>2022-10-29T10:03:52.000Z</time>
      </trkpt>
      <trkpt lat="47.41643" lon="3.52984">
        <ele>203.80000305176</ele>
        <time>2022-10-29T10:04:00.000Z</time>
      </trkpt>
      <trkpt lat="47.41649" lon="3.52998">
        <ele>204</ele>
        <time>2022-10-29T10:04:02.000Z</time>
      </trkpt>
      <trkpt lat="47.41655" lon="3.5302">
        <ele>203.80000305176</ele>
        <time>2022-10-29T10:04:05.000Z</time>
      </trkpt>
      <trkpt lat="47.41662" lon="3.53049">
        <ele>203.60000610352</ele>
        <time>2022-10-29T10:04:09.000Z</time>
      </trkpt>
      <trkpt lat="47.41663" lon="3.53063">
        <ele>203.60000610352</ele>
        <time>2022-10-29T10:04:12.000Z</time>
      </trkpt>
      <trkpt lat="47.41668" lon="3.53089">
        <ele>203.80000305176</ele>
        <time>2022-10-29T10:04:18.000Z</time>
      </trkpt>
      <trkpt lat="47.41679" lon="3.5313">
        <ele>204</ele>
        <time>2022-10-29T10:04:25.000Z</time>
      </trkpt>
      <trkpt lat="47.4168" lon="3.53136">
        <ele>204.19999694824</ele>
        <time>2022-10-29T10:04:26.000Z</time>
      </trkpt>
      <trkpt lat="47.41679" lon="3.53164">
        <ele>205</ele>
        <time>2022-10-29T10:04:30.000Z</time>
      </trkpt>
      <trkpt lat="47.41678" lon="3.53171">
        <ele>205.19999694824</ele>
        <time>2022-10-29T10:04:31.000Z</time>
      </trkpt>
      <trkpt lat="47.41675" lon="3.53184">
        <ele>205.39999389648</ele>
        <time>2022-10-29T10:04:33.000Z</time>
      </trkpt>
      <trkpt lat="47.41672" lon="3.53188">
        <ele>205.80000305176</ele>
        <time>2022-10-29T10:04:34.000Z</time>
      </trkpt>
      <trkpt lat="47.41665" lon="3.53194">
        <ele>206</ele>
        <time>2022-10-29T10:04:36.000Z</time>
      </trkpt>
      <trkpt lat="47.4166" lon="3.53199">
        <ele>206.60000610352</ele>
        <time>2022-10-29T10:04:38.000Z</time>
      </trkpt>
      <trkpt lat="47.41656" lon="3.53202">
        <ele>207</ele>
        <time>2022-10-29T10:04:40.000Z</time>
      </trkpt>
      <trkpt lat="47.41642" lon="3.5321">
        <ele>207.39999389648</ele>
        <time>2022-10-29T10:04:44.000Z</time>
      </trkpt>
      <trkpt lat="47.4163" lon="3.53216">
        <ele>207.39999389648</ele>
        <time>2022-10-29T10:04:47.000Z</time>
      </trkpt>
      <trkpt lat="47.41621" lon="3.53222">
        <ele>207.39999389648</ele>
        <time>2022-10-29T10:04:49.000Z</time>
      </trkpt>
      <trkpt lat="47.4159" lon="3.53242">
        <ele>206.60000610352</ele>
        <time>2022-10-29T10:04:55.000Z</time>
      </trkpt>
      <trkpt lat="47.41574" lon="3.5325">
        <ele>206.39999389648</ele>
        <time>2022-10-29T10:04:58.000Z</time>
      </trkpt>
      <trkpt lat="47.41564" lon="3.53257">
        <ele>206.19999694824</ele>
        <time>2022-10-29T10:05:00.000Z</time>
      </trkpt>
      <trkpt lat="47.41534" lon="3.53279">
        <ele>206.19999694824</ele>
        <time>2022-10-29T10:05:06.000Z</time>
      </trkpt>
      <trkpt lat="47.41514" lon="3.53301">
        <ele>206.60000610352</ele>
        <time>2022-10-29T10:05:11.000Z</time>
      </trkpt>
      <trkpt lat="47.4151" lon="3.53307">
        <ele>206.60000610352</ele>
        <time>2022-10-29T10:05:12.000Z</time>
      </trkpt>
      <trkpt lat="47.41494" lon="3.53331">
        <ele>207.19999694824</ele>
        <time>2022-10-29T10:05:16.000Z</time>
      </trkpt>
      <trkpt lat="47.41481" lon="3.53363">
        <ele>208</ele>
        <time>2022-10-29T10:05:21.000Z</time>
      </trkpt>
      <trkpt lat="47.4148" lon="3.53371">
        <ele>208</ele>
        <time>2022-10-29T10:05:22.000Z</time>
      </trkpt>
      <trkpt lat="47.41479" lon="3.53377">
        <ele>208.19999694824</ele>
        <time>2022-10-29T10:05:23.000Z</time>
      </trkpt>
      <trkpt lat="47.41476" lon="3.53398">
        <ele>208.60000610352</ele>
        <time>2022-10-29T10:05:26.000Z</time>
      </trkpt>
      <trkpt lat="47.41474" lon="3.53451">
        <ele>208.39999389648</ele>
        <time>2022-10-29T10:05:33.000Z</time>
      </trkpt>
      <trkpt lat="47.41473" lon="3.53458">
        <ele>208.39999389648</ele>
        <time>2022-10-29T10:05:34.000Z</time>
      </trkpt>
      <trkpt lat="47.41467" lon="3.53487">
        <ele>208.39999389648</ele>
        <time>2022-10-29T10:05:38.000Z</time>
      </trkpt>
      <trkpt lat="47.41461" lon="3.53509">
        <ele>208.19999694824</ele>
        <time>2022-10-29T10:05:41.000Z</time>
      </trkpt>
      <trkpt lat="47.4144" lon="3.53553">
        <ele>208.19999694824</ele>
        <time>2022-10-29T10:05:48.000Z</time>
      </trkpt>
      <trkpt lat="47.41427" lon="3.5358">
        <ele>208.39999389648</ele>
        <time>2022-10-29T10:05:53.000Z</time>
      </trkpt>
      <trkpt lat="47.41425" lon="3.53586">
        <ele>208.39999389648</ele>
        <time>2022-10-29T10:05:54.000Z</time>
      </trkpt>
      <trkpt lat="47.41417" lon="3.53623">
        <ele>208.80000305176</ele>
        <time>2022-10-29T10:06:00.000Z</time>
      </trkpt>
      <trkpt lat="47.41416" lon="3.5363">
        <ele>208.80000305176</ele>
        <time>2022-10-29T10:06:01.000Z</time>
      </trkpt>
      <trkpt lat="47.41414" lon="3.53636">
        <ele>208.80000305176</ele>
        <time>2022-10-29T10:06:02.000Z</time>
      </trkpt>
      <trkpt lat="47.41411" lon="3.53647">
        <ele>209.19999694824</ele>
        <time>2022-10-29T10:06:04.000Z</time>
      </trkpt>
      <trkpt lat="47.41404" lon="3.53656">
        <ele>209.19999694824</ele>
        <time>2022-10-29T10:06:06.000Z</time>
      </trkpt>
      <trkpt lat="47.41396" lon="3.53655">
        <ele>209.39999389648</ele>
        <time>2022-10-29T10:06:08.000Z</time>
      </trkpt>
      <trkpt lat="47.41392" lon="3.53653">
        <ele>209.39999389648</ele>
        <time>2022-10-29T10:06:09.000Z</time>
      </trkpt>
      <trkpt lat="47.41384" lon="3.5365">
        <ele>209.19999694824</ele>
        <time>2022-10-29T10:06:11.000Z</time>
      </trkpt>
      <trkpt lat="47.41375" lon="3.53653">
        <ele>209</ele>
        <time>2022-10-29T10:06:13.000Z</time>
      </trkpt>
      <trkpt lat="47.41368" lon="3.53664">
        <ele>208.80000305176</ele>
        <time>2022-10-29T10:06:15.000Z</time>
      </trkpt>
      <trkpt lat="47.41362" lon="3.53678">
        <ele>208.60000610352</ele>
        <time>2022-10-29T10:06:17.000Z</time>
      </trkpt>
      <trkpt lat="47.4134" lon="3.53725">
        <ele>208</ele>
        <time>2022-10-29T10:06:24.000Z</time>
      </trkpt>
      <trkpt lat="47.41336" lon="3.53731">
        <ele>208</ele>
        <time>2022-10-29T10:06:25.000Z</time>
      </trkpt>
      <trkpt lat="47.41322" lon="3.53753">
        <ele>208.19999694824</ele>
        <time>2022-10-29T10:06:29.000Z</time>
      </trkpt>
      <trkpt lat="47.41309" lon="3.53769">
        <ele>209.19999694824</ele>
        <time>2022-10-29T10:06:34.000Z</time>
      </trkpt>
      <trkpt lat="47.41304" lon="3.53773">
        <ele>209.60000610352</ele>
        <time>2022-10-29T10:06:36.000Z</time>
      </trkpt>
      <trkpt lat="47.41299" lon="3.53778">
        <ele>210.19999694824</ele>
        <time>2022-10-29T10:06:38.000Z</time>
      </trkpt>
      <trkpt lat="47.41293" lon="3.53782">
        <ele>210.60000610352</ele>
        <time>2022-10-29T10:06:40.000Z</time>
      </trkpt>
      <trkpt lat="47.41285" lon="3.53788">
        <ele>211</ele>
        <time>2022-10-29T10:06:43.000Z</time>
      </trkpt>
      <trkpt lat="47.41275" lon="3.53794">
        <ele>211.80000305176</ele>
        <time>2022-10-29T10:06:46.000Z</time>
      </trkpt>
      <trkpt lat="47.41266" lon="3.53799">
        <ele>212.39999389648</ele>
        <time>2022-10-29T10:06:49.000Z</time>
      </trkpt>
      <trkpt lat="47.41255" lon="3.53807">
        <ele>213.39999389648</ele>
        <time>2022-10-29T10:06:53.000Z</time>
      </trkpt>
      <trkpt lat="47.41246" lon="3.53813">
        <ele>213.80000305176</ele>
        <time>2022-10-29T10:06:56.000Z</time>
      </trkpt>
      <trkpt lat="47.41219" lon="3.5383">
        <ele>214.39999389648</ele>
        <time>2022-10-29T10:07:04.000Z</time>
      </trkpt>
      <trkpt lat="47.41215" lon="3.53832">
        <ele>214.39999389648</ele>
        <time>2022-10-29T10:07:05.000Z</time>
      </trkpt>
      <trkpt lat="47.41207" lon="3.53839">
        <ele>214.39999389648</ele>
        <time>2022-10-29T10:07:07.000Z</time>
      </trkpt>
      <trkpt lat="47.41199" lon="3.53848">
        <ele>214.19999694824</ele>
        <time>2022-10-29T10:07:09.000Z</time>
      </trkpt>
      <trkpt lat="47.41187" lon="3.53864">
        <ele>214</ele>
        <time>2022-10-29T10:07:12.000Z</time>
      </trkpt>
      <trkpt lat="47.4118" lon="3.53877">
        <ele>213.80000305176</ele>
        <time>2022-10-29T10:07:14.000Z</time>
      </trkpt>
      <trkpt lat="47.4117" lon="3.53899">
        <ele>213.39999389648</ele>
        <time>2022-10-29T10:07:17.000Z</time>
      </trkpt>
      <trkpt lat="47.41152" lon="3.53936">
        <ele>212.60000610352</ele>
        <time>2022-10-29T10:07:22.000Z</time>
      </trkpt>
      <trkpt lat="47.41148" lon="3.53942">
        <ele>212.39999389648</ele>
        <time>2022-10-29T10:07:23.000Z</time>
      </trkpt>
      <trkpt lat="47.41144" lon="3.53949">
        <ele>212.19999694824</ele>
        <time>2022-10-29T10:07:24.000Z</time>
      </trkpt>
      <trkpt lat="47.4113" lon="3.53963">
        <ele>212</ele>
        <time>2022-10-29T10:07:27.000Z</time>
      </trkpt>
      <trkpt lat="47.41111" lon="3.53978">
        <ele>211.80000305176</ele>
        <time>2022-10-29T10:07:31.000Z</time>
      </trkpt>
      <trkpt lat="47.41097" lon="3.53991">
        <ele>211.60000610352</ele>
        <time>2022-10-29T10:07:34.000Z</time>
      </trkpt>
      <trkpt lat="47.41065" lon="3.54026">
        <ele>211.80000305176</ele>
        <time>2022-10-29T10:07:42.000Z</time>
      </trkpt>
      <trkpt lat="47.41039" lon="3.54066">
        <ele>211.80000305176</ele>
        <time>2022-10-29T10:07:49.000Z</time>
      </trkpt>
      <trkpt lat="47.4101" lon="3.54105">
        <ele>211.60000610352</ele>
        <time>2022-10-29T10:07:57.000Z</time>
      </trkpt>
      <trkpt lat="47.4097" lon="3.54135">
        <ele>212.19999694824</ele>
        <time>2022-10-29T10:08:06.000Z</time>
      </trkpt>
      <trkpt lat="47.40951" lon="3.5415">
        <ele>212.60000610352</ele>
        <time>2022-10-29T10:08:11.000Z</time>
      </trkpt>
      <trkpt lat="47.40932" lon="3.54166">
        <ele>213.39999389648</ele>
        <time>2022-10-29T10:08:17.000Z</time>
      </trkpt>
      <trkpt lat="47.40923" lon="3.54172">
        <ele>213.80000305176</ele>
        <time>2022-10-29T10:08:20.000Z</time>
      </trkpt>
      <trkpt lat="47.40911" lon="3.54181">
        <ele>214.60000610352</ele>
        <time>2022-10-29T10:08:24.000Z</time>
      </trkpt>
      <trkpt lat="47.40898" lon="3.54192">
        <ele>216</ele>
        <time>2022-10-29T10:08:29.000Z</time>
      </trkpt>
      <trkpt lat="47.4089" lon="3.54198">
        <ele>217</ele>
        <time>2022-10-29T10:08:32.000Z</time>
      </trkpt>
      <trkpt lat="47.40879" lon="3.54208">
        <ele>218</ele>
        <time>2022-10-29T10:08:36.000Z</time>
      </trkpt>
      <trkpt lat="47.40877" lon="3.5421">
        <ele>218.60000610352</ele>
        <time>2022-10-29T10:08:37.000Z</time>
      </trkpt>
      <trkpt lat="47.40868" lon="3.54217">
        <ele>219.19999694824</ele>
        <time>2022-10-29T10:08:40.000Z</time>
      </trkpt>
      <trkpt lat="47.4086" lon="3.54223">
        <ele>219.80000305176</ele>
        <time>2022-10-29T10:08:43.000Z</time>
      </trkpt>
      <trkpt lat="47.40847" lon="3.54234">
        <ele>221</ele>
        <time>2022-10-29T10:08:48.000Z</time>
      </trkpt>
      <trkpt lat="47.40838" lon="3.54242">
        <ele>222.19999694824</ele>
        <time>2022-10-29T10:08:52.000Z</time>
      </trkpt>
      <trkpt lat="47.40833" lon="3.54246">
        <ele>222.60000610352</ele>
        <time>2022-10-29T10:08:54.000Z</time>
      </trkpt>
      <trkpt lat="47.40829" lon="3.54249">
        <ele>223.39999389648</ele>
        <time>2022-10-29T10:08:56.000Z</time>
      </trkpt>
      <trkpt lat="47.40823" lon="3.54252">
        <ele>224</ele>
        <time>2022-10-29T10:08:59.000Z</time>
      </trkpt>
      <trkpt lat="47.40819" lon="3.54255">
        <ele>224.19999694824</ele>
        <time>2022-10-29T10:09:01.000Z</time>
      </trkpt>
      <trkpt lat="47.40818" lon="3.54256">
        <ele>224.39999389648</ele>
        <time>2022-10-29T10:09:02.000Z</time>
      </trkpt>
      <trkpt lat="47.40817" lon="3.54258">
        <ele>225</ele>
        <time>2022-10-29T10:09:03.000Z</time>
      </trkpt>
      <trkpt lat="47.40815" lon="3.54259">
        <ele>225</ele>
        <time>2022-10-29T10:09:04.000Z</time>
      </trkpt>
      <trkpt lat="47.40811" lon="3.54261">
        <ele>225.80000305176</ele>
        <time>2022-10-29T10:09:06.000Z</time>
      </trkpt>
      <trkpt lat="47.40802" lon="3.54266">
        <ele>226.60000610352</ele>
        <time>2022-10-29T10:09:09.000Z</time>
      </trkpt>
      <trkpt lat="47.40797" lon="3.54268">
        <ele>226.80000305176</ele>
        <time>2022-10-29T10:09:11.000Z</time>
      </trkpt>
      <trkpt lat="47.40784" lon="3.54275">
        <ele>227.80000305176</ele>
        <time>2022-10-29T10:09:15.000Z</time>
      </trkpt>
      <trkpt lat="47.40782" lon="3.54276">
        <ele>228</ele>
        <time>2022-10-29T10:09:16.000Z</time>
      </trkpt>
      <trkpt lat="47.40766" lon="3.54288">
        <ele>229.19999694824</ele>
        <time>2022-10-29T10:09:21.000Z</time>
      </trkpt>
      <trkpt lat="47.40736" lon="3.54312">
        <ele>230.39999389648</ele>
        <time>2022-10-29T10:09:28.000Z</time>
      </trkpt>
      <trkpt lat="47.4073" lon="3.54318">
        <ele>230.60000610352</ele>
        <time>2022-10-29T10:09:29.000Z</time>
      </trkpt>
      <trkpt lat="47.40714" lon="3.54332">
        <ele>231.39999389648</ele>
        <time>2022-10-29T10:09:33.000Z</time>
      </trkpt>
      <trkpt lat="47.40702" lon="3.54338">
        <ele>232.19999694824</ele>
        <time>2022-10-29T10:09:37.000Z</time>
      </trkpt>
      <trkpt lat="47.40698" lon="3.54342">
        <ele>232.39999389648</ele>
        <time>2022-10-29T10:09:38.000Z</time>
      </trkpt>
      <trkpt lat="47.40679" lon="3.54359">
        <ele>233.60000610352</ele>
        <time>2022-10-29T10:09:44.000Z</time>
      </trkpt>
      <trkpt lat="47.40675" lon="3.54362">
        <ele>233.80000305176</ele>
        <time>2022-10-29T10:09:45.000Z</time>
      </trkpt>
      <trkpt lat="47.40658" lon="3.54374">
        <ele>234.60000610352</ele>
        <time>2022-10-29T10:09:50.000Z</time>
      </trkpt>
      <trkpt lat="47.40641" lon="3.54387">
        <ele>235.19999694824</ele>
        <time>2022-10-29T10:09:55.000Z</time>
      </trkpt>
      <trkpt lat="47.40627" lon="3.54394">
        <ele>235.60000610352</ele>
        <time>2022-10-29T10:09:59.000Z</time>
      </trkpt>
      <trkpt lat="47.40618" lon="3.54398">
        <ele>235.60000610352</ele>
        <time>2022-10-29T10:10:01.000Z</time>
      </trkpt>
      <trkpt lat="47.40614" lon="3.54401">
        <ele>235.60000610352</ele>
        <time>2022-10-29T10:10:02.000Z</time>
      </trkpt>
      <trkpt lat="47.40596" lon="3.54415">
        <ele>235.39999389648</ele>
        <time>2022-10-29T10:10:06.000Z</time>
      </trkpt>
      <trkpt lat="47.40573" lon="3.5443">
        <ele>234.60000610352</ele>
        <time>2022-10-29T10:10:10.000Z</time>
      </trkpt>
      <trkpt lat="47.40556" lon="3.54441">
        <ele>234.19999694824</ele>
        <time>2022-10-29T10:10:13.000Z</time>
      </trkpt>
      <trkpt lat="47.40523" lon="3.54463">
        <ele>234</ele>
        <time>2022-10-29T10:10:20.000Z</time>
      </trkpt>
      <trkpt lat="47.40492" lon="3.54483">
        <ele>235.39999389648</ele>
        <time>2022-10-29T10:10:27.000Z</time>
      </trkpt>
      <trkpt lat="47.40483" lon="3.54488">
        <ele>235.80000305176</ele>
        <time>2022-10-29T10:10:29.000Z</time>
      </trkpt>
      <trkpt lat="47.40457" lon="3.54505">
        <ele>236.80000305176</ele>
        <time>2022-10-29T10:10:35.000Z</time>
      </trkpt>
      <trkpt lat="47.40453" lon="3.54507">
        <ele>237.19999694824</ele>
        <time>2022-10-29T10:10:36.000Z</time>
      </trkpt>
      <trkpt lat="47.40441" lon="3.54516">
        <ele>237.39999389648</ele>
        <time>2022-10-29T10:10:39.000Z</time>
      </trkpt>
      <trkpt lat="47.40424" lon="3.54528">
        <ele>237.80000305176</ele>
        <time>2022-10-29T10:10:43.000Z</time>
      </trkpt>
      <trkpt lat="47.40409" lon="3.54538">
        <ele>237.80000305176</ele>
        <time>2022-10-29T10:10:46.000Z</time>
      </trkpt>
      <trkpt lat="47.40399" lon="3.54545">
        <ele>237.80000305176</ele>
        <time>2022-10-29T10:10:48.000Z</time>
      </trkpt>
      <trkpt lat="47.40364" lon="3.54572">
        <ele>237.39999389648</ele>
        <time>2022-10-29T10:10:55.000Z</time>
      </trkpt>
      <trkpt lat="47.40314" lon="3.54608">
        <ele>237</ele>
        <time>2022-10-29T10:11:05.000Z</time>
      </trkpt>
      <trkpt lat="47.4031" lon="3.54611">
        <ele>237.19999694824</ele>
        <time>2022-10-29T10:11:06.000Z</time>
      </trkpt>
      <trkpt lat="47.40283" lon="3.54632">
        <ele>237.80000305176</ele>
        <time>2022-10-29T10:11:13.000Z</time>
      </trkpt>
      <trkpt lat="47.40249" lon="3.54656">
        <ele>238.80000305176</ele>
        <time>2022-10-29T10:11:22.000Z</time>
      </trkpt>
      <trkpt lat="47.40245" lon="3.5466">
        <ele>239.19999694824</ele>
        <time>2022-10-29T10:11:23.000Z</time>
      </trkpt>
      <trkpt lat="47.40222" lon="3.54677">
        <ele>240.39999389648</ele>
        <time>2022-10-29T10:11:29.000Z</time>
      </trkpt>
      <trkpt lat="47.40207" lon="3.54687">
        <ele>241</ele>
        <time>2022-10-29T10:11:33.000Z</time>
      </trkpt>
      <trkpt lat="47.402" lon="3.54693">
        <ele>241.39999389648</ele>
        <time>2022-10-29T10:11:35.000Z</time>
      </trkpt>
      <trkpt lat="47.40169" lon="3.54715">
        <ele>241.60000610352</ele>
        <time>2022-10-29T10:11:43.000Z</time>
      </trkpt>
      <trkpt lat="47.4014" lon="3.54737">
        <ele>240.60000610352</ele>
        <time>2022-10-29T10:11:49.000Z</time>
      </trkpt>
      <trkpt lat="47.40134" lon="3.54741">
        <ele>240.39999389648</ele>
        <time>2022-10-29T10:11:50.000Z</time>
      </trkpt>
      <trkpt lat="47.40118" lon="3.54751">
        <ele>239.60000610352</ele>
        <time>2022-10-29T10:11:53.000Z</time>
      </trkpt>
      <trkpt lat="47.4011" lon="3.54754">
        <ele>239.39999389648</ele>
        <time>2022-10-29T10:11:54.000Z</time>
      </trkpt>
      <trkpt lat="47.40103" lon="3.54755">
        <ele>239.19999694824</ele>
        <time>2022-10-29T10:11:55.000Z</time>
      </trkpt>
      <trkpt lat="47.40096" lon="3.54756">
        <ele>238.80000305176</ele>
        <time>2022-10-29T10:11:56.000Z</time>
      </trkpt>
      <trkpt lat="47.40081" lon="3.54755">
        <ele>238.19999694824</ele>
        <time>2022-10-29T10:11:58.000Z</time>
      </trkpt>
      <trkpt lat="47.40066" lon="3.54753">
        <ele>237.60000610352</ele>
        <time>2022-10-29T10:12:00.000Z</time>
      </trkpt>
      <trkpt lat="47.40051" lon="3.54751">
        <ele>237.19999694824</ele>
        <time>2022-10-29T10:12:02.000Z</time>
      </trkpt>
      <trkpt lat="47.40036" lon="3.54749">
        <ele>236.80000305176</ele>
        <time>2022-10-29T10:12:04.000Z</time>
      </trkpt>
      <trkpt lat="47.40022" lon="3.54752">
        <ele>236.39999389648</ele>
        <time>2022-10-29T10:12:06.000Z</time>
      </trkpt>
      <trkpt lat="47.40008" lon="3.54762">
        <ele>236</ele>
        <time>2022-10-29T10:12:08.000Z</time>
      </trkpt>
      <trkpt lat="47.40008" lon="3.54762">
        <ele>235.60000610352</ele>
        <time>2022-10-29T10:12:09.000Z</time>
      </trkpt>
      <trkpt lat="47.39997" lon="3.54777">
        <ele>235.39999389648</ele>
        <time>2022-10-29T10:12:10.000Z</time>
      </trkpt>
      <trkpt lat="47.39982" lon="3.548">
        <ele>235</ele>
        <time>2022-10-29T10:12:13.000Z</time>
      </trkpt>
      <trkpt lat="47.39965" lon="3.54824">
        <ele>235</ele>
        <time>2022-10-29T10:12:17.000Z</time>
      </trkpt>
      <trkpt lat="47.39952" lon="3.54834">
        <ele>235.39999389648</ele>
        <time>2022-10-29T10:12:20.000Z</time>
      </trkpt>
      <trkpt lat="47.39941" lon="3.54842">
        <ele>236</ele>
        <time>2022-10-29T10:12:23.000Z</time>
      </trkpt>
      <trkpt lat="47.39936" lon="3.54844">
        <ele>236</ele>
        <time>2022-10-29T10:12:24.000Z</time>
      </trkpt>
      <trkpt lat="47.39927" lon="3.54847">
        <ele>237.19999694824</ele>
        <time>2022-10-29T10:12:27.000Z</time>
      </trkpt>
      <trkpt lat="47.39919" lon="3.5485">
        <ele>237.19999694824</ele>
        <time>2022-10-29T10:12:28.000Z</time>
      </trkpt>
      <trkpt lat="47.39906" lon="3.54853">
        <ele>238.19999694824</ele>
        <time>2022-10-29T10:12:31.000Z</time>
      </trkpt>
      <trkpt lat="47.39889" lon="3.54857">
        <ele>239</ele>
        <time>2022-10-29T10:12:35.000Z</time>
      </trkpt>
      <trkpt lat="47.39884" lon="3.54858">
        <ele>239.19999694824</ele>
        <time>2022-10-29T10:12:36.000Z</time>
      </trkpt>
      <trkpt lat="47.39851" lon="3.54866">
        <ele>240.39999389648</ele>
        <time>2022-10-29T10:12:44.000Z</time>
      </trkpt>
      <trkpt lat="47.39843" lon="3.54868">
        <ele>240.60000610352</ele>
        <time>2022-10-29T10:12:46.000Z</time>
      </trkpt>
      <trkpt lat="47.39818" lon="3.54874">
        <ele>241.39999389648</ele>
        <time>2022-10-29T10:12:52.000Z</time>
      </trkpt>
      <trkpt lat="47.39807" lon="3.54876">
        <ele>241.80000305176</ele>
        <time>2022-10-29T10:12:55.000Z</time>
      </trkpt>
      <trkpt lat="47.39799" lon="3.54877">
        <ele>242</ele>
        <time>2022-10-29T10:12:57.000Z</time>
      </trkpt>
      <trkpt lat="47.39786" lon="3.5488">
        <ele>242.39999389648</ele>
        <time>2022-10-29T10:13:00.000Z</time>
      </trkpt>
      <trkpt lat="47.39782" lon="3.54881">
        <ele>242.60000610352</ele>
        <time>2022-10-29T10:13:01.000Z</time>
      </trkpt>
      <trkpt lat="47.39743" lon="3.54889">
        <ele>243.39999389648</ele>
        <time>2022-10-29T10:13:10.000Z</time>
      </trkpt>
      <trkpt lat="47.3973" lon="3.5489">
        <ele>243.39999389648</ele>
        <time>2022-10-29T10:13:13.000Z</time>
      </trkpt>
      <trkpt lat="47.39719" lon="3.54893">
        <ele>243.60000610352</ele>
        <time>2022-10-29T10:13:15.000Z</time>
      </trkpt>
      <trkpt lat="47.39708" lon="3.54896">
        <ele>243.80000305176</ele>
        <time>2022-10-29T10:13:17.000Z</time>
      </trkpt>
      <trkpt lat="47.39667" lon="3.5491">
        <ele>244.19999694824</ele>
        <time>2022-10-29T10:13:25.000Z</time>
      </trkpt>
      <trkpt lat="47.3965" lon="3.54914">
        <ele>244.60000610352</ele>
        <time>2022-10-29T10:13:28.000Z</time>
      </trkpt>
      <trkpt lat="47.39636" lon="3.54918">
        <ele>244.80000305176</ele>
        <time>2022-10-29T10:13:31.000Z</time>
      </trkpt>
      <trkpt lat="47.39624" lon="3.54922">
        <ele>244.80000305176</ele>
        <time>2022-10-29T10:13:33.000Z</time>
      </trkpt>
      <trkpt lat="47.39608" lon="3.54927">
        <ele>245</ele>
        <time>2022-10-29T10:13:36.000Z</time>
      </trkpt>
      <trkpt lat="47.39577" lon="3.54931">
        <ele>245.60000610352</ele>
        <time>2022-10-29T10:13:42.000Z</time>
      </trkpt>
      <trkpt lat="47.39573" lon="3.5493">
        <ele>245.80000305176</ele>
        <time>2022-10-29T10:13:43.000Z</time>
      </trkpt>
      <trkpt lat="47.39562" lon="3.54928">
        <ele>246.19999694824</ele>
        <time>2022-10-29T10:13:46.000Z</time>
      </trkpt>
      <trkpt lat="47.39554" lon="3.54923">
        <ele>246.39999389648</ele>
        <time>2022-10-29T10:13:48.000Z</time>
      </trkpt>
      <trkpt lat="47.3955" lon="3.54921">
        <ele>246.60000610352</ele>
        <time>2022-10-29T10:13:49.000Z</time>
      </trkpt>
      <trkpt lat="47.39523" lon="3.54907">
        <ele>247.80000305176</ele>
        <time>2022-10-29T10:13:56.000Z</time>
      </trkpt>
      <trkpt lat="47.39488" lon="3.54892">
        <ele>248.80000305176</ele>
        <time>2022-10-29T10:14:04.000Z</time>
      </trkpt>
      <trkpt lat="47.39484" lon="3.5489">
        <ele>249</ele>
        <time>2022-10-29T10:14:05.000Z</time>
      </trkpt>
      <trkpt lat="47.39452" lon="3.54876">
        <ele>248.60000610352</ele>
        <time>2022-10-29T10:14:13.000Z</time>
      </trkpt>
      <trkpt lat="47.39448" lon="3.54876">
        <ele>248</ele>
        <time>2022-10-29T10:14:15.000Z</time>
      </trkpt>
      <trkpt lat="47.39447" lon="3.54877">
        <ele>247.80000305176</ele>
        <time>2022-10-29T10:14:16.000Z</time>
      </trkpt>
      <trkpt lat="47.39445" lon="3.54877">
        <ele>247.80000305176</ele>
        <time>2022-10-29T10:14:17.000Z</time>
      </trkpt>
      <trkpt lat="47.39443" lon="3.54879">
        <ele>247.39999389648</ele>
        <time>2022-10-29T10:14:19.000Z</time>
      </trkpt>
      <trkpt lat="47.3944" lon="3.54884">
        <ele>246.80000305176</ele>
        <time>2022-10-29T10:14:22.000Z</time>
      </trkpt>
      <trkpt lat="47.39438" lon="3.54886">
        <ele>246.80000305176</ele>
        <time>2022-10-29T10:14:23.000Z</time>
      </trkpt>
      <trkpt lat="47.39431" lon="3.54895">
        <ele>246.39999389648</ele>
        <time>2022-10-29T10:14:27.000Z</time>
      </trkpt>
      <trkpt lat="47.39424" lon="3.54902">
        <ele>245.80000305176</ele>
        <time>2022-10-29T10:14:31.000Z</time>
      </trkpt>
      <trkpt lat="47.39418" lon="3.54905">
        <ele>245.39999389648</ele>
        <time>2022-10-29T10:14:33.000Z</time>
      </trkpt>
      <trkpt lat="47.39396" lon="3.54909">
        <ele>244.60000610352</ele>
        <time>2022-10-29T10:14:38.000Z</time>
      </trkpt>
      <trkpt lat="47.39368" lon="3.54916">
        <ele>244</ele>
        <time>2022-10-29T10:14:43.000Z</time>
      </trkpt>
      <trkpt lat="47.39359" lon="3.54927">
        <ele>243.60000610352</ele>
        <time>2022-10-29T10:14:45.000Z</time>
      </trkpt>
      <trkpt lat="47.3935" lon="3.54942">
        <ele>242.80000305176</ele>
        <time>2022-10-29T10:14:47.000Z</time>
      </trkpt>
      <trkpt lat="47.39347" lon="3.5495">
        <ele>242.19999694824</ele>
        <time>2022-10-29T10:14:48.000Z</time>
      </trkpt>
      <trkpt lat="47.39344" lon="3.54959">
        <ele>241.80000305176</ele>
        <time>2022-10-29T10:14:49.000Z</time>
      </trkpt>
      <trkpt lat="47.39343" lon="3.54978">
        <ele>241.39999389648</ele>
        <time>2022-10-29T10:14:51.000Z</time>
      </trkpt>
      <trkpt lat="47.39343" lon="3.54989">
        <ele>241.19999694824</ele>
        <time>2022-10-29T10:14:52.000Z</time>
      </trkpt>
      <trkpt lat="47.39346" lon="3.5502">
        <ele>239.80000305176</ele>
        <time>2022-10-29T10:14:55.000Z</time>
      </trkpt>
      <trkpt lat="47.39348" lon="3.55042">
        <ele>239</ele>
        <time>2022-10-29T10:14:57.000Z</time>
      </trkpt>
      <trkpt lat="47.39349" lon="3.55053">
        <ele>238.39999389648</ele>
        <time>2022-10-29T10:14:58.000Z</time>
      </trkpt>
      <trkpt lat="47.39351" lon="3.55076">
        <ele>237.39999389648</ele>
        <time>2022-10-29T10:15:00.000Z</time>
      </trkpt>
      <trkpt lat="47.39353" lon="3.55098">
        <ele>236.60000610352</ele>
        <time>2022-10-29T10:15:02.000Z</time>
      </trkpt>
      <trkpt lat="47.39355" lon="3.55109">
        <ele>236.19999694824</ele>
        <time>2022-10-29T10:15:03.000Z</time>
      </trkpt>
      <trkpt lat="47.39359" lon="3.55131">
        <ele>235</ele>
        <time>2022-10-29T10:15:05.000Z</time>
      </trkpt>
      <trkpt lat="47.39362" lon="3.55154">
        <ele>233.80000305176</ele>
        <time>2022-10-29T10:15:07.000Z</time>
      </trkpt>
      <trkpt lat="47.39367" lon="3.55179">
        <ele>232.80000305176</ele>
        <time>2022-10-29T10:15:09.000Z</time>
      </trkpt>
      <trkpt lat="47.39375" lon="3.55216">
        <ele>231.39999389648</ele>
        <time>2022-10-29T10:15:12.000Z</time>
      </trkpt>
      <trkpt lat="47.3938" lon="3.55242">
        <ele>230.39999389648</ele>
        <time>2022-10-29T10:15:14.000Z</time>
      </trkpt>
      <trkpt lat="47.39384" lon="3.55255">
        <ele>230</ele>
        <time>2022-10-29T10:15:15.000Z</time>
      </trkpt>
      <trkpt lat="47.39396" lon="3.55302">
        <ele>228.80000305176</ele>
        <time>2022-10-29T10:15:19.000Z</time>
      </trkpt>
      <trkpt lat="47.39399" lon="3.55313">
        <ele>228.60000610352</ele>
        <time>2022-10-29T10:15:20.000Z</time>
      </trkpt>
      <trkpt lat="47.39405" lon="3.55336">
        <ele>227.60000610352</ele>
        <time>2022-10-29T10:15:22.000Z</time>
      </trkpt>
      <trkpt lat="47.39414" lon="3.5538">
        <ele>226.80000305176</ele>
        <time>2022-10-29T10:15:26.000Z</time>
      </trkpt>
      <trkpt lat="47.39416" lon="3.55402">
        <ele>226.39999389648</ele>
        <time>2022-10-29T10:15:28.000Z</time>
      </trkpt>
      <trkpt lat="47.39418" lon="3.55444">
        <ele>225.60000610352</ele>
        <time>2022-10-29T10:15:32.000Z</time>
      </trkpt>
      <trkpt lat="47.39418" lon="3.55453">
        <ele>225.39999389648</ele>
        <time>2022-10-29T10:15:33.000Z</time>
      </trkpt>
      <trkpt lat="47.39419" lon="3.55472">
        <ele>225</ele>
        <time>2022-10-29T10:15:35.000Z</time>
      </trkpt>
      <trkpt lat="47.39419" lon="3.55498">
        <ele>224.80000305176</ele>
        <time>2022-10-29T10:15:38.000Z</time>
      </trkpt>
      <trkpt lat="47.39422" lon="3.55536">
        <ele>224.19999694824</ele>
        <time>2022-10-29T10:15:43.000Z</time>
      </trkpt>
      <trkpt lat="47.39423" lon="3.55543">
        <ele>224.19999694824</ele>
        <time>2022-10-29T10:15:44.000Z</time>
      </trkpt>
      <trkpt lat="47.39431" lon="3.55576">
        <ele>224</ele>
        <time>2022-10-29T10:15:49.000Z</time>
      </trkpt>
      <trkpt lat="47.39432" lon="3.55583">
        <ele>224</ele>
        <time>2022-10-29T10:15:50.000Z</time>
      </trkpt>
      <trkpt lat="47.39431" lon="3.5559">
        <ele>224</ele>
        <time>2022-10-29T10:15:51.000Z</time>
      </trkpt>
      <trkpt lat="47.39425" lon="3.55602">
        <ele>224</ele>
        <time>2022-10-29T10:15:53.000Z</time>
      </trkpt>
      <trkpt lat="47.39394" lon="3.55631">
        <ele>223.80000305176</ele>
        <time>2022-10-29T10:16:00.000Z</time>
      </trkpt>
      <trkpt lat="47.39358" lon="3.55664">
        <ele>223.80000305176</ele>
        <time>2022-10-29T10:16:08.000Z</time>
      </trkpt>
      <trkpt lat="47.39327" lon="3.55699">
        <ele>225.39999389648</ele>
        <time>2022-10-29T10:16:16.000Z</time>
      </trkpt>
      <trkpt lat="47.39301" lon="3.55737">
        <ele>225.60000610352</ele>
        <time>2022-10-29T10:16:23.000Z</time>
      </trkpt>
      <trkpt lat="47.39272" lon="3.55794">
        <ele>225.39999389648</ele>
        <time>2022-10-29T10:16:32.000Z</time>
      </trkpt>
      <trkpt lat="47.3925" lon="3.55852">
        <ele>225.80000305176</ele>
        <time>2022-10-29T10:16:41.000Z</time>
      </trkpt>
      <trkpt lat="47.39243" lon="3.55869">
        <ele>226.19999694824</ele>
        <time>2022-10-29T10:16:44.000Z</time>
      </trkpt>
      <trkpt lat="47.39236" lon="3.55885">
        <ele>226.60000610352</ele>
        <time>2022-10-29T10:16:47.000Z</time>
      </trkpt>
      <trkpt lat="47.39234" lon="3.5589">
        <ele>226.60000610352</ele>
        <time>2022-10-29T10:16:48.000Z</time>
      </trkpt>
      <trkpt lat="47.3922" lon="3.5592">
        <ele>227.80000305176</ele>
        <time>2022-10-29T10:16:54.000Z</time>
      </trkpt>
      <trkpt lat="47.39218" lon="3.55925">
        <ele>227.80000305176</ele>
        <time>2022-10-29T10:16:55.000Z</time>
      </trkpt>
      <trkpt lat="47.39213" lon="3.55934">
        <ele>228.19999694824</ele>
        <time>2022-10-29T10:16:57.000Z</time>
      </trkpt>
      <trkpt lat="47.39196" lon="3.55956">
        <ele>228.80000305176</ele>
        <time>2022-10-29T10:17:02.000Z</time>
      </trkpt>
      <trkpt lat="47.39171" lon="3.55983">
        <ele>229</ele>
        <time>2022-10-29T10:17:09.000Z</time>
      </trkpt>
      <trkpt lat="47.39129" lon="3.56027">
        <ele>229.19999694824</ele>
        <time>2022-10-29T10:17:21.000Z</time>
      </trkpt>
      <trkpt lat="47.39105" lon="3.56049">
        <ele>229.80000305176</ele>
        <time>2022-10-29T10:17:29.000Z</time>
      </trkpt>
      <trkpt lat="47.39082" lon="3.56068">
        <ele>230.80000305176</ele>
        <time>2022-10-29T10:17:37.000Z</time>
      </trkpt>
      <trkpt lat="47.39079" lon="3.5607">
        <ele>230.80000305176</ele>
        <time>2022-10-29T10:17:38.000Z</time>
      </trkpt>
      <trkpt lat="47.39054" lon="3.56086">
        <ele>231.60000610352</ele>
        <time>2022-10-29T10:17:46.000Z</time>
      </trkpt>
      <trkpt lat="47.39041" lon="3.56093">
        <ele>232</ele>
        <time>2022-10-29T10:17:50.000Z</time>
      </trkpt>
      <trkpt lat="47.3903" lon="3.56098">
        <ele>232.19999694824</ele>
        <time>2022-10-29T10:17:53.000Z</time>
      </trkpt>
      <trkpt lat="47.38997" lon="3.56115">
        <ele>232.60000610352</ele>
        <time>2022-10-29T10:18:02.000Z</time>
      </trkpt>
      <trkpt lat="47.38979" lon="3.56123">
        <ele>233</ele>
        <time>2022-10-29T10:18:07.000Z</time>
      </trkpt>
      <trkpt lat="47.38965" lon="3.5613">
        <ele>233.19999694824</ele>
        <time>2022-10-29T10:18:11.000Z</time>
      </trkpt>
      <trkpt lat="47.38937" lon="3.56144">
        <ele>234</ele>
        <time>2022-10-29T10:18:19.000Z</time>
      </trkpt>
      <trkpt lat="47.38927" lon="3.5615">
        <ele>234.60000610352</ele>
        <time>2022-10-29T10:18:22.000Z</time>
      </trkpt>
      <trkpt lat="47.38899" lon="3.5617">
        <ele>235</ele>
        <time>2022-10-29T10:18:30.000Z</time>
      </trkpt>
      <trkpt lat="47.38896" lon="3.56174">
        <ele>235</ele>
        <time>2022-10-29T10:18:31.000Z</time>
      </trkpt>
      <trkpt lat="47.38883" lon="3.56195">
        <ele>235.80000305176</ele>
        <time>2022-10-29T10:18:36.000Z</time>
      </trkpt>
      <trkpt lat="47.38881" lon="3.56199">
        <ele>236.19999694824</ele>
        <time>2022-10-29T10:18:37.000Z</time>
      </trkpt>
      <trkpt lat="47.38877" lon="3.56206">
        <ele>236.39999389648</ele>
        <time>2022-10-29T10:18:39.000Z</time>
      </trkpt>
      <trkpt lat="47.38869" lon="3.56221">
        <ele>237.19999694824</ele>
        <time>2022-10-29T10:18:43.000Z</time>
      </trkpt>
      <trkpt lat="47.38863" lon="3.56231">
        <ele>238</ele>
        <time>2022-10-29T10:18:46.000Z</time>
      </trkpt>
      <trkpt lat="47.38859" lon="3.56238">
        <ele>238.39999389648</ele>
        <time>2022-10-29T10:18:48.000Z</time>
      </trkpt>
      <trkpt lat="47.38844" lon="3.56261">
        <ele>239.39999389648</ele>
        <time>2022-10-29T10:18:54.000Z</time>
      </trkpt>
      <trkpt lat="47.38822" lon="3.56293">
        <ele>240</ele>
        <time>2022-10-29T10:19:02.000Z</time>
      </trkpt>
      <trkpt lat="47.38807" lon="3.56315">
        <ele>240.39999389648</ele>
        <time>2022-10-29T10:19:07.000Z</time>
      </trkpt>
      <trkpt lat="47.38795" lon="3.56333">
        <ele>240.60000610352</ele>
        <time>2022-10-29T10:19:11.000Z</time>
      </trkpt>
      <trkpt lat="47.38783" lon="3.56351">
        <ele>240.60000610352</ele>
        <time>2022-10-29T10:19:15.000Z</time>
      </trkpt>
      <trkpt lat="47.38774" lon="3.56368">
        <ele>240.60000610352</ele>
        <time>2022-10-29T10:19:18.000Z</time>
      </trkpt>
      <trkpt lat="47.38742" lon="3.56432">
        <ele>240.19999694824</ele>
        <time>2022-10-29T10:19:29.000Z</time>
      </trkpt>
      <trkpt lat="47.38712" lon="3.56485">
        <ele>240</ele>
        <time>2022-10-29T10:19:38.000Z</time>
      </trkpt>
      <trkpt lat="47.3869" lon="3.56524">
        <ele>239.80000305176</ele>
        <time>2022-10-29T10:19:45.000Z</time>
      </trkpt>
      <trkpt lat="47.38659" lon="3.56589">
        <ele>239.80000305176</ele>
        <time>2022-10-29T10:19:56.000Z</time>
      </trkpt>
      <trkpt lat="47.38629" lon="3.56657">
        <ele>241</ele>
        <time>2022-10-29T10:20:08.000Z</time>
      </trkpt>
      <trkpt lat="47.38609" lon="3.56687">
        <ele>241.60000610352</ele>
        <time>2022-10-29T10:20:15.000Z</time>
      </trkpt>
      <trkpt lat="47.38581" lon="3.56702">
        <ele>242.80000305176</ele>
        <time>2022-10-29T10:20:23.000Z</time>
      </trkpt>
      <trkpt lat="47.38578" lon="3.56704">
        <ele>242.80000305176</ele>
        <time>2022-10-29T10:20:24.000Z</time>
      </trkpt>
      <trkpt lat="47.38549" lon="3.56714">
        <ele>244</ele>
        <time>2022-10-29T10:20:32.000Z</time>
      </trkpt>
      <trkpt lat="47.38545" lon="3.56715">
        <ele>244.19999694824</ele>
        <time>2022-10-29T10:20:33.000Z</time>
      </trkpt>
      <trkpt lat="47.38525" lon="3.5672">
        <ele>245.19999694824</ele>
        <time>2022-10-29T10:20:39.000Z</time>
      </trkpt>
      <trkpt lat="47.38518" lon="3.56723">
        <ele>245.60000610352</ele>
        <time>2022-10-29T10:20:41.000Z</time>
      </trkpt>
      <trkpt lat="47.38511" lon="3.56725">
        <ele>245.80000305176</ele>
        <time>2022-10-29T10:20:43.000Z</time>
      </trkpt>
      <trkpt lat="47.38501" lon="3.56728">
        <ele>246.39999389648</ele>
        <time>2022-10-29T10:20:46.000Z</time>
      </trkpt>
      <trkpt lat="47.38492" lon="3.56733">
        <ele>246.80000305176</ele>
        <time>2022-10-29T10:20:49.000Z</time>
      </trkpt>
      <trkpt lat="47.3848" lon="3.56737">
        <ele>247.60000610352</ele>
        <time>2022-10-29T10:20:53.000Z</time>
      </trkpt>
      <trkpt lat="47.38471" lon="3.56739">
        <ele>248.19999694824</ele>
        <time>2022-10-29T10:20:56.000Z</time>
      </trkpt>
      <trkpt lat="47.38465" lon="3.56742">
        <ele>248.60000610352</ele>
        <time>2022-10-29T10:20:58.000Z</time>
      </trkpt>
      <trkpt lat="47.38445" lon="3.56753">
        <ele>249.60000610352</ele>
        <time>2022-10-29T10:21:05.000Z</time>
      </trkpt>
      <trkpt lat="47.38442" lon="3.56754">
        <ele>249.80000305176</ele>
        <time>2022-10-29T10:21:06.000Z</time>
      </trkpt>
      <trkpt lat="47.38428" lon="3.56762">
        <ele>250.60000610352</ele>
        <time>2022-10-29T10:21:11.000Z</time>
      </trkpt>
      <trkpt lat="47.38416" lon="3.56767">
        <ele>251.80000305176</ele>
        <time>2022-10-29T10:21:15.000Z</time>
      </trkpt>
      <trkpt lat="47.38406" lon="3.56773">
        <ele>253</ele>
        <time>2022-10-29T10:21:19.000Z</time>
      </trkpt>
      <trkpt lat="47.38392" lon="3.5678">
        <ele>254</ele>
        <time>2022-10-29T10:21:24.000Z</time>
      </trkpt>
      <trkpt lat="47.38386" lon="3.56782">
        <ele>254.80000305176</ele>
        <time>2022-10-29T10:21:26.000Z</time>
      </trkpt>
      <trkpt lat="47.3838" lon="3.56786">
        <ele>255.19999694824</ele>
        <time>2022-10-29T10:21:28.000Z</time>
      </trkpt>
      <trkpt lat="47.38367" lon="3.56796">
        <ele>256.20001220703</ele>
        <time>2022-10-29T10:21:33.000Z</time>
      </trkpt>
      <trkpt lat="47.38361" lon="3.568">
        <ele>256.60000610352</ele>
        <time>2022-10-29T10:21:35.000Z</time>
      </trkpt>
      <trkpt lat="47.38355" lon="3.56803">
        <ele>257.20001220703</ele>
        <time>2022-10-29T10:21:37.000Z</time>
      </trkpt>
      <trkpt lat="47.3834" lon="3.56814">
        <ele>258.20001220703</ele>
        <time>2022-10-29T10:21:42.000Z</time>
      </trkpt>
      <trkpt lat="47.38337" lon="3.56817">
        <ele>258.39999389648</ele>
        <time>2022-10-29T10:21:43.000Z</time>
      </trkpt>
      <trkpt lat="47.38311" lon="3.56839">
        <ele>259</ele>
        <time>2022-10-29T10:21:51.000Z</time>
      </trkpt>
      <trkpt lat="47.38274" lon="3.56866">
        <ele>258.60000610352</ele>
        <time>2022-10-29T10:22:00.000Z</time>
      </trkpt>
      <trkpt lat="47.38237" lon="3.56892">
        <ele>257.39999389648</ele>
        <time>2022-10-29T10:22:08.000Z</time>
      </trkpt>
      <trkpt lat="47.38232" lon="3.56895">
        <ele>257.39999389648</ele>
        <time>2022-10-29T10:22:09.000Z</time>
      </trkpt>
      <trkpt lat="47.38202" lon="3.56919">
        <ele>257.39999389648</ele>
        <time>2022-10-29T10:22:16.000Z</time>
      </trkpt>
      <trkpt lat="47.38186" lon="3.56934">
        <ele>257.60000610352</ele>
        <time>2022-10-29T10:22:21.000Z</time>
      </trkpt>
      <trkpt lat="47.38176" lon="3.56944">
        <ele>258.39999389648</ele>
        <time>2022-10-29T10:22:25.000Z</time>
      </trkpt>
      <trkpt lat="47.38167" lon="3.56953">
        <ele>259</ele>
        <time>2022-10-29T10:22:29.000Z</time>
      </trkpt>
      <trkpt lat="47.38162" lon="3.56959">
        <ele>259.39999389648</ele>
        <time>2022-10-29T10:22:31.000Z</time>
      </trkpt>
      <trkpt lat="47.3815" lon="3.56967">
        <ele>260.20001220703</ele>
        <time>2022-10-29T10:22:36.000Z</time>
      </trkpt>
      <trkpt lat="47.38147" lon="3.5697">
        <ele>260.39999389648</ele>
        <time>2022-10-29T10:22:37.000Z</time>
      </trkpt>
      <trkpt lat="47.38127" lon="3.56983">
        <ele>261.39999389648</ele>
        <time>2022-10-29T10:22:44.000Z</time>
      </trkpt>
      <trkpt lat="47.38124" lon="3.56985">
        <ele>261.60000610352</ele>
        <time>2022-10-29T10:22:45.000Z</time>
      </trkpt>
      <trkpt lat="47.38103" lon="3.56996">
        <ele>262.20001220703</ele>
        <time>2022-10-29T10:22:52.000Z</time>
      </trkpt>
      <trkpt lat="47.38076" lon="3.57016">
        <ele>262.20001220703</ele>
        <time>2022-10-29T10:23:00.000Z</time>
      </trkpt>
      <trkpt lat="47.38058" lon="3.57036">
        <ele>262</ele>
        <time>2022-10-29T10:23:05.000Z</time>
      </trkpt>
      <trkpt lat="47.38033" lon="3.57068">
        <ele>261.60000610352</ele>
        <time>2022-10-29T10:23:12.000Z</time>
      </trkpt>
      <trkpt lat="47.38007" lon="3.57111">
        <ele>261.20001220703</ele>
        <time>2022-10-29T10:23:19.000Z</time>
      </trkpt>
      <trkpt lat="47.3799" lon="3.5714">
        <ele>260.60000610352</ele>
        <time>2022-10-29T10:23:23.000Z</time>
      </trkpt>
      <trkpt lat="47.37978" lon="3.57163">
        <ele>259.39999389648</ele>
        <time>2022-10-29T10:23:26.000Z</time>
      </trkpt>
      <trkpt lat="47.37974" lon="3.57171">
        <ele>259.20001220703</ele>
        <time>2022-10-29T10:23:27.000Z</time>
      </trkpt>
      <trkpt lat="47.37962" lon="3.57195">
        <ele>258.20001220703</ele>
        <time>2022-10-29T10:23:30.000Z</time>
      </trkpt>
      <trkpt lat="47.37949" lon="3.57221">
        <ele>257.20001220703</ele>
        <time>2022-10-29T10:23:33.000Z</time>
      </trkpt>
      <trkpt lat="47.37945" lon="3.57229">
        <ele>256.79998779297</ele>
        <time>2022-10-29T10:23:34.000Z</time>
      </trkpt>
      <trkpt lat="47.37937" lon="3.57245">
        <ele>256</ele>
        <time>2022-10-29T10:23:36.000Z</time>
      </trkpt>
      <trkpt lat="47.37928" lon="3.5726">
        <ele>255.39999389648</ele>
        <time>2022-10-29T10:23:38.000Z</time>
      </trkpt>
      <trkpt lat="47.37917" lon="3.57274">
        <ele>254.80000305176</ele>
        <time>2022-10-29T10:23:40.000Z</time>
      </trkpt>
      <trkpt lat="47.37911" lon="3.57281">
        <ele>254.60000610352</ele>
        <time>2022-10-29T10:23:41.000Z</time>
      </trkpt>
      <trkpt lat="47.37898" lon="3.57295">
        <ele>253.80000305176</ele>
        <time>2022-10-29T10:23:43.000Z</time>
      </trkpt>
      <trkpt lat="47.37878" lon="3.57313">
        <ele>252.60000610352</ele>
        <time>2022-10-29T10:23:46.000Z</time>
      </trkpt>
      <trkpt lat="47.3787" lon="3.5732">
        <ele>252.19999694824</ele>
        <time>2022-10-29T10:23:47.000Z</time>
      </trkpt>
      <trkpt lat="47.37846" lon="3.57332">
        <ele>251.19999694824</ele>
        <time>2022-10-29T10:23:50.000Z</time>
      </trkpt>
      <trkpt lat="47.37837" lon="3.57334">
        <ele>250.39999389648</ele>
        <time>2022-10-29T10:23:51.000Z</time>
      </trkpt>
      <trkpt lat="47.37829" lon="3.57335">
        <ele>249.60000610352</ele>
        <time>2022-10-29T10:23:52.000Z</time>
      </trkpt>
      <trkpt lat="47.37811" lon="3.57336">
        <ele>248.19999694824</ele>
        <time>2022-10-29T10:23:54.000Z</time>
      </trkpt>
      <trkpt lat="47.37787" lon="3.57339">
        <ele>247</ele>
        <time>2022-10-29T10:23:57.000Z</time>
      </trkpt>
      <trkpt lat="47.37779" lon="3.5734">
        <ele>246.60000610352</ele>
        <time>2022-10-29T10:23:58.000Z</time>
      </trkpt>
      <trkpt lat="47.37743" lon="3.57343">
        <ele>246</ele>
        <time>2022-10-29T10:24:03.000Z</time>
      </trkpt>
      <trkpt lat="47.37729" lon="3.57346">
        <ele>245.80000305176</ele>
        <time>2022-10-29T10:24:05.000Z</time>
      </trkpt>
      <trkpt lat="47.37723" lon="3.57349">
        <ele>245.80000305176</ele>
        <time>2022-10-29T10:24:06.000Z</time>
      </trkpt>
      <trkpt lat="47.37713" lon="3.57358">
        <ele>245.60000610352</ele>
        <time>2022-10-29T10:24:08.000Z</time>
      </trkpt>
      <trkpt lat="47.37706" lon="3.57372">
        <ele>245.39999389648</ele>
        <time>2022-10-29T10:24:10.000Z</time>
      </trkpt>
      <trkpt lat="47.37703" lon="3.5738">
        <ele>245.39999389648</ele>
        <time>2022-10-29T10:24:11.000Z</time>
      </trkpt>
      <trkpt lat="47.37687" lon="3.57443">
        <ele>245</ele>
        <time>2022-10-29T10:24:18.000Z</time>
      </trkpt>
      <trkpt lat="47.37664" lon="3.57516">
        <ele>244.60000610352</ele>
        <time>2022-10-29T10:24:26.000Z</time>
      </trkpt>
      <trkpt lat="47.37648" lon="3.57587">
        <ele>244.60000610352</ele>
        <time>2022-10-29T10:24:34.000Z</time>
      </trkpt>
      <trkpt lat="47.37641" lon="3.57621">
        <ele>245</ele>
        <time>2022-10-29T10:24:39.000Z</time>
      </trkpt>
      <trkpt lat="47.37633" lon="3.57652">
        <ele>245.60000610352</ele>
        <time>2022-10-29T10:24:44.000Z</time>
      </trkpt>
      <trkpt lat="47.37633" lon="3.57656">
        <ele>245.80000305176</ele>
        <time>2022-10-29T10:24:45.000Z</time>
      </trkpt>
      <trkpt lat="47.37631" lon="3.5766">
        <ele>246</ele>
        <time>2022-10-29T10:24:46.000Z</time>
      </trkpt>
      <trkpt lat="47.37626" lon="3.57678">
        <ele>247</ele>
        <time>2022-10-29T10:24:50.000Z</time>
      </trkpt>
      <trkpt lat="47.3762" lon="3.57703">
        <ele>248.19999694824</ele>
        <time>2022-10-29T10:24:55.000Z</time>
      </trkpt>
      <trkpt lat="47.37618" lon="3.57718">
        <ele>248.60000610352</ele>
        <time>2022-10-29T10:24:58.000Z</time>
      </trkpt>
      <trkpt lat="47.37614" lon="3.57737">
        <ele>249.39999389648</ele>
        <time>2022-10-29T10:25:02.000Z</time>
      </trkpt>
      <trkpt lat="47.37611" lon="3.57751">
        <ele>249.60000610352</ele>
        <time>2022-10-29T10:25:05.000Z</time>
      </trkpt>
      <trkpt lat="47.37604" lon="3.57781">
        <ele>250</ele>
        <time>2022-10-29T10:25:11.000Z</time>
      </trkpt>
      <trkpt lat="47.37599" lon="3.57804">
        <ele>250.60000610352</ele>
        <time>2022-10-29T10:25:16.000Z</time>
      </trkpt>
      <trkpt lat="47.37596" lon="3.57809">
        <ele>250.80000305176</ele>
        <time>2022-10-29T10:25:18.000Z</time>
      </trkpt>
      <trkpt lat="47.37593" lon="3.5781">
        <ele>250.80000305176</ele>
        <time>2022-10-29T10:25:19.000Z</time>
      </trkpt>
      <trkpt lat="47.37583" lon="3.57808">
        <ele>251</ele>
        <time>2022-10-29T10:25:22.000Z</time>
      </trkpt>
      <trkpt lat="47.37573" lon="3.57804">
        <ele>251.60000610352</ele>
        <time>2022-10-29T10:25:25.000Z</time>
      </trkpt>
      <trkpt lat="47.37555" lon="3.578">
        <ele>252</ele>
        <time>2022-10-29T10:25:30.000Z</time>
      </trkpt>
      <trkpt lat="47.37526" lon="3.57793">
        <ele>252.39999389648</ele>
        <time>2022-10-29T10:25:38.000Z</time>
      </trkpt>
      <trkpt lat="47.37519" lon="3.57792">
        <ele>252.60000610352</ele>
        <time>2022-10-29T10:25:40.000Z</time>
      </trkpt>
      <trkpt lat="47.37503" lon="3.57788">
        <ele>253.19999694824</ele>
        <time>2022-10-29T10:25:44.000Z</time>
      </trkpt>
      <trkpt lat="47.37488" lon="3.57788">
        <ele>253.80000305176</ele>
        <time>2022-10-29T10:25:48.000Z</time>
      </trkpt>
      <trkpt lat="47.3748" lon="3.57789">
        <ele>254</ele>
        <time>2022-10-29T10:25:50.000Z</time>
      </trkpt>
      <trkpt lat="47.3745" lon="3.57793">
        <ele>254.39999389648</ele>
        <time>2022-10-29T10:25:57.000Z</time>
      </trkpt>
      <trkpt lat="47.37427" lon="3.57801">
        <ele>254.60000610352</ele>
        <time>2022-10-29T10:26:03.000Z</time>
      </trkpt>
      <trkpt lat="47.37423" lon="3.57803">
        <ele>254.60000610352</ele>
        <time>2022-10-29T10:26:04.000Z</time>
      </trkpt>
      <trkpt lat="47.37411" lon="3.57812">
        <ele>254.80000305176</ele>
        <time>2022-10-29T10:26:07.000Z</time>
      </trkpt>
      <trkpt lat="47.37395" lon="3.57822">
        <ele>255</ele>
        <time>2022-10-29T10:26:11.000Z</time>
      </trkpt>
      <trkpt lat="47.37392" lon="3.57825">
        <ele>255</ele>
        <time>2022-10-29T10:26:12.000Z</time>
      </trkpt>
      <trkpt lat="47.37368" lon="3.57844">
        <ele>255.19999694824</ele>
        <time>2022-10-29T10:26:18.000Z</time>
      </trkpt>
      <trkpt lat="47.3736" lon="3.57851">
        <ele>255.19999694824</ele>
        <time>2022-10-29T10:26:20.000Z</time>
      </trkpt>
      <trkpt lat="47.37345" lon="3.57864">
        <ele>255.39999389648</ele>
        <time>2022-10-29T10:26:24.000Z</time>
      </trkpt>
      <trkpt lat="47.37333" lon="3.57874">
        <ele>255.39999389648</ele>
        <time>2022-10-29T10:26:27.000Z</time>
      </trkpt>
      <trkpt lat="47.37314" lon="3.57891">
        <ele>255.39999389648</ele>
        <time>2022-10-29T10:26:32.000Z</time>
      </trkpt>
      <trkpt lat="47.37306" lon="3.57898">
        <ele>255.39999389648</ele>
        <time>2022-10-29T10:26:34.000Z</time>
      </trkpt>
      <trkpt lat="47.37284" lon="3.57917">
        <ele>255.80000305176</ele>
        <time>2022-10-29T10:26:40.000Z</time>
      </trkpt>
      <trkpt lat="47.37273" lon="3.57927">
        <ele>256</ele>
        <time>2022-10-29T10:26:43.000Z</time>
      </trkpt>
      <trkpt lat="47.37236" lon="3.57958">
        <ele>256.20001220703</ele>
        <time>2022-10-29T10:26:52.000Z</time>
      </trkpt>
      <trkpt lat="47.37202" lon="3.57988">
        <ele>256.79998779297</ele>
        <time>2022-10-29T10:27:01.000Z</time>
      </trkpt>
      <trkpt lat="47.37195" lon="3.57995">
        <ele>256.79998779297</ele>
        <time>2022-10-29T10:27:03.000Z</time>
      </trkpt>
      <trkpt lat="47.37169" lon="3.58017">
        <ele>257.79998779297</ele>
        <time>2022-10-29T10:27:10.000Z</time>
      </trkpt>
      <trkpt lat="47.37165" lon="3.5802">
        <ele>258</ele>
        <time>2022-10-29T10:27:11.000Z</time>
      </trkpt>
      <trkpt lat="47.37132" lon="3.58048">
        <ele>258.60000610352</ele>
        <time>2022-10-29T10:27:20.000Z</time>
      </trkpt>
      <trkpt lat="47.37118" lon="3.5806">
        <ele>259</ele>
        <time>2022-10-29T10:27:24.000Z</time>
      </trkpt>
      <trkpt lat="47.37104" lon="3.58073">
        <ele>259.39999389648</ele>
        <time>2022-10-29T10:27:28.000Z</time>
      </trkpt>
      <trkpt lat="47.37084" lon="3.58092">
        <ele>260</ele>
        <time>2022-10-29T10:27:34.000Z</time>
      </trkpt>
      <trkpt lat="47.37074" lon="3.58099">
        <ele>260.39999389648</ele>
        <time>2022-10-29T10:27:37.000Z</time>
      </trkpt>
      <trkpt lat="47.37057" lon="3.58114">
        <ele>261.20001220703</ele>
        <time>2022-10-29T10:27:42.000Z</time>
      </trkpt>
      <trkpt lat="47.37047" lon="3.58123">
        <ele>261.60000610352</ele>
        <time>2022-10-29T10:27:45.000Z</time>
      </trkpt>
      <trkpt lat="47.37029" lon="3.58137">
        <ele>262.20001220703</ele>
        <time>2022-10-29T10:27:51.000Z</time>
      </trkpt>
      <trkpt lat="47.37022" lon="3.58142">
        <ele>262.20001220703</ele>
        <time>2022-10-29T10:27:53.000Z</time>
      </trkpt>
      <trkpt lat="47.37003" lon="3.58159">
        <ele>262.79998779297</ele>
        <time>2022-10-29T10:27:59.000Z</time>
      </trkpt>
      <trkpt lat="47.36986" lon="3.58174">
        <ele>263.39999389648</ele>
        <time>2022-10-29T10:28:04.000Z</time>
      </trkpt>
      <trkpt lat="47.36969" lon="3.58188">
        <ele>264.20001220703</ele>
        <time>2022-10-29T10:28:09.000Z</time>
      </trkpt>
      <trkpt lat="47.36958" lon="3.58196">
        <ele>264.39999389648</ele>
        <time>2022-10-29T10:28:12.000Z</time>
      </trkpt>
      <trkpt lat="47.36929" lon="3.5822">
        <ele>265</ele>
        <time>2022-10-29T10:28:20.000Z</time>
      </trkpt>
      <trkpt lat="47.36918" lon="3.58228">
        <ele>265.39999389648</ele>
        <time>2022-10-29T10:28:23.000Z</time>
      </trkpt>
      <trkpt lat="47.36905" lon="3.58239">
        <ele>266</ele>
        <time>2022-10-29T10:28:27.000Z</time>
      </trkpt>
      <trkpt lat="47.36888" lon="3.58252">
        <ele>266.60000610352</ele>
        <time>2022-10-29T10:28:32.000Z</time>
      </trkpt>
      <trkpt lat="47.36878" lon="3.58262">
        <ele>267</ele>
        <time>2022-10-29T10:28:35.000Z</time>
      </trkpt>
      <trkpt lat="47.36851" lon="3.58282">
        <ele>267.39999389648</ele>
        <time>2022-10-29T10:28:43.000Z</time>
      </trkpt>
      <trkpt lat="47.36844" lon="3.58287">
        <ele>267.60000610352</ele>
        <time>2022-10-29T10:28:45.000Z</time>
      </trkpt>
      <trkpt lat="47.36819" lon="3.58302">
        <ele>268</ele>
        <time>2022-10-29T10:28:52.000Z</time>
      </trkpt>
      <trkpt lat="47.3679" lon="3.58312">
        <ele>268.60000610352</ele>
        <time>2022-10-29T10:28:59.000Z</time>
      </trkpt>
      <trkpt lat="47.36786" lon="3.58313">
        <ele>268.79998779297</ele>
        <time>2022-10-29T10:29:00.000Z</time>
      </trkpt>
      <trkpt lat="47.36761" lon="3.58313">
        <ele>269.79998779297</ele>
        <time>2022-10-29T10:29:05.000Z</time>
      </trkpt>
      <trkpt lat="47.36757" lon="3.58315">
        <ele>269.79998779297</ele>
        <time>2022-10-29T10:29:06.000Z</time>
      </trkpt>
      <trkpt lat="47.36753" lon="3.58318">
        <ele>270</ele>
        <time>2022-10-29T10:29:07.000Z</time>
      </trkpt>
      <trkpt lat="47.3675" lon="3.5833">
        <ele>270.20001220703</ele>
        <time>2022-10-29T10:29:09.000Z</time>
      </trkpt>
      <trkpt lat="47.36749" lon="3.58349">
        <ele>270.79998779297</ele>
        <time>2022-10-29T10:29:12.000Z</time>
      </trkpt>
      <trkpt lat="47.36749" lon="3.5837">
        <ele>271</ele>
        <time>2022-10-29T10:29:15.000Z</time>
      </trkpt>
      <trkpt lat="47.36744" lon="3.58425">
        <ele>271</ele>
        <time>2022-10-29T10:29:23.000Z</time>
      </trkpt>
      <trkpt lat="47.36743" lon="3.5844">
        <ele>271</ele>
        <time>2022-10-29T10:29:25.000Z</time>
      </trkpt>
      <trkpt lat="47.36741" lon="3.58471">
        <ele>271</ele>
        <time>2022-10-29T10:29:29.000Z</time>
      </trkpt>
      <trkpt lat="47.3674" lon="3.58479">
        <ele>271</ele>
        <time>2022-10-29T10:29:30.000Z</time>
      </trkpt>
      <trkpt lat="47.36736" lon="3.58544">
        <ele>271</ele>
        <time>2022-10-29T10:29:38.000Z</time>
      </trkpt>
      <trkpt lat="47.36732" lon="3.58607">
        <ele>271</ele>
        <time>2022-10-29T10:29:45.000Z</time>
      </trkpt>
      <trkpt lat="47.36727" lon="3.58669">
        <ele>270</ele>
        <time>2022-10-29T10:29:51.000Z</time>
      </trkpt>
      <trkpt lat="47.36726" lon="3.58679">
        <ele>269.79998779297</ele>
        <time>2022-10-29T10:29:52.000Z</time>
      </trkpt>
      <trkpt lat="47.36725" lon="3.58688">
        <ele>269.79998779297</ele>
        <time>2022-10-29T10:29:53.000Z</time>
      </trkpt>
      <trkpt lat="47.36725" lon="3.58718">
        <ele>269.60000610352</ele>
        <time>2022-10-29T10:29:56.000Z</time>
      </trkpt>
      <trkpt lat="47.36719" lon="3.58772">
        <ele>268.79998779297</ele>
        <time>2022-10-29T10:30:02.000Z</time>
      </trkpt>
      <trkpt lat="47.36713" lon="3.58844">
        <ele>267.79998779297</ele>
        <time>2022-10-29T10:30:09.000Z</time>
      </trkpt>
      <trkpt lat="47.36712" lon="3.58854">
        <ele>267.60000610352</ele>
        <time>2022-10-29T10:30:10.000Z</time>
      </trkpt>
      <trkpt lat="47.3671" lon="3.58871">
        <ele>267</ele>
        <time>2022-10-29T10:30:12.000Z</time>
      </trkpt>
      <trkpt lat="47.36709" lon="3.58893">
        <ele>266.60000610352</ele>
        <time>2022-10-29T10:30:14.000Z</time>
      </trkpt>
      <trkpt lat="47.36708" lon="3.58904">
        <ele>266.60000610352</ele>
        <time>2022-10-29T10:30:15.000Z</time>
      </trkpt>
      <trkpt lat="47.36706" lon="3.58944">
        <ele>265.79998779297</ele>
        <time>2022-10-29T10:30:19.000Z</time>
      </trkpt>
      <trkpt lat="47.36707" lon="3.58952">
        <ele>265.60000610352</ele>
        <time>2022-10-29T10:30:20.000Z</time>
      </trkpt>
      <trkpt lat="47.36707" lon="3.58972">
        <ele>265.20001220703</ele>
        <time>2022-10-29T10:30:22.000Z</time>
      </trkpt>
      <trkpt lat="47.36708" lon="3.58997">
        <ele>264.20001220703</ele>
        <time>2022-10-29T10:30:25.000Z</time>
      </trkpt>
      <trkpt lat="47.36709" lon="3.59026">
        <ele>263</ele>
        <time>2022-10-29T10:30:28.000Z</time>
      </trkpt>
      <trkpt lat="47.3671" lon="3.59035">
        <ele>262.79998779297</ele>
        <time>2022-10-29T10:30:29.000Z</time>
      </trkpt>
      <trkpt lat="47.36714" lon="3.5906">
        <ele>261.79998779297</ele>
        <time>2022-10-29T10:30:32.000Z</time>
      </trkpt>
      <trkpt lat="47.36716" lon="3.59068">
        <ele>261.60000610352</ele>
        <time>2022-10-29T10:30:33.000Z</time>
      </trkpt>
      <trkpt lat="47.36719" lon="3.59082">
        <ele>260.79998779297</ele>
        <time>2022-10-29T10:30:35.000Z</time>
      </trkpt>
      <trkpt lat="47.36723" lon="3.59094">
        <ele>260.20001220703</ele>
        <time>2022-10-29T10:30:37.000Z</time>
      </trkpt>
      <trkpt lat="47.36728" lon="3.59109">
        <ele>259.60000610352</ele>
        <time>2022-10-29T10:30:39.000Z</time>
      </trkpt>
      <trkpt lat="47.36735" lon="3.59134">
        <ele>258.79998779297</ele>
        <time>2022-10-29T10:30:42.000Z</time>
      </trkpt>
      <trkpt lat="47.36737" lon="3.59142">
        <ele>258.60000610352</ele>
        <time>2022-10-29T10:30:43.000Z</time>
      </trkpt>
      <trkpt lat="47.36743" lon="3.59164">
        <ele>258</ele>
        <time>2022-10-29T10:30:46.000Z</time>
      </trkpt>
      <trkpt lat="47.36747" lon="3.59182">
        <ele>257.79998779297</ele>
        <time>2022-10-29T10:30:48.000Z</time>
      </trkpt>
      <trkpt lat="47.36746" lon="3.59192">
        <ele>257.39999389648</ele>
        <time>2022-10-29T10:30:49.000Z</time>
      </trkpt>
      <trkpt lat="47.36747" lon="3.59201">
        <ele>257.20001220703</ele>
        <time>2022-10-29T10:30:50.000Z</time>
      </trkpt>
      <trkpt lat="47.3675" lon="3.59222">
        <ele>257</ele>
        <time>2022-10-29T10:30:52.000Z</time>
      </trkpt>
      <trkpt lat="47.36752" lon="3.59231">
        <ele>256.79998779297</ele>
        <time>2022-10-29T10:30:53.000Z</time>
      </trkpt>
      <trkpt lat="47.36758" lon="3.5925">
        <ele>256.60000610352</ele>
        <time>2022-10-29T10:30:55.000Z</time>
      </trkpt>
      <trkpt lat="47.36761" lon="3.5926">
        <ele>256.20001220703</ele>
        <time>2022-10-29T10:30:56.000Z</time>
      </trkpt>
      <trkpt lat="47.36765" lon="3.5927">
        <ele>256</ele>
        <time>2022-10-29T10:30:57.000Z</time>
      </trkpt>
      <trkpt lat="47.36769" lon="3.5928">
        <ele>255.60000610352</ele>
        <time>2022-10-29T10:30:58.000Z</time>
      </trkpt>
      <trkpt lat="47.3678" lon="3.59301">
        <ele>255.19999694824</ele>
        <time>2022-10-29T10:31:00.000Z</time>
      </trkpt>
      <trkpt lat="47.36795" lon="3.59332">
        <ele>254</ele>
        <time>2022-10-29T10:31:03.000Z</time>
      </trkpt>
      <trkpt lat="47.368" lon="3.59353">
        <ele>253.39999389648</ele>
        <time>2022-10-29T10:31:05.000Z</time>
      </trkpt>
      <trkpt lat="47.36799" lon="3.59363">
        <ele>253</ele>
        <time>2022-10-29T10:31:06.000Z</time>
      </trkpt>
      <trkpt lat="47.36794" lon="3.59383">
        <ele>252</ele>
        <time>2022-10-29T10:31:08.000Z</time>
      </trkpt>
      <trkpt lat="47.36784" lon="3.59404">
        <ele>251.39999389648</ele>
        <time>2022-10-29T10:31:10.000Z</time>
      </trkpt>
      <trkpt lat="47.36777" lon="3.59423">
        <ele>250.60000610352</ele>
        <time>2022-10-29T10:31:12.000Z</time>
      </trkpt>
      <trkpt lat="47.36774" lon="3.59432">
        <ele>250.60000610352</ele>
        <time>2022-10-29T10:31:13.000Z</time>
      </trkpt>
      <trkpt lat="47.36763" lon="3.59458">
        <ele>249.80000305176</ele>
        <time>2022-10-29T10:31:16.000Z</time>
      </trkpt>
      <trkpt lat="47.3676" lon="3.59468">
        <ele>249.60000610352</ele>
        <time>2022-10-29T10:31:17.000Z</time>
      </trkpt>
      <trkpt lat="47.36744" lon="3.59515">
        <ele>248.60000610352</ele>
        <time>2022-10-29T10:31:22.000Z</time>
      </trkpt>
      <trkpt lat="47.36741" lon="3.59525">
        <ele>248.39999389648</ele>
        <time>2022-10-29T10:31:23.000Z</time>
      </trkpt>
      <trkpt lat="47.36738" lon="3.59535">
        <ele>248</ele>
        <time>2022-10-29T10:31:24.000Z</time>
      </trkpt>
      <trkpt lat="47.36728" lon="3.59565">
        <ele>247.60000610352</ele>
        <time>2022-10-29T10:31:27.000Z</time>
      </trkpt>
      <trkpt lat="47.36723" lon="3.59574">
        <ele>247.39999389648</ele>
        <time>2022-10-29T10:31:28.000Z</time>
      </trkpt>
      <trkpt lat="47.36712" lon="3.5959">
        <ele>246.80000305176</ele>
        <time>2022-10-29T10:31:30.000Z</time>
      </trkpt>
      <trkpt lat="47.36706" lon="3.59597">
        <ele>246.39999389648</ele>
        <time>2022-10-29T10:31:31.000Z</time>
      </trkpt>
      <trkpt lat="47.36699" lon="3.59604">
        <ele>246</ele>
        <time>2022-10-29T10:31:32.000Z</time>
      </trkpt>
      <trkpt lat="47.36677" lon="3.59621">
        <ele>245</ele>
        <time>2022-10-29T10:31:35.000Z</time>
      </trkpt>
      <trkpt lat="47.3667" lon="3.59627">
        <ele>244.39999389648</ele>
        <time>2022-10-29T10:31:36.000Z</time>
      </trkpt>
      <trkpt lat="47.36662" lon="3.59633">
        <ele>244</ele>
        <time>2022-10-29T10:31:37.000Z</time>
      </trkpt>
      <trkpt lat="47.36641" lon="3.59654">
        <ele>242.60000610352</ele>
        <time>2022-10-29T10:31:40.000Z</time>
      </trkpt>
      <trkpt lat="47.36635" lon="3.59662">
        <ele>242.39999389648</ele>
        <time>2022-10-29T10:31:41.000Z</time>
      </trkpt>
      <trkpt lat="47.36615" lon="3.59703">
        <ele>241.39999389648</ele>
        <time>2022-10-29T10:31:45.000Z</time>
      </trkpt>
      <trkpt lat="47.36608" lon="3.59727">
        <ele>240.80000305176</ele>
        <time>2022-10-29T10:31:47.000Z</time>
      </trkpt>
      <trkpt lat="47.36603" lon="3.59753">
        <ele>240</ele>
        <time>2022-10-29T10:31:49.000Z</time>
      </trkpt>
      <trkpt lat="47.366" lon="3.59766">
        <ele>239.39999389648</ele>
        <time>2022-10-29T10:31:50.000Z</time>
      </trkpt>
      <trkpt lat="47.36595" lon="3.59792">
        <ele>238.19999694824</ele>
        <time>2022-10-29T10:31:52.000Z</time>
      </trkpt>
      <trkpt lat="47.36589" lon="3.59817">
        <ele>237.19999694824</ele>
        <time>2022-10-29T10:31:54.000Z</time>
      </trkpt>
      <trkpt lat="47.36581" lon="3.59843">
        <ele>236.39999389648</ele>
        <time>2022-10-29T10:31:56.000Z</time>
      </trkpt>
      <trkpt lat="47.36577" lon="3.59855">
        <ele>235.60000610352</ele>
        <time>2022-10-29T10:31:57.000Z</time>
      </trkpt>
      <trkpt lat="47.36556" lon="3.59906">
        <ele>234.19999694824</ele>
        <time>2022-10-29T10:32:01.000Z</time>
      </trkpt>
      <trkpt lat="47.36541" lon="3.59941">
        <ele>233</ele>
        <time>2022-10-29T10:32:04.000Z</time>
      </trkpt>
      <trkpt lat="47.3653" lon="3.59969">
        <ele>231.80000305176</ele>
        <time>2022-10-29T10:32:06.000Z</time>
      </trkpt>
      <trkpt lat="47.36515" lon="3.60005">
        <ele>231</ele>
        <time>2022-10-29T10:32:09.000Z</time>
      </trkpt>
      <trkpt lat="47.3651" lon="3.60017">
        <ele>230.39999389648</ele>
        <time>2022-10-29T10:32:10.000Z</time>
      </trkpt>
      <trkpt lat="47.36494" lon="3.60055">
        <ele>228.80000305176</ele>
        <time>2022-10-29T10:32:13.000Z</time>
      </trkpt>
      <trkpt lat="47.36479" lon="3.60092">
        <ele>227.19999694824</ele>
        <time>2022-10-29T10:32:16.000Z</time>
      </trkpt>
      <trkpt lat="47.36474" lon="3.60104">
        <ele>227</ele>
        <time>2022-10-29T10:32:17.000Z</time>
      </trkpt>
      <trkpt lat="47.36463" lon="3.60128">
        <ele>226</ele>
        <time>2022-10-29T10:32:19.000Z</time>
      </trkpt>
      <trkpt lat="47.3645" lon="3.60167">
        <ele>225</ele>
        <time>2022-10-29T10:32:22.000Z</time>
      </trkpt>
      <trkpt lat="47.36447" lon="3.6018">
        <ele>224.19999694824</ele>
        <time>2022-10-29T10:32:23.000Z</time>
      </trkpt>
      <trkpt lat="47.36444" lon="3.60194">
        <ele>223.80000305176</ele>
        <time>2022-10-29T10:32:24.000Z</time>
      </trkpt>
      <trkpt lat="47.36436" lon="3.60234">
        <ele>222.39999389648</ele>
        <time>2022-10-29T10:32:27.000Z</time>
      </trkpt>
      <trkpt lat="47.36429" lon="3.60274">
        <ele>221.39999389648</ele>
        <time>2022-10-29T10:32:30.000Z</time>
      </trkpt>
      <trkpt lat="47.36426" lon="3.60287">
        <ele>221.19999694824</ele>
        <time>2022-10-29T10:32:31.000Z</time>
      </trkpt>
      <trkpt lat="47.36419" lon="3.60326">
        <ele>219.80000305176</ele>
        <time>2022-10-29T10:32:34.000Z</time>
      </trkpt>
      <trkpt lat="47.3641" lon="3.60378">
        <ele>218.80000305176</ele>
        <time>2022-10-29T10:32:38.000Z</time>
      </trkpt>
      <trkpt lat="47.36407" lon="3.60392">
        <ele>218.39999389648</ele>
        <time>2022-10-29T10:32:39.000Z</time>
      </trkpt>
      <trkpt lat="47.36403" lon="3.60419">
        <ele>217.19999694824</ele>
        <time>2022-10-29T10:32:41.000Z</time>
      </trkpt>
      <trkpt lat="47.36398" lon="3.6046">
        <ele>215.80000305176</ele>
        <time>2022-10-29T10:32:44.000Z</time>
      </trkpt>
      <trkpt lat="47.36393" lon="3.60488">
        <ele>215</ele>
        <time>2022-10-29T10:32:46.000Z</time>
      </trkpt>
      <trkpt lat="47.36389" lon="3.60515">
        <ele>214.60000610352</ele>
        <time>2022-10-29T10:32:48.000Z</time>
      </trkpt>
      <trkpt lat="47.36383" lon="3.60558">
        <ele>213.39999389648</ele>
        <time>2022-10-29T10:32:51.000Z</time>
      </trkpt>
      <trkpt lat="47.36377" lon="3.60602">
        <ele>212.39999389648</ele>
        <time>2022-10-29T10:32:54.000Z</time>
      </trkpt>
      <trkpt lat="47.36373" lon="3.60632">
        <ele>211.39999389648</ele>
        <time>2022-10-29T10:32:56.000Z</time>
      </trkpt>
      <trkpt lat="47.36369" lon="3.60662">
        <ele>210.19999694824</ele>
        <time>2022-10-29T10:32:58.000Z</time>
      </trkpt>
      <trkpt lat="47.36362" lon="3.60706">
        <ele>209.19999694824</ele>
        <time>2022-10-29T10:33:01.000Z</time>
      </trkpt>
      <trkpt lat="47.36358" lon="3.60736">
        <ele>208.19999694824</ele>
        <time>2022-10-29T10:33:03.000Z</time>
      </trkpt>
      <trkpt lat="47.36352" lon="3.60781">
        <ele>207.19999694824</ele>
        <time>2022-10-29T10:33:06.000Z</time>
      </trkpt>
      <trkpt lat="47.36345" lon="3.60827">
        <ele>205.19999694824</ele>
        <time>2022-10-29T10:33:09.000Z</time>
      </trkpt>
      <trkpt lat="47.36338" lon="3.60873">
        <ele>204</ele>
        <time>2022-10-29T10:33:12.000Z</time>
      </trkpt>
      <trkpt lat="47.36334" lon="3.60904">
        <ele>203.19999694824</ele>
        <time>2022-10-29T10:33:14.000Z</time>
      </trkpt>
      <trkpt lat="47.36331" lon="3.60919">
        <ele>202.80000305176</ele>
        <time>2022-10-29T10:33:15.000Z</time>
      </trkpt>
      <trkpt lat="47.36327" lon="3.6095">
        <ele>201.60000610352</ele>
        <time>2022-10-29T10:33:17.000Z</time>
      </trkpt>
      <trkpt lat="47.36323" lon="3.60981">
        <ele>200.39999389648</ele>
        <time>2022-10-29T10:33:19.000Z</time>
      </trkpt>
      <trkpt lat="47.36318" lon="3.61012">
        <ele>199.19999694824</ele>
        <time>2022-10-29T10:33:21.000Z</time>
      </trkpt>
      <trkpt lat="47.36316" lon="3.61027">
        <ele>199</ele>
        <time>2022-10-29T10:33:22.000Z</time>
      </trkpt>
      <trkpt lat="47.36311" lon="3.61057">
        <ele>198</ele>
        <time>2022-10-29T10:33:24.000Z</time>
      </trkpt>
      <trkpt lat="47.36305" lon="3.61102">
        <ele>196.80000305176</ele>
        <time>2022-10-29T10:33:27.000Z</time>
      </trkpt>
      <trkpt lat="47.36298" lon="3.61146">
        <ele>195.19999694824</ele>
        <time>2022-10-29T10:33:30.000Z</time>
      </trkpt>
      <trkpt lat="47.36296" lon="3.61162">
        <ele>194.80000305176</ele>
        <time>2022-10-29T10:33:31.000Z</time>
      </trkpt>
      <trkpt lat="47.36292" lon="3.61193">
        <ele>193.60000610352</ele>
        <time>2022-10-29T10:33:33.000Z</time>
      </trkpt>
      <trkpt lat="47.36283" lon="3.6125">
        <ele>191.80000305176</ele>
        <time>2022-10-29T10:33:37.000Z</time>
      </trkpt>
      <trkpt lat="47.3628" lon="3.61277">
        <ele>191</ele>
        <time>2022-10-29T10:33:39.000Z</time>
      </trkpt>
      <trkpt lat="47.36278" lon="3.61291">
        <ele>190.39999389648</ele>
        <time>2022-10-29T10:33:40.000Z</time>
      </trkpt>
      <trkpt lat="47.3627" lon="3.6134">
        <ele>189.39999389648</ele>
        <time>2022-10-29T10:33:44.000Z</time>
      </trkpt>
      <trkpt lat="47.36268" lon="3.61353">
        <ele>189.19999694824</ele>
        <time>2022-10-29T10:33:45.000Z</time>
      </trkpt>
      <trkpt lat="47.36253" lon="3.61435">
        <ele>188.60000610352</ele>
        <time>2022-10-29T10:33:52.000Z</time>
      </trkpt>
      <trkpt lat="47.36249" lon="3.61467">
        <ele>188.39999389648</ele>
        <time>2022-10-29T10:33:55.000Z</time>
      </trkpt>
      <trkpt lat="47.36243" lon="3.61508">
        <ele>188</ele>
        <time>2022-10-29T10:33:59.000Z</time>
      </trkpt>
      <trkpt lat="47.36233" lon="3.61591">
        <ele>187.80000305176</ele>
        <time>2022-10-29T10:34:07.000Z</time>
      </trkpt>
      <trkpt lat="47.36222" lon="3.6167">
        <ele>187.60000610352</ele>
        <time>2022-10-29T10:34:15.000Z</time>
      </trkpt>
      <trkpt lat="47.36209" lon="3.6175">
        <ele>187.19999694824</ele>
        <time>2022-10-29T10:34:23.000Z</time>
      </trkpt>
      <trkpt lat="47.36204" lon="3.61781">
        <ele>186.80000305176</ele>
        <time>2022-10-29T10:34:26.000Z</time>
      </trkpt>
      <trkpt lat="47.36198" lon="3.61823">
        <ele>186.19999694824</ele>
        <time>2022-10-29T10:34:30.000Z</time>
      </trkpt>
      <trkpt lat="47.36195" lon="3.61863">
        <ele>185.80000305176</ele>
        <time>2022-10-29T10:34:34.000Z</time>
      </trkpt>
      <trkpt lat="47.36195" lon="3.61872">
        <ele>185.80000305176</ele>
        <time>2022-10-29T10:34:35.000Z</time>
      </trkpt>
      <trkpt lat="47.36196" lon="3.61889">
        <ele>185.80000305176</ele>
        <time>2022-10-29T10:34:37.000Z</time>
      </trkpt>
      <trkpt lat="47.36198" lon="3.61897">
        <ele>185.80000305176</ele>
        <time>2022-10-29T10:34:38.000Z</time>
      </trkpt>
      <trkpt lat="47.36218" lon="3.61954">
        <ele>186.60000610352</ele>
        <time>2022-10-29T10:34:45.000Z</time>
      </trkpt>
      <trkpt lat="47.36236" lon="3.62005">
        <ele>186.19999694824</ele>
        <time>2022-10-29T10:34:50.000Z</time>
      </trkpt>
      <trkpt lat="47.3624" lon="3.62017">
        <ele>185.19999694824</ele>
        <time>2022-10-29T10:34:51.000Z</time>
      </trkpt>
      <trkpt lat="47.36253" lon="3.62052">
        <ele>184</ele>
        <time>2022-10-29T10:34:54.000Z</time>
      </trkpt>
      <trkpt lat="47.36263" lon="3.62083">
        <ele>183.39999389648</ele>
        <time>2022-10-29T10:34:57.000Z</time>
      </trkpt>
      <trkpt lat="47.36281" lon="3.62135">
        <ele>183.19999694824</ele>
        <time>2022-10-29T10:35:03.000Z</time>
      </trkpt>
      <trkpt lat="47.36284" lon="3.62143">
        <ele>183.60000610352</ele>
        <time>2022-10-29T10:35:04.000Z</time>
      </trkpt>
      <trkpt lat="47.36302" lon="3.62194">
        <ele>184.19999694824</ele>
        <time>2022-10-29T10:35:10.000Z</time>
      </trkpt>
      <trkpt lat="47.36323" lon="3.62247">
        <ele>183.19999694824</ele>
        <time>2022-10-29T10:35:16.000Z</time>
      </trkpt>
      <trkpt lat="47.36336" lon="3.62272">
        <ele>182.39999389648</ele>
        <time>2022-10-29T10:35:20.000Z</time>
      </trkpt>
      <trkpt lat="47.36338" lon="3.62276">
        <ele>182</ele>
        <time>2022-10-29T10:35:21.000Z</time>
      </trkpt>
      <trkpt lat="47.36341" lon="3.62284">
        <ele>181.60000610352</ele>
        <time>2022-10-29T10:35:24.000Z</time>
      </trkpt>
      <trkpt lat="47.36341" lon="3.6229">
        <ele>181.39999389648</ele>
        <time>2022-10-29T10:35:27.000Z</time>
      </trkpt>
      <trkpt lat="47.36338" lon="3.62297">
        <ele>181.39999389648</ele>
        <time>2022-10-29T10:35:29.000Z</time>
      </trkpt>
      <trkpt lat="47.36325" lon="3.62319">
        <ele>181.39999389648</ele>
        <time>2022-10-29T10:35:33.000Z</time>
      </trkpt>
      <trkpt lat="47.36293" lon="3.62373">
        <ele>181.80000305176</ele>
        <time>2022-10-29T10:35:41.000Z</time>
      </trkpt>
      <trkpt lat="47.36268" lon="3.62416">
        <ele>181.80000305176</ele>
        <time>2022-10-29T10:35:47.000Z</time>
      </trkpt>
      <trkpt lat="47.36232" lon="3.62479">
        <ele>182</ele>
        <time>2022-10-29T10:35:56.000Z</time>
      </trkpt>
      <trkpt lat="47.36197" lon="3.62542">
        <ele>182.19999694824</ele>
        <time>2022-10-29T10:36:05.000Z</time>
      </trkpt>
      <trkpt lat="47.36194" lon="3.62549">
        <ele>182.19999694824</ele>
        <time>2022-10-29T10:36:06.000Z</time>
      </trkpt>
      <trkpt lat="47.36158" lon="3.62609">
        <ele>182.60000610352</ele>
        <time>2022-10-29T10:36:15.000Z</time>
      </trkpt>
      <trkpt lat="47.36144" lon="3.62629">
        <ele>182.60000610352</ele>
        <time>2022-10-29T10:36:18.000Z</time>
      </trkpt>
      <trkpt lat="47.36131" lon="3.62645">
        <ele>182.80000305176</ele>
        <time>2022-10-29T10:36:21.000Z</time>
      </trkpt>
      <trkpt lat="47.36112" lon="3.62666">
        <ele>182.80000305176</ele>
        <time>2022-10-29T10:36:25.000Z</time>
      </trkpt>
      <trkpt lat="47.36098" lon="3.62681">
        <ele>182.80000305176</ele>
        <time>2022-10-29T10:36:28.000Z</time>
      </trkpt>
      <trkpt lat="47.36088" lon="3.62693">
        <ele>183</ele>
        <time>2022-10-29T10:36:30.000Z</time>
      </trkpt>
      <trkpt lat="47.36073" lon="3.62708">
        <ele>183</ele>
        <time>2022-10-29T10:36:33.000Z</time>
      </trkpt>
      <trkpt lat="47.36055" lon="3.62729">
        <ele>183</ele>
        <time>2022-10-29T10:36:37.000Z</time>
      </trkpt>
      <trkpt lat="47.36038" lon="3.62748">
        <ele>183</ele>
        <time>2022-10-29T10:36:41.000Z</time>
      </trkpt>
      <trkpt lat="47.36033" lon="3.62753">
        <ele>183</ele>
        <time>2022-10-29T10:36:42.000Z</time>
      </trkpt>
      <trkpt lat="47.35995" lon="3.62796">
        <ele>183</ele>
        <time>2022-10-29T10:36:50.000Z</time>
      </trkpt>
      <trkpt lat="47.35991" lon="3.62801">
        <ele>183</ele>
        <time>2022-10-29T10:36:51.000Z</time>
      </trkpt>
      <trkpt lat="47.35948" lon="3.62849">
        <ele>183.39999389648</ele>
        <time>2022-10-29T10:37:00.000Z</time>
      </trkpt>
      <trkpt lat="47.35923" lon="3.62878">
        <ele>183.19999694824</ele>
        <time>2022-10-29T10:37:06.000Z</time>
      </trkpt>
      <trkpt lat="47.35879" lon="3.62928">
        <ele>183.39999389648</ele>
        <time>2022-10-29T10:37:16.000Z</time>
      </trkpt>
      <trkpt lat="47.3584" lon="3.62971">
        <ele>183.60000610352</ele>
        <time>2022-10-29T10:37:25.000Z</time>
      </trkpt>
      <trkpt lat="47.35799" lon="3.63016">
        <ele>184</ele>
        <time>2022-10-29T10:37:35.000Z</time>
      </trkpt>
      <trkpt lat="47.35795" lon="3.63021">
        <ele>184.19999694824</ele>
        <time>2022-10-29T10:37:36.000Z</time>
      </trkpt>
      <trkpt lat="47.35759" lon="3.6306">
        <ele>185.19999694824</ele>
        <time>2022-10-29T10:37:45.000Z</time>
      </trkpt>
      <trkpt lat="47.35751" lon="3.63069">
        <ele>185.39999389648</ele>
        <time>2022-10-29T10:37:47.000Z</time>
      </trkpt>
      <trkpt lat="47.35714" lon="3.63114">
        <ele>186.19999694824</ele>
        <time>2022-10-29T10:37:56.000Z</time>
      </trkpt>
      <trkpt lat="47.35672" lon="3.63162">
        <ele>186.80000305176</ele>
        <time>2022-10-29T10:38:06.000Z</time>
      </trkpt>
      <trkpt lat="47.3564" lon="3.63196">
        <ele>187.19999694824</ele>
        <time>2022-10-29T10:38:14.000Z</time>
      </trkpt>
      <trkpt lat="47.35594" lon="3.6325">
        <ele>187.39999389648</ele>
        <time>2022-10-29T10:38:25.000Z</time>
      </trkpt>
      <trkpt lat="47.35589" lon="3.63255">
        <ele>187.39999389648</ele>
        <time>2022-10-29T10:38:26.000Z</time>
      </trkpt>
      <trkpt lat="47.3555" lon="3.63301">
        <ele>187.39999389648</ele>
        <time>2022-10-29T10:38:35.000Z</time>
      </trkpt>
      <trkpt lat="47.3551" lon="3.63346">
        <ele>187.60000610352</ele>
        <time>2022-10-29T10:38:44.000Z</time>
      </trkpt>
      <trkpt lat="47.35475" lon="3.63386">
        <ele>187.39999389648</ele>
        <time>2022-10-29T10:38:52.000Z</time>
      </trkpt>
      <trkpt lat="47.35445" lon="3.63419">
        <ele>187.60000610352</ele>
        <time>2022-10-29T10:38:59.000Z</time>
      </trkpt>
      <trkpt lat="47.35437" lon="3.63428">
        <ele>187.60000610352</ele>
        <time>2022-10-29T10:39:01.000Z</time>
      </trkpt>
      <trkpt lat="47.35409" lon="3.63458">
        <ele>188.19999694824</ele>
        <time>2022-10-29T10:39:08.000Z</time>
      </trkpt>
      <trkpt lat="47.35401" lon="3.63468">
        <ele>188.39999389648</ele>
        <time>2022-10-29T10:39:10.000Z</time>
      </trkpt>
      <trkpt lat="47.35375" lon="3.63496">
        <ele>189</ele>
        <time>2022-10-29T10:39:16.000Z</time>
      </trkpt>
      <trkpt lat="47.3535" lon="3.63526">
        <ele>189.60000610352</ele>
        <time>2022-10-29T10:39:22.000Z</time>
      </trkpt>
      <trkpt lat="47.3533" lon="3.63549">
        <ele>190.19999694824</ele>
        <time>2022-10-29T10:39:27.000Z</time>
      </trkpt>
      <trkpt lat="47.35321" lon="3.63558">
        <ele>190.60000610352</ele>
        <time>2022-10-29T10:39:29.000Z</time>
      </trkpt>
      <trkpt lat="47.35293" lon="3.63591">
        <ele>191</ele>
        <time>2022-10-29T10:39:36.000Z</time>
      </trkpt>
      <trkpt lat="47.35265" lon="3.63622">
        <ele>191.60000610352</ele>
        <time>2022-10-29T10:39:43.000Z</time>
      </trkpt>
      <trkpt lat="47.35261" lon="3.63626">
        <ele>191.60000610352</ele>
        <time>2022-10-29T10:39:44.000Z</time>
      </trkpt>
      <trkpt lat="47.3522" lon="3.63672">
        <ele>192.19999694824</ele>
        <time>2022-10-29T10:39:54.000Z</time>
      </trkpt>
      <trkpt lat="47.35182" lon="3.63715">
        <ele>192.60000610352</ele>
        <time>2022-10-29T10:40:03.000Z</time>
      </trkpt>
      <trkpt lat="47.35174" lon="3.63724">
        <ele>192.60000610352</ele>
        <time>2022-10-29T10:40:05.000Z</time>
      </trkpt>
      <trkpt lat="47.35151" lon="3.63748">
        <ele>192.80000305176</ele>
        <time>2022-10-29T10:40:11.000Z</time>
      </trkpt>
      <trkpt lat="47.3511" lon="3.63795">
        <ele>193.19999694824</ele>
        <time>2022-10-29T10:40:21.000Z</time>
      </trkpt>
      <trkpt lat="47.35078" lon="3.63831">
        <ele>193.19999694824</ele>
        <time>2022-10-29T10:40:28.000Z</time>
      </trkpt>
      <trkpt lat="47.35032" lon="3.63883">
        <ele>193.19999694824</ele>
        <time>2022-10-29T10:40:38.000Z</time>
      </trkpt>
      <trkpt lat="47.34989" lon="3.63931">
        <ele>193.19999694824</ele>
        <time>2022-10-29T10:40:47.000Z</time>
      </trkpt>
      <trkpt lat="47.34941" lon="3.63985">
        <ele>193</ele>
        <time>2022-10-29T10:40:57.000Z</time>
      </trkpt>
      <trkpt lat="47.34898" lon="3.64033">
        <ele>193</ele>
        <time>2022-10-29T10:41:06.000Z</time>
      </trkpt>
      <trkpt lat="47.34887" lon="3.64046">
        <ele>193</ele>
        <time>2022-10-29T10:41:08.000Z</time>
      </trkpt>
      <trkpt lat="47.34844" lon="3.64096">
        <ele>193</ele>
        <time>2022-10-29T10:41:17.000Z</time>
      </trkpt>
      <trkpt lat="47.34839" lon="3.64102">
        <ele>192.80000305176</ele>
        <time>2022-10-29T10:41:18.000Z</time>
      </trkpt>
      <trkpt lat="47.34794" lon="3.64152">
        <ele>192.60000610352</ele>
        <time>2022-10-29T10:41:27.000Z</time>
      </trkpt>
      <trkpt lat="47.34761" lon="3.64189">
        <ele>192.60000610352</ele>
        <time>2022-10-29T10:41:34.000Z</time>
      </trkpt>
      <trkpt lat="47.34727" lon="3.64228">
        <ele>192.60000610352</ele>
        <time>2022-10-29T10:41:41.000Z</time>
      </trkpt>
      <trkpt lat="47.34681" lon="3.64282">
        <ele>192.19999694824</ele>
        <time>2022-10-29T10:41:50.000Z</time>
      </trkpt>
      <trkpt lat="47.34636" lon="3.64331">
        <ele>192</ele>
        <time>2022-10-29T10:41:58.000Z</time>
      </trkpt>
      <trkpt lat="47.3462" lon="3.64349">
        <ele>191.60000610352</ele>
        <time>2022-10-29T10:42:01.000Z</time>
      </trkpt>
      <trkpt lat="47.34584" lon="3.64391">
        <ele>190.39999389648</ele>
        <time>2022-10-29T10:42:07.000Z</time>
      </trkpt>
      <trkpt lat="47.34571" lon="3.64405">
        <ele>190</ele>
        <time>2022-10-29T10:42:09.000Z</time>
      </trkpt>
      <trkpt lat="47.34542" lon="3.64441">
        <ele>189.19999694824</ele>
        <time>2022-10-29T10:42:14.000Z</time>
      </trkpt>
      <trkpt lat="47.34525" lon="3.64466">
        <ele>189.19999694824</ele>
        <time>2022-10-29T10:42:17.000Z</time>
      </trkpt>
      <trkpt lat="47.34503" lon="3.64505">
        <ele>189.19999694824</ele>
        <time>2022-10-29T10:42:22.000Z</time>
      </trkpt>
      <trkpt lat="47.3447" lon="3.64567">
        <ele>189</ele>
        <time>2022-10-29T10:42:30.000Z</time>
      </trkpt>
      <trkpt lat="47.34432" lon="3.64634">
        <ele>189</ele>
        <time>2022-10-29T10:42:39.000Z</time>
      </trkpt>
      <trkpt lat="47.34394" lon="3.647">
        <ele>189</ele>
        <time>2022-10-29T10:42:48.000Z</time>
      </trkpt>
      <trkpt lat="47.34386" lon="3.64716">
        <ele>189</ele>
        <time>2022-10-29T10:42:50.000Z</time>
      </trkpt>
      <trkpt lat="47.34348" lon="3.64782">
        <ele>188.80000305176</ele>
        <time>2022-10-29T10:42:59.000Z</time>
      </trkpt>
      <trkpt lat="47.34345" lon="3.64788">
        <ele>188.80000305176</ele>
        <time>2022-10-29T10:43:00.000Z</time>
      </trkpt>
      <trkpt lat="47.3431" lon="3.64847">
        <ele>188.80000305176</ele>
        <time>2022-10-29T10:43:08.000Z</time>
      </trkpt>
      <trkpt lat="47.34277" lon="3.64906">
        <ele>188.80000305176</ele>
        <time>2022-10-29T10:43:16.000Z</time>
      </trkpt>
      <trkpt lat="47.3424" lon="3.6497">
        <ele>189</ele>
        <time>2022-10-29T10:43:25.000Z</time>
      </trkpt>
      <trkpt lat="47.34232" lon="3.64985">
        <ele>189</ele>
        <time>2022-10-29T10:43:27.000Z</time>
      </trkpt>
      <trkpt lat="47.34202" lon="3.65035">
        <ele>189.39999389648</ele>
        <time>2022-10-29T10:43:34.000Z</time>
      </trkpt>
      <trkpt lat="47.34164" lon="3.651">
        <ele>190</ele>
        <time>2022-10-29T10:43:43.000Z</time>
      </trkpt>
      <trkpt lat="47.34159" lon="3.65109">
        <ele>190</ele>
        <time>2022-10-29T10:43:44.000Z</time>
      </trkpt>
      <trkpt lat="47.34121" lon="3.65178">
        <ele>190.39999389648</ele>
        <time>2022-10-29T10:43:53.000Z</time>
      </trkpt>
      <trkpt lat="47.34109" lon="3.65199">
        <ele>190.39999389648</ele>
        <time>2022-10-29T10:43:56.000Z</time>
      </trkpt>
      <trkpt lat="47.34073" lon="3.6526">
        <ele>190.60000610352</ele>
        <time>2022-10-29T10:44:04.000Z</time>
      </trkpt>
      <trkpt lat="47.34048" lon="3.65304">
        <ele>190.60000610352</ele>
        <time>2022-10-29T10:44:10.000Z</time>
      </trkpt>
      <trkpt lat="47.34016" lon="3.6537">
        <ele>190.60000610352</ele>
        <time>2022-10-29T10:44:18.000Z</time>
      </trkpt>
      <trkpt lat="47.33989" lon="3.65436">
        <ele>190.39999389648</ele>
        <time>2022-10-29T10:44:26.000Z</time>
      </trkpt>
      <trkpt lat="47.33962" lon="3.65503">
        <ele>190</ele>
        <time>2022-10-29T10:44:34.000Z</time>
      </trkpt>
      <trkpt lat="47.33934" lon="3.65576">
        <ele>189.80000305176</ele>
        <time>2022-10-29T10:44:43.000Z</time>
      </trkpt>
      <trkpt lat="47.3393" lon="3.65586">
        <ele>189.80000305176</ele>
        <time>2022-10-29T10:44:44.000Z</time>
      </trkpt>
      <trkpt lat="47.33902" lon="3.65658">
        <ele>190.39999389648</ele>
        <time>2022-10-29T10:44:53.000Z</time>
      </trkpt>
      <trkpt lat="47.33895" lon="3.65675">
        <ele>190.39999389648</ele>
        <time>2022-10-29T10:44:55.000Z</time>
      </trkpt>
      <trkpt lat="47.33868" lon="3.65748">
        <ele>190.39999389648</ele>
        <time>2022-10-29T10:45:04.000Z</time>
      </trkpt>
      <trkpt lat="47.33841" lon="3.65806">
        <ele>190.60000610352</ele>
        <time>2022-10-29T10:45:12.000Z</time>
      </trkpt>
      <trkpt lat="47.33816" lon="3.65848">
        <ele>191</ele>
        <time>2022-10-29T10:45:18.000Z</time>
      </trkpt>
      <trkpt lat="47.33807" lon="3.65859">
        <ele>191.19999694824</ele>
        <time>2022-10-29T10:45:20.000Z</time>
      </trkpt>
      <trkpt lat="47.33797" lon="3.6587">
        <ele>191.39999389648</ele>
        <time>2022-10-29T10:45:22.000Z</time>
      </trkpt>
      <trkpt lat="47.33783" lon="3.65885">
        <ele>191.60000610352</ele>
        <time>2022-10-29T10:45:25.000Z</time>
      </trkpt>
      <trkpt lat="47.33768" lon="3.65898">
        <ele>191.60000610352</ele>
        <time>2022-10-29T10:45:28.000Z</time>
      </trkpt>
      <trkpt lat="47.33728" lon="3.65925">
        <ele>192.39999389648</ele>
        <time>2022-10-29T10:45:36.000Z</time>
      </trkpt>
      <trkpt lat="47.33723" lon="3.65927">
        <ele>192.60000610352</ele>
        <time>2022-10-29T10:45:37.000Z</time>
      </trkpt>
      <trkpt lat="47.33691" lon="3.65949">
        <ele>193.60000610352</ele>
        <time>2022-10-29T10:45:44.000Z</time>
      </trkpt>
      <trkpt lat="47.33682" lon="3.65955">
        <ele>193.80000305176</ele>
        <time>2022-10-29T10:45:46.000Z</time>
      </trkpt>
      <trkpt lat="47.33636" lon="3.65986">
        <ele>194.60000610352</ele>
        <time>2022-10-29T10:45:56.000Z</time>
      </trkpt>
      <trkpt lat="47.33594" lon="3.66014">
        <ele>195</ele>
        <time>2022-10-29T10:46:05.000Z</time>
      </trkpt>
      <trkpt lat="47.33572" lon="3.66028">
        <ele>195.80000305176</ele>
        <time>2022-10-29T10:46:10.000Z</time>
      </trkpt>
      <trkpt lat="47.3353" lon="3.66056">
        <ele>196.60000610352</ele>
        <time>2022-10-29T10:46:19.000Z</time>
      </trkpt>
      <trkpt lat="47.33515" lon="3.66066">
        <ele>196.80000305176</ele>
        <time>2022-10-29T10:46:22.000Z</time>
      </trkpt>
      <trkpt lat="47.33464" lon="3.66099">
        <ele>197.60000610352</ele>
        <time>2022-10-29T10:46:33.000Z</time>
      </trkpt>
      <trkpt lat="47.33427" lon="3.66123">
        <ele>197.80000305176</ele>
        <time>2022-10-29T10:46:40.000Z</time>
      </trkpt>
      <trkpt lat="47.33387" lon="3.6615">
        <ele>197.39999389648</ele>
        <time>2022-10-29T10:46:47.000Z</time>
      </trkpt>
      <trkpt lat="47.33336" lon="3.66184">
        <ele>197.19999694824</ele>
        <time>2022-10-29T10:46:55.000Z</time>
      </trkpt>
      <trkpt lat="47.33305" lon="3.66205">
        <ele>197.19999694824</ele>
        <time>2022-10-29T10:47:01.000Z</time>
      </trkpt>
      <trkpt lat="47.33282" lon="3.6622">
        <ele>198</ele>
        <time>2022-10-29T10:47:06.000Z</time>
      </trkpt>
      <trkpt lat="47.33273" lon="3.66226">
        <ele>198.39999389648</ele>
        <time>2022-10-29T10:47:08.000Z</time>
      </trkpt>
      <trkpt lat="47.33261" lon="3.66235">
        <ele>199</ele>
        <time>2022-10-29T10:47:11.000Z</time>
      </trkpt>
      <trkpt lat="47.33252" lon="3.6624">
        <ele>199.19999694824</ele>
        <time>2022-10-29T10:47:13.000Z</time>
      </trkpt>
      <trkpt lat="47.33248" lon="3.66242">
        <ele>199.39999389648</ele>
        <time>2022-10-29T10:47:14.000Z</time>
      </trkpt>
      <trkpt lat="47.33234" lon="3.66251">
        <ele>200</ele>
        <time>2022-10-29T10:47:17.000Z</time>
      </trkpt>
      <trkpt lat="47.33211" lon="3.66265">
        <ele>201.19999694824</ele>
        <time>2022-10-29T10:47:23.000Z</time>
      </trkpt>
      <trkpt lat="47.33203" lon="3.66271">
        <ele>201.60000610352</ele>
        <time>2022-10-29T10:47:25.000Z</time>
      </trkpt>
      <trkpt lat="47.33189" lon="3.66278">
        <ele>202.19999694824</ele>
        <time>2022-10-29T10:47:28.000Z</time>
      </trkpt>
      <trkpt lat="47.33162" lon="3.66296">
        <ele>203</ele>
        <time>2022-10-29T10:47:34.000Z</time>
      </trkpt>
      <trkpt lat="47.33122" lon="3.66323">
        <ele>203</ele>
        <time>2022-10-29T10:47:41.000Z</time>
      </trkpt>
      <trkpt lat="47.3309" lon="3.66345">
        <ele>202.19999694824</ele>
        <time>2022-10-29T10:47:46.000Z</time>
      </trkpt>
      <trkpt lat="47.33058" lon="3.66366">
        <ele>201.19999694824</ele>
        <time>2022-10-29T10:47:51.000Z</time>
      </trkpt>
      <trkpt lat="47.33036" lon="3.6638">
        <ele>200.60000610352</ele>
        <time>2022-10-29T10:47:54.000Z</time>
      </trkpt>
      <trkpt lat="47.33022" lon="3.66389">
        <ele>200.19999694824</ele>
        <time>2022-10-29T10:47:56.000Z</time>
      </trkpt>
      <trkpt lat="47.32976" lon="3.6642">
        <ele>199</ele>
        <time>2022-10-29T10:48:03.000Z</time>
      </trkpt>
      <trkpt lat="47.3297" lon="3.66424">
        <ele>199</ele>
        <time>2022-10-29T10:48:04.000Z</time>
      </trkpt>
      <trkpt lat="47.32916" lon="3.6646">
        <ele>198.80000305176</ele>
        <time>2022-10-29T10:48:13.000Z</time>
      </trkpt>
      <trkpt lat="47.32867" lon="3.66493">
        <ele>198.60000610352</ele>
        <time>2022-10-29T10:48:21.000Z</time>
      </trkpt>
      <trkpt lat="47.32816" lon="3.66527">
        <ele>198.19999694824</ele>
        <time>2022-10-29T10:48:29.000Z</time>
      </trkpt>
      <trkpt lat="47.32809" lon="3.66531">
        <ele>198</ele>
        <time>2022-10-29T10:48:30.000Z</time>
      </trkpt>
      <trkpt lat="47.32801" lon="3.66536">
        <ele>198</ele>
        <time>2022-10-29T10:48:31.000Z</time>
      </trkpt>
      <trkpt lat="47.32749" lon="3.66572">
        <ele>197</ele>
        <time>2022-10-29T10:48:39.000Z</time>
      </trkpt>
      <trkpt lat="47.32741" lon="3.66577">
        <ele>197</ele>
        <time>2022-10-29T10:48:40.000Z</time>
      </trkpt>
      <trkpt lat="47.32735" lon="3.66582">
        <ele>197</ele>
        <time>2022-10-29T10:48:41.000Z</time>
      </trkpt>
      <trkpt lat="47.32699" lon="3.66606">
        <ele>196.80000305176</ele>
        <time>2022-10-29T10:48:47.000Z</time>
      </trkpt>
      <trkpt lat="47.3265" lon="3.66637">
        <ele>196.80000305176</ele>
        <time>2022-10-29T10:48:55.000Z</time>
      </trkpt>
      <trkpt lat="47.32599" lon="3.66671">
        <ele>197.39999389648</ele>
        <time>2022-10-29T10:49:04.000Z</time>
      </trkpt>
      <trkpt lat="47.32588" lon="3.66679">
        <ele>197.80000305176</ele>
        <time>2022-10-29T10:49:06.000Z</time>
      </trkpt>
      <trkpt lat="47.32577" lon="3.66687">
        <ele>198</ele>
        <time>2022-10-29T10:49:08.000Z</time>
      </trkpt>
      <trkpt lat="47.32543" lon="3.6671">
        <ele>198.80000305176</ele>
        <time>2022-10-29T10:49:14.000Z</time>
      </trkpt>
      <trkpt lat="47.32533" lon="3.66717">
        <ele>199</ele>
        <time>2022-10-29T10:49:16.000Z</time>
      </trkpt>
      <trkpt lat="47.32497" lon="3.66736">
        <ele>200.19999694824</ele>
        <time>2022-10-29T10:49:22.000Z</time>
      </trkpt>
      <trkpt lat="47.32448" lon="3.66745">
        <ele>201.39999389648</ele>
        <time>2022-10-29T10:49:30.000Z</time>
      </trkpt>
      <trkpt lat="47.32416" lon="3.66748">
        <ele>201.80000305176</ele>
        <time>2022-10-29T10:49:36.000Z</time>
      </trkpt>
      <trkpt lat="47.32395" lon="3.66749">
        <ele>202.39999389648</ele>
        <time>2022-10-29T10:49:40.000Z</time>
      </trkpt>
      <trkpt lat="47.32368" lon="3.66751">
        <ele>202.80000305176</ele>
        <time>2022-10-29T10:49:45.000Z</time>
      </trkpt>
      <trkpt lat="47.3231" lon="3.66755">
        <ele>203</ele>
        <time>2022-10-29T10:49:55.000Z</time>
      </trkpt>
      <trkpt lat="47.32261" lon="3.66756">
        <ele>202.80000305176</ele>
        <time>2022-10-29T10:50:03.000Z</time>
      </trkpt>
      <trkpt lat="47.32226" lon="3.66759">
        <ele>202.39999389648</ele>
        <time>2022-10-29T10:50:08.000Z</time>
      </trkpt>
      <trkpt lat="47.32179" lon="3.66763">
        <ele>202.39999389648</ele>
        <time>2022-10-29T10:50:16.000Z</time>
      </trkpt>
      <trkpt lat="47.32145" lon="3.66768">
        <ele>203.39999389648</ele>
        <time>2022-10-29T10:50:22.000Z</time>
      </trkpt>
      <trkpt lat="47.3214" lon="3.66768">
        <ele>203.60000610352</ele>
        <time>2022-10-29T10:50:23.000Z</time>
      </trkpt>
      <trkpt lat="47.32129" lon="3.66768">
        <ele>204</ele>
        <time>2022-10-29T10:50:25.000Z</time>
      </trkpt>
      <trkpt lat="47.32113" lon="3.6677">
        <ele>204.39999389648</ele>
        <time>2022-10-29T10:50:28.000Z</time>
      </trkpt>
      <trkpt lat="47.32108" lon="3.6677">
        <ele>204.80000305176</ele>
        <time>2022-10-29T10:50:29.000Z</time>
      </trkpt>
      <trkpt lat="47.32063" lon="3.66774">
        <ele>205.60000610352</ele>
        <time>2022-10-29T10:50:37.000Z</time>
      </trkpt>
      <trkpt lat="47.32053" lon="3.66774">
        <ele>205.60000610352</ele>
        <time>2022-10-29T10:50:39.000Z</time>
      </trkpt>
      <trkpt lat="47.31995" lon="3.6678">
        <ele>205.39999389648</ele>
        <time>2022-10-29T10:50:48.000Z</time>
      </trkpt>
      <trkpt lat="47.3195" lon="3.66784">
        <ele>204.39999389648</ele>
        <time>2022-10-29T10:50:55.000Z</time>
      </trkpt>
      <trkpt lat="47.31927" lon="3.66786">
        <ele>204</ele>
        <time>2022-10-29T10:50:58.000Z</time>
      </trkpt>
      <trkpt lat="47.31892" lon="3.66789">
        <ele>203.19999694824</ele>
        <time>2022-10-29T10:51:03.000Z</time>
      </trkpt>
      <trkpt lat="47.31851" lon="3.66792">
        <ele>202.39999389648</ele>
        <time>2022-10-29T10:51:09.000Z</time>
      </trkpt>
      <trkpt lat="47.31836" lon="3.66794">
        <ele>202.19999694824</ele>
        <time>2022-10-29T10:51:11.000Z</time>
      </trkpt>
      <trkpt lat="47.31795" lon="3.66797">
        <ele>201.39999389648</ele>
        <time>2022-10-29T10:51:16.000Z</time>
      </trkpt>
      <trkpt lat="47.31787" lon="3.66798">
        <ele>201</ele>
        <time>2022-10-29T10:51:17.000Z</time>
      </trkpt>
      <trkpt lat="47.31751" lon="3.66801">
        <ele>199.60000610352</ele>
        <time>2022-10-29T10:51:21.000Z</time>
      </trkpt>
      <trkpt lat="47.31741" lon="3.66802">
        <ele>198.80000305176</ele>
        <time>2022-10-29T10:51:22.000Z</time>
      </trkpt>
      <trkpt lat="47.31732" lon="3.66803">
        <ele>198.39999389648</ele>
        <time>2022-10-29T10:51:23.000Z</time>
      </trkpt>
      <trkpt lat="47.31702" lon="3.66805">
        <ele>197</ele>
        <time>2022-10-29T10:51:26.000Z</time>
      </trkpt>
      <trkpt lat="47.31672" lon="3.66808">
        <ele>195.39999389648</ele>
        <time>2022-10-29T10:51:29.000Z</time>
      </trkpt>
      <trkpt lat="47.31664" lon="3.66809">
        <ele>195.19999694824</ele>
        <time>2022-10-29T10:51:30.000Z</time>
      </trkpt>
      <trkpt lat="47.31645" lon="3.66811">
        <ele>194.19999694824</ele>
        <time>2022-10-29T10:51:32.000Z</time>
      </trkpt>
      <trkpt lat="47.3161" lon="3.66813">
        <ele>193.19999694824</ele>
        <time>2022-10-29T10:51:36.000Z</time>
      </trkpt>
      <trkpt lat="47.31555" lon="3.66819">
        <ele>193</ele>
        <time>2022-10-29T10:51:43.000Z</time>
      </trkpt>
      <trkpt lat="47.3152" lon="3.6682">
        <ele>193.80000305176</ele>
        <time>2022-10-29T10:51:48.000Z</time>
      </trkpt>
      <trkpt lat="47.31501" lon="3.66823">
        <ele>194.19999694824</ele>
        <time>2022-10-29T10:51:51.000Z</time>
      </trkpt>
      <trkpt lat="47.31483" lon="3.66824">
        <ele>195.19999694824</ele>
        <time>2022-10-29T10:51:54.000Z</time>
      </trkpt>
      <trkpt lat="47.31466" lon="3.66825">
        <ele>196.39999389648</ele>
        <time>2022-10-29T10:51:57.000Z</time>
      </trkpt>
      <trkpt lat="47.31449" lon="3.66826">
        <ele>197.39999389648</ele>
        <time>2022-10-29T10:52:00.000Z</time>
      </trkpt>
      <trkpt lat="47.31444" lon="3.66826">
        <ele>197.60000610352</ele>
        <time>2022-10-29T10:52:01.000Z</time>
      </trkpt>
      <trkpt lat="47.31428" lon="3.66828">
        <ele>198.60000610352</ele>
        <time>2022-10-29T10:52:04.000Z</time>
      </trkpt>
      <trkpt lat="47.31413" lon="3.66829">
        <ele>199.60000610352</ele>
        <time>2022-10-29T10:52:07.000Z</time>
      </trkpt>
      <trkpt lat="47.31403" lon="3.66831">
        <ele>200.19999694824</ele>
        <time>2022-10-29T10:52:09.000Z</time>
      </trkpt>
      <trkpt lat="47.31382" lon="3.66831">
        <ele>200.80000305176</ele>
        <time>2022-10-29T10:52:13.000Z</time>
      </trkpt>
      <trkpt lat="47.31348" lon="3.66833">
        <ele>201.19999694824</ele>
        <time>2022-10-29T10:52:19.000Z</time>
      </trkpt>
      <trkpt lat="47.31305" lon="3.66836">
        <ele>201.39999389648</ele>
        <time>2022-10-29T10:52:26.000Z</time>
      </trkpt>
      <trkpt lat="47.31253" lon="3.6684">
        <ele>201.19999694824</ele>
        <time>2022-10-29T10:52:34.000Z</time>
      </trkpt>
      <trkpt lat="47.31193" lon="3.66846">
        <ele>201</ele>
        <time>2022-10-29T10:52:43.000Z</time>
      </trkpt>
      <trkpt lat="47.31181" lon="3.66847">
        <ele>201</ele>
        <time>2022-10-29T10:52:45.000Z</time>
      </trkpt>
      <trkpt lat="47.31126" lon="3.66852">
        <ele>201.60000610352</ele>
        <time>2022-10-29T10:52:54.000Z</time>
      </trkpt>
      <trkpt lat="47.31115" lon="3.66853">
        <ele>201.80000305176</ele>
        <time>2022-10-29T10:52:56.000Z</time>
      </trkpt>
      <trkpt lat="47.31077" lon="3.66856">
        <ele>202.39999389648</ele>
        <time>2022-10-29T10:53:03.000Z</time>
      </trkpt>
      <trkpt lat="47.31048" lon="3.66859">
        <ele>202.60000610352</ele>
        <time>2022-10-29T10:53:09.000Z</time>
      </trkpt>
      <trkpt lat="47.3102" lon="3.6686">
        <ele>202.80000305176</ele>
        <time>2022-10-29T10:53:14.000Z</time>
      </trkpt>
      <trkpt lat="47.31008" lon="3.66862">
        <ele>203</ele>
        <time>2022-10-29T10:53:16.000Z</time>
      </trkpt>
      <trkpt lat="47.30954" lon="3.66864">
        <ele>203</ele>
        <time>2022-10-29T10:53:25.000Z</time>
      </trkpt>
      <trkpt lat="47.30896" lon="3.66869">
        <ele>202.39999389648</ele>
        <time>2022-10-29T10:53:34.000Z</time>
      </trkpt>
      <trkpt lat="47.3089" lon="3.66869">
        <ele>202.39999389648</ele>
        <time>2022-10-29T10:53:35.000Z</time>
      </trkpt>
      <trkpt lat="47.3083" lon="3.66872">
        <ele>202</ele>
        <time>2022-10-29T10:53:44.000Z</time>
      </trkpt>
      <trkpt lat="47.30778" lon="3.66876">
        <ele>201.80000305176</ele>
        <time>2022-10-29T10:53:52.000Z</time>
      </trkpt>
      <trkpt lat="47.30759" lon="3.66878">
        <ele>201.80000305176</ele>
        <time>2022-10-29T10:53:55.000Z</time>
      </trkpt>
      <trkpt lat="47.30714" lon="3.66881">
        <ele>201.39999389648</ele>
        <time>2022-10-29T10:54:02.000Z</time>
      </trkpt>
      <trkpt lat="47.30663" lon="3.66885">
        <ele>200.80000305176</ele>
        <time>2022-10-29T10:54:10.000Z</time>
      </trkpt>
      <trkpt lat="47.30657" lon="3.66885">
        <ele>200.80000305176</ele>
        <time>2022-10-29T10:54:11.000Z</time>
      </trkpt>
      <trkpt lat="47.306" lon="3.6689">
        <ele>200.60000610352</ele>
        <time>2022-10-29T10:54:20.000Z</time>
      </trkpt>
      <trkpt lat="47.30579" lon="3.66892">
        <ele>200.39999389648</ele>
        <time>2022-10-29T10:54:23.000Z</time>
      </trkpt>
      <trkpt lat="47.30519" lon="3.66897">
        <ele>200.19999694824</ele>
        <time>2022-10-29T10:54:32.000Z</time>
      </trkpt>
      <trkpt lat="47.30506" lon="3.66898">
        <ele>200</ele>
        <time>2022-10-29T10:54:34.000Z</time>
      </trkpt>
      <trkpt lat="47.30479" lon="3.66901">
        <ele>199.80000305176</ele>
        <time>2022-10-29T10:54:38.000Z</time>
      </trkpt>
      <trkpt lat="47.30443" lon="3.66906">
        <ele>199.39999389648</ele>
        <time>2022-10-29T10:54:43.000Z</time>
      </trkpt>
      <trkpt lat="47.30402" lon="3.6691">
        <ele>198.39999389648</ele>
        <time>2022-10-29T10:54:48.000Z</time>
      </trkpt>
      <trkpt lat="47.30369" lon="3.66915">
        <ele>197.19999694824</ele>
        <time>2022-10-29T10:54:52.000Z</time>
      </trkpt>
      <trkpt lat="47.30336" lon="3.66918">
        <ele>196.19999694824</ele>
        <time>2022-10-29T10:54:56.000Z</time>
      </trkpt>
      <trkpt lat="47.30328" lon="3.66919">
        <ele>196</ele>
        <time>2022-10-29T10:54:57.000Z</time>
      </trkpt>
      <trkpt lat="47.30273" lon="3.66926">
        <ele>195.19999694824</ele>
        <time>2022-10-29T10:55:04.000Z</time>
      </trkpt>
      <trkpt lat="47.30251" lon="3.66928">
        <ele>195.19999694824</ele>
        <time>2022-10-29T10:55:07.000Z</time>
      </trkpt>
      <trkpt lat="47.30194" lon="3.66935">
        <ele>195.19999694824</ele>
        <time>2022-10-29T10:55:15.000Z</time>
      </trkpt>
      <trkpt lat="47.30179" lon="3.66936">
        <ele>195</ele>
        <time>2022-10-29T10:55:17.000Z</time>
      </trkpt>
      <trkpt lat="47.30172" lon="3.66937">
        <ele>195</ele>
        <time>2022-10-29T10:55:18.000Z</time>
      </trkpt>
      <trkpt lat="47.30114" lon="3.66944">
        <ele>194.19999694824</ele>
        <time>2022-10-29T10:55:26.000Z</time>
      </trkpt>
      <trkpt lat="47.301" lon="3.66945">
        <ele>194.19999694824</ele>
        <time>2022-10-29T10:55:28.000Z</time>
      </trkpt>
      <trkpt lat="47.30043" lon="3.66952">
        <ele>194.19999694824</ele>
        <time>2022-10-29T10:55:36.000Z</time>
      </trkpt>
      <trkpt lat="47.30028" lon="3.66954">
        <ele>194.19999694824</ele>
        <time>2022-10-29T10:55:38.000Z</time>
      </trkpt>
      <trkpt lat="47.29978" lon="3.6696">
        <ele>194.80000305176</ele>
        <time>2022-10-29T10:55:45.000Z</time>
      </trkpt>
      <trkpt lat="47.29921" lon="3.66965">
        <ele>195.39999389648</ele>
        <time>2022-10-29T10:55:53.000Z</time>
      </trkpt>
      <trkpt lat="47.29907" lon="3.66967">
        <ele>195.60000610352</ele>
        <time>2022-10-29T10:55:55.000Z</time>
      </trkpt>
      <trkpt lat="47.29852" lon="3.66973">
        <ele>195.80000305176</ele>
        <time>2022-10-29T10:56:03.000Z</time>
      </trkpt>
      <trkpt lat="47.29832" lon="3.66976">
        <ele>196</ele>
        <time>2022-10-29T10:56:06.000Z</time>
      </trkpt>
      <trkpt lat="47.29771" lon="3.66984">
        <ele>196.19999694824</ele>
        <time>2022-10-29T10:56:15.000Z</time>
      </trkpt>
      <trkpt lat="47.29712" lon="3.6699">
        <ele>196.60000610352</ele>
        <time>2022-10-29T10:56:24.000Z</time>
      </trkpt>
      <trkpt lat="47.29692" lon="3.66993">
        <ele>196.80000305176</ele>
        <time>2022-10-29T10:56:27.000Z</time>
      </trkpt>
      <trkpt lat="47.29645" lon="3.66998">
        <ele>197</ele>
        <time>2022-10-29T10:56:34.000Z</time>
      </trkpt>
      <trkpt lat="47.29627" lon="3.67">
        <ele>197.19999694824</ele>
        <time>2022-10-29T10:56:37.000Z</time>
      </trkpt>
      <trkpt lat="47.2957" lon="3.67001">
        <ele>197.60000610352</ele>
        <time>2022-10-29T10:56:46.000Z</time>
      </trkpt>
      <trkpt lat="47.29545" lon="3.67">
        <ele>198.19999694824</ele>
        <time>2022-10-29T10:56:50.000Z</time>
      </trkpt>
      <trkpt lat="47.29502" lon="3.66998">
        <ele>199</ele>
        <time>2022-10-29T10:56:57.000Z</time>
      </trkpt>
      <trkpt lat="47.29485" lon="3.66996">
        <ele>199.19999694824</ele>
        <time>2022-10-29T10:57:00.000Z</time>
      </trkpt>
      <trkpt lat="47.2944" lon="3.66992">
        <ele>199.80000305176</ele>
        <time>2022-10-29T10:57:08.000Z</time>
      </trkpt>
      <trkpt lat="47.29423" lon="3.6699">
        <ele>200.19999694824</ele>
        <time>2022-10-29T10:57:11.000Z</time>
      </trkpt>
      <trkpt lat="47.29365" lon="3.66982">
        <ele>200.80000305176</ele>
        <time>2022-10-29T10:57:21.000Z</time>
      </trkpt>
      <trkpt lat="47.29338" lon="3.66979">
        <ele>201.19999694824</ele>
        <time>2022-10-29T10:57:26.000Z</time>
      </trkpt>
      <trkpt lat="47.29312" lon="3.66978">
        <ele>201.39999389648</ele>
        <time>2022-10-29T10:57:31.000Z</time>
      </trkpt>
      <trkpt lat="47.29281" lon="3.66981">
        <ele>202</ele>
        <time>2022-10-29T10:57:38.000Z</time>
      </trkpt>
      <trkpt lat="47.29276" lon="3.66982">
        <ele>202.19999694824</ele>
        <time>2022-10-29T10:57:40.000Z</time>
      </trkpt>
      <trkpt lat="47.29243" lon="3.66991">
        <ele>203.39999389648</ele>
        <time>2022-10-29T10:57:47.000Z</time>
      </trkpt>
      <trkpt lat="47.29236" lon="3.66993">
        <ele>203.80000305176</ele>
        <time>2022-10-29T10:57:49.000Z</time>
      </trkpt>
      <trkpt lat="47.29217" lon="3.67">
        <ele>204.60000610352</ele>
        <time>2022-10-29T10:57:54.000Z</time>
      </trkpt>
      <trkpt lat="47.29209" lon="3.67004">
        <ele>205</ele>
        <time>2022-10-29T10:57:56.000Z</time>
      </trkpt>
      <trkpt lat="47.29195" lon="3.67012">
        <ele>205.80000305176</ele>
        <time>2022-10-29T10:58:00.000Z</time>
      </trkpt>
      <trkpt lat="47.29182" lon="3.67022">
        <ele>207</ele>
        <time>2022-10-29T10:58:04.000Z</time>
      </trkpt>
      <trkpt lat="47.29176" lon="3.67027">
        <ele>207.39999389648</ele>
        <time>2022-10-29T10:58:06.000Z</time>
      </trkpt>
      <trkpt lat="47.29167" lon="3.67035">
        <ele>208</ele>
        <time>2022-10-29T10:58:09.000Z</time>
      </trkpt>
      <trkpt lat="47.29151" lon="3.6705">
        <ele>209</ele>
        <time>2022-10-29T10:58:15.000Z</time>
      </trkpt>
      <trkpt lat="47.29148" lon="3.67054">
        <ele>209.39999389648</ele>
        <time>2022-10-29T10:58:16.000Z</time>
      </trkpt>
      <trkpt lat="47.29136" lon="3.67063">
        <ele>210</ele>
        <time>2022-10-29T10:58:20.000Z</time>
      </trkpt>
      <trkpt lat="47.29123" lon="3.67072">
        <ele>210.60000610352</ele>
        <time>2022-10-29T10:58:24.000Z</time>
      </trkpt>
      <trkpt lat="47.29117" lon="3.67075">
        <ele>211.19999694824</ele>
        <time>2022-10-29T10:58:26.000Z</time>
      </trkpt>
      <trkpt lat="47.29096" lon="3.67085">
        <ele>212.19999694824</ele>
        <time>2022-10-29T10:58:32.000Z</time>
      </trkpt>
      <trkpt lat="47.29076" lon="3.67092">
        <ele>213.39999389648</ele>
        <time>2022-10-29T10:58:38.000Z</time>
      </trkpt>
      <trkpt lat="47.29067" lon="3.67095">
        <ele>213.80000305176</ele>
        <time>2022-10-29T10:58:41.000Z</time>
      </trkpt>
      <trkpt lat="47.29054" lon="3.67096">
        <ele>214.39999389648</ele>
        <time>2022-10-29T10:58:45.000Z</time>
      </trkpt>
      <trkpt lat="47.29044" lon="3.67096">
        <ele>214.80000305176</ele>
        <time>2022-10-29T10:58:48.000Z</time>
      </trkpt>
      <trkpt lat="47.29034" lon="3.67095">
        <ele>215.80000305176</ele>
        <time>2022-10-29T10:58:51.000Z</time>
      </trkpt>
      <trkpt lat="47.29017" lon="3.67095">
        <ele>216.80000305176</ele>
        <time>2022-10-29T10:58:56.000Z</time>
      </trkpt>
      <trkpt lat="47.29011" lon="3.67094">
        <ele>217.19999694824</ele>
        <time>2022-10-29T10:58:58.000Z</time>
      </trkpt>
      <trkpt lat="47.28993" lon="3.67092">
        <ele>218</ele>
        <time>2022-10-29T10:59:03.000Z</time>
      </trkpt>
      <trkpt lat="47.28979" lon="3.67087">
        <ele>219</ele>
        <time>2022-10-29T10:59:07.000Z</time>
      </trkpt>
      <trkpt lat="47.28976" lon="3.67085">
        <ele>219.19999694824</ele>
        <time>2022-10-29T10:59:08.000Z</time>
      </trkpt>
      <trkpt lat="47.28962" lon="3.67081">
        <ele>220</ele>
        <time>2022-10-29T10:59:12.000Z</time>
      </trkpt>
      <trkpt lat="47.28956" lon="3.67078">
        <ele>220.39999389648</ele>
        <time>2022-10-29T10:59:14.000Z</time>
      </trkpt>
      <trkpt lat="47.28938" lon="3.67068">
        <ele>221.39999389648</ele>
        <time>2022-10-29T10:59:20.000Z</time>
      </trkpt>
      <trkpt lat="47.28931" lon="3.67064">
        <ele>221.80000305176</ele>
        <time>2022-10-29T10:59:22.000Z</time>
      </trkpt>
      <trkpt lat="47.28919" lon="3.67057">
        <ele>222.80000305176</ele>
        <time>2022-10-29T10:59:26.000Z</time>
      </trkpt>
      <trkpt lat="47.28906" lon="3.6705">
        <ele>223.39999389648</ele>
        <time>2022-10-29T10:59:30.000Z</time>
      </trkpt>
      <trkpt lat="47.28897" lon="3.67045">
        <ele>223.80000305176</ele>
        <time>2022-10-29T10:59:33.000Z</time>
      </trkpt>
      <trkpt lat="47.2888" lon="3.67035">
        <ele>225</ele>
        <time>2022-10-29T10:59:38.000Z</time>
      </trkpt>
      <trkpt lat="47.28869" lon="3.6703">
        <ele>225.60000610352</ele>
        <time>2022-10-29T10:59:41.000Z</time>
      </trkpt>
      <trkpt lat="47.28858" lon="3.67024">
        <ele>226</ele>
        <time>2022-10-29T10:59:44.000Z</time>
      </trkpt>
      <trkpt lat="47.28833" lon="3.67012">
        <ele>227</ele>
        <time>2022-10-29T10:59:51.000Z</time>
      </trkpt>
      <trkpt lat="47.28829" lon="3.67011">
        <ele>227.19999694824</ele>
        <time>2022-10-29T10:59:52.000Z</time>
      </trkpt>
      <trkpt lat="47.28807" lon="3.67003">
        <ele>228.39999389648</ele>
        <time>2022-10-29T10:59:58.000Z</time>
      </trkpt>
      <trkpt lat="47.28799" lon="3.67001">
        <ele>228.60000610352</ele>
        <time>2022-10-29T11:00:00.000Z</time>
      </trkpt>
      <trkpt lat="47.28779" lon="3.66996">
        <ele>229.39999389648</ele>
        <time>2022-10-29T11:00:05.000Z</time>
      </trkpt>
      <trkpt lat="47.28763" lon="3.66993">
        <ele>230</ele>
        <time>2022-10-29T11:00:09.000Z</time>
      </trkpt>
      <trkpt lat="47.28755" lon="3.66992">
        <ele>230.60000610352</ele>
        <time>2022-10-29T11:00:11.000Z</time>
      </trkpt>
      <trkpt lat="47.28728" lon="3.66988">
        <ele>231.60000610352</ele>
        <time>2022-10-29T11:00:18.000Z</time>
      </trkpt>
      <trkpt lat="47.28723" lon="3.66987">
        <ele>231.60000610352</ele>
        <time>2022-10-29T11:00:19.000Z</time>
      </trkpt>
      <trkpt lat="47.28703" lon="3.66984">
        <ele>231.39999389648</ele>
        <time>2022-10-29T11:00:23.000Z</time>
      </trkpt>
      <trkpt lat="47.28658" lon="3.66977">
        <ele>230.39999389648</ele>
        <time>2022-10-29T11:00:30.000Z</time>
      </trkpt>
      <trkpt lat="47.28621" lon="3.66971">
        <ele>229.19999694824</ele>
        <time>2022-10-29T11:00:35.000Z</time>
      </trkpt>
      <trkpt lat="47.28605" lon="3.66969">
        <ele>228.60000610352</ele>
        <time>2022-10-29T11:00:37.000Z</time>
      </trkpt>
      <trkpt lat="47.28597" lon="3.66968">
        <ele>228</ele>
        <time>2022-10-29T11:00:38.000Z</time>
      </trkpt>
      <trkpt lat="47.28566" lon="3.66963">
        <ele>227</ele>
        <time>2022-10-29T11:00:42.000Z</time>
      </trkpt>
      <trkpt lat="47.28551" lon="3.6696">
        <ele>226.60000610352</ele>
        <time>2022-10-29T11:00:44.000Z</time>
      </trkpt>
      <trkpt lat="47.2853" lon="3.66957">
        <ele>225.80000305176</ele>
        <time>2022-10-29T11:00:47.000Z</time>
      </trkpt>
      <trkpt lat="47.2851" lon="3.66953">
        <ele>225.60000610352</ele>
        <time>2022-10-29T11:00:50.000Z</time>
      </trkpt>
      <trkpt lat="47.28463" lon="3.66941">
        <ele>225.80000305176</ele>
        <time>2022-10-29T11:00:58.000Z</time>
      </trkpt>
      <trkpt lat="47.28435" lon="3.66931">
        <ele>227</ele>
        <time>2022-10-29T11:01:04.000Z</time>
      </trkpt>
      <trkpt lat="47.28414" lon="3.66924">
        <ele>228</ele>
        <time>2022-10-29T11:01:09.000Z</time>
      </trkpt>
      <trkpt lat="47.28406" lon="3.6692">
        <ele>229.19999694824</ele>
        <time>2022-10-29T11:01:11.000Z</time>
      </trkpt>
      <trkpt lat="47.28402" lon="3.66918">
        <ele>229.39999389648</ele>
        <time>2022-10-29T11:01:12.000Z</time>
      </trkpt>
      <trkpt lat="47.2839" lon="3.66913">
        <ele>230.39999389648</ele>
        <time>2022-10-29T11:01:15.000Z</time>
      </trkpt>
      <trkpt lat="47.28386" lon="3.66911">
        <ele>230.80000305176</ele>
        <time>2022-10-29T11:01:16.000Z</time>
      </trkpt>
      <trkpt lat="47.28373" lon="3.66908">
        <ele>231.60000610352</ele>
        <time>2022-10-29T11:01:19.000Z</time>
      </trkpt>
      <trkpt lat="47.28356" lon="3.66901">
        <ele>232.80000305176</ele>
        <time>2022-10-29T11:01:23.000Z</time>
      </trkpt>
      <trkpt lat="47.28352" lon="3.669">
        <ele>233</ele>
        <time>2022-10-29T11:01:24.000Z</time>
      </trkpt>
      <trkpt lat="47.28344" lon="3.66897">
        <ele>233.60000610352</ele>
        <time>2022-10-29T11:01:26.000Z</time>
      </trkpt>
      <trkpt lat="47.28335" lon="3.66894">
        <ele>234</ele>
        <time>2022-10-29T11:01:28.000Z</time>
      </trkpt>
      <trkpt lat="47.28317" lon="3.66887">
        <ele>235</ele>
        <time>2022-10-29T11:01:32.000Z</time>
      </trkpt>
      <trkpt lat="47.28303" lon="3.66882">
        <ele>235.80000305176</ele>
        <time>2022-10-29T11:01:35.000Z</time>
      </trkpt>
      <trkpt lat="47.28295" lon="3.6688">
        <ele>236</ele>
        <time>2022-10-29T11:01:37.000Z</time>
      </trkpt>
      <trkpt lat="47.2827" lon="3.66871">
        <ele>236.60000610352</ele>
        <time>2022-10-29T11:01:42.000Z</time>
      </trkpt>
      <trkpt lat="47.28225" lon="3.66854">
        <ele>236.80000305176</ele>
        <time>2022-10-29T11:01:51.000Z</time>
      </trkpt>
      <trkpt lat="47.28183" lon="3.66839">
        <ele>237</ele>
        <time>2022-10-29T11:01:59.000Z</time>
      </trkpt>
      <trkpt lat="47.28132" lon="3.6682">
        <ele>236.80000305176</ele>
        <time>2022-10-29T11:02:08.000Z</time>
      </trkpt>
      <trkpt lat="47.28084" lon="3.66802">
        <ele>236</ele>
        <time>2022-10-29T11:02:16.000Z</time>
      </trkpt>
      <trkpt lat="47.28042" lon="3.66786">
        <ele>234.80000305176</ele>
        <time>2022-10-29T11:02:22.000Z</time>
      </trkpt>
      <trkpt lat="47.28013" lon="3.66775">
        <ele>233.60000610352</ele>
        <time>2022-10-29T11:02:26.000Z</time>
      </trkpt>
      <trkpt lat="47.27984" lon="3.66764">
        <ele>233</ele>
        <time>2022-10-29T11:02:30.000Z</time>
      </trkpt>
      <trkpt lat="47.27931" lon="3.66744">
        <ele>233</ele>
        <time>2022-10-29T11:02:38.000Z</time>
      </trkpt>
      <trkpt lat="47.27925" lon="3.66742">
        <ele>233</ele>
        <time>2022-10-29T11:02:39.000Z</time>
      </trkpt>
      <trkpt lat="47.27889" lon="3.66729">
        <ele>234.39999389648</ele>
        <time>2022-10-29T11:02:46.000Z</time>
      </trkpt>
      <trkpt lat="47.27884" lon="3.66727">
        <ele>235</ele>
        <time>2022-10-29T11:02:47.000Z</time>
      </trkpt>
      <trkpt lat="47.27861" lon="3.66721">
        <ele>236</ele>
        <time>2022-10-29T11:02:52.000Z</time>
      </trkpt>
      <trkpt lat="47.27845" lon="3.66718">
        <ele>236.60000610352</ele>
        <time>2022-10-29T11:02:55.000Z</time>
      </trkpt>
      <trkpt lat="47.27836" lon="3.66717">
        <ele>237</ele>
        <time>2022-10-29T11:02:57.000Z</time>
      </trkpt>
      <trkpt lat="47.2779" lon="3.66709">
        <ele>237.80000305176</ele>
        <time>2022-10-29T11:03:06.000Z</time>
      </trkpt>
      <trkpt lat="47.27757" lon="3.66704">
        <ele>238</ele>
        <time>2022-10-29T11:03:12.000Z</time>
      </trkpt>
      <trkpt lat="47.27741" lon="3.66701">
        <ele>238.19999694824</ele>
        <time>2022-10-29T11:03:15.000Z</time>
      </trkpt>
      <trkpt lat="47.27699" lon="3.66693">
        <ele>238.60000610352</ele>
        <time>2022-10-29T11:03:23.000Z</time>
      </trkpt>
      <trkpt lat="47.27653" lon="3.66685">
        <ele>239</ele>
        <time>2022-10-29T11:03:32.000Z</time>
      </trkpt>
      <trkpt lat="47.27644" lon="3.66684">
        <ele>239</ele>
        <time>2022-10-29T11:03:34.000Z</time>
      </trkpt>
      <trkpt lat="47.2761" lon="3.6668">
        <ele>239</ele>
        <time>2022-10-29T11:03:40.000Z</time>
      </trkpt>
      <trkpt lat="47.27566" lon="3.66673">
        <ele>238</ele>
        <time>2022-10-29T11:03:47.000Z</time>
      </trkpt>
      <trkpt lat="47.27555" lon="3.6667">
        <ele>237.80000305176</ele>
        <time>2022-10-29T11:03:49.000Z</time>
      </trkpt>
      <trkpt lat="47.27515" lon="3.66663">
        <ele>237</ele>
        <time>2022-10-29T11:03:55.000Z</time>
      </trkpt>
      <trkpt lat="47.27501" lon="3.66661">
        <ele>236.39999389648</ele>
        <time>2022-10-29T11:03:57.000Z</time>
      </trkpt>
      <trkpt lat="47.27473" lon="3.66656">
        <ele>236</ele>
        <time>2022-10-29T11:04:01.000Z</time>
      </trkpt>
      <trkpt lat="47.27435" lon="3.6665">
        <ele>235.80000305176</ele>
        <time>2022-10-29T11:04:07.000Z</time>
      </trkpt>
      <trkpt lat="47.2743" lon="3.66649">
        <ele>236</ele>
        <time>2022-10-29T11:04:08.000Z</time>
      </trkpt>
      <trkpt lat="47.2739" lon="3.66641">
        <ele>236.80000305176</ele>
        <time>2022-10-29T11:04:15.000Z</time>
      </trkpt>
      <trkpt lat="47.27383" lon="3.6664">
        <ele>237</ele>
        <time>2022-10-29T11:04:16.000Z</time>
      </trkpt>
      <trkpt lat="47.27352" lon="3.66635">
        <ele>238.19999694824</ele>
        <time>2022-10-29T11:04:22.000Z</time>
      </trkpt>
      <trkpt lat="47.27308" lon="3.66629">
        <ele>239.19999694824</ele>
        <time>2022-10-29T11:04:30.000Z</time>
      </trkpt>
      <trkpt lat="47.27303" lon="3.66628">
        <ele>239.39999389648</ele>
        <time>2022-10-29T11:04:31.000Z</time>
      </trkpt>
      <trkpt lat="47.27261" lon="3.66634">
        <ele>239.19999694824</ele>
        <time>2022-10-29T11:04:38.000Z</time>
      </trkpt>
      <trkpt lat="47.27224" lon="3.66652">
        <ele>238.39999389648</ele>
        <time>2022-10-29T11:04:44.000Z</time>
      </trkpt>
      <trkpt lat="47.27217" lon="3.66656">
        <ele>238.19999694824</ele>
        <time>2022-10-29T11:04:45.000Z</time>
      </trkpt>
      <trkpt lat="47.2719" lon="3.6668">
        <ele>237.19999694824</ele>
        <time>2022-10-29T11:04:49.000Z</time>
      </trkpt>
      <trkpt lat="47.27185" lon="3.66686">
        <ele>236.80000305176</ele>
        <time>2022-10-29T11:04:50.000Z</time>
      </trkpt>
      <trkpt lat="47.27171" lon="3.66703">
        <ele>236</ele>
        <time>2022-10-29T11:04:52.000Z</time>
      </trkpt>
      <trkpt lat="47.27155" lon="3.66729">
        <ele>234.80000305176</ele>
        <time>2022-10-29T11:04:55.000Z</time>
      </trkpt>
      <trkpt lat="47.27134" lon="3.66775">
        <ele>233.60000610352</ele>
        <time>2022-10-29T11:04:59.000Z</time>
      </trkpt>
      <trkpt lat="47.27131" lon="3.66784">
        <ele>233</ele>
        <time>2022-10-29T11:05:00.000Z</time>
      </trkpt>
      <trkpt lat="47.2712" lon="3.66807">
        <ele>232</ele>
        <time>2022-10-29T11:05:02.000Z</time>
      </trkpt>
      <trkpt lat="47.271" lon="3.66855">
        <ele>230.60000610352</ele>
        <time>2022-10-29T11:05:06.000Z</time>
      </trkpt>
      <trkpt lat="47.27094" lon="3.6687">
        <ele>230</ele>
        <time>2022-10-29T11:05:07.000Z</time>
      </trkpt>
      <trkpt lat="47.27083" lon="3.66892">
        <ele>229.19999694824</ele>
        <time>2022-10-29T11:05:09.000Z</time>
      </trkpt>
      <trkpt lat="47.27068" lon="3.66916">
        <ele>228.39999389648</ele>
        <time>2022-10-29T11:05:11.000Z</time>
      </trkpt>
      <trkpt lat="47.27062" lon="3.66924">
        <ele>228</ele>
        <time>2022-10-29T11:05:12.000Z</time>
      </trkpt>
      <trkpt lat="47.27047" lon="3.66942">
        <ele>226.80000305176</ele>
        <time>2022-10-29T11:05:14.000Z</time>
      </trkpt>
      <trkpt lat="47.27032" lon="3.66958">
        <ele>226</ele>
        <time>2022-10-29T11:05:16.000Z</time>
      </trkpt>
      <trkpt lat="47.27012" lon="3.66978">
        <ele>225.60000610352</ele>
        <time>2022-10-29T11:05:19.000Z</time>
      </trkpt>
      <trkpt lat="47.26999" lon="3.66991">
        <ele>225.60000610352</ele>
        <time>2022-10-29T11:05:21.000Z</time>
      </trkpt>
      <trkpt lat="47.26967" lon="3.67022">
        <ele>226.39999389648</ele>
        <time>2022-10-29T11:05:27.000Z</time>
      </trkpt>
      <trkpt lat="47.26959" lon="3.6703">
        <ele>226.60000610352</ele>
        <time>2022-10-29T11:05:29.000Z</time>
      </trkpt>
      <trkpt lat="47.26954" lon="3.67036">
        <ele>226.80000305176</ele>
        <time>2022-10-29T11:05:30.000Z</time>
      </trkpt>
      <trkpt lat="47.26945" lon="3.67045">
        <ele>227.39999389648</ele>
        <time>2022-10-29T11:05:32.000Z</time>
      </trkpt>
      <trkpt lat="47.26933" lon="3.67057">
        <ele>228.19999694824</ele>
        <time>2022-10-29T11:05:35.000Z</time>
      </trkpt>
      <trkpt lat="47.26917" lon="3.67073">
        <ele>229</ele>
        <time>2022-10-29T11:05:39.000Z</time>
      </trkpt>
      <trkpt lat="47.26912" lon="3.67078">
        <ele>229.19999694824</ele>
        <time>2022-10-29T11:05:40.000Z</time>
      </trkpt>
      <trkpt lat="47.26901" lon="3.67089">
        <ele>229.60000610352</ele>
        <time>2022-10-29T11:05:43.000Z</time>
      </trkpt>
      <trkpt lat="47.26894" lon="3.67097">
        <ele>230</ele>
        <time>2022-10-29T11:05:45.000Z</time>
      </trkpt>
      <trkpt lat="47.26888" lon="3.67102">
        <ele>230.39999389648</ele>
        <time>2022-10-29T11:05:46.000Z</time>
      </trkpt>
      <trkpt lat="47.26868" lon="3.67123">
        <ele>231</ele>
        <time>2022-10-29T11:05:51.000Z</time>
      </trkpt>
      <trkpt lat="47.26856" lon="3.67134">
        <ele>231.60000610352</ele>
        <time>2022-10-29T11:05:54.000Z</time>
      </trkpt>
      <trkpt lat="47.26831" lon="3.6716">
        <ele>232.60000610352</ele>
        <time>2022-10-29T11:06:00.000Z</time>
      </trkpt>
      <trkpt lat="47.2682" lon="3.67171">
        <ele>233</ele>
        <time>2022-10-29T11:06:03.000Z</time>
      </trkpt>
      <trkpt lat="47.26809" lon="3.67183">
        <ele>233.80000305176</ele>
        <time>2022-10-29T11:06:06.000Z</time>
      </trkpt>
      <trkpt lat="47.268" lon="3.67192">
        <ele>233.80000305176</ele>
        <time>2022-10-29T11:06:09.000Z</time>
      </trkpt>
      <trkpt lat="47.26779" lon="3.67212">
        <ele>234.80000305176</ele>
        <time>2022-10-29T11:06:16.000Z</time>
      </trkpt>
      <trkpt lat="47.2676" lon="3.67231">
        <ele>235.60000610352</ele>
        <time>2022-10-29T11:06:23.000Z</time>
      </trkpt>
      <trkpt lat="47.26758" lon="3.67233">
        <ele>235.80000305176</ele>
        <time>2022-10-29T11:06:24.000Z</time>
      </trkpt>
      <trkpt lat="47.26747" lon="3.67244">
        <ele>236.19999694824</ele>
        <time>2022-10-29T11:06:28.000Z</time>
      </trkpt>
      <trkpt lat="47.26729" lon="3.67263">
        <ele>236.80000305176</ele>
        <time>2022-10-29T11:06:35.000Z</time>
      </trkpt>
      <trkpt lat="47.26722" lon="3.67268">
        <ele>236.80000305176</ele>
        <time>2022-10-29T11:06:37.000Z</time>
      </trkpt>
      <trkpt lat="47.26709" lon="3.67282">
        <ele>237.39999389648</ele>
        <time>2022-10-29T11:06:43.000Z</time>
      </trkpt>
      <trkpt lat="47.26699" lon="3.6729">
        <ele>237.60000610352</ele>
        <time>2022-10-29T11:06:48.000Z</time>
      </trkpt>
      <trkpt lat="47.26698" lon="3.67291">
        <ele>237.80000305176</ele>
        <time>2022-10-29T11:06:51.000Z</time>
      </trkpt>
      <trkpt lat="47.26698" lon="3.67291">
        <ele>237.60000610352</ele>
        <time>2022-10-29T11:07:01.000Z</time>
      </trkpt>
      <trkpt lat="47.26698" lon="3.67291">
        <ele>237.80000305176</ele>
        <time>2022-10-29T11:07:49.000Z</time>
      </trkpt>
      <trkpt lat="47.26698" lon="3.67291">
        <ele>237.80000305176</ele>
        <time>2022-10-29T11:07:52.000Z</time>
      </trkpt>
      <trkpt lat="47.26695" lon="3.67294">
        <ele>237.60000610352</ele>
        <time>2022-10-29T11:08:39.000Z</time>
      </trkpt>
      <trkpt lat="47.26695" lon="3.67294">
        <ele>237.60000610352</ele>
        <time>2022-10-29T11:08:49.000Z</time>
      </trkpt>
      <trkpt lat="47.26688" lon="3.67301">
        <ele>238.19999694824</ele>
        <time>2022-10-29T11:10:15.000Z</time>
      </trkpt>
      <trkpt lat="47.26672" lon="3.67315">
        <ele>238.19999694824</ele>
        <time>2022-10-29T11:10:20.000Z</time>
      </trkpt>
      <trkpt lat="47.26644" lon="3.67336">
        <ele>238.80000305176</ele>
        <time>2022-10-29T11:10:27.000Z</time>
      </trkpt>
      <trkpt lat="47.26593" lon="3.67374">
        <ele>239.60000610352</ele>
        <time>2022-10-29T11:10:40.000Z</time>
      </trkpt>
      <trkpt lat="47.26586" lon="3.6738">
        <ele>239.80000305176</ele>
        <time>2022-10-29T11:10:42.000Z</time>
      </trkpt>
      <trkpt lat="47.26555" lon="3.67404">
        <ele>240.19999694824</ele>
        <time>2022-10-29T11:10:49.000Z</time>
      </trkpt>
      <trkpt lat="47.26521" lon="3.67429">
        <ele>239.39999389648</ele>
        <time>2022-10-29T11:10:55.000Z</time>
      </trkpt>
      <trkpt lat="47.265" lon="3.67444">
        <ele>238.60000610352</ele>
        <time>2022-10-29T11:10:58.000Z</time>
      </trkpt>
      <trkpt lat="47.2648" lon="3.6746">
        <ele>237.60000610352</ele>
        <time>2022-10-29T11:11:01.000Z</time>
      </trkpt>
      <trkpt lat="47.26472" lon="3.67465">
        <ele>237.19999694824</ele>
        <time>2022-10-29T11:11:02.000Z</time>
      </trkpt>
      <trkpt lat="47.26439" lon="3.67492">
        <ele>235.80000305176</ele>
        <time>2022-10-29T11:11:06.000Z</time>
      </trkpt>
      <trkpt lat="47.2643" lon="3.67498">
        <ele>235.39999389648</ele>
        <time>2022-10-29T11:11:07.000Z</time>
      </trkpt>
      <trkpt lat="47.2642" lon="3.67507">
        <ele>234.60000610352</ele>
        <time>2022-10-29T11:11:08.000Z</time>
      </trkpt>
      <trkpt lat="47.26405" lon="3.67523">
        <ele>233.39999389648</ele>
        <time>2022-10-29T11:11:10.000Z</time>
      </trkpt>
      <trkpt lat="47.26398" lon="3.67532">
        <ele>232.80000305176</ele>
        <time>2022-10-29T11:11:11.000Z</time>
      </trkpt>
      <trkpt lat="47.26382" lon="3.67556">
        <ele>231.80000305176</ele>
        <time>2022-10-29T11:11:13.000Z</time>
      </trkpt>
      <trkpt lat="47.26371" lon="3.67579">
        <ele>230.60000610352</ele>
        <time>2022-10-29T11:11:15.000Z</time>
      </trkpt>
      <trkpt lat="47.26359" lon="3.67608">
        <ele>229.39999389648</ele>
        <time>2022-10-29T11:11:17.000Z</time>
      </trkpt>
      <trkpt lat="47.26344" lon="3.67646">
        <ele>228</ele>
        <time>2022-10-29T11:11:20.000Z</time>
      </trkpt>
      <trkpt lat="47.26333" lon="3.67676">
        <ele>227</ele>
        <time>2022-10-29T11:11:22.000Z</time>
      </trkpt>
      <trkpt lat="47.26318" lon="3.67716">
        <ele>225.60000610352</ele>
        <time>2022-10-29T11:11:25.000Z</time>
      </trkpt>
      <trkpt lat="47.26307" lon="3.67747">
        <ele>224.60000610352</ele>
        <time>2022-10-29T11:11:27.000Z</time>
      </trkpt>
      <trkpt lat="47.26297" lon="3.67772">
        <ele>223.39999389648</ele>
        <time>2022-10-29T11:11:29.000Z</time>
      </trkpt>
      <trkpt lat="47.26285" lon="3.67804">
        <ele>222.39999389648</ele>
        <time>2022-10-29T11:11:31.000Z</time>
      </trkpt>
      <trkpt lat="47.26275" lon="3.67832">
        <ele>221.19999694824</ele>
        <time>2022-10-29T11:11:33.000Z</time>
      </trkpt>
      <trkpt lat="47.26264" lon="3.6786">
        <ele>219.60000610352</ele>
        <time>2022-10-29T11:11:35.000Z</time>
      </trkpt>
      <trkpt lat="47.26253" lon="3.67889">
        <ele>218.60000610352</ele>
        <time>2022-10-29T11:11:37.000Z</time>
      </trkpt>
      <trkpt lat="47.26243" lon="3.67915">
        <ele>216.80000305176</ele>
        <time>2022-10-29T11:11:39.000Z</time>
      </trkpt>
      <trkpt lat="47.26232" lon="3.67944">
        <ele>216</ele>
        <time>2022-10-29T11:11:41.000Z</time>
      </trkpt>
      <trkpt lat="47.26227" lon="3.67957">
        <ele>215.39999389648</ele>
        <time>2022-10-29T11:11:42.000Z</time>
      </trkpt>
      <trkpt lat="47.2621" lon="3.68002">
        <ele>215</ele>
        <time>2022-10-29T11:11:46.000Z</time>
      </trkpt>
      <trkpt lat="47.26188" lon="3.6806">
        <ele>215.19999694824</ele>
        <time>2022-10-29T11:11:52.000Z</time>
      </trkpt>
      <trkpt lat="47.26181" lon="3.68077">
        <ele>215.39999389648</ele>
        <time>2022-10-29T11:11:54.000Z</time>
      </trkpt>
      <trkpt lat="47.26172" lon="3.6809">
        <ele>215.39999389648</ele>
        <time>2022-10-29T11:11:56.000Z</time>
      </trkpt>
      <trkpt lat="47.26161" lon="3.68099">
        <ele>215.39999389648</ele>
        <time>2022-10-29T11:11:58.000Z</time>
      </trkpt>
      <trkpt lat="47.26154" lon="3.68102">
        <ele>215.39999389648</ele>
        <time>2022-10-29T11:11:59.000Z</time>
      </trkpt>
      <trkpt lat="47.26147" lon="3.68104">
        <ele>215.39999389648</ele>
        <time>2022-10-29T11:12:00.000Z</time>
      </trkpt>
      <trkpt lat="47.26119" lon="3.68111">
        <ele>215.39999389648</ele>
        <time>2022-10-29T11:12:04.000Z</time>
      </trkpt>
      <trkpt lat="47.26112" lon="3.68113">
        <ele>215.19999694824</ele>
        <time>2022-10-29T11:12:05.000Z</time>
      </trkpt>
      <trkpt lat="47.26091" lon="3.68118">
        <ele>215</ele>
        <time>2022-10-29T11:12:08.000Z</time>
      </trkpt>
      <trkpt lat="47.26083" lon="3.68121">
        <ele>214.80000305176</ele>
        <time>2022-10-29T11:12:09.000Z</time>
      </trkpt>
      <trkpt lat="47.26059" lon="3.68127">
        <ele>214.19999694824</ele>
        <time>2022-10-29T11:12:12.000Z</time>
      </trkpt>
      <trkpt lat="47.26044" lon="3.68129">
        <ele>214</ele>
        <time>2022-10-29T11:12:14.000Z</time>
      </trkpt>
      <trkpt lat="47.25997" lon="3.68149">
        <ele>213.60000610352</ele>
        <time>2022-10-29T11:12:21.000Z</time>
      </trkpt>
      <trkpt lat="47.2596" lon="3.68172">
        <ele>213.60000610352</ele>
        <time>2022-10-29T11:12:27.000Z</time>
      </trkpt>
      <trkpt lat="47.25931" lon="3.68192">
        <ele>213.80000305176</ele>
        <time>2022-10-29T11:12:33.000Z</time>
      </trkpt>
      <trkpt lat="47.25923" lon="3.68197">
        <ele>214</ele>
        <time>2022-10-29T11:12:35.000Z</time>
      </trkpt>
      <trkpt lat="47.25917" lon="3.68202">
        <ele>214.19999694824</ele>
        <time>2022-10-29T11:12:37.000Z</time>
      </trkpt>
      <trkpt lat="47.25896" lon="3.68216">
        <ele>214.80000305176</ele>
        <time>2022-10-29T11:12:44.000Z</time>
      </trkpt>
      <trkpt lat="47.25882" lon="3.68222">
        <ele>215.19999694824</ele>
        <time>2022-10-29T11:12:48.000Z</time>
      </trkpt>
      <trkpt lat="47.25879" lon="3.68224">
        <ele>215.39999389648</ele>
        <time>2022-10-29T11:12:49.000Z</time>
      </trkpt>
      <trkpt lat="47.25856" lon="3.68245">
        <ele>215.60000610352</ele>
        <time>2022-10-29T11:12:56.000Z</time>
      </trkpt>
      <trkpt lat="47.25841" lon="3.68282">
        <ele>215.39999389648</ele>
        <time>2022-10-29T11:13:02.000Z</time>
      </trkpt>
      <trkpt lat="47.25839" lon="3.6829">
        <ele>215.39999389648</ele>
        <time>2022-10-29T11:13:03.000Z</time>
      </trkpt>
      <trkpt lat="47.25833" lon="3.68316">
        <ele>214.60000610352</ele>
        <time>2022-10-29T11:13:06.000Z</time>
      </trkpt>
      <trkpt lat="47.25832" lon="3.68324">
        <ele>214.60000610352</ele>
        <time>2022-10-29T11:13:07.000Z</time>
      </trkpt>
      <trkpt lat="47.25829" lon="3.68339">
        <ele>214.19999694824</ele>
        <time>2022-10-29T11:13:09.000Z</time>
      </trkpt>
      <trkpt lat="47.25823" lon="3.6835">
        <ele>214</ele>
        <time>2022-10-29T11:13:11.000Z</time>
      </trkpt>
      <trkpt lat="47.258" lon="3.68376">
        <ele>213.60000610352</ele>
        <time>2022-10-29T11:13:17.000Z</time>
      </trkpt>
      <trkpt lat="47.25795" lon="3.6838">
        <ele>213.60000610352</ele>
        <time>2022-10-29T11:13:18.000Z</time>
      </trkpt>
      <trkpt lat="47.25777" lon="3.68398">
        <ele>213</ele>
        <time>2022-10-29T11:13:22.000Z</time>
      </trkpt>
      <trkpt lat="47.25773" lon="3.68403">
        <ele>212.80000305176</ele>
        <time>2022-10-29T11:13:23.000Z</time>
      </trkpt>
      <trkpt lat="47.25755" lon="3.68418">
        <ele>212.60000610352</ele>
        <time>2022-10-29T11:13:27.000Z</time>
      </trkpt>
      <trkpt lat="47.25747" lon="3.68422">
        <ele>212.39999389648</ele>
        <time>2022-10-29T11:13:30.000Z</time>
      </trkpt>
      <trkpt lat="47.25745" lon="3.68423">
        <ele>212.19999694824</ele>
        <time>2022-10-29T11:13:34.000Z</time>
      </trkpt>
      <trkpt lat="47.25745" lon="3.68423">
        <ele>212</ele>
        <time>2022-10-29T11:13:38.000Z</time>
      </trkpt>
      <trkpt lat="47.25744" lon="3.68424">
        <ele>212.19999694824</ele>
        <time>2022-10-29T11:14:10.000Z</time>
      </trkpt>
      <trkpt lat="47.25743" lon="3.68425">
        <ele>212.19999694824</ele>
        <time>2022-10-29T11:14:11.000Z</time>
      </trkpt>
      <trkpt lat="47.25742" lon="3.68425">
        <ele>212.39999389648</ele>
        <time>2022-10-29T11:14:16.000Z</time>
      </trkpt>
      <trkpt lat="47.25742" lon="3.68425">
        <ele>212.39999389648</ele>
        <time>2022-10-29T11:14:18.000Z</time>
      </trkpt>
      <trkpt lat="47.2574" lon="3.6842">
        <ele>212.39999389648</ele>
        <time>2022-10-29T11:14:21.000Z</time>
      </trkpt>
      <trkpt lat="47.25737" lon="3.68418">
        <ele>212.39999389648</ele>
        <time>2022-10-29T11:14:23.000Z</time>
      </trkpt>
      <trkpt lat="47.25736" lon="3.68417">
        <ele>212.39999389648</ele>
        <time>2022-10-29T11:14:26.000Z</time>
      </trkpt>
      <trkpt lat="47.25736" lon="3.68417">
        <ele>212.39999389648</ele>
        <time>2022-10-29T11:14:28.000Z</time>
      </trkpt>
      <trkpt lat="47.25733" lon="3.68414">
        <ele>212.39999389648</ele>
        <time>2022-10-29T11:14:33.000Z</time>
      </trkpt>
      <trkpt lat="47.25732" lon="3.68414">
        <ele>212.19999694824</ele>
        <time>2022-10-29T11:14:41.000Z</time>
      </trkpt>
      <trkpt lat="47.25732" lon="3.68414">
        <ele>212.19999694824</ele>
        <time>2022-10-29T11:14:58.000Z</time>
      </trkpt>
      <trkpt lat="47.25732" lon="3.68414">
        <ele>212.60000610352</ele>
        <time>2022-10-29T11:15:18.000Z</time>
      </trkpt>
      <trkpt lat="47.25731" lon="3.68415">
        <ele>212.19999694824</ele>
        <time>2022-10-29T11:16:49.000Z</time>
      </trkpt>
      <trkpt lat="47.25731" lon="3.68415">
        <ele>212.60000610352</ele>
        <time>2022-10-29T11:18:13.000Z</time>
      </trkpt>
      <trkpt lat="47.25731" lon="3.68415">
        <ele>212.60000610352</ele>
        <time>2022-10-29T11:18:17.000Z</time>
      </trkpt>
      <trkpt lat="47.25731" lon="3.68415">
        <ele>212.80000305176</ele>
        <time>2022-10-29T11:20:13.000Z</time>
      </trkpt>
      <trkpt lat="47.25731" lon="3.68415">
        <ele>213</ele>
        <time>2022-10-29T11:21:17.000Z</time>
      </trkpt>
      <trkpt lat="47.25731" lon="3.68415">
        <ele>212.80000305176</ele>
        <time>2022-10-29T11:21:56.000Z</time>
      </trkpt>
      <trkpt lat="47.25731" lon="3.68415">
        <ele>212.80000305176</ele>
        <time>2022-10-29T11:22:32.000Z</time>
      </trkpt>
      <trkpt lat="47.25731" lon="3.68415">
        <ele>213</ele>
        <time>2022-10-29T11:23:07.000Z</time>
      </trkpt>
      <trkpt lat="47.25731" lon="3.68415">
        <ele>213</ele>
        <time>2022-10-29T11:23:41.000Z</time>
      </trkpt>
      <trkpt lat="47.25731" lon="3.68415">
        <ele>213.19999694824</ele>
        <time>2022-10-29T11:24:01.000Z</time>
      </trkpt>
      <trkpt lat="47.25731" lon="3.68415">
        <ele>213.60000610352</ele>
        <time>2022-10-29T11:24:16.000Z</time>
      </trkpt>
      <trkpt lat="47.25731" lon="3.68415">
        <ele>213.19999694824</ele>
        <time>2022-10-29T11:24:51.000Z</time>
      </trkpt>
      <trkpt lat="47.25731" lon="3.68415">
        <ele>213.19999694824</ele>
        <time>2022-10-29T11:25:26.000Z</time>
      </trkpt>
      <trkpt lat="47.25731" lon="3.68415">
        <ele>213.39999389648</ele>
        <time>2022-10-29T11:26:04.000Z</time>
      </trkpt>
      <trkpt lat="47.25731" lon="3.68415">
        <ele>213.39999389648</ele>
        <time>2022-10-29T11:26:18.000Z</time>
      </trkpt>
      <trkpt lat="47.2573" lon="3.68416">
        <ele>213.19999694824</ele>
        <time>2022-10-29T11:26:24.000Z</time>
      </trkpt>
      <trkpt lat="47.25726" lon="3.68424">
        <ele>213.80000305176</ele>
        <time>2022-10-29T11:26:37.000Z</time>
      </trkpt>
      <trkpt lat="47.25725" lon="3.68424">
        <ele>213.80000305176</ele>
        <time>2022-10-29T11:26:38.000Z</time>
      </trkpt>
      <trkpt lat="47.25723" lon="3.68427">
        <ele>214</ele>
        <time>2022-10-29T11:26:46.000Z</time>
      </trkpt>
      <trkpt lat="47.25723" lon="3.68427">
        <ele>213.80000305176</ele>
        <time>2022-10-29T11:27:11.000Z</time>
      </trkpt>
      <trkpt lat="47.25723" lon="3.68427">
        <ele>214</ele>
        <time>2022-10-29T11:27:46.000Z</time>
      </trkpt>
      <trkpt lat="47.25723" lon="3.68427">
        <ele>214</ele>
        <time>2022-10-29T11:28:01.000Z</time>
      </trkpt>
      <trkpt lat="47.25723" lon="3.68427">
        <ele>214</ele>
        <time>2022-10-29T11:28:25.000Z</time>
      </trkpt>
      <trkpt lat="47.25723" lon="3.68427">
        <ele>214.19999694824</ele>
        <time>2022-10-29T11:29:13.000Z</time>
      </trkpt>
      <trkpt lat="47.25723" lon="3.68427">
        <ele>214.19999694824</ele>
        <time>2022-10-29T11:29:56.000Z</time>
      </trkpt>
      <trkpt lat="47.25723" lon="3.68427">
        <ele>213.80000305176</ele>
        <time>2022-10-29T11:30:41.000Z</time>
      </trkpt>
      <trkpt lat="47.25723" lon="3.68427">
        <ele>213.80000305176</ele>
        <time>2022-10-29T11:31:29.000Z</time>
      </trkpt>
      <trkpt lat="47.25723" lon="3.68427">
        <ele>214.60000610352</ele>
        <time>2022-10-29T11:32:28.000Z</time>
      </trkpt>
      <trkpt lat="47.25723" lon="3.68427">
        <ele>214.60000610352</ele>
        <time>2022-10-29T11:33:37.000Z</time>
      </trkpt>
      <trkpt lat="47.25723" lon="3.68427">
        <ele>215</ele>
        <time>2022-10-29T11:34:37.000Z</time>
      </trkpt>
      <trkpt lat="47.25723" lon="3.68427">
        <ele>215.60000610352</ele>
        <time>2022-10-29T11:39:25.000Z</time>
      </trkpt>
      <trkpt lat="47.25723" lon="3.68427">
        <ele>215.39999389648</ele>
        <time>2022-10-29T11:41:13.000Z</time>
      </trkpt>
      <trkpt lat="47.25723" lon="3.68427">
        <ele>215.60000610352</ele>
        <time>2022-10-29T11:42:46.000Z</time>
      </trkpt>
      <trkpt lat="47.25723" lon="3.68427">
        <ele>215.19999694824</ele>
        <time>2022-10-29T11:44:01.000Z</time>
      </trkpt>
      <trkpt lat="47.25723" lon="3.68427">
        <ele>216</ele>
        <time>2022-10-29T11:47:40.000Z</time>
      </trkpt>
      <trkpt lat="47.25723" lon="3.68427">
        <ele>215.60000610352</ele>
        <time>2022-10-29T11:49:09.000Z</time>
      </trkpt>
      <trkpt lat="47.25723" lon="3.68427">
        <ele>215.19999694824</ele>
        <time>2022-10-29T11:50:43.000Z</time>
      </trkpt>
      <trkpt lat="47.25723" lon="3.68427">
        <ele>215.19999694824</ele>
        <time>2022-10-29T11:51:04.000Z</time>
      </trkpt>
      <trkpt lat="47.25723" lon="3.68427">
        <ele>215.80000305176</ele>
        <time>2022-10-29T11:51:10.000Z</time>
      </trkpt>
      <trkpt lat="47.25726" lon="3.68428">
        <ele>215.80000305176</ele>
        <time>2022-10-29T11:51:12.000Z</time>
      </trkpt>
      <trkpt lat="47.25727" lon="3.68428">
        <ele>215.80000305176</ele>
        <time>2022-10-29T11:51:13.000Z</time>
      </trkpt>
      <trkpt lat="47.2573" lon="3.6843">
        <ele>215.80000305176</ele>
        <time>2022-10-29T11:51:15.000Z</time>
      </trkpt>
      <trkpt lat="47.25736" lon="3.68428">
        <ele>215.80000305176</ele>
        <time>2022-10-29T11:51:18.000Z</time>
      </trkpt>
      <trkpt lat="47.2574" lon="3.6843">
        <ele>216</ele>
        <time>2022-10-29T11:51:25.000Z</time>
      </trkpt>
      <trkpt lat="47.2574" lon="3.6843">
        <ele>216</ele>
        <time>2022-10-29T11:51:32.000Z</time>
      </trkpt>
      <trkpt lat="47.2574" lon="3.6843">
        <ele>215.60000610352</ele>
        <time>2022-10-29T11:52:41.000Z</time>
      </trkpt>
      <trkpt lat="47.2574" lon="3.68431">
        <ele>215.19999694824</ele>
        <time>2022-10-29T11:53:17.000Z</time>
      </trkpt>
      <trkpt lat="47.25738" lon="3.68433">
        <ele>215.19999694824</ele>
        <time>2022-10-29T11:53:18.000Z</time>
      </trkpt>
      <trkpt lat="47.25735" lon="3.68442">
        <ele>215.19999694824</ele>
        <time>2022-10-29T11:53:21.000Z</time>
      </trkpt>
      <trkpt lat="47.25735" lon="3.68448">
        <ele>215.39999389648</ele>
        <time>2022-10-29T11:53:23.000Z</time>
      </trkpt>
      <trkpt lat="47.25736" lon="3.68465">
        <ele>215.80000305176</ele>
        <time>2022-10-29T11:53:29.000Z</time>
      </trkpt>
      <trkpt lat="47.25729" lon="3.68474">
        <ele>216</ele>
        <time>2022-10-29T11:53:34.000Z</time>
      </trkpt>
      <trkpt lat="47.25725" lon="3.68475">
        <ele>216</ele>
        <time>2022-10-29T11:53:36.000Z</time>
      </trkpt>
      <trkpt lat="47.25723" lon="3.68475">
        <ele>216</ele>
        <time>2022-10-29T11:53:37.000Z</time>
      </trkpt>
      <trkpt lat="47.25718" lon="3.68476">
        <ele>216</ele>
        <time>2022-10-29T11:53:40.000Z</time>
      </trkpt>
      <trkpt lat="47.25709" lon="3.68466">
        <ele>216</ele>
        <time>2022-10-29T11:53:45.000Z</time>
      </trkpt>
      <trkpt lat="47.25705" lon="3.68467">
        <ele>215.80000305176</ele>
        <time>2022-10-29T11:53:47.000Z</time>
      </trkpt>
      <trkpt lat="47.25701" lon="3.68471">
        <ele>215.80000305176</ele>
        <time>2022-10-29T11:53:50.000Z</time>
      </trkpt>
      <trkpt lat="47.25703" lon="3.68474">
        <ele>216</ele>
        <time>2022-10-29T11:53:52.000Z</time>
      </trkpt>
      <trkpt lat="47.25707" lon="3.68476">
        <ele>216</ele>
        <time>2022-10-29T11:53:54.000Z</time>
      </trkpt>
      <trkpt lat="47.2571" lon="3.68475">
        <ele>216</ele>
        <time>2022-10-29T11:53:56.000Z</time>
      </trkpt>
      <trkpt lat="47.25711" lon="3.68474">
        <ele>216</ele>
        <time>2022-10-29T11:53:58.000Z</time>
      </trkpt>
      <trkpt lat="47.25714" lon="3.68475">
        <ele>216.19999694824</ele>
        <time>2022-10-29T11:54:00.000Z</time>
      </trkpt>
      <trkpt lat="47.25718" lon="3.68478">
        <ele>216.19999694824</ele>
        <time>2022-10-29T11:54:02.000Z</time>
      </trkpt>
      <trkpt lat="47.25718" lon="3.68479">
        <ele>216.19999694824</ele>
        <time>2022-10-29T11:54:05.000Z</time>
      </trkpt>
      <trkpt lat="47.25722" lon="3.68478">
        <ele>216.19999694824</ele>
        <time>2022-10-29T11:54:06.000Z</time>
      </trkpt>
      <trkpt lat="47.25725" lon="3.68478">
        <ele>216</ele>
        <time>2022-10-29T11:54:07.000Z</time>
      </trkpt>
      <trkpt lat="47.25732" lon="3.68481">
        <ele>216</ele>
        <time>2022-10-29T11:54:09.000Z</time>
      </trkpt>
      <trkpt lat="47.25748" lon="3.68501">
        <ele>215.80000305176</ele>
        <time>2022-10-29T11:54:14.000Z</time>
      </trkpt>
      <trkpt lat="47.2576" lon="3.68516">
        <ele>215.80000305176</ele>
        <time>2022-10-29T11:54:18.000Z</time>
      </trkpt>
      <trkpt lat="47.25762" lon="3.6852">
        <ele>216</ele>
        <time>2022-10-29T11:54:19.000Z</time>
      </trkpt>
      <trkpt lat="47.25773" lon="3.68536">
        <ele>216.39999389648</ele>
        <time>2022-10-29T11:54:23.000Z</time>
      </trkpt>
      <trkpt lat="47.25781" lon="3.68545">
        <ele>216.39999389648</ele>
        <time>2022-10-29T11:54:26.000Z</time>
      </trkpt>
      <trkpt lat="47.25799" lon="3.68563">
        <ele>216.60000610352</ele>
        <time>2022-10-29T11:54:31.000Z</time>
      </trkpt>
      <trkpt lat="47.25816" lon="3.68593">
        <ele>216.60000610352</ele>
        <time>2022-10-29T11:54:37.000Z</time>
      </trkpt>
      <trkpt lat="47.25817" lon="3.68599">
        <ele>216.39999389648</ele>
        <time>2022-10-29T11:54:38.000Z</time>
      </trkpt>
      <trkpt lat="47.25818" lon="3.68606">
        <ele>216.39999389648</ele>
        <time>2022-10-29T11:54:39.000Z</time>
      </trkpt>
      <trkpt lat="47.25815" lon="3.68617">
        <ele>216.39999389648</ele>
        <time>2022-10-29T11:54:41.000Z</time>
      </trkpt>
      <trkpt lat="47.25812" lon="3.6863">
        <ele>216.39999389648</ele>
        <time>2022-10-29T11:54:43.000Z</time>
      </trkpt>
      <trkpt lat="47.2581" lon="3.6864">
        <ele>216.39999389648</ele>
        <time>2022-10-29T11:54:45.000Z</time>
      </trkpt>
      <trkpt lat="47.258" lon="3.68677">
        <ele>216.60000610352</ele>
        <time>2022-10-29T11:54:52.000Z</time>
      </trkpt>
      <trkpt lat="47.25789" lon="3.68714">
        <ele>216.80000305176</ele>
        <time>2022-10-29T11:54:58.000Z</time>
      </trkpt>
      <trkpt lat="47.25784" lon="3.68725">
        <ele>216.80000305176</ele>
        <time>2022-10-29T11:55:00.000Z</time>
      </trkpt>
      <trkpt lat="47.25768" lon="3.68766">
        <ele>217</ele>
        <time>2022-10-29T11:55:06.000Z</time>
      </trkpt>
      <trkpt lat="47.25766" lon="3.68773">
        <ele>217</ele>
        <time>2022-10-29T11:55:07.000Z</time>
      </trkpt>
      <trkpt lat="47.25764" lon="3.68781">
        <ele>217</ele>
        <time>2022-10-29T11:55:08.000Z</time>
      </trkpt>
      <trkpt lat="47.2575" lon="3.68845">
        <ele>216.80000305176</ele>
        <time>2022-10-29T11:55:16.000Z</time>
      </trkpt>
      <trkpt lat="47.25739" lon="3.68892">
        <ele>216.80000305176</ele>
        <time>2022-10-29T11:55:22.000Z</time>
      </trkpt>
      <trkpt lat="47.25724" lon="3.68937">
        <ele>217.39999389648</ele>
        <time>2022-10-29T11:55:28.000Z</time>
      </trkpt>
      <trkpt lat="47.25708" lon="3.68984">
        <ele>217.60000610352</ele>
        <time>2022-10-29T11:55:35.000Z</time>
      </trkpt>
      <trkpt lat="47.257" lon="3.69009">
        <ele>217.60000610352</ele>
        <time>2022-10-29T11:55:39.000Z</time>
      </trkpt>
      <trkpt lat="47.25693" lon="3.69028">
        <ele>217.60000610352</ele>
        <time>2022-10-29T11:55:42.000Z</time>
      </trkpt>
      <trkpt lat="47.25679" lon="3.69068">
        <ele>218</ele>
        <time>2022-10-29T11:55:49.000Z</time>
      </trkpt>
      <trkpt lat="47.25668" lon="3.6911">
        <ele>218.39999389648</ele>
        <time>2022-10-29T11:55:56.000Z</time>
      </trkpt>
      <trkpt lat="47.2566" lon="3.6914">
        <ele>218.60000610352</ele>
        <time>2022-10-29T11:56:01.000Z</time>
      </trkpt>
      <trkpt lat="47.25656" lon="3.69153">
        <ele>218.60000610352</ele>
        <time>2022-10-29T11:56:03.000Z</time>
      </trkpt>
      <trkpt lat="47.25654" lon="3.69159">
        <ele>218.80000305176</ele>
        <time>2022-10-29T11:56:04.000Z</time>
      </trkpt>
      <trkpt lat="47.25641" lon="3.69196">
        <ele>218.80000305176</ele>
        <time>2022-10-29T11:56:10.000Z</time>
      </trkpt>
      <trkpt lat="47.25637" lon="3.69202">
        <ele>218.80000305176</ele>
        <time>2022-10-29T11:56:11.000Z</time>
      </trkpt>
      <trkpt lat="47.25626" lon="3.69227">
        <ele>218.80000305176</ele>
        <time>2022-10-29T11:56:15.000Z</time>
      </trkpt>
      <trkpt lat="47.25614" lon="3.69251">
        <ele>218.80000305176</ele>
        <time>2022-10-29T11:56:19.000Z</time>
      </trkpt>
      <trkpt lat="47.25596" lon="3.69291">
        <ele>218.80000305176</ele>
        <time>2022-10-29T11:56:26.000Z</time>
      </trkpt>
      <trkpt lat="47.25567" lon="3.69359">
        <ele>218.80000305176</ele>
        <time>2022-10-29T11:56:37.000Z</time>
      </trkpt>
      <trkpt lat="47.25565" lon="3.69366">
        <ele>218.80000305176</ele>
        <time>2022-10-29T11:56:38.000Z</time>
      </trkpt>
      <trkpt lat="47.25543" lon="3.69425">
        <ele>218.80000305176</ele>
        <time>2022-10-29T11:56:47.000Z</time>
      </trkpt>
      <trkpt lat="47.2552" lon="3.69489">
        <ele>219.19999694824</ele>
        <time>2022-10-29T11:56:57.000Z</time>
      </trkpt>
      <trkpt lat="47.25499" lon="3.6955">
        <ele>219.19999694824</ele>
        <time>2022-10-29T11:57:06.000Z</time>
      </trkpt>
      <trkpt lat="47.25479" lon="3.69614">
        <ele>219.39999389648</ele>
        <time>2022-10-29T11:57:15.000Z</time>
      </trkpt>
      <trkpt lat="47.25461" lon="3.69694">
        <ele>219.39999389648</ele>
        <time>2022-10-29T11:57:26.000Z</time>
      </trkpt>
      <trkpt lat="47.2546" lon="3.69701">
        <ele>219.39999389648</ele>
        <time>2022-10-29T11:57:27.000Z</time>
      </trkpt>
      <trkpt lat="47.25447" lon="3.69763">
        <ele>219.39999389648</ele>
        <time>2022-10-29T11:57:36.000Z</time>
      </trkpt>
      <trkpt lat="47.25444" lon="3.69777">
        <ele>219.60000610352</ele>
        <time>2022-10-29T11:57:38.000Z</time>
      </trkpt>
      <trkpt lat="47.2544" lon="3.69791">
        <ele>219.80000305176</ele>
        <time>2022-10-29T11:57:40.000Z</time>
      </trkpt>
      <trkpt lat="47.25431" lon="3.69826">
        <ele>220</ele>
        <time>2022-10-29T11:57:45.000Z</time>
      </trkpt>
      <trkpt lat="47.25414" lon="3.69885">
        <ele>220.19999694824</ele>
        <time>2022-10-29T11:57:53.000Z</time>
      </trkpt>
      <trkpt lat="47.25392" lon="3.69954">
        <ele>220.60000610352</ele>
        <time>2022-10-29T11:58:03.000Z</time>
      </trkpt>
      <trkpt lat="47.2539" lon="3.69961">
        <ele>220.60000610352</ele>
        <time>2022-10-29T11:58:04.000Z</time>
      </trkpt>
      <trkpt lat="47.25382" lon="3.69987">
        <ele>220.80000305176</ele>
        <time>2022-10-29T11:58:08.000Z</time>
      </trkpt>
      <trkpt lat="47.25371" lon="3.7002">
        <ele>220.80000305176</ele>
        <time>2022-10-29T11:58:13.000Z</time>
      </trkpt>
      <trkpt lat="47.25366" lon="3.70032">
        <ele>221</ele>
        <time>2022-10-29T11:58:15.000Z</time>
      </trkpt>
      <trkpt lat="47.25361" lon="3.70045">
        <ele>221</ele>
        <time>2022-10-29T11:58:17.000Z</time>
      </trkpt>
      <trkpt lat="47.25346" lon="3.70081">
        <ele>221.19999694824</ele>
        <time>2022-10-29T11:58:23.000Z</time>
      </trkpt>
      <trkpt lat="47.25338" lon="3.70099">
        <ele>221.19999694824</ele>
        <time>2022-10-29T11:58:26.000Z</time>
      </trkpt>
      <trkpt lat="47.25323" lon="3.70129">
        <ele>221.60000610352</ele>
        <time>2022-10-29T11:58:31.000Z</time>
      </trkpt>
      <trkpt lat="47.25287" lon="3.70188">
        <ele>222</ele>
        <time>2022-10-29T11:58:42.000Z</time>
      </trkpt>
      <trkpt lat="47.25261" lon="3.70224">
        <ele>221.80000305176</ele>
        <time>2022-10-29T11:58:48.000Z</time>
      </trkpt>
      <trkpt lat="47.25242" lon="3.70249">
        <ele>221.39999389648</ele>
        <time>2022-10-29T11:58:52.000Z</time>
      </trkpt>
      <trkpt lat="47.25228" lon="3.70268">
        <ele>221.19999694824</ele>
        <time>2022-10-29T11:58:55.000Z</time>
      </trkpt>
      <trkpt lat="47.25186" lon="3.70324">
        <ele>220.60000610352</ele>
        <time>2022-10-29T11:59:04.000Z</time>
      </trkpt>
      <trkpt lat="47.25182" lon="3.7033">
        <ele>220.60000610352</ele>
        <time>2022-10-29T11:59:05.000Z</time>
      </trkpt>
      <trkpt lat="47.25138" lon="3.70387">
        <ele>220.19999694824</ele>
        <time>2022-10-29T11:59:15.000Z</time>
      </trkpt>
      <trkpt lat="47.25124" lon="3.70406">
        <ele>220</ele>
        <time>2022-10-29T11:59:18.000Z</time>
      </trkpt>
      <trkpt lat="47.25097" lon="3.70442">
        <ele>219.60000610352</ele>
        <time>2022-10-29T11:59:24.000Z</time>
      </trkpt>
      <trkpt lat="47.25054" lon="3.70494">
        <ele>219</ele>
        <time>2022-10-29T11:59:33.000Z</time>
      </trkpt>
      <trkpt lat="47.25011" lon="3.70551">
        <ele>219.80000305176</ele>
        <time>2022-10-29T11:59:43.000Z</time>
      </trkpt>
      <trkpt lat="47.24977" lon="3.70607">
        <ele>219.80000305176</ele>
        <time>2022-10-29T11:59:52.000Z</time>
      </trkpt>
      <trkpt lat="47.24955" lon="3.70653">
        <ele>220</ele>
        <time>2022-10-29T11:59:59.000Z</time>
      </trkpt>
      <trkpt lat="47.24944" lon="3.707">
        <ele>220.19999694824</ele>
        <time>2022-10-29T12:00:05.000Z</time>
      </trkpt>
      <trkpt lat="47.24943" lon="3.70708">
        <ele>220.39999389648</ele>
        <time>2022-10-29T12:00:06.000Z</time>
      </trkpt>
      <trkpt lat="47.24942" lon="3.70716">
        <ele>220.39999389648</ele>
        <time>2022-10-29T12:00:07.000Z</time>
      </trkpt>
      <trkpt lat="47.24935" lon="3.70756">
        <ele>220.60000610352</ele>
        <time>2022-10-29T12:00:12.000Z</time>
      </trkpt>
      <trkpt lat="47.24925" lon="3.70819">
        <ele>221.19999694824</ele>
        <time>2022-10-29T12:00:20.000Z</time>
      </trkpt>
      <trkpt lat="47.24923" lon="3.70835">
        <ele>221.19999694824</ele>
        <time>2022-10-29T12:00:22.000Z</time>
      </trkpt>
      <trkpt lat="47.24916" lon="3.70874">
        <ele>221.60000610352</ele>
        <time>2022-10-29T12:00:27.000Z</time>
      </trkpt>
      <trkpt lat="47.24913" lon="3.70894">
        <ele>221.80000305176</ele>
        <time>2022-10-29T12:00:30.000Z</time>
      </trkpt>
      <trkpt lat="47.24913" lon="3.709">
        <ele>222</ele>
        <time>2022-10-29T12:00:31.000Z</time>
      </trkpt>
      <trkpt lat="47.24914" lon="3.70906">
        <ele>222</ele>
        <time>2022-10-29T12:00:32.000Z</time>
      </trkpt>
      <trkpt lat="47.24924" lon="3.70915">
        <ele>222</ele>
        <time>2022-10-29T12:00:35.000Z</time>
      </trkpt>
      <trkpt lat="47.2494" lon="3.70925">
        <ele>222</ele>
        <time>2022-10-29T12:00:39.000Z</time>
      </trkpt>
      <trkpt lat="47.24944" lon="3.70929">
        <ele>222</ele>
        <time>2022-10-29T12:00:40.000Z</time>
      </trkpt>
      <trkpt lat="47.24948" lon="3.70935">
        <ele>222</ele>
        <time>2022-10-29T12:00:41.000Z</time>
      </trkpt>
      <trkpt lat="47.24955" lon="3.70947">
        <ele>222</ele>
        <time>2022-10-29T12:00:43.000Z</time>
      </trkpt>
      <trkpt lat="47.2496" lon="3.70961">
        <ele>222</ele>
        <time>2022-10-29T12:00:45.000Z</time>
      </trkpt>
      <trkpt lat="47.24979" lon="3.71023">
        <ele>222.19999694824</ele>
        <time>2022-10-29T12:00:54.000Z</time>
      </trkpt>
      <trkpt lat="47.24981" lon="3.7103">
        <ele>222.39999389648</ele>
        <time>2022-10-29T12:00:55.000Z</time>
      </trkpt>
      <trkpt lat="47.24986" lon="3.71044">
        <ele>222.60000610352</ele>
        <time>2022-10-29T12:00:57.000Z</time>
      </trkpt>
      <trkpt lat="47.24997" lon="3.71068">
        <ele>222.80000305176</ele>
        <time>2022-10-29T12:01:01.000Z</time>
      </trkpt>
      <trkpt lat="47.25019" lon="3.71116">
        <ele>223.19999694824</ele>
        <time>2022-10-29T12:01:08.000Z</time>
      </trkpt>
      <trkpt lat="47.25044" lon="3.71177">
        <ele>223.19999694824</ele>
        <time>2022-10-29T12:01:17.000Z</time>
      </trkpt>
      <trkpt lat="47.25069" lon="3.71243">
        <ele>223</ele>
        <time>2022-10-29T12:01:26.000Z</time>
      </trkpt>
      <trkpt lat="47.25078" lon="3.7127">
        <ele>223</ele>
        <time>2022-10-29T12:01:30.000Z</time>
      </trkpt>
      <trkpt lat="47.25082" lon="3.71282">
        <ele>223</ele>
        <time>2022-10-29T12:01:32.000Z</time>
      </trkpt>
      <trkpt lat="47.2509" lon="3.71305">
        <ele>223.60000610352</ele>
        <time>2022-10-29T12:01:36.000Z</time>
      </trkpt>
      <trkpt lat="47.25096" lon="3.71323">
        <ele>224.19999694824</ele>
        <time>2022-10-29T12:01:39.000Z</time>
      </trkpt>
      <trkpt lat="47.25104" lon="3.71344">
        <ele>224.80000305176</ele>
        <time>2022-10-29T12:01:43.000Z</time>
      </trkpt>
      <trkpt lat="47.25114" lon="3.71369">
        <ele>226</ele>
        <time>2022-10-29T12:01:48.000Z</time>
      </trkpt>
      <trkpt lat="47.25115" lon="3.71374">
        <ele>226.19999694824</ele>
        <time>2022-10-29T12:01:49.000Z</time>
      </trkpt>
      <trkpt lat="47.25124" lon="3.71391">
        <ele>227.39999389648</ele>
        <time>2022-10-29T12:01:53.000Z</time>
      </trkpt>
      <trkpt lat="47.25128" lon="3.714">
        <ele>228</ele>
        <time>2022-10-29T12:01:55.000Z</time>
      </trkpt>
      <trkpt lat="47.25133" lon="3.71413">
        <ele>228.60000610352</ele>
        <time>2022-10-29T12:01:58.000Z</time>
      </trkpt>
      <trkpt lat="47.25142" lon="3.71429">
        <ele>229.60000610352</ele>
        <time>2022-10-29T12:02:02.000Z</time>
      </trkpt>
      <trkpt lat="47.25152" lon="3.71451">
        <ele>230.60000610352</ele>
        <time>2022-10-29T12:02:07.000Z</time>
      </trkpt>
      <trkpt lat="47.25157" lon="3.71463">
        <ele>231.19999694824</ele>
        <time>2022-10-29T12:02:10.000Z</time>
      </trkpt>
      <trkpt lat="47.25164" lon="3.71476">
        <ele>231.80000305176</ele>
        <time>2022-10-29T12:02:13.000Z</time>
      </trkpt>
      <trkpt lat="47.2517" lon="3.71488">
        <ele>232.19999694824</ele>
        <time>2022-10-29T12:02:16.000Z</time>
      </trkpt>
      <trkpt lat="47.25177" lon="3.71499">
        <ele>232.80000305176</ele>
        <time>2022-10-29T12:02:19.000Z</time>
      </trkpt>
      <trkpt lat="47.25189" lon="3.71518">
        <ele>233.60000610352</ele>
        <time>2022-10-29T12:02:24.000Z</time>
      </trkpt>
      <trkpt lat="47.25191" lon="3.71522">
        <ele>233.80000305176</ele>
        <time>2022-10-29T12:02:25.000Z</time>
      </trkpt>
      <trkpt lat="47.25204" lon="3.7154">
        <ele>235</ele>
        <time>2022-10-29T12:02:30.000Z</time>
      </trkpt>
      <trkpt lat="47.25212" lon="3.71551">
        <ele>235.39999389648</ele>
        <time>2022-10-29T12:02:33.000Z</time>
      </trkpt>
      <trkpt lat="47.25224" lon="3.71569">
        <ele>236</ele>
        <time>2022-10-29T12:02:38.000Z</time>
      </trkpt>
      <trkpt lat="47.25232" lon="3.7158">
        <ele>236.60000610352</ele>
        <time>2022-10-29T12:02:42.000Z</time>
      </trkpt>
      <trkpt lat="47.25245" lon="3.71597">
        <ele>237.60000610352</ele>
        <time>2022-10-29T12:02:46.000Z</time>
      </trkpt>
      <trkpt lat="47.25263" lon="3.71622">
        <ele>238.80000305176</ele>
        <time>2022-10-29T12:02:53.000Z</time>
      </trkpt>
      <trkpt lat="47.25267" lon="3.71629">
        <ele>239</ele>
        <time>2022-10-29T12:02:55.000Z</time>
      </trkpt>
      <trkpt lat="47.25282" lon="3.71651">
        <ele>239.80000305176</ele>
        <time>2022-10-29T12:03:02.000Z</time>
      </trkpt>
      <trkpt lat="47.25294" lon="3.71668">
        <ele>240.39999389648</ele>
        <time>2022-10-29T12:03:06.000Z</time>
      </trkpt>
      <trkpt lat="47.25301" lon="3.71679">
        <ele>240.80000305176</ele>
        <time>2022-10-29T12:03:09.000Z</time>
      </trkpt>
      <trkpt lat="47.25318" lon="3.71702">
        <ele>241.80000305176</ele>
        <time>2022-10-29T12:03:16.000Z</time>
      </trkpt>
      <trkpt lat="47.25321" lon="3.71706">
        <ele>242</ele>
        <time>2022-10-29T12:03:17.000Z</time>
      </trkpt>
      <trkpt lat="47.25336" lon="3.71726">
        <ele>243.19999694824</ele>
        <time>2022-10-29T12:03:23.000Z</time>
      </trkpt>
      <trkpt lat="47.25341" lon="3.71732">
        <ele>243.39999389648</ele>
        <time>2022-10-29T12:03:25.000Z</time>
      </trkpt>
      <trkpt lat="47.25352" lon="3.71743">
        <ele>244.19999694824</ele>
        <time>2022-10-29T12:03:29.000Z</time>
      </trkpt>
      <trkpt lat="47.25361" lon="3.71749">
        <ele>244.60000610352</ele>
        <time>2022-10-29T12:03:32.000Z</time>
      </trkpt>
      <trkpt lat="47.2537" lon="3.71755">
        <ele>245.19999694824</ele>
        <time>2022-10-29T12:03:35.000Z</time>
      </trkpt>
      <trkpt lat="47.25389" lon="3.71767">
        <ele>246.19999694824</ele>
        <time>2022-10-29T12:03:41.000Z</time>
      </trkpt>
      <trkpt lat="47.25412" lon="3.71781">
        <ele>247.39999389648</ele>
        <time>2022-10-29T12:03:48.000Z</time>
      </trkpt>
      <trkpt lat="47.25415" lon="3.71782">
        <ele>247.60000610352</ele>
        <time>2022-10-29T12:03:49.000Z</time>
      </trkpt>
      <trkpt lat="47.25431" lon="3.71791">
        <ele>248.60000610352</ele>
        <time>2022-10-29T12:03:54.000Z</time>
      </trkpt>
      <trkpt lat="47.25448" lon="3.718">
        <ele>249.60000610352</ele>
        <time>2022-10-29T12:03:59.000Z</time>
      </trkpt>
      <trkpt lat="47.25455" lon="3.71804">
        <ele>249.80000305176</ele>
        <time>2022-10-29T12:04:01.000Z</time>
      </trkpt>
      <trkpt lat="47.25472" lon="3.71813">
        <ele>250.80000305176</ele>
        <time>2022-10-29T12:04:06.000Z</time>
      </trkpt>
      <trkpt lat="47.25482" lon="3.71818">
        <ele>251.19999694824</ele>
        <time>2022-10-29T12:04:09.000Z</time>
      </trkpt>
      <trkpt lat="47.25492" lon="3.71824">
        <ele>251.80000305176</ele>
        <time>2022-10-29T12:04:12.000Z</time>
      </trkpt>
      <trkpt lat="47.25511" lon="3.71834">
        <ele>252.60000610352</ele>
        <time>2022-10-29T12:04:17.000Z</time>
      </trkpt>
      <trkpt lat="47.25522" lon="3.7184">
        <ele>253</ele>
        <time>2022-10-29T12:04:20.000Z</time>
      </trkpt>
      <trkpt lat="47.25547" lon="3.71853">
        <ele>254</ele>
        <time>2022-10-29T12:04:27.000Z</time>
      </trkpt>
      <trkpt lat="47.25553" lon="3.71858">
        <ele>254.19999694824</ele>
        <time>2022-10-29T12:04:29.000Z</time>
      </trkpt>
      <trkpt lat="47.25574" lon="3.7187">
        <ele>255.19999694824</ele>
        <time>2022-10-29T12:04:35.000Z</time>
      </trkpt>
      <trkpt lat="47.25582" lon="3.71874">
        <ele>255.60000610352</ele>
        <time>2022-10-29T12:04:37.000Z</time>
      </trkpt>
      <trkpt lat="47.25585" lon="3.71876">
        <ele>255.80000305176</ele>
        <time>2022-10-29T12:04:38.000Z</time>
      </trkpt>
      <trkpt lat="47.25603" lon="3.71885">
        <ele>256.39999389648</ele>
        <time>2022-10-29T12:04:43.000Z</time>
      </trkpt>
      <trkpt lat="47.2561" lon="3.71889">
        <ele>256.60000610352</ele>
        <time>2022-10-29T12:04:45.000Z</time>
      </trkpt>
      <trkpt lat="47.25635" lon="3.71907">
        <ele>257.39999389648</ele>
        <time>2022-10-29T12:04:52.000Z</time>
      </trkpt>
      <trkpt lat="47.25645" lon="3.71915">
        <ele>258</ele>
        <time>2022-10-29T12:04:55.000Z</time>
      </trkpt>
      <trkpt lat="47.25663" lon="3.71929">
        <ele>258.39999389648</ele>
        <time>2022-10-29T12:05:00.000Z</time>
      </trkpt>
      <trkpt lat="47.25678" lon="3.71941">
        <ele>259</ele>
        <time>2022-10-29T12:05:04.000Z</time>
      </trkpt>
      <trkpt lat="47.25695" lon="3.71956">
        <ele>259.60000610352</ele>
        <time>2022-10-29T12:05:09.000Z</time>
      </trkpt>
      <trkpt lat="47.25703" lon="3.71962">
        <ele>260</ele>
        <time>2022-10-29T12:05:11.000Z</time>
      </trkpt>
      <trkpt lat="47.25728" lon="3.71985">
        <ele>260.79998779297</ele>
        <time>2022-10-29T12:05:18.000Z</time>
      </trkpt>
      <trkpt lat="47.2573" lon="3.71988">
        <ele>260.79998779297</ele>
        <time>2022-10-29T12:05:19.000Z</time>
      </trkpt>
      <trkpt lat="47.25734" lon="3.71991">
        <ele>261.20001220703</ele>
        <time>2022-10-29T12:05:21.000Z</time>
      </trkpt>
      <trkpt lat="47.25746" lon="3.72001">
        <ele>261.79998779297</ele>
        <time>2022-10-29T12:05:23.000Z</time>
      </trkpt>
      <trkpt lat="47.25753" lon="3.72006">
        <ele>262</ele>
        <time>2022-10-29T12:05:25.000Z</time>
      </trkpt>
      <trkpt lat="47.25762" lon="3.72012">
        <ele>262.20001220703</ele>
        <time>2022-10-29T12:05:28.000Z</time>
      </trkpt>
      <trkpt lat="47.25801" lon="3.72046">
        <ele>262.79998779297</ele>
        <time>2022-10-29T12:05:37.000Z</time>
      </trkpt>
      <trkpt lat="47.25816" lon="3.72064">
        <ele>262.79998779297</ele>
        <time>2022-10-29T12:05:41.000Z</time>
      </trkpt>
      <trkpt lat="47.25829" lon="3.72085">
        <ele>263</ele>
        <time>2022-10-29T12:05:45.000Z</time>
      </trkpt>
      <trkpt lat="47.25852" lon="3.72118">
        <ele>262.79998779297</ele>
        <time>2022-10-29T12:05:52.000Z</time>
      </trkpt>
      <trkpt lat="47.25878" lon="3.72152">
        <ele>262.60000610352</ele>
        <time>2022-10-29T12:05:59.000Z</time>
      </trkpt>
      <trkpt lat="47.25881" lon="3.72158">
        <ele>262.60000610352</ele>
        <time>2022-10-29T12:06:00.000Z</time>
      </trkpt>
      <trkpt lat="47.25884" lon="3.7217">
        <ele>262.60000610352</ele>
        <time>2022-10-29T12:06:02.000Z</time>
      </trkpt>
      <trkpt lat="47.25886" lon="3.72186">
        <ele>262.60000610352</ele>
        <time>2022-10-29T12:06:04.000Z</time>
      </trkpt>
      <trkpt lat="47.25886" lon="3.72193">
        <ele>262.60000610352</ele>
        <time>2022-10-29T12:06:05.000Z</time>
      </trkpt>
      <trkpt lat="47.25881" lon="3.72244">
        <ele>263</ele>
        <time>2022-10-29T12:06:13.000Z</time>
      </trkpt>
      <trkpt lat="47.25881" lon="3.7225">
        <ele>263</ele>
        <time>2022-10-29T12:06:14.000Z</time>
      </trkpt>
      <trkpt lat="47.2588" lon="3.72257">
        <ele>263</ele>
        <time>2022-10-29T12:06:15.000Z</time>
      </trkpt>
      <trkpt lat="47.25878" lon="3.72289">
        <ele>264</ele>
        <time>2022-10-29T12:06:21.000Z</time>
      </trkpt>
      <trkpt lat="47.25875" lon="3.72341">
        <ele>265</ele>
        <time>2022-10-29T12:06:28.000Z</time>
      </trkpt>
      <trkpt lat="47.25875" lon="3.72348">
        <ele>265.20001220703</ele>
        <time>2022-10-29T12:06:29.000Z</time>
      </trkpt>
      <trkpt lat="47.25878" lon="3.72376">
        <ele>265.20001220703</ele>
        <time>2022-10-29T12:06:33.000Z</time>
      </trkpt>
      <trkpt lat="47.2588" lon="3.72383">
        <ele>265.20001220703</ele>
        <time>2022-10-29T12:06:34.000Z</time>
      </trkpt>
      <trkpt lat="47.2589" lon="3.72438">
        <ele>265.20001220703</ele>
        <time>2022-10-29T12:06:42.000Z</time>
      </trkpt>
      <trkpt lat="47.25894" lon="3.72465">
        <ele>265.60000610352</ele>
        <time>2022-10-29T12:06:46.000Z</time>
      </trkpt>
      <trkpt lat="47.25894" lon="3.72486">
        <ele>266</ele>
        <time>2022-10-29T12:06:49.000Z</time>
      </trkpt>
      <trkpt lat="47.25894" lon="3.72507">
        <ele>266</ele>
        <time>2022-10-29T12:06:52.000Z</time>
      </trkpt>
      <trkpt lat="47.25897" lon="3.72547">
        <ele>267</ele>
        <time>2022-10-29T12:06:58.000Z</time>
      </trkpt>
      <trkpt lat="47.25898" lon="3.7256">
        <ele>267.20001220703</ele>
        <time>2022-10-29T12:07:00.000Z</time>
      </trkpt>
      <trkpt lat="47.25901" lon="3.72601">
        <ele>268</ele>
        <time>2022-10-29T12:07:06.000Z</time>
      </trkpt>
      <trkpt lat="47.25902" lon="3.72607">
        <ele>268.39999389648</ele>
        <time>2022-10-29T12:07:07.000Z</time>
      </trkpt>
      <trkpt lat="47.25905" lon="3.72644">
        <ele>269.20001220703</ele>
        <time>2022-10-29T12:07:13.000Z</time>
      </trkpt>
      <trkpt lat="47.25905" lon="3.7265">
        <ele>269.39999389648</ele>
        <time>2022-10-29T12:07:14.000Z</time>
      </trkpt>
      <trkpt lat="47.25908" lon="3.72675">
        <ele>269.79998779297</ele>
        <time>2022-10-29T12:07:18.000Z</time>
      </trkpt>
      <trkpt lat="47.25909" lon="3.72698">
        <ele>270.39999389648</ele>
        <time>2022-10-29T12:07:22.000Z</time>
      </trkpt>
      <trkpt lat="47.25909" lon="3.7271">
        <ele>270.79998779297</ele>
        <time>2022-10-29T12:07:24.000Z</time>
      </trkpt>
      <trkpt lat="47.25911" lon="3.72733">
        <ele>272</ele>
        <time>2022-10-29T12:07:28.000Z</time>
      </trkpt>
      <trkpt lat="47.25913" lon="3.72758">
        <ele>272.79998779297</ele>
        <time>2022-10-29T12:07:32.000Z</time>
      </trkpt>
      <trkpt lat="47.25914" lon="3.72765">
        <ele>273</ele>
        <time>2022-10-29T12:07:33.000Z</time>
      </trkpt>
      <trkpt lat="47.25918" lon="3.72808">
        <ele>274.20001220703</ele>
        <time>2022-10-29T12:07:40.000Z</time>
      </trkpt>
      <trkpt lat="47.25918" lon="3.72815">
        <ele>274.20001220703</ele>
        <time>2022-10-29T12:07:41.000Z</time>
      </trkpt>
      <trkpt lat="47.25921" lon="3.7284">
        <ele>275.20001220703</ele>
        <time>2022-10-29T12:07:45.000Z</time>
      </trkpt>
      <trkpt lat="47.25924" lon="3.72878">
        <ele>276.20001220703</ele>
        <time>2022-10-29T12:07:51.000Z</time>
      </trkpt>
      <trkpt lat="47.25925" lon="3.72885">
        <ele>276.39999389648</ele>
        <time>2022-10-29T12:07:52.000Z</time>
      </trkpt>
      <trkpt lat="47.25927" lon="3.72922">
        <ele>277.39999389648</ele>
        <time>2022-10-29T12:07:58.000Z</time>
      </trkpt>
      <trkpt lat="47.25928" lon="3.72934">
        <ele>277.79998779297</ele>
        <time>2022-10-29T12:08:00.000Z</time>
      </trkpt>
      <trkpt lat="47.25929" lon="3.72952">
        <ele>278.39999389648</ele>
        <time>2022-10-29T12:08:03.000Z</time>
      </trkpt>
      <trkpt lat="47.2593" lon="3.72958">
        <ele>278.60000610352</ele>
        <time>2022-10-29T12:08:04.000Z</time>
      </trkpt>
      <trkpt lat="47.25932" lon="3.72991">
        <ele>279.60000610352</ele>
        <time>2022-10-29T12:08:09.000Z</time>
      </trkpt>
      <trkpt lat="47.25934" lon="3.73022">
        <ele>280.39999389648</ele>
        <time>2022-10-29T12:08:14.000Z</time>
      </trkpt>
      <trkpt lat="47.25935" lon="3.73042">
        <ele>280.79998779297</ele>
        <time>2022-10-29T12:08:17.000Z</time>
      </trkpt>
      <trkpt lat="47.25939" lon="3.73088">
        <ele>281.20001220703</ele>
        <time>2022-10-29T12:08:24.000Z</time>
      </trkpt>
      <trkpt lat="47.25944" lon="3.73144">
        <ele>281.60000610352</ele>
        <time>2022-10-29T12:08:32.000Z</time>
      </trkpt>
      <trkpt lat="47.25944" lon="3.73152">
        <ele>281.60000610352</ele>
        <time>2022-10-29T12:08:33.000Z</time>
      </trkpt>
      <trkpt lat="47.25948" lon="3.7321">
        <ele>281.79998779297</ele>
        <time>2022-10-29T12:08:41.000Z</time>
      </trkpt>
      <trkpt lat="47.25948" lon="3.73217">
        <ele>281.79998779297</ele>
        <time>2022-10-29T12:08:42.000Z</time>
      </trkpt>
      <trkpt lat="47.2595" lon="3.73253">
        <ele>281.79998779297</ele>
        <time>2022-10-29T12:08:47.000Z</time>
      </trkpt>
      <trkpt lat="47.25952" lon="3.73267">
        <ele>282</ele>
        <time>2022-10-29T12:08:49.000Z</time>
      </trkpt>
      <trkpt lat="47.25961" lon="3.73311">
        <ele>282.60000610352</ele>
        <time>2022-10-29T12:08:56.000Z</time>
      </trkpt>
      <trkpt lat="47.25964" lon="3.73317">
        <ele>282.79998779297</ele>
        <time>2022-10-29T12:08:57.000Z</time>
      </trkpt>
      <trkpt lat="47.25978" lon="3.73344">
        <ele>283.79998779297</ele>
        <time>2022-10-29T12:09:02.000Z</time>
      </trkpt>
      <trkpt lat="47.25983" lon="3.73355">
        <ele>284</ele>
        <time>2022-10-29T12:09:04.000Z</time>
      </trkpt>
      <trkpt lat="47.26004" lon="3.73397">
        <ele>284.79998779297</ele>
        <time>2022-10-29T12:09:12.000Z</time>
      </trkpt>
      <trkpt lat="47.26006" lon="3.73403">
        <ele>285</ele>
        <time>2022-10-29T12:09:13.000Z</time>
      </trkpt>
      <trkpt lat="47.26015" lon="3.73418">
        <ele>285.39999389648</ele>
        <time>2022-10-29T12:09:16.000Z</time>
      </trkpt>
      <trkpt lat="47.26022" lon="3.73434">
        <ele>285.60000610352</ele>
        <time>2022-10-29T12:09:19.000Z</time>
      </trkpt>
      <trkpt lat="47.26033" lon="3.73454">
        <ele>286.20001220703</ele>
        <time>2022-10-29T12:09:23.000Z</time>
      </trkpt>
      <trkpt lat="47.26042" lon="3.73476">
        <ele>286.60000610352</ele>
        <time>2022-10-29T12:09:27.000Z</time>
      </trkpt>
      <trkpt lat="47.26054" lon="3.73519">
        <ele>287</ele>
        <time>2022-10-29T12:09:34.000Z</time>
      </trkpt>
      <trkpt lat="47.26054" lon="3.73532">
        <ele>287.20001220703</ele>
        <time>2022-10-29T12:09:36.000Z</time>
      </trkpt>
      <trkpt lat="47.26054" lon="3.73539">
        <ele>287.20001220703</ele>
        <time>2022-10-29T12:09:37.000Z</time>
      </trkpt>
      <trkpt lat="47.26053" lon="3.73559">
        <ele>287.39999389648</ele>
        <time>2022-10-29T12:09:40.000Z</time>
      </trkpt>
      <trkpt lat="47.26054" lon="3.73578">
        <ele>287.60000610352</ele>
        <time>2022-10-29T12:09:43.000Z</time>
      </trkpt>
      <trkpt lat="47.26058" lon="3.7359">
        <ele>287.79998779297</ele>
        <time>2022-10-29T12:09:45.000Z</time>
      </trkpt>
      <trkpt lat="47.26077" lon="3.73622">
        <ele>288.20001220703</ele>
        <time>2022-10-29T12:09:51.000Z</time>
      </trkpt>
      <trkpt lat="47.26085" lon="3.73631">
        <ele>288.20001220703</ele>
        <time>2022-10-29T12:09:53.000Z</time>
      </trkpt>
      <trkpt lat="47.26089" lon="3.73635">
        <ele>288.20001220703</ele>
        <time>2022-10-29T12:09:54.000Z</time>
      </trkpt>
      <trkpt lat="47.26115" lon="3.73664">
        <ele>288.39999389648</ele>
        <time>2022-10-29T12:10:01.000Z</time>
      </trkpt>
      <trkpt lat="47.26126" lon="3.73677">
        <ele>288.39999389648</ele>
        <time>2022-10-29T12:10:04.000Z</time>
      </trkpt>
      <trkpt lat="47.26139" lon="3.73694">
        <ele>288.60000610352</ele>
        <time>2022-10-29T12:10:08.000Z</time>
      </trkpt>
      <trkpt lat="47.26145" lon="3.73703">
        <ele>288.79998779297</ele>
        <time>2022-10-29T12:10:10.000Z</time>
      </trkpt>
      <trkpt lat="47.26158" lon="3.73722">
        <ele>289.39999389648</ele>
        <time>2022-10-29T12:10:14.000Z</time>
      </trkpt>
      <trkpt lat="47.26164" lon="3.73733">
        <ele>289.60000610352</ele>
        <time>2022-10-29T12:10:16.000Z</time>
      </trkpt>
      <trkpt lat="47.26184" lon="3.73777">
        <ele>290.39999389648</ele>
        <time>2022-10-29T12:10:23.000Z</time>
      </trkpt>
      <trkpt lat="47.26187" lon="3.73782">
        <ele>290.39999389648</ele>
        <time>2022-10-29T12:10:24.000Z</time>
      </trkpt>
      <trkpt lat="47.26192" lon="3.73794">
        <ele>290.60000610352</ele>
        <time>2022-10-29T12:10:26.000Z</time>
      </trkpt>
      <trkpt lat="47.26204" lon="3.73822">
        <ele>291</ele>
        <time>2022-10-29T12:10:31.000Z</time>
      </trkpt>
      <trkpt lat="47.26218" lon="3.73849">
        <ele>291.20001220703</ele>
        <time>2022-10-29T12:10:36.000Z</time>
      </trkpt>
      <trkpt lat="47.26221" lon="3.73853">
        <ele>291.39999389648</ele>
        <time>2022-10-29T12:10:37.000Z</time>
      </trkpt>
      <trkpt lat="47.26224" lon="3.73859">
        <ele>291.39999389648</ele>
        <time>2022-10-29T12:10:38.000Z</time>
      </trkpt>
      <trkpt lat="47.2625" lon="3.73895">
        <ele>292.20001220703</ele>
        <time>2022-10-29T12:10:46.000Z</time>
      </trkpt>
      <trkpt lat="47.26254" lon="3.739">
        <ele>292.39999389648</ele>
        <time>2022-10-29T12:10:47.000Z</time>
      </trkpt>
      <trkpt lat="47.26288" lon="3.73937">
        <ele>293</ele>
        <time>2022-10-29T12:10:56.000Z</time>
      </trkpt>
      <trkpt lat="47.26303" lon="3.73953">
        <ele>293.39999389648</ele>
        <time>2022-10-29T12:11:00.000Z</time>
      </trkpt>
      <trkpt lat="47.26319" lon="3.73977">
        <ele>293.60000610352</ele>
        <time>2022-10-29T12:11:05.000Z</time>
      </trkpt>
      <trkpt lat="47.26325" lon="3.73987">
        <ele>293.79998779297</ele>
        <time>2022-10-29T12:11:07.000Z</time>
      </trkpt>
      <trkpt lat="47.26342" lon="3.74019">
        <ele>294.20001220703</ele>
        <time>2022-10-29T12:11:13.000Z</time>
      </trkpt>
      <trkpt lat="47.26365" lon="3.74062">
        <ele>294.79998779297</ele>
        <time>2022-10-29T12:11:21.000Z</time>
      </trkpt>
      <trkpt lat="47.26371" lon="3.74073">
        <ele>295</ele>
        <time>2022-10-29T12:11:23.000Z</time>
      </trkpt>
      <trkpt lat="47.26385" lon="3.741">
        <ele>295.79998779297</ele>
        <time>2022-10-29T12:11:28.000Z</time>
      </trkpt>
      <trkpt lat="47.26408" lon="3.74144">
        <ele>296.79998779297</ele>
        <time>2022-10-29T12:11:36.000Z</time>
      </trkpt>
      <trkpt lat="47.26414" lon="3.74155">
        <ele>297</ele>
        <time>2022-10-29T12:11:38.000Z</time>
      </trkpt>
      <trkpt lat="47.26441" lon="3.74205">
        <ele>297.79998779297</ele>
        <time>2022-10-29T12:11:47.000Z</time>
      </trkpt>
      <trkpt lat="47.26447" lon="3.74216">
        <ele>298</ele>
        <time>2022-10-29T12:11:49.000Z</time>
      </trkpt>
      <trkpt lat="47.26473" lon="3.74265">
        <ele>298.60000610352</ele>
        <time>2022-10-29T12:11:58.000Z</time>
      </trkpt>
      <trkpt lat="47.26491" lon="3.74299">
        <ele>299</ele>
        <time>2022-10-29T12:12:04.000Z</time>
      </trkpt>
      <trkpt lat="47.26502" lon="3.74322">
        <ele>299.39999389648</ele>
        <time>2022-10-29T12:12:08.000Z</time>
      </trkpt>
      <trkpt lat="47.26532" lon="3.74379">
        <ele>300.20001220703</ele>
        <time>2022-10-29T12:12:18.000Z</time>
      </trkpt>
      <trkpt lat="47.26556" lon="3.74424">
        <ele>300.79998779297</ele>
        <time>2022-10-29T12:12:26.000Z</time>
      </trkpt>
      <trkpt lat="47.26579" lon="3.74456">
        <ele>300.79998779297</ele>
        <time>2022-10-29T12:12:32.000Z</time>
      </trkpt>
      <trkpt lat="47.26584" lon="3.7446">
        <ele>300.79998779297</ele>
        <time>2022-10-29T12:12:33.000Z</time>
      </trkpt>
      <trkpt lat="47.26594" lon="3.74468">
        <ele>300.79998779297</ele>
        <time>2022-10-29T12:12:35.000Z</time>
      </trkpt>
      <trkpt lat="47.26611" lon="3.74476">
        <ele>300.60000610352</ele>
        <time>2022-10-29T12:12:38.000Z</time>
      </trkpt>
      <trkpt lat="47.26617" lon="3.74478">
        <ele>300.60000610352</ele>
        <time>2022-10-29T12:12:39.000Z</time>
      </trkpt>
      <trkpt lat="47.26637" lon="3.7448">
        <ele>300.20001220703</ele>
        <time>2022-10-29T12:12:42.000Z</time>
      </trkpt>
      <trkpt lat="47.2668" lon="3.74487">
        <ele>298.60000610352</ele>
        <time>2022-10-29T12:12:48.000Z</time>
      </trkpt>
      <trkpt lat="47.26688" lon="3.7449">
        <ele>298.60000610352</ele>
        <time>2022-10-29T12:12:49.000Z</time>
      </trkpt>
      <trkpt lat="47.26719" lon="3.74515">
        <ele>297.60000610352</ele>
        <time>2022-10-29T12:12:54.000Z</time>
      </trkpt>
      <trkpt lat="47.26737" lon="3.74532">
        <ele>297</ele>
        <time>2022-10-29T12:12:57.000Z</time>
      </trkpt>
      <trkpt lat="47.26748" lon="3.74545">
        <ele>296.79998779297</ele>
        <time>2022-10-29T12:12:59.000Z</time>
      </trkpt>
      <trkpt lat="47.26754" lon="3.74551">
        <ele>296.60000610352</ele>
        <time>2022-10-29T12:13:00.000Z</time>
      </trkpt>
      <trkpt lat="47.26759" lon="3.74558">
        <ele>296.60000610352</ele>
        <time>2022-10-29T12:13:01.000Z</time>
      </trkpt>
      <trkpt lat="47.26774" lon="3.74579">
        <ele>296.20001220703</ele>
        <time>2022-10-29T12:13:04.000Z</time>
      </trkpt>
      <trkpt lat="47.2679" lon="3.74602">
        <ele>295.79998779297</ele>
        <time>2022-10-29T12:13:07.000Z</time>
      </trkpt>
      <trkpt lat="47.26799" lon="3.74618">
        <ele>295.60000610352</ele>
        <time>2022-10-29T12:13:09.000Z</time>
      </trkpt>
      <trkpt lat="47.26803" lon="3.74627">
        <ele>295.39999389648</ele>
        <time>2022-10-29T12:13:10.000Z</time>
      </trkpt>
      <trkpt lat="47.26817" lon="3.74652">
        <ele>294.79998779297</ele>
        <time>2022-10-29T12:13:13.000Z</time>
      </trkpt>
      <trkpt lat="47.26824" lon="3.74669">
        <ele>294.39999389648</ele>
        <time>2022-10-29T12:13:15.000Z</time>
      </trkpt>
      <trkpt lat="47.26831" lon="3.74688">
        <ele>294</ele>
        <time>2022-10-29T12:13:17.000Z</time>
      </trkpt>
      <trkpt lat="47.26843" lon="3.74716">
        <ele>293.39999389648</ele>
        <time>2022-10-29T12:13:20.000Z</time>
      </trkpt>
      <trkpt lat="47.26846" lon="3.74728">
        <ele>293.20001220703</ele>
        <time>2022-10-29T12:13:21.000Z</time>
      </trkpt>
      <trkpt lat="47.2685" lon="3.74738">
        <ele>293</ele>
        <time>2022-10-29T12:13:22.000Z</time>
      </trkpt>
      <trkpt lat="47.26863" lon="3.74773">
        <ele>291.79998779297</ele>
        <time>2022-10-29T12:13:25.000Z</time>
      </trkpt>
      <trkpt lat="47.26877" lon="3.74818">
        <ele>290.39999389648</ele>
        <time>2022-10-29T12:13:29.000Z</time>
      </trkpt>
      <trkpt lat="47.26881" lon="3.74828">
        <ele>289.79998779297</ele>
        <time>2022-10-29T12:13:30.000Z</time>
      </trkpt>
      <trkpt lat="47.26888" lon="3.74852">
        <ele>289.39999389648</ele>
        <time>2022-10-29T12:13:32.000Z</time>
      </trkpt>
      <trkpt lat="47.26899" lon="3.74887">
        <ele>288</ele>
        <time>2022-10-29T12:13:35.000Z</time>
      </trkpt>
      <trkpt lat="47.26906" lon="3.7491">
        <ele>287.20001220703</ele>
        <time>2022-10-29T12:13:37.000Z</time>
      </trkpt>
      <trkpt lat="47.26909" lon="3.7492">
        <ele>287</ele>
        <time>2022-10-29T12:13:38.000Z</time>
      </trkpt>
      <trkpt lat="47.26912" lon="3.7493">
        <ele>286.60000610352</ele>
        <time>2022-10-29T12:13:39.000Z</time>
      </trkpt>
      <trkpt lat="47.26917" lon="3.7495">
        <ele>286.20001220703</ele>
        <time>2022-10-29T12:13:41.000Z</time>
      </trkpt>
      <trkpt lat="47.2692" lon="3.74962">
        <ele>285.79998779297</ele>
        <time>2022-10-29T12:13:42.000Z</time>
      </trkpt>
      <trkpt lat="47.26925" lon="3.74983">
        <ele>285.39999389648</ele>
        <time>2022-10-29T12:13:44.000Z</time>
      </trkpt>
      <trkpt lat="47.26935" lon="3.75022">
        <ele>284</ele>
        <time>2022-10-29T12:13:47.000Z</time>
      </trkpt>
      <trkpt lat="47.26937" lon="3.75032">
        <ele>283.79998779297</ele>
        <time>2022-10-29T12:13:48.000Z</time>
      </trkpt>
      <trkpt lat="47.26948" lon="3.75068">
        <ele>282.20001220703</ele>
        <time>2022-10-29T12:13:51.000Z</time>
      </trkpt>
      <trkpt lat="47.26955" lon="3.75095">
        <ele>281.60000610352</ele>
        <time>2022-10-29T12:13:53.000Z</time>
      </trkpt>
      <trkpt lat="47.26957" lon="3.75108">
        <ele>281.20001220703</ele>
        <time>2022-10-29T12:13:54.000Z</time>
      </trkpt>
      <trkpt lat="47.26965" lon="3.75161">
        <ele>280.20001220703</ele>
        <time>2022-10-29T12:13:58.000Z</time>
      </trkpt>
      <trkpt lat="47.26967" lon="3.75174">
        <ele>280</ele>
        <time>2022-10-29T12:13:59.000Z</time>
      </trkpt>
      <trkpt lat="47.26974" lon="3.75214">
        <ele>279</ele>
        <time>2022-10-29T12:14:02.000Z</time>
      </trkpt>
      <trkpt lat="47.2698" lon="3.7525">
        <ele>278.20001220703</ele>
        <time>2022-10-29T12:14:05.000Z</time>
      </trkpt>
      <trkpt lat="47.26983" lon="3.75271">
        <ele>278</ele>
        <time>2022-10-29T12:14:07.000Z</time>
      </trkpt>
      <trkpt lat="47.26985" lon="3.75281">
        <ele>278</ele>
        <time>2022-10-29T12:14:08.000Z</time>
      </trkpt>
      <trkpt lat="47.26992" lon="3.75325">
        <ele>278.60000610352</ele>
        <time>2022-10-29T12:14:13.000Z</time>
      </trkpt>
      <trkpt lat="47.26993" lon="3.75334">
        <ele>278.79998779297</ele>
        <time>2022-10-29T12:14:14.000Z</time>
      </trkpt>
      <trkpt lat="47.27001" lon="3.75393">
        <ele>279.20001220703</ele>
        <time>2022-10-29T12:14:21.000Z</time>
      </trkpt>
      <trkpt lat="47.2701" lon="3.75456">
        <ele>280.20001220703</ele>
        <time>2022-10-29T12:14:29.000Z</time>
      </trkpt>
      <trkpt lat="47.27017" lon="3.75508">
        <ele>280.60000610352</ele>
        <time>2022-10-29T12:14:36.000Z</time>
      </trkpt>
      <trkpt lat="47.27024" lon="3.75553">
        <ele>281.20001220703</ele>
        <time>2022-10-29T12:14:42.000Z</time>
      </trkpt>
      <trkpt lat="47.27029" lon="3.75583">
        <ele>281.60000610352</ele>
        <time>2022-10-29T12:14:46.000Z</time>
      </trkpt>
      <trkpt lat="47.27036" lon="3.75653">
        <ele>281.60000610352</ele>
        <time>2022-10-29T12:14:54.000Z</time>
      </trkpt>
      <trkpt lat="47.27047" lon="3.7572">
        <ele>280.79998779297</ele>
        <time>2022-10-29T12:15:01.000Z</time>
      </trkpt>
      <trkpt lat="47.27048" lon="3.75729">
        <ele>280.79998779297</ele>
        <time>2022-10-29T12:15:02.000Z</time>
      </trkpt>
      <trkpt lat="47.27049" lon="3.75739">
        <ele>280.60000610352</ele>
        <time>2022-10-29T12:15:03.000Z</time>
      </trkpt>
      <trkpt lat="47.27049" lon="3.7576">
        <ele>280.39999389648</ele>
        <time>2022-10-29T12:15:05.000Z</time>
      </trkpt>
      <trkpt lat="47.2705" lon="3.75782">
        <ele>280.20001220703</ele>
        <time>2022-10-29T12:15:07.000Z</time>
      </trkpt>
      <trkpt lat="47.27054" lon="3.75824">
        <ele>280</ele>
        <time>2022-10-29T12:15:11.000Z</time>
      </trkpt>
      <trkpt lat="47.27055" lon="3.75835">
        <ele>280</ele>
        <time>2022-10-29T12:15:12.000Z</time>
      </trkpt>
      <trkpt lat="47.27056" lon="3.75844">
        <ele>280</ele>
        <time>2022-10-29T12:15:13.000Z</time>
      </trkpt>
      <trkpt lat="47.27059" lon="3.75852">
        <ele>279.79998779297</ele>
        <time>2022-10-29T12:15:14.000Z</time>
      </trkpt>
      <trkpt lat="47.27064" lon="3.75892">
        <ele>279.39999389648</ele>
        <time>2022-10-29T12:15:18.000Z</time>
      </trkpt>
      <trkpt lat="47.27068" lon="3.75929">
        <ele>279</ele>
        <time>2022-10-29T12:15:22.000Z</time>
      </trkpt>
      <trkpt lat="47.27073" lon="3.75955">
        <ele>278.60000610352</ele>
        <time>2022-10-29T12:15:25.000Z</time>
      </trkpt>
      <trkpt lat="47.27076" lon="3.75965">
        <ele>278.60000610352</ele>
        <time>2022-10-29T12:15:26.000Z</time>
      </trkpt>
      <trkpt lat="47.2708" lon="3.75993">
        <ele>278.20001220703</ele>
        <time>2022-10-29T12:15:29.000Z</time>
      </trkpt>
      <trkpt lat="47.27082" lon="3.7601">
        <ele>278</ele>
        <time>2022-10-29T12:15:31.000Z</time>
      </trkpt>
      <trkpt lat="47.27085" lon="3.76027">
        <ele>278</ele>
        <time>2022-10-29T12:15:33.000Z</time>
      </trkpt>
      <trkpt lat="47.27089" lon="3.76048">
        <ele>277.79998779297</ele>
        <time>2022-10-29T12:15:35.000Z</time>
      </trkpt>
      <trkpt lat="47.27091" lon="3.76068">
        <ele>277.60000610352</ele>
        <time>2022-10-29T12:15:37.000Z</time>
      </trkpt>
      <trkpt lat="47.27096" lon="3.76109">
        <ele>277.20001220703</ele>
        <time>2022-10-29T12:15:41.000Z</time>
      </trkpt>
      <trkpt lat="47.27098" lon="3.76127">
        <ele>277</ele>
        <time>2022-10-29T12:15:43.000Z</time>
      </trkpt>
      <trkpt lat="47.27108" lon="3.76163">
        <ele>276.39999389648</ele>
        <time>2022-10-29T12:15:47.000Z</time>
      </trkpt>
      <trkpt lat="47.27127" lon="3.76211">
        <ele>275.79998779297</ele>
        <time>2022-10-29T12:15:53.000Z</time>
      </trkpt>
      <trkpt lat="47.27158" lon="3.76279">
        <ele>275.60000610352</ele>
        <time>2022-10-29T12:16:02.000Z</time>
      </trkpt>
      <trkpt lat="47.27188" lon="3.76346">
        <ele>275.79998779297</ele>
        <time>2022-10-29T12:16:11.000Z</time>
      </trkpt>
      <trkpt lat="47.27221" lon="3.76417">
        <ele>276.20001220703</ele>
        <time>2022-10-29T12:16:21.000Z</time>
      </trkpt>
      <trkpt lat="47.27243" lon="3.76464">
        <ele>277</ele>
        <time>2022-10-29T12:16:28.000Z</time>
      </trkpt>
      <trkpt lat="47.27252" lon="3.76484">
        <ele>277.20001220703</ele>
        <time>2022-10-29T12:16:31.000Z</time>
      </trkpt>
      <trkpt lat="47.27276" lon="3.76535">
        <ele>277.79998779297</ele>
        <time>2022-10-29T12:16:39.000Z</time>
      </trkpt>
      <trkpt lat="47.27279" lon="3.76542">
        <ele>278</ele>
        <time>2022-10-29T12:16:40.000Z</time>
      </trkpt>
      <trkpt lat="47.27304" lon="3.76598">
        <ele>279.20001220703</ele>
        <time>2022-10-29T12:16:49.000Z</time>
      </trkpt>
      <trkpt lat="47.2731" lon="3.7661">
        <ele>279.39999389648</ele>
        <time>2022-10-29T12:16:51.000Z</time>
      </trkpt>
      <trkpt lat="47.27337" lon="3.76673">
        <ele>280.39999389648</ele>
        <time>2022-10-29T12:17:01.000Z</time>
      </trkpt>
      <trkpt lat="47.27342" lon="3.76685">
        <ele>280.60000610352</ele>
        <time>2022-10-29T12:17:03.000Z</time>
      </trkpt>
      <trkpt lat="47.27359" lon="3.76732">
        <ele>281.60000610352</ele>
        <time>2022-10-29T12:17:10.000Z</time>
      </trkpt>
      <trkpt lat="47.27363" lon="3.76744">
        <ele>281.79998779297</ele>
        <time>2022-10-29T12:17:12.000Z</time>
      </trkpt>
      <trkpt lat="47.2738" lon="3.76803">
        <ele>282.20001220703</ele>
        <time>2022-10-29T12:17:20.000Z</time>
      </trkpt>
      <trkpt lat="47.27396" lon="3.76872">
        <ele>282.39999389648</ele>
        <time>2022-10-29T12:17:29.000Z</time>
      </trkpt>
      <trkpt lat="47.27409" lon="3.76944">
        <ele>282.60000610352</ele>
        <time>2022-10-29T12:17:38.000Z</time>
      </trkpt>
      <trkpt lat="47.27411" lon="3.76952">
        <ele>282.60000610352</ele>
        <time>2022-10-29T12:17:39.000Z</time>
      </trkpt>
      <trkpt lat="47.27429" lon="3.77013">
        <ele>283</ele>
        <time>2022-10-29T12:17:47.000Z</time>
      </trkpt>
      <trkpt lat="47.27452" lon="3.77087">
        <ele>283</ele>
        <time>2022-10-29T12:17:57.000Z</time>
      </trkpt>
      <trkpt lat="47.27454" lon="3.77094">
        <ele>283</ele>
        <time>2022-10-29T12:17:58.000Z</time>
      </trkpt>
      <trkpt lat="47.27467" lon="3.77156">
        <ele>283.60000610352</ele>
        <time>2022-10-29T12:18:06.000Z</time>
      </trkpt>
      <trkpt lat="47.27468" lon="3.77164">
        <ele>283.60000610352</ele>
        <time>2022-10-29T12:18:07.000Z</time>
      </trkpt>
      <trkpt lat="47.27468" lon="3.77213">
        <ele>284</ele>
        <time>2022-10-29T12:18:13.000Z</time>
      </trkpt>
      <trkpt lat="47.27459" lon="3.77269">
        <ele>284.39999389648</ele>
        <time>2022-10-29T12:18:20.000Z</time>
      </trkpt>
      <trkpt lat="47.27441" lon="3.77321">
        <ele>284.60000610352</ele>
        <time>2022-10-29T12:18:27.000Z</time>
      </trkpt>
      <trkpt lat="47.27422" lon="3.77368">
        <ele>284.79998779297</ele>
        <time>2022-10-29T12:18:34.000Z</time>
      </trkpt>
      <trkpt lat="47.2741" lon="3.77398">
        <ele>284.79998779297</ele>
        <time>2022-10-29T12:18:38.000Z</time>
      </trkpt>
      <trkpt lat="47.27382" lon="3.77468">
        <ele>284.60000610352</ele>
        <time>2022-10-29T12:18:47.000Z</time>
      </trkpt>
      <trkpt lat="47.27379" lon="3.77483">
        <ele>284.60000610352</ele>
        <time>2022-10-29T12:18:49.000Z</time>
      </trkpt>
      <trkpt lat="47.27378" lon="3.77509">
        <ele>284.60000610352</ele>
        <time>2022-10-29T12:18:52.000Z</time>
      </trkpt>
      <trkpt lat="47.27384" lon="3.77564">
        <ele>284.79998779297</ele>
        <time>2022-10-29T12:18:59.000Z</time>
      </trkpt>
      <trkpt lat="47.27391" lon="3.77611">
        <ele>285.60000610352</ele>
        <time>2022-10-29T12:19:06.000Z</time>
      </trkpt>
      <trkpt lat="47.27392" lon="3.77619">
        <ele>285.79998779297</ele>
        <time>2022-10-29T12:19:07.000Z</time>
      </trkpt>
      <trkpt lat="47.27394" lon="3.77646">
        <ele>286.60000610352</ele>
        <time>2022-10-29T12:19:11.000Z</time>
      </trkpt>
      <trkpt lat="47.27394" lon="3.7766">
        <ele>286.79998779297</ele>
        <time>2022-10-29T12:19:13.000Z</time>
      </trkpt>
      <trkpt lat="47.27393" lon="3.77667">
        <ele>287</ele>
        <time>2022-10-29T12:19:14.000Z</time>
      </trkpt>
      <trkpt lat="47.27392" lon="3.77673">
        <ele>287.20001220703</ele>
        <time>2022-10-29T12:19:15.000Z</time>
      </trkpt>
      <trkpt lat="47.2739" lon="3.7768">
        <ele>287.20001220703</ele>
        <time>2022-10-29T12:19:16.000Z</time>
      </trkpt>
      <trkpt lat="47.27384" lon="3.77701">
        <ele>287</ele>
        <time>2022-10-29T12:19:19.000Z</time>
      </trkpt>
      <trkpt lat="47.27381" lon="3.77707">
        <ele>287</ele>
        <time>2022-10-29T12:19:20.000Z</time>
      </trkpt>
      <trkpt lat="47.27378" lon="3.77713">
        <ele>287</ele>
        <time>2022-10-29T12:19:21.000Z</time>
      </trkpt>
      <trkpt lat="47.27363" lon="3.77729">
        <ele>287</ele>
        <time>2022-10-29T12:19:24.000Z</time>
      </trkpt>
      <trkpt lat="47.27328" lon="3.77757">
        <ele>286.79998779297</ele>
        <time>2022-10-29T12:19:30.000Z</time>
      </trkpt>
      <trkpt lat="47.27308" lon="3.77774">
        <ele>286.39999389648</ele>
        <time>2022-10-29T12:19:33.000Z</time>
      </trkpt>
      <trkpt lat="47.27297" lon="3.7779">
        <ele>285.79998779297</ele>
        <time>2022-10-29T12:19:35.000Z</time>
      </trkpt>
      <trkpt lat="47.27288" lon="3.7781">
        <ele>285.20001220703</ele>
        <time>2022-10-29T12:19:37.000Z</time>
      </trkpt>
      <trkpt lat="47.27286" lon="3.77821">
        <ele>285</ele>
        <time>2022-10-29T12:19:38.000Z</time>
      </trkpt>
      <trkpt lat="47.27284" lon="3.77831">
        <ele>284.39999389648</ele>
        <time>2022-10-29T12:19:39.000Z</time>
      </trkpt>
      <trkpt lat="47.27283" lon="3.77863">
        <ele>283.39999389648</ele>
        <time>2022-10-29T12:19:42.000Z</time>
      </trkpt>
      <trkpt lat="47.27285" lon="3.77908">
        <ele>283.20001220703</ele>
        <time>2022-10-29T12:19:47.000Z</time>
      </trkpt>
      <trkpt lat="47.27287" lon="3.77954">
        <ele>283.39999389648</ele>
        <time>2022-10-29T12:19:53.000Z</time>
      </trkpt>
      <trkpt lat="47.27287" lon="3.77989">
        <ele>284.39999389648</ele>
        <time>2022-10-29T12:19:58.000Z</time>
      </trkpt>
      <trkpt lat="47.27286" lon="3.77996">
        <ele>284.60000610352</ele>
        <time>2022-10-29T12:19:59.000Z</time>
      </trkpt>
      <trkpt lat="47.27282" lon="3.7801">
        <ele>284.79998779297</ele>
        <time>2022-10-29T12:20:01.000Z</time>
      </trkpt>
      <trkpt lat="47.27274" lon="3.78028">
        <ele>285.20001220703</ele>
        <time>2022-10-29T12:20:04.000Z</time>
      </trkpt>
      <trkpt lat="47.27268" lon="3.78039">
        <ele>285.60000610352</ele>
        <time>2022-10-29T12:20:06.000Z</time>
      </trkpt>
      <trkpt lat="47.27258" lon="3.78056">
        <ele>285.79998779297</ele>
        <time>2022-10-29T12:20:09.000Z</time>
      </trkpt>
      <trkpt lat="47.27254" lon="3.7807">
        <ele>286</ele>
        <time>2022-10-29T12:20:11.000Z</time>
      </trkpt>
      <trkpt lat="47.27253" lon="3.78086">
        <ele>286</ele>
        <time>2022-10-29T12:20:13.000Z</time>
      </trkpt>
      <trkpt lat="47.27255" lon="3.78101">
        <ele>286</ele>
        <time>2022-10-29T12:20:15.000Z</time>
      </trkpt>
      <trkpt lat="47.27257" lon="3.78131">
        <ele>286.20001220703</ele>
        <time>2022-10-29T12:20:19.000Z</time>
      </trkpt>
      <trkpt lat="47.27256" lon="3.78146">
        <ele>286.20001220703</ele>
        <time>2022-10-29T12:20:21.000Z</time>
      </trkpt>
      <trkpt lat="47.27251" lon="3.78165">
        <ele>286.39999389648</ele>
        <time>2022-10-29T12:20:24.000Z</time>
      </trkpt>
      <trkpt lat="47.27245" lon="3.78177">
        <ele>286.60000610352</ele>
        <time>2022-10-29T12:20:26.000Z</time>
      </trkpt>
      <trkpt lat="47.27242" lon="3.78182">
        <ele>286.79998779297</ele>
        <time>2022-10-29T12:20:27.000Z</time>
      </trkpt>
      <trkpt lat="47.27212" lon="3.78224">
        <ele>287.60000610352</ele>
        <time>2022-10-29T12:20:36.000Z</time>
      </trkpt>
      <trkpt lat="47.27209" lon="3.78229">
        <ele>287.60000610352</ele>
        <time>2022-10-29T12:20:37.000Z</time>
      </trkpt>
      <trkpt lat="47.27183" lon="3.78265">
        <ele>287.79998779297</ele>
        <time>2022-10-29T12:20:44.000Z</time>
      </trkpt>
      <trkpt lat="47.27176" lon="3.7828">
        <ele>287.60000610352</ele>
        <time>2022-10-29T12:20:46.000Z</time>
      </trkpt>
      <trkpt lat="47.27171" lon="3.78295">
        <ele>287.39999389648</ele>
        <time>2022-10-29T12:20:48.000Z</time>
      </trkpt>
      <trkpt lat="47.27169" lon="3.78312">
        <ele>287.39999389648</ele>
        <time>2022-10-29T12:20:50.000Z</time>
      </trkpt>
      <trkpt lat="47.27172" lon="3.78336">
        <ele>287.60000610352</ele>
        <time>2022-10-29T12:20:53.000Z</time>
      </trkpt>
      <trkpt lat="47.27175" lon="3.78345">
        <ele>287.60000610352</ele>
        <time>2022-10-29T12:20:54.000Z</time>
      </trkpt>
      <trkpt lat="47.27181" lon="3.78357">
        <ele>287.60000610352</ele>
        <time>2022-10-29T12:20:56.000Z</time>
      </trkpt>
      <trkpt lat="47.27193" lon="3.78385">
        <ele>287.79998779297</ele>
        <time>2022-10-29T12:21:00.000Z</time>
      </trkpt>
      <trkpt lat="47.27207" lon="3.78416">
        <ele>288.39999389648</ele>
        <time>2022-10-29T12:21:06.000Z</time>
      </trkpt>
      <trkpt lat="47.27209" lon="3.78421">
        <ele>288.79998779297</ele>
        <time>2022-10-29T12:21:07.000Z</time>
      </trkpt>
      <trkpt lat="47.2722" lon="3.78445">
        <ele>289.79998779297</ele>
        <time>2022-10-29T12:21:12.000Z</time>
      </trkpt>
      <trkpt lat="47.27222" lon="3.7845">
        <ele>289.60000610352</ele>
        <time>2022-10-29T12:21:13.000Z</time>
      </trkpt>
      <trkpt lat="47.2723" lon="3.78469">
        <ele>290.60000610352</ele>
        <time>2022-10-29T12:21:17.000Z</time>
      </trkpt>
      <trkpt lat="47.27234" lon="3.78477">
        <ele>291.20001220703</ele>
        <time>2022-10-29T12:21:19.000Z</time>
      </trkpt>
      <trkpt lat="47.27241" lon="3.78491">
        <ele>291.79998779297</ele>
        <time>2022-10-29T12:21:22.000Z</time>
      </trkpt>
      <trkpt lat="47.2725" lon="3.78508">
        <ele>293</ele>
        <time>2022-10-29T12:21:26.000Z</time>
      </trkpt>
      <trkpt lat="47.27252" lon="3.78512">
        <ele>293</ele>
        <time>2022-10-29T12:21:27.000Z</time>
      </trkpt>
      <trkpt lat="47.27271" lon="3.78548">
        <ele>294.20001220703</ele>
        <time>2022-10-29T12:21:35.000Z</time>
      </trkpt>
      <trkpt lat="47.27273" lon="3.78552">
        <ele>294.39999389648</ele>
        <time>2022-10-29T12:21:36.000Z</time>
      </trkpt>
      <trkpt lat="47.27284" lon="3.78568">
        <ele>295.20001220703</ele>
        <time>2022-10-29T12:21:40.000Z</time>
      </trkpt>
      <trkpt lat="47.27299" lon="3.78593">
        <ele>296.60000610352</ele>
        <time>2022-10-29T12:21:46.000Z</time>
      </trkpt>
      <trkpt lat="47.27301" lon="3.78597">
        <ele>296.79998779297</ele>
        <time>2022-10-29T12:21:47.000Z</time>
      </trkpt>
      <trkpt lat="47.2731" lon="3.78613">
        <ele>297.79998779297</ele>
        <time>2022-10-29T12:21:51.000Z</time>
      </trkpt>
      <trkpt lat="47.27324" lon="3.78636">
        <ele>299</ele>
        <time>2022-10-29T12:21:57.000Z</time>
      </trkpt>
      <trkpt lat="47.27333" lon="3.78651">
        <ele>300</ele>
        <time>2022-10-29T12:22:01.000Z</time>
      </trkpt>
      <trkpt lat="47.27347" lon="3.78674">
        <ele>301</ele>
        <time>2022-10-29T12:22:07.000Z</time>
      </trkpt>
      <trkpt lat="47.27349" lon="3.78679">
        <ele>301.20001220703</ele>
        <time>2022-10-29T12:22:08.000Z</time>
      </trkpt>
      <trkpt lat="47.27365" lon="3.78703">
        <ele>302.20001220703</ele>
        <time>2022-10-29T12:22:15.000Z</time>
      </trkpt>
      <trkpt lat="47.27378" lon="3.78731">
        <ele>303.20001220703</ele>
        <time>2022-10-29T12:22:22.000Z</time>
      </trkpt>
      <trkpt lat="47.27381" lon="3.78739">
        <ele>303.39999389648</ele>
        <time>2022-10-29T12:22:24.000Z</time>
      </trkpt>
      <trkpt lat="47.27386" lon="3.78765">
        <ele>304.20001220703</ele>
        <time>2022-10-29T12:22:30.000Z</time>
      </trkpt>
      <trkpt lat="47.27386" lon="3.78778">
        <ele>304.60000610352</ele>
        <time>2022-10-29T12:22:33.000Z</time>
      </trkpt>
      <trkpt lat="47.27386" lon="3.78792">
        <ele>305</ele>
        <time>2022-10-29T12:22:36.000Z</time>
      </trkpt>
      <trkpt lat="47.27384" lon="3.78813">
        <ele>305.79998779297</ele>
        <time>2022-10-29T12:22:41.000Z</time>
      </trkpt>
      <trkpt lat="47.27384" lon="3.78817">
        <ele>306</ele>
        <time>2022-10-29T12:22:42.000Z</time>
      </trkpt>
      <trkpt lat="47.27382" lon="3.78847">
        <ele>306.79998779297</ele>
        <time>2022-10-29T12:22:49.000Z</time>
      </trkpt>
      <trkpt lat="47.27379" lon="3.78887">
        <ele>307.79998779297</ele>
        <time>2022-10-29T12:22:58.000Z</time>
      </trkpt>
      <trkpt lat="47.27379" lon="3.78893">
        <ele>308</ele>
        <time>2022-10-29T12:22:59.000Z</time>
      </trkpt>
      <trkpt lat="47.27378" lon="3.78918">
        <ele>308.39999389648</ele>
        <time>2022-10-29T12:23:03.000Z</time>
      </trkpt>
      <trkpt lat="47.27376" lon="3.78952">
        <ele>308.60000610352</ele>
        <time>2022-10-29T12:23:08.000Z</time>
      </trkpt>
      <trkpt lat="47.27376" lon="3.78965">
        <ele>308.79998779297</ele>
        <time>2022-10-29T12:23:10.000Z</time>
      </trkpt>
      <trkpt lat="47.27375" lon="3.79019">
        <ele>308.79998779297</ele>
        <time>2022-10-29T12:23:17.000Z</time>
      </trkpt>
      <trkpt lat="47.27372" lon="3.79071">
        <ele>308.60000610352</ele>
        <time>2022-10-29T12:23:24.000Z</time>
      </trkpt>
      <trkpt lat="47.2737" lon="3.79131">
        <ele>308.39999389648</ele>
        <time>2022-10-29T12:23:31.000Z</time>
      </trkpt>
      <trkpt lat="47.27367" lon="3.79209">
        <ele>307.60000610352</ele>
        <time>2022-10-29T12:23:39.000Z</time>
      </trkpt>
      <trkpt lat="47.27366" lon="3.7924">
        <ele>306.79998779297</ele>
        <time>2022-10-29T12:23:42.000Z</time>
      </trkpt>
      <trkpt lat="47.27363" lon="3.79296">
        <ele>306.39999389648</ele>
        <time>2022-10-29T12:23:48.000Z</time>
      </trkpt>
      <trkpt lat="47.27362" lon="3.79338">
        <ele>306.79998779297</ele>
        <time>2022-10-29T12:23:53.000Z</time>
      </trkpt>
      <trkpt lat="47.27361" lon="3.79364">
        <ele>307.20001220703</ele>
        <time>2022-10-29T12:23:57.000Z</time>
      </trkpt>
      <trkpt lat="47.2736" lon="3.79384">
        <ele>307.79998779297</ele>
        <time>2022-10-29T12:24:00.000Z</time>
      </trkpt>
      <trkpt lat="47.27359" lon="3.79409">
        <ele>308.39999389648</ele>
        <time>2022-10-29T12:24:04.000Z</time>
      </trkpt>
      <trkpt lat="47.27359" lon="3.79438">
        <ele>309</ele>
        <time>2022-10-29T12:24:09.000Z</time>
      </trkpt>
      <trkpt lat="47.27358" lon="3.79461">
        <ele>309.60000610352</ele>
        <time>2022-10-29T12:24:13.000Z</time>
      </trkpt>
      <trkpt lat="47.27357" lon="3.79482">
        <ele>310.20001220703</ele>
        <time>2022-10-29T12:24:17.000Z</time>
      </trkpt>
      <trkpt lat="47.27356" lon="3.79492">
        <ele>310.60000610352</ele>
        <time>2022-10-29T12:24:19.000Z</time>
      </trkpt>
      <trkpt lat="47.27348" lon="3.79525">
        <ele>311.20001220703</ele>
        <time>2022-10-29T12:24:25.000Z</time>
      </trkpt>
      <trkpt lat="47.27346" lon="3.7953">
        <ele>311.39999389648</ele>
        <time>2022-10-29T12:24:26.000Z</time>
      </trkpt>
      <trkpt lat="47.27324" lon="3.7957">
        <ele>312</ele>
        <time>2022-10-29T12:24:34.000Z</time>
      </trkpt>
      <trkpt lat="47.27308" lon="3.79613">
        <ele>312.20001220703</ele>
        <time>2022-10-29T12:24:41.000Z</time>
      </trkpt>
      <trkpt lat="47.27289" lon="3.7967">
        <ele>311.79998779297</ele>
        <time>2022-10-29T12:24:49.000Z</time>
      </trkpt>
      <trkpt lat="47.27265" lon="3.79742">
        <ele>311.39999389648</ele>
        <time>2022-10-29T12:24:59.000Z</time>
      </trkpt>
      <trkpt lat="47.27261" lon="3.79764">
        <ele>311.39999389648</ele>
        <time>2022-10-29T12:25:02.000Z</time>
      </trkpt>
      <trkpt lat="47.27261" lon="3.7978">
        <ele>311.39999389648</ele>
        <time>2022-10-29T12:25:04.000Z</time>
      </trkpt>
      <trkpt lat="47.27262" lon="3.79794">
        <ele>311.39999389648</ele>
        <time>2022-10-29T12:25:06.000Z</time>
      </trkpt>
      <trkpt lat="47.27267" lon="3.79811">
        <ele>311.20001220703</ele>
        <time>2022-10-29T12:25:08.000Z</time>
      </trkpt>
      <trkpt lat="47.27275" lon="3.79841">
        <ele>310.60000610352</ele>
        <time>2022-10-29T12:25:12.000Z</time>
      </trkpt>
      <trkpt lat="47.27277" lon="3.79855">
        <ele>310.60000610352</ele>
        <time>2022-10-29T12:25:14.000Z</time>
      </trkpt>
      <trkpt lat="47.27277" lon="3.79862">
        <ele>310.60000610352</ele>
        <time>2022-10-29T12:25:15.000Z</time>
      </trkpt>
      <trkpt lat="47.27277" lon="3.79884">
        <ele>310.79998779297</ele>
        <time>2022-10-29T12:25:18.000Z</time>
      </trkpt>
      <trkpt lat="47.27278" lon="3.79897">
        <ele>311</ele>
        <time>2022-10-29T12:25:20.000Z</time>
      </trkpt>
      <trkpt lat="47.2728" lon="3.79905">
        <ele>311</ele>
        <time>2022-10-29T12:25:21.000Z</time>
      </trkpt>
      <trkpt lat="47.27283" lon="3.79917">
        <ele>311.20001220703</ele>
        <time>2022-10-29T12:25:23.000Z</time>
      </trkpt>
      <trkpt lat="47.27287" lon="3.79929">
        <ele>311.39999389648</ele>
        <time>2022-10-29T12:25:25.000Z</time>
      </trkpt>
      <trkpt lat="47.27292" lon="3.7994">
        <ele>311.60000610352</ele>
        <time>2022-10-29T12:25:27.000Z</time>
      </trkpt>
      <trkpt lat="47.273" lon="3.79951">
        <ele>312</ele>
        <time>2022-10-29T12:25:30.000Z</time>
      </trkpt>
      <trkpt lat="47.27303" lon="3.79955">
        <ele>312.20001220703</ele>
        <time>2022-10-29T12:25:31.000Z</time>
      </trkpt>
      <trkpt lat="47.27313" lon="3.79959">
        <ele>313.20001220703</ele>
        <time>2022-10-29T12:25:34.000Z</time>
      </trkpt>
      <trkpt lat="47.27317" lon="3.79959">
        <ele>313.39999389648</ele>
        <time>2022-10-29T12:25:35.000Z</time>
      </trkpt>
      <trkpt lat="47.2733" lon="3.79952">
        <ele>314.39999389648</ele>
        <time>2022-10-29T12:25:39.000Z</time>
      </trkpt>
      <trkpt lat="47.27345" lon="3.79932">
        <ele>315.20001220703</ele>
        <time>2022-10-29T12:25:45.000Z</time>
      </trkpt>
      <trkpt lat="47.27349" lon="3.79925">
        <ele>315.39999389648</ele>
        <time>2022-10-29T12:25:47.000Z</time>
      </trkpt>
      <trkpt lat="47.27363" lon="3.79905">
        <ele>316.39999389648</ele>
        <time>2022-10-29T12:25:53.000Z</time>
      </trkpt>
      <trkpt lat="47.27365" lon="3.79902">
        <ele>316.60000610352</ele>
        <time>2022-10-29T12:25:54.000Z</time>
      </trkpt>
      <trkpt lat="47.27381" lon="3.79896">
        <ele>317.39999389648</ele>
        <time>2022-10-29T12:25:59.000Z</time>
      </trkpt>
      <trkpt lat="47.27384" lon="3.79897">
        <ele>317.79998779297</ele>
        <time>2022-10-29T12:26:00.000Z</time>
      </trkpt>
      <trkpt lat="47.27396" lon="3.79906">
        <ele>318.79998779297</ele>
        <time>2022-10-29T12:26:04.000Z</time>
      </trkpt>
      <trkpt lat="47.27402" lon="3.79915">
        <ele>320</ele>
        <time>2022-10-29T12:26:07.000Z</time>
      </trkpt>
      <trkpt lat="47.27405" lon="3.79924">
        <ele>320.39999389648</ele>
        <time>2022-10-29T12:26:09.000Z</time>
      </trkpt>
      <trkpt lat="47.27408" lon="3.79937">
        <ele>321.20001220703</ele>
        <time>2022-10-29T12:26:12.000Z</time>
      </trkpt>
      <trkpt lat="47.27408" lon="3.79955">
        <ele>321.79998779297</ele>
        <time>2022-10-29T12:26:16.000Z</time>
      </trkpt>
      <trkpt lat="47.27408" lon="3.79963">
        <ele>322.20001220703</ele>
        <time>2022-10-29T12:26:18.000Z</time>
      </trkpt>
      <trkpt lat="47.27408" lon="3.79982">
        <ele>323</ele>
        <time>2022-10-29T12:26:23.000Z</time>
      </trkpt>
      <trkpt lat="47.27408" lon="3.79986">
        <ele>323.20001220703</ele>
        <time>2022-10-29T12:26:24.000Z</time>
      </trkpt>
      <trkpt lat="47.27408" lon="3.79991">
        <ele>323.39999389648</ele>
        <time>2022-10-29T12:26:25.000Z</time>
      </trkpt>
      <trkpt lat="47.27409" lon="3.80012">
        <ele>324.20001220703</ele>
        <time>2022-10-29T12:26:30.000Z</time>
      </trkpt>
      <trkpt lat="47.2741" lon="3.80021">
        <ele>324.60000610352</ele>
        <time>2022-10-29T12:26:32.000Z</time>
      </trkpt>
      <trkpt lat="47.27412" lon="3.80047">
        <ele>325.39999389648</ele>
        <time>2022-10-29T12:26:38.000Z</time>
      </trkpt>
      <trkpt lat="47.27413" lon="3.80053">
        <ele>325.60000610352</ele>
        <time>2022-10-29T12:26:39.000Z</time>
      </trkpt>
      <trkpt lat="47.27414" lon="3.80075">
        <ele>326.79998779297</ele>
        <time>2022-10-29T12:26:44.000Z</time>
      </trkpt>
      <trkpt lat="47.27415" lon="3.80079">
        <ele>326.79998779297</ele>
        <time>2022-10-29T12:26:45.000Z</time>
      </trkpt>
      <trkpt lat="47.27417" lon="3.80096">
        <ele>328</ele>
        <time>2022-10-29T12:26:49.000Z</time>
      </trkpt>
      <trkpt lat="47.27423" lon="3.8012">
        <ele>329</ele>
        <time>2022-10-29T12:26:54.000Z</time>
      </trkpt>
      <trkpt lat="47.27424" lon="3.80128">
        <ele>329.20001220703</ele>
        <time>2022-10-29T12:26:56.000Z</time>
      </trkpt>
      <trkpt lat="47.27429" lon="3.8015">
        <ele>330.20001220703</ele>
        <time>2022-10-29T12:27:01.000Z</time>
      </trkpt>
      <trkpt lat="47.27432" lon="3.80167">
        <ele>331</ele>
        <time>2022-10-29T12:27:05.000Z</time>
      </trkpt>
      <trkpt lat="47.27433" lon="3.80171">
        <ele>331.39999389648</ele>
        <time>2022-10-29T12:27:06.000Z</time>
      </trkpt>
      <trkpt lat="47.2744" lon="3.80203">
        <ele>332.39999389648</ele>
        <time>2022-10-29T12:27:13.000Z</time>
      </trkpt>
      <trkpt lat="47.27441" lon="3.80207">
        <ele>332.60000610352</ele>
        <time>2022-10-29T12:27:14.000Z</time>
      </trkpt>
      <trkpt lat="47.27447" lon="3.80233">
        <ele>333.60000610352</ele>
        <time>2022-10-29T12:27:20.000Z</time>
      </trkpt>
      <trkpt lat="47.27452" lon="3.80256">
        <ele>334</ele>
        <time>2022-10-29T12:27:25.000Z</time>
      </trkpt>
      <trkpt lat="47.27456" lon="3.80279">
        <ele>334.60000610352</ele>
        <time>2022-10-29T12:27:30.000Z</time>
      </trkpt>
      <trkpt lat="47.27461" lon="3.80304">
        <ele>335.20001220703</ele>
        <time>2022-10-29T12:27:35.000Z</time>
      </trkpt>
      <trkpt lat="47.27465" lon="3.80326">
        <ele>335.60000610352</ele>
        <time>2022-10-29T12:27:39.000Z</time>
      </trkpt>
      <trkpt lat="47.27471" lon="3.80355">
        <ele>336.60000610352</ele>
        <time>2022-10-29T12:27:45.000Z</time>
      </trkpt>
      <trkpt lat="47.27478" lon="3.80388">
        <ele>337.79998779297</ele>
        <time>2022-10-29T12:27:52.000Z</time>
      </trkpt>
      <trkpt lat="47.27484" lon="3.80418">
        <ele>338.60000610352</ele>
        <time>2022-10-29T12:27:58.000Z</time>
      </trkpt>
      <trkpt lat="47.27488" lon="3.80433">
        <ele>339</ele>
        <time>2022-10-29T12:28:01.000Z</time>
      </trkpt>
      <trkpt lat="47.27492" lon="3.80444">
        <ele>339.20001220703</ele>
        <time>2022-10-29T12:28:03.000Z</time>
      </trkpt>
      <trkpt lat="47.27506" lon="3.80466">
        <ele>340</ele>
        <time>2022-10-29T12:28:09.000Z</time>
      </trkpt>
      <trkpt lat="47.27523" lon="3.80477">
        <ele>341</ele>
        <time>2022-10-29T12:28:15.000Z</time>
      </trkpt>
      <trkpt lat="47.27527" lon="3.80477">
        <ele>341.20001220703</ele>
        <time>2022-10-29T12:28:16.000Z</time>
      </trkpt>
      <trkpt lat="47.27548" lon="3.80473">
        <ele>341.60000610352</ele>
        <time>2022-10-29T12:28:22.000Z</time>
      </trkpt>
      <trkpt lat="47.27566" lon="3.80467">
        <ele>341.79998779297</ele>
        <time>2022-10-29T12:28:27.000Z</time>
      </trkpt>
      <trkpt lat="47.2757" lon="3.80466">
        <ele>342</ele>
        <time>2022-10-29T12:28:28.000Z</time>
      </trkpt>
      <trkpt lat="47.27588" lon="3.80467">
        <ele>342.39999389648</ele>
        <time>2022-10-29T12:28:33.000Z</time>
      </trkpt>
      <trkpt lat="47.2761" lon="3.80474">
        <ele>343</ele>
        <time>2022-10-29T12:28:38.000Z</time>
      </trkpt>
      <trkpt lat="47.27618" lon="3.8048">
        <ele>343.20001220703</ele>
        <time>2022-10-29T12:28:40.000Z</time>
      </trkpt>
      <trkpt lat="47.27646" lon="3.80491">
        <ele>344</ele>
        <time>2022-10-29T12:28:46.000Z</time>
      </trkpt>
      <trkpt lat="47.2765" lon="3.80494">
        <ele>344</ele>
        <time>2022-10-29T12:28:47.000Z</time>
      </trkpt>
      <trkpt lat="47.27675" lon="3.80508">
        <ele>345</ele>
        <time>2022-10-29T12:28:54.000Z</time>
      </trkpt>
      <trkpt lat="47.27679" lon="3.80511">
        <ele>345.20001220703</ele>
        <time>2022-10-29T12:28:55.000Z</time>
      </trkpt>
      <trkpt lat="47.27698" lon="3.80524">
        <ele>346</ele>
        <time>2022-10-29T12:29:00.000Z</time>
      </trkpt>
      <trkpt lat="47.27704" lon="3.80529">
        <ele>346.20001220703</ele>
        <time>2022-10-29T12:29:02.000Z</time>
      </trkpt>
      <trkpt lat="47.27723" lon="3.80542">
        <ele>347</ele>
        <time>2022-10-29T12:29:07.000Z</time>
      </trkpt>
      <trkpt lat="47.27732" lon="3.80544">
        <ele>347.39999389648</ele>
        <time>2022-10-29T12:29:09.000Z</time>
      </trkpt>
      <trkpt lat="47.27749" lon="3.80541">
        <ele>348</ele>
        <time>2022-10-29T12:29:13.000Z</time>
      </trkpt>
      <trkpt lat="47.27762" lon="3.80533">
        <ele>348.60000610352</ele>
        <time>2022-10-29T12:29:16.000Z</time>
      </trkpt>
      <trkpt lat="47.27772" lon="3.80525">
        <ele>348.79998779297</ele>
        <time>2022-10-29T12:29:18.000Z</time>
      </trkpt>
      <trkpt lat="47.2779" lon="3.8051">
        <ele>349.39999389648</ele>
        <time>2022-10-29T12:29:22.000Z</time>
      </trkpt>
      <trkpt lat="47.27796" lon="3.80506">
        <ele>349.39999389648</ele>
        <time>2022-10-29T12:29:23.000Z</time>
      </trkpt>
      <trkpt lat="47.27806" lon="3.80499">
        <ele>349.60000610352</ele>
        <time>2022-10-29T12:29:26.000Z</time>
      </trkpt>
      <trkpt lat="47.2781" lon="3.80496">
        <ele>349.79998779297</ele>
        <time>2022-10-29T12:29:28.000Z</time>
      </trkpt>
      <trkpt lat="47.27817" lon="3.80499">
        <ele>349.79998779297</ele>
        <time>2022-10-29T12:29:30.000Z</time>
      </trkpt>
      <trkpt lat="47.2783" lon="3.80509">
        <ele>350.39999389648</ele>
        <time>2022-10-29T12:29:34.000Z</time>
      </trkpt>
      <trkpt lat="47.27832" lon="3.80513">
        <ele>350.60000610352</ele>
        <time>2022-10-29T12:29:35.000Z</time>
      </trkpt>
      <trkpt lat="47.27845" lon="3.80536">
        <ele>351.79998779297</ele>
        <time>2022-10-29T12:29:40.000Z</time>
      </trkpt>
      <trkpt lat="47.27846" lon="3.80539">
        <ele>351.79998779297</ele>
        <time>2022-10-29T12:29:41.000Z</time>
      </trkpt>
      <trkpt lat="47.27853" lon="3.80562">
        <ele>352.79998779297</ele>
        <time>2022-10-29T12:29:45.000Z</time>
      </trkpt>
      <trkpt lat="47.27855" lon="3.80575">
        <ele>353.20001220703</ele>
        <time>2022-10-29T12:29:47.000Z</time>
      </trkpt>
      <trkpt lat="47.27857" lon="3.80605">
        <ele>354</ele>
        <time>2022-10-29T12:29:52.000Z</time>
      </trkpt>
      <trkpt lat="47.27858" lon="3.80643">
        <ele>355</ele>
        <time>2022-10-29T12:29:58.000Z</time>
      </trkpt>
      <trkpt lat="47.27858" lon="3.80655">
        <ele>355.20001220703</ele>
        <time>2022-10-29T12:30:00.000Z</time>
      </trkpt>
      <trkpt lat="47.27851" lon="3.80686">
        <ele>355.79998779297</ele>
        <time>2022-10-29T12:30:06.000Z</time>
      </trkpt>
      <trkpt lat="47.27848" lon="3.80702">
        <ele>356.20001220703</ele>
        <time>2022-10-29T12:30:09.000Z</time>
      </trkpt>
      <trkpt lat="47.27848" lon="3.80718">
        <ele>356.60000610352</ele>
        <time>2022-10-29T12:30:12.000Z</time>
      </trkpt>
      <trkpt lat="47.27847" lon="3.8073">
        <ele>357.20001220703</ele>
        <time>2022-10-29T12:30:14.000Z</time>
      </trkpt>
      <trkpt lat="47.27843" lon="3.80755">
        <ele>358.39999389648</ele>
        <time>2022-10-29T12:30:18.000Z</time>
      </trkpt>
      <trkpt lat="47.27841" lon="3.80782">
        <ele>359.39999389648</ele>
        <time>2022-10-29T12:30:23.000Z</time>
      </trkpt>
      <trkpt lat="47.2784" lon="3.80792">
        <ele>359.60000610352</ele>
        <time>2022-10-29T12:30:25.000Z</time>
      </trkpt>
      <trkpt lat="47.27833" lon="3.8081">
        <ele>360.20001220703</ele>
        <time>2022-10-29T12:30:29.000Z</time>
      </trkpt>
      <trkpt lat="47.27829" lon="3.80814">
        <ele>360.39999389648</ele>
        <time>2022-10-29T12:30:30.000Z</time>
      </trkpt>
      <trkpt lat="47.27813" lon="3.80829">
        <ele>361.60000610352</ele>
        <time>2022-10-29T12:30:36.000Z</time>
      </trkpt>
      <trkpt lat="47.27798" lon="3.80845">
        <ele>362.79998779297</ele>
        <time>2022-10-29T12:30:42.000Z</time>
      </trkpt>
      <trkpt lat="47.27795" lon="3.80848">
        <ele>363.20001220703</ele>
        <time>2022-10-29T12:30:43.000Z</time>
      </trkpt>
      <trkpt lat="47.27785" lon="3.80868">
        <ele>363.79998779297</ele>
        <time>2022-10-29T12:30:47.000Z</time>
      </trkpt>
      <trkpt lat="47.27781" lon="3.80879">
        <ele>364.20001220703</ele>
        <time>2022-10-29T12:30:49.000Z</time>
      </trkpt>
      <trkpt lat="47.27777" lon="3.80905">
        <ele>365</ele>
        <time>2022-10-29T12:30:53.000Z</time>
      </trkpt>
      <trkpt lat="47.27778" lon="3.80911">
        <ele>365.20001220703</ele>
        <time>2022-10-29T12:30:54.000Z</time>
      </trkpt>
      <trkpt lat="47.27782" lon="3.80933">
        <ele>366.20001220703</ele>
        <time>2022-10-29T12:30:58.000Z</time>
      </trkpt>
      <trkpt lat="47.27786" lon="3.80942">
        <ele>366.60000610352</ele>
        <time>2022-10-29T12:31:00.000Z</time>
      </trkpt>
      <trkpt lat="47.27795" lon="3.80959">
        <ele>367.39999389648</ele>
        <time>2022-10-29T12:31:04.000Z</time>
      </trkpt>
      <trkpt lat="47.27797" lon="3.80961">
        <ele>367.60000610352</ele>
        <time>2022-10-29T12:31:05.000Z</time>
      </trkpt>
      <trkpt lat="47.27809" lon="3.80977">
        <ele>368.60000610352</ele>
        <time>2022-10-29T12:31:09.000Z</time>
      </trkpt>
      <trkpt lat="47.27817" lon="3.80987">
        <ele>369.20001220703</ele>
        <time>2022-10-29T12:31:12.000Z</time>
      </trkpt>
      <trkpt lat="47.27824" lon="3.80996">
        <ele>369.79998779297</ele>
        <time>2022-10-29T12:31:15.000Z</time>
      </trkpt>
      <trkpt lat="47.27831" lon="3.81001">
        <ele>370.39999389648</ele>
        <time>2022-10-29T12:31:17.000Z</time>
      </trkpt>
      <trkpt lat="47.27837" lon="3.81008">
        <ele>370.79998779297</ele>
        <time>2022-10-29T12:31:19.000Z</time>
      </trkpt>
      <trkpt lat="47.27843" lon="3.81012">
        <ele>371</ele>
        <time>2022-10-29T12:31:21.000Z</time>
      </trkpt>
      <trkpt lat="47.2786" lon="3.81016">
        <ele>371.60000610352</ele>
        <time>2022-10-29T12:31:26.000Z</time>
      </trkpt>
      <trkpt lat="47.2789" lon="3.81019">
        <ele>372.60000610352</ele>
        <time>2022-10-29T12:31:32.000Z</time>
      </trkpt>
      <trkpt lat="47.27893" lon="3.8102">
        <ele>372.79998779297</ele>
        <time>2022-10-29T12:31:33.000Z</time>
      </trkpt>
      <trkpt lat="47.27918" lon="3.81029">
        <ele>373.39999389648</ele>
        <time>2022-10-29T12:31:39.000Z</time>
      </trkpt>
      <trkpt lat="47.27936" lon="3.81033">
        <ele>373.79998779297</ele>
        <time>2022-10-29T12:31:43.000Z</time>
      </trkpt>
      <trkpt lat="47.27949" lon="3.8104">
        <ele>374.39999389648</ele>
        <time>2022-10-29T12:31:46.000Z</time>
      </trkpt>
      <trkpt lat="47.27959" lon="3.81044">
        <ele>374.79998779297</ele>
        <time>2022-10-29T12:31:49.000Z</time>
      </trkpt>
      <trkpt lat="47.2798" lon="3.81054">
        <ele>375.79998779297</ele>
        <time>2022-10-29T12:31:55.000Z</time>
      </trkpt>
      <trkpt lat="47.27983" lon="3.81056">
        <ele>375.79998779297</ele>
        <time>2022-10-29T12:31:56.000Z</time>
      </trkpt>
      <trkpt lat="47.28" lon="3.81067">
        <ele>376.79998779297</ele>
        <time>2022-10-29T12:32:01.000Z</time>
      </trkpt>
      <trkpt lat="47.28007" lon="3.81073">
        <ele>377.20001220703</ele>
        <time>2022-10-29T12:32:03.000Z</time>
      </trkpt>
      <trkpt lat="47.28023" lon="3.8109">
        <ele>377.79998779297</ele>
        <time>2022-10-29T12:32:08.000Z</time>
      </trkpt>
      <trkpt lat="47.28032" lon="3.811">
        <ele>378.20001220703</ele>
        <time>2022-10-29T12:32:11.000Z</time>
      </trkpt>
      <trkpt lat="47.28043" lon="3.81112">
        <ele>378.60000610352</ele>
        <time>2022-10-29T12:32:14.000Z</time>
      </trkpt>
      <trkpt lat="47.28054" lon="3.81122">
        <ele>379.20001220703</ele>
        <time>2022-10-29T12:32:17.000Z</time>
      </trkpt>
      <trkpt lat="47.28061" lon="3.81133">
        <ele>379.60000610352</ele>
        <time>2022-10-29T12:32:20.000Z</time>
      </trkpt>
      <trkpt lat="47.28071" lon="3.81149">
        <ele>380</ele>
        <time>2022-10-29T12:32:24.000Z</time>
      </trkpt>
      <trkpt lat="47.28073" lon="3.81153">
        <ele>380.39999389648</ele>
        <time>2022-10-29T12:32:25.000Z</time>
      </trkpt>
      <trkpt lat="47.2808" lon="3.81178">
        <ele>380.79998779297</ele>
        <time>2022-10-29T12:32:29.000Z</time>
      </trkpt>
      <trkpt lat="47.28081" lon="3.81194">
        <ele>381.39999389648</ele>
        <time>2022-10-29T12:32:32.000Z</time>
      </trkpt>
      <trkpt lat="47.28085" lon="3.81215">
        <ele>382.20001220703</ele>
        <time>2022-10-29T12:32:36.000Z</time>
      </trkpt>
      <trkpt lat="47.28087" lon="3.81226">
        <ele>382.79998779297</ele>
        <time>2022-10-29T12:32:38.000Z</time>
      </trkpt>
      <trkpt lat="47.28091" lon="3.81237">
        <ele>383</ele>
        <time>2022-10-29T12:32:40.000Z</time>
      </trkpt>
      <trkpt lat="47.28099" lon="3.81251">
        <ele>384</ele>
        <time>2022-10-29T12:32:43.000Z</time>
      </trkpt>
      <trkpt lat="47.28105" lon="3.81258">
        <ele>384.39999389648</ele>
        <time>2022-10-29T12:32:45.000Z</time>
      </trkpt>
      <trkpt lat="47.2812" lon="3.81263">
        <ele>385</ele>
        <time>2022-10-29T12:32:49.000Z</time>
      </trkpt>
      <trkpt lat="47.28148" lon="3.81257">
        <ele>386</ele>
        <time>2022-10-29T12:32:55.000Z</time>
      </trkpt>
      <trkpt lat="47.28169" lon="3.81245">
        <ele>387</ele>
        <time>2022-10-29T12:33:01.000Z</time>
      </trkpt>
      <trkpt lat="47.28184" lon="3.81239">
        <ele>387.60000610352</ele>
        <time>2022-10-29T12:33:07.000Z</time>
      </trkpt>
      <trkpt lat="47.28193" lon="3.81235">
        <ele>387.79998779297</ele>
        <time>2022-10-29T12:33:10.000Z</time>
      </trkpt>
      <trkpt lat="47.28211" lon="3.81232">
        <ele>388.60000610352</ele>
        <time>2022-10-29T12:33:15.000Z</time>
      </trkpt>
      <trkpt lat="47.28216" lon="3.81232">
        <ele>389</ele>
        <time>2022-10-29T12:33:16.000Z</time>
      </trkpt>
      <trkpt lat="47.28243" lon="3.81232">
        <ele>390</ele>
        <time>2022-10-29T12:33:23.000Z</time>
      </trkpt>
      <trkpt lat="47.28246" lon="3.81234">
        <ele>390.20001220703</ele>
        <time>2022-10-29T12:33:24.000Z</time>
      </trkpt>
      <trkpt lat="47.28266" lon="3.81239">
        <ele>391</ele>
        <time>2022-10-29T12:33:30.000Z</time>
      </trkpt>
      <trkpt lat="47.28268" lon="3.81239">
        <ele>391.20001220703</ele>
        <time>2022-10-29T12:33:31.000Z</time>
      </trkpt>
      <trkpt lat="47.2829" lon="3.81235">
        <ele>392.20001220703</ele>
        <time>2022-10-29T12:33:37.000Z</time>
      </trkpt>
      <trkpt lat="47.28319" lon="3.81223">
        <ele>393.20001220703</ele>
        <time>2022-10-29T12:33:44.000Z</time>
      </trkpt>
      <trkpt lat="47.28339" lon="3.8121">
        <ele>394</ele>
        <time>2022-10-29T12:33:50.000Z</time>
      </trkpt>
      <trkpt lat="47.28343" lon="3.81207">
        <ele>394</ele>
        <time>2022-10-29T12:33:51.000Z</time>
      </trkpt>
      <trkpt lat="47.28372" lon="3.81194">
        <ele>395</ele>
        <time>2022-10-29T12:33:57.000Z</time>
      </trkpt>
      <trkpt lat="47.28378" lon="3.81191">
        <ele>395.20001220703</ele>
        <time>2022-10-29T12:33:58.000Z</time>
      </trkpt>
      <trkpt lat="47.28395" lon="3.81181">
        <ele>395.79998779297</ele>
        <time>2022-10-29T12:34:03.000Z</time>
      </trkpt>
      <trkpt lat="47.28402" lon="3.81177">
        <ele>396.39999389648</ele>
        <time>2022-10-29T12:34:06.000Z</time>
      </trkpt>
      <trkpt lat="47.28409" lon="3.81174">
        <ele>396.79998779297</ele>
        <time>2022-10-29T12:34:08.000Z</time>
      </trkpt>
      <trkpt lat="47.28423" lon="3.8117">
        <ele>397.39999389648</ele>
        <time>2022-10-29T12:34:12.000Z</time>
      </trkpt>
      <trkpt lat="47.28438" lon="3.81166">
        <ele>398.20001220703</ele>
        <time>2022-10-29T12:34:16.000Z</time>
      </trkpt>
      <trkpt lat="47.28444" lon="3.81165">
        <ele>398.60000610352</ele>
        <time>2022-10-29T12:34:18.000Z</time>
      </trkpt>
      <trkpt lat="47.2846" lon="3.81167">
        <ele>399.60000610352</ele>
        <time>2022-10-29T12:34:23.000Z</time>
      </trkpt>
      <trkpt lat="47.28463" lon="3.81169">
        <ele>399.79998779297</ele>
        <time>2022-10-29T12:34:24.000Z</time>
      </trkpt>
      <trkpt lat="47.28478" lon="3.81184">
        <ele>400.60000610352</ele>
        <time>2022-10-29T12:34:29.000Z</time>
      </trkpt>
      <trkpt lat="47.2848" lon="3.81188">
        <ele>400.79998779297</ele>
        <time>2022-10-29T12:34:30.000Z</time>
      </trkpt>
      <trkpt lat="47.28485" lon="3.81205">
        <ele>401.79998779297</ele>
        <time>2022-10-29T12:34:34.000Z</time>
      </trkpt>
      <trkpt lat="47.28486" lon="3.8121">
        <ele>401.79998779297</ele>
        <time>2022-10-29T12:34:35.000Z</time>
      </trkpt>
      <trkpt lat="47.28486" lon="3.81225">
        <ele>403</ele>
        <time>2022-10-29T12:34:38.000Z</time>
      </trkpt>
      <trkpt lat="47.28485" lon="3.81235">
        <ele>403.39999389648</ele>
        <time>2022-10-29T12:34:40.000Z</time>
      </trkpt>
      <trkpt lat="47.28484" lon="3.8125">
        <ele>404.20001220703</ele>
        <time>2022-10-29T12:34:43.000Z</time>
      </trkpt>
      <trkpt lat="47.28485" lon="3.81265">
        <ele>405</ele>
        <time>2022-10-29T12:34:46.000Z</time>
      </trkpt>
      <trkpt lat="47.28487" lon="3.81276">
        <ele>405.39999389648</ele>
        <time>2022-10-29T12:34:48.000Z</time>
      </trkpt>
      <trkpt lat="47.28495" lon="3.81296">
        <ele>406.20001220703</ele>
        <time>2022-10-29T12:34:52.000Z</time>
      </trkpt>
      <trkpt lat="47.285" lon="3.81307">
        <ele>406.60000610352</ele>
        <time>2022-10-29T12:34:55.000Z</time>
      </trkpt>
      <trkpt lat="47.28503" lon="3.8131">
        <ele>406.60000610352</ele>
        <time>2022-10-29T12:34:56.000Z</time>
      </trkpt>
      <trkpt lat="47.28516" lon="3.81326">
        <ele>407.39999389648</ele>
        <time>2022-10-29T12:35:01.000Z</time>
      </trkpt>
      <trkpt lat="47.28519" lon="3.8133">
        <ele>407.60000610352</ele>
        <time>2022-10-29T12:35:02.000Z</time>
      </trkpt>
      <trkpt lat="47.28538" lon="3.81337">
        <ele>408.20001220703</ele>
        <time>2022-10-29T12:35:07.000Z</time>
      </trkpt>
      <trkpt lat="47.28554" lon="3.81349">
        <ele>408.60000610352</ele>
        <time>2022-10-29T12:35:12.000Z</time>
      </trkpt>
      <trkpt lat="47.28557" lon="3.81352">
        <ele>408.79998779297</ele>
        <time>2022-10-29T12:35:13.000Z</time>
      </trkpt>
      <trkpt lat="47.28567" lon="3.81367">
        <ele>409</ele>
        <time>2022-10-29T12:35:17.000Z</time>
      </trkpt>
      <trkpt lat="47.28586" lon="3.81385">
        <ele>409.20001220703</ele>
        <time>2022-10-29T12:35:22.000Z</time>
      </trkpt>
      <trkpt lat="47.28594" lon="3.81394">
        <ele>409.60000610352</ele>
        <time>2022-10-29T12:35:24.000Z</time>
      </trkpt>
      <trkpt lat="47.28604" lon="3.81403">
        <ele>410</ele>
        <time>2022-10-29T12:35:27.000Z</time>
      </trkpt>
      <trkpt lat="47.28613" lon="3.81416">
        <ele>410.60000610352</ele>
        <time>2022-10-29T12:35:30.000Z</time>
      </trkpt>
      <trkpt lat="47.28619" lon="3.81424">
        <ele>411</ele>
        <time>2022-10-29T12:35:32.000Z</time>
      </trkpt>
      <trkpt lat="47.28637" lon="3.81437">
        <ele>411.39999389648</ele>
        <time>2022-10-29T12:35:36.000Z</time>
      </trkpt>
      <trkpt lat="47.28641" lon="3.81437">
        <ele>411.60000610352</ele>
        <time>2022-10-29T12:35:37.000Z</time>
      </trkpt>
      <trkpt lat="47.28645" lon="3.81437">
        <ele>411.79998779297</ele>
        <time>2022-10-29T12:35:38.000Z</time>
      </trkpt>
      <trkpt lat="47.28656" lon="3.81448">
        <ele>412.60000610352</ele>
        <time>2022-10-29T12:35:42.000Z</time>
      </trkpt>
      <trkpt lat="47.28665" lon="3.81447">
        <ele>412.79998779297</ele>
        <time>2022-10-29T12:35:44.000Z</time>
      </trkpt>
      <trkpt lat="47.28678" lon="3.81443">
        <ele>413.20001220703</ele>
        <time>2022-10-29T12:35:47.000Z</time>
      </trkpt>
      <trkpt lat="47.287" lon="3.81433">
        <ele>413.79998779297</ele>
        <time>2022-10-29T12:35:52.000Z</time>
      </trkpt>
      <trkpt lat="47.28705" lon="3.81432">
        <ele>413.79998779297</ele>
        <time>2022-10-29T12:35:53.000Z</time>
      </trkpt>
      <trkpt lat="47.28731" lon="3.81425">
        <ele>414.60000610352</ele>
        <time>2022-10-29T12:36:00.000Z</time>
      </trkpt>
      <trkpt lat="47.28734" lon="3.81426">
        <ele>415</ele>
        <time>2022-10-29T12:36:01.000Z</time>
      </trkpt>
      <trkpt lat="47.28744" lon="3.81436">
        <ele>415.60000610352</ele>
        <time>2022-10-29T12:36:04.000Z</time>
      </trkpt>
      <trkpt lat="47.28748" lon="3.81444">
        <ele>416</ele>
        <time>2022-10-29T12:36:06.000Z</time>
      </trkpt>
      <trkpt lat="47.28752" lon="3.8146">
        <ele>416.60000610352</ele>
        <time>2022-10-29T12:36:09.000Z</time>
      </trkpt>
      <trkpt lat="47.28753" lon="3.81464">
        <ele>417</ele>
        <time>2022-10-29T12:36:10.000Z</time>
      </trkpt>
      <trkpt lat="47.28755" lon="3.81487">
        <ele>418</ele>
        <time>2022-10-29T12:36:14.000Z</time>
      </trkpt>
      <trkpt lat="47.28757" lon="3.81509">
        <ele>419</ele>
        <time>2022-10-29T12:36:18.000Z</time>
      </trkpt>
      <trkpt lat="47.28758" lon="3.81514">
        <ele>419</ele>
        <time>2022-10-29T12:36:19.000Z</time>
      </trkpt>
      <trkpt lat="47.28761" lon="3.81556">
        <ele>420.20001220703</ele>
        <time>2022-10-29T12:36:27.000Z</time>
      </trkpt>
      <trkpt lat="47.28762" lon="3.81578">
        <ele>421</ele>
        <time>2022-10-29T12:36:33.000Z</time>
      </trkpt>
      <trkpt lat="47.28761" lon="3.81582">
        <ele>421.20001220703</ele>
        <time>2022-10-29T12:36:34.000Z</time>
      </trkpt>
      <trkpt lat="47.28761" lon="3.81585">
        <ele>421.20001220703</ele>
        <time>2022-10-29T12:36:35.000Z</time>
      </trkpt>
      <trkpt lat="47.28764" lon="3.81588">
        <ele>421.39999389648</ele>
        <time>2022-10-29T12:36:37.000Z</time>
      </trkpt>
      <trkpt lat="47.28767" lon="3.81593">
        <ele>421.39999389648</ele>
        <time>2022-10-29T12:36:42.000Z</time>
      </trkpt>
      <trkpt lat="47.28767" lon="3.81593">
        <ele>421.60000610352</ele>
        <time>2022-10-29T12:36:54.000Z</time>
      </trkpt>
      <trkpt lat="47.28767" lon="3.81593">
        <ele>421.79998779297</ele>
        <time>2022-10-29T12:38:01.000Z</time>
      </trkpt>
      <trkpt lat="47.28767" lon="3.81593">
        <ele>421.60000610352</ele>
        <time>2022-10-29T12:39:37.000Z</time>
      </trkpt>
      <trkpt lat="47.28767" lon="3.81594">
        <ele>421.79998779297</ele>
        <time>2022-10-29T12:40:54.000Z</time>
      </trkpt>
      <trkpt lat="47.28766" lon="3.816">
        <ele>421.79998779297</ele>
        <time>2022-10-29T12:40:57.000Z</time>
      </trkpt>
      <trkpt lat="47.28765" lon="3.81606">
        <ele>422</ele>
        <time>2022-10-29T12:41:00.000Z</time>
      </trkpt>
      <trkpt lat="47.28768" lon="3.81619">
        <ele>422.20001220703</ele>
        <time>2022-10-29T12:41:05.000Z</time>
      </trkpt>
      <trkpt lat="47.28772" lon="3.8163">
        <ele>422.60000610352</ele>
        <time>2022-10-29T12:41:09.000Z</time>
      </trkpt>
      <trkpt lat="47.28775" lon="3.81635">
        <ele>422.79998779297</ele>
        <time>2022-10-29T12:41:11.000Z</time>
      </trkpt>
      <trkpt lat="47.28781" lon="3.81644">
        <ele>423.20001220703</ele>
        <time>2022-10-29T12:41:14.000Z</time>
      </trkpt>
      <trkpt lat="47.28788" lon="3.8165">
        <ele>423.20001220703</ele>
        <time>2022-10-29T12:41:17.000Z</time>
      </trkpt>
      <trkpt lat="47.28805" lon="3.81658">
        <ele>423.60000610352</ele>
        <time>2022-10-29T12:41:23.000Z</time>
      </trkpt>
      <trkpt lat="47.28824" lon="3.81671">
        <ele>423.60000610352</ele>
        <time>2022-10-29T12:41:29.000Z</time>
      </trkpt>
      <trkpt lat="47.28837" lon="3.81685">
        <ele>424.20001220703</ele>
        <time>2022-10-29T12:41:34.000Z</time>
      </trkpt>
      <trkpt lat="47.28846" lon="3.81707">
        <ele>424.79998779297</ele>
        <time>2022-10-29T12:41:39.000Z</time>
      </trkpt>
      <trkpt lat="47.28848" lon="3.81711">
        <ele>425</ele>
        <time>2022-10-29T12:41:40.000Z</time>
      </trkpt>
      <trkpt lat="47.28858" lon="3.8173">
        <ele>425.79998779297</ele>
        <time>2022-10-29T12:41:46.000Z</time>
      </trkpt>
      <trkpt lat="47.28864" lon="3.81744">
        <ele>426</ele>
        <time>2022-10-29T12:41:50.000Z</time>
      </trkpt>
      <trkpt lat="47.28877" lon="3.8177">
        <ele>426.60000610352</ele>
        <time>2022-10-29T12:41:57.000Z</time>
      </trkpt>
      <trkpt lat="47.28888" lon="3.81785">
        <ele>427.20001220703</ele>
        <time>2022-10-29T12:42:02.000Z</time>
      </trkpt>
      <trkpt lat="47.2889" lon="3.81787">
        <ele>427.20001220703</ele>
        <time>2022-10-29T12:42:03.000Z</time>
      </trkpt>
      <trkpt lat="47.28892" lon="3.81791">
        <ele>427.39999389648</ele>
        <time>2022-10-29T12:42:07.000Z</time>
      </trkpt>
      <trkpt lat="47.28895" lon="3.81798">
        <ele>427.39999389648</ele>
        <time>2022-10-29T12:42:14.000Z</time>
      </trkpt>
      <trkpt lat="47.28895" lon="3.81798">
        <ele>427.60000610352</ele>
        <time>2022-10-29T12:42:21.000Z</time>
      </trkpt>
      <trkpt lat="47.28895" lon="3.81798">
        <ele>427.60000610352</ele>
        <time>2022-10-29T12:42:34.000Z</time>
      </trkpt>
      <trkpt lat="47.28895" lon="3.81798">
        <ele>428</ele>
        <time>2022-10-29T12:43:16.000Z</time>
      </trkpt>
      <trkpt lat="47.28895" lon="3.81798">
        <ele>428</ele>
        <time>2022-10-29T12:44:11.000Z</time>
      </trkpt>
      <trkpt lat="47.28896" lon="3.81797">
        <ele>428</ele>
        <time>2022-10-29T12:44:46.000Z</time>
      </trkpt>
      <trkpt lat="47.28896" lon="3.81797">
        <ele>428</ele>
        <time>2022-10-29T12:44:50.000Z</time>
      </trkpt>
      <trkpt lat="47.28898" lon="3.81794">
        <ele>428</ele>
        <time>2022-10-29T12:44:52.000Z</time>
      </trkpt>
      <trkpt lat="47.28903" lon="3.81788">
        <ele>428.20001220703</ele>
        <time>2022-10-29T12:44:57.000Z</time>
      </trkpt>
      <trkpt lat="47.28904" lon="3.81785">
        <ele>428</ele>
        <time>2022-10-29T12:44:59.000Z</time>
      </trkpt>
      <trkpt lat="47.28905" lon="3.81784">
        <ele>428</ele>
        <time>2022-10-29T12:45:00.000Z</time>
      </trkpt>
      <trkpt lat="47.28905" lon="3.8178">
        <ele>428</ele>
        <time>2022-10-29T12:45:04.000Z</time>
      </trkpt>
      <trkpt lat="47.28905" lon="3.8178">
        <ele>428.20001220703</ele>
        <time>2022-10-29T12:45:13.000Z</time>
      </trkpt>
      <trkpt lat="47.28905" lon="3.8178">
        <ele>428.60000610352</ele>
        <time>2022-10-29T12:45:49.000Z</time>
      </trkpt>
      <trkpt lat="47.28905" lon="3.8178">
        <ele>428.60000610352</ele>
        <time>2022-10-29T12:47:34.000Z</time>
      </trkpt>
      <trkpt lat="47.28905" lon="3.8178">
        <ele>428.79998779297</ele>
        <time>2022-10-29T12:50:55.000Z</time>
      </trkpt>
      <trkpt lat="47.28905" lon="3.8178">
        <ele>429</ele>
        <time>2022-10-29T12:50:59.000Z</time>
      </trkpt>
      <trkpt lat="47.28906" lon="3.81781">
        <ele>429.60000610352</ele>
        <time>2022-10-29T12:54:17.000Z</time>
      </trkpt>
      <trkpt lat="47.28906" lon="3.81781">
        <ele>429.60000610352</ele>
        <time>2022-10-29T12:54:19.000Z</time>
      </trkpt>
      <trkpt lat="47.28906" lon="3.81781">
        <ele>429.60000610352</ele>
        <time>2022-10-29T12:54:31.000Z</time>
      </trkpt>
      <trkpt lat="47.28902" lon="3.81787">
        <ele>429.39999389648</ele>
        <time>2022-10-29T12:54:35.000Z</time>
      </trkpt>
      <trkpt lat="47.289" lon="3.81789">
        <ele>429.20001220703</ele>
        <time>2022-10-29T12:54:36.000Z</time>
      </trkpt>
      <trkpt lat="47.28899" lon="3.81791">
        <ele>429.20001220703</ele>
        <time>2022-10-29T12:54:37.000Z</time>
      </trkpt>
      <trkpt lat="47.28899" lon="3.81793">
        <ele>429.20001220703</ele>
        <time>2022-10-29T12:54:39.000Z</time>
      </trkpt>
      <trkpt lat="47.28899" lon="3.81796">
        <ele>428.60000610352</ele>
        <time>2022-10-29T12:54:46.000Z</time>
      </trkpt>
      <trkpt lat="47.28899" lon="3.81799">
        <ele>428.79998779297</ele>
        <time>2022-10-29T12:55:25.000Z</time>
      </trkpt>
      <trkpt lat="47.289" lon="3.81807">
        <ele>428.79998779297</ele>
        <time>2022-10-29T12:55:27.000Z</time>
      </trkpt>
      <trkpt lat="47.28901" lon="3.81824">
        <ele>428.79998779297</ele>
        <time>2022-10-29T12:55:31.000Z</time>
      </trkpt>
      <trkpt lat="47.28904" lon="3.81838">
        <ele>429</ele>
        <time>2022-10-29T12:55:34.000Z</time>
      </trkpt>
      <trkpt lat="47.28906" lon="3.81847">
        <ele>429.20001220703</ele>
        <time>2022-10-29T12:55:37.000Z</time>
      </trkpt>
      <trkpt lat="47.28909" lon="3.8185">
        <ele>429.39999389648</ele>
        <time>2022-10-29T12:55:39.000Z</time>
      </trkpt>
      <trkpt lat="47.28912" lon="3.81853">
        <ele>429.39999389648</ele>
        <time>2022-10-29T12:55:41.000Z</time>
      </trkpt>
      <trkpt lat="47.28916" lon="3.81855">
        <ele>429.60000610352</ele>
        <time>2022-10-29T12:55:43.000Z</time>
      </trkpt>
      <trkpt lat="47.2893" lon="3.81868">
        <ele>430.39999389648</ele>
        <time>2022-10-29T12:55:49.000Z</time>
      </trkpt>
      <trkpt lat="47.28949" lon="3.81882">
        <ele>431.79998779297</ele>
        <time>2022-10-29T12:55:56.000Z</time>
      </trkpt>
      <trkpt lat="47.28957" lon="3.81891">
        <ele>432.60000610352</ele>
        <time>2022-10-29T12:55:59.000Z</time>
      </trkpt>
      <trkpt lat="47.28959" lon="3.81892">
        <ele>433</ele>
        <time>2022-10-29T12:56:00.000Z</time>
      </trkpt>
      <trkpt lat="47.28964" lon="3.81897">
        <ele>433.79998779297</ele>
        <time>2022-10-29T12:56:02.000Z</time>
      </trkpt>
      <trkpt lat="47.28965" lon="3.819">
        <ele>434</ele>
        <time>2022-10-29T12:56:03.000Z</time>
      </trkpt>
      <trkpt lat="47.2897" lon="3.819">
        <ele>434.20001220703</ele>
        <time>2022-10-29T12:56:05.000Z</time>
      </trkpt>
      <trkpt lat="47.28985" lon="3.81896">
        <ele>435</ele>
        <time>2022-10-29T12:56:10.000Z</time>
      </trkpt>
      <trkpt lat="47.2899" lon="3.81895">
        <ele>435.20001220703</ele>
        <time>2022-10-29T12:56:12.000Z</time>
      </trkpt>
      <trkpt lat="47.28996" lon="3.81891">
        <ele>436</ele>
        <time>2022-10-29T12:56:15.000Z</time>
      </trkpt>
      <trkpt lat="47.29004" lon="3.81886">
        <ele>436.20001220703</ele>
        <time>2022-10-29T12:56:18.000Z</time>
      </trkpt>
      <trkpt lat="47.29007" lon="3.81885">
        <ele>436.39999389648</ele>
        <time>2022-10-29T12:56:19.000Z</time>
      </trkpt>
      <trkpt lat="47.29022" lon="3.81875">
        <ele>436.39999389648</ele>
        <time>2022-10-29T12:56:24.000Z</time>
      </trkpt>
      <trkpt lat="47.29035" lon="3.81864">
        <ele>436.39999389648</ele>
        <time>2022-10-29T12:56:30.000Z</time>
      </trkpt>
      <trkpt lat="47.29046" lon="3.81839">
        <ele>436.20001220703</ele>
        <time>2022-10-29T12:56:35.000Z</time>
      </trkpt>
      <trkpt lat="47.29056" lon="3.81815">
        <ele>436.20001220703</ele>
        <time>2022-10-29T12:56:40.000Z</time>
      </trkpt>
      <trkpt lat="47.29072" lon="3.81787">
        <ele>436.79998779297</ele>
        <time>2022-10-29T12:56:47.000Z</time>
      </trkpt>
      <trkpt lat="47.29079" lon="3.81778">
        <ele>437.20001220703</ele>
        <time>2022-10-29T12:56:50.000Z</time>
      </trkpt>
      <trkpt lat="47.29091" lon="3.81764">
        <ele>438.20001220703</ele>
        <time>2022-10-29T12:56:55.000Z</time>
      </trkpt>
      <trkpt lat="47.29093" lon="3.81761">
        <ele>438.20001220703</ele>
        <time>2022-10-29T12:56:56.000Z</time>
      </trkpt>
      <trkpt lat="47.29104" lon="3.81747">
        <ele>439.39999389648</ele>
        <time>2022-10-29T12:57:01.000Z</time>
      </trkpt>
      <trkpt lat="47.29107" lon="3.81743">
        <ele>439.60000610352</ele>
        <time>2022-10-29T12:57:02.000Z</time>
      </trkpt>
      <trkpt lat="47.29116" lon="3.81732">
        <ele>440.39999389648</ele>
        <time>2022-10-29T12:57:06.000Z</time>
      </trkpt>
      <trkpt lat="47.29124" lon="3.81726">
        <ele>441</ele>
        <time>2022-10-29T12:57:09.000Z</time>
      </trkpt>
      <trkpt lat="47.29127" lon="3.81726">
        <ele>441.20001220703</ele>
        <time>2022-10-29T12:57:10.000Z</time>
      </trkpt>
      <trkpt lat="47.29133" lon="3.8173">
        <ele>441.39999389648</ele>
        <time>2022-10-29T12:57:12.000Z</time>
      </trkpt>
      <trkpt lat="47.29137" lon="3.81737">
        <ele>441.79998779297</ele>
        <time>2022-10-29T12:57:14.000Z</time>
      </trkpt>
      <trkpt lat="47.2914" lon="3.81745">
        <ele>442.60000610352</ele>
        <time>2022-10-29T12:57:16.000Z</time>
      </trkpt>
      <trkpt lat="47.29148" lon="3.81769">
        <ele>443.60000610352</ele>
        <time>2022-10-29T12:57:22.000Z</time>
      </trkpt>
      <trkpt lat="47.29154" lon="3.81786">
        <ele>444.79998779297</ele>
        <time>2022-10-29T12:57:27.000Z</time>
      </trkpt>
      <trkpt lat="47.29155" lon="3.81792">
        <ele>444.79998779297</ele>
        <time>2022-10-29T12:57:29.000Z</time>
      </trkpt>
      <trkpt lat="47.29158" lon="3.81798">
        <ele>445</ele>
        <time>2022-10-29T12:57:32.000Z</time>
      </trkpt>
      <trkpt lat="47.2916" lon="3.81798">
        <ele>445.20001220703</ele>
        <time>2022-10-29T12:57:34.000Z</time>
      </trkpt>
      <trkpt lat="47.29161" lon="3.81794">
        <ele>445.20001220703</ele>
        <time>2022-10-29T12:57:36.000Z</time>
      </trkpt>
      <trkpt lat="47.29158" lon="3.81787">
        <ele>445.39999389648</ele>
        <time>2022-10-29T12:57:39.000Z</time>
      </trkpt>
      <trkpt lat="47.29152" lon="3.81768">
        <ele>445.39999389648</ele>
        <time>2022-10-29T12:57:44.000Z</time>
      </trkpt>
      <trkpt lat="47.29148" lon="3.81758">
        <ele>445.20001220703</ele>
        <time>2022-10-29T12:57:46.000Z</time>
      </trkpt>
      <trkpt lat="47.2914" lon="3.81735">
        <ele>444.79998779297</ele>
        <time>2022-10-29T12:57:50.000Z</time>
      </trkpt>
      <trkpt lat="47.29137" lon="3.81725">
        <ele>444.39999389648</ele>
        <time>2022-10-29T12:57:53.000Z</time>
      </trkpt>
      <trkpt lat="47.29132" lon="3.8171">
        <ele>444.20001220703</ele>
        <time>2022-10-29T12:57:57.000Z</time>
      </trkpt>
      <trkpt lat="47.29129" lon="3.81678">
        <ele>444</ele>
        <time>2022-10-29T12:58:02.000Z</time>
      </trkpt>
      <trkpt lat="47.29127" lon="3.81664">
        <ele>443.79998779297</ele>
        <time>2022-10-29T12:58:04.000Z</time>
      </trkpt>
      <trkpt lat="47.29127" lon="3.81657">
        <ele>443.39999389648</ele>
        <time>2022-10-29T12:58:05.000Z</time>
      </trkpt>
      <trkpt lat="47.29128" lon="3.81651">
        <ele>443.60000610352</ele>
        <time>2022-10-29T12:58:06.000Z</time>
      </trkpt>
      <trkpt lat="47.29136" lon="3.81639">
        <ele>442.60000610352</ele>
        <time>2022-10-29T12:58:09.000Z</time>
      </trkpt>
      <trkpt lat="47.29141" lon="3.81636">
        <ele>442.39999389648</ele>
        <time>2022-10-29T12:58:10.000Z</time>
      </trkpt>
      <trkpt lat="47.29152" lon="3.81631">
        <ele>441.39999389648</ele>
        <time>2022-10-29T12:58:12.000Z</time>
      </trkpt>
      <trkpt lat="47.29158" lon="3.81628">
        <ele>441.20001220703</ele>
        <time>2022-10-29T12:58:13.000Z</time>
      </trkpt>
      <trkpt lat="47.29169" lon="3.81627">
        <ele>440.60000610352</ele>
        <time>2022-10-29T12:58:15.000Z</time>
      </trkpt>
      <trkpt lat="47.29175" lon="3.81627">
        <ele>440.20001220703</ele>
        <time>2022-10-29T12:58:16.000Z</time>
      </trkpt>
      <trkpt lat="47.29185" lon="3.81629">
        <ele>440</ele>
        <time>2022-10-29T12:58:18.000Z</time>
      </trkpt>
      <trkpt lat="47.29198" lon="3.81631">
        <ele>439.60000610352</ele>
        <time>2022-10-29T12:58:21.000Z</time>
      </trkpt>
      <trkpt lat="47.29235" lon="3.81637">
        <ele>440.60000610352</ele>
        <time>2022-10-29T12:58:29.000Z</time>
      </trkpt>
      <trkpt lat="47.2926" lon="3.81644">
        <ele>441.20001220703</ele>
        <time>2022-10-29T12:58:34.000Z</time>
      </trkpt>
      <trkpt lat="47.29265" lon="3.81645">
        <ele>441.39999389648</ele>
        <time>2022-10-29T12:58:35.000Z</time>
      </trkpt>
      <trkpt lat="47.29269" lon="3.81647">
        <ele>441.60000610352</ele>
        <time>2022-10-29T12:58:36.000Z</time>
      </trkpt>
      <trkpt lat="47.29273" lon="3.81647">
        <ele>441.60000610352</ele>
        <time>2022-10-29T12:58:37.000Z</time>
      </trkpt>
      <trkpt lat="47.29289" lon="3.81651">
        <ele>442.20001220703</ele>
        <time>2022-10-29T12:58:41.000Z</time>
      </trkpt>
      <trkpt lat="47.29301" lon="3.81655">
        <ele>442.39999389648</ele>
        <time>2022-10-29T12:58:44.000Z</time>
      </trkpt>
      <trkpt lat="47.29313" lon="3.81658">
        <ele>442.79998779297</ele>
        <time>2022-10-29T12:58:47.000Z</time>
      </trkpt>
      <trkpt lat="47.29331" lon="3.81665">
        <ele>443.60000610352</ele>
        <time>2022-10-29T12:58:51.000Z</time>
      </trkpt>
      <trkpt lat="47.29342" lon="3.81669">
        <ele>444.20001220703</ele>
        <time>2022-10-29T12:58:54.000Z</time>
      </trkpt>
      <trkpt lat="47.29359" lon="3.81674">
        <ele>444.79998779297</ele>
        <time>2022-10-29T12:58:58.000Z</time>
      </trkpt>
      <trkpt lat="47.2937" lon="3.81676">
        <ele>445.60000610352</ele>
        <time>2022-10-29T12:59:01.000Z</time>
      </trkpt>
      <trkpt lat="47.29374" lon="3.81678">
        <ele>445.79998779297</ele>
        <time>2022-10-29T12:59:02.000Z</time>
      </trkpt>
      <trkpt lat="47.29392" lon="3.81684">
        <ele>447</ele>
        <time>2022-10-29T12:59:07.000Z</time>
      </trkpt>
      <trkpt lat="47.294" lon="3.81687">
        <ele>447.39999389648</ele>
        <time>2022-10-29T12:59:09.000Z</time>
      </trkpt>
      <trkpt lat="47.29409" lon="3.81693">
        <ele>448.20001220703</ele>
        <time>2022-10-29T12:59:12.000Z</time>
      </trkpt>
      <trkpt lat="47.29422" lon="3.81703">
        <ele>449</ele>
        <time>2022-10-29T12:59:16.000Z</time>
      </trkpt>
      <trkpt lat="47.29425" lon="3.81706">
        <ele>449.20001220703</ele>
        <time>2022-10-29T12:59:17.000Z</time>
      </trkpt>
      <trkpt lat="47.29436" lon="3.81719">
        <ele>450</ele>
        <time>2022-10-29T12:59:21.000Z</time>
      </trkpt>
      <trkpt lat="47.29442" lon="3.81725">
        <ele>450.20001220703</ele>
        <time>2022-10-29T12:59:23.000Z</time>
      </trkpt>
      <trkpt lat="47.29453" lon="3.8174">
        <ele>451</ele>
        <time>2022-10-29T12:59:28.000Z</time>
      </trkpt>
      <trkpt lat="47.29458" lon="3.81747">
        <ele>451.39999389648</ele>
        <time>2022-10-29T12:59:30.000Z</time>
      </trkpt>
      <trkpt lat="47.29471" lon="3.81766">
        <ele>452.20001220703</ele>
        <time>2022-10-29T12:59:35.000Z</time>
      </trkpt>
      <trkpt lat="47.2948" lon="3.81775">
        <ele>452.39999389648</ele>
        <time>2022-10-29T12:59:38.000Z</time>
      </trkpt>
      <trkpt lat="47.29495" lon="3.81796">
        <ele>453.20001220703</ele>
        <time>2022-10-29T12:59:44.000Z</time>
      </trkpt>
      <trkpt lat="47.2951" lon="3.81816">
        <ele>453.60000610352</ele>
        <time>2022-10-29T12:59:49.000Z</time>
      </trkpt>
      <trkpt lat="47.29524" lon="3.81835">
        <ele>454</ele>
        <time>2022-10-29T12:59:54.000Z</time>
      </trkpt>
      <trkpt lat="47.29543" lon="3.81866">
        <ele>454.79998779297</ele>
        <time>2022-10-29T13:00:01.000Z</time>
      </trkpt>
      <trkpt lat="47.29546" lon="3.8187">
        <ele>455</ele>
        <time>2022-10-29T13:00:02.000Z</time>
      </trkpt>
      <trkpt lat="47.29561" lon="3.81895">
        <ele>455.79998779297</ele>
        <time>2022-10-29T13:00:08.000Z</time>
      </trkpt>
      <trkpt lat="47.29569" lon="3.81908">
        <ele>456</ele>
        <time>2022-10-29T13:00:11.000Z</time>
      </trkpt>
      <trkpt lat="47.29595" lon="3.81952">
        <ele>456.60000610352</ele>
        <time>2022-10-29T13:00:20.000Z</time>
      </trkpt>
      <trkpt lat="47.29603" lon="3.81967">
        <ele>457</ele>
        <time>2022-10-29T13:00:23.000Z</time>
      </trkpt>
      <trkpt lat="47.29613" lon="3.81984">
        <ele>457.20001220703</ele>
        <time>2022-10-29T13:00:27.000Z</time>
      </trkpt>
      <trkpt lat="47.29633" lon="3.82018">
        <ele>457.60000610352</ele>
        <time>2022-10-29T13:00:34.000Z</time>
      </trkpt>
      <trkpt lat="47.29641" lon="3.82033">
        <ele>458</ele>
        <time>2022-10-29T13:00:37.000Z</time>
      </trkpt>
      <trkpt lat="47.29659" lon="3.82062">
        <ele>458.79998779297</ele>
        <time>2022-10-29T13:00:43.000Z</time>
      </trkpt>
      <trkpt lat="47.2968" lon="3.82102">
        <ele>458.39999389648</ele>
        <time>2022-10-29T13:00:49.000Z</time>
      </trkpt>
      <trkpt lat="47.29701" lon="3.82148">
        <ele>457.39999389648</ele>
        <time>2022-10-29T13:00:54.000Z</time>
      </trkpt>
      <trkpt lat="47.2971" lon="3.82168">
        <ele>456.60000610352</ele>
        <time>2022-10-29T13:00:56.000Z</time>
      </trkpt>
      <trkpt lat="47.29723" lon="3.82199">
        <ele>455.39999389648</ele>
        <time>2022-10-29T13:00:59.000Z</time>
      </trkpt>
      <trkpt lat="47.29738" lon="3.82231">
        <ele>454.79998779297</ele>
        <time>2022-10-29T13:01:02.000Z</time>
      </trkpt>
      <trkpt lat="47.29747" lon="3.82251">
        <ele>454</ele>
        <time>2022-10-29T13:01:04.000Z</time>
      </trkpt>
      <trkpt lat="47.29765" lon="3.82292">
        <ele>453</ele>
        <time>2022-10-29T13:01:08.000Z</time>
      </trkpt>
      <trkpt lat="47.2978" lon="3.82323">
        <ele>452</ele>
        <time>2022-10-29T13:01:11.000Z</time>
      </trkpt>
      <trkpt lat="47.29785" lon="3.82333">
        <ele>451.60000610352</ele>
        <time>2022-10-29T13:01:12.000Z</time>
      </trkpt>
      <trkpt lat="47.29796" lon="3.82353">
        <ele>451.20001220703</ele>
        <time>2022-10-29T13:01:14.000Z</time>
      </trkpt>
      <trkpt lat="47.29803" lon="3.82362">
        <ele>450.79998779297</ele>
        <time>2022-10-29T13:01:15.000Z</time>
      </trkpt>
      <trkpt lat="47.29811" lon="3.82371">
        <ele>450.39999389648</ele>
        <time>2022-10-29T13:01:16.000Z</time>
      </trkpt>
      <trkpt lat="47.29827" lon="3.82386">
        <ele>449.60000610352</ele>
        <time>2022-10-29T13:01:18.000Z</time>
      </trkpt>
      <trkpt lat="47.2986" lon="3.82415">
        <ele>447.79998779297</ele>
        <time>2022-10-29T13:01:22.000Z</time>
      </trkpt>
      <trkpt lat="47.29883" lon="3.82436">
        <ele>446.20001220703</ele>
        <time>2022-10-29T13:01:25.000Z</time>
      </trkpt>
      <trkpt lat="47.29899" lon="3.82452">
        <ele>445.60000610352</ele>
        <time>2022-10-29T13:01:27.000Z</time>
      </trkpt>
      <trkpt lat="47.29907" lon="3.82459">
        <ele>445.39999389648</ele>
        <time>2022-10-29T13:01:28.000Z</time>
      </trkpt>
      <trkpt lat="47.29915" lon="3.82465">
        <ele>445.20001220703</ele>
        <time>2022-10-29T13:01:29.000Z</time>
      </trkpt>
      <trkpt lat="47.29933" lon="3.82475">
        <ele>444.79998779297</ele>
        <time>2022-10-29T13:01:31.000Z</time>
      </trkpt>
      <trkpt lat="47.29968" lon="3.82492">
        <ele>444</ele>
        <time>2022-10-29T13:01:35.000Z</time>
      </trkpt>
      <trkpt lat="47.29995" lon="3.82505">
        <ele>442.60000610352</ele>
        <time>2022-10-29T13:01:38.000Z</time>
      </trkpt>
      <trkpt lat="47.30004" lon="3.82509">
        <ele>442</ele>
        <time>2022-10-29T13:01:39.000Z</time>
      </trkpt>
      <trkpt lat="47.30023" lon="3.82519">
        <ele>441.60000610352</ele>
        <time>2022-10-29T13:01:41.000Z</time>
      </trkpt>
      <trkpt lat="47.30044" lon="3.82535">
        <ele>441</ele>
        <time>2022-10-29T13:01:44.000Z</time>
      </trkpt>
      <trkpt lat="47.30074" lon="3.82569">
        <ele>440.60000610352</ele>
        <time>2022-10-29T13:01:49.000Z</time>
      </trkpt>
      <trkpt lat="47.30098" lon="3.82602">
        <ele>440.39999389648</ele>
        <time>2022-10-29T13:01:54.000Z</time>
      </trkpt>
      <trkpt lat="47.30123" lon="3.82636">
        <ele>441.39999389648</ele>
        <time>2022-10-29T13:02:00.000Z</time>
      </trkpt>
      <trkpt lat="47.30126" lon="3.82642">
        <ele>441.39999389648</ele>
        <time>2022-10-29T13:02:01.000Z</time>
      </trkpt>
      <trkpt lat="47.30131" lon="3.82648">
        <ele>441.60000610352</ele>
        <time>2022-10-29T13:02:02.000Z</time>
      </trkpt>
      <trkpt lat="47.30146" lon="3.82669">
        <ele>441.79998779297</ele>
        <time>2022-10-29T13:02:05.000Z</time>
      </trkpt>
      <trkpt lat="47.30172" lon="3.82695">
        <ele>441.39999389648</ele>
        <time>2022-10-29T13:02:09.000Z</time>
      </trkpt>
      <trkpt lat="47.30179" lon="3.82701">
        <ele>441.20001220703</ele>
        <time>2022-10-29T13:02:10.000Z</time>
      </trkpt>
      <trkpt lat="47.30211" lon="3.82726">
        <ele>440</ele>
        <time>2022-10-29T13:02:14.000Z</time>
      </trkpt>
      <trkpt lat="47.30229" lon="3.8274">
        <ele>439.60000610352</ele>
        <time>2022-10-29T13:02:16.000Z</time>
      </trkpt>
      <trkpt lat="47.30247" lon="3.82756">
        <ele>438.79998779297</ele>
        <time>2022-10-29T13:02:18.000Z</time>
      </trkpt>
      <trkpt lat="47.30255" lon="3.82764">
        <ele>438.60000610352</ele>
        <time>2022-10-29T13:02:19.000Z</time>
      </trkpt>
      <trkpt lat="47.30272" lon="3.82783">
        <ele>437.39999389648</ele>
        <time>2022-10-29T13:02:21.000Z</time>
      </trkpt>
      <trkpt lat="47.30297" lon="3.82814">
        <ele>436.39999389648</ele>
        <time>2022-10-29T13:02:24.000Z</time>
      </trkpt>
      <trkpt lat="47.30313" lon="3.82834">
        <ele>435.39999389648</ele>
        <time>2022-10-29T13:02:26.000Z</time>
      </trkpt>
      <trkpt lat="47.30321" lon="3.82844">
        <ele>434.60000610352</ele>
        <time>2022-10-29T13:02:27.000Z</time>
      </trkpt>
      <trkpt lat="47.30335" lon="3.82864">
        <ele>433.60000610352</ele>
        <time>2022-10-29T13:02:29.000Z</time>
      </trkpt>
      <trkpt lat="47.30349" lon="3.82886">
        <ele>432.60000610352</ele>
        <time>2022-10-29T13:02:31.000Z</time>
      </trkpt>
      <trkpt lat="47.30358" lon="3.82898">
        <ele>432.20001220703</ele>
        <time>2022-10-29T13:02:32.000Z</time>
      </trkpt>
      <trkpt lat="47.30378" lon="3.82916">
        <ele>431.20001220703</ele>
        <time>2022-10-29T13:02:34.000Z</time>
      </trkpt>
      <trkpt lat="47.30389" lon="3.82921">
        <ele>430.79998779297</ele>
        <time>2022-10-29T13:02:35.000Z</time>
      </trkpt>
      <trkpt lat="47.3042" lon="3.8293">
        <ele>430</ele>
        <time>2022-10-29T13:02:38.000Z</time>
      </trkpt>
      <trkpt lat="47.30438" lon="3.82934">
        <ele>429.60000610352</ele>
        <time>2022-10-29T13:02:40.000Z</time>
      </trkpt>
      <trkpt lat="47.30478" lon="3.82941">
        <ele>428.39999389648</ele>
        <time>2022-10-29T13:02:44.000Z</time>
      </trkpt>
      <trkpt lat="47.30516" lon="3.82951">
        <ele>427.20001220703</ele>
        <time>2022-10-29T13:02:48.000Z</time>
      </trkpt>
      <trkpt lat="47.30536" lon="3.82953">
        <ele>426.39999389648</ele>
        <time>2022-10-29T13:02:50.000Z</time>
      </trkpt>
      <trkpt lat="47.30545" lon="3.82952">
        <ele>426</ele>
        <time>2022-10-29T13:02:51.000Z</time>
      </trkpt>
      <trkpt lat="47.30589" lon="3.8295">
        <ele>425</ele>
        <time>2022-10-29T13:02:56.000Z</time>
      </trkpt>
      <trkpt lat="47.30598" lon="3.82952">
        <ele>424.60000610352</ele>
        <time>2022-10-29T13:02:57.000Z</time>
      </trkpt>
      <trkpt lat="47.30608" lon="3.82956">
        <ele>424.39999389648</ele>
        <time>2022-10-29T13:02:58.000Z</time>
      </trkpt>
      <trkpt lat="47.30627" lon="3.82969">
        <ele>424.20001220703</ele>
        <time>2022-10-29T13:03:00.000Z</time>
      </trkpt>
      <trkpt lat="47.30641" lon="3.82986">
        <ele>423.60000610352</ele>
        <time>2022-10-29T13:03:02.000Z</time>
      </trkpt>
      <trkpt lat="47.30653" lon="3.83004">
        <ele>423</ele>
        <time>2022-10-29T13:03:04.000Z</time>
      </trkpt>
      <trkpt lat="47.3066" lon="3.83014">
        <ele>422.39999389648</ele>
        <time>2022-10-29T13:03:05.000Z</time>
      </trkpt>
      <trkpt lat="47.30675" lon="3.83027">
        <ele>421.79998779297</ele>
        <time>2022-10-29T13:03:07.000Z</time>
      </trkpt>
      <trkpt lat="47.30692" lon="3.83035">
        <ele>421.39999389648</ele>
        <time>2022-10-29T13:03:09.000Z</time>
      </trkpt>
      <trkpt lat="47.307" lon="3.83037">
        <ele>421.39999389648</ele>
        <time>2022-10-29T13:03:10.000Z</time>
      </trkpt>
      <trkpt lat="47.30742" lon="3.83048">
        <ele>420.20001220703</ele>
        <time>2022-10-29T13:03:15.000Z</time>
      </trkpt>
      <trkpt lat="47.30759" lon="3.83054">
        <ele>419.60000610352</ele>
        <time>2022-10-29T13:03:17.000Z</time>
      </trkpt>
      <trkpt lat="47.30776" lon="3.83059">
        <ele>419</ele>
        <time>2022-10-29T13:03:19.000Z</time>
      </trkpt>
      <trkpt lat="47.30785" lon="3.83061">
        <ele>418.79998779297</ele>
        <time>2022-10-29T13:03:20.000Z</time>
      </trkpt>
      <trkpt lat="47.30793" lon="3.83062">
        <ele>418.60000610352</ele>
        <time>2022-10-29T13:03:21.000Z</time>
      </trkpt>
      <trkpt lat="47.30808" lon="3.83059">
        <ele>418</ele>
        <time>2022-10-29T13:03:23.000Z</time>
      </trkpt>
      <trkpt lat="47.30816" lon="3.83056">
        <ele>417.60000610352</ele>
        <time>2022-10-29T13:03:24.000Z</time>
      </trkpt>
      <trkpt lat="47.30832" lon="3.83044">
        <ele>417</ele>
        <time>2022-10-29T13:03:26.000Z</time>
      </trkpt>
      <trkpt lat="47.30839" lon="3.83036">
        <ele>416.79998779297</ele>
        <time>2022-10-29T13:03:27.000Z</time>
      </trkpt>
      <trkpt lat="47.30846" lon="3.83027">
        <ele>416.39999389648</ele>
        <time>2022-10-29T13:03:28.000Z</time>
      </trkpt>
      <trkpt lat="47.30858" lon="3.83008">
        <ele>415.79998779297</ele>
        <time>2022-10-29T13:03:30.000Z</time>
      </trkpt>
      <trkpt lat="47.30865" lon="3.82998">
        <ele>415.39999389648</ele>
        <time>2022-10-29T13:03:31.000Z</time>
      </trkpt>
      <trkpt lat="47.3087" lon="3.82988">
        <ele>415.39999389648</ele>
        <time>2022-10-29T13:03:32.000Z</time>
      </trkpt>
      <trkpt lat="47.30884" lon="3.82972">
        <ele>414.79998779297</ele>
        <time>2022-10-29T13:03:34.000Z</time>
      </trkpt>
      <trkpt lat="47.30892" lon="3.82965">
        <ele>414.39999389648</ele>
        <time>2022-10-29T13:03:35.000Z</time>
      </trkpt>
      <trkpt lat="47.30908" lon="3.82959">
        <ele>414</ele>
        <time>2022-10-29T13:03:37.000Z</time>
      </trkpt>
      <trkpt lat="47.30937" lon="3.82958">
        <ele>413.20001220703</ele>
        <time>2022-10-29T13:03:40.000Z</time>
      </trkpt>
      <trkpt lat="47.30954" lon="3.82957">
        <ele>412.79998779297</ele>
        <time>2022-10-29T13:03:42.000Z</time>
      </trkpt>
      <trkpt lat="47.30984" lon="3.82953">
        <ele>412.39999389648</ele>
        <time>2022-10-29T13:03:45.000Z</time>
      </trkpt>
      <trkpt lat="47.31" lon="3.8295">
        <ele>411.79998779297</ele>
        <time>2022-10-29T13:03:47.000Z</time>
      </trkpt>
      <trkpt lat="47.31008" lon="3.82948">
        <ele>411.60000610352</ele>
        <time>2022-10-29T13:03:48.000Z</time>
      </trkpt>
      <trkpt lat="47.31025" lon="3.82942">
        <ele>411.20001220703</ele>
        <time>2022-10-29T13:03:50.000Z</time>
      </trkpt>
      <trkpt lat="47.31044" lon="3.82929">
        <ele>410.79998779297</ele>
        <time>2022-10-29T13:03:52.000Z</time>
      </trkpt>
      <trkpt lat="47.31053" lon="3.82922">
        <ele>410.79998779297</ele>
        <time>2022-10-29T13:03:53.000Z</time>
      </trkpt>
      <trkpt lat="47.31079" lon="3.82906">
        <ele>409.79998779297</ele>
        <time>2022-10-29T13:03:56.000Z</time>
      </trkpt>
      <trkpt lat="47.31091" lon="3.82903">
        <ele>409.39999389648</ele>
        <time>2022-10-29T13:03:57.000Z</time>
      </trkpt>
      <trkpt lat="47.31101" lon="3.829">
        <ele>408.79998779297</ele>
        <time>2022-10-29T13:03:58.000Z</time>
      </trkpt>
      <trkpt lat="47.3112" lon="3.82899">
        <ele>408.39999389648</ele>
        <time>2022-10-29T13:04:00.000Z</time>
      </trkpt>
      <trkpt lat="47.31129" lon="3.82898">
        <ele>408</ele>
        <time>2022-10-29T13:04:01.000Z</time>
      </trkpt>
      <trkpt lat="47.31158" lon="3.82896">
        <ele>407.20001220703</ele>
        <time>2022-10-29T13:04:04.000Z</time>
      </trkpt>
      <trkpt lat="47.31196" lon="3.8289">
        <ele>406.20001220703</ele>
        <time>2022-10-29T13:04:08.000Z</time>
      </trkpt>
      <trkpt lat="47.31206" lon="3.82891">
        <ele>406</ele>
        <time>2022-10-29T13:04:09.000Z</time>
      </trkpt>
      <trkpt lat="47.31236" lon="3.82898">
        <ele>405</ele>
        <time>2022-10-29T13:04:12.000Z</time>
      </trkpt>
      <trkpt lat="47.31264" lon="3.82908">
        <ele>404.39999389648</ele>
        <time>2022-10-29T13:04:15.000Z</time>
      </trkpt>
      <trkpt lat="47.31292" lon="3.82918">
        <ele>404</ele>
        <time>2022-10-29T13:04:18.000Z</time>
      </trkpt>
      <trkpt lat="47.31331" lon="3.82927">
        <ele>403.20001220703</ele>
        <time>2022-10-29T13:04:22.000Z</time>
      </trkpt>
      <trkpt lat="47.31341" lon="3.82927">
        <ele>403</ele>
        <time>2022-10-29T13:04:23.000Z</time>
      </trkpt>
      <trkpt lat="47.31372" lon="3.82926">
        <ele>401.60000610352</ele>
        <time>2022-10-29T13:04:26.000Z</time>
      </trkpt>
      <trkpt lat="47.31393" lon="3.82923">
        <ele>401</ele>
        <time>2022-10-29T13:04:28.000Z</time>
      </trkpt>
      <trkpt lat="47.31413" lon="3.8292">
        <ele>400.60000610352</ele>
        <time>2022-10-29T13:04:30.000Z</time>
      </trkpt>
      <trkpt lat="47.31454" lon="3.82912">
        <ele>399</ele>
        <time>2022-10-29T13:04:34.000Z</time>
      </trkpt>
      <trkpt lat="47.31475" lon="3.82908">
        <ele>398.20001220703</ele>
        <time>2022-10-29T13:04:36.000Z</time>
      </trkpt>
      <trkpt lat="47.31485" lon="3.82906">
        <ele>398</ele>
        <time>2022-10-29T13:04:37.000Z</time>
      </trkpt>
      <trkpt lat="47.31505" lon="3.82903">
        <ele>396.39999389648</ele>
        <time>2022-10-29T13:04:39.000Z</time>
      </trkpt>
      <trkpt lat="47.31536" lon="3.82901">
        <ele>395.20001220703</ele>
        <time>2022-10-29T13:04:42.000Z</time>
      </trkpt>
      <trkpt lat="47.31545" lon="3.82902">
        <ele>394.39999389648</ele>
        <time>2022-10-29T13:04:43.000Z</time>
      </trkpt>
      <trkpt lat="47.31566" lon="3.82905">
        <ele>394</ele>
        <time>2022-10-29T13:04:45.000Z</time>
      </trkpt>
      <trkpt lat="47.31595" lon="3.82914">
        <ele>393.39999389648</ele>
        <time>2022-10-29T13:04:48.000Z</time>
      </trkpt>
      <trkpt lat="47.3164" lon="3.82941">
        <ele>392.60000610352</ele>
        <time>2022-10-29T13:04:53.000Z</time>
      </trkpt>
      <trkpt lat="47.31682" lon="3.82986">
        <ele>391.60000610352</ele>
        <time>2022-10-29T13:04:58.000Z</time>
      </trkpt>
      <trkpt lat="47.3169" lon="3.82996">
        <ele>391</ele>
        <time>2022-10-29T13:04:59.000Z</time>
      </trkpt>
      <trkpt lat="47.31714" lon="3.83029">
        <ele>389.79998779297</ele>
        <time>2022-10-29T13:05:02.000Z</time>
      </trkpt>
      <trkpt lat="47.31721" lon="3.83042">
        <ele>389.79998779297</ele>
        <time>2022-10-29T13:05:03.000Z</time>
      </trkpt>
      <trkpt lat="47.31734" lon="3.83068">
        <ele>388.79998779297</ele>
        <time>2022-10-29T13:05:05.000Z</time>
      </trkpt>
      <trkpt lat="47.31746" lon="3.83097">
        <ele>387</ele>
        <time>2022-10-29T13:05:07.000Z</time>
      </trkpt>
      <trkpt lat="47.31752" lon="3.83111">
        <ele>386.60000610352</ele>
        <time>2022-10-29T13:05:08.000Z</time>
      </trkpt>
      <trkpt lat="47.31757" lon="3.83125">
        <ele>385.79998779297</ele>
        <time>2022-10-29T13:05:09.000Z</time>
      </trkpt>
      <trkpt lat="47.31769" lon="3.83154">
        <ele>384.60000610352</ele>
        <time>2022-10-29T13:05:11.000Z</time>
      </trkpt>
      <trkpt lat="47.31786" lon="3.83198">
        <ele>382.60000610352</ele>
        <time>2022-10-29T13:05:14.000Z</time>
      </trkpt>
      <trkpt lat="47.31804" lon="3.83242">
        <ele>381.39999389648</ele>
        <time>2022-10-29T13:05:17.000Z</time>
      </trkpt>
      <trkpt lat="47.31817" lon="3.8327">
        <ele>380.39999389648</ele>
        <time>2022-10-29T13:05:19.000Z</time>
      </trkpt>
      <trkpt lat="47.31831" lon="3.83296">
        <ele>379.20001220703</ele>
        <time>2022-10-29T13:05:21.000Z</time>
      </trkpt>
      <trkpt lat="47.31846" lon="3.83322">
        <ele>378.20001220703</ele>
        <time>2022-10-29T13:05:23.000Z</time>
      </trkpt>
      <trkpt lat="47.3186" lon="3.83348">
        <ele>377</ele>
        <time>2022-10-29T13:05:25.000Z</time>
      </trkpt>
      <trkpt lat="47.31878" lon="3.83392">
        <ele>375.79998779297</ele>
        <time>2022-10-29T13:05:28.000Z</time>
      </trkpt>
      <trkpt lat="47.31886" lon="3.83424">
        <ele>374.39999389648</ele>
        <time>2022-10-29T13:05:30.000Z</time>
      </trkpt>
      <trkpt lat="47.31893" lon="3.83456">
        <ele>373</ele>
        <time>2022-10-29T13:05:32.000Z</time>
      </trkpt>
      <trkpt lat="47.31899" lon="3.83488">
        <ele>372</ele>
        <time>2022-10-29T13:05:34.000Z</time>
      </trkpt>
      <trkpt lat="47.31906" lon="3.8352">
        <ele>370.60000610352</ele>
        <time>2022-10-29T13:05:36.000Z</time>
      </trkpt>
      <trkpt lat="47.31918" lon="3.83568">
        <ele>369.60000610352</ele>
        <time>2022-10-29T13:05:39.000Z</time>
      </trkpt>
      <trkpt lat="47.3193" lon="3.83595">
        <ele>369</ele>
        <time>2022-10-29T13:05:41.000Z</time>
      </trkpt>
      <trkpt lat="47.31939" lon="3.83607">
        <ele>367.79998779297</ele>
        <time>2022-10-29T13:05:42.000Z</time>
      </trkpt>
      <trkpt lat="47.31948" lon="3.83615">
        <ele>367.60000610352</ele>
        <time>2022-10-29T13:05:43.000Z</time>
      </trkpt>
      <trkpt lat="47.31958" lon="3.83622">
        <ele>367</ele>
        <time>2022-10-29T13:05:44.000Z</time>
      </trkpt>
      <trkpt lat="47.31967" lon="3.83626">
        <ele>366.60000610352</ele>
        <time>2022-10-29T13:05:45.000Z</time>
      </trkpt>
      <trkpt lat="47.31979" lon="3.83629">
        <ele>365.79998779297</ele>
        <time>2022-10-29T13:05:46.000Z</time>
      </trkpt>
      <trkpt lat="47.3199" lon="3.83629">
        <ele>365.60000610352</ele>
        <time>2022-10-29T13:05:47.000Z</time>
      </trkpt>
      <trkpt lat="47.32001" lon="3.83627">
        <ele>364.60000610352</ele>
        <time>2022-10-29T13:05:48.000Z</time>
      </trkpt>
      <trkpt lat="47.32025" lon="3.83624">
        <ele>363.39999389648</ele>
        <time>2022-10-29T13:05:50.000Z</time>
      </trkpt>
      <trkpt lat="47.32049" lon="3.83621">
        <ele>362.39999389648</ele>
        <time>2022-10-29T13:05:52.000Z</time>
      </trkpt>
      <trkpt lat="47.32049" lon="3.83621">
        <ele>361.60000610352</ele>
        <time>2022-10-29T13:05:53.000Z</time>
      </trkpt>
      <trkpt lat="47.32073" lon="3.83626">
        <ele>361</ele>
        <time>2022-10-29T13:05:54.000Z</time>
      </trkpt>
      <trkpt lat="47.32084" lon="3.83632">
        <ele>360</ele>
        <time>2022-10-29T13:05:55.000Z</time>
      </trkpt>
      <trkpt lat="47.32094" lon="3.8364">
        <ele>359.20001220703</ele>
        <time>2022-10-29T13:05:56.000Z</time>
      </trkpt>
      <trkpt lat="47.3211" lon="3.83663">
        <ele>358</ele>
        <time>2022-10-29T13:05:58.000Z</time>
      </trkpt>
      <trkpt lat="47.3213" lon="3.83699">
        <ele>357.20001220703</ele>
        <time>2022-10-29T13:06:01.000Z</time>
      </trkpt>
      <trkpt lat="47.32139" lon="3.83707">
        <ele>356.79998779297</ele>
        <time>2022-10-29T13:06:02.000Z</time>
      </trkpt>
      <trkpt lat="47.32149" lon="3.83713">
        <ele>356.60000610352</ele>
        <time>2022-10-29T13:06:03.000Z</time>
      </trkpt>
      <trkpt lat="47.32169" lon="3.83718">
        <ele>356.20001220703</ele>
        <time>2022-10-29T13:06:05.000Z</time>
      </trkpt>
      <trkpt lat="47.32187" lon="3.83712">
        <ele>355.79998779297</ele>
        <time>2022-10-29T13:06:07.000Z</time>
      </trkpt>
      <trkpt lat="47.32196" lon="3.83706">
        <ele>355.79998779297</ele>
        <time>2022-10-29T13:06:08.000Z</time>
      </trkpt>
      <trkpt lat="47.32205" lon="3.83699">
        <ele>355.39999389648</ele>
        <time>2022-10-29T13:06:09.000Z</time>
      </trkpt>
      <trkpt lat="47.3222" lon="3.83684">
        <ele>355.20001220703</ele>
        <time>2022-10-29T13:06:11.000Z</time>
      </trkpt>
      <trkpt lat="47.32228" lon="3.83678">
        <ele>355.20001220703</ele>
        <time>2022-10-29T13:06:12.000Z</time>
      </trkpt>
      <trkpt lat="47.32269" lon="3.8366">
        <ele>355</ele>
        <time>2022-10-29T13:06:17.000Z</time>
      </trkpt>
      <trkpt lat="47.32298" lon="3.83667">
        <ele>355.39999389648</ele>
        <time>2022-10-29T13:06:21.000Z</time>
      </trkpt>
      <trkpt lat="47.3231" lon="3.83676">
        <ele>355.60000610352</ele>
        <time>2022-10-29T13:06:23.000Z</time>
      </trkpt>
      <trkpt lat="47.32317" lon="3.8369">
        <ele>356</ele>
        <time>2022-10-29T13:06:25.000Z</time>
      </trkpt>
      <trkpt lat="47.3232" lon="3.83697">
        <ele>356.20001220703</ele>
        <time>2022-10-29T13:06:26.000Z</time>
      </trkpt>
      <trkpt lat="47.32326" lon="3.83718">
        <ele>356.60000610352</ele>
        <time>2022-10-29T13:06:29.000Z</time>
      </trkpt>
      <trkpt lat="47.32328" lon="3.83725">
        <ele>357</ele>
        <time>2022-10-29T13:06:30.000Z</time>
      </trkpt>
      <trkpt lat="47.32334" lon="3.83748">
        <ele>358.20001220703</ele>
        <time>2022-10-29T13:06:34.000Z</time>
      </trkpt>
      <trkpt lat="47.32337" lon="3.83761">
        <ele>358.79998779297</ele>
        <time>2022-10-29T13:06:36.000Z</time>
      </trkpt>
      <trkpt lat="47.32339" lon="3.83771">
        <ele>359.20001220703</ele>
        <time>2022-10-29T13:06:38.000Z</time>
      </trkpt>
      <trkpt lat="47.32349" lon="3.83804">
        <ele>360.60000610352</ele>
        <time>2022-10-29T13:06:44.000Z</time>
      </trkpt>
      <trkpt lat="47.3236" lon="3.83843">
        <ele>361.60000610352</ele>
        <time>2022-10-29T13:06:51.000Z</time>
      </trkpt>
      <trkpt lat="47.32364" lon="3.83857">
        <ele>362.20001220703</ele>
        <time>2022-10-29T13:06:54.000Z</time>
      </trkpt>
      <trkpt lat="47.32368" lon="3.83873">
        <ele>362.79998779297</ele>
        <time>2022-10-29T13:06:57.000Z</time>
      </trkpt>
      <trkpt lat="47.32371" lon="3.83888">
        <ele>363.79998779297</ele>
        <time>2022-10-29T13:07:00.000Z</time>
      </trkpt>
      <trkpt lat="47.32372" lon="3.83893">
        <ele>364</ele>
        <time>2022-10-29T13:07:01.000Z</time>
      </trkpt>
      <trkpt lat="47.3238" lon="3.83917">
        <ele>365</ele>
        <time>2022-10-29T13:07:06.000Z</time>
      </trkpt>
      <trkpt lat="47.32382" lon="3.83922">
        <ele>365.20001220703</ele>
        <time>2022-10-29T13:07:07.000Z</time>
      </trkpt>
      <trkpt lat="47.32397" lon="3.83969">
        <ele>366</ele>
        <time>2022-10-29T13:07:16.000Z</time>
      </trkpt>
      <trkpt lat="47.32399" lon="3.83974">
        <ele>366.60000610352</ele>
        <time>2022-10-29T13:07:17.000Z</time>
      </trkpt>
      <trkpt lat="47.32417" lon="3.84002">
        <ele>367.79998779297</ele>
        <time>2022-10-29T13:07:24.000Z</time>
      </trkpt>
      <trkpt lat="47.3244" lon="3.84021">
        <ele>368.60000610352</ele>
        <time>2022-10-29T13:07:31.000Z</time>
      </trkpt>
      <trkpt lat="47.32447" lon="3.84024">
        <ele>369</ele>
        <time>2022-10-29T13:07:33.000Z</time>
      </trkpt>
      <trkpt lat="47.32472" lon="3.84028">
        <ele>369.60000610352</ele>
        <time>2022-10-29T13:07:39.000Z</time>
      </trkpt>
      <trkpt lat="47.32496" lon="3.84028">
        <ele>370</ele>
        <time>2022-10-29T13:07:45.000Z</time>
      </trkpt>
      <trkpt lat="47.32512" lon="3.84028">
        <ele>370.60000610352</ele>
        <time>2022-10-29T13:07:49.000Z</time>
      </trkpt>
      <trkpt lat="47.32524" lon="3.84027">
        <ele>371.20001220703</ele>
        <time>2022-10-29T13:07:52.000Z</time>
      </trkpt>
      <trkpt lat="47.32553" lon="3.84029">
        <ele>372.20001220703</ele>
        <time>2022-10-29T13:07:59.000Z</time>
      </trkpt>
      <trkpt lat="47.32557" lon="3.84031">
        <ele>372.20001220703</ele>
        <time>2022-10-29T13:08:00.000Z</time>
      </trkpt>
      <trkpt lat="47.32573" lon="3.84041">
        <ele>373</ele>
        <time>2022-10-29T13:08:04.000Z</time>
      </trkpt>
      <trkpt lat="47.32579" lon="3.84048">
        <ele>373.20001220703</ele>
        <time>2022-10-29T13:08:06.000Z</time>
      </trkpt>
      <trkpt lat="47.32582" lon="3.84053">
        <ele>373.39999389648</ele>
        <time>2022-10-29T13:08:07.000Z</time>
      </trkpt>
      <trkpt lat="47.32591" lon="3.84071">
        <ele>374.39999389648</ele>
        <time>2022-10-29T13:08:11.000Z</time>
      </trkpt>
      <trkpt lat="47.32595" lon="3.84082">
        <ele>374.79998779297</ele>
        <time>2022-10-29T13:08:13.000Z</time>
      </trkpt>
      <trkpt lat="47.326" lon="3.84108">
        <ele>375.79998779297</ele>
        <time>2022-10-29T13:08:18.000Z</time>
      </trkpt>
      <trkpt lat="47.32601" lon="3.84112">
        <ele>376</ele>
        <time>2022-10-29T13:08:19.000Z</time>
      </trkpt>
      <trkpt lat="47.32604" lon="3.84135">
        <ele>376.39999389648</ele>
        <time>2022-10-29T13:08:24.000Z</time>
      </trkpt>
      <trkpt lat="47.32607" lon="3.84155">
        <ele>377.20001220703</ele>
        <time>2022-10-29T13:08:28.000Z</time>
      </trkpt>
      <trkpt lat="47.3261" lon="3.84173">
        <ele>377.39999389648</ele>
        <time>2022-10-29T13:08:31.000Z</time>
      </trkpt>
      <trkpt lat="47.32617" lon="3.84212">
        <ele>377.79998779297</ele>
        <time>2022-10-29T13:08:38.000Z</time>
      </trkpt>
      <trkpt lat="47.32621" lon="3.8423">
        <ele>378.20001220703</ele>
        <time>2022-10-29T13:08:41.000Z</time>
      </trkpt>
      <trkpt lat="47.32625" lon="3.8425">
        <ele>378.60000610352</ele>
        <time>2022-10-29T13:08:44.000Z</time>
      </trkpt>
      <trkpt lat="47.32632" lon="3.84296">
        <ele>379.20001220703</ele>
        <time>2022-10-29T13:08:51.000Z</time>
      </trkpt>
      <trkpt lat="47.32637" lon="3.84319">
        <ele>379.60000610352</ele>
        <time>2022-10-29T13:08:55.000Z</time>
      </trkpt>
      <trkpt lat="47.32641" lon="3.84345">
        <ele>380.39999389648</ele>
        <time>2022-10-29T13:09:00.000Z</time>
      </trkpt>
      <trkpt lat="47.32642" lon="3.84351">
        <ele>380.60000610352</ele>
        <time>2022-10-29T13:09:01.000Z</time>
      </trkpt>
      <trkpt lat="47.32649" lon="3.84395">
        <ele>381.39999389648</ele>
        <time>2022-10-29T13:09:08.000Z</time>
      </trkpt>
      <trkpt lat="47.32652" lon="3.84425">
        <ele>382.39999389648</ele>
        <time>2022-10-29T13:09:13.000Z</time>
      </trkpt>
      <trkpt lat="47.32655" lon="3.84449">
        <ele>383.60000610352</ele>
        <time>2022-10-29T13:09:17.000Z</time>
      </trkpt>
      <trkpt lat="47.32656" lon="3.84505">
        <ele>384.39999389648</ele>
        <time>2022-10-29T13:09:26.000Z</time>
      </trkpt>
      <trkpt lat="47.32656" lon="3.84529">
        <ele>384.79998779297</ele>
        <time>2022-10-29T13:09:30.000Z</time>
      </trkpt>
      <trkpt lat="47.32654" lon="3.8456">
        <ele>385.39999389648</ele>
        <time>2022-10-29T13:09:35.000Z</time>
      </trkpt>
      <trkpt lat="47.32653" lon="3.84585">
        <ele>385.79998779297</ele>
        <time>2022-10-29T13:09:39.000Z</time>
      </trkpt>
      <trkpt lat="47.32651" lon="3.84623">
        <ele>386.20001220703</ele>
        <time>2022-10-29T13:09:45.000Z</time>
      </trkpt>
      <trkpt lat="47.32649" lon="3.84684">
        <ele>386.79998779297</ele>
        <time>2022-10-29T13:09:55.000Z</time>
      </trkpt>
      <trkpt lat="47.32649" lon="3.8469">
        <ele>387</ele>
        <time>2022-10-29T13:09:56.000Z</time>
      </trkpt>
      <trkpt lat="47.32648" lon="3.84729">
        <ele>388</ele>
        <time>2022-10-29T13:10:03.000Z</time>
      </trkpt>
      <trkpt lat="47.32648" lon="3.84735">
        <ele>388.20001220703</ele>
        <time>2022-10-29T13:10:04.000Z</time>
      </trkpt>
      <trkpt lat="47.32649" lon="3.84767">
        <ele>389</ele>
        <time>2022-10-29T13:10:10.000Z</time>
      </trkpt>
      <trkpt lat="47.3265" lon="3.84783">
        <ele>389.79998779297</ele>
        <time>2022-10-29T13:10:13.000Z</time>
      </trkpt>
      <trkpt lat="47.32651" lon="3.84794">
        <ele>390.20001220703</ele>
        <time>2022-10-29T13:10:15.000Z</time>
      </trkpt>
      <trkpt lat="47.32652" lon="3.84822">
        <ele>391.20001220703</ele>
        <time>2022-10-29T13:10:20.000Z</time>
      </trkpt>
      <trkpt lat="47.32651" lon="3.84827">
        <ele>391.39999389648</ele>
        <time>2022-10-29T13:10:21.000Z</time>
      </trkpt>
      <trkpt lat="47.32651" lon="3.84852">
        <ele>392.60000610352</ele>
        <time>2022-10-29T13:10:26.000Z</time>
      </trkpt>
      <trkpt lat="47.32653" lon="3.84871">
        <ele>393.20001220703</ele>
        <time>2022-10-29T13:10:30.000Z</time>
      </trkpt>
      <trkpt lat="47.32655" lon="3.84881">
        <ele>393.60000610352</ele>
        <time>2022-10-29T13:10:32.000Z</time>
      </trkpt>
      <trkpt lat="47.32662" lon="3.84909">
        <ele>394.60000610352</ele>
        <time>2022-10-29T13:10:38.000Z</time>
      </trkpt>
      <trkpt lat="47.32664" lon="3.84914">
        <ele>394.60000610352</ele>
        <time>2022-10-29T13:10:39.000Z</time>
      </trkpt>
      <trkpt lat="47.3268" lon="3.84962">
        <ele>395.20001220703</ele>
        <time>2022-10-29T13:10:48.000Z</time>
      </trkpt>
      <trkpt lat="47.32697" lon="3.85009">
        <ele>395.20001220703</ele>
        <time>2022-10-29T13:10:55.000Z</time>
      </trkpt>
      <trkpt lat="47.32716" lon="3.85064">
        <ele>395</ele>
        <time>2022-10-29T13:11:02.000Z</time>
      </trkpt>
      <trkpt lat="47.32737" lon="3.8512">
        <ele>394.79998779297</ele>
        <time>2022-10-29T13:11:09.000Z</time>
      </trkpt>
      <trkpt lat="47.32761" lon="3.85168">
        <ele>395.39999389648</ele>
        <time>2022-10-29T13:11:16.000Z</time>
      </trkpt>
      <trkpt lat="47.32794" lon="3.85233">
        <ele>396</ele>
        <time>2022-10-29T13:11:26.000Z</time>
      </trkpt>
      <trkpt lat="47.32818" lon="3.85285">
        <ele>396.60000610352</ele>
        <time>2022-10-29T13:11:34.000Z</time>
      </trkpt>
      <trkpt lat="47.3283" lon="3.85307">
        <ele>397</ele>
        <time>2022-10-29T13:11:38.000Z</time>
      </trkpt>
      <trkpt lat="47.32839" lon="3.85321">
        <ele>397.60000610352</ele>
        <time>2022-10-29T13:11:41.000Z</time>
      </trkpt>
      <trkpt lat="47.32849" lon="3.85333">
        <ele>398.20001220703</ele>
        <time>2022-10-29T13:11:44.000Z</time>
      </trkpt>
      <trkpt lat="47.32867" lon="3.85349">
        <ele>399.20001220703</ele>
        <time>2022-10-29T13:11:49.000Z</time>
      </trkpt>
      <trkpt lat="47.32871" lon="3.85351">
        <ele>399.20001220703</ele>
        <time>2022-10-29T13:11:50.000Z</time>
      </trkpt>
      <trkpt lat="47.32889" lon="3.85361">
        <ele>400.60000610352</ele>
        <time>2022-10-29T13:11:55.000Z</time>
      </trkpt>
      <trkpt lat="47.32894" lon="3.85364">
        <ele>400.79998779297</ele>
        <time>2022-10-29T13:11:56.000Z</time>
      </trkpt>
      <trkpt lat="47.32916" lon="3.85372">
        <ele>401.79998779297</ele>
        <time>2022-10-29T13:12:02.000Z</time>
      </trkpt>
      <trkpt lat="47.32924" lon="3.85373">
        <ele>402.20001220703</ele>
        <time>2022-10-29T13:12:04.000Z</time>
      </trkpt>
      <trkpt lat="47.32928" lon="3.85374">
        <ele>402.39999389648</ele>
        <time>2022-10-29T13:12:05.000Z</time>
      </trkpt>
      <trkpt lat="47.32937" lon="3.85374">
        <ele>403</ele>
        <time>2022-10-29T13:12:07.000Z</time>
      </trkpt>
      <trkpt lat="47.32952" lon="3.85372">
        <ele>403.79998779297</ele>
        <time>2022-10-29T13:12:11.000Z</time>
      </trkpt>
      <trkpt lat="47.32957" lon="3.85372">
        <ele>404</ele>
        <time>2022-10-29T13:12:12.000Z</time>
      </trkpt>
      <trkpt lat="47.32988" lon="3.85366">
        <ele>405.39999389648</ele>
        <time>2022-10-29T13:12:20.000Z</time>
      </trkpt>
      <trkpt lat="47.33014" lon="3.85365">
        <ele>406.39999389648</ele>
        <time>2022-10-29T13:12:26.000Z</time>
      </trkpt>
      <trkpt lat="47.33018" lon="3.85366">
        <ele>406.39999389648</ele>
        <time>2022-10-29T13:12:27.000Z</time>
      </trkpt>
      <trkpt lat="47.33028" lon="3.85373">
        <ele>407</ele>
        <time>2022-10-29T13:12:30.000Z</time>
      </trkpt>
      <trkpt lat="47.33031" lon="3.85376">
        <ele>407.20001220703</ele>
        <time>2022-10-29T13:12:31.000Z</time>
      </trkpt>
      <trkpt lat="47.33034" lon="3.8538">
        <ele>407.39999389648</ele>
        <time>2022-10-29T13:12:32.000Z</time>
      </trkpt>
      <trkpt lat="47.33044" lon="3.85401">
        <ele>408.39999389648</ele>
        <time>2022-10-29T13:12:37.000Z</time>
      </trkpt>
      <trkpt lat="47.33045" lon="3.85406">
        <ele>408.39999389648</ele>
        <time>2022-10-29T13:12:38.000Z</time>
      </trkpt>
      <trkpt lat="47.33047" lon="3.8543">
        <ele>408.79998779297</ele>
        <time>2022-10-29T13:12:43.000Z</time>
      </trkpt>
      <trkpt lat="47.33043" lon="3.85449">
        <ele>409.60000610352</ele>
        <time>2022-10-29T13:12:47.000Z</time>
      </trkpt>
      <trkpt lat="47.33038" lon="3.85477">
        <ele>410.39999389648</ele>
        <time>2022-10-29T13:12:53.000Z</time>
      </trkpt>
      <trkpt lat="47.33037" lon="3.85486">
        <ele>410.79998779297</ele>
        <time>2022-10-29T13:12:55.000Z</time>
      </trkpt>
      <trkpt lat="47.33032" lon="3.85519">
        <ele>411.79998779297</ele>
        <time>2022-10-29T13:13:01.000Z</time>
      </trkpt>
      <trkpt lat="47.33036" lon="3.85547">
        <ele>412.79998779297</ele>
        <time>2022-10-29T13:13:06.000Z</time>
      </trkpt>
      <trkpt lat="47.33038" lon="3.85557">
        <ele>413.20001220703</ele>
        <time>2022-10-29T13:13:08.000Z</time>
      </trkpt>
      <trkpt lat="47.33044" lon="3.85577">
        <ele>414</ele>
        <time>2022-10-29T13:13:12.000Z</time>
      </trkpt>
      <trkpt lat="47.33055" lon="3.85604">
        <ele>415</ele>
        <time>2022-10-29T13:13:18.000Z</time>
      </trkpt>
      <trkpt lat="47.3307" lon="3.8563">
        <ele>415.60000610352</ele>
        <time>2022-10-29T13:13:25.000Z</time>
      </trkpt>
      <trkpt lat="47.33075" lon="3.85637">
        <ele>416</ele>
        <time>2022-10-29T13:13:27.000Z</time>
      </trkpt>
      <trkpt lat="47.33095" lon="3.85658">
        <ele>417.20001220703</ele>
        <time>2022-10-29T13:13:34.000Z</time>
      </trkpt>
      <trkpt lat="47.33104" lon="3.85665">
        <ele>417.39999389648</ele>
        <time>2022-10-29T13:13:37.000Z</time>
      </trkpt>
      <trkpt lat="47.33123" lon="3.8568">
        <ele>418.20001220703</ele>
        <time>2022-10-29T13:13:43.000Z</time>
      </trkpt>
      <trkpt lat="47.33143" lon="3.85696">
        <ele>418.39999389648</ele>
        <time>2022-10-29T13:13:49.000Z</time>
      </trkpt>
      <trkpt lat="47.33148" lon="3.857">
        <ele>418.39999389648</ele>
        <time>2022-10-29T13:13:51.000Z</time>
      </trkpt>
      <trkpt lat="47.33164" lon="3.85711">
        <ele>419.39999389648</ele>
        <time>2022-10-29T13:13:56.000Z</time>
      </trkpt>
      <trkpt lat="47.33171" lon="3.85716">
        <ele>420.20001220703</ele>
        <time>2022-10-29T13:13:58.000Z</time>
      </trkpt>
      <trkpt lat="47.33174" lon="3.85719">
        <ele>420.60000610352</ele>
        <time>2022-10-29T13:13:59.000Z</time>
      </trkpt>
      <trkpt lat="47.33189" lon="3.85734">
        <ele>421.79998779297</ele>
        <time>2022-10-29T13:14:04.000Z</time>
      </trkpt>
      <trkpt lat="47.33195" lon="3.8574">
        <ele>422</ele>
        <time>2022-10-29T13:14:06.000Z</time>
      </trkpt>
      <trkpt lat="47.33206" lon="3.85752">
        <ele>422.79998779297</ele>
        <time>2022-10-29T13:14:10.000Z</time>
      </trkpt>
      <trkpt lat="47.33215" lon="3.8576">
        <ele>423.39999389648</ele>
        <time>2022-10-29T13:14:13.000Z</time>
      </trkpt>
      <trkpt lat="47.33223" lon="3.85768">
        <ele>424</ele>
        <time>2022-10-29T13:14:16.000Z</time>
      </trkpt>
      <trkpt lat="47.33228" lon="3.85774">
        <ele>424.39999389648</ele>
        <time>2022-10-29T13:14:18.000Z</time>
      </trkpt>
      <trkpt lat="47.33239" lon="3.85786">
        <ele>425</ele>
        <time>2022-10-29T13:14:22.000Z</time>
      </trkpt>
      <trkpt lat="47.33247" lon="3.85796">
        <ele>425.60000610352</ele>
        <time>2022-10-29T13:14:25.000Z</time>
      </trkpt>
      <trkpt lat="47.33262" lon="3.85813">
        <ele>426.20001220703</ele>
        <time>2022-10-29T13:14:30.000Z</time>
      </trkpt>
      <trkpt lat="47.33265" lon="3.85817">
        <ele>426.20001220703</ele>
        <time>2022-10-29T13:14:31.000Z</time>
      </trkpt>
      <trkpt lat="47.33275" lon="3.85833">
        <ele>427.20001220703</ele>
        <time>2022-10-29T13:14:35.000Z</time>
      </trkpt>
      <trkpt lat="47.3329" lon="3.85853">
        <ele>428.20001220703</ele>
        <time>2022-10-29T13:14:41.000Z</time>
      </trkpt>
      <trkpt lat="47.33293" lon="3.85857">
        <ele>428.20001220703</ele>
        <time>2022-10-29T13:14:42.000Z</time>
      </trkpt>
      <trkpt lat="47.33308" lon="3.85873">
        <ele>429.39999389648</ele>
        <time>2022-10-29T13:14:47.000Z</time>
      </trkpt>
      <trkpt lat="47.3331" lon="3.85875">
        <ele>429.39999389648</ele>
        <time>2022-10-29T13:14:48.000Z</time>
      </trkpt>
      <trkpt lat="47.33328" lon="3.85892">
        <ele>430.39999389648</ele>
        <time>2022-10-29T13:14:54.000Z</time>
      </trkpt>
      <trkpt lat="47.33338" lon="3.85899">
        <ele>430.60000610352</ele>
        <time>2022-10-29T13:14:57.000Z</time>
      </trkpt>
      <trkpt lat="47.3337" lon="3.85917">
        <ele>431.39999389648</ele>
        <time>2022-10-29T13:15:05.000Z</time>
      </trkpt>
      <trkpt lat="47.33375" lon="3.85918">
        <ele>431.60000610352</ele>
        <time>2022-10-29T13:15:06.000Z</time>
      </trkpt>
      <trkpt lat="47.33396" lon="3.85925">
        <ele>432</ele>
        <time>2022-10-29T13:15:11.000Z</time>
      </trkpt>
      <trkpt lat="47.33405" lon="3.85929">
        <ele>432</ele>
        <time>2022-10-29T13:15:13.000Z</time>
      </trkpt>
      <trkpt lat="47.3344" lon="3.85943">
        <ele>432.39999389648</ele>
        <time>2022-10-29T13:15:21.000Z</time>
      </trkpt>
      <trkpt lat="47.33443" lon="3.85947">
        <ele>432.39999389648</ele>
        <time>2022-10-29T13:15:22.000Z</time>
      </trkpt>
      <trkpt lat="47.33446" lon="3.85953">
        <ele>432.60000610352</ele>
        <time>2022-10-29T13:15:23.000Z</time>
      </trkpt>
      <trkpt lat="47.33451" lon="3.85972">
        <ele>432.60000610352</ele>
        <time>2022-10-29T13:15:26.000Z</time>
      </trkpt>
      <trkpt lat="47.33457" lon="3.85998">
        <ele>432.79998779297</ele>
        <time>2022-10-29T13:15:30.000Z</time>
      </trkpt>
      <trkpt lat="47.3346" lon="3.8601">
        <ele>432.79998779297</ele>
        <time>2022-10-29T13:15:32.000Z</time>
      </trkpt>
      <trkpt lat="47.33467" lon="3.86032">
        <ele>432.39999389648</ele>
        <time>2022-10-29T13:15:37.000Z</time>
      </trkpt>
      <trkpt lat="47.33471" lon="3.86047">
        <ele>432.60000610352</ele>
        <time>2022-10-29T13:15:43.000Z</time>
      </trkpt>
      <trkpt lat="47.33474" lon="3.86049">
        <ele>432.79998779297</ele>
        <time>2022-10-29T13:15:45.000Z</time>
      </trkpt>
      <trkpt lat="47.33475" lon="3.86046">
        <ele>433.20001220703</ele>
        <time>2022-10-29T13:15:47.000Z</time>
      </trkpt>
      <trkpt lat="47.3347" lon="3.86027">
        <ele>433.60000610352</ele>
        <time>2022-10-29T13:15:52.000Z</time>
      </trkpt>
      <trkpt lat="47.33461" lon="3.85999">
        <ele>433.20001220703</ele>
        <time>2022-10-29T13:15:58.000Z</time>
      </trkpt>
      <trkpt lat="47.33459" lon="3.85996">
        <ele>433</ele>
        <time>2022-10-29T13:15:59.000Z</time>
      </trkpt>
      <trkpt lat="47.33455" lon="3.85994">
        <ele>433</ele>
        <time>2022-10-29T13:16:01.000Z</time>
      </trkpt>
      <trkpt lat="47.33454" lon="3.85995">
        <ele>433</ele>
        <time>2022-10-29T13:16:02.000Z</time>
      </trkpt>
      <trkpt lat="47.33454" lon="3.85996">
        <ele>432.79998779297</ele>
        <time>2022-10-29T13:16:05.000Z</time>
      </trkpt>
      <trkpt lat="47.33453" lon="3.85996">
        <ele>432.39999389648</ele>
        <time>2022-10-29T13:16:17.000Z</time>
      </trkpt>
      <trkpt lat="47.33453" lon="3.85997">
        <ele>432.39999389648</ele>
        <time>2022-10-29T13:16:40.000Z</time>
      </trkpt>
      <trkpt lat="47.33455" lon="3.86002">
        <ele>432.39999389648</ele>
        <time>2022-10-29T13:16:42.000Z</time>
      </trkpt>
      <trkpt lat="47.33463" lon="3.86021">
        <ele>432.60000610352</ele>
        <time>2022-10-29T13:16:47.000Z</time>
      </trkpt>
      <trkpt lat="47.33474" lon="3.86058">
        <ele>432.79998779297</ele>
        <time>2022-10-29T13:16:54.000Z</time>
      </trkpt>
      <trkpt lat="47.33488" lon="3.86089">
        <ele>433.20001220703</ele>
        <time>2022-10-29T13:17:01.000Z</time>
      </trkpt>
      <trkpt lat="47.33505" lon="3.86109">
        <ele>433.60000610352</ele>
        <time>2022-10-29T13:17:07.000Z</time>
      </trkpt>
      <trkpt lat="47.33513" lon="3.86119">
        <ele>434</ele>
        <time>2022-10-29T13:17:10.000Z</time>
      </trkpt>
      <trkpt lat="47.33523" lon="3.86129">
        <ele>434.20001220703</ele>
        <time>2022-10-29T13:17:13.000Z</time>
      </trkpt>
      <trkpt lat="47.33547" lon="3.8616">
        <ele>434.60000610352</ele>
        <time>2022-10-29T13:17:21.000Z</time>
      </trkpt>
      <trkpt lat="47.33561" lon="3.86188">
        <ele>435.20001220703</ele>
        <time>2022-10-29T13:17:27.000Z</time>
      </trkpt>
      <trkpt lat="47.33562" lon="3.86194">
        <ele>435.20001220703</ele>
        <time>2022-10-29T13:17:28.000Z</time>
      </trkpt>
      <trkpt lat="47.33565" lon="3.86227">
        <ele>435.79998779297</ele>
        <time>2022-10-29T13:17:34.000Z</time>
      </trkpt>
      <trkpt lat="47.33561" lon="3.86249">
        <ele>436.39999389648</ele>
        <time>2022-10-29T13:17:38.000Z</time>
      </trkpt>
      <trkpt lat="47.33557" lon="3.86265">
        <ele>436.79998779297</ele>
        <time>2022-10-29T13:17:41.000Z</time>
      </trkpt>
      <trkpt lat="47.33543" lon="3.86315">
        <ele>437.39999389648</ele>
        <time>2022-10-29T13:17:50.000Z</time>
      </trkpt>
      <trkpt lat="47.33538" lon="3.86332">
        <ele>437.79998779297</ele>
        <time>2022-10-29T13:17:53.000Z</time>
      </trkpt>
      <trkpt lat="47.33528" lon="3.86372">
        <ele>438.79998779297</ele>
        <time>2022-10-29T13:18:00.000Z</time>
      </trkpt>
      <trkpt lat="47.33515" lon="3.86417">
        <ele>438.79998779297</ele>
        <time>2022-10-29T13:18:08.000Z</time>
      </trkpt>
      <trkpt lat="47.33514" lon="3.86422">
        <ele>438.79998779297</ele>
        <time>2022-10-29T13:18:09.000Z</time>
      </trkpt>
      <trkpt lat="47.33502" lon="3.86466">
        <ele>439.20001220703</ele>
        <time>2022-10-29T13:18:17.000Z</time>
      </trkpt>
      <trkpt lat="47.33496" lon="3.86492">
        <ele>440</ele>
        <time>2022-10-29T13:18:22.000Z</time>
      </trkpt>
      <trkpt lat="47.33492" lon="3.86508">
        <ele>440.20001220703</ele>
        <time>2022-10-29T13:18:25.000Z</time>
      </trkpt>
      <trkpt lat="47.33488" lon="3.86554">
        <ele>441</ele>
        <time>2022-10-29T13:18:33.000Z</time>
      </trkpt>
      <trkpt lat="47.33492" lon="3.86591">
        <ele>442.20001220703</ele>
        <time>2022-10-29T13:18:40.000Z</time>
      </trkpt>
      <trkpt lat="47.33506" lon="3.86625">
        <ele>443.20001220703</ele>
        <time>2022-10-29T13:18:47.000Z</time>
      </trkpt>
      <trkpt lat="47.33508" lon="3.8663">
        <ele>443.39999389648</ele>
        <time>2022-10-29T13:18:48.000Z</time>
      </trkpt>
      <trkpt lat="47.33519" lon="3.86652">
        <ele>444.39999389648</ele>
        <time>2022-10-29T13:18:53.000Z</time>
      </trkpt>
      <trkpt lat="47.33525" lon="3.86665">
        <ele>444.79998779297</ele>
        <time>2022-10-29T13:18:56.000Z</time>
      </trkpt>
      <trkpt lat="47.3353" lon="3.86675">
        <ele>445.39999389648</ele>
        <time>2022-10-29T13:18:58.000Z</time>
      </trkpt>
      <trkpt lat="47.33545" lon="3.86706">
        <ele>446.20001220703</ele>
        <time>2022-10-29T13:19:05.000Z</time>
      </trkpt>
      <trkpt lat="47.33551" lon="3.86719">
        <ele>446.39999389648</ele>
        <time>2022-10-29T13:19:08.000Z</time>
      </trkpt>
      <trkpt lat="47.33563" lon="3.86746">
        <ele>447.39999389648</ele>
        <time>2022-10-29T13:19:14.000Z</time>
      </trkpt>
      <trkpt lat="47.33565" lon="3.8675">
        <ele>447.60000610352</ele>
        <time>2022-10-29T13:19:15.000Z</time>
      </trkpt>
      <trkpt lat="47.33575" lon="3.86773">
        <ele>448.60000610352</ele>
        <time>2022-10-29T13:19:20.000Z</time>
      </trkpt>
      <trkpt lat="47.33582" lon="3.86792">
        <ele>449</ele>
        <time>2022-10-29T13:19:24.000Z</time>
      </trkpt>
      <trkpt lat="47.3359" lon="3.86816">
        <ele>449.60000610352</ele>
        <time>2022-10-29T13:19:29.000Z</time>
      </trkpt>
      <trkpt lat="47.33593" lon="3.86826">
        <ele>449.79998779297</ele>
        <time>2022-10-29T13:19:31.000Z</time>
      </trkpt>
      <trkpt lat="47.33599" lon="3.86846">
        <ele>450.60000610352</ele>
        <time>2022-10-29T13:19:35.000Z</time>
      </trkpt>
      <trkpt lat="47.33608" lon="3.86883">
        <ele>451.39999389648</ele>
        <time>2022-10-29T13:19:42.000Z</time>
      </trkpt>
      <trkpt lat="47.33611" lon="3.86895">
        <ele>451.79998779297</ele>
        <time>2022-10-29T13:19:44.000Z</time>
      </trkpt>
      <trkpt lat="47.33621" lon="3.86928">
        <ele>452.60000610352</ele>
        <time>2022-10-29T13:19:50.000Z</time>
      </trkpt>
      <trkpt lat="47.33623" lon="3.86933">
        <ele>452.79998779297</ele>
        <time>2022-10-29T13:19:51.000Z</time>
      </trkpt>
      <trkpt lat="47.33632" lon="3.86965">
        <ele>453.60000610352</ele>
        <time>2022-10-29T13:19:57.000Z</time>
      </trkpt>
      <trkpt lat="47.33634" lon="3.8697">
        <ele>453.79998779297</ele>
        <time>2022-10-29T13:19:58.000Z</time>
      </trkpt>
      <trkpt lat="47.33636" lon="3.86981">
        <ele>454</ele>
        <time>2022-10-29T13:20:00.000Z</time>
      </trkpt>
      <trkpt lat="47.33646" lon="3.87021">
        <ele>454.79998779297</ele>
        <time>2022-10-29T13:20:07.000Z</time>
      </trkpt>
      <trkpt lat="47.33648" lon="3.87031">
        <ele>455</ele>
        <time>2022-10-29T13:20:09.000Z</time>
      </trkpt>
      <trkpt lat="47.33659" lon="3.87073">
        <ele>456</ele>
        <time>2022-10-29T13:20:17.000Z</time>
      </trkpt>
      <trkpt lat="47.33665" lon="3.87113">
        <ele>456.39999389648</ele>
        <time>2022-10-29T13:20:24.000Z</time>
      </trkpt>
      <trkpt lat="47.33659" lon="3.87143">
        <ele>456.39999389648</ele>
        <time>2022-10-29T13:20:29.000Z</time>
      </trkpt>
      <trkpt lat="47.33658" lon="3.87149">
        <ele>456.39999389648</ele>
        <time>2022-10-29T13:20:30.000Z</time>
      </trkpt>
      <trkpt lat="47.33651" lon="3.87177">
        <ele>456</ele>
        <time>2022-10-29T13:20:34.000Z</time>
      </trkpt>
      <trkpt lat="47.33643" lon="3.87215">
        <ele>455.79998779297</ele>
        <time>2022-10-29T13:20:39.000Z</time>
      </trkpt>
      <trkpt lat="47.33642" lon="3.87223">
        <ele>456</ele>
        <time>2022-10-29T13:20:40.000Z</time>
      </trkpt>
      <trkpt lat="47.33641" lon="3.87257">
        <ele>455.79998779297</ele>
        <time>2022-10-29T13:20:44.000Z</time>
      </trkpt>
      <trkpt lat="47.33643" lon="3.87283">
        <ele>455.20001220703</ele>
        <time>2022-10-29T13:20:47.000Z</time>
      </trkpt>
      <trkpt lat="47.33644" lon="3.87291">
        <ele>455.20001220703</ele>
        <time>2022-10-29T13:20:48.000Z</time>
      </trkpt>
      <trkpt lat="47.33653" lon="3.87345">
        <ele>454.79998779297</ele>
        <time>2022-10-29T13:20:55.000Z</time>
      </trkpt>
      <trkpt lat="47.33655" lon="3.87352">
        <ele>454.79998779297</ele>
        <time>2022-10-29T13:20:56.000Z</time>
      </trkpt>
      <trkpt lat="47.33665" lon="3.87379">
        <ele>455</ele>
        <time>2022-10-29T13:21:00.000Z</time>
      </trkpt>
      <trkpt lat="47.3367" lon="3.87394">
        <ele>455.20001220703</ele>
        <time>2022-10-29T13:21:02.000Z</time>
      </trkpt>
      <trkpt lat="47.33685" lon="3.87427">
        <ele>455.20001220703</ele>
        <time>2022-10-29T13:21:07.000Z</time>
      </trkpt>
      <trkpt lat="47.33712" lon="3.87489">
        <ele>455</ele>
        <time>2022-10-29T13:21:16.000Z</time>
      </trkpt>
      <trkpt lat="47.33741" lon="3.87546">
        <ele>455.60000610352</ele>
        <time>2022-10-29T13:21:25.000Z</time>
      </trkpt>
      <trkpt lat="47.33752" lon="3.87562">
        <ele>456.39999389648</ele>
        <time>2022-10-29T13:21:28.000Z</time>
      </trkpt>
      <trkpt lat="47.33772" lon="3.87584">
        <ele>457.60000610352</ele>
        <time>2022-10-29T13:21:33.000Z</time>
      </trkpt>
      <trkpt lat="47.33794" lon="3.87609">
        <ele>458.60000610352</ele>
        <time>2022-10-29T13:21:39.000Z</time>
      </trkpt>
      <trkpt lat="47.33802" lon="3.87617">
        <ele>459</ele>
        <time>2022-10-29T13:21:41.000Z</time>
      </trkpt>
      <trkpt lat="47.33816" lon="3.87633">
        <ele>459.79998779297</ele>
        <time>2022-10-29T13:21:45.000Z</time>
      </trkpt>
      <trkpt lat="47.33841" lon="3.87664">
        <ele>460.39999389648</ele>
        <time>2022-10-29T13:21:52.000Z</time>
      </trkpt>
      <trkpt lat="47.33859" lon="3.87689">
        <ele>460.79998779297</ele>
        <time>2022-10-29T13:21:57.000Z</time>
      </trkpt>
      <trkpt lat="47.3388" lon="3.87715">
        <ele>460.60000610352</ele>
        <time>2022-10-29T13:22:02.000Z</time>
      </trkpt>
      <trkpt lat="47.33907" lon="3.87757">
        <ele>459.60000610352</ele>
        <time>2022-10-29T13:22:08.000Z</time>
      </trkpt>
      <trkpt lat="47.33927" lon="3.87786">
        <ele>458.39999389648</ele>
        <time>2022-10-29T13:22:12.000Z</time>
      </trkpt>
      <trkpt lat="47.33942" lon="3.87811">
        <ele>458</ele>
        <time>2022-10-29T13:22:15.000Z</time>
      </trkpt>
      <trkpt lat="47.33955" lon="3.87838">
        <ele>457.60000610352</ele>
        <time>2022-10-29T13:22:18.000Z</time>
      </trkpt>
      <trkpt lat="47.33968" lon="3.8787">
        <ele>456.79998779297</ele>
        <time>2022-10-29T13:22:21.000Z</time>
      </trkpt>
      <trkpt lat="47.33972" lon="3.87881">
        <ele>456.60000610352</ele>
        <time>2022-10-29T13:22:22.000Z</time>
      </trkpt>
      <trkpt lat="47.33988" lon="3.87926">
        <ele>455.39999389648</ele>
        <time>2022-10-29T13:22:26.000Z</time>
      </trkpt>
      <trkpt lat="47.33997" lon="3.87948">
        <ele>454.60000610352</ele>
        <time>2022-10-29T13:22:28.000Z</time>
      </trkpt>
      <trkpt lat="47.34003" lon="3.87958">
        <ele>454.39999389648</ele>
        <time>2022-10-29T13:22:29.000Z</time>
      </trkpt>
      <trkpt lat="47.34016" lon="3.87975">
        <ele>453.79998779297</ele>
        <time>2022-10-29T13:22:31.000Z</time>
      </trkpt>
      <trkpt lat="47.34024" lon="3.87982">
        <ele>453.60000610352</ele>
        <time>2022-10-29T13:22:32.000Z</time>
      </trkpt>
      <trkpt lat="47.34032" lon="3.87989">
        <ele>453.20001220703</ele>
        <time>2022-10-29T13:22:33.000Z</time>
      </trkpt>
      <trkpt lat="47.34057" lon="3.88006">
        <ele>452.20001220703</ele>
        <time>2022-10-29T13:22:36.000Z</time>
      </trkpt>
      <trkpt lat="47.34101" lon="3.88032">
        <ele>451</ele>
        <time>2022-10-29T13:22:41.000Z</time>
      </trkpt>
      <trkpt lat="47.34128" lon="3.88048">
        <ele>449.79998779297</ele>
        <time>2022-10-29T13:22:44.000Z</time>
      </trkpt>
      <trkpt lat="47.34137" lon="3.88054">
        <ele>449</ele>
        <time>2022-10-29T13:22:45.000Z</time>
      </trkpt>
      <trkpt lat="47.34146" lon="3.88059">
        <ele>448.60000610352</ele>
        <time>2022-10-29T13:22:46.000Z</time>
      </trkpt>
      <trkpt lat="47.34184" lon="3.8808">
        <ele>447</ele>
        <time>2022-10-29T13:22:50.000Z</time>
      </trkpt>
      <trkpt lat="47.34211" lon="3.88095">
        <ele>446</ele>
        <time>2022-10-29T13:22:53.000Z</time>
      </trkpt>
      <trkpt lat="47.3423" lon="3.88106">
        <ele>445.39999389648</ele>
        <time>2022-10-29T13:22:55.000Z</time>
      </trkpt>
      <trkpt lat="47.34248" lon="3.88116">
        <ele>444.60000610352</ele>
        <time>2022-10-29T13:22:57.000Z</time>
      </trkpt>
      <trkpt lat="47.34293" lon="3.88142">
        <ele>443</ele>
        <time>2022-10-29T13:23:02.000Z</time>
      </trkpt>
      <trkpt lat="47.34302" lon="3.88147">
        <ele>442.79998779297</ele>
        <time>2022-10-29T13:23:03.000Z</time>
      </trkpt>
      <trkpt lat="47.34329" lon="3.88162">
        <ele>441.79998779297</ele>
        <time>2022-10-29T13:23:06.000Z</time>
      </trkpt>
      <trkpt lat="47.34355" lon="3.8818">
        <ele>440.60000610352</ele>
        <time>2022-10-29T13:23:09.000Z</time>
      </trkpt>
      <trkpt lat="47.34363" lon="3.88187">
        <ele>440.39999389648</ele>
        <time>2022-10-29T13:23:10.000Z</time>
      </trkpt>
      <trkpt lat="47.3437" lon="3.88196">
        <ele>440</ele>
        <time>2022-10-29T13:23:11.000Z</time>
      </trkpt>
      <trkpt lat="47.34375" lon="3.88208">
        <ele>439.79998779297</ele>
        <time>2022-10-29T13:23:12.000Z</time>
      </trkpt>
      <trkpt lat="47.34377" lon="3.88221">
        <ele>439.60000610352</ele>
        <time>2022-10-29T13:23:13.000Z</time>
      </trkpt>
      <trkpt lat="47.34377" lon="3.88235">
        <ele>439</ele>
        <time>2022-10-29T13:23:14.000Z</time>
      </trkpt>
      <trkpt lat="47.34374" lon="3.88263">
        <ele>438.79998779297</ele>
        <time>2022-10-29T13:23:16.000Z</time>
      </trkpt>
      <trkpt lat="47.34366" lon="3.88289">
        <ele>438.20001220703</ele>
        <time>2022-10-29T13:23:18.000Z</time>
      </trkpt>
      <trkpt lat="47.34357" lon="3.88315">
        <ele>437.20001220703</ele>
        <time>2022-10-29T13:23:20.000Z</time>
      </trkpt>
      <trkpt lat="47.34347" lon="3.88342">
        <ele>436</ele>
        <time>2022-10-29T13:23:22.000Z</time>
      </trkpt>
      <trkpt lat="47.34337" lon="3.88368">
        <ele>435</ele>
        <time>2022-10-29T13:23:24.000Z</time>
      </trkpt>
      <trkpt lat="47.34321" lon="3.88407">
        <ele>433.20001220703</ele>
        <time>2022-10-29T13:23:27.000Z</time>
      </trkpt>
      <trkpt lat="47.34316" lon="3.88419">
        <ele>432.60000610352</ele>
        <time>2022-10-29T13:23:28.000Z</time>
      </trkpt>
      <trkpt lat="47.34305" lon="3.88444">
        <ele>431.79998779297</ele>
        <time>2022-10-29T13:23:30.000Z</time>
      </trkpt>
      <trkpt lat="47.34284" lon="3.88479">
        <ele>430.60000610352</ele>
        <time>2022-10-29T13:23:33.000Z</time>
      </trkpt>
      <trkpt lat="47.34263" lon="3.88515">
        <ele>429</ele>
        <time>2022-10-29T13:23:36.000Z</time>
      </trkpt>
      <trkpt lat="47.34241" lon="3.88549">
        <ele>427.60000610352</ele>
        <time>2022-10-29T13:23:39.000Z</time>
      </trkpt>
      <trkpt lat="47.34234" lon="3.8856">
        <ele>427</ele>
        <time>2022-10-29T13:23:40.000Z</time>
      </trkpt>
      <trkpt lat="47.34227" lon="3.88572">
        <ele>426.60000610352</ele>
        <time>2022-10-29T13:23:41.000Z</time>
      </trkpt>
      <trkpt lat="47.34213" lon="3.88596">
        <ele>425.20001220703</ele>
        <time>2022-10-29T13:23:43.000Z</time>
      </trkpt>
      <trkpt lat="47.34206" lon="3.88608">
        <ele>424</ele>
        <time>2022-10-29T13:23:44.000Z</time>
      </trkpt>
      <trkpt lat="47.34194" lon="3.88635">
        <ele>422.79998779297</ele>
        <time>2022-10-29T13:23:46.000Z</time>
      </trkpt>
      <trkpt lat="47.34174" lon="3.88692">
        <ele>421.20001220703</ele>
        <time>2022-10-29T13:23:50.000Z</time>
      </trkpt>
      <trkpt lat="47.3417" lon="3.88707">
        <ele>420.79998779297</ele>
        <time>2022-10-29T13:23:51.000Z</time>
      </trkpt>
      <trkpt lat="47.34165" lon="3.88724">
        <ele>420</ele>
        <time>2022-10-29T13:23:52.000Z</time>
      </trkpt>
      <trkpt lat="47.34158" lon="3.8875">
        <ele>418.79998779297</ele>
        <time>2022-10-29T13:23:54.000Z</time>
      </trkpt>
      <trkpt lat="47.34147" lon="3.88794">
        <ele>417.39999389648</ele>
        <time>2022-10-29T13:23:57.000Z</time>
      </trkpt>
      <trkpt lat="47.34143" lon="3.88808">
        <ele>416.39999389648</ele>
        <time>2022-10-29T13:23:58.000Z</time>
      </trkpt>
      <trkpt lat="47.34139" lon="3.88825">
        <ele>416.20001220703</ele>
        <time>2022-10-29T13:23:59.000Z</time>
      </trkpt>
      <trkpt lat="47.3413" lon="3.8888">
        <ele>415.20001220703</ele>
        <time>2022-10-29T13:24:03.000Z</time>
      </trkpt>
      <trkpt lat="47.34129" lon="3.88895">
        <ele>414.79998779297</ele>
        <time>2022-10-29T13:24:04.000Z</time>
      </trkpt>
      <trkpt lat="47.34129" lon="3.88925">
        <ele>414.20001220703</ele>
        <time>2022-10-29T13:24:06.000Z</time>
      </trkpt>
      <trkpt lat="47.34131" lon="3.8894">
        <ele>413.60000610352</ele>
        <time>2022-10-29T13:24:07.000Z</time>
      </trkpt>
      <trkpt lat="47.34134" lon="3.88955">
        <ele>413.39999389648</ele>
        <time>2022-10-29T13:24:08.000Z</time>
      </trkpt>
      <trkpt lat="47.34143" lon="3.88982">
        <ele>412.39999389648</ele>
        <time>2022-10-29T13:24:10.000Z</time>
      </trkpt>
      <trkpt lat="47.34149" lon="3.88994">
        <ele>411.79998779297</ele>
        <time>2022-10-29T13:24:11.000Z</time>
      </trkpt>
      <trkpt lat="47.34156" lon="3.89005">
        <ele>411.39999389648</ele>
        <time>2022-10-29T13:24:12.000Z</time>
      </trkpt>
      <trkpt lat="47.34174" lon="3.89026">
        <ele>410</ele>
        <time>2022-10-29T13:24:14.000Z</time>
      </trkpt>
      <trkpt lat="47.34197" lon="3.89051">
        <ele>408.79998779297</ele>
        <time>2022-10-29T13:24:17.000Z</time>
      </trkpt>
      <trkpt lat="47.34216" lon="3.8907">
        <ele>407.60000610352</ele>
        <time>2022-10-29T13:24:19.000Z</time>
      </trkpt>
      <trkpt lat="47.34237" lon="3.89098">
        <ele>406.20001220703</ele>
        <time>2022-10-29T13:24:22.000Z</time>
      </trkpt>
      <trkpt lat="47.34254" lon="3.89136">
        <ele>404.39999389648</ele>
        <time>2022-10-29T13:24:25.000Z</time>
      </trkpt>
      <trkpt lat="47.34262" lon="3.89165">
        <ele>403.39999389648</ele>
        <time>2022-10-29T13:24:27.000Z</time>
      </trkpt>
      <trkpt lat="47.34274" lon="3.89208">
        <ele>401.79998779297</ele>
        <time>2022-10-29T13:24:30.000Z</time>
      </trkpt>
      <trkpt lat="47.34278" lon="3.89222">
        <ele>401.60000610352</ele>
        <time>2022-10-29T13:24:31.000Z</time>
      </trkpt>
      <trkpt lat="47.34285" lon="3.89251">
        <ele>400.39999389648</ele>
        <time>2022-10-29T13:24:33.000Z</time>
      </trkpt>
      <trkpt lat="47.343" lon="3.89309">
        <ele>399</ele>
        <time>2022-10-29T13:24:37.000Z</time>
      </trkpt>
      <trkpt lat="47.34298" lon="3.89337">
        <ele>398.39999389648</ele>
        <time>2022-10-29T13:24:39.000Z</time>
      </trkpt>
      <trkpt lat="47.34293" lon="3.89349">
        <ele>398</ele>
        <time>2022-10-29T13:24:40.000Z</time>
      </trkpt>
      <trkpt lat="47.34285" lon="3.89358">
        <ele>397.60000610352</ele>
        <time>2022-10-29T13:24:41.000Z</time>
      </trkpt>
      <trkpt lat="47.34277" lon="3.89365">
        <ele>396.79998779297</ele>
        <time>2022-10-29T13:24:42.000Z</time>
      </trkpt>
      <trkpt lat="47.34268" lon="3.8937">
        <ele>396.60000610352</ele>
        <time>2022-10-29T13:24:43.000Z</time>
      </trkpt>
      <trkpt lat="47.34259" lon="3.89373">
        <ele>395.60000610352</ele>
        <time>2022-10-29T13:24:44.000Z</time>
      </trkpt>
      <trkpt lat="47.34242" lon="3.8938">
        <ele>395</ele>
        <time>2022-10-29T13:24:46.000Z</time>
      </trkpt>
      <trkpt lat="47.34233" lon="3.89383">
        <ele>394.39999389648</ele>
        <time>2022-10-29T13:24:47.000Z</time>
      </trkpt>
      <trkpt lat="47.34226" lon="3.89386">
        <ele>394.39999389648</ele>
        <time>2022-10-29T13:24:48.000Z</time>
      </trkpt>
      <trkpt lat="47.34211" lon="3.89396">
        <ele>394</ele>
        <time>2022-10-29T13:24:50.000Z</time>
      </trkpt>
      <trkpt lat="47.34201" lon="3.89411">
        <ele>393.60000610352</ele>
        <time>2022-10-29T13:24:52.000Z</time>
      </trkpt>
      <trkpt lat="47.34198" lon="3.89422">
        <ele>393.39999389648</ele>
        <time>2022-10-29T13:24:53.000Z</time>
      </trkpt>
      <trkpt lat="47.34196" lon="3.89433">
        <ele>393.39999389648</ele>
        <time>2022-10-29T13:24:54.000Z</time>
      </trkpt>
      <trkpt lat="47.34198" lon="3.89455">
        <ele>393.39999389648</ele>
        <time>2022-10-29T13:24:56.000Z</time>
      </trkpt>
      <trkpt lat="47.34208" lon="3.89471">
        <ele>393.20001220703</ele>
        <time>2022-10-29T13:24:58.000Z</time>
      </trkpt>
      <trkpt lat="47.34215" lon="3.89476">
        <ele>393.20001220703</ele>
        <time>2022-10-29T13:24:59.000Z</time>
      </trkpt>
      <trkpt lat="47.34245" lon="3.89489">
        <ele>392.39999389648</ele>
        <time>2022-10-29T13:25:03.000Z</time>
      </trkpt>
      <trkpt lat="47.34262" lon="3.89495">
        <ele>392</ele>
        <time>2022-10-29T13:25:05.000Z</time>
      </trkpt>
      <trkpt lat="47.34287" lon="3.89503">
        <ele>391</ele>
        <time>2022-10-29T13:25:08.000Z</time>
      </trkpt>
      <trkpt lat="47.34322" lon="3.89514">
        <ele>389.79998779297</ele>
        <time>2022-10-29T13:25:12.000Z</time>
      </trkpt>
      <trkpt lat="47.3434" lon="3.89521">
        <ele>389.39999389648</ele>
        <time>2022-10-29T13:25:14.000Z</time>
      </trkpt>
      <trkpt lat="47.34357" lon="3.89527">
        <ele>388.79998779297</ele>
        <time>2022-10-29T13:25:16.000Z</time>
      </trkpt>
      <trkpt lat="47.34384" lon="3.89536">
        <ele>387.79998779297</ele>
        <time>2022-10-29T13:25:19.000Z</time>
      </trkpt>
      <trkpt lat="47.34401" lon="3.89542">
        <ele>387</ele>
        <time>2022-10-29T13:25:21.000Z</time>
      </trkpt>
      <trkpt lat="47.34409" lon="3.89544">
        <ele>386.60000610352</ele>
        <time>2022-10-29T13:25:22.000Z</time>
      </trkpt>
      <trkpt lat="47.34435" lon="3.89557">
        <ele>385.60000610352</ele>
        <time>2022-10-29T13:25:25.000Z</time>
      </trkpt>
      <trkpt lat="47.34442" lon="3.89562">
        <ele>385.20001220703</ele>
        <time>2022-10-29T13:25:26.000Z</time>
      </trkpt>
      <trkpt lat="47.3445" lon="3.8957">
        <ele>385.20001220703</ele>
        <time>2022-10-29T13:25:27.000Z</time>
      </trkpt>
      <trkpt lat="47.34466" lon="3.8959">
        <ele>384</ele>
        <time>2022-10-29T13:25:29.000Z</time>
      </trkpt>
      <trkpt lat="47.34472" lon="3.89602">
        <ele>383.39999389648</ele>
        <time>2022-10-29T13:25:30.000Z</time>
      </trkpt>
      <trkpt lat="47.34477" lon="3.89614">
        <ele>383</ele>
        <time>2022-10-29T13:25:31.000Z</time>
      </trkpt>
      <trkpt lat="47.34482" lon="3.89627">
        <ele>382.79998779297</ele>
        <time>2022-10-29T13:25:32.000Z</time>
      </trkpt>
      <trkpt lat="47.34485" lon="3.89654">
        <ele>382.20001220703</ele>
        <time>2022-10-29T13:25:34.000Z</time>
      </trkpt>
      <trkpt lat="47.34483" lon="3.89667">
        <ele>381.60000610352</ele>
        <time>2022-10-29T13:25:35.000Z</time>
      </trkpt>
      <trkpt lat="47.3448" lon="3.89679">
        <ele>381.39999389648</ele>
        <time>2022-10-29T13:25:36.000Z</time>
      </trkpt>
      <trkpt lat="47.34475" lon="3.89689">
        <ele>381.20001220703</ele>
        <time>2022-10-29T13:25:37.000Z</time>
      </trkpt>
      <trkpt lat="47.3447" lon="3.89699">
        <ele>380.60000610352</ele>
        <time>2022-10-29T13:25:38.000Z</time>
      </trkpt>
      <trkpt lat="47.34448" lon="3.89737">
        <ele>379.60000610352</ele>
        <time>2022-10-29T13:25:42.000Z</time>
      </trkpt>
      <trkpt lat="47.34444" lon="3.89747">
        <ele>379.39999389648</ele>
        <time>2022-10-29T13:25:43.000Z</time>
      </trkpt>
      <trkpt lat="47.34437" lon="3.89771">
        <ele>378.79998779297</ele>
        <time>2022-10-29T13:25:45.000Z</time>
      </trkpt>
      <trkpt lat="47.34435" lon="3.89783">
        <ele>378.60000610352</ele>
        <time>2022-10-29T13:25:46.000Z</time>
      </trkpt>
      <trkpt lat="47.34433" lon="3.89796">
        <ele>378.20001220703</ele>
        <time>2022-10-29T13:25:47.000Z</time>
      </trkpt>
      <trkpt lat="47.34432" lon="3.89809">
        <ele>378.20001220703</ele>
        <time>2022-10-29T13:25:48.000Z</time>
      </trkpt>
      <trkpt lat="47.34431" lon="3.89834">
        <ele>377.60000610352</ele>
        <time>2022-10-29T13:25:50.000Z</time>
      </trkpt>
      <trkpt lat="47.34434" lon="3.89859">
        <ele>377</ele>
        <time>2022-10-29T13:25:52.000Z</time>
      </trkpt>
      <trkpt lat="47.34437" lon="3.89883">
        <ele>376.60000610352</ele>
        <time>2022-10-29T13:25:54.000Z</time>
      </trkpt>
      <trkpt lat="47.34447" lon="3.89919">
        <ele>375.79998779297</ele>
        <time>2022-10-29T13:25:57.000Z</time>
      </trkpt>
      <trkpt lat="47.34457" lon="3.89953">
        <ele>375</ele>
        <time>2022-10-29T13:26:00.000Z</time>
      </trkpt>
      <trkpt lat="47.34459" lon="3.89966">
        <ele>374.60000610352</ele>
        <time>2022-10-29T13:26:01.000Z</time>
      </trkpt>
      <trkpt lat="47.34461" lon="3.89978">
        <ele>374.39999389648</ele>
        <time>2022-10-29T13:26:02.000Z</time>
      </trkpt>
      <trkpt lat="47.34463" lon="3.90007">
        <ele>373.60000610352</ele>
        <time>2022-10-29T13:26:04.000Z</time>
      </trkpt>
      <trkpt lat="47.34461" lon="3.9003">
        <ele>373.20001220703</ele>
        <time>2022-10-29T13:26:06.000Z</time>
      </trkpt>
      <trkpt lat="47.34457" lon="3.90044">
        <ele>373</ele>
        <time>2022-10-29T13:26:07.000Z</time>
      </trkpt>
      <trkpt lat="47.34454" lon="3.90052">
        <ele>372.39999389648</ele>
        <time>2022-10-29T13:26:08.000Z</time>
      </trkpt>
      <trkpt lat="47.34432" lon="3.90122">
        <ele>371.60000610352</ele>
        <time>2022-10-29T13:26:14.000Z</time>
      </trkpt>
      <trkpt lat="47.34431" lon="3.90132">
        <ele>371.20001220703</ele>
        <time>2022-10-29T13:26:15.000Z</time>
      </trkpt>
      <trkpt lat="47.34428" lon="3.90194">
        <ele>370</ele>
        <time>2022-10-29T13:26:20.000Z</time>
      </trkpt>
      <trkpt lat="47.34417" lon="3.90254">
        <ele>369.39999389648</ele>
        <time>2022-10-29T13:26:25.000Z</time>
      </trkpt>
      <trkpt lat="47.34414" lon="3.9029">
        <ele>369.20001220703</ele>
        <time>2022-10-29T13:26:28.000Z</time>
      </trkpt>
      <trkpt lat="47.34414" lon="3.90302">
        <ele>369</ele>
        <time>2022-10-29T13:26:29.000Z</time>
      </trkpt>
      <trkpt lat="47.34415" lon="3.90313">
        <ele>368.79998779297</ele>
        <time>2022-10-29T13:26:30.000Z</time>
      </trkpt>
      <trkpt lat="47.34423" lon="3.90357">
        <ele>368.60000610352</ele>
        <time>2022-10-29T13:26:34.000Z</time>
      </trkpt>
      <trkpt lat="47.34441" lon="3.90443">
        <ele>368.20001220703</ele>
        <time>2022-10-29T13:26:42.000Z</time>
      </trkpt>
      <trkpt lat="47.34444" lon="3.90454">
        <ele>367.79998779297</ele>
        <time>2022-10-29T13:26:43.000Z</time>
      </trkpt>
      <trkpt lat="47.34462" lon="3.90511">
        <ele>366.79998779297</ele>
        <time>2022-10-29T13:26:48.000Z</time>
      </trkpt>
      <trkpt lat="47.3447" lon="3.90534">
        <ele>365.60000610352</ele>
        <time>2022-10-29T13:26:50.000Z</time>
      </trkpt>
      <trkpt lat="47.34479" lon="3.90556">
        <ele>365</ele>
        <time>2022-10-29T13:26:52.000Z</time>
      </trkpt>
      <trkpt lat="47.34485" lon="3.90566">
        <ele>364.20001220703</ele>
        <time>2022-10-29T13:26:53.000Z</time>
      </trkpt>
      <trkpt lat="47.34514" lon="3.90603">
        <ele>363.20001220703</ele>
        <time>2022-10-29T13:26:57.000Z</time>
      </trkpt>
      <trkpt lat="47.34522" lon="3.90612">
        <ele>362.39999389648</ele>
        <time>2022-10-29T13:26:58.000Z</time>
      </trkpt>
      <trkpt lat="47.3453" lon="3.90621">
        <ele>362</ele>
        <time>2022-10-29T13:26:59.000Z</time>
      </trkpt>
      <trkpt lat="47.34545" lon="3.90641">
        <ele>361.39999389648</ele>
        <time>2022-10-29T13:27:01.000Z</time>
      </trkpt>
      <trkpt lat="47.34552" lon="3.90653">
        <ele>360.79998779297</ele>
        <time>2022-10-29T13:27:02.000Z</time>
      </trkpt>
      <trkpt lat="47.34558" lon="3.90667">
        <ele>360.39999389648</ele>
        <time>2022-10-29T13:27:03.000Z</time>
      </trkpt>
      <trkpt lat="47.34567" lon="3.90695">
        <ele>359.60000610352</ele>
        <time>2022-10-29T13:27:05.000Z</time>
      </trkpt>
      <trkpt lat="47.34579" lon="3.90738">
        <ele>358.79998779297</ele>
        <time>2022-10-29T13:27:08.000Z</time>
      </trkpt>
      <trkpt lat="47.3459" lon="3.90779">
        <ele>357.20001220703</ele>
        <time>2022-10-29T13:27:11.000Z</time>
      </trkpt>
      <trkpt lat="47.34595" lon="3.90805">
        <ele>355.79998779297</ele>
        <time>2022-10-29T13:27:13.000Z</time>
      </trkpt>
      <trkpt lat="47.34594" lon="3.90818">
        <ele>354.60000610352</ele>
        <time>2022-10-29T13:27:14.000Z</time>
      </trkpt>
      <trkpt lat="47.34592" lon="3.90831">
        <ele>354.20001220703</ele>
        <time>2022-10-29T13:27:15.000Z</time>
      </trkpt>
      <trkpt lat="47.34588" lon="3.90842">
        <ele>353.60000610352</ele>
        <time>2022-10-29T13:27:16.000Z</time>
      </trkpt>
      <trkpt lat="47.34582" lon="3.90853">
        <ele>353.39999389648</ele>
        <time>2022-10-29T13:27:17.000Z</time>
      </trkpt>
      <trkpt lat="47.34567" lon="3.90868">
        <ele>352.20001220703</ele>
        <time>2022-10-29T13:27:19.000Z</time>
      </trkpt>
      <trkpt lat="47.34558" lon="3.90873">
        <ele>352</ele>
        <time>2022-10-29T13:27:20.000Z</time>
      </trkpt>
      <trkpt lat="47.34547" lon="3.90877">
        <ele>351.60000610352</ele>
        <time>2022-10-29T13:27:21.000Z</time>
      </trkpt>
      <trkpt lat="47.3454" lon="3.90878">
        <ele>351.20001220703</ele>
        <time>2022-10-29T13:27:22.000Z</time>
      </trkpt>
      <trkpt lat="47.34531" lon="3.90878">
        <ele>350.39999389648</ele>
        <time>2022-10-29T13:27:23.000Z</time>
      </trkpt>
      <trkpt lat="47.3452" lon="3.90874">
        <ele>350</ele>
        <time>2022-10-29T13:27:24.000Z</time>
      </trkpt>
      <trkpt lat="47.34514" lon="3.9087">
        <ele>349.60000610352</ele>
        <time>2022-10-29T13:27:25.000Z</time>
      </trkpt>
      <trkpt lat="47.34507" lon="3.90863">
        <ele>349</ele>
        <time>2022-10-29T13:27:26.000Z</time>
      </trkpt>
      <trkpt lat="47.345" lon="3.90854">
        <ele>348.60000610352</ele>
        <time>2022-10-29T13:27:27.000Z</time>
      </trkpt>
      <trkpt lat="47.34488" lon="3.90831">
        <ele>348</ele>
        <time>2022-10-29T13:27:29.000Z</time>
      </trkpt>
      <trkpt lat="47.34483" lon="3.90819">
        <ele>347.20001220703</ele>
        <time>2022-10-29T13:27:30.000Z</time>
      </trkpt>
      <trkpt lat="47.34479" lon="3.9081">
        <ele>346.60000610352</ele>
        <time>2022-10-29T13:27:31.000Z</time>
      </trkpt>
      <trkpt lat="47.34474" lon="3.90798">
        <ele>345.39999389648</ele>
        <time>2022-10-29T13:27:32.000Z</time>
      </trkpt>
      <trkpt lat="47.34465" lon="3.90774">
        <ele>344.60000610352</ele>
        <time>2022-10-29T13:27:34.000Z</time>
      </trkpt>
      <trkpt lat="47.34454" lon="3.9075">
        <ele>343.60000610352</ele>
        <time>2022-10-29T13:27:36.000Z</time>
      </trkpt>
      <trkpt lat="47.34448" lon="3.90739">
        <ele>342.39999389648</ele>
        <time>2022-10-29T13:27:37.000Z</time>
      </trkpt>
      <trkpt lat="47.34424" lon="3.90711">
        <ele>340.79998779297</ele>
        <time>2022-10-29T13:27:40.000Z</time>
      </trkpt>
      <trkpt lat="47.34398" lon="3.90691">
        <ele>339.39999389648</ele>
        <time>2022-10-29T13:27:43.000Z</time>
      </trkpt>
      <trkpt lat="47.34381" lon="3.90678">
        <ele>338.60000610352</ele>
        <time>2022-10-29T13:27:45.000Z</time>
      </trkpt>
      <trkpt lat="47.34372" lon="3.90672">
        <ele>338.20001220703</ele>
        <time>2022-10-29T13:27:46.000Z</time>
      </trkpt>
      <trkpt lat="47.34354" lon="3.90662">
        <ele>338</ele>
        <time>2022-10-29T13:27:48.000Z</time>
      </trkpt>
      <trkpt lat="47.34345" lon="3.9066">
        <ele>337.20001220703</ele>
        <time>2022-10-29T13:27:49.000Z</time>
      </trkpt>
      <trkpt lat="47.34336" lon="3.90661">
        <ele>336.79998779297</ele>
        <time>2022-10-29T13:27:50.000Z</time>
      </trkpt>
      <trkpt lat="47.34326" lon="3.90665">
        <ele>336.20001220703</ele>
        <time>2022-10-29T13:27:51.000Z</time>
      </trkpt>
      <trkpt lat="47.34318" lon="3.90671">
        <ele>335.60000610352</ele>
        <time>2022-10-29T13:27:52.000Z</time>
      </trkpt>
      <trkpt lat="47.34304" lon="3.90689">
        <ele>334.60000610352</ele>
        <time>2022-10-29T13:27:54.000Z</time>
      </trkpt>
      <trkpt lat="47.3429" lon="3.90708">
        <ele>333.60000610352</ele>
        <time>2022-10-29T13:27:56.000Z</time>
      </trkpt>
      <trkpt lat="47.34284" lon="3.90718">
        <ele>333.20001220703</ele>
        <time>2022-10-29T13:27:57.000Z</time>
      </trkpt>
      <trkpt lat="47.34269" lon="3.90737">
        <ele>332.20001220703</ele>
        <time>2022-10-29T13:27:59.000Z</time>
      </trkpt>
      <trkpt lat="47.34248" lon="3.90767">
        <ele>331.20001220703</ele>
        <time>2022-10-29T13:28:02.000Z</time>
      </trkpt>
      <trkpt lat="47.34235" lon="3.90788">
        <ele>330.20001220703</ele>
        <time>2022-10-29T13:28:04.000Z</time>
      </trkpt>
      <trkpt lat="47.34229" lon="3.908">
        <ele>329.60000610352</ele>
        <time>2022-10-29T13:28:05.000Z</time>
      </trkpt>
      <trkpt lat="47.34226" lon="3.90813">
        <ele>329.60000610352</ele>
        <time>2022-10-29T13:28:06.000Z</time>
      </trkpt>
      <trkpt lat="47.3422" lon="3.90842">
        <ele>328.20001220703</ele>
        <time>2022-10-29T13:28:08.000Z</time>
      </trkpt>
      <trkpt lat="47.34217" lon="3.90872">
        <ele>327</ele>
        <time>2022-10-29T13:28:10.000Z</time>
      </trkpt>
      <trkpt lat="47.34215" lon="3.90901">
        <ele>325.60000610352</ele>
        <time>2022-10-29T13:28:12.000Z</time>
      </trkpt>
      <trkpt lat="47.34212" lon="3.90931">
        <ele>324.60000610352</ele>
        <time>2022-10-29T13:28:14.000Z</time>
      </trkpt>
      <trkpt lat="47.34203" lon="3.90959">
        <ele>324</ele>
        <time>2022-10-29T13:28:16.000Z</time>
      </trkpt>
      <trkpt lat="47.34197" lon="3.90971">
        <ele>323.60000610352</ele>
        <time>2022-10-29T13:28:17.000Z</time>
      </trkpt>
      <trkpt lat="47.3419" lon="3.90982">
        <ele>323</ele>
        <time>2022-10-29T13:28:18.000Z</time>
      </trkpt>
      <trkpt lat="47.34181" lon="3.90991">
        <ele>322.39999389648</ele>
        <time>2022-10-29T13:28:19.000Z</time>
      </trkpt>
      <trkpt lat="47.34172" lon="3.90996">
        <ele>322.20001220703</ele>
        <time>2022-10-29T13:28:20.000Z</time>
      </trkpt>
      <trkpt lat="47.34152" lon="3.91001">
        <ele>321</ele>
        <time>2022-10-29T13:28:22.000Z</time>
      </trkpt>
      <trkpt lat="47.34142" lon="3.91002">
        <ele>320.60000610352</ele>
        <time>2022-10-29T13:28:23.000Z</time>
      </trkpt>
      <trkpt lat="47.34132" lon="3.91003">
        <ele>320</ele>
        <time>2022-10-29T13:28:24.000Z</time>
      </trkpt>
      <trkpt lat="47.34113" lon="3.91006">
        <ele>319</ele>
        <time>2022-10-29T13:28:26.000Z</time>
      </trkpt>
      <trkpt lat="47.34095" lon="3.9101">
        <ele>317.79998779297</ele>
        <time>2022-10-29T13:28:28.000Z</time>
      </trkpt>
      <trkpt lat="47.34086" lon="3.91014">
        <ele>317.20001220703</ele>
        <time>2022-10-29T13:28:29.000Z</time>
      </trkpt>
      <trkpt lat="47.34078" lon="3.91019">
        <ele>317</ele>
        <time>2022-10-29T13:28:30.000Z</time>
      </trkpt>
      <trkpt lat="47.34071" lon="3.91026">
        <ele>316.60000610352</ele>
        <time>2022-10-29T13:28:31.000Z</time>
      </trkpt>
      <trkpt lat="47.34065" lon="3.91034">
        <ele>316.39999389648</ele>
        <time>2022-10-29T13:28:32.000Z</time>
      </trkpt>
      <trkpt lat="47.3406" lon="3.91042">
        <ele>316</ele>
        <time>2022-10-29T13:28:33.000Z</time>
      </trkpt>
      <trkpt lat="47.34053" lon="3.91062">
        <ele>315.60000610352</ele>
        <time>2022-10-29T13:28:35.000Z</time>
      </trkpt>
      <trkpt lat="47.34052" lon="3.91073">
        <ele>315.39999389648</ele>
        <time>2022-10-29T13:28:36.000Z</time>
      </trkpt>
      <trkpt lat="47.34052" lon="3.91083">
        <ele>315.39999389648</ele>
        <time>2022-10-29T13:28:37.000Z</time>
      </trkpt>
      <trkpt lat="47.34053" lon="3.91093">
        <ele>315.20001220703</ele>
        <time>2022-10-29T13:28:38.000Z</time>
      </trkpt>
      <trkpt lat="47.34054" lon="3.91103">
        <ele>315.20001220703</ele>
        <time>2022-10-29T13:28:39.000Z</time>
      </trkpt>
      <trkpt lat="47.34061" lon="3.91121">
        <ele>315.20001220703</ele>
        <time>2022-10-29T13:28:41.000Z</time>
      </trkpt>
      <trkpt lat="47.34065" lon="3.9113">
        <ele>315</ele>
        <time>2022-10-29T13:28:42.000Z</time>
      </trkpt>
      <trkpt lat="47.34069" lon="3.91137">
        <ele>315</ele>
        <time>2022-10-29T13:28:43.000Z</time>
      </trkpt>
      <trkpt lat="47.34089" lon="3.91165">
        <ele>314.60000610352</ele>
        <time>2022-10-29T13:28:47.000Z</time>
      </trkpt>
      <trkpt lat="47.34099" lon="3.91178">
        <ele>314.39999389648</ele>
        <time>2022-10-29T13:28:49.000Z</time>
      </trkpt>
      <trkpt lat="47.34111" lon="3.91202">
        <ele>314</ele>
        <time>2022-10-29T13:28:52.000Z</time>
      </trkpt>
      <trkpt lat="47.34114" lon="3.91211">
        <ele>314</ele>
        <time>2022-10-29T13:28:53.000Z</time>
      </trkpt>
      <trkpt lat="47.34115" lon="3.91221">
        <ele>313.79998779297</ele>
        <time>2022-10-29T13:28:54.000Z</time>
      </trkpt>
      <trkpt lat="47.34114" lon="3.91243">
        <ele>313.60000610352</ele>
        <time>2022-10-29T13:28:56.000Z</time>
      </trkpt>
      <trkpt lat="47.34105" lon="3.91262">
        <ele>313.60000610352</ele>
        <time>2022-10-29T13:28:59.000Z</time>
      </trkpt>
      <trkpt lat="47.34078" lon="3.91294">
        <ele>314</ele>
        <time>2022-10-29T13:29:05.000Z</time>
      </trkpt>
      <trkpt lat="47.34067" lon="3.91308">
        <ele>314.20001220703</ele>
        <time>2022-10-29T13:29:08.000Z</time>
      </trkpt>
      <trkpt lat="47.34062" lon="3.91319">
        <ele>314.39999389648</ele>
        <time>2022-10-29T13:29:10.000Z</time>
      </trkpt>
      <trkpt lat="47.34059" lon="3.91326">
        <ele>314.39999389648</ele>
        <time>2022-10-29T13:29:11.000Z</time>
      </trkpt>
      <trkpt lat="47.34059" lon="3.91339">
        <ele>314.39999389648</ele>
        <time>2022-10-29T13:29:13.000Z</time>
      </trkpt>
      <trkpt lat="47.34071" lon="3.91372">
        <ele>314.60000610352</ele>
        <time>2022-10-29T13:29:18.000Z</time>
      </trkpt>
      <trkpt lat="47.34096" lon="3.91425">
        <ele>314.79998779297</ele>
        <time>2022-10-29T13:29:26.000Z</time>
      </trkpt>
      <trkpt lat="47.34111" lon="3.91457">
        <ele>314.60000610352</ele>
        <time>2022-10-29T13:29:31.000Z</time>
      </trkpt>
      <trkpt lat="47.34111" lon="3.91462">
        <ele>314.60000610352</ele>
        <time>2022-10-29T13:29:32.000Z</time>
      </trkpt>
      <trkpt lat="47.34113" lon="3.91467">
        <ele>314.60000610352</ele>
        <time>2022-10-29T13:29:33.000Z</time>
      </trkpt>
      <trkpt lat="47.34129" lon="3.91491">
        <ele>315.20001220703</ele>
        <time>2022-10-29T13:29:37.000Z</time>
      </trkpt>
      <trkpt lat="47.34145" lon="3.91511">
        <ele>315.60000610352</ele>
        <time>2022-10-29T13:29:41.000Z</time>
      </trkpt>
      <trkpt lat="47.34155" lon="3.91519">
        <ele>315.60000610352</ele>
        <time>2022-10-29T13:29:43.000Z</time>
      </trkpt>
      <trkpt lat="47.3416" lon="3.91523">
        <ele>315.60000610352</ele>
        <time>2022-10-29T13:29:44.000Z</time>
      </trkpt>
      <trkpt lat="47.34186" lon="3.91534">
        <ele>315.79998779297</ele>
        <time>2022-10-29T13:29:49.000Z</time>
      </trkpt>
      <trkpt lat="47.34214" lon="3.91541">
        <ele>316.20001220703</ele>
        <time>2022-10-29T13:29:55.000Z</time>
      </trkpt>
      <trkpt lat="47.34219" lon="3.91541">
        <ele>316.39999389648</ele>
        <time>2022-10-29T13:29:56.000Z</time>
      </trkpt>
      <trkpt lat="47.34227" lon="3.91541">
        <ele>316.60000610352</ele>
        <time>2022-10-29T13:29:58.000Z</time>
      </trkpt>
      <trkpt lat="47.3424" lon="3.91542">
        <ele>317.79998779297</ele>
        <time>2022-10-29T13:30:01.000Z</time>
      </trkpt>
      <trkpt lat="47.34247" lon="3.91541">
        <ele>318.39999389648</ele>
        <time>2022-10-29T13:30:03.000Z</time>
      </trkpt>
      <trkpt lat="47.34251" lon="3.91541">
        <ele>318.79998779297</ele>
        <time>2022-10-29T13:30:04.000Z</time>
      </trkpt>
      <trkpt lat="47.3427" lon="3.91541">
        <ele>320</ele>
        <time>2022-10-29T13:30:09.000Z</time>
      </trkpt>
      <trkpt lat="47.34274" lon="3.91541">
        <ele>320</ele>
        <time>2022-10-29T13:30:10.000Z</time>
      </trkpt>
      <trkpt lat="47.34287" lon="3.91543">
        <ele>321.20001220703</ele>
        <time>2022-10-29T13:30:14.000Z</time>
      </trkpt>
      <trkpt lat="47.34294" lon="3.91542">
        <ele>321.60000610352</ele>
        <time>2022-10-29T13:30:16.000Z</time>
      </trkpt>
      <trkpt lat="47.34304" lon="3.91541">
        <ele>322.20001220703</ele>
        <time>2022-10-29T13:30:19.000Z</time>
      </trkpt>
      <trkpt lat="47.34312" lon="3.9154">
        <ele>322.79998779297</ele>
        <time>2022-10-29T13:30:21.000Z</time>
      </trkpt>
      <trkpt lat="47.34319" lon="3.91538">
        <ele>323.20001220703</ele>
        <time>2022-10-29T13:30:24.000Z</time>
      </trkpt>
      <trkpt lat="47.34322" lon="3.91538">
        <ele>323.39999389648</ele>
        <time>2022-10-29T13:30:25.000Z</time>
      </trkpt>
      <trkpt lat="47.34338" lon="3.9154">
        <ele>324.20001220703</ele>
        <time>2022-10-29T13:30:29.000Z</time>
      </trkpt>
      <trkpt lat="47.34342" lon="3.91541">
        <ele>324.60000610352</ele>
        <time>2022-10-29T13:30:30.000Z</time>
      </trkpt>
      <trkpt lat="47.34359" lon="3.91541">
        <ele>325.60000610352</ele>
        <time>2022-10-29T13:30:35.000Z</time>
      </trkpt>
      <trkpt lat="47.34367" lon="3.91541">
        <ele>325.79998779297</ele>
        <time>2022-10-29T13:30:37.000Z</time>
      </trkpt>
      <trkpt lat="47.34381" lon="3.91541">
        <ele>326.60000610352</ele>
        <time>2022-10-29T13:30:41.000Z</time>
      </trkpt>
      <trkpt lat="47.34385" lon="3.9154">
        <ele>326.79998779297</ele>
        <time>2022-10-29T13:30:42.000Z</time>
      </trkpt>
      <trkpt lat="47.34401" lon="3.91535">
        <ele>327.60000610352</ele>
        <time>2022-10-29T13:30:47.000Z</time>
      </trkpt>
      <trkpt lat="47.34408" lon="3.91532">
        <ele>328</ele>
        <time>2022-10-29T13:30:49.000Z</time>
      </trkpt>
      <trkpt lat="47.34421" lon="3.91532">
        <ele>328.60000610352</ele>
        <time>2022-10-29T13:30:52.000Z</time>
      </trkpt>
      <trkpt lat="47.34432" lon="3.91527">
        <ele>329.60000610352</ele>
        <time>2022-10-29T13:30:56.000Z</time>
      </trkpt>
      <trkpt lat="47.34435" lon="3.91525">
        <ele>329.79998779297</ele>
        <time>2022-10-29T13:30:57.000Z</time>
      </trkpt>
      <trkpt lat="47.34455" lon="3.9151">
        <ele>330.79998779297</ele>
        <time>2022-10-29T13:31:03.000Z</time>
      </trkpt>
      <trkpt lat="47.34468" lon="3.91501">
        <ele>331.79998779297</ele>
        <time>2022-10-29T13:31:07.000Z</time>
      </trkpt>
      <trkpt lat="47.34481" lon="3.91494">
        <ele>332.79998779297</ele>
        <time>2022-10-29T13:31:11.000Z</time>
      </trkpt>
      <trkpt lat="47.34485" lon="3.91493">
        <ele>333.39999389648</ele>
        <time>2022-10-29T13:31:12.000Z</time>
      </trkpt>
      <trkpt lat="47.34508" lon="3.91484">
        <ele>334.39999389648</ele>
        <time>2022-10-29T13:31:17.000Z</time>
      </trkpt>
      <trkpt lat="47.34538" lon="3.91479">
        <ele>335.39999389648</ele>
        <time>2022-10-29T13:31:24.000Z</time>
      </trkpt>
      <trkpt lat="47.34554" lon="3.91483">
        <ele>336.79998779297</ele>
        <time>2022-10-29T13:31:28.000Z</time>
      </trkpt>
      <trkpt lat="47.34568" lon="3.91484">
        <ele>337.79998779297</ele>
        <time>2022-10-29T13:31:32.000Z</time>
      </trkpt>
      <trkpt lat="47.34578" lon="3.91486">
        <ele>338.79998779297</ele>
        <time>2022-10-29T13:31:35.000Z</time>
      </trkpt>
      <trkpt lat="47.34592" lon="3.91489">
        <ele>339.60000610352</ele>
        <time>2022-10-29T13:31:39.000Z</time>
      </trkpt>
      <trkpt lat="47.346" lon="3.91491">
        <ele>340</ele>
        <time>2022-10-29T13:31:41.000Z</time>
      </trkpt>
      <trkpt lat="47.34613" lon="3.91499">
        <ele>341</ele>
        <time>2022-10-29T13:31:45.000Z</time>
      </trkpt>
      <trkpt lat="47.34632" lon="3.91504">
        <ele>342.20001220703</ele>
        <time>2022-10-29T13:31:50.000Z</time>
      </trkpt>
      <trkpt lat="47.3464" lon="3.91506">
        <ele>342.39999389648</ele>
        <time>2022-10-29T13:31:52.000Z</time>
      </trkpt>
      <trkpt lat="47.34651" lon="3.91508">
        <ele>343.20001220703</ele>
        <time>2022-10-29T13:31:55.000Z</time>
      </trkpt>
      <trkpt lat="47.34665" lon="3.91511">
        <ele>344.20001220703</ele>
        <time>2022-10-29T13:31:59.000Z</time>
      </trkpt>
      <trkpt lat="47.34674" lon="3.91514">
        <ele>344.79998779297</ele>
        <time>2022-10-29T13:32:02.000Z</time>
      </trkpt>
      <trkpt lat="47.34681" lon="3.91515">
        <ele>345.20001220703</ele>
        <time>2022-10-29T13:32:04.000Z</time>
      </trkpt>
      <trkpt lat="47.34693" lon="3.91518">
        <ele>345.60000610352</ele>
        <time>2022-10-29T13:32:07.000Z</time>
      </trkpt>
      <trkpt lat="47.34708" lon="3.91526">
        <ele>346.20001220703</ele>
        <time>2022-10-29T13:32:10.000Z</time>
      </trkpt>
      <trkpt lat="47.34719" lon="3.91529">
        <ele>346.60000610352</ele>
        <time>2022-10-29T13:32:12.000Z</time>
      </trkpt>
      <trkpt lat="47.34731" lon="3.91535">
        <ele>347.60000610352</ele>
        <time>2022-10-29T13:32:15.000Z</time>
      </trkpt>
      <trkpt lat="47.34751" lon="3.91542">
        <ele>348.60000610352</ele>
        <time>2022-10-29T13:32:20.000Z</time>
      </trkpt>
      <trkpt lat="47.34776" lon="3.91553">
        <ele>349.79998779297</ele>
        <time>2022-10-29T13:32:27.000Z</time>
      </trkpt>
      <trkpt lat="47.34784" lon="3.91556">
        <ele>350.20001220703</ele>
        <time>2022-10-29T13:32:29.000Z</time>
      </trkpt>
      <trkpt lat="47.34791" lon="3.91559">
        <ele>350.39999389648</ele>
        <time>2022-10-29T13:32:31.000Z</time>
      </trkpt>
      <trkpt lat="47.34802" lon="3.91564">
        <ele>350.79998779297</ele>
        <time>2022-10-29T13:32:34.000Z</time>
      </trkpt>
      <trkpt lat="47.34831" lon="3.91578">
        <ele>351.79998779297</ele>
        <time>2022-10-29T13:32:42.000Z</time>
      </trkpt>
      <trkpt lat="47.34835" lon="3.91579">
        <ele>352</ele>
        <time>2022-10-29T13:32:43.000Z</time>
      </trkpt>
      <trkpt lat="47.34867" lon="3.91593">
        <ele>353.39999389648</ele>
        <time>2022-10-29T13:32:52.000Z</time>
      </trkpt>
      <trkpt lat="47.34882" lon="3.91598">
        <ele>354.39999389648</ele>
        <time>2022-10-29T13:32:56.000Z</time>
      </trkpt>
      <trkpt lat="47.34899" lon="3.91604">
        <ele>355.20001220703</ele>
        <time>2022-10-29T13:33:01.000Z</time>
      </trkpt>
      <trkpt lat="47.34902" lon="3.91605">
        <ele>355.39999389648</ele>
        <time>2022-10-29T13:33:02.000Z</time>
      </trkpt>
      <trkpt lat="47.34924" lon="3.91616">
        <ele>356.39999389648</ele>
        <time>2022-10-29T13:33:08.000Z</time>
      </trkpt>
      <trkpt lat="47.34927" lon="3.91618">
        <ele>356.79998779297</ele>
        <time>2022-10-29T13:33:09.000Z</time>
      </trkpt>
      <trkpt lat="47.34942" lon="3.91635">
        <ele>358</ele>
        <time>2022-10-29T13:33:14.000Z</time>
      </trkpt>
      <trkpt lat="47.34947" lon="3.91644">
        <ele>358.39999389648</ele>
        <time>2022-10-29T13:33:16.000Z</time>
      </trkpt>
      <trkpt lat="47.34955" lon="3.91666">
        <ele>359.20001220703</ele>
        <time>2022-10-29T13:33:20.000Z</time>
      </trkpt>
      <trkpt lat="47.34959" lon="3.91679">
        <ele>359.60000610352</ele>
        <time>2022-10-29T13:33:22.000Z</time>
      </trkpt>
      <trkpt lat="47.34961" lon="3.91684">
        <ele>359.79998779297</ele>
        <time>2022-10-29T13:33:23.000Z</time>
      </trkpt>
      <trkpt lat="47.34964" lon="3.91697">
        <ele>360</ele>
        <time>2022-10-29T13:33:25.000Z</time>
      </trkpt>
      <trkpt lat="47.34965" lon="3.91704">
        <ele>360.20001220703</ele>
        <time>2022-10-29T13:33:26.000Z</time>
      </trkpt>
      <trkpt lat="47.34967" lon="3.91711">
        <ele>360.20001220703</ele>
        <time>2022-10-29T13:33:27.000Z</time>
      </trkpt>
      <trkpt lat="47.34972" lon="3.91745">
        <ele>361</ele>
        <time>2022-10-29T13:33:32.000Z</time>
      </trkpt>
      <trkpt lat="47.34975" lon="3.91767">
        <ele>361.39999389648</ele>
        <time>2022-10-29T13:33:35.000Z</time>
      </trkpt>
      <trkpt lat="47.34983" lon="3.91822">
        <ele>362</ele>
        <time>2022-10-29T13:33:43.000Z</time>
      </trkpt>
      <trkpt lat="47.34985" lon="3.91835">
        <ele>362.20001220703</ele>
        <time>2022-10-29T13:33:45.000Z</time>
      </trkpt>
      <trkpt lat="47.34987" lon="3.91862">
        <ele>362.39999389648</ele>
        <time>2022-10-29T13:33:49.000Z</time>
      </trkpt>
      <trkpt lat="47.34991" lon="3.91923">
        <ele>363.39999389648</ele>
        <time>2022-10-29T13:33:58.000Z</time>
      </trkpt>
      <trkpt lat="47.34991" lon="3.91929">
        <ele>363.60000610352</ele>
        <time>2022-10-29T13:33:59.000Z</time>
      </trkpt>
      <trkpt lat="47.34991" lon="3.91953">
        <ele>364.39999389648</ele>
        <time>2022-10-29T13:34:03.000Z</time>
      </trkpt>
      <trkpt lat="47.34992" lon="3.91966">
        <ele>364.60000610352</ele>
        <time>2022-10-29T13:34:05.000Z</time>
      </trkpt>
      <trkpt lat="47.34992" lon="3.91972">
        <ele>364.60000610352</ele>
        <time>2022-10-29T13:34:06.000Z</time>
      </trkpt>
      <trkpt lat="47.3499" lon="3.9203">
        <ele>365.60000610352</ele>
        <time>2022-10-29T13:34:14.000Z</time>
      </trkpt>
      <trkpt lat="47.34991" lon="3.92042">
        <ele>365.60000610352</ele>
        <time>2022-10-29T13:34:16.000Z</time>
      </trkpt>
      <trkpt lat="47.34988" lon="3.92085">
        <ele>366.20001220703</ele>
        <time>2022-10-29T13:34:22.000Z</time>
      </trkpt>
      <trkpt lat="47.34983" lon="3.92112">
        <ele>367.20001220703</ele>
        <time>2022-10-29T13:34:26.000Z</time>
      </trkpt>
      <trkpt lat="47.34979" lon="3.92123">
        <ele>367.39999389648</ele>
        <time>2022-10-29T13:34:28.000Z</time>
      </trkpt>
      <trkpt lat="47.34976" lon="3.9213">
        <ele>367.39999389648</ele>
        <time>2022-10-29T13:34:29.000Z</time>
      </trkpt>
      <trkpt lat="47.34965" lon="3.92148">
        <ele>368.39999389648</ele>
        <time>2022-10-29T13:34:33.000Z</time>
      </trkpt>
      <trkpt lat="47.34961" lon="3.92158">
        <ele>368.79998779297</ele>
        <time>2022-10-29T13:34:35.000Z</time>
      </trkpt>
      <trkpt lat="47.34958" lon="3.92162">
        <ele>369</ele>
        <time>2022-10-29T13:34:36.000Z</time>
      </trkpt>
      <trkpt lat="47.3495" lon="3.92178">
        <ele>369.60000610352</ele>
        <time>2022-10-29T13:34:39.000Z</time>
      </trkpt>
      <trkpt lat="47.34947" lon="3.92183">
        <ele>369.60000610352</ele>
        <time>2022-10-29T13:34:40.000Z</time>
      </trkpt>
      <trkpt lat="47.34942" lon="3.92195">
        <ele>370</ele>
        <time>2022-10-29T13:34:42.000Z</time>
      </trkpt>
      <trkpt lat="47.34939" lon="3.92205">
        <ele>370.60000610352</ele>
        <time>2022-10-29T13:34:44.000Z</time>
      </trkpt>
      <trkpt lat="47.34933" lon="3.92222">
        <ele>371.20001220703</ele>
        <time>2022-10-29T13:34:47.000Z</time>
      </trkpt>
      <trkpt lat="47.34928" lon="3.92238">
        <ele>371.60000610352</ele>
        <time>2022-10-29T13:34:50.000Z</time>
      </trkpt>
      <trkpt lat="47.34921" lon="3.92257">
        <ele>372.39999389648</ele>
        <time>2022-10-29T13:34:53.000Z</time>
      </trkpt>
      <trkpt lat="47.34917" lon="3.92269">
        <ele>372.60000610352</ele>
        <time>2022-10-29T13:34:55.000Z</time>
      </trkpt>
      <trkpt lat="47.34907" lon="3.92294">
        <ele>373.79998779297</ele>
        <time>2022-10-29T13:34:59.000Z</time>
      </trkpt>
      <trkpt lat="47.34901" lon="3.92317">
        <ele>374.79998779297</ele>
        <time>2022-10-29T13:35:03.000Z</time>
      </trkpt>
      <trkpt lat="47.349" lon="3.92322">
        <ele>374.79998779297</ele>
        <time>2022-10-29T13:35:04.000Z</time>
      </trkpt>
      <trkpt lat="47.34889" lon="3.92352">
        <ele>376</ele>
        <time>2022-10-29T13:35:09.000Z</time>
      </trkpt>
      <trkpt lat="47.34881" lon="3.92388">
        <ele>377.20001220703</ele>
        <time>2022-10-29T13:35:15.000Z</time>
      </trkpt>
      <trkpt lat="47.34867" lon="3.92412">
        <ele>378</ele>
        <time>2022-10-29T13:35:20.000Z</time>
      </trkpt>
      <trkpt lat="47.34864" lon="3.92417">
        <ele>378.20001220703</ele>
        <time>2022-10-29T13:35:21.000Z</time>
      </trkpt>
      <trkpt lat="47.34849" lon="3.92438">
        <ele>379.39999389648</ele>
        <time>2022-10-29T13:35:26.000Z</time>
      </trkpt>
      <trkpt lat="47.34832" lon="3.9246">
        <ele>380.60000610352</ele>
        <time>2022-10-29T13:35:31.000Z</time>
      </trkpt>
      <trkpt lat="47.34828" lon="3.92471">
        <ele>381</ele>
        <time>2022-10-29T13:35:33.000Z</time>
      </trkpt>
      <trkpt lat="47.34824" lon="3.9249">
        <ele>382</ele>
        <time>2022-10-29T13:35:36.000Z</time>
      </trkpt>
      <trkpt lat="47.34824" lon="3.92496">
        <ele>382.20001220703</ele>
        <time>2022-10-29T13:35:37.000Z</time>
      </trkpt>
      <trkpt lat="47.34828" lon="3.92509">
        <ele>382.79998779297</ele>
        <time>2022-10-29T13:35:39.000Z</time>
      </trkpt>
      <trkpt lat="47.34833" lon="3.92517">
        <ele>383</ele>
        <time>2022-10-29T13:35:41.000Z</time>
      </trkpt>
      <trkpt lat="47.34843" lon="3.92525">
        <ele>383.79998779297</ele>
        <time>2022-10-29T13:35:45.000Z</time>
      </trkpt>
      <trkpt lat="47.34849" lon="3.92525">
        <ele>384.20001220703</ele>
        <time>2022-10-29T13:35:47.000Z</time>
      </trkpt>
      <trkpt lat="47.34864" lon="3.92524">
        <ele>385</ele>
        <time>2022-10-29T13:35:51.000Z</time>
      </trkpt>
      <trkpt lat="47.34872" lon="3.92524">
        <ele>385.20001220703</ele>
        <time>2022-10-29T13:35:53.000Z</time>
      </trkpt>
      <trkpt lat="47.34897" lon="3.92524">
        <ele>386.39999389648</ele>
        <time>2022-10-29T13:35:59.000Z</time>
      </trkpt>
      <trkpt lat="47.34901" lon="3.92524">
        <ele>386.39999389648</ele>
        <time>2022-10-29T13:36:00.000Z</time>
      </trkpt>
      <trkpt lat="47.34924" lon="3.92538">
        <ele>387.39999389648</ele>
        <time>2022-10-29T13:36:06.000Z</time>
      </trkpt>
      <trkpt lat="47.34928" lon="3.92541">
        <ele>387.60000610352</ele>
        <time>2022-10-29T13:36:07.000Z</time>
      </trkpt>
      <trkpt lat="47.34945" lon="3.92557">
        <ele>388.60000610352</ele>
        <time>2022-10-29T13:36:12.000Z</time>
      </trkpt>
      <trkpt lat="47.34948" lon="3.92561">
        <ele>389</ele>
        <time>2022-10-29T13:36:13.000Z</time>
      </trkpt>
      <trkpt lat="47.34955" lon="3.92567">
        <ele>389.60000610352</ele>
        <time>2022-10-29T13:36:15.000Z</time>
      </trkpt>
      <trkpt lat="47.34963" lon="3.92577">
        <ele>390.20001220703</ele>
        <time>2022-10-29T13:36:18.000Z</time>
      </trkpt>
      <trkpt lat="47.34975" lon="3.92594">
        <ele>390.60000610352</ele>
        <time>2022-10-29T13:36:22.000Z</time>
      </trkpt>
      <trkpt lat="47.34985" lon="3.92609">
        <ele>391.39999389648</ele>
        <time>2022-10-29T13:36:25.000Z</time>
      </trkpt>
      <trkpt lat="47.3499" lon="3.92618">
        <ele>391.79998779297</ele>
        <time>2022-10-29T13:36:27.000Z</time>
      </trkpt>
      <trkpt lat="47.35" lon="3.92636">
        <ele>392.79998779297</ele>
        <time>2022-10-29T13:36:31.000Z</time>
      </trkpt>
      <trkpt lat="47.35002" lon="3.92641">
        <ele>393</ele>
        <time>2022-10-29T13:36:32.000Z</time>
      </trkpt>
      <trkpt lat="47.3501" lon="3.92666">
        <ele>393.79998779297</ele>
        <time>2022-10-29T13:36:37.000Z</time>
      </trkpt>
      <trkpt lat="47.35012" lon="3.92672">
        <ele>394</ele>
        <time>2022-10-29T13:36:38.000Z</time>
      </trkpt>
      <trkpt lat="47.35014" lon="3.92699">
        <ele>395</ele>
        <time>2022-10-29T13:36:43.000Z</time>
      </trkpt>
      <trkpt lat="47.35014" lon="3.92704">
        <ele>395.39999389648</ele>
        <time>2022-10-29T13:36:44.000Z</time>
      </trkpt>
      <trkpt lat="47.35015" lon="3.92722">
        <ele>396</ele>
        <time>2022-10-29T13:36:47.000Z</time>
      </trkpt>
      <trkpt lat="47.35016" lon="3.92756">
        <ele>397.20001220703</ele>
        <time>2022-10-29T13:36:53.000Z</time>
      </trkpt>
      <trkpt lat="47.35016" lon="3.92784">
        <ele>398.20001220703</ele>
        <time>2022-10-29T13:36:58.000Z</time>
      </trkpt>
      <trkpt lat="47.35016" lon="3.92802">
        <ele>399</ele>
        <time>2022-10-29T13:37:01.000Z</time>
      </trkpt>
      <trkpt lat="47.35014" lon="3.92814">
        <ele>399.39999389648</ele>
        <time>2022-10-29T13:37:03.000Z</time>
      </trkpt>
      <trkpt lat="47.35008" lon="3.92834">
        <ele>400</ele>
        <time>2022-10-29T13:37:07.000Z</time>
      </trkpt>
      <trkpt lat="47.35003" lon="3.92843">
        <ele>400.60000610352</ele>
        <time>2022-10-29T13:37:09.000Z</time>
      </trkpt>
      <trkpt lat="47.34991" lon="3.92855">
        <ele>401.39999389648</ele>
        <time>2022-10-29T13:37:13.000Z</time>
      </trkpt>
      <trkpt lat="47.34987" lon="3.92858">
        <ele>401.79998779297</ele>
        <time>2022-10-29T13:37:14.000Z</time>
      </trkpt>
      <trkpt lat="47.34972" lon="3.92868">
        <ele>402.79998779297</ele>
        <time>2022-10-29T13:37:19.000Z</time>
      </trkpt>
      <trkpt lat="47.34969" lon="3.92871">
        <ele>403</ele>
        <time>2022-10-29T13:37:20.000Z</time>
      </trkpt>
      <trkpt lat="47.3495" lon="3.92885">
        <ele>403.60000610352</ele>
        <time>2022-10-29T13:37:26.000Z</time>
      </trkpt>
      <trkpt lat="47.34946" lon="3.92892">
        <ele>404</ele>
        <time>2022-10-29T13:37:28.000Z</time>
      </trkpt>
      <trkpt lat="47.34934" lon="3.9291">
        <ele>404.79998779297</ele>
        <time>2022-10-29T13:37:32.000Z</time>
      </trkpt>
      <trkpt lat="47.34926" lon="3.92929">
        <ele>405.60000610352</ele>
        <time>2022-10-29T13:37:36.000Z</time>
      </trkpt>
      <trkpt lat="47.34922" lon="3.9294">
        <ele>405.79998779297</ele>
        <time>2022-10-29T13:37:38.000Z</time>
      </trkpt>
      <trkpt lat="47.34915" lon="3.92968">
        <ele>406.79998779297</ele>
        <time>2022-10-29T13:37:43.000Z</time>
      </trkpt>
      <trkpt lat="47.34913" lon="3.92973">
        <ele>407</ele>
        <time>2022-10-29T13:37:44.000Z</time>
      </trkpt>
      <trkpt lat="47.349" lon="3.93004">
        <ele>408</ele>
        <time>2022-10-29T13:37:50.000Z</time>
      </trkpt>
      <trkpt lat="47.34898" lon="3.93008">
        <ele>408.39999389648</ele>
        <time>2022-10-29T13:37:51.000Z</time>
      </trkpt>
      <trkpt lat="47.3489" lon="3.93019">
        <ele>409.20001220703</ele>
        <time>2022-10-29T13:37:54.000Z</time>
      </trkpt>
      <trkpt lat="47.34878" lon="3.93031">
        <ele>409.79998779297</ele>
        <time>2022-10-29T13:37:58.000Z</time>
      </trkpt>
      <trkpt lat="47.34871" lon="3.93036">
        <ele>410.20001220703</ele>
        <time>2022-10-29T13:38:00.000Z</time>
      </trkpt>
      <trkpt lat="47.34854" lon="3.93049">
        <ele>411.39999389648</ele>
        <time>2022-10-29T13:38:05.000Z</time>
      </trkpt>
      <trkpt lat="47.34844" lon="3.93054">
        <ele>412.39999389648</ele>
        <time>2022-10-29T13:38:08.000Z</time>
      </trkpt>
      <trkpt lat="47.3484" lon="3.93056">
        <ele>412.20001220703</ele>
        <time>2022-10-29T13:38:09.000Z</time>
      </trkpt>
      <trkpt lat="47.34826" lon="3.93062">
        <ele>413.39999389648</ele>
        <time>2022-10-29T13:38:13.000Z</time>
      </trkpt>
      <trkpt lat="47.34815" lon="3.93068">
        <ele>413.79998779297</ele>
        <time>2022-10-29T13:38:16.000Z</time>
      </trkpt>
      <trkpt lat="47.34805" lon="3.93079">
        <ele>414.39999389648</ele>
        <time>2022-10-29T13:38:19.000Z</time>
      </trkpt>
      <trkpt lat="47.34794" lon="3.93095">
        <ele>415</ele>
        <time>2022-10-29T13:38:23.000Z</time>
      </trkpt>
      <trkpt lat="47.34788" lon="3.93107">
        <ele>415.60000610352</ele>
        <time>2022-10-29T13:38:26.000Z</time>
      </trkpt>
      <trkpt lat="47.34776" lon="3.93128">
        <ele>416.79998779297</ele>
        <time>2022-10-29T13:38:31.000Z</time>
      </trkpt>
      <trkpt lat="47.34773" lon="3.93133">
        <ele>417.20001220703</ele>
        <time>2022-10-29T13:38:32.000Z</time>
      </trkpt>
      <trkpt lat="47.34764" lon="3.93151">
        <ele>417.60000610352</ele>
        <time>2022-10-29T13:38:36.000Z</time>
      </trkpt>
      <trkpt lat="47.34761" lon="3.93169">
        <ele>418</ele>
        <time>2022-10-29T13:38:39.000Z</time>
      </trkpt>
      <trkpt lat="47.34766" lon="3.93191">
        <ele>418.60000610352</ele>
        <time>2022-10-29T13:38:43.000Z</time>
      </trkpt>
      <trkpt lat="47.34769" lon="3.93195">
        <ele>418.79998779297</ele>
        <time>2022-10-29T13:38:44.000Z</time>
      </trkpt>
      <trkpt lat="47.34778" lon="3.93201">
        <ele>419.39999389648</ele>
        <time>2022-10-29T13:38:47.000Z</time>
      </trkpt>
      <trkpt lat="47.34783" lon="3.93203">
        <ele>419.79998779297</ele>
        <time>2022-10-29T13:38:48.000Z</time>
      </trkpt>
      <trkpt lat="47.34799" lon="3.93208">
        <ele>421</ele>
        <time>2022-10-29T13:38:53.000Z</time>
      </trkpt>
      <trkpt lat="47.34804" lon="3.93209">
        <ele>421.39999389648</ele>
        <time>2022-10-29T13:38:55.000Z</time>
      </trkpt>
      <trkpt lat="47.3482" lon="3.93211">
        <ele>422</ele>
        <time>2022-10-29T13:39:00.000Z</time>
      </trkpt>
      <trkpt lat="47.34832" lon="3.93212">
        <ele>422.20001220703</ele>
        <time>2022-10-29T13:39:03.000Z</time>
      </trkpt>
      <trkpt lat="47.34845" lon="3.93213">
        <ele>423</ele>
        <time>2022-10-29T13:39:07.000Z</time>
      </trkpt>
      <trkpt lat="47.34874" lon="3.93219">
        <ele>424</ele>
        <time>2022-10-29T13:39:14.000Z</time>
      </trkpt>
      <trkpt lat="47.34899" lon="3.9322">
        <ele>425.20001220703</ele>
        <time>2022-10-29T13:39:20.000Z</time>
      </trkpt>
      <trkpt lat="47.34903" lon="3.9322">
        <ele>425.60000610352</ele>
        <time>2022-10-29T13:39:21.000Z</time>
      </trkpt>
      <trkpt lat="47.34918" lon="3.93223">
        <ele>426.39999389648</ele>
        <time>2022-10-29T13:39:25.000Z</time>
      </trkpt>
      <trkpt lat="47.34921" lon="3.93224">
        <ele>426.60000610352</ele>
        <time>2022-10-29T13:39:26.000Z</time>
      </trkpt>
      <trkpt lat="47.34938" lon="3.93226">
        <ele>427.39999389648</ele>
        <time>2022-10-29T13:39:31.000Z</time>
      </trkpt>
      <trkpt lat="47.34961" lon="3.93229">
        <ele>428.39999389648</ele>
        <time>2022-10-29T13:39:36.000Z</time>
      </trkpt>
      <trkpt lat="47.34965" lon="3.9323">
        <ele>428.79998779297</ele>
        <time>2022-10-29T13:39:37.000Z</time>
      </trkpt>
      <trkpt lat="47.34981" lon="3.93242">
        <ele>429.79998779297</ele>
        <time>2022-10-29T13:39:42.000Z</time>
      </trkpt>
      <trkpt lat="47.35001" lon="3.93251">
        <ele>430.79998779297</ele>
        <time>2022-10-29T13:39:47.000Z</time>
      </trkpt>
      <trkpt lat="47.35007" lon="3.93255">
        <ele>431.39999389648</ele>
        <time>2022-10-29T13:39:49.000Z</time>
      </trkpt>
      <trkpt lat="47.35018" lon="3.9326">
        <ele>432</ele>
        <time>2022-10-29T13:39:51.000Z</time>
      </trkpt>
      <trkpt lat="47.35035" lon="3.93273">
        <ele>433</ele>
        <time>2022-10-29T13:39:56.000Z</time>
      </trkpt>
      <trkpt lat="47.35039" lon="3.93276">
        <ele>433.20001220703</ele>
        <time>2022-10-29T13:39:57.000Z</time>
      </trkpt>
      <trkpt lat="47.35051" lon="3.93289">
        <ele>434.20001220703</ele>
        <time>2022-10-29T13:40:01.000Z</time>
      </trkpt>
      <trkpt lat="47.35055" lon="3.93293">
        <ele>434.39999389648</ele>
        <time>2022-10-29T13:40:02.000Z</time>
      </trkpt>
      <trkpt lat="47.35073" lon="3.93314">
        <ele>435.20001220703</ele>
        <time>2022-10-29T13:40:08.000Z</time>
      </trkpt>
      <trkpt lat="47.35087" lon="3.93333">
        <ele>436.39999389648</ele>
        <time>2022-10-29T13:40:14.000Z</time>
      </trkpt>
      <trkpt lat="47.35098" lon="3.93344">
        <ele>437.20001220703</ele>
        <time>2022-10-29T13:40:19.000Z</time>
      </trkpt>
      <trkpt lat="47.35102" lon="3.93347">
        <ele>437.60000610352</ele>
        <time>2022-10-29T13:40:20.000Z</time>
      </trkpt>
      <trkpt lat="47.35112" lon="3.93354">
        <ele>438.20001220703</ele>
        <time>2022-10-29T13:40:23.000Z</time>
      </trkpt>
      <trkpt lat="47.35117" lon="3.93359">
        <ele>438.60000610352</ele>
        <time>2022-10-29T13:40:25.000Z</time>
      </trkpt>
      <trkpt lat="47.35131" lon="3.93367">
        <ele>439.79998779297</ele>
        <time>2022-10-29T13:40:29.000Z</time>
      </trkpt>
      <trkpt lat="47.35156" lon="3.93384">
        <ele>440.79998779297</ele>
        <time>2022-10-29T13:40:35.000Z</time>
      </trkpt>
      <trkpt lat="47.35161" lon="3.93387">
        <ele>441.20001220703</ele>
        <time>2022-10-29T13:40:37.000Z</time>
      </trkpt>
      <trkpt lat="47.35175" lon="3.93394">
        <ele>442</ele>
        <time>2022-10-29T13:40:41.000Z</time>
      </trkpt>
      <trkpt lat="47.35184" lon="3.93397">
        <ele>442.20001220703</ele>
        <time>2022-10-29T13:40:43.000Z</time>
      </trkpt>
      <trkpt lat="47.352" lon="3.93407">
        <ele>443</ele>
        <time>2022-10-29T13:40:47.000Z</time>
      </trkpt>
      <trkpt lat="47.35208" lon="3.93412">
        <ele>443.39999389648</ele>
        <time>2022-10-29T13:40:50.000Z</time>
      </trkpt>
      <trkpt lat="47.35221" lon="3.93421">
        <ele>444</ele>
        <time>2022-10-29T13:40:53.000Z</time>
      </trkpt>
      <trkpt lat="47.35232" lon="3.93426">
        <ele>444.79998779297</ele>
        <time>2022-10-29T13:40:56.000Z</time>
      </trkpt>
      <trkpt lat="47.35235" lon="3.93425">
        <ele>445</ele>
        <time>2022-10-29T13:40:57.000Z</time>
      </trkpt>
      <trkpt lat="47.3526" lon="3.93434">
        <ele>445.79998779297</ele>
        <time>2022-10-29T13:41:03.000Z</time>
      </trkpt>
      <trkpt lat="47.35266" lon="3.93435">
        <ele>446.20001220703</ele>
        <time>2022-10-29T13:41:05.000Z</time>
      </trkpt>
      <trkpt lat="47.35279" lon="3.93441">
        <ele>447.20001220703</ele>
        <time>2022-10-29T13:41:09.000Z</time>
      </trkpt>
      <trkpt lat="47.35291" lon="3.93447">
        <ele>447.60000610352</ele>
        <time>2022-10-29T13:41:12.000Z</time>
      </trkpt>
      <trkpt lat="47.35301" lon="3.93452">
        <ele>448.20001220703</ele>
        <time>2022-10-29T13:41:15.000Z</time>
      </trkpt>
      <trkpt lat="47.35321" lon="3.93464">
        <ele>449.39999389648</ele>
        <time>2022-10-29T13:41:21.000Z</time>
      </trkpt>
      <trkpt lat="47.35328" lon="3.93468">
        <ele>449.60000610352</ele>
        <time>2022-10-29T13:41:23.000Z</time>
      </trkpt>
      <trkpt lat="47.35342" lon="3.93477">
        <ele>450.39999389648</ele>
        <time>2022-10-29T13:41:27.000Z</time>
      </trkpt>
      <trkpt lat="47.3536" lon="3.93488">
        <ele>451.20001220703</ele>
        <time>2022-10-29T13:41:31.000Z</time>
      </trkpt>
      <trkpt lat="47.35364" lon="3.93491">
        <ele>451.60000610352</ele>
        <time>2022-10-29T13:41:32.000Z</time>
      </trkpt>
      <trkpt lat="47.35393" lon="3.93504">
        <ele>452.60000610352</ele>
        <time>2022-10-29T13:41:39.000Z</time>
      </trkpt>
      <trkpt lat="47.35396" lon="3.93506">
        <ele>452.79998779297</ele>
        <time>2022-10-29T13:41:40.000Z</time>
      </trkpt>
      <trkpt lat="47.35415" lon="3.93516">
        <ele>453.60000610352</ele>
        <time>2022-10-29T13:41:46.000Z</time>
      </trkpt>
      <trkpt lat="47.35419" lon="3.93518">
        <ele>454</ele>
        <time>2022-10-29T13:41:47.000Z</time>
      </trkpt>
      <trkpt lat="47.35434" lon="3.93528">
        <ele>454.60000610352</ele>
        <time>2022-10-29T13:41:53.000Z</time>
      </trkpt>
      <trkpt lat="47.35437" lon="3.9353">
        <ele>454.79998779297</ele>
        <time>2022-10-29T13:41:54.000Z</time>
      </trkpt>
      <trkpt lat="47.35453" lon="3.9354">
        <ele>455.60000610352</ele>
        <time>2022-10-29T13:41:59.000Z</time>
      </trkpt>
      <trkpt lat="47.35457" lon="3.93543">
        <ele>455.79998779297</ele>
        <time>2022-10-29T13:42:00.000Z</time>
      </trkpt>
      <trkpt lat="47.3548" lon="3.93557">
        <ele>457</ele>
        <time>2022-10-29T13:42:07.000Z</time>
      </trkpt>
      <trkpt lat="47.35504" lon="3.93572">
        <ele>458</ele>
        <time>2022-10-29T13:42:14.000Z</time>
      </trkpt>
      <trkpt lat="47.3551" lon="3.93576">
        <ele>458.39999389648</ele>
        <time>2022-10-29T13:42:16.000Z</time>
      </trkpt>
      <trkpt lat="47.35528" lon="3.9359">
        <ele>459.20001220703</ele>
        <time>2022-10-29T13:42:22.000Z</time>
      </trkpt>
      <trkpt lat="47.3554" lon="3.93606">
        <ele>460.39999389648</ele>
        <time>2022-10-29T13:42:28.000Z</time>
      </trkpt>
      <trkpt lat="47.35541" lon="3.93608">
        <ele>460.79998779297</ele>
        <time>2022-10-29T13:42:29.000Z</time>
      </trkpt>
      <trkpt lat="47.35548" lon="3.93618">
        <ele>461.60000610352</ele>
        <time>2022-10-29T13:42:33.000Z</time>
      </trkpt>
      <trkpt lat="47.35551" lon="3.93627">
        <ele>462</ele>
        <time>2022-10-29T13:42:36.000Z</time>
      </trkpt>
      <trkpt lat="47.35557" lon="3.93644">
        <ele>462.39999389648</ele>
        <time>2022-10-29T13:42:42.000Z</time>
      </trkpt>
      <trkpt lat="47.35559" lon="3.93651">
        <ele>462.60000610352</ele>
        <time>2022-10-29T13:42:47.000Z</time>
      </trkpt>
      <trkpt lat="47.35559" lon="3.93651">
        <ele>462.20001220703</ele>
        <time>2022-10-29T13:42:58.000Z</time>
      </trkpt>
      <trkpt lat="47.35559" lon="3.93651">
        <ele>462.60000610352</ele>
        <time>2022-10-29T13:43:23.000Z</time>
      </trkpt>
      <trkpt lat="47.35559" lon="3.93651">
        <ele>461.79998779297</ele>
        <time>2022-10-29T13:43:53.000Z</time>
      </trkpt>
      <trkpt lat="47.35559" lon="3.93651">
        <ele>462.20001220703</ele>
        <time>2022-10-29T13:44:38.000Z</time>
      </trkpt>
      <trkpt lat="47.35559" lon="3.93651">
        <ele>462.20001220703</ele>
        <time>2022-10-29T13:45:23.000Z</time>
      </trkpt>
      <trkpt lat="47.3556" lon="3.93651">
        <ele>462.79998779297</ele>
        <time>2022-10-29T13:46:31.000Z</time>
      </trkpt>
      <trkpt lat="47.3556" lon="3.93651">
        <ele>462.79998779297</ele>
        <time>2022-10-29T13:48:14.000Z</time>
      </trkpt>
      <trkpt lat="47.3556" lon="3.93652">
        <ele>463.39999389648</ele>
        <time>2022-10-29T13:49:03.000Z</time>
      </trkpt>
      <trkpt lat="47.35556" lon="3.93659">
        <ele>463.39999389648</ele>
        <time>2022-10-29T13:49:06.000Z</time>
      </trkpt>
      <trkpt lat="47.35551" lon="3.93681">
        <ele>463</ele>
        <time>2022-10-29T13:49:12.000Z</time>
      </trkpt>
      <trkpt lat="47.35541" lon="3.93717">
        <ele>462.60000610352</ele>
        <time>2022-10-29T13:49:19.000Z</time>
      </trkpt>
      <trkpt lat="47.35532" lon="3.93739">
        <ele>462.39999389648</ele>
        <time>2022-10-29T13:49:23.000Z</time>
      </trkpt>
      <trkpt lat="47.35523" lon="3.93753">
        <ele>462.20001220703</ele>
        <time>2022-10-29T13:49:25.000Z</time>
      </trkpt>
      <trkpt lat="47.35506" lon="3.93776">
        <ele>461.60000610352</ele>
        <time>2022-10-29T13:49:29.000Z</time>
      </trkpt>
      <trkpt lat="47.35493" lon="3.93795">
        <ele>460.60000610352</ele>
        <time>2022-10-29T13:49:32.000Z</time>
      </trkpt>
      <trkpt lat="47.35483" lon="3.93809">
        <ele>460.39999389648</ele>
        <time>2022-10-29T13:49:34.000Z</time>
      </trkpt>
      <trkpt lat="47.35467" lon="3.93831">
        <ele>459.39999389648</ele>
        <time>2022-10-29T13:49:37.000Z</time>
      </trkpt>
      <trkpt lat="47.35461" lon="3.93838">
        <ele>458.79998779297</ele>
        <time>2022-10-29T13:49:38.000Z</time>
      </trkpt>
      <trkpt lat="47.35438" lon="3.9387">
        <ele>457.79998779297</ele>
        <time>2022-10-29T13:49:42.000Z</time>
      </trkpt>
      <trkpt lat="47.35426" lon="3.93887">
        <ele>457</ele>
        <time>2022-10-29T13:49:44.000Z</time>
      </trkpt>
      <trkpt lat="47.3542" lon="3.93895">
        <ele>456.79998779297</ele>
        <time>2022-10-29T13:49:45.000Z</time>
      </trkpt>
      <trkpt lat="47.35397" lon="3.93922">
        <ele>455.79998779297</ele>
        <time>2022-10-29T13:49:48.000Z</time>
      </trkpt>
      <trkpt lat="47.35382" lon="3.93931">
        <ele>455.39999389648</ele>
        <time>2022-10-29T13:49:50.000Z</time>
      </trkpt>
      <trkpt lat="47.35373" lon="3.93934">
        <ele>455.39999389648</ele>
        <time>2022-10-29T13:49:51.000Z</time>
      </trkpt>
      <trkpt lat="47.35355" lon="3.93935">
        <ele>454.39999389648</ele>
        <time>2022-10-29T13:49:53.000Z</time>
      </trkpt>
      <trkpt lat="47.35337" lon="3.93931">
        <ele>453.39999389648</ele>
        <time>2022-10-29T13:49:55.000Z</time>
      </trkpt>
      <trkpt lat="47.35312" lon="3.93921">
        <ele>452.39999389648</ele>
        <time>2022-10-29T13:49:58.000Z</time>
      </trkpt>
      <trkpt lat="47.35294" lon="3.93915">
        <ele>451.20001220703</ele>
        <time>2022-10-29T13:50:00.000Z</time>
      </trkpt>
      <trkpt lat="47.35286" lon="3.93911">
        <ele>450.60000610352</ele>
        <time>2022-10-29T13:50:01.000Z</time>
      </trkpt>
      <trkpt lat="47.35259" lon="3.93903">
        <ele>449.79998779297</ele>
        <time>2022-10-29T13:50:04.000Z</time>
      </trkpt>
      <trkpt lat="47.35232" lon="3.93902">
        <ele>448.79998779297</ele>
        <time>2022-10-29T13:50:07.000Z</time>
      </trkpt>
      <trkpt lat="47.35222" lon="3.93903">
        <ele>448.60000610352</ele>
        <time>2022-10-29T13:50:08.000Z</time>
      </trkpt>
      <trkpt lat="47.35203" lon="3.93908">
        <ele>447.39999389648</ele>
        <time>2022-10-29T13:50:10.000Z</time>
      </trkpt>
      <trkpt lat="47.35185" lon="3.93915">
        <ele>446.60000610352</ele>
        <time>2022-10-29T13:50:12.000Z</time>
      </trkpt>
      <trkpt lat="47.35176" lon="3.9392">
        <ele>446</ele>
        <time>2022-10-29T13:50:13.000Z</time>
      </trkpt>
      <trkpt lat="47.35167" lon="3.93926">
        <ele>445.60000610352</ele>
        <time>2022-10-29T13:50:14.000Z</time>
      </trkpt>
      <trkpt lat="47.35151" lon="3.9394">
        <ele>444.79998779297</ele>
        <time>2022-10-29T13:50:16.000Z</time>
      </trkpt>
      <trkpt lat="47.3513" lon="3.93969">
        <ele>443.79998779297</ele>
        <time>2022-10-29T13:50:19.000Z</time>
      </trkpt>
      <trkpt lat="47.35116" lon="3.9399">
        <ele>442.60000610352</ele>
        <time>2022-10-29T13:50:21.000Z</time>
      </trkpt>
      <trkpt lat="47.35088" lon="3.94036">
        <ele>441.39999389648</ele>
        <time>2022-10-29T13:50:25.000Z</time>
      </trkpt>
      <trkpt lat="47.35074" lon="3.9406">
        <ele>440.39999389648</ele>
        <time>2022-10-29T13:50:27.000Z</time>
      </trkpt>
      <trkpt lat="47.3506" lon="3.94086">
        <ele>439.20001220703</ele>
        <time>2022-10-29T13:50:29.000Z</time>
      </trkpt>
      <trkpt lat="47.35045" lon="3.94124">
        <ele>437.79998779297</ele>
        <time>2022-10-29T13:50:32.000Z</time>
      </trkpt>
      <trkpt lat="47.35035" lon="3.94151">
        <ele>436</ele>
        <time>2022-10-29T13:50:34.000Z</time>
      </trkpt>
      <trkpt lat="47.3502" lon="3.94192">
        <ele>434.60000610352</ele>
        <time>2022-10-29T13:50:37.000Z</time>
      </trkpt>
      <trkpt lat="47.35016" lon="3.94205">
        <ele>434.20001220703</ele>
        <time>2022-10-29T13:50:38.000Z</time>
      </trkpt>
      <trkpt lat="47.35009" lon="3.94233">
        <ele>433.20001220703</ele>
        <time>2022-10-29T13:50:40.000Z</time>
      </trkpt>
      <trkpt lat="47.35007" lon="3.94248">
        <ele>432.60000610352</ele>
        <time>2022-10-29T13:50:41.000Z</time>
      </trkpt>
      <trkpt lat="47.35007" lon="3.94263">
        <ele>432.20001220703</ele>
        <time>2022-10-29T13:50:42.000Z</time>
      </trkpt>
      <trkpt lat="47.35009" lon="3.94293">
        <ele>430.39999389648</ele>
        <time>2022-10-29T13:50:44.000Z</time>
      </trkpt>
      <trkpt lat="47.35014" lon="3.94341">
        <ele>429.20001220703</ele>
        <time>2022-10-29T13:50:47.000Z</time>
      </trkpt>
      <trkpt lat="47.35016" lon="3.94356">
        <ele>428.39999389648</ele>
        <time>2022-10-29T13:50:48.000Z</time>
      </trkpt>
      <trkpt lat="47.35017" lon="3.94371">
        <ele>428</ele>
        <time>2022-10-29T13:50:49.000Z</time>
      </trkpt>
      <trkpt lat="47.35019" lon="3.94402">
        <ele>426.79998779297</ele>
        <time>2022-10-29T13:50:51.000Z</time>
      </trkpt>
      <trkpt lat="47.3502" lon="3.94419">
        <ele>426.39999389648</ele>
        <time>2022-10-29T13:50:52.000Z</time>
      </trkpt>
      <trkpt lat="47.3502" lon="3.94435">
        <ele>425.60000610352</ele>
        <time>2022-10-29T13:50:53.000Z</time>
      </trkpt>
      <trkpt lat="47.35019" lon="3.94467">
        <ele>424.60000610352</ele>
        <time>2022-10-29T13:50:55.000Z</time>
      </trkpt>
      <trkpt lat="47.35019" lon="3.94483">
        <ele>424.20001220703</ele>
        <time>2022-10-29T13:50:56.000Z</time>
      </trkpt>
      <trkpt lat="47.35027" lon="3.94517">
        <ele>423</ele>
        <time>2022-10-29T13:50:58.000Z</time>
      </trkpt>
      <trkpt lat="47.35038" lon="3.94563">
        <ele>421.60000610352</ele>
        <time>2022-10-29T13:51:01.000Z</time>
      </trkpt>
      <trkpt lat="47.35041" lon="3.94579">
        <ele>420.79998779297</ele>
        <time>2022-10-29T13:51:02.000Z</time>
      </trkpt>
      <trkpt lat="47.35041" lon="3.94609">
        <ele>420.20001220703</ele>
        <time>2022-10-29T13:51:04.000Z</time>
      </trkpt>
      <trkpt lat="47.35038" lon="3.94624">
        <ele>419.39999389648</ele>
        <time>2022-10-29T13:51:05.000Z</time>
      </trkpt>
      <trkpt lat="47.35035" lon="3.94638">
        <ele>418.79998779297</ele>
        <time>2022-10-29T13:51:06.000Z</time>
      </trkpt>
      <trkpt lat="47.35031" lon="3.94651">
        <ele>417.39999389648</ele>
        <time>2022-10-29T13:51:07.000Z</time>
      </trkpt>
      <trkpt lat="47.35021" lon="3.94678">
        <ele>416.20001220703</ele>
        <time>2022-10-29T13:51:09.000Z</time>
      </trkpt>
      <trkpt lat="47.35009" lon="3.94702">
        <ele>415</ele>
        <time>2022-10-29T13:51:11.000Z</time>
      </trkpt>
      <trkpt lat="47.35003" lon="3.94712">
        <ele>414.20001220703</ele>
        <time>2022-10-29T13:51:12.000Z</time>
      </trkpt>
      <trkpt lat="47.34995" lon="3.9472">
        <ele>414</ele>
        <time>2022-10-29T13:51:13.000Z</time>
      </trkpt>
      <trkpt lat="47.34986" lon="3.94725">
        <ele>413</ele>
        <time>2022-10-29T13:51:14.000Z</time>
      </trkpt>
      <trkpt lat="47.34976" lon="3.94728">
        <ele>412.60000610352</ele>
        <time>2022-10-29T13:51:15.000Z</time>
      </trkpt>
      <trkpt lat="47.34966" lon="3.94726">
        <ele>412</ele>
        <time>2022-10-29T13:51:16.000Z</time>
      </trkpt>
      <trkpt lat="47.34957" lon="3.94723">
        <ele>411.60000610352</ele>
        <time>2022-10-29T13:51:17.000Z</time>
      </trkpt>
      <trkpt lat="47.34948" lon="3.9472">
        <ele>410.20001220703</ele>
        <time>2022-10-29T13:51:18.000Z</time>
      </trkpt>
      <trkpt lat="47.3494" lon="3.9472">
        <ele>409.60000610352</ele>
        <time>2022-10-29T13:51:19.000Z</time>
      </trkpt>
      <trkpt lat="47.34932" lon="3.94723">
        <ele>409.39999389648</ele>
        <time>2022-10-29T13:51:20.000Z</time>
      </trkpt>
      <trkpt lat="47.34924" lon="3.94731">
        <ele>408</ele>
        <time>2022-10-29T13:51:21.000Z</time>
      </trkpt>
      <trkpt lat="47.34919" lon="3.94739">
        <ele>407.79998779297</ele>
        <time>2022-10-29T13:51:22.000Z</time>
      </trkpt>
      <trkpt lat="47.34916" lon="3.94749">
        <ele>407.39999389648</ele>
        <time>2022-10-29T13:51:23.000Z</time>
      </trkpt>
      <trkpt lat="47.34916" lon="3.9476">
        <ele>407.20001220703</ele>
        <time>2022-10-29T13:51:24.000Z</time>
      </trkpt>
      <trkpt lat="47.34917" lon="3.94772">
        <ele>406.39999389648</ele>
        <time>2022-10-29T13:51:25.000Z</time>
      </trkpt>
      <trkpt lat="47.34923" lon="3.94807">
        <ele>405.60000610352</ele>
        <time>2022-10-29T13:51:28.000Z</time>
      </trkpt>
      <trkpt lat="47.34926" lon="3.94817">
        <ele>405.39999389648</ele>
        <time>2022-10-29T13:51:29.000Z</time>
      </trkpt>
      <trkpt lat="47.34936" lon="3.94837">
        <ele>404.79998779297</ele>
        <time>2022-10-29T13:51:31.000Z</time>
      </trkpt>
      <trkpt lat="47.34942" lon="3.94845">
        <ele>404.20001220703</ele>
        <time>2022-10-29T13:51:32.000Z</time>
      </trkpt>
      <trkpt lat="47.3495" lon="3.94851">
        <ele>404</ele>
        <time>2022-10-29T13:51:33.000Z</time>
      </trkpt>
      <trkpt lat="47.34958" lon="3.94855">
        <ele>403.79998779297</ele>
        <time>2022-10-29T13:51:34.000Z</time>
      </trkpt>
      <trkpt lat="47.34967" lon="3.94859">
        <ele>403</ele>
        <time>2022-10-29T13:51:35.000Z</time>
      </trkpt>
      <trkpt lat="47.34987" lon="3.94866">
        <ele>402</ele>
        <time>2022-10-29T13:51:37.000Z</time>
      </trkpt>
      <trkpt lat="47.34998" lon="3.9487">
        <ele>401.79998779297</ele>
        <time>2022-10-29T13:51:38.000Z</time>
      </trkpt>
      <trkpt lat="47.35018" lon="3.94877">
        <ele>400.20001220703</ele>
        <time>2022-10-29T13:51:40.000Z</time>
      </trkpt>
      <trkpt lat="47.35028" lon="3.94881">
        <ele>399.60000610352</ele>
        <time>2022-10-29T13:51:41.000Z</time>
      </trkpt>
      <trkpt lat="47.35038" lon="3.94886">
        <ele>398.79998779297</ele>
        <time>2022-10-29T13:51:42.000Z</time>
      </trkpt>
      <trkpt lat="47.35047" lon="3.94893">
        <ele>398.60000610352</ele>
        <time>2022-10-29T13:51:43.000Z</time>
      </trkpt>
      <trkpt lat="47.35055" lon="3.94902">
        <ele>397.60000610352</ele>
        <time>2022-10-29T13:51:44.000Z</time>
      </trkpt>
      <trkpt lat="47.35061" lon="3.94914">
        <ele>396.79998779297</ele>
        <time>2022-10-29T13:51:45.000Z</time>
      </trkpt>
      <trkpt lat="47.35065" lon="3.94928">
        <ele>396</ele>
        <time>2022-10-29T13:51:46.000Z</time>
      </trkpt>
      <trkpt lat="47.35067" lon="3.94943">
        <ele>394.79998779297</ele>
        <time>2022-10-29T13:51:47.000Z</time>
      </trkpt>
      <trkpt lat="47.35066" lon="3.94957">
        <ele>394.39999389648</ele>
        <time>2022-10-29T13:51:48.000Z</time>
      </trkpt>
      <trkpt lat="47.35064" lon="3.9497">
        <ele>393.39999389648</ele>
        <time>2022-10-29T13:51:49.000Z</time>
      </trkpt>
      <trkpt lat="47.35055" lon="3.94994">
        <ele>392.20001220703</ele>
        <time>2022-10-29T13:51:51.000Z</time>
      </trkpt>
      <trkpt lat="47.35043" lon="3.95015">
        <ele>391.20001220703</ele>
        <time>2022-10-29T13:51:53.000Z</time>
      </trkpt>
      <trkpt lat="47.35038" lon="3.95025">
        <ele>390</ele>
        <time>2022-10-29T13:51:54.000Z</time>
      </trkpt>
      <trkpt lat="47.35032" lon="3.95037">
        <ele>389.60000610352</ele>
        <time>2022-10-29T13:51:55.000Z</time>
      </trkpt>
      <trkpt lat="47.35026" lon="3.95049">
        <ele>389</ele>
        <time>2022-10-29T13:51:56.000Z</time>
      </trkpt>
      <trkpt lat="47.35021" lon="3.95062">
        <ele>388.79998779297</ele>
        <time>2022-10-29T13:51:57.000Z</time>
      </trkpt>
      <trkpt lat="47.35015" lon="3.9509">
        <ele>388.20001220703</ele>
        <time>2022-10-29T13:51:59.000Z</time>
      </trkpt>
      <trkpt lat="47.35012" lon="3.95105">
        <ele>387.79998779297</ele>
        <time>2022-10-29T13:52:00.000Z</time>
      </trkpt>
      <trkpt lat="47.35006" lon="3.95171">
        <ele>386.79998779297</ele>
        <time>2022-10-29T13:52:04.000Z</time>
      </trkpt>
      <trkpt lat="47.35005" lon="3.95205">
        <ele>385.39999389648</ele>
        <time>2022-10-29T13:52:06.000Z</time>
      </trkpt>
      <trkpt lat="47.35004" lon="3.95237">
        <ele>383.39999389648</ele>
        <time>2022-10-29T13:52:08.000Z</time>
      </trkpt>
      <trkpt lat="47.35004" lon="3.95253">
        <ele>383</ele>
        <time>2022-10-29T13:52:09.000Z</time>
      </trkpt>
      <trkpt lat="47.35003" lon="3.95268">
        <ele>382.39999389648</ele>
        <time>2022-10-29T13:52:10.000Z</time>
      </trkpt>
      <trkpt lat="47.34996" lon="3.95294">
        <ele>381.60000610352</ele>
        <time>2022-10-29T13:52:12.000Z</time>
      </trkpt>
      <trkpt lat="47.34983" lon="3.95314">
        <ele>380.79998779297</ele>
        <time>2022-10-29T13:52:14.000Z</time>
      </trkpt>
      <trkpt lat="47.34971" lon="3.95333">
        <ele>380</ele>
        <time>2022-10-29T13:52:16.000Z</time>
      </trkpt>
      <trkpt lat="47.34968" lon="3.95344">
        <ele>379.20001220703</ele>
        <time>2022-10-29T13:52:17.000Z</time>
      </trkpt>
      <trkpt lat="47.34969" lon="3.95354">
        <ele>378.79998779297</ele>
        <time>2022-10-29T13:52:18.000Z</time>
      </trkpt>
      <trkpt lat="47.34971" lon="3.95364">
        <ele>378</ele>
        <time>2022-10-29T13:52:19.000Z</time>
      </trkpt>
      <trkpt lat="47.34974" lon="3.95373">
        <ele>377.79998779297</ele>
        <time>2022-10-29T13:52:20.000Z</time>
      </trkpt>
      <trkpt lat="47.34984" lon="3.95389">
        <ele>377</ele>
        <time>2022-10-29T13:52:22.000Z</time>
      </trkpt>
      <trkpt lat="47.3499" lon="3.95397">
        <ele>376.79998779297</ele>
        <time>2022-10-29T13:52:23.000Z</time>
      </trkpt>
      <trkpt lat="47.35" lon="3.95414">
        <ele>376.39999389648</ele>
        <time>2022-10-29T13:52:25.000Z</time>
      </trkpt>
      <trkpt lat="47.35008" lon="3.95431">
        <ele>376</ele>
        <time>2022-10-29T13:52:27.000Z</time>
      </trkpt>
      <trkpt lat="47.35012" lon="3.95439">
        <ele>375.79998779297</ele>
        <time>2022-10-29T13:52:28.000Z</time>
      </trkpt>
      <trkpt lat="47.35016" lon="3.95448">
        <ele>375.79998779297</ele>
        <time>2022-10-29T13:52:29.000Z</time>
      </trkpt>
      <trkpt lat="47.35019" lon="3.95457">
        <ele>375.79998779297</ele>
        <time>2022-10-29T13:52:30.000Z</time>
      </trkpt>
      <trkpt lat="47.35021" lon="3.95477">
        <ele>375.60000610352</ele>
        <time>2022-10-29T13:52:32.000Z</time>
      </trkpt>
      <trkpt lat="47.35016" lon="3.95496">
        <ele>375.39999389648</ele>
        <time>2022-10-29T13:52:34.000Z</time>
      </trkpt>
      <trkpt lat="47.35012" lon="3.95503">
        <ele>375.39999389648</ele>
        <time>2022-10-29T13:52:35.000Z</time>
      </trkpt>
      <trkpt lat="47.35002" lon="3.95513">
        <ele>375.20001220703</ele>
        <time>2022-10-29T13:52:37.000Z</time>
      </trkpt>
      <trkpt lat="47.34997" lon="3.95517">
        <ele>375</ele>
        <time>2022-10-29T13:52:38.000Z</time>
      </trkpt>
      <trkpt lat="47.34986" lon="3.95522">
        <ele>374.60000610352</ele>
        <time>2022-10-29T13:52:40.000Z</time>
      </trkpt>
      <trkpt lat="47.34961" lon="3.9553">
        <ele>374</ele>
        <time>2022-10-29T13:52:44.000Z</time>
      </trkpt>
      <trkpt lat="47.34949" lon="3.95535">
        <ele>373.60000610352</ele>
        <time>2022-10-29T13:52:46.000Z</time>
      </trkpt>
      <trkpt lat="47.34924" lon="3.95541">
        <ele>372.60000610352</ele>
        <time>2022-10-29T13:52:49.000Z</time>
      </trkpt>
      <trkpt lat="47.34915" lon="3.95542">
        <ele>372.39999389648</ele>
        <time>2022-10-29T13:52:50.000Z</time>
      </trkpt>
      <trkpt lat="47.34898" lon="3.95541">
        <ele>372</ele>
        <time>2022-10-29T13:52:52.000Z</time>
      </trkpt>
      <trkpt lat="47.34881" lon="3.95535">
        <ele>371.39999389648</ele>
        <time>2022-10-29T13:52:54.000Z</time>
      </trkpt>
      <trkpt lat="47.34864" lon="3.9553">
        <ele>370.79998779297</ele>
        <time>2022-10-29T13:52:56.000Z</time>
      </trkpt>
      <trkpt lat="47.34846" lon="3.95532">
        <ele>370.20001220703</ele>
        <time>2022-10-29T13:52:58.000Z</time>
      </trkpt>
      <trkpt lat="47.3483" lon="3.95545">
        <ele>369.60000610352</ele>
        <time>2022-10-29T13:53:00.000Z</time>
      </trkpt>
      <trkpt lat="47.34825" lon="3.95555">
        <ele>369.20001220703</ele>
        <time>2022-10-29T13:53:01.000Z</time>
      </trkpt>
      <trkpt lat="47.34823" lon="3.95567">
        <ele>368.79998779297</ele>
        <time>2022-10-29T13:53:02.000Z</time>
      </trkpt>
      <trkpt lat="47.34825" lon="3.95592">
        <ele>368.39999389648</ele>
        <time>2022-10-29T13:53:04.000Z</time>
      </trkpt>
      <trkpt lat="47.34828" lon="3.95603">
        <ele>368.39999389648</ele>
        <time>2022-10-29T13:53:05.000Z</time>
      </trkpt>
      <trkpt lat="47.34831" lon="3.95614">
        <ele>368</ele>
        <time>2022-10-29T13:53:06.000Z</time>
      </trkpt>
      <trkpt lat="47.34834" lon="3.95625">
        <ele>367.79998779297</ele>
        <time>2022-10-29T13:53:07.000Z</time>
      </trkpt>
      <trkpt lat="47.34842" lon="3.95673">
        <ele>367</ele>
        <time>2022-10-29T13:53:11.000Z</time>
      </trkpt>
      <trkpt lat="47.3485" lon="3.95711">
        <ele>365.79998779297</ele>
        <time>2022-10-29T13:53:14.000Z</time>
      </trkpt>
      <trkpt lat="47.34853" lon="3.95724">
        <ele>365.60000610352</ele>
        <time>2022-10-29T13:53:15.000Z</time>
      </trkpt>
      <trkpt lat="47.34857" lon="3.95736">
        <ele>365.20001220703</ele>
        <time>2022-10-29T13:53:16.000Z</time>
      </trkpt>
      <trkpt lat="47.34867" lon="3.95758">
        <ele>364.39999389648</ele>
        <time>2022-10-29T13:53:18.000Z</time>
      </trkpt>
      <trkpt lat="47.34879" lon="3.95777">
        <ele>363.39999389648</ele>
        <time>2022-10-29T13:53:20.000Z</time>
      </trkpt>
      <trkpt lat="47.34886" lon="3.95785">
        <ele>363.20001220703</ele>
        <time>2022-10-29T13:53:21.000Z</time>
      </trkpt>
      <trkpt lat="47.34894" lon="3.95792">
        <ele>362.60000610352</ele>
        <time>2022-10-29T13:53:22.000Z</time>
      </trkpt>
      <trkpt lat="47.34903" lon="3.95797">
        <ele>362.20001220703</ele>
        <time>2022-10-29T13:53:23.000Z</time>
      </trkpt>
      <trkpt lat="47.34919" lon="3.9581">
        <ele>361.60000610352</ele>
        <time>2022-10-29T13:53:25.000Z</time>
      </trkpt>
      <trkpt lat="47.34932" lon="3.95828">
        <ele>360.79998779297</ele>
        <time>2022-10-29T13:53:27.000Z</time>
      </trkpt>
      <trkpt lat="47.34939" lon="3.95839">
        <ele>360.60000610352</ele>
        <time>2022-10-29T13:53:28.000Z</time>
      </trkpt>
      <trkpt lat="47.34956" lon="3.95873">
        <ele>359.60000610352</ele>
        <time>2022-10-29T13:53:31.000Z</time>
      </trkpt>
      <trkpt lat="47.34973" lon="3.9591">
        <ele>358.60000610352</ele>
        <time>2022-10-29T13:53:34.000Z</time>
      </trkpt>
      <trkpt lat="47.34977" lon="3.9592">
        <ele>358.39999389648</ele>
        <time>2022-10-29T13:53:35.000Z</time>
      </trkpt>
      <trkpt lat="47.34988" lon="3.95958">
        <ele>357.39999389648</ele>
        <time>2022-10-29T13:53:38.000Z</time>
      </trkpt>
      <trkpt lat="47.34997" lon="3.95983">
        <ele>356.60000610352</ele>
        <time>2022-10-29T13:53:40.000Z</time>
      </trkpt>
      <trkpt lat="47.35008" lon="3.96005">
        <ele>355.39999389648</ele>
        <time>2022-10-29T13:53:42.000Z</time>
      </trkpt>
      <trkpt lat="47.35023" lon="3.96026">
        <ele>354</ele>
        <time>2022-10-29T13:53:44.000Z</time>
      </trkpt>
      <trkpt lat="47.35045" lon="3.96057">
        <ele>352.79998779297</ele>
        <time>2022-10-29T13:53:47.000Z</time>
      </trkpt>
      <trkpt lat="47.35069" lon="3.96087">
        <ele>351.60000610352</ele>
        <time>2022-10-29T13:53:50.000Z</time>
      </trkpt>
      <trkpt lat="47.35077" lon="3.96097">
        <ele>351</ele>
        <time>2022-10-29T13:53:51.000Z</time>
      </trkpt>
      <trkpt lat="47.35084" lon="3.96107">
        <ele>350.60000610352</ele>
        <time>2022-10-29T13:53:52.000Z</time>
      </trkpt>
      <trkpt lat="47.35108" lon="3.96137">
        <ele>349.20001220703</ele>
        <time>2022-10-29T13:53:55.000Z</time>
      </trkpt>
      <trkpt lat="47.35132" lon="3.96167">
        <ele>348</ele>
        <time>2022-10-29T13:53:58.000Z</time>
      </trkpt>
      <trkpt lat="47.35148" lon="3.96187">
        <ele>347.39999389648</ele>
        <time>2022-10-29T13:54:00.000Z</time>
      </trkpt>
      <trkpt lat="47.35155" lon="3.96197">
        <ele>346.79998779297</ele>
        <time>2022-10-29T13:54:01.000Z</time>
      </trkpt>
      <trkpt lat="47.3517" lon="3.96216">
        <ele>345.39999389648</ele>
        <time>2022-10-29T13:54:03.000Z</time>
      </trkpt>
      <trkpt lat="47.352" lon="3.96254">
        <ele>344.39999389648</ele>
        <time>2022-10-29T13:54:07.000Z</time>
      </trkpt>
      <trkpt lat="47.35222" lon="3.96281">
        <ele>343.20001220703</ele>
        <time>2022-10-29T13:54:10.000Z</time>
      </trkpt>
      <trkpt lat="47.35251" lon="3.96318">
        <ele>342.20001220703</ele>
        <time>2022-10-29T13:54:14.000Z</time>
      </trkpt>
      <trkpt lat="47.35272" lon="3.96345">
        <ele>340.79998779297</ele>
        <time>2022-10-29T13:54:17.000Z</time>
      </trkpt>
      <trkpt lat="47.35279" lon="3.96354">
        <ele>340.60000610352</ele>
        <time>2022-10-29T13:54:18.000Z</time>
      </trkpt>
      <trkpt lat="47.353" lon="3.96379">
        <ele>339.79998779297</ele>
        <time>2022-10-29T13:54:21.000Z</time>
      </trkpt>
      <trkpt lat="47.35329" lon="3.96409">
        <ele>339</ele>
        <time>2022-10-29T13:54:25.000Z</time>
      </trkpt>
      <trkpt lat="47.35337" lon="3.96415">
        <ele>338.79998779297</ele>
        <time>2022-10-29T13:54:26.000Z</time>
      </trkpt>
      <trkpt lat="47.35367" lon="3.96433">
        <ele>338.20001220703</ele>
        <time>2022-10-29T13:54:30.000Z</time>
      </trkpt>
      <trkpt lat="47.35409" lon="3.96444">
        <ele>338</ele>
        <time>2022-10-29T13:54:36.000Z</time>
      </trkpt>
      <trkpt lat="47.3544" lon="3.96443">
        <ele>338.20001220703</ele>
        <time>2022-10-29T13:54:41.000Z</time>
      </trkpt>
      <trkpt lat="47.35466" lon="3.96438">
        <ele>339.20001220703</ele>
        <time>2022-10-29T13:54:46.000Z</time>
      </trkpt>
      <trkpt lat="47.35484" lon="3.96435">
        <ele>339.79998779297</ele>
        <time>2022-10-29T13:54:50.000Z</time>
      </trkpt>
      <trkpt lat="47.35492" lon="3.96434">
        <ele>340.20001220703</ele>
        <time>2022-10-29T13:54:52.000Z</time>
      </trkpt>
      <trkpt lat="47.35508" lon="3.96432">
        <ele>341</ele>
        <time>2022-10-29T13:54:56.000Z</time>
      </trkpt>
      <trkpt lat="47.35515" lon="3.9643">
        <ele>341.39999389648</ele>
        <time>2022-10-29T13:54:58.000Z</time>
      </trkpt>
      <trkpt lat="47.35534" lon="3.96427">
        <ele>342.20001220703</ele>
        <time>2022-10-29T13:55:03.000Z</time>
      </trkpt>
      <trkpt lat="47.35544" lon="3.96426">
        <ele>342.79998779297</ele>
        <time>2022-10-29T13:55:06.000Z</time>
      </trkpt>
      <trkpt lat="47.35554" lon="3.96425">
        <ele>343.39999389648</ele>
        <time>2022-10-29T13:55:09.000Z</time>
      </trkpt>
      <trkpt lat="47.35561" lon="3.96425">
        <ele>343.79998779297</ele>
        <time>2022-10-29T13:55:11.000Z</time>
      </trkpt>
      <trkpt lat="47.35575" lon="3.96424">
        <ele>344.39999389648</ele>
        <time>2022-10-29T13:55:15.000Z</time>
      </trkpt>
      <trkpt lat="47.35587" lon="3.96422">
        <ele>345.20001220703</ele>
        <time>2022-10-29T13:55:18.000Z</time>
      </trkpt>
      <trkpt lat="47.35594" lon="3.96422">
        <ele>345.60000610352</ele>
        <time>2022-10-29T13:55:20.000Z</time>
      </trkpt>
      <trkpt lat="47.35613" lon="3.96422">
        <ele>346.79998779297</ele>
        <time>2022-10-29T13:55:25.000Z</time>
      </trkpt>
      <trkpt lat="47.35617" lon="3.96423">
        <ele>346.79998779297</ele>
        <time>2022-10-29T13:55:26.000Z</time>
      </trkpt>
      <trkpt lat="47.35634" lon="3.96426">
        <ele>347.79998779297</ele>
        <time>2022-10-29T13:55:31.000Z</time>
      </trkpt>
      <trkpt lat="47.35637" lon="3.96426">
        <ele>348</ele>
        <time>2022-10-29T13:55:32.000Z</time>
      </trkpt>
      <trkpt lat="47.35657" lon="3.96432">
        <ele>349</ele>
        <time>2022-10-29T13:55:37.000Z</time>
      </trkpt>
      <trkpt lat="47.3567" lon="3.96436">
        <ele>349.60000610352</ele>
        <time>2022-10-29T13:55:40.000Z</time>
      </trkpt>
      <trkpt lat="47.35678" lon="3.9644">
        <ele>350</ele>
        <time>2022-10-29T13:55:42.000Z</time>
      </trkpt>
      <trkpt lat="47.35697" lon="3.96452">
        <ele>351</ele>
        <time>2022-10-29T13:55:47.000Z</time>
      </trkpt>
      <trkpt lat="47.357" lon="3.96455">
        <ele>351.39999389648</ele>
        <time>2022-10-29T13:55:48.000Z</time>
      </trkpt>
      <trkpt lat="47.35717" lon="3.96473">
        <ele>352.39999389648</ele>
        <time>2022-10-29T13:55:54.000Z</time>
      </trkpt>
      <trkpt lat="47.35723" lon="3.96479">
        <ele>352.79998779297</ele>
        <time>2022-10-29T13:55:56.000Z</time>
      </trkpt>
      <trkpt lat="47.35733" lon="3.96491">
        <ele>353.39999389648</ele>
        <time>2022-10-29T13:56:00.000Z</time>
      </trkpt>
      <trkpt lat="47.35744" lon="3.96503">
        <ele>354.20001220703</ele>
        <time>2022-10-29T13:56:04.000Z</time>
      </trkpt>
      <trkpt lat="47.35749" lon="3.96509">
        <ele>354.60000610352</ele>
        <time>2022-10-29T13:56:06.000Z</time>
      </trkpt>
      <trkpt lat="47.35762" lon="3.96523">
        <ele>355.79998779297</ele>
        <time>2022-10-29T13:56:11.000Z</time>
      </trkpt>
      <trkpt lat="47.35765" lon="3.96526">
        <ele>356</ele>
        <time>2022-10-29T13:56:12.000Z</time>
      </trkpt>
      <trkpt lat="47.35777" lon="3.96539">
        <ele>356.79998779297</ele>
        <time>2022-10-29T13:56:17.000Z</time>
      </trkpt>
      <trkpt lat="47.35782" lon="3.96542">
        <ele>357.20001220703</ele>
        <time>2022-10-29T13:56:19.000Z</time>
      </trkpt>
      <trkpt lat="47.35791" lon="3.96548">
        <ele>357.79998779297</ele>
        <time>2022-10-29T13:56:22.000Z</time>
      </trkpt>
      <trkpt lat="47.35801" lon="3.96552">
        <ele>358.79998779297</ele>
        <time>2022-10-29T13:56:26.000Z</time>
      </trkpt>
      <trkpt lat="47.35803" lon="3.96553">
        <ele>359</ele>
        <time>2022-10-29T13:56:27.000Z</time>
      </trkpt>
      <trkpt lat="47.35817" lon="3.9656">
        <ele>359.79998779297</ele>
        <time>2022-10-29T13:56:32.000Z</time>
      </trkpt>
      <trkpt lat="47.3582" lon="3.96562">
        <ele>360.20001220703</ele>
        <time>2022-10-29T13:56:33.000Z</time>
      </trkpt>
      <trkpt lat="47.3584" lon="3.96575">
        <ele>361.20001220703</ele>
        <time>2022-10-29T13:56:39.000Z</time>
      </trkpt>
      <trkpt lat="47.35842" lon="3.96577">
        <ele>361.39999389648</ele>
        <time>2022-10-29T13:56:40.000Z</time>
      </trkpt>
      <trkpt lat="47.35855" lon="3.96594">
        <ele>362.39999389648</ele>
        <time>2022-10-29T13:56:45.000Z</time>
      </trkpt>
      <trkpt lat="47.35858" lon="3.96598">
        <ele>362.39999389648</ele>
        <time>2022-10-29T13:56:46.000Z</time>
      </trkpt>
      <trkpt lat="47.35872" lon="3.96618">
        <ele>363.39999389648</ele>
        <time>2022-10-29T13:56:51.000Z</time>
      </trkpt>
      <trkpt lat="47.35877" lon="3.96626">
        <ele>363.79998779297</ele>
        <time>2022-10-29T13:56:53.000Z</time>
      </trkpt>
      <trkpt lat="47.35885" lon="3.96638">
        <ele>364.39999389648</ele>
        <time>2022-10-29T13:56:56.000Z</time>
      </trkpt>
      <trkpt lat="47.35898" lon="3.9666">
        <ele>365.39999389648</ele>
        <time>2022-10-29T13:57:02.000Z</time>
      </trkpt>
      <trkpt lat="47.35901" lon="3.96664">
        <ele>365.39999389648</ele>
        <time>2022-10-29T13:57:03.000Z</time>
      </trkpt>
      <trkpt lat="47.35917" lon="3.9669">
        <ele>366.79998779297</ele>
        <time>2022-10-29T13:57:10.000Z</time>
      </trkpt>
      <trkpt lat="47.35921" lon="3.96697">
        <ele>367.20001220703</ele>
        <time>2022-10-29T13:57:12.000Z</time>
      </trkpt>
      <trkpt lat="47.3593" lon="3.96712">
        <ele>368</ele>
        <time>2022-10-29T13:57:16.000Z</time>
      </trkpt>
      <trkpt lat="47.35943" lon="3.96742">
        <ele>369</ele>
        <time>2022-10-29T13:57:23.000Z</time>
      </trkpt>
      <trkpt lat="47.35946" lon="3.96772">
        <ele>369.79998779297</ele>
        <time>2022-10-29T13:57:29.000Z</time>
      </trkpt>
      <trkpt lat="47.35946" lon="3.96782">
        <ele>370</ele>
        <time>2022-10-29T13:57:31.000Z</time>
      </trkpt>
      <trkpt lat="47.35943" lon="3.96806">
        <ele>371</ele>
        <time>2022-10-29T13:57:36.000Z</time>
      </trkpt>
      <trkpt lat="47.35943" lon="3.96811">
        <ele>371.20001220703</ele>
        <time>2022-10-29T13:57:37.000Z</time>
      </trkpt>
      <trkpt lat="47.35942" lon="3.96815">
        <ele>371.39999389648</ele>
        <time>2022-10-29T13:57:38.000Z</time>
      </trkpt>
      <trkpt lat="47.3594" lon="3.96822">
        <ele>371.79998779297</ele>
        <time>2022-10-29T13:57:40.000Z</time>
      </trkpt>
      <trkpt lat="47.3594" lon="3.96826">
        <ele>372.39999389648</ele>
        <time>2022-10-29T13:57:41.000Z</time>
      </trkpt>
      <trkpt lat="47.35939" lon="3.96857">
        <ele>373.20001220703</ele>
        <time>2022-10-29T13:57:47.000Z</time>
      </trkpt>
      <trkpt lat="47.35939" lon="3.96862">
        <ele>373.39999389648</ele>
        <time>2022-10-29T13:57:48.000Z</time>
      </trkpt>
      <trkpt lat="47.35939" lon="3.96916">
        <ele>374.39999389648</ele>
        <time>2022-10-29T13:57:58.000Z</time>
      </trkpt>
      <trkpt lat="47.35939" lon="3.96922">
        <ele>374.60000610352</ele>
        <time>2022-10-29T13:57:59.000Z</time>
      </trkpt>
      <trkpt lat="47.35939" lon="3.96952">
        <ele>375.20001220703</ele>
        <time>2022-10-29T13:58:06.000Z</time>
      </trkpt>
      <trkpt lat="47.35935" lon="3.96984">
        <ele>375.20001220703</ele>
        <time>2022-10-29T13:58:12.000Z</time>
      </trkpt>
      <trkpt lat="47.35932" lon="3.97009">
        <ele>375.20001220703</ele>
        <time>2022-10-29T13:58:15.000Z</time>
      </trkpt>
      <trkpt lat="47.3593" lon="3.97028">
        <ele>374.79998779297</ele>
        <time>2022-10-29T13:58:17.000Z</time>
      </trkpt>
      <trkpt lat="47.35931" lon="3.97088">
        <ele>373.60000610352</ele>
        <time>2022-10-29T13:58:23.000Z</time>
      </trkpt>
      <trkpt lat="47.35931" lon="3.97096">
        <ele>373.39999389648</ele>
        <time>2022-10-29T13:58:24.000Z</time>
      </trkpt>
      <trkpt lat="47.35933" lon="3.97121">
        <ele>372.79998779297</ele>
        <time>2022-10-29T13:58:27.000Z</time>
      </trkpt>
      <trkpt lat="47.35934" lon="3.97128">
        <ele>372.60000610352</ele>
        <time>2022-10-29T13:58:28.000Z</time>
      </trkpt>
      <trkpt lat="47.35936" lon="3.97134">
        <ele>372.60000610352</ele>
        <time>2022-10-29T13:58:29.000Z</time>
      </trkpt>
      <trkpt lat="47.35942" lon="3.97144">
        <ele>372.79998779297</ele>
        <time>2022-10-29T13:58:31.000Z</time>
      </trkpt>
      <trkpt lat="47.35946" lon="3.97148">
        <ele>372.79998779297</ele>
        <time>2022-10-29T13:58:32.000Z</time>
      </trkpt>
      <trkpt lat="47.35949" lon="3.9715">
        <ele>373</ele>
        <time>2022-10-29T13:58:33.000Z</time>
      </trkpt>
      <trkpt lat="47.35958" lon="3.97153">
        <ele>373</ele>
        <time>2022-10-29T13:58:35.000Z</time>
      </trkpt>
      <trkpt lat="47.35962" lon="3.97152">
        <ele>373.20001220703</ele>
        <time>2022-10-29T13:58:36.000Z</time>
      </trkpt>
      <trkpt lat="47.35966" lon="3.97152">
        <ele>373.20001220703</ele>
        <time>2022-10-29T13:58:37.000Z</time>
      </trkpt>
      <trkpt lat="47.35986" lon="3.97144">
        <ele>374.20001220703</ele>
        <time>2022-10-29T13:58:42.000Z</time>
      </trkpt>
      <trkpt lat="47.36001" lon="3.97132">
        <ele>374.60000610352</ele>
        <time>2022-10-29T13:58:46.000Z</time>
      </trkpt>
      <trkpt lat="47.36012" lon="3.97122">
        <ele>374.79998779297</ele>
        <time>2022-10-29T13:58:49.000Z</time>
      </trkpt>
      <trkpt lat="47.36015" lon="3.97119">
        <ele>375</ele>
        <time>2022-10-29T13:58:50.000Z</time>
      </trkpt>
      <trkpt lat="47.36023" lon="3.97113">
        <ele>375.20001220703</ele>
        <time>2022-10-29T13:58:52.000Z</time>
      </trkpt>
      <trkpt lat="47.3603" lon="3.97105">
        <ele>375.60000610352</ele>
        <time>2022-10-29T13:58:54.000Z</time>
      </trkpt>
      <trkpt lat="47.36033" lon="3.97101">
        <ele>375.79998779297</ele>
        <time>2022-10-29T13:58:55.000Z</time>
      </trkpt>
      <trkpt lat="47.36051" lon="3.97075">
        <ele>377</ele>
        <time>2022-10-29T13:59:01.000Z</time>
      </trkpt>
      <trkpt lat="47.36063" lon="3.97054">
        <ele>377.20001220703</ele>
        <time>2022-10-29T13:59:05.000Z</time>
      </trkpt>
      <trkpt lat="47.36086" lon="3.97012">
        <ele>377.20001220703</ele>
        <time>2022-10-29T13:59:12.000Z</time>
      </trkpt>
      <trkpt lat="47.36109" lon="3.9697">
        <ele>377.20001220703</ele>
        <time>2022-10-29T13:59:18.000Z</time>
      </trkpt>
      <trkpt lat="47.3614" lon="3.96916">
        <ele>377.20001220703</ele>
        <time>2022-10-29T13:59:26.000Z</time>
      </trkpt>
      <trkpt lat="47.36148" lon="3.96905">
        <ele>377.39999389648</ele>
        <time>2022-10-29T13:59:28.000Z</time>
      </trkpt>
      <trkpt lat="47.36158" lon="3.96896">
        <ele>377.60000610352</ele>
        <time>2022-10-29T13:59:30.000Z</time>
      </trkpt>
      <trkpt lat="47.36163" lon="3.96892">
        <ele>377.79998779297</ele>
        <time>2022-10-29T13:59:31.000Z</time>
      </trkpt>
      <trkpt lat="47.36197" lon="3.96878">
        <ele>377.79998779297</ele>
        <time>2022-10-29T13:59:37.000Z</time>
      </trkpt>
      <trkpt lat="47.36234" lon="3.96867">
        <ele>376.79998779297</ele>
        <time>2022-10-29T13:59:42.000Z</time>
      </trkpt>
      <trkpt lat="47.36258" lon="3.9686">
        <ele>375.60000610352</ele>
        <time>2022-10-29T13:59:45.000Z</time>
      </trkpt>
      <trkpt lat="47.36284" lon="3.96851">
        <ele>374.60000610352</ele>
        <time>2022-10-29T13:59:48.000Z</time>
      </trkpt>
      <trkpt lat="47.36293" lon="3.96849">
        <ele>374.39999389648</ele>
        <time>2022-10-29T13:59:49.000Z</time>
      </trkpt>
      <trkpt lat="47.36327" lon="3.96837">
        <ele>373.60000610352</ele>
        <time>2022-10-29T13:59:53.000Z</time>
      </trkpt>
      <trkpt lat="47.36353" lon="3.96829">
        <ele>372.60000610352</ele>
        <time>2022-10-29T13:59:56.000Z</time>
      </trkpt>
      <trkpt lat="47.36361" lon="3.96827">
        <ele>372</ele>
        <time>2022-10-29T13:59:57.000Z</time>
      </trkpt>
      <trkpt lat="47.36409" lon="3.96814">
        <ele>371.39999389648</ele>
        <time>2022-10-29T14:00:03.000Z</time>
      </trkpt>
      <trkpt lat="47.36437" lon="3.96812">
        <ele>371.79998779297</ele>
        <time>2022-10-29T14:00:07.000Z</time>
      </trkpt>
      <trkpt lat="47.36443" lon="3.96813">
        <ele>372</ele>
        <time>2022-10-29T14:00:08.000Z</time>
      </trkpt>
      <trkpt lat="47.36449" lon="3.96815">
        <ele>372.39999389648</ele>
        <time>2022-10-29T14:00:09.000Z</time>
      </trkpt>
      <trkpt lat="47.36466" lon="3.96824">
        <ele>373.20001220703</ele>
        <time>2022-10-29T14:00:12.000Z</time>
      </trkpt>
      <trkpt lat="47.36471" lon="3.96827">
        <ele>373.39999389648</ele>
        <time>2022-10-29T14:00:13.000Z</time>
      </trkpt>
      <trkpt lat="47.36494" lon="3.96846">
        <ele>374.39999389648</ele>
        <time>2022-10-29T14:00:18.000Z</time>
      </trkpt>
      <trkpt lat="47.36521" lon="3.96868">
        <ele>375.39999389648</ele>
        <time>2022-10-29T14:00:25.000Z</time>
      </trkpt>
      <trkpt lat="47.36548" lon="3.9689">
        <ele>376.39999389648</ele>
        <time>2022-10-29T14:00:32.000Z</time>
      </trkpt>
      <trkpt lat="47.36552" lon="3.96894">
        <ele>376.60000610352</ele>
        <time>2022-10-29T14:00:33.000Z</time>
      </trkpt>
      <trkpt lat="47.36571" lon="3.96909">
        <ele>377.39999389648</ele>
        <time>2022-10-29T14:00:38.000Z</time>
      </trkpt>
      <trkpt lat="47.36575" lon="3.96912">
        <ele>377.60000610352</ele>
        <time>2022-10-29T14:00:39.000Z</time>
      </trkpt>
      <trkpt lat="47.36579" lon="3.96914">
        <ele>377.60000610352</ele>
        <time>2022-10-29T14:00:40.000Z</time>
      </trkpt>
      <trkpt lat="47.36602" lon="3.96933">
        <ele>378.60000610352</ele>
        <time>2022-10-29T14:00:46.000Z</time>
      </trkpt>
      <trkpt lat="47.3661" lon="3.96939">
        <ele>379</ele>
        <time>2022-10-29T14:00:48.000Z</time>
      </trkpt>
      <trkpt lat="47.36629" lon="3.96955">
        <ele>380.20001220703</ele>
        <time>2022-10-29T14:00:53.000Z</time>
      </trkpt>
      <trkpt lat="47.36645" lon="3.96967">
        <ele>380.79998779297</ele>
        <time>2022-10-29T14:00:57.000Z</time>
      </trkpt>
      <trkpt lat="47.36667" lon="3.96987">
        <ele>381.39999389648</ele>
        <time>2022-10-29T14:01:03.000Z</time>
      </trkpt>
      <trkpt lat="47.36674" lon="3.96996">
        <ele>381.60000610352</ele>
        <time>2022-10-29T14:01:05.000Z</time>
      </trkpt>
      <trkpt lat="47.36677" lon="3.97001">
        <ele>381.79998779297</ele>
        <time>2022-10-29T14:01:06.000Z</time>
      </trkpt>
      <trkpt lat="47.36678" lon="3.97007">
        <ele>382</ele>
        <time>2022-10-29T14:01:07.000Z</time>
      </trkpt>
      <trkpt lat="47.3668" lon="3.97019">
        <ele>382</ele>
        <time>2022-10-29T14:01:09.000Z</time>
      </trkpt>
      <trkpt lat="47.36679" lon="3.97025">
        <ele>382.20001220703</ele>
        <time>2022-10-29T14:01:10.000Z</time>
      </trkpt>
      <trkpt lat="47.36678" lon="3.97031">
        <ele>382.20001220703</ele>
        <time>2022-10-29T14:01:11.000Z</time>
      </trkpt>
      <trkpt lat="47.36672" lon="3.97046">
        <ele>382.60000610352</ele>
        <time>2022-10-29T14:01:14.000Z</time>
      </trkpt>
      <trkpt lat="47.36658" lon="3.97067">
        <ele>383.60000610352</ele>
        <time>2022-10-29T14:01:19.000Z</time>
      </trkpt>
      <trkpt lat="47.36649" lon="3.9708">
        <ele>384.20001220703</ele>
        <time>2022-10-29T14:01:22.000Z</time>
      </trkpt>
      <trkpt lat="47.36629" lon="3.97111">
        <ele>384.79998779297</ele>
        <time>2022-10-29T14:01:28.000Z</time>
      </trkpt>
      <trkpt lat="47.3662" lon="3.97125">
        <ele>385.20001220703</ele>
        <time>2022-10-29T14:01:31.000Z</time>
      </trkpt>
      <trkpt lat="47.36611" lon="3.97139">
        <ele>385.39999389648</ele>
        <time>2022-10-29T14:01:34.000Z</time>
      </trkpt>
      <trkpt lat="47.36606" lon="3.97147">
        <ele>386.20001220703</ele>
        <time>2022-10-29T14:01:36.000Z</time>
      </trkpt>
      <trkpt lat="47.36601" lon="3.97155">
        <ele>386.39999389648</ele>
        <time>2022-10-29T14:01:38.000Z</time>
      </trkpt>
      <trkpt lat="47.36598" lon="3.97159">
        <ele>386.20001220703</ele>
        <time>2022-10-29T14:01:39.000Z</time>
      </trkpt>
      <trkpt lat="47.36587" lon="3.97175">
        <ele>387.20001220703</ele>
        <time>2022-10-29T14:01:43.000Z</time>
      </trkpt>
      <trkpt lat="47.36584" lon="3.97178">
        <ele>387.20001220703</ele>
        <time>2022-10-29T14:01:44.000Z</time>
      </trkpt>
      <trkpt lat="47.36571" lon="3.972">
        <ele>387.60000610352</ele>
        <time>2022-10-29T14:01:50.000Z</time>
      </trkpt>
      <trkpt lat="47.36555" lon="3.97221">
        <ele>388.20001220703</ele>
        <time>2022-10-29T14:01:56.000Z</time>
      </trkpt>
      <trkpt lat="47.36551" lon="3.97229">
        <ele>388.39999389648</ele>
        <time>2022-10-29T14:01:58.000Z</time>
      </trkpt>
      <trkpt lat="47.36537" lon="3.97252">
        <ele>389.20001220703</ele>
        <time>2022-10-29T14:02:04.000Z</time>
      </trkpt>
      <trkpt lat="47.36535" lon="3.97255">
        <ele>389.39999389648</ele>
        <time>2022-10-29T14:02:05.000Z</time>
      </trkpt>
      <trkpt lat="47.36527" lon="3.97269">
        <ele>390</ele>
        <time>2022-10-29T14:02:10.000Z</time>
      </trkpt>
      <trkpt lat="47.36521" lon="3.97286">
        <ele>390.39999389648</ele>
        <time>2022-10-29T14:02:13.000Z</time>
      </trkpt>
      <trkpt lat="47.36519" lon="3.97301">
        <ele>390.79998779297</ele>
        <time>2022-10-29T14:02:16.000Z</time>
      </trkpt>
      <trkpt lat="47.36518" lon="3.97322">
        <ele>391.39999389648</ele>
        <time>2022-10-29T14:02:20.000Z</time>
      </trkpt>
      <trkpt lat="47.36518" lon="3.97338">
        <ele>391.79998779297</ele>
        <time>2022-10-29T14:02:23.000Z</time>
      </trkpt>
      <trkpt lat="47.36518" lon="3.97368">
        <ele>392.39999389648</ele>
        <time>2022-10-29T14:02:29.000Z</time>
      </trkpt>
      <trkpt lat="47.36517" lon="3.97383">
        <ele>393.20001220703</ele>
        <time>2022-10-29T14:02:32.000Z</time>
      </trkpt>
      <trkpt lat="47.36516" lon="3.97399">
        <ele>393.60000610352</ele>
        <time>2022-10-29T14:02:35.000Z</time>
      </trkpt>
      <trkpt lat="47.36517" lon="3.97428">
        <ele>394</ele>
        <time>2022-10-29T14:02:40.000Z</time>
      </trkpt>
      <trkpt lat="47.36517" lon="3.97459">
        <ele>394.79998779297</ele>
        <time>2022-10-29T14:02:46.000Z</time>
      </trkpt>
      <trkpt lat="47.36517" lon="3.97469">
        <ele>395.20001220703</ele>
        <time>2022-10-29T14:02:48.000Z</time>
      </trkpt>
      <trkpt lat="47.36516" lon="3.97496">
        <ele>395.79998779297</ele>
        <time>2022-10-29T14:02:53.000Z</time>
      </trkpt>
      <trkpt lat="47.36517" lon="3.97527">
        <ele>396.39999389648</ele>
        <time>2022-10-29T14:02:59.000Z</time>
      </trkpt>
      <trkpt lat="47.36519" lon="3.97548">
        <ele>397</ele>
        <time>2022-10-29T14:03:03.000Z</time>
      </trkpt>
      <trkpt lat="47.36525" lon="3.97585">
        <ele>398.20001220703</ele>
        <time>2022-10-29T14:03:10.000Z</time>
      </trkpt>
      <trkpt lat="47.36531" lon="3.97614">
        <ele>399.39999389648</ele>
        <time>2022-10-29T14:03:16.000Z</time>
      </trkpt>
      <trkpt lat="47.36538" lon="3.97632">
        <ele>399.79998779297</ele>
        <time>2022-10-29T14:03:20.000Z</time>
      </trkpt>
      <trkpt lat="47.36545" lon="3.97652">
        <ele>400.39999389648</ele>
        <time>2022-10-29T14:03:24.000Z</time>
      </trkpt>
      <trkpt lat="47.36554" lon="3.9767">
        <ele>400.79998779297</ele>
        <time>2022-10-29T14:03:28.000Z</time>
      </trkpt>
      <trkpt lat="47.36573" lon="3.97704">
        <ele>401</ele>
        <time>2022-10-29T14:03:35.000Z</time>
      </trkpt>
      <trkpt lat="47.36594" lon="3.97741">
        <ele>401.20001220703</ele>
        <time>2022-10-29T14:03:42.000Z</time>
      </trkpt>
      <trkpt lat="47.36623" lon="3.97791">
        <ele>401.39999389648</ele>
        <time>2022-10-29T14:03:51.000Z</time>
      </trkpt>
      <trkpt lat="47.36623" lon="3.97791">
        <ele>401.39999389648</ele>
        <time>2022-10-29T14:03:52.000Z</time>
      </trkpt>
      <trkpt lat="47.36651" lon="3.97843">
        <ele>401.79998779297</ele>
        <time>2022-10-29T14:04:00.000Z</time>
      </trkpt>
      <trkpt lat="47.36682" lon="3.97912">
        <ele>402</ele>
        <time>2022-10-29T14:04:11.000Z</time>
      </trkpt>
      <trkpt lat="47.36684" lon="3.97921">
        <ele>402</ele>
        <time>2022-10-29T14:04:12.000Z</time>
      </trkpt>
      <trkpt lat="47.36687" lon="3.97944">
        <ele>402.20001220703</ele>
        <time>2022-10-29T14:04:15.000Z</time>
      </trkpt>
      <trkpt lat="47.36688" lon="3.97953">
        <ele>402.20001220703</ele>
        <time>2022-10-29T14:04:16.000Z</time>
      </trkpt>
      <trkpt lat="47.36679" lon="3.98006">
        <ele>402.20001220703</ele>
        <time>2022-10-29T14:04:22.000Z</time>
      </trkpt>
      <trkpt lat="47.3666" lon="3.98081">
        <ele>402.39999389648</ele>
        <time>2022-10-29T14:04:31.000Z</time>
      </trkpt>
      <trkpt lat="47.3666" lon="3.98081">
        <ele>402.60000610352</ele>
        <time>2022-10-29T14:04:32.000Z</time>
      </trkpt>
      <trkpt lat="47.36644" lon="3.98154">
        <ele>402.60000610352</ele>
        <time>2022-10-29T14:04:40.000Z</time>
      </trkpt>
      <trkpt lat="47.36637" lon="3.98187">
        <ele>402.79998779297</ele>
        <time>2022-10-29T14:04:44.000Z</time>
      </trkpt>
      <trkpt lat="47.36635" lon="3.98193">
        <ele>402.79998779297</ele>
        <time>2022-10-29T14:04:45.000Z</time>
      </trkpt>
      <trkpt lat="47.36624" lon="3.98234">
        <ele>403.20001220703</ele>
        <time>2022-10-29T14:04:51.000Z</time>
      </trkpt>
      <trkpt lat="47.36621" lon="3.98253">
        <ele>403.60000610352</ele>
        <time>2022-10-29T14:04:54.000Z</time>
      </trkpt>
      <trkpt lat="47.36614" lon="3.9828">
        <ele>404.60000610352</ele>
        <time>2022-10-29T14:04:59.000Z</time>
      </trkpt>
      <trkpt lat="47.36613" lon="3.98286">
        <ele>404.60000610352</ele>
        <time>2022-10-29T14:05:00.000Z</time>
      </trkpt>
      <trkpt lat="47.36611" lon="3.98291">
        <ele>404.79998779297</ele>
        <time>2022-10-29T14:05:01.000Z</time>
      </trkpt>
      <trkpt lat="47.36606" lon="3.98315">
        <ele>405.79998779297</ele>
        <time>2022-10-29T14:05:05.000Z</time>
      </trkpt>
      <trkpt lat="47.36603" lon="3.98326">
        <ele>406.39999389648</ele>
        <time>2022-10-29T14:05:07.000Z</time>
      </trkpt>
      <trkpt lat="47.36599" lon="3.98344">
        <ele>407</ele>
        <time>2022-10-29T14:05:10.000Z</time>
      </trkpt>
      <trkpt lat="47.36594" lon="3.98366">
        <ele>408.20001220703</ele>
        <time>2022-10-29T14:05:14.000Z</time>
      </trkpt>
      <trkpt lat="47.36588" lon="3.98394">
        <ele>409.39999389648</ele>
        <time>2022-10-29T14:05:19.000Z</time>
      </trkpt>
      <trkpt lat="47.36582" lon="3.98417">
        <ele>410.39999389648</ele>
        <time>2022-10-29T14:05:23.000Z</time>
      </trkpt>
      <trkpt lat="47.36576" lon="3.98445">
        <ele>411.39999389648</ele>
        <time>2022-10-29T14:05:28.000Z</time>
      </trkpt>
      <trkpt lat="47.36576" lon="3.98445">
        <ele>411.39999389648</ele>
        <time>2022-10-29T14:05:29.000Z</time>
      </trkpt>
      <trkpt lat="47.36572" lon="3.98479">
        <ele>412.39999389648</ele>
        <time>2022-10-29T14:05:34.000Z</time>
      </trkpt>
      <trkpt lat="47.36572" lon="3.98485">
        <ele>412.60000610352</ele>
        <time>2022-10-29T14:05:35.000Z</time>
      </trkpt>
      <trkpt lat="47.36572" lon="3.98492">
        <ele>412.79998779297</ele>
        <time>2022-10-29T14:05:36.000Z</time>
      </trkpt>
      <trkpt lat="47.36577" lon="3.98538">
        <ele>413.39999389648</ele>
        <time>2022-10-29T14:05:44.000Z</time>
      </trkpt>
      <trkpt lat="47.36579" lon="3.98544">
        <ele>413.60000610352</ele>
        <time>2022-10-29T14:05:45.000Z</time>
      </trkpt>
      <trkpt lat="47.36594" lon="3.98604">
        <ele>414.60000610352</ele>
        <time>2022-10-29T14:05:56.000Z</time>
      </trkpt>
      <trkpt lat="47.36597" lon="3.98616">
        <ele>414.79998779297</ele>
        <time>2022-10-29T14:05:58.000Z</time>
      </trkpt>
      <trkpt lat="47.36611" lon="3.98667">
        <ele>415.39999389648</ele>
        <time>2022-10-29T14:06:07.000Z</time>
      </trkpt>
      <trkpt lat="47.36615" lon="3.98697">
        <ele>415.79998779297</ele>
        <time>2022-10-29T14:06:13.000Z</time>
      </trkpt>
      <trkpt lat="47.36615" lon="3.98701">
        <ele>416</ele>
        <time>2022-10-29T14:06:15.000Z</time>
      </trkpt>
      <trkpt lat="47.36614" lon="3.98736">
        <ele>416.79998779297</ele>
        <time>2022-10-29T14:06:21.000Z</time>
      </trkpt>
      <trkpt lat="47.36614" lon="3.9875">
        <ele>417.20001220703</ele>
        <time>2022-10-29T14:06:24.000Z</time>
      </trkpt>
      <trkpt lat="47.36614" lon="3.98768">
        <ele>417.79998779297</ele>
        <time>2022-10-29T14:06:28.000Z</time>
      </trkpt>
      <trkpt lat="47.36613" lon="3.9878">
        <ele>418.39999389648</ele>
        <time>2022-10-29T14:06:31.000Z</time>
      </trkpt>
      <trkpt lat="47.36613" lon="3.98792">
        <ele>419</ele>
        <time>2022-10-29T14:06:34.000Z</time>
      </trkpt>
      <trkpt lat="47.36614" lon="3.98805">
        <ele>419.60000610352</ele>
        <time>2022-10-29T14:06:37.000Z</time>
      </trkpt>
      <trkpt lat="47.36613" lon="3.98819">
        <ele>420.20001220703</ele>
        <time>2022-10-29T14:06:41.000Z</time>
      </trkpt>
      <trkpt lat="47.36608" lon="3.98839">
        <ele>421</ele>
        <time>2022-10-29T14:06:45.000Z</time>
      </trkpt>
      <trkpt lat="47.36605" lon="3.98845">
        <ele>421.39999389648</ele>
        <time>2022-10-29T14:06:47.000Z</time>
      </trkpt>
      <trkpt lat="47.36596" lon="3.98857">
        <ele>422.39999389648</ele>
        <time>2022-10-29T14:06:51.000Z</time>
      </trkpt>
      <trkpt lat="47.36593" lon="3.98859">
        <ele>422.60000610352</ele>
        <time>2022-10-29T14:06:52.000Z</time>
      </trkpt>
      <trkpt lat="47.36577" lon="3.98869">
        <ele>423.39999389648</ele>
        <time>2022-10-29T14:06:58.000Z</time>
      </trkpt>
      <trkpt lat="47.36572" lon="3.98871">
        <ele>423.79998779297</ele>
        <time>2022-10-29T14:07:00.000Z</time>
      </trkpt>
      <trkpt lat="47.36561" lon="3.98876">
        <ele>424.60000610352</ele>
        <time>2022-10-29T14:07:04.000Z</time>
      </trkpt>
      <trkpt lat="47.36558" lon="3.98877">
        <ele>424.79998779297</ele>
        <time>2022-10-29T14:07:05.000Z</time>
      </trkpt>
      <trkpt lat="47.3654" lon="3.9889">
        <ele>426</ele>
        <time>2022-10-29T14:07:12.000Z</time>
      </trkpt>
      <trkpt lat="47.3654" lon="3.9889">
        <ele>426</ele>
        <time>2022-10-29T14:07:13.000Z</time>
      </trkpt>
      <trkpt lat="47.36529" lon="3.98905">
        <ele>427.20001220703</ele>
        <time>2022-10-29T14:07:19.000Z</time>
      </trkpt>
      <trkpt lat="47.36523" lon="3.98915">
        <ele>427.39999389648</ele>
        <time>2022-10-29T14:07:21.000Z</time>
      </trkpt>
      <trkpt lat="47.36516" lon="3.98941">
        <ele>428.20001220703</ele>
        <time>2022-10-29T14:07:28.000Z</time>
      </trkpt>
      <trkpt lat="47.36516" lon="3.98963">
        <ele>429.20001220703</ele>
        <time>2022-10-29T14:07:33.000Z</time>
      </trkpt>
      <trkpt lat="47.36515" lon="3.98967">
        <ele>429.39999389648</ele>
        <time>2022-10-29T14:07:34.000Z</time>
      </trkpt>
      <trkpt lat="47.36515" lon="3.98983">
        <ele>430.20001220703</ele>
        <time>2022-10-29T14:07:38.000Z</time>
      </trkpt>
      <trkpt lat="47.36515" lon="3.99">
        <ele>431</ele>
        <time>2022-10-29T14:07:42.000Z</time>
      </trkpt>
      <trkpt lat="47.36514" lon="3.9902">
        <ele>431.60000610352</ele>
        <time>2022-10-29T14:07:47.000Z</time>
      </trkpt>
      <trkpt lat="47.36514" lon="3.99032">
        <ele>432</ele>
        <time>2022-10-29T14:07:50.000Z</time>
      </trkpt>
      <trkpt lat="47.36514" lon="3.99044">
        <ele>432.60000610352</ele>
        <time>2022-10-29T14:07:53.000Z</time>
      </trkpt>
      <trkpt lat="47.36513" lon="3.99065">
        <ele>433.39999389648</ele>
        <time>2022-10-29T14:07:58.000Z</time>
      </trkpt>
      <trkpt lat="47.36513" lon="3.99069">
        <ele>433.79998779297</ele>
        <time>2022-10-29T14:07:59.000Z</time>
      </trkpt>
      <trkpt lat="47.36512" lon="3.99093">
        <ele>434.79998779297</ele>
        <time>2022-10-29T14:08:05.000Z</time>
      </trkpt>
      <trkpt lat="47.36512" lon="3.99097">
        <ele>435.20001220703</ele>
        <time>2022-10-29T14:08:06.000Z</time>
      </trkpt>
      <trkpt lat="47.36511" lon="3.9912">
        <ele>436</ele>
        <time>2022-10-29T14:08:12.000Z</time>
      </trkpt>
      <trkpt lat="47.3651" lon="3.99131">
        <ele>436.20001220703</ele>
        <time>2022-10-29T14:08:15.000Z</time>
      </trkpt>
      <trkpt lat="47.36508" lon="3.99151">
        <ele>437</ele>
        <time>2022-10-29T14:08:20.000Z</time>
      </trkpt>
      <trkpt lat="47.36508" lon="3.99158">
        <ele>437.20001220703</ele>
        <time>2022-10-29T14:08:22.000Z</time>
      </trkpt>
      <trkpt lat="47.36504" lon="3.99176">
        <ele>438.20001220703</ele>
        <time>2022-10-29T14:08:27.000Z</time>
      </trkpt>
      <trkpt lat="47.36501" lon="3.99187">
        <ele>438.60000610352</ele>
        <time>2022-10-29T14:08:30.000Z</time>
      </trkpt>
      <trkpt lat="47.36497" lon="3.99204">
        <ele>439.20001220703</ele>
        <time>2022-10-29T14:08:35.000Z</time>
      </trkpt>
      <trkpt lat="47.36496" lon="3.99207">
        <ele>439.39999389648</ele>
        <time>2022-10-29T14:08:36.000Z</time>
      </trkpt>
      <trkpt lat="47.36489" lon="3.99224">
        <ele>440.39999389648</ele>
        <time>2022-10-29T14:08:41.000Z</time>
      </trkpt>
      <trkpt lat="47.36482" lon="3.9924">
        <ele>441</ele>
        <time>2022-10-29T14:08:46.000Z</time>
      </trkpt>
      <trkpt lat="47.36476" lon="3.99249">
        <ele>441.39999389648</ele>
        <time>2022-10-29T14:08:49.000Z</time>
      </trkpt>
      <trkpt lat="47.36469" lon="3.99262">
        <ele>442.20001220703</ele>
        <time>2022-10-29T14:08:54.000Z</time>
      </trkpt>
      <trkpt lat="47.36466" lon="3.99268">
        <ele>442.39999389648</ele>
        <time>2022-10-29T14:08:56.000Z</time>
      </trkpt>
      <trkpt lat="47.3646" lon="3.99279">
        <ele>443.60000610352</ele>
        <time>2022-10-29T14:09:00.000Z</time>
      </trkpt>
      <trkpt lat="47.36456" lon="3.99285">
        <ele>444.20001220703</ele>
        <time>2022-10-29T14:09:02.000Z</time>
      </trkpt>
      <trkpt lat="47.36452" lon="3.99293">
        <ele>444.79998779297</ele>
        <time>2022-10-29T14:09:06.000Z</time>
      </trkpt>
      <trkpt lat="47.36445" lon="3.99307">
        <ele>445.39999389648</ele>
        <time>2022-10-29T14:09:10.000Z</time>
      </trkpt>
      <trkpt lat="47.36443" lon="3.99313">
        <ele>446</ele>
        <time>2022-10-29T14:09:12.000Z</time>
      </trkpt>
      <trkpt lat="47.36438" lon="3.99328">
        <ele>447</ele>
        <time>2022-10-29T14:09:17.000Z</time>
      </trkpt>
      <trkpt lat="47.36438" lon="3.99331">
        <ele>447.39999389648</ele>
        <time>2022-10-29T14:09:18.000Z</time>
      </trkpt>
      <trkpt lat="47.36437" lon="3.99347">
        <ele>448.20001220703</ele>
        <time>2022-10-29T14:09:23.000Z</time>
      </trkpt>
      <trkpt lat="47.36437" lon="3.9935">
        <ele>448.20001220703</ele>
        <time>2022-10-29T14:09:24.000Z</time>
      </trkpt>
      <trkpt lat="47.36436" lon="3.99379">
        <ele>449</ele>
        <time>2022-10-29T14:09:31.000Z</time>
      </trkpt>
      <trkpt lat="47.36436" lon="3.99386">
        <ele>449.39999389648</ele>
        <time>2022-10-29T14:09:34.000Z</time>
      </trkpt>
      <trkpt lat="47.36435" lon="3.99403">
        <ele>449.79998779297</ele>
        <time>2022-10-29T14:09:37.000Z</time>
      </trkpt>
      <trkpt lat="47.36435" lon="3.99424">
        <ele>450.60000610352</ele>
        <time>2022-10-29T14:09:42.000Z</time>
      </trkpt>
      <trkpt lat="47.36433" lon="3.99445">
        <ele>451.60000610352</ele>
        <time>2022-10-29T14:09:47.000Z</time>
      </trkpt>
      <trkpt lat="47.36434" lon="3.9946">
        <ele>452.20001220703</ele>
        <time>2022-10-29T14:09:50.000Z</time>
      </trkpt>
      <trkpt lat="47.36436" lon="3.99471">
        <ele>452.60000610352</ele>
        <time>2022-10-29T14:09:53.000Z</time>
      </trkpt>
      <trkpt lat="47.36437" lon="3.99487">
        <ele>453.20001220703</ele>
        <time>2022-10-29T14:09:57.000Z</time>
      </trkpt>
      <trkpt lat="47.36438" lon="3.995">
        <ele>453.79998779297</ele>
        <time>2022-10-29T14:10:00.000Z</time>
      </trkpt>
      <trkpt lat="47.36442" lon="3.99517">
        <ele>454.60000610352</ele>
        <time>2022-10-29T14:10:04.000Z</time>
      </trkpt>
      <trkpt lat="47.36447" lon="3.99523">
        <ele>455.20001220703</ele>
        <time>2022-10-29T14:10:07.000Z</time>
      </trkpt>
      <trkpt lat="47.36456" lon="3.99533">
        <ele>455.79998779297</ele>
        <time>2022-10-29T14:10:10.000Z</time>
      </trkpt>
      <trkpt lat="47.36469" lon="3.99538">
        <ele>456.20001220703</ele>
        <time>2022-10-29T14:10:15.000Z</time>
      </trkpt>
      <trkpt lat="47.36475" lon="3.99538">
        <ele>456.60000610352</ele>
        <time>2022-10-29T14:10:17.000Z</time>
      </trkpt>
      <trkpt lat="47.36489" lon="3.99533">
        <ele>457.39999389648</ele>
        <time>2022-10-29T14:10:22.000Z</time>
      </trkpt>
      <trkpt lat="47.36492" lon="3.99533">
        <ele>457.39999389648</ele>
        <time>2022-10-29T14:10:23.000Z</time>
      </trkpt>
      <trkpt lat="47.36516" lon="3.99524">
        <ele>458.39999389648</ele>
        <time>2022-10-29T14:10:32.000Z</time>
      </trkpt>
      <trkpt lat="47.36528" lon="3.99519">
        <ele>459.39999389648</ele>
        <time>2022-10-29T14:10:37.000Z</time>
      </trkpt>
      <trkpt lat="47.36533" lon="3.99517">
        <ele>459.79998779297</ele>
        <time>2022-10-29T14:10:40.000Z</time>
      </trkpt>
      <trkpt lat="47.36533" lon="3.99517">
        <ele>460</ele>
        <time>2022-10-29T14:10:44.000Z</time>
      </trkpt>
      <trkpt lat="47.36533" lon="3.99517">
        <ele>460.39999389648</ele>
        <time>2022-10-29T14:10:52.000Z</time>
      </trkpt>
      <trkpt lat="47.36533" lon="3.99517">
        <ele>460.39999389648</ele>
        <time>2022-10-29T14:11:27.000Z</time>
      </trkpt>
      <trkpt lat="47.36533" lon="3.99517">
        <ele>460.39999389648</ele>
        <time>2022-10-29T14:11:43.000Z</time>
      </trkpt>
      <trkpt lat="47.36534" lon="3.99517">
        <ele>460.79998779297</ele>
        <time>2022-10-29T14:11:58.000Z</time>
      </trkpt>
      <trkpt lat="47.3654" lon="3.99515">
        <ele>460.79998779297</ele>
        <time>2022-10-29T14:12:40.000Z</time>
      </trkpt>
      <trkpt lat="47.36542" lon="3.99514">
        <ele>461</ele>
        <time>2022-10-29T14:12:44.000Z</time>
      </trkpt>
      <trkpt lat="47.36542" lon="3.99514">
        <ele>461.20001220703</ele>
        <time>2022-10-29T14:12:48.000Z</time>
      </trkpt>
      <trkpt lat="47.36542" lon="3.99514">
        <ele>461.39999389648</ele>
        <time>2022-10-29T14:13:02.000Z</time>
      </trkpt>
      <trkpt lat="47.36544" lon="3.99513">
        <ele>461.39999389648</ele>
        <time>2022-10-29T14:13:03.000Z</time>
      </trkpt>
      <trkpt lat="47.36549" lon="3.99513">
        <ele>461.39999389648</ele>
        <time>2022-10-29T14:13:05.000Z</time>
      </trkpt>
      <trkpt lat="47.36559" lon="3.99513">
        <ele>461.60000610352</ele>
        <time>2022-10-29T14:13:09.000Z</time>
      </trkpt>
      <trkpt lat="47.36578" lon="3.99517">
        <ele>462.39999389648</ele>
        <time>2022-10-29T14:13:15.000Z</time>
      </trkpt>
      <trkpt lat="47.36586" lon="3.99522">
        <ele>462.79998779297</ele>
        <time>2022-10-29T14:13:17.000Z</time>
      </trkpt>
      <trkpt lat="47.36594" lon="3.99528">
        <ele>463.60000610352</ele>
        <time>2022-10-29T14:13:20.000Z</time>
      </trkpt>
      <trkpt lat="47.36607" lon="3.99535">
        <ele>464.39999389648</ele>
        <time>2022-10-29T14:13:24.000Z</time>
      </trkpt>
      <trkpt lat="47.3661" lon="3.99537">
        <ele>464.79998779297</ele>
        <time>2022-10-29T14:13:25.000Z</time>
      </trkpt>
      <trkpt lat="47.3663" lon="3.99548">
        <ele>465.79998779297</ele>
        <time>2022-10-29T14:13:32.000Z</time>
      </trkpt>
      <trkpt lat="47.36637" lon="3.99551">
        <ele>466.39999389648</ele>
        <time>2022-10-29T14:13:35.000Z</time>
      </trkpt>
      <trkpt lat="47.36641" lon="3.99555">
        <ele>466.79998779297</ele>
        <time>2022-10-29T14:13:36.000Z</time>
      </trkpt>
      <trkpt lat="47.36652" lon="3.99564">
        <ele>468.20001220703</ele>
        <time>2022-10-29T14:13:41.000Z</time>
      </trkpt>
      <trkpt lat="47.36655" lon="3.99567">
        <ele>468.39999389648</ele>
        <time>2022-10-29T14:13:42.000Z</time>
      </trkpt>
      <trkpt lat="47.36669" lon="3.99574">
        <ele>469.20001220703</ele>
        <time>2022-10-29T14:13:46.000Z</time>
      </trkpt>
      <trkpt lat="47.36678" lon="3.99578">
        <ele>469.60000610352</ele>
        <time>2022-10-29T14:13:49.000Z</time>
      </trkpt>
      <trkpt lat="47.36686" lon="3.99584">
        <ele>470.39999389648</ele>
        <time>2022-10-29T14:13:52.000Z</time>
      </trkpt>
      <trkpt lat="47.36703" lon="3.99591">
        <ele>471.39999389648</ele>
        <time>2022-10-29T14:13:57.000Z</time>
      </trkpt>
      <trkpt lat="47.36709" lon="3.99591">
        <ele>471.60000610352</ele>
        <time>2022-10-29T14:13:59.000Z</time>
      </trkpt>
      <trkpt lat="47.36716" lon="3.99594">
        <ele>472</ele>
        <time>2022-10-29T14:14:01.000Z</time>
      </trkpt>
      <trkpt lat="47.36726" lon="3.99597">
        <ele>472.39999389648</ele>
        <time>2022-10-29T14:14:04.000Z</time>
      </trkpt>
      <trkpt lat="47.36732" lon="3.99601">
        <ele>473</ele>
        <time>2022-10-29T14:14:07.000Z</time>
      </trkpt>
      <trkpt lat="47.36747" lon="3.99613">
        <ele>473.39999389648</ele>
        <time>2022-10-29T14:14:12.000Z</time>
      </trkpt>
      <trkpt lat="47.3675" lon="3.99615">
        <ele>473.60000610352</ele>
        <time>2022-10-29T14:14:13.000Z</time>
      </trkpt>
      <trkpt lat="47.36763" lon="3.99625">
        <ele>474.60000610352</ele>
        <time>2022-10-29T14:14:18.000Z</time>
      </trkpt>
      <trkpt lat="47.36774" lon="3.99634">
        <ele>475</ele>
        <time>2022-10-29T14:14:22.000Z</time>
      </trkpt>
      <trkpt lat="47.36786" lon="3.99648">
        <ele>475.60000610352</ele>
        <time>2022-10-29T14:14:26.000Z</time>
      </trkpt>
      <trkpt lat="47.36789" lon="3.99652">
        <ele>475.79998779297</ele>
        <time>2022-10-29T14:14:27.000Z</time>
      </trkpt>
      <trkpt lat="47.36808" lon="3.99679">
        <ele>476.79998779297</ele>
        <time>2022-10-29T14:14:34.000Z</time>
      </trkpt>
      <trkpt lat="47.36821" lon="3.99702">
        <ele>477.39999389648</ele>
        <time>2022-10-29T14:14:40.000Z</time>
      </trkpt>
      <trkpt lat="47.36833" lon="3.99724">
        <ele>477.60000610352</ele>
        <time>2022-10-29T14:14:46.000Z</time>
      </trkpt>
      <trkpt lat="47.36834" lon="3.99725">
        <ele>477.60000610352</ele>
        <time>2022-10-29T14:14:49.000Z</time>
      </trkpt>
      <trkpt lat="47.36834" lon="3.99725">
        <ele>477.79998779297</ele>
        <time>2022-10-29T14:15:11.000Z</time>
      </trkpt>
      <trkpt lat="47.36834" lon="3.99725">
        <ele>477.79998779297</ele>
        <time>2022-10-29T14:15:12.000Z</time>
      </trkpt>
      <trkpt lat="47.36837" lon="3.99731">
        <ele>478.20001220703</ele>
        <time>2022-10-29T14:16:02.000Z</time>
      </trkpt>
      <trkpt lat="47.36838" lon="3.99733">
        <ele>478.20001220703</ele>
        <time>2022-10-29T14:16:03.000Z</time>
      </trkpt>
      <trkpt lat="47.36841" lon="3.99737">
        <ele>478.20001220703</ele>
        <time>2022-10-29T14:16:05.000Z</time>
      </trkpt>
      <trkpt lat="47.36843" lon="3.99742">
        <ele>478.20001220703</ele>
        <time>2022-10-29T14:16:07.000Z</time>
      </trkpt>
      <trkpt lat="47.36845" lon="3.99761">
        <ele>478.39999389648</ele>
        <time>2022-10-29T14:16:13.000Z</time>
      </trkpt>
      <trkpt lat="47.3684" lon="3.99778">
        <ele>478.39999389648</ele>
        <time>2022-10-29T14:16:17.000Z</time>
      </trkpt>
      <trkpt lat="47.36828" lon="3.99815">
        <ele>477.60000610352</ele>
        <time>2022-10-29T14:16:23.000Z</time>
      </trkpt>
      <trkpt lat="47.36818" lon="3.99849">
        <ele>476.79998779297</ele>
        <time>2022-10-29T14:16:28.000Z</time>
      </trkpt>
      <trkpt lat="47.36811" lon="3.99871">
        <ele>476.39999389648</ele>
        <time>2022-10-29T14:16:31.000Z</time>
      </trkpt>
      <trkpt lat="47.36788" lon="3.99927">
        <ele>476</ele>
        <time>2022-10-29T14:16:40.000Z</time>
      </trkpt>
      <trkpt lat="47.36774" lon="3.99946">
        <ele>475.79998779297</ele>
        <time>2022-10-29T14:16:44.000Z</time>
      </trkpt>
      <trkpt lat="47.36758" lon="3.9996">
        <ele>475.79998779297</ele>
        <time>2022-10-29T14:16:48.000Z</time>
      </trkpt>
      <trkpt lat="47.36727" lon="3.99979">
        <ele>476.20001220703</ele>
        <time>2022-10-29T14:16:55.000Z</time>
      </trkpt>
      <trkpt lat="47.36688" lon="3.99992">
        <ele>476.79998779297</ele>
        <time>2022-10-29T14:17:04.000Z</time>
      </trkpt>
      <trkpt lat="47.3665" lon="4.00005">
        <ele>477.79998779297</ele>
        <time>2022-10-29T14:17:13.000Z</time>
      </trkpt>
      <trkpt lat="47.36647" lon="4.00007">
        <ele>477.79998779297</ele>
        <time>2022-10-29T14:17:14.000Z</time>
      </trkpt>
      <trkpt lat="47.36625" lon="4.00015">
        <ele>478</ele>
        <time>2022-10-29T14:17:19.000Z</time>
      </trkpt>
      <trkpt lat="47.36621" lon="4.00016">
        <ele>478.20001220703</ele>
        <time>2022-10-29T14:17:20.000Z</time>
      </trkpt>
      <trkpt lat="47.36591" lon="4.00027">
        <ele>478.79998779297</ele>
        <time>2022-10-29T14:17:28.000Z</time>
      </trkpt>
      <trkpt lat="47.36587" lon="4.00028">
        <ele>478.79998779297</ele>
        <time>2022-10-29T14:17:29.000Z</time>
      </trkpt>
      <trkpt lat="47.36551" lon="4.0004">
        <ele>479.39999389648</ele>
        <time>2022-10-29T14:17:39.000Z</time>
      </trkpt>
      <trkpt lat="47.36537" lon="4.00045">
        <ele>479.79998779297</ele>
        <time>2022-10-29T14:17:43.000Z</time>
      </trkpt>
      <trkpt lat="47.36514" lon="4.00052">
        <ele>480.20001220703</ele>
        <time>2022-10-29T14:17:49.000Z</time>
      </trkpt>
      <trkpt lat="47.36492" lon="4.00059">
        <ele>480.79998779297</ele>
        <time>2022-10-29T14:17:55.000Z</time>
      </trkpt>
      <trkpt lat="47.36477" lon="4.00064">
        <ele>481</ele>
        <time>2022-10-29T14:17:59.000Z</time>
      </trkpt>
      <trkpt lat="47.36441" lon="4.00081">
        <ele>481.60000610352</ele>
        <time>2022-10-29T14:18:08.000Z</time>
      </trkpt>
      <trkpt lat="47.36412" lon="4.00108">
        <ele>481.79998779297</ele>
        <time>2022-10-29T14:18:16.000Z</time>
      </trkpt>
      <trkpt lat="47.36394" lon="4.00125">
        <ele>482</ele>
        <time>2022-10-29T14:18:21.000Z</time>
      </trkpt>
      <trkpt lat="47.36378" lon="4.00146">
        <ele>482.39999389648</ele>
        <time>2022-10-29T14:18:26.000Z</time>
      </trkpt>
      <trkpt lat="47.36347" lon="4.00194">
        <ele>482.60000610352</ele>
        <time>2022-10-29T14:18:35.000Z</time>
      </trkpt>
      <trkpt lat="47.36322" lon="4.00246">
        <ele>482.20001220703</ele>
        <time>2022-10-29T14:18:43.000Z</time>
      </trkpt>
      <trkpt lat="47.36299" lon="4.00296">
        <ele>481.60000610352</ele>
        <time>2022-10-29T14:18:50.000Z</time>
      </trkpt>
      <trkpt lat="47.3628" lon="4.00337">
        <ele>480.79998779297</ele>
        <time>2022-10-29T14:18:55.000Z</time>
      </trkpt>
      <trkpt lat="47.36273" lon="4.00353">
        <ele>480.60000610352</ele>
        <time>2022-10-29T14:18:57.000Z</time>
      </trkpt>
      <trkpt lat="47.3624" lon="4.00426">
        <ele>479.60000610352</ele>
        <time>2022-10-29T14:19:06.000Z</time>
      </trkpt>
      <trkpt lat="47.36236" lon="4.00435">
        <ele>479.39999389648</ele>
        <time>2022-10-29T14:19:07.000Z</time>
      </trkpt>
      <trkpt lat="47.36219" lon="4.00467">
        <ele>479</ele>
        <time>2022-10-29T14:19:11.000Z</time>
      </trkpt>
      <trkpt lat="47.36205" lon="4.00486">
        <ele>478.60000610352</ele>
        <time>2022-10-29T14:19:14.000Z</time>
      </trkpt>
      <trkpt lat="47.36201" lon="4.00492">
        <ele>478.39999389648</ele>
        <time>2022-10-29T14:19:15.000Z</time>
      </trkpt>
      <trkpt lat="47.36179" lon="4.00513">
        <ele>478.20001220703</ele>
        <time>2022-10-29T14:19:19.000Z</time>
      </trkpt>
      <trkpt lat="47.36139" lon="4.00545">
        <ele>478.20001220703</ele>
        <time>2022-10-29T14:19:26.000Z</time>
      </trkpt>
      <trkpt lat="47.36104" lon="4.0056">
        <ele>477.60000610352</ele>
        <time>2022-10-29T14:19:32.000Z</time>
      </trkpt>
      <trkpt lat="47.36066" lon="4.00567">
        <ele>478.20001220703</ele>
        <time>2022-10-29T14:19:39.000Z</time>
      </trkpt>
      <trkpt lat="47.36037" lon="4.00568">
        <ele>479</ele>
        <time>2022-10-29T14:19:46.000Z</time>
      </trkpt>
      <trkpt lat="47.36023" lon="4.00569">
        <ele>479.79998779297</ele>
        <time>2022-10-29T14:19:50.000Z</time>
      </trkpt>
      <trkpt lat="47.36012" lon="4.00569">
        <ele>480.39999389648</ele>
        <time>2022-10-29T14:19:53.000Z</time>
      </trkpt>
      <trkpt lat="47.36006" lon="4.00569">
        <ele>480.79998779297</ele>
        <time>2022-10-29T14:19:55.000Z</time>
      </trkpt>
      <trkpt lat="47.35983" lon="4.00569">
        <ele>481.60000610352</ele>
        <time>2022-10-29T14:20:02.000Z</time>
      </trkpt>
      <trkpt lat="47.35978" lon="4.00569">
        <ele>482.20001220703</ele>
        <time>2022-10-29T14:20:04.000Z</time>
      </trkpt>
      <trkpt lat="47.35955" lon="4.0057">
        <ele>483.20001220703</ele>
        <time>2022-10-29T14:20:11.000Z</time>
      </trkpt>
      <trkpt lat="47.35952" lon="4.0057">
        <ele>483.39999389648</ele>
        <time>2022-10-29T14:20:12.000Z</time>
      </trkpt>
      <trkpt lat="47.35942" lon="4.00571">
        <ele>484.39999389648</ele>
        <time>2022-10-29T14:20:16.000Z</time>
      </trkpt>
      <trkpt lat="47.35939" lon="4.00571">
        <ele>484.60000610352</ele>
        <time>2022-10-29T14:20:17.000Z</time>
      </trkpt>
      <trkpt lat="47.35929" lon="4.00571">
        <ele>485.39999389648</ele>
        <time>2022-10-29T14:20:21.000Z</time>
      </trkpt>
      <trkpt lat="47.35915" lon="4.00572">
        <ele>486.79998779297</ele>
        <time>2022-10-29T14:20:27.000Z</time>
      </trkpt>
      <trkpt lat="47.35899" lon="4.00573">
        <ele>487.79998779297</ele>
        <time>2022-10-29T14:20:34.000Z</time>
      </trkpt>
      <trkpt lat="47.35892" lon="4.00573">
        <ele>488.20001220703</ele>
        <time>2022-10-29T14:20:37.000Z</time>
      </trkpt>
      <trkpt lat="47.35883" lon="4.00573">
        <ele>488.79998779297</ele>
        <time>2022-10-29T14:20:41.000Z</time>
      </trkpt>
      <trkpt lat="47.35878" lon="4.00573">
        <ele>489</ele>
        <time>2022-10-29T14:20:43.000Z</time>
      </trkpt>
      <trkpt lat="47.35876" lon="4.00573">
        <ele>489.20001220703</ele>
        <time>2022-10-29T14:20:44.000Z</time>
      </trkpt>
      <trkpt lat="47.35868" lon="4.00573">
        <ele>490</ele>
        <time>2022-10-29T14:20:48.000Z</time>
      </trkpt>
      <trkpt lat="47.35854" lon="4.00569">
        <ele>490.79998779297</ele>
        <time>2022-10-29T14:20:54.000Z</time>
      </trkpt>
      <trkpt lat="47.3585" lon="4.00568">
        <ele>491.20001220703</ele>
        <time>2022-10-29T14:20:56.000Z</time>
      </trkpt>
      <trkpt lat="47.35842" lon="4.00566">
        <ele>492.20001220703</ele>
        <time>2022-10-29T14:21:00.000Z</time>
      </trkpt>
      <trkpt lat="47.35838" lon="4.00565">
        <ele>492.60000610352</ele>
        <time>2022-10-29T14:21:02.000Z</time>
      </trkpt>
      <trkpt lat="47.35828" lon="4.0056">
        <ele>493.39999389648</ele>
        <time>2022-10-29T14:21:07.000Z</time>
      </trkpt>
      <trkpt lat="47.35824" lon="4.00558">
        <ele>493.60000610352</ele>
        <time>2022-10-29T14:21:09.000Z</time>
      </trkpt>
      <trkpt lat="47.35818" lon="4.00556">
        <ele>494.39999389648</ele>
        <time>2022-10-29T14:21:12.000Z</time>
      </trkpt>
      <trkpt lat="47.35808" lon="4.00553">
        <ele>494.79998779297</ele>
        <time>2022-10-29T14:21:16.000Z</time>
      </trkpt>
      <trkpt lat="47.35798" lon="4.00548">
        <ele>495.60000610352</ele>
        <time>2022-10-29T14:21:21.000Z</time>
      </trkpt>
      <trkpt lat="47.35792" lon="4.00547">
        <ele>496.60000610352</ele>
        <time>2022-10-29T14:21:24.000Z</time>
      </trkpt>
      <trkpt lat="47.3579" lon="4.00546">
        <ele>496.60000610352</ele>
        <time>2022-10-29T14:21:25.000Z</time>
      </trkpt>
      <trkpt lat="47.3578" lon="4.00544">
        <ele>497.79998779297</ele>
        <time>2022-10-29T14:21:30.000Z</time>
      </trkpt>
      <trkpt lat="47.35776" lon="4.00542">
        <ele>498</ele>
        <time>2022-10-29T14:21:32.000Z</time>
      </trkpt>
      <trkpt lat="47.35768" lon="4.0054">
        <ele>498.79998779297</ele>
        <time>2022-10-29T14:21:36.000Z</time>
      </trkpt>
      <trkpt lat="47.35757" lon="4.00538">
        <ele>499.79998779297</ele>
        <time>2022-10-29T14:21:41.000Z</time>
      </trkpt>
      <trkpt lat="47.35755" lon="4.00537">
        <ele>500</ele>
        <time>2022-10-29T14:21:42.000Z</time>
      </trkpt>
      <trkpt lat="47.35744" lon="4.00535">
        <ele>501</ele>
        <time>2022-10-29T14:21:48.000Z</time>
      </trkpt>
      <trkpt lat="47.35742" lon="4.00535">
        <ele>501</ele>
        <time>2022-10-29T14:21:49.000Z</time>
      </trkpt>
      <trkpt lat="47.35728" lon="4.00532">
        <ele>502.20001220703</ele>
        <time>2022-10-29T14:21:56.000Z</time>
      </trkpt>
      <trkpt lat="47.35713" lon="4.00532">
        <ele>503.39999389648</ele>
        <time>2022-10-29T14:22:03.000Z</time>
      </trkpt>
      <trkpt lat="47.35705" lon="4.00532">
        <ele>503.79998779297</ele>
        <time>2022-10-29T14:22:06.000Z</time>
      </trkpt>
      <trkpt lat="47.35698" lon="4.00533">
        <ele>504.39999389648</ele>
        <time>2022-10-29T14:22:09.000Z</time>
      </trkpt>
      <trkpt lat="47.35689" lon="4.00533">
        <ele>505.60000610352</ele>
        <time>2022-10-29T14:22:13.000Z</time>
      </trkpt>
      <trkpt lat="47.35686" lon="4.00533">
        <ele>505.60000610352</ele>
        <time>2022-10-29T14:22:14.000Z</time>
      </trkpt>
      <trkpt lat="47.35671" lon="4.00535">
        <ele>506.60000610352</ele>
        <time>2022-10-29T14:22:21.000Z</time>
      </trkpt>
      <trkpt lat="47.35666" lon="4.00537">
        <ele>506.79998779297</ele>
        <time>2022-10-29T14:22:23.000Z</time>
      </trkpt>
      <trkpt lat="47.35656" lon="4.00539">
        <ele>507.79998779297</ele>
        <time>2022-10-29T14:22:29.000Z</time>
      </trkpt>
      <trkpt lat="47.35655" lon="4.00539">
        <ele>508</ele>
        <time>2022-10-29T14:22:30.000Z</time>
      </trkpt>
      <trkpt lat="47.35648" lon="4.00541">
        <ele>509</ele>
        <time>2022-10-29T14:22:34.000Z</time>
      </trkpt>
      <trkpt lat="47.35638" lon="4.00544">
        <ele>509.79998779297</ele>
        <time>2022-10-29T14:22:39.000Z</time>
      </trkpt>
      <trkpt lat="47.35634" lon="4.00544">
        <ele>510</ele>
        <time>2022-10-29T14:22:40.000Z</time>
      </trkpt>
      <trkpt lat="47.35624" lon="4.00547">
        <ele>511</ele>
        <time>2022-10-29T14:22:45.000Z</time>
      </trkpt>
      <trkpt lat="47.35616" lon="4.0055">
        <ele>511.39999389648</ele>
        <time>2022-10-29T14:22:49.000Z</time>
      </trkpt>
      <trkpt lat="47.35608" lon="4.00551">
        <ele>512.20001220703</ele>
        <time>2022-10-29T14:22:52.000Z</time>
      </trkpt>
      <trkpt lat="47.35595" lon="4.00556">
        <ele>512.79998779297</ele>
        <time>2022-10-29T14:22:56.000Z</time>
      </trkpt>
      <trkpt lat="47.35589" lon="4.00561">
        <ele>513.20001220703</ele>
        <time>2022-10-29T14:23:00.000Z</time>
      </trkpt>
      <trkpt lat="47.35583" lon="4.00562">
        <ele>513.79998779297</ele>
        <time>2022-10-29T14:23:02.000Z</time>
      </trkpt>
      <trkpt lat="47.35576" lon="4.00566">
        <ele>514.40002441406</ele>
        <time>2022-10-29T14:23:06.000Z</time>
      </trkpt>
      <trkpt lat="47.35566" lon="4.00571">
        <ele>514.79998779297</ele>
        <time>2022-10-29T14:23:10.000Z</time>
      </trkpt>
      <trkpt lat="47.35556" lon="4.00576">
        <ele>515.20001220703</ele>
        <time>2022-10-29T14:23:14.000Z</time>
      </trkpt>
      <trkpt lat="47.35546" lon="4.00582">
        <ele>515.59997558594</ele>
        <time>2022-10-29T14:23:17.000Z</time>
      </trkpt>
      <trkpt lat="47.35533" lon="4.00593">
        <ele>516.20001220703</ele>
        <time>2022-10-29T14:23:22.000Z</time>
      </trkpt>
      <trkpt lat="47.35531" lon="4.00594">
        <ele>516.59997558594</ele>
        <time>2022-10-29T14:23:23.000Z</time>
      </trkpt>
      <trkpt lat="47.35515" lon="4.00606">
        <ele>517.40002441406</ele>
        <time>2022-10-29T14:23:29.000Z</time>
      </trkpt>
      <trkpt lat="47.35495" lon="4.00626">
        <ele>518.40002441406</ele>
        <time>2022-10-29T14:23:37.000Z</time>
      </trkpt>
      <trkpt lat="47.35477" lon="4.00643">
        <ele>519.40002441406</ele>
        <time>2022-10-29T14:23:44.000Z</time>
      </trkpt>
      <trkpt lat="47.35471" lon="4.00648">
        <ele>519.59997558594</ele>
        <time>2022-10-29T14:23:46.000Z</time>
      </trkpt>
      <trkpt lat="47.35455" lon="4.00659">
        <ele>520.20001220703</ele>
        <time>2022-10-29T14:23:51.000Z</time>
      </trkpt>
      <trkpt lat="47.3545" lon="4.00665">
        <ele>520.40002441406</ele>
        <time>2022-10-29T14:23:53.000Z</time>
      </trkpt>
      <trkpt lat="47.35437" lon="4.00678">
        <ele>521.20001220703</ele>
        <time>2022-10-29T14:23:58.000Z</time>
      </trkpt>
      <trkpt lat="47.35432" lon="4.00684">
        <ele>521.40002441406</ele>
        <time>2022-10-29T14:24:00.000Z</time>
      </trkpt>
      <trkpt lat="47.35417" lon="4.00698">
        <ele>522.40002441406</ele>
        <time>2022-10-29T14:24:06.000Z</time>
      </trkpt>
      <trkpt lat="47.35416" lon="4.007">
        <ele>522.59997558594</ele>
        <time>2022-10-29T14:24:07.000Z</time>
      </trkpt>
      <trkpt lat="47.35404" lon="4.0071">
        <ele>523.59997558594</ele>
        <time>2022-10-29T14:24:12.000Z</time>
      </trkpt>
      <trkpt lat="47.35397" lon="4.00717">
        <ele>524.40002441406</ele>
        <time>2022-10-29T14:24:15.000Z</time>
      </trkpt>
      <trkpt lat="47.35391" lon="4.00721">
        <ele>524.79998779297</ele>
        <time>2022-10-29T14:24:17.000Z</time>
      </trkpt>
      <trkpt lat="47.3538" lon="4.0073">
        <ele>525.20001220703</ele>
        <time>2022-10-29T14:24:21.000Z</time>
      </trkpt>
      <trkpt lat="47.35372" lon="4.00739">
        <ele>526</ele>
        <time>2022-10-29T14:24:24.000Z</time>
      </trkpt>
      <trkpt lat="47.35364" lon="4.00747">
        <ele>526.79998779297</ele>
        <time>2022-10-29T14:24:27.000Z</time>
      </trkpt>
      <trkpt lat="47.35359" lon="4.00754">
        <ele>527.20001220703</ele>
        <time>2022-10-29T14:24:29.000Z</time>
      </trkpt>
      <trkpt lat="47.35352" lon="4.00762">
        <ele>527.40002441406</ele>
        <time>2022-10-29T14:24:32.000Z</time>
      </trkpt>
      <trkpt lat="47.35344" lon="4.0077">
        <ele>528.20001220703</ele>
        <time>2022-10-29T14:24:34.000Z</time>
      </trkpt>
      <trkpt lat="47.3533" lon="4.00786">
        <ele>529.20001220703</ele>
        <time>2022-10-29T14:24:39.000Z</time>
      </trkpt>
      <trkpt lat="47.35327" lon="4.00789">
        <ele>529.20001220703</ele>
        <time>2022-10-29T14:24:40.000Z</time>
      </trkpt>
      <trkpt lat="47.35314" lon="4.00799">
        <ele>530.40002441406</ele>
        <time>2022-10-29T14:24:45.000Z</time>
      </trkpt>
      <trkpt lat="47.35312" lon="4.00801">
        <ele>530.59997558594</ele>
        <time>2022-10-29T14:24:46.000Z</time>
      </trkpt>
      <trkpt lat="47.35304" lon="4.00808">
        <ele>531</ele>
        <time>2022-10-29T14:24:49.000Z</time>
      </trkpt>
      <trkpt lat="47.35297" lon="4.00813">
        <ele>531.40002441406</ele>
        <time>2022-10-29T14:24:51.000Z</time>
      </trkpt>
      <trkpt lat="47.35294" lon="4.00815">
        <ele>531.79998779297</ele>
        <time>2022-10-29T14:24:52.000Z</time>
      </trkpt>
      <trkpt lat="47.35283" lon="4.00824">
        <ele>532.79998779297</ele>
        <time>2022-10-29T14:24:57.000Z</time>
      </trkpt>
      <trkpt lat="47.35272" lon="4.00836">
        <ele>533.59997558594</ele>
        <time>2022-10-29T14:25:01.000Z</time>
      </trkpt>
      <trkpt lat="47.35269" lon="4.00836">
        <ele>533.79998779297</ele>
        <time>2022-10-29T14:25:02.000Z</time>
      </trkpt>
      <trkpt lat="47.35257" lon="4.00848">
        <ele>534.59997558594</ele>
        <time>2022-10-29T14:25:08.000Z</time>
      </trkpt>
      <trkpt lat="47.35251" lon="4.00855">
        <ele>535.40002441406</ele>
        <time>2022-10-29T14:25:12.000Z</time>
      </trkpt>
      <trkpt lat="47.35249" lon="4.00856">
        <ele>535.59997558594</ele>
        <time>2022-10-29T14:25:13.000Z</time>
      </trkpt>
      <trkpt lat="47.35235" lon="4.00868">
        <ele>536.79998779297</ele>
        <time>2022-10-29T14:25:19.000Z</time>
      </trkpt>
      <trkpt lat="47.35221" lon="4.00882">
        <ele>537.79998779297</ele>
        <time>2022-10-29T14:25:25.000Z</time>
      </trkpt>
      <trkpt lat="47.35219" lon="4.00884">
        <ele>538</ele>
        <time>2022-10-29T14:25:26.000Z</time>
      </trkpt>
      <trkpt lat="47.35201" lon="4.009">
        <ele>539</ele>
        <time>2022-10-29T14:25:33.000Z</time>
      </trkpt>
      <trkpt lat="47.35183" lon="4.00919">
        <ele>539.79998779297</ele>
        <time>2022-10-29T14:25:41.000Z</time>
      </trkpt>
      <trkpt lat="47.35159" lon="4.00942">
        <ele>541</ele>
        <time>2022-10-29T14:25:51.000Z</time>
      </trkpt>
      <trkpt lat="47.35134" lon="4.00964">
        <ele>541.79998779297</ele>
        <time>2022-10-29T14:25:58.000Z</time>
      </trkpt>
      <trkpt lat="47.35126" lon="4.0097">
        <ele>542</ele>
        <time>2022-10-29T14:26:00.000Z</time>
      </trkpt>
      <trkpt lat="47.35122" lon="4.00975">
        <ele>542.20001220703</ele>
        <time>2022-10-29T14:26:02.000Z</time>
      </trkpt>
      <trkpt lat="47.35106" lon="4.00991">
        <ele>543</ele>
        <time>2022-10-29T14:26:08.000Z</time>
      </trkpt>
      <trkpt lat="47.35101" lon="4.00996">
        <ele>543</ele>
        <time>2022-10-29T14:26:10.000Z</time>
      </trkpt>
      <trkpt lat="47.35091" lon="4.01005">
        <ele>543.20001220703</ele>
        <time>2022-10-29T14:26:13.000Z</time>
      </trkpt>
      <trkpt lat="47.35074" lon="4.01021">
        <ele>543.40002441406</ele>
        <time>2022-10-29T14:26:18.000Z</time>
      </trkpt>
      <trkpt lat="47.35043" lon="4.01052">
        <ele>543.59997558594</ele>
        <time>2022-10-29T14:26:26.000Z</time>
      </trkpt>
      <trkpt lat="47.35019" lon="4.01074">
        <ele>544</ele>
        <time>2022-10-29T14:26:31.000Z</time>
      </trkpt>
      <trkpt lat="47.35002" lon="4.01087">
        <ele>543.79998779297</ele>
        <time>2022-10-29T14:26:34.000Z</time>
      </trkpt>
      <trkpt lat="47.34989" lon="4.01097">
        <ele>543.79998779297</ele>
        <time>2022-10-29T14:26:37.000Z</time>
      </trkpt>
      <trkpt lat="47.34984" lon="4.01102">
        <ele>543.79998779297</ele>
        <time>2022-10-29T14:26:38.000Z</time>
      </trkpt>
      <trkpt lat="47.3497" lon="4.01116">
        <ele>543.59997558594</ele>
        <time>2022-10-29T14:26:41.000Z</time>
      </trkpt>
      <trkpt lat="47.34957" lon="4.01128">
        <ele>543.40002441406</ele>
        <time>2022-10-29T14:26:44.000Z</time>
      </trkpt>
      <trkpt lat="47.34929" lon="4.01155">
        <ele>542.79998779297</ele>
        <time>2022-10-29T14:26:50.000Z</time>
      </trkpt>
      <trkpt lat="47.34925" lon="4.01158">
        <ele>542.79998779297</ele>
        <time>2022-10-29T14:26:51.000Z</time>
      </trkpt>
      <trkpt lat="47.34895" lon="4.01187">
        <ele>542.40002441406</ele>
        <time>2022-10-29T14:26:57.000Z</time>
      </trkpt>
      <trkpt lat="47.34885" lon="4.01196">
        <ele>542.40002441406</ele>
        <time>2022-10-29T14:26:59.000Z</time>
      </trkpt>
      <trkpt lat="47.34871" lon="4.01213">
        <ele>542.40002441406</ele>
        <time>2022-10-29T14:27:02.000Z</time>
      </trkpt>
      <trkpt lat="47.34851" lon="4.01232">
        <ele>542.40002441406</ele>
        <time>2022-10-29T14:27:06.000Z</time>
      </trkpt>
      <trkpt lat="47.34848" lon="4.01234">
        <ele>542.59997558594</ele>
        <time>2022-10-29T14:27:07.000Z</time>
      </trkpt>
      <trkpt lat="47.34831" lon="4.01248">
        <ele>543.20001220703</ele>
        <time>2022-10-29T14:27:11.000Z</time>
      </trkpt>
      <trkpt lat="47.34813" lon="4.01265">
        <ele>543.59997558594</ele>
        <time>2022-10-29T14:27:16.000Z</time>
      </trkpt>
      <trkpt lat="47.3481" lon="4.01269">
        <ele>544</ele>
        <time>2022-10-29T14:27:17.000Z</time>
      </trkpt>
      <trkpt lat="47.3479" lon="4.01288">
        <ele>544.79998779297</ele>
        <time>2022-10-29T14:27:22.000Z</time>
      </trkpt>
      <trkpt lat="47.34781" lon="4.01297">
        <ele>545.20001220703</ele>
        <time>2022-10-29T14:27:24.000Z</time>
      </trkpt>
      <trkpt lat="47.34765" lon="4.01313">
        <ele>545.79998779297</ele>
        <time>2022-10-29T14:27:28.000Z</time>
      </trkpt>
      <trkpt lat="47.3475" lon="4.01328">
        <ele>546.59997558594</ele>
        <time>2022-10-29T14:27:32.000Z</time>
      </trkpt>
      <trkpt lat="47.34738" lon="4.01341">
        <ele>547.20001220703</ele>
        <time>2022-10-29T14:27:35.000Z</time>
      </trkpt>
      <trkpt lat="47.34721" lon="4.01355">
        <ele>548</ele>
        <time>2022-10-29T14:27:40.000Z</time>
      </trkpt>
      <trkpt lat="47.34715" lon="4.0136">
        <ele>548.20001220703</ele>
        <time>2022-10-29T14:27:41.000Z</time>
      </trkpt>
      <trkpt lat="47.34702" lon="4.01374">
        <ele>549</ele>
        <time>2022-10-29T14:27:44.000Z</time>
      </trkpt>
      <trkpt lat="47.34699" lon="4.01378">
        <ele>549.40002441406</ele>
        <time>2022-10-29T14:27:46.000Z</time>
      </trkpt>
      <trkpt lat="47.34681" lon="4.01392">
        <ele>550.40002441406</ele>
        <time>2022-10-29T14:27:51.000Z</time>
      </trkpt>
      <trkpt lat="47.34668" lon="4.01404">
        <ele>551.79998779297</ele>
        <time>2022-10-29T14:27:56.000Z</time>
      </trkpt>
      <trkpt lat="47.34659" lon="4.0141">
        <ele>552.40002441406</ele>
        <time>2022-10-29T14:27:59.000Z</time>
      </trkpt>
      <trkpt lat="47.34649" lon="4.01419">
        <ele>552.79998779297</ele>
        <time>2022-10-29T14:28:02.000Z</time>
      </trkpt>
      <trkpt lat="47.34633" lon="4.01435">
        <ele>554</ele>
        <time>2022-10-29T14:28:08.000Z</time>
      </trkpt>
      <trkpt lat="47.34618" lon="4.01449">
        <ele>554.79998779297</ele>
        <time>2022-10-29T14:28:13.000Z</time>
      </trkpt>
      <trkpt lat="47.34607" lon="4.01462">
        <ele>555</ele>
        <time>2022-10-29T14:28:16.000Z</time>
      </trkpt>
      <trkpt lat="47.34595" lon="4.0147">
        <ele>555.40002441406</ele>
        <time>2022-10-29T14:28:19.000Z</time>
      </trkpt>
      <trkpt lat="47.34565" lon="4.015">
        <ele>556</ele>
        <time>2022-10-29T14:28:27.000Z</time>
      </trkpt>
      <trkpt lat="47.34555" lon="4.01513">
        <ele>556.20001220703</ele>
        <time>2022-10-29T14:28:30.000Z</time>
      </trkpt>
      <trkpt lat="47.34552" lon="4.01515">
        <ele>556.40002441406</ele>
        <time>2022-10-29T14:28:31.000Z</time>
      </trkpt>
      <trkpt lat="47.34544" lon="4.01521">
        <ele>556.79998779297</ele>
        <time>2022-10-29T14:28:33.000Z</time>
      </trkpt>
      <trkpt lat="47.34528" lon="4.01538">
        <ele>557.20001220703</ele>
        <time>2022-10-29T14:28:38.000Z</time>
      </trkpt>
      <trkpt lat="47.34513" lon="4.01548">
        <ele>557.40002441406</ele>
        <time>2022-10-29T14:28:42.000Z</time>
      </trkpt>
      <trkpt lat="47.34485" lon="4.01574">
        <ele>558</ele>
        <time>2022-10-29T14:28:51.000Z</time>
      </trkpt>
      <trkpt lat="47.34482" lon="4.01576">
        <ele>558.20001220703</ele>
        <time>2022-10-29T14:28:52.000Z</time>
      </trkpt>
      <trkpt lat="47.34459" lon="4.01599">
        <ele>558.59997558594</ele>
        <time>2022-10-29T14:28:59.000Z</time>
      </trkpt>
      <trkpt lat="47.34432" lon="4.01622">
        <ele>559.20001220703</ele>
        <time>2022-10-29T14:29:07.000Z</time>
      </trkpt>
      <trkpt lat="47.34424" lon="4.01628">
        <ele>559.20001220703</ele>
        <time>2022-10-29T14:29:09.000Z</time>
      </trkpt>
      <trkpt lat="47.34392" lon="4.01648">
        <ele>560</ele>
        <time>2022-10-29T14:29:18.000Z</time>
      </trkpt>
      <trkpt lat="47.34388" lon="4.0165">
        <ele>560.20001220703</ele>
        <time>2022-10-29T14:29:19.000Z</time>
      </trkpt>
      <trkpt lat="47.3436" lon="4.0166">
        <ele>561</ele>
        <time>2022-10-29T14:29:27.000Z</time>
      </trkpt>
      <trkpt lat="47.34356" lon="4.01661">
        <ele>561.20001220703</ele>
        <time>2022-10-29T14:29:28.000Z</time>
      </trkpt>
      <trkpt lat="47.34328" lon="4.01665">
        <ele>562.40002441406</ele>
        <time>2022-10-29T14:29:36.000Z</time>
      </trkpt>
      <trkpt lat="47.34307" lon="4.01666">
        <ele>563.40002441406</ele>
        <time>2022-10-29T14:29:42.000Z</time>
      </trkpt>
      <trkpt lat="47.34296" lon="4.01667">
        <ele>563.79998779297</ele>
        <time>2022-10-29T14:29:45.000Z</time>
      </trkpt>
      <trkpt lat="47.34283" lon="4.01667">
        <ele>564.20001220703</ele>
        <time>2022-10-29T14:29:49.000Z</time>
      </trkpt>
      <trkpt lat="47.34274" lon="4.01666">
        <ele>564.59997558594</ele>
        <time>2022-10-29T14:29:52.000Z</time>
      </trkpt>
      <trkpt lat="47.34259" lon="4.01665">
        <ele>565.40002441406</ele>
        <time>2022-10-29T14:29:57.000Z</time>
      </trkpt>
      <trkpt lat="47.34231" lon="4.01666">
        <ele>566.40002441406</ele>
        <time>2022-10-29T14:30:04.000Z</time>
      </trkpt>
      <trkpt lat="47.34227" lon="4.01666">
        <ele>566.59997558594</ele>
        <time>2022-10-29T14:30:05.000Z</time>
      </trkpt>
      <trkpt lat="47.34193" lon="4.01665">
        <ele>567.40002441406</ele>
        <time>2022-10-29T14:30:13.000Z</time>
      </trkpt>
      <trkpt lat="47.34189" lon="4.01666">
        <ele>567.40002441406</ele>
        <time>2022-10-29T14:30:14.000Z</time>
      </trkpt>
      <trkpt lat="47.3417" lon="4.01667">
        <ele>568.40002441406</ele>
        <time>2022-10-29T14:30:19.000Z</time>
      </trkpt>
      <trkpt lat="47.34167" lon="4.01667">
        <ele>568.59997558594</ele>
        <time>2022-10-29T14:30:20.000Z</time>
      </trkpt>
      <trkpt lat="47.34141" lon="4.01668">
        <ele>569.20001220703</ele>
        <time>2022-10-29T14:30:27.000Z</time>
      </trkpt>
      <trkpt lat="47.34111" lon="4.01667">
        <ele>569</ele>
        <time>2022-10-29T14:30:34.000Z</time>
      </trkpt>
      <trkpt lat="47.34085" lon="4.01668">
        <ele>569.20001220703</ele>
        <time>2022-10-29T14:30:40.000Z</time>
      </trkpt>
      <trkpt lat="47.34076" lon="4.01669">
        <ele>569.20001220703</ele>
        <time>2022-10-29T14:30:42.000Z</time>
      </trkpt>
      <trkpt lat="47.34049" lon="4.01669">
        <ele>569.20001220703</ele>
        <time>2022-10-29T14:30:48.000Z</time>
      </trkpt>
      <trkpt lat="47.34017" lon="4.01671">
        <ele>569.20001220703</ele>
        <time>2022-10-29T14:30:55.000Z</time>
      </trkpt>
      <trkpt lat="47.33972" lon="4.01672">
        <ele>568.79998779297</ele>
        <time>2022-10-29T14:31:04.000Z</time>
      </trkpt>
      <trkpt lat="47.33934" lon="4.01676">
        <ele>568.79998779297</ele>
        <time>2022-10-29T14:31:12.000Z</time>
      </trkpt>
      <trkpt lat="47.33886" lon="4.0169">
        <ele>568.59997558594</ele>
        <time>2022-10-29T14:31:22.000Z</time>
      </trkpt>
      <trkpt lat="47.33846" lon="4.01715">
        <ele>569</ele>
        <time>2022-10-29T14:31:31.000Z</time>
      </trkpt>
      <trkpt lat="47.33835" lon="4.01723">
        <ele>569.20001220703</ele>
        <time>2022-10-29T14:31:34.000Z</time>
      </trkpt>
      <trkpt lat="47.33831" lon="4.01726">
        <ele>569.20001220703</ele>
        <time>2022-10-29T14:31:35.000Z</time>
      </trkpt>
      <trkpt lat="47.33824" lon="4.01733">
        <ele>569.40002441406</ele>
        <time>2022-10-29T14:31:37.000Z</time>
      </trkpt>
      <trkpt lat="47.33808" lon="4.01748">
        <ele>570.20001220703</ele>
        <time>2022-10-29T14:31:42.000Z</time>
      </trkpt>
      <trkpt lat="47.33806" lon="4.01751">
        <ele>570.20001220703</ele>
        <time>2022-10-29T14:31:43.000Z</time>
      </trkpt>
      <trkpt lat="47.33792" lon="4.0177">
        <ele>571</ele>
        <time>2022-10-29T14:31:48.000Z</time>
      </trkpt>
      <trkpt lat="47.33787" lon="4.01778">
        <ele>571.20001220703</ele>
        <time>2022-10-29T14:31:50.000Z</time>
      </trkpt>
      <trkpt lat="47.3377" lon="4.01803">
        <ele>572.20001220703</ele>
        <time>2022-10-29T14:31:56.000Z</time>
      </trkpt>
      <trkpt lat="47.33768" lon="4.01808">
        <ele>572.40002441406</ele>
        <time>2022-10-29T14:31:57.000Z</time>
      </trkpt>
      <trkpt lat="47.33759" lon="4.01821">
        <ele>573.20001220703</ele>
        <time>2022-10-29T14:32:00.000Z</time>
      </trkpt>
      <trkpt lat="47.33749" lon="4.01837">
        <ele>574.20001220703</ele>
        <time>2022-10-29T14:32:04.000Z</time>
      </trkpt>
      <trkpt lat="47.33747" lon="4.01841">
        <ele>574.20001220703</ele>
        <time>2022-10-29T14:32:05.000Z</time>
      </trkpt>
      <trkpt lat="47.33735" lon="4.01864">
        <ele>575.20001220703</ele>
        <time>2022-10-29T14:32:10.000Z</time>
      </trkpt>
      <trkpt lat="47.33732" lon="4.01868">
        <ele>575.40002441406</ele>
        <time>2022-10-29T14:32:11.000Z</time>
      </trkpt>
      <trkpt lat="47.33723" lon="4.01882">
        <ele>576</ele>
        <time>2022-10-29T14:32:15.000Z</time>
      </trkpt>
      <trkpt lat="47.33719" lon="4.0189">
        <ele>576.20001220703</ele>
        <time>2022-10-29T14:32:17.000Z</time>
      </trkpt>
      <trkpt lat="47.33716" lon="4.01893">
        <ele>576.59997558594</ele>
        <time>2022-10-29T14:32:18.000Z</time>
      </trkpt>
      <trkpt lat="47.33699" lon="4.01922">
        <ele>577.40002441406</ele>
        <time>2022-10-29T14:32:25.000Z</time>
      </trkpt>
      <trkpt lat="47.33682" lon="4.0195">
        <ele>578.59997558594</ele>
        <time>2022-10-29T14:32:32.000Z</time>
      </trkpt>
      <trkpt lat="47.33677" lon="4.01958">
        <ele>579</ele>
        <time>2022-10-29T14:32:34.000Z</time>
      </trkpt>
      <trkpt lat="47.33664" lon="4.01979">
        <ele>579.79998779297</ele>
        <time>2022-10-29T14:32:39.000Z</time>
      </trkpt>
      <trkpt lat="47.33648" lon="4.02005">
        <ele>580.40002441406</ele>
        <time>2022-10-29T14:32:45.000Z</time>
      </trkpt>
      <trkpt lat="47.33645" lon="4.0201">
        <ele>580.79998779297</ele>
        <time>2022-10-29T14:32:46.000Z</time>
      </trkpt>
      <trkpt lat="47.33631" lon="4.02031">
        <ele>581.20001220703</ele>
        <time>2022-10-29T14:32:51.000Z</time>
      </trkpt>
      <trkpt lat="47.33614" lon="4.02058">
        <ele>581.79998779297</ele>
        <time>2022-10-29T14:32:57.000Z</time>
      </trkpt>
      <trkpt lat="47.336" lon="4.02081">
        <ele>582.20001220703</ele>
        <time>2022-10-29T14:33:02.000Z</time>
      </trkpt>
      <trkpt lat="47.33575" lon="4.02114">
        <ele>582.79998779297</ele>
        <time>2022-10-29T14:33:10.000Z</time>
      </trkpt>
      <trkpt lat="47.33569" lon="4.02122">
        <ele>582.79998779297</ele>
        <time>2022-10-29T14:33:12.000Z</time>
      </trkpt>
      <trkpt lat="47.33555" lon="4.02139">
        <ele>583.20001220703</ele>
        <time>2022-10-29T14:33:16.000Z</time>
      </trkpt>
      <trkpt lat="47.33531" lon="4.02169">
        <ele>583.59997558594</ele>
        <time>2022-10-29T14:33:24.000Z</time>
      </trkpt>
      <trkpt lat="47.33522" lon="4.02179">
        <ele>584.40002441406</ele>
        <time>2022-10-29T14:33:27.000Z</time>
      </trkpt>
      <trkpt lat="47.33501" lon="4.02201">
        <ele>584.79998779297</ele>
        <time>2022-10-29T14:33:33.000Z</time>
      </trkpt>
      <trkpt lat="47.33483" lon="4.02222">
        <ele>585.40002441406</ele>
        <time>2022-10-29T14:33:38.000Z</time>
      </trkpt>
      <trkpt lat="47.33477" lon="4.02231">
        <ele>585.79998779297</ele>
        <time>2022-10-29T14:33:40.000Z</time>
      </trkpt>
      <trkpt lat="47.33443" lon="4.02273">
        <ele>586.40002441406</ele>
        <time>2022-10-29T14:33:50.000Z</time>
      </trkpt>
      <trkpt lat="47.33436" lon="4.02281">
        <ele>586.40002441406</ele>
        <time>2022-10-29T14:33:52.000Z</time>
      </trkpt>
      <trkpt lat="47.33414" lon="4.02308">
        <ele>586.59997558594</ele>
        <time>2022-10-29T14:33:58.000Z</time>
      </trkpt>
      <trkpt lat="47.33399" lon="4.02327">
        <ele>586.59997558594</ele>
        <time>2022-10-29T14:34:02.000Z</time>
      </trkpt>
      <trkpt lat="47.33391" lon="4.02336">
        <ele>586.79998779297</ele>
        <time>2022-10-29T14:34:04.000Z</time>
      </trkpt>
      <trkpt lat="47.33381" lon="4.02349">
        <ele>587</ele>
        <time>2022-10-29T14:34:07.000Z</time>
      </trkpt>
      <trkpt lat="47.3335" lon="4.02391">
        <ele>587.20001220703</ele>
        <time>2022-10-29T14:34:16.000Z</time>
      </trkpt>
      <trkpt lat="47.33326" lon="4.02435">
        <ele>587.59997558594</ele>
        <time>2022-10-29T14:34:24.000Z</time>
      </trkpt>
      <trkpt lat="47.33316" lon="4.02459">
        <ele>587.79998779297</ele>
        <time>2022-10-29T14:34:28.000Z</time>
      </trkpt>
      <trkpt lat="47.33305" lon="4.0249">
        <ele>587.79998779297</ele>
        <time>2022-10-29T14:34:33.000Z</time>
      </trkpt>
      <trkpt lat="47.33288" lon="4.02563">
        <ele>587.40002441406</ele>
        <time>2022-10-29T14:34:44.000Z</time>
      </trkpt>
      <trkpt lat="47.33276" lon="4.02627">
        <ele>587.40002441406</ele>
        <time>2022-10-29T14:34:53.000Z</time>
      </trkpt>
      <trkpt lat="47.3326" lon="4.02706">
        <ele>587.40002441406</ele>
        <time>2022-10-29T14:35:04.000Z</time>
      </trkpt>
      <trkpt lat="47.33257" lon="4.02721">
        <ele>587.40002441406</ele>
        <time>2022-10-29T14:35:06.000Z</time>
      </trkpt>
      <trkpt lat="47.33243" lon="4.02791">
        <ele>587.79998779297</ele>
        <time>2022-10-29T14:35:16.000Z</time>
      </trkpt>
      <trkpt lat="47.33228" lon="4.02858">
        <ele>588.59997558594</ele>
        <time>2022-10-29T14:35:26.000Z</time>
      </trkpt>
      <trkpt lat="47.33227" lon="4.02864">
        <ele>588.59997558594</ele>
        <time>2022-10-29T14:35:27.000Z</time>
      </trkpt>
      <trkpt lat="47.33221" lon="4.02904">
        <ele>589.79998779297</ele>
        <time>2022-10-29T14:35:33.000Z</time>
      </trkpt>
      <trkpt lat="47.33219" lon="4.02916">
        <ele>590.20001220703</ele>
        <time>2022-10-29T14:35:35.000Z</time>
      </trkpt>
      <trkpt lat="47.33214" lon="4.02937">
        <ele>590.79998779297</ele>
        <time>2022-10-29T14:35:38.000Z</time>
      </trkpt>
      <trkpt lat="47.33209" lon="4.0297">
        <ele>591.40002441406</ele>
        <time>2022-10-29T14:35:43.000Z</time>
      </trkpt>
      <trkpt lat="47.33202" lon="4.03003">
        <ele>591.79998779297</ele>
        <time>2022-10-29T14:35:48.000Z</time>
      </trkpt>
      <trkpt lat="47.33192" lon="4.03058">
        <ele>592.40002441406</ele>
        <time>2022-10-29T14:35:56.000Z</time>
      </trkpt>
      <trkpt lat="47.33176" lon="4.03138">
        <ele>592.59997558594</ele>
        <time>2022-10-29T14:36:06.000Z</time>
      </trkpt>
      <trkpt lat="47.33162" lon="4.03203">
        <ele>591.59997558594</ele>
        <time>2022-10-29T14:36:14.000Z</time>
      </trkpt>
      <trkpt lat="47.33142" lon="4.03257">
        <ele>591.20001220703</ele>
        <time>2022-10-29T14:36:20.000Z</time>
      </trkpt>
      <trkpt lat="47.33126" lon="4.03289">
        <ele>590.79998779297</ele>
        <time>2022-10-29T14:36:24.000Z</time>
      </trkpt>
      <trkpt lat="47.33104" lon="4.03328">
        <ele>590.20001220703</ele>
        <time>2022-10-29T14:36:29.000Z</time>
      </trkpt>
      <trkpt lat="47.33081" lon="4.03368">
        <ele>589.79998779297</ele>
        <time>2022-10-29T14:36:34.000Z</time>
      </trkpt>
      <trkpt lat="47.33051" lon="4.03421">
        <ele>589</ele>
        <time>2022-10-29T14:36:41.000Z</time>
      </trkpt>
      <trkpt lat="47.33041" lon="4.03438">
        <ele>588.59997558594</ele>
        <time>2022-10-29T14:36:43.000Z</time>
      </trkpt>
      <trkpt lat="47.33012" lon="4.03488">
        <ele>587.40002441406</ele>
        <time>2022-10-29T14:36:50.000Z</time>
      </trkpt>
      <trkpt lat="47.33008" lon="4.03496">
        <ele>587.40002441406</ele>
        <time>2022-10-29T14:36:51.000Z</time>
      </trkpt>
      <trkpt lat="47.32984" lon="4.03537">
        <ele>586.59997558594</ele>
        <time>2022-10-29T14:36:57.000Z</time>
      </trkpt>
      <trkpt lat="47.32979" lon="4.03544">
        <ele>586.59997558594</ele>
        <time>2022-10-29T14:36:58.000Z</time>
      </trkpt>
      <trkpt lat="47.32974" lon="4.03548">
        <ele>586.59997558594</ele>
        <time>2022-10-29T14:36:59.000Z</time>
      </trkpt>
      <trkpt lat="47.32961" lon="4.03552">
        <ele>586.40002441406</ele>
        <time>2022-10-29T14:37:01.000Z</time>
      </trkpt>
      <trkpt lat="47.32916" lon="4.03565">
        <ele>585.20001220703</ele>
        <time>2022-10-29T14:37:08.000Z</time>
      </trkpt>
      <trkpt lat="47.3291" lon="4.03566">
        <ele>585.20001220703</ele>
        <time>2022-10-29T14:37:09.000Z</time>
      </trkpt>
      <trkpt lat="47.32878" lon="4.03574">
        <ele>583.59997558594</ele>
        <time>2022-10-29T14:37:13.000Z</time>
      </trkpt>
      <trkpt lat="47.32861" lon="4.0358">
        <ele>583</ele>
        <time>2022-10-29T14:37:15.000Z</time>
      </trkpt>
      <trkpt lat="47.32853" lon="4.03582">
        <ele>582.40002441406</ele>
        <time>2022-10-29T14:37:16.000Z</time>
      </trkpt>
      <trkpt lat="47.32825" lon="4.03595">
        <ele>581</ele>
        <time>2022-10-29T14:37:20.000Z</time>
      </trkpt>
      <trkpt lat="47.32818" lon="4.03598">
        <ele>580.59997558594</ele>
        <time>2022-10-29T14:37:21.000Z</time>
      </trkpt>
      <trkpt lat="47.32786" lon="4.03614">
        <ele>580</ele>
        <time>2022-10-29T14:37:26.000Z</time>
      </trkpt>
      <trkpt lat="47.32775" lon="4.03617">
        <ele>580</ele>
        <time>2022-10-29T14:37:28.000Z</time>
      </trkpt>
      <trkpt lat="47.32756" lon="4.03621">
        <ele>580</ele>
        <time>2022-10-29T14:37:31.000Z</time>
      </trkpt>
      <trkpt lat="47.32738" lon="4.03622">
        <ele>580</ele>
        <time>2022-10-29T14:37:34.000Z</time>
      </trkpt>
      <trkpt lat="47.32681" lon="4.03625">
        <ele>579.20001220703</ele>
        <time>2022-10-29T14:37:42.000Z</time>
      </trkpt>
      <trkpt lat="47.32664" lon="4.03626">
        <ele>578.79998779297</ele>
        <time>2022-10-29T14:37:44.000Z</time>
      </trkpt>
      <trkpt lat="47.32632" lon="4.03628">
        <ele>577.59997558594</ele>
        <time>2022-10-29T14:37:48.000Z</time>
      </trkpt>
      <trkpt lat="47.32617" lon="4.03627">
        <ele>577.20001220703</ele>
        <time>2022-10-29T14:37:50.000Z</time>
      </trkpt>
      <trkpt lat="47.326" lon="4.03619">
        <ele>576.40002441406</ele>
        <time>2022-10-29T14:37:52.000Z</time>
      </trkpt>
      <trkpt lat="47.32571" lon="4.03589">
        <ele>575.20001220703</ele>
        <time>2022-10-29T14:37:57.000Z</time>
      </trkpt>
      <trkpt lat="47.32564" lon="4.03581">
        <ele>574.79998779297</ele>
        <time>2022-10-29T14:37:58.000Z</time>
      </trkpt>
      <trkpt lat="47.32547" lon="4.03562">
        <ele>574</ele>
        <time>2022-10-29T14:38:01.000Z</time>
      </trkpt>
      <trkpt lat="47.32523" lon="4.03529">
        <ele>573.20001220703</ele>
        <time>2022-10-29T14:38:06.000Z</time>
      </trkpt>
      <trkpt lat="47.32514" lon="4.03516">
        <ele>573</ele>
        <time>2022-10-29T14:38:08.000Z</time>
      </trkpt>
      <trkpt lat="47.325" lon="4.03499">
        <ele>572.79998779297</ele>
        <time>2022-10-29T14:38:11.000Z</time>
      </trkpt>
      <trkpt lat="47.32456" lon="4.03447">
        <ele>572.59997558594</ele>
        <time>2022-10-29T14:38:20.000Z</time>
      </trkpt>
      <trkpt lat="47.32451" lon="4.03441">
        <ele>572.40002441406</ele>
        <time>2022-10-29T14:38:21.000Z</time>
      </trkpt>
      <trkpt lat="47.32401" lon="4.03395">
        <ele>572.20001220703</ele>
        <time>2022-10-29T14:38:30.000Z</time>
      </trkpt>
      <trkpt lat="47.32383" lon="4.03383">
        <ele>572.20001220703</ele>
        <time>2022-10-29T14:38:33.000Z</time>
      </trkpt>
      <trkpt lat="47.32369" lon="4.03379">
        <ele>572</ele>
        <time>2022-10-29T14:38:35.000Z</time>
      </trkpt>
      <trkpt lat="47.32351" lon="4.03381">
        <ele>572</ele>
        <time>2022-10-29T14:38:38.000Z</time>
      </trkpt>
      <trkpt lat="47.32332" lon="4.03388">
        <ele>571.40002441406</ele>
        <time>2022-10-29T14:38:41.000Z</time>
      </trkpt>
      <trkpt lat="47.32318" lon="4.03393">
        <ele>570.79998779297</ele>
        <time>2022-10-29T14:38:43.000Z</time>
      </trkpt>
      <trkpt lat="47.32292" lon="4.03402">
        <ele>569.79998779297</ele>
        <time>2022-10-29T14:38:47.000Z</time>
      </trkpt>
      <trkpt lat="47.32283" lon="4.03405">
        <ele>569.40002441406</ele>
        <time>2022-10-29T14:38:48.000Z</time>
      </trkpt>
      <trkpt lat="47.3225" lon="4.03416">
        <ele>568.59997558594</ele>
        <time>2022-10-29T14:38:52.000Z</time>
      </trkpt>
      <trkpt lat="47.32242" lon="4.03419">
        <ele>567.79998779297</ele>
        <time>2022-10-29T14:38:53.000Z</time>
      </trkpt>
      <trkpt lat="47.32231" lon="4.03424">
        <ele>567.40002441406</ele>
        <time>2022-10-29T14:38:54.000Z</time>
      </trkpt>
      <trkpt lat="47.32225" lon="4.03427">
        <ele>566.59997558594</ele>
        <time>2022-10-29T14:38:55.000Z</time>
      </trkpt>
      <trkpt lat="47.32216" lon="4.03431">
        <ele>566.20001220703</ele>
        <time>2022-10-29T14:38:56.000Z</time>
      </trkpt>
      <trkpt lat="47.32207" lon="4.03437">
        <ele>565.20001220703</ele>
        <time>2022-10-29T14:38:57.000Z</time>
      </trkpt>
      <trkpt lat="47.32201" lon="4.03441">
        <ele>564.20001220703</ele>
        <time>2022-10-29T14:38:58.000Z</time>
      </trkpt>
      <trkpt lat="47.32194" lon="4.03446">
        <ele>563.79998779297</ele>
        <time>2022-10-29T14:38:59.000Z</time>
      </trkpt>
      <trkpt lat="47.32194" lon="4.03446">
        <ele>563</ele>
        <time>2022-10-29T14:39:00.000Z</time>
      </trkpt>
      <trkpt lat="47.32183" lon="4.0346">
        <ele>562.79998779297</ele>
        <time>2022-10-29T14:39:01.000Z</time>
      </trkpt>
      <trkpt lat="47.32175" lon="4.03484">
        <ele>562</ele>
        <time>2022-10-29T14:39:04.000Z</time>
      </trkpt>
      <trkpt lat="47.32173" lon="4.03492">
        <ele>561.79998779297</ele>
        <time>2022-10-29T14:39:05.000Z</time>
      </trkpt>
      <trkpt lat="47.32167" lon="4.03511">
        <ele>561.79998779297</ele>
        <time>2022-10-29T14:39:08.000Z</time>
      </trkpt>
      <trkpt lat="47.32165" lon="4.03516">
        <ele>561.79998779297</ele>
        <time>2022-10-29T14:39:09.000Z</time>
      </trkpt>
      <trkpt lat="47.3216" lon="4.03526">
        <ele>562.20001220703</ele>
        <time>2022-10-29T14:39:11.000Z</time>
      </trkpt>
      <trkpt lat="47.32153" lon="4.03534">
        <ele>563</ele>
        <time>2022-10-29T14:39:13.000Z</time>
      </trkpt>
      <trkpt lat="47.32148" lon="4.0354">
        <ele>563.40002441406</ele>
        <time>2022-10-29T14:39:15.000Z</time>
      </trkpt>
      <trkpt lat="47.32139" lon="4.03545">
        <ele>564.20001220703</ele>
        <time>2022-10-29T14:39:17.000Z</time>
      </trkpt>
      <trkpt lat="47.32123" lon="4.03549">
        <ele>565</ele>
        <time>2022-10-29T14:39:21.000Z</time>
      </trkpt>
      <trkpt lat="47.32118" lon="4.03548">
        <ele>565.40002441406</ele>
        <time>2022-10-29T14:39:22.000Z</time>
      </trkpt>
      <trkpt lat="47.32111" lon="4.03544">
        <ele>565.40002441406</ele>
        <time>2022-10-29T14:39:24.000Z</time>
      </trkpt>
      <trkpt lat="47.32107" lon="4.0354">
        <ele>565.59997558594</ele>
        <time>2022-10-29T14:39:25.000Z</time>
      </trkpt>
      <trkpt lat="47.32104" lon="4.03537">
        <ele>565.79998779297</ele>
        <time>2022-10-29T14:39:26.000Z</time>
      </trkpt>
      <trkpt lat="47.32091" lon="4.0352">
        <ele>565.79998779297</ele>
        <time>2022-10-29T14:39:29.000Z</time>
      </trkpt>
      <trkpt lat="47.32081" lon="4.0351">
        <ele>565.79998779297</ele>
        <time>2022-10-29T14:39:31.000Z</time>
      </trkpt>
      <trkpt lat="47.32073" lon="4.03503">
        <ele>565.40002441406</ele>
        <time>2022-10-29T14:39:33.000Z</time>
      </trkpt>
      <trkpt lat="47.32052" lon="4.03474">
        <ele>564.40002441406</ele>
        <time>2022-10-29T14:39:37.000Z</time>
      </trkpt>
      <trkpt lat="47.32043" lon="4.03461">
        <ele>564.20001220703</ele>
        <time>2022-10-29T14:39:39.000Z</time>
      </trkpt>
      <trkpt lat="47.3202" lon="4.03427">
        <ele>563.20001220703</ele>
        <time>2022-10-29T14:39:44.000Z</time>
      </trkpt>
      <trkpt lat="47.32015" lon="4.0342">
        <ele>563</ele>
        <time>2022-10-29T14:39:45.000Z</time>
      </trkpt>
      <trkpt lat="47.31984" lon="4.03374">
        <ele>561.79998779297</ele>
        <time>2022-10-29T14:39:52.000Z</time>
      </trkpt>
      <trkpt lat="47.31943" lon="4.03317">
        <ele>561.20001220703</ele>
        <time>2022-10-29T14:40:01.000Z</time>
      </trkpt>
      <trkpt lat="47.31935" lon="4.03307">
        <ele>561.20001220703</ele>
        <time>2022-10-29T14:40:03.000Z</time>
      </trkpt>
      <trkpt lat="47.31917" lon="4.0328">
        <ele>560.79998779297</ele>
        <time>2022-10-29T14:40:07.000Z</time>
      </trkpt>
      <trkpt lat="47.31907" lon="4.03266">
        <ele>559.79998779297</ele>
        <time>2022-10-29T14:40:09.000Z</time>
      </trkpt>
      <trkpt lat="47.31902" lon="4.03259">
        <ele>559.59997558594</ele>
        <time>2022-10-29T14:40:10.000Z</time>
      </trkpt>
      <trkpt lat="47.31887" lon="4.03239">
        <ele>558.59997558594</ele>
        <time>2022-10-29T14:40:13.000Z</time>
      </trkpt>
      <trkpt lat="47.31872" lon="4.03231">
        <ele>557.79998779297</ele>
        <time>2022-10-29T14:40:15.000Z</time>
      </trkpt>
      <trkpt lat="47.31865" lon="4.03231">
        <ele>557.40002441406</ele>
        <time>2022-10-29T14:40:16.000Z</time>
      </trkpt>
      <trkpt lat="47.3186" lon="4.03233">
        <ele>557.20001220703</ele>
        <time>2022-10-29T14:40:17.000Z</time>
      </trkpt>
      <trkpt lat="47.31854" lon="4.03237">
        <ele>556.79998779297</ele>
        <time>2022-10-29T14:40:18.000Z</time>
      </trkpt>
      <trkpt lat="47.31848" lon="4.03243">
        <ele>556.40002441406</ele>
        <time>2022-10-29T14:40:19.000Z</time>
      </trkpt>
      <trkpt lat="47.31842" lon="4.03252">
        <ele>556</ele>
        <time>2022-10-29T14:40:20.000Z</time>
      </trkpt>
      <trkpt lat="47.31838" lon="4.03262">
        <ele>555.79998779297</ele>
        <time>2022-10-29T14:40:21.000Z</time>
      </trkpt>
      <trkpt lat="47.31835" lon="4.03269">
        <ele>555</ele>
        <time>2022-10-29T14:40:22.000Z</time>
      </trkpt>
      <trkpt lat="47.31826" lon="4.03293">
        <ele>553.59997558594</ele>
        <time>2022-10-29T14:40:25.000Z</time>
      </trkpt>
      <trkpt lat="47.31821" lon="4.03305">
        <ele>552.59997558594</ele>
        <time>2022-10-29T14:40:27.000Z</time>
      </trkpt>
      <trkpt lat="47.31819" lon="4.03312">
        <ele>552</ele>
        <time>2022-10-29T14:40:28.000Z</time>
      </trkpt>
      <trkpt lat="47.31816" lon="4.03319">
        <ele>551.40002441406</ele>
        <time>2022-10-29T14:40:29.000Z</time>
      </trkpt>
      <trkpt lat="47.31813" lon="4.03327">
        <ele>550.79998779297</ele>
        <time>2022-10-29T14:40:30.000Z</time>
      </trkpt>
      <trkpt lat="47.31811" lon="4.03336">
        <ele>550.59997558594</ele>
        <time>2022-10-29T14:40:31.000Z</time>
      </trkpt>
      <trkpt lat="47.3181" lon="4.03356">
        <ele>549.59997558594</ele>
        <time>2022-10-29T14:40:33.000Z</time>
      </trkpt>
      <trkpt lat="47.31812" lon="4.03366">
        <ele>549.20001220703</ele>
        <time>2022-10-29T14:40:34.000Z</time>
      </trkpt>
      <trkpt lat="47.31815" lon="4.03376">
        <ele>548.79998779297</ele>
        <time>2022-10-29T14:40:35.000Z</time>
      </trkpt>
      <trkpt lat="47.31818" lon="4.03389">
        <ele>548.59997558594</ele>
        <time>2022-10-29T14:40:36.000Z</time>
      </trkpt>
      <trkpt lat="47.31825" lon="4.03411">
        <ele>547.79998779297</ele>
        <time>2022-10-29T14:40:38.000Z</time>
      </trkpt>
      <trkpt lat="47.31829" lon="4.03423">
        <ele>547</ele>
        <time>2022-10-29T14:40:39.000Z</time>
      </trkpt>
      <trkpt lat="47.31832" lon="4.03436">
        <ele>546.79998779297</ele>
        <time>2022-10-29T14:40:40.000Z</time>
      </trkpt>
      <trkpt lat="47.31835" lon="4.03449">
        <ele>546</ele>
        <time>2022-10-29T14:40:41.000Z</time>
      </trkpt>
      <trkpt lat="47.31837" lon="4.03458">
        <ele>545</ele>
        <time>2022-10-29T14:40:42.000Z</time>
      </trkpt>
      <trkpt lat="47.31841" lon="4.0347">
        <ele>544.40002441406</ele>
        <time>2022-10-29T14:40:43.000Z</time>
      </trkpt>
      <trkpt lat="47.31847" lon="4.03495">
        <ele>543.40002441406</ele>
        <time>2022-10-29T14:40:45.000Z</time>
      </trkpt>
      <trkpt lat="47.31851" lon="4.03508">
        <ele>542.40002441406</ele>
        <time>2022-10-29T14:40:46.000Z</time>
      </trkpt>
      <trkpt lat="47.31855" lon="4.03524">
        <ele>542</ele>
        <time>2022-10-29T14:40:47.000Z</time>
      </trkpt>
      <trkpt lat="47.31861" lon="4.03556">
        <ele>541</ele>
        <time>2022-10-29T14:40:49.000Z</time>
      </trkpt>
      <trkpt lat="47.31865" lon="4.03588">
        <ele>539</ele>
        <time>2022-10-29T14:40:51.000Z</time>
      </trkpt>
      <trkpt lat="47.31866" lon="4.03605">
        <ele>538.40002441406</ele>
        <time>2022-10-29T14:40:52.000Z</time>
      </trkpt>
      <trkpt lat="47.31866" lon="4.03621">
        <ele>537.79998779297</ele>
        <time>2022-10-29T14:40:53.000Z</time>
      </trkpt>
      <trkpt lat="47.31864" lon="4.03636">
        <ele>536</ele>
        <time>2022-10-29T14:40:54.000Z</time>
      </trkpt>
      <trkpt lat="47.31857" lon="4.03667">
        <ele>534.40002441406</ele>
        <time>2022-10-29T14:40:56.000Z</time>
      </trkpt>
      <trkpt lat="47.31854" lon="4.03682">
        <ele>534</ele>
        <time>2022-10-29T14:40:57.000Z</time>
      </trkpt>
      <trkpt lat="47.3185" lon="4.03697">
        <ele>533.40002441406</ele>
        <time>2022-10-29T14:40:58.000Z</time>
      </trkpt>
      <trkpt lat="47.3184" lon="4.03736">
        <ele>531.79998779297</ele>
        <time>2022-10-29T14:41:01.000Z</time>
      </trkpt>
      <trkpt lat="47.31837" lon="4.03749">
        <ele>531.40002441406</ele>
        <time>2022-10-29T14:41:02.000Z</time>
      </trkpt>
      <trkpt lat="47.3183" lon="4.03777">
        <ele>530.79998779297</ele>
        <time>2022-10-29T14:41:04.000Z</time>
      </trkpt>
      <trkpt lat="47.31823" lon="4.03813">
        <ele>529.40002441406</ele>
        <time>2022-10-29T14:41:07.000Z</time>
      </trkpt>
      <trkpt lat="47.3182" lon="4.03825">
        <ele>528.20001220703</ele>
        <time>2022-10-29T14:41:08.000Z</time>
      </trkpt>
      <trkpt lat="47.31816" lon="4.03854">
        <ele>527</ele>
        <time>2022-10-29T14:41:10.000Z</time>
      </trkpt>
      <trkpt lat="47.31815" lon="4.03864">
        <ele>526.79998779297</ele>
        <time>2022-10-29T14:41:11.000Z</time>
      </trkpt>
      <trkpt lat="47.31816" lon="4.03877">
        <ele>526.20001220703</ele>
        <time>2022-10-29T14:41:12.000Z</time>
      </trkpt>
      <trkpt lat="47.31816" lon="4.0389">
        <ele>524.20001220703</ele>
        <time>2022-10-29T14:41:13.000Z</time>
      </trkpt>
      <trkpt lat="47.31813" lon="4.03914">
        <ele>522.59997558594</ele>
        <time>2022-10-29T14:41:15.000Z</time>
      </trkpt>
      <trkpt lat="47.31808" lon="4.03924">
        <ele>522.59997558594</ele>
        <time>2022-10-29T14:41:16.000Z</time>
      </trkpt>
      <trkpt lat="47.31802" lon="4.03931">
        <ele>521.59997558594</ele>
        <time>2022-10-29T14:41:17.000Z</time>
      </trkpt>
      <trkpt lat="47.31796" lon="4.03934">
        <ele>520.79998779297</ele>
        <time>2022-10-29T14:41:18.000Z</time>
      </trkpt>
      <trkpt lat="47.3179" lon="4.03935">
        <ele>520.40002441406</ele>
        <time>2022-10-29T14:41:19.000Z</time>
      </trkpt>
      <trkpt lat="47.31779" lon="4.03934">
        <ele>519.40002441406</ele>
        <time>2022-10-29T14:41:21.000Z</time>
      </trkpt>
      <trkpt lat="47.31775" lon="4.03932">
        <ele>519</ele>
        <time>2022-10-29T14:41:22.000Z</time>
      </trkpt>
      <trkpt lat="47.3177" lon="4.03927">
        <ele>519</ele>
        <time>2022-10-29T14:41:23.000Z</time>
      </trkpt>
      <trkpt lat="47.31762" lon="4.03911">
        <ele>518.79998779297</ele>
        <time>2022-10-29T14:41:26.000Z</time>
      </trkpt>
      <trkpt lat="47.31756" lon="4.03902">
        <ele>518.79998779297</ele>
        <time>2022-10-29T14:41:28.000Z</time>
      </trkpt>
      <trkpt lat="47.31736" lon="4.03891">
        <ele>519.40002441406</ele>
        <time>2022-10-29T14:41:32.000Z</time>
      </trkpt>
      <trkpt lat="47.31721" lon="4.03885">
        <ele>520</ele>
        <time>2022-10-29T14:41:35.000Z</time>
      </trkpt>
      <trkpt lat="47.31717" lon="4.03884">
        <ele>520.20001220703</ele>
        <time>2022-10-29T14:41:36.000Z</time>
      </trkpt>
      <trkpt lat="47.31707" lon="4.03882">
        <ele>520.59997558594</ele>
        <time>2022-10-29T14:41:38.000Z</time>
      </trkpt>
      <trkpt lat="47.31677" lon="4.03874">
        <ele>521.20001220703</ele>
        <time>2022-10-29T14:41:44.000Z</time>
      </trkpt>
      <trkpt lat="47.31672" lon="4.03872">
        <ele>521.20001220703</ele>
        <time>2022-10-29T14:41:45.000Z</time>
      </trkpt>
      <trkpt lat="47.31644" lon="4.03855">
        <ele>521.59997558594</ele>
        <time>2022-10-29T14:41:51.000Z</time>
      </trkpt>
      <trkpt lat="47.31632" lon="4.0385">
        <ele>522</ele>
        <time>2022-10-29T14:41:53.000Z</time>
      </trkpt>
      <trkpt lat="47.31623" lon="4.03842">
        <ele>522.20001220703</ele>
        <time>2022-10-29T14:41:55.000Z</time>
      </trkpt>
      <trkpt lat="47.31597" lon="4.03826">
        <ele>522.59997558594</ele>
        <time>2022-10-29T14:42:01.000Z</time>
      </trkpt>
      <trkpt lat="47.31584" lon="4.03814">
        <ele>522.79998779297</ele>
        <time>2022-10-29T14:42:04.000Z</time>
      </trkpt>
      <trkpt lat="47.31571" lon="4.03807">
        <ele>523.20001220703</ele>
        <time>2022-10-29T14:42:07.000Z</time>
      </trkpt>
      <trkpt lat="47.31548" lon="4.03789">
        <ele>524</ele>
        <time>2022-10-29T14:42:14.000Z</time>
      </trkpt>
      <trkpt lat="47.3154" lon="4.03781">
        <ele>524.40002441406</ele>
        <time>2022-10-29T14:42:17.000Z</time>
      </trkpt>
      <trkpt lat="47.31532" lon="4.03767">
        <ele>525.20001220703</ele>
        <time>2022-10-29T14:42:21.000Z</time>
      </trkpt>
      <trkpt lat="47.3153" lon="4.03764">
        <ele>525.40002441406</ele>
        <time>2022-10-29T14:42:22.000Z</time>
      </trkpt>
      <trkpt lat="47.31528" lon="4.0376">
        <ele>526</ele>
        <time>2022-10-29T14:42:23.000Z</time>
      </trkpt>
      <trkpt lat="47.31523" lon="4.03749">
        <ele>526.59997558594</ele>
        <time>2022-10-29T14:42:26.000Z</time>
      </trkpt>
      <trkpt lat="47.31517" lon="4.03735">
        <ele>527.79998779297</ele>
        <time>2022-10-29T14:42:30.000Z</time>
      </trkpt>
      <trkpt lat="47.31505" lon="4.03727">
        <ele>528.79998779297</ele>
        <time>2022-10-29T14:42:35.000Z</time>
      </trkpt>
      <trkpt lat="47.31503" lon="4.03725">
        <ele>529</ele>
        <time>2022-10-29T14:42:36.000Z</time>
      </trkpt>
      <trkpt lat="47.31495" lon="4.03715">
        <ele>530</ele>
        <time>2022-10-29T14:42:40.000Z</time>
      </trkpt>
      <trkpt lat="47.31491" lon="4.03706">
        <ele>530.20001220703</ele>
        <time>2022-10-29T14:42:42.000Z</time>
      </trkpt>
      <trkpt lat="47.31481" lon="4.03684">
        <ele>530.40002441406</ele>
        <time>2022-10-29T14:42:46.000Z</time>
      </trkpt>
      <trkpt lat="47.31475" lon="4.03671">
        <ele>530.20001220703</ele>
        <time>2022-10-29T14:42:48.000Z</time>
      </trkpt>
      <trkpt lat="47.31465" lon="4.03649">
        <ele>529.79998779297</ele>
        <time>2022-10-29T14:42:51.000Z</time>
      </trkpt>
      <trkpt lat="47.31445" lon="4.03609">
        <ele>528.59997558594</ele>
        <time>2022-10-29T14:42:56.000Z</time>
      </trkpt>
      <trkpt lat="47.3144" lon="4.036">
        <ele>528.40002441406</ele>
        <time>2022-10-29T14:42:57.000Z</time>
      </trkpt>
      <trkpt lat="47.31418" lon="4.03565">
        <ele>527.40002441406</ele>
        <time>2022-10-29T14:43:01.000Z</time>
      </trkpt>
      <trkpt lat="47.31412" lon="4.03556">
        <ele>527.20001220703</ele>
        <time>2022-10-29T14:43:02.000Z</time>
      </trkpt>
      <trkpt lat="47.314" lon="4.0354">
        <ele>526.20001220703</ele>
        <time>2022-10-29T14:43:04.000Z</time>
      </trkpt>
      <trkpt lat="47.31381" lon="4.03517">
        <ele>525</ele>
        <time>2022-10-29T14:43:07.000Z</time>
      </trkpt>
      <trkpt lat="47.31362" lon="4.03496">
        <ele>524</ele>
        <time>2022-10-29T14:43:10.000Z</time>
      </trkpt>
      <trkpt lat="47.31355" lon="4.03487">
        <ele>523.59997558594</ele>
        <time>2022-10-29T14:43:11.000Z</time>
      </trkpt>
      <trkpt lat="47.31343" lon="4.03469">
        <ele>522.40002441406</ele>
        <time>2022-10-29T14:43:13.000Z</time>
      </trkpt>
      <trkpt lat="47.3133" lon="4.03452">
        <ele>521.79998779297</ele>
        <time>2022-10-29T14:43:15.000Z</time>
      </trkpt>
      <trkpt lat="47.31315" lon="4.03434">
        <ele>521.20001220703</ele>
        <time>2022-10-29T14:43:17.000Z</time>
      </trkpt>
      <trkpt lat="47.313" lon="4.03417">
        <ele>520.20001220703</ele>
        <time>2022-10-29T14:43:19.000Z</time>
      </trkpt>
      <trkpt lat="47.31292" lon="4.03409">
        <ele>519.20001220703</ele>
        <time>2022-10-29T14:43:20.000Z</time>
      </trkpt>
      <trkpt lat="47.31284" lon="4.03401">
        <ele>518.79998779297</ele>
        <time>2022-10-29T14:43:21.000Z</time>
      </trkpt>
      <trkpt lat="47.31267" lon="4.03387">
        <ele>517.59997558594</ele>
        <time>2022-10-29T14:43:23.000Z</time>
      </trkpt>
      <trkpt lat="47.31242" lon="4.03369">
        <ele>517</ele>
        <time>2022-10-29T14:43:26.000Z</time>
      </trkpt>
      <trkpt lat="47.31225" lon="4.03356">
        <ele>516</ele>
        <time>2022-10-29T14:43:28.000Z</time>
      </trkpt>
      <trkpt lat="47.31192" lon="4.03333">
        <ele>514.59997558594</ele>
        <time>2022-10-29T14:43:32.000Z</time>
      </trkpt>
      <trkpt lat="47.31184" lon="4.03327">
        <ele>514.40002441406</ele>
        <time>2022-10-29T14:43:33.000Z</time>
      </trkpt>
      <trkpt lat="47.31168" lon="4.03315">
        <ele>513.59997558594</ele>
        <time>2022-10-29T14:43:35.000Z</time>
      </trkpt>
      <trkpt lat="47.31151" lon="4.03304">
        <ele>512.40002441406</ele>
        <time>2022-10-29T14:43:37.000Z</time>
      </trkpt>
      <trkpt lat="47.31125" lon="4.03287">
        <ele>511.20001220703</ele>
        <time>2022-10-29T14:43:40.000Z</time>
      </trkpt>
      <trkpt lat="47.31117" lon="4.03281">
        <ele>510.79998779297</ele>
        <time>2022-10-29T14:43:41.000Z</time>
      </trkpt>
      <trkpt lat="47.31091" lon="4.03264">
        <ele>510</ele>
        <time>2022-10-29T14:43:44.000Z</time>
      </trkpt>
      <trkpt lat="47.31072" lon="4.03255">
        <ele>509</ele>
        <time>2022-10-29T14:43:46.000Z</time>
      </trkpt>
      <trkpt lat="47.31053" lon="4.03248">
        <ele>508</ele>
        <time>2022-10-29T14:43:48.000Z</time>
      </trkpt>
      <trkpt lat="47.31025" lon="4.0324">
        <ele>506.39999389648</ele>
        <time>2022-10-29T14:43:51.000Z</time>
      </trkpt>
      <trkpt lat="47.30996" lon="4.03234">
        <ele>505</ele>
        <time>2022-10-29T14:43:54.000Z</time>
      </trkpt>
      <trkpt lat="47.30977" lon="4.03231">
        <ele>503.79998779297</ele>
        <time>2022-10-29T14:43:56.000Z</time>
      </trkpt>
      <trkpt lat="47.3094" lon="4.03227">
        <ele>502.60000610352</ele>
        <time>2022-10-29T14:44:00.000Z</time>
      </trkpt>
      <trkpt lat="47.30914" lon="4.03222">
        <ele>501.20001220703</ele>
        <time>2022-10-29T14:44:03.000Z</time>
      </trkpt>
      <trkpt lat="47.30906" lon="4.0322">
        <ele>501</ele>
        <time>2022-10-29T14:44:04.000Z</time>
      </trkpt>
      <trkpt lat="47.30882" lon="4.03214">
        <ele>500</ele>
        <time>2022-10-29T14:44:07.000Z</time>
      </trkpt>
      <trkpt lat="47.30867" lon="4.03211">
        <ele>499.39999389648</ele>
        <time>2022-10-29T14:44:09.000Z</time>
      </trkpt>
      <trkpt lat="47.30846" lon="4.03206">
        <ele>498.79998779297</ele>
        <time>2022-10-29T14:44:12.000Z</time>
      </trkpt>
      <trkpt lat="47.30829" lon="4.03201">
        <ele>498.60000610352</ele>
        <time>2022-10-29T14:44:15.000Z</time>
      </trkpt>
      <trkpt lat="47.30789" lon="4.03187">
        <ele>498.20001220703</ele>
        <time>2022-10-29T14:44:22.000Z</time>
      </trkpt>
      <trkpt lat="47.30742" lon="4.03178">
        <ele>498</ele>
        <time>2022-10-29T14:44:30.000Z</time>
      </trkpt>
      <trkpt lat="47.30736" lon="4.03179">
        <ele>497.79998779297</ele>
        <time>2022-10-29T14:44:31.000Z</time>
      </trkpt>
      <trkpt lat="47.30704" lon="4.03189">
        <ele>497.60000610352</ele>
        <time>2022-10-29T14:44:36.000Z</time>
      </trkpt>
      <trkpt lat="47.30679" lon="4.03201">
        <ele>496.79998779297</ele>
        <time>2022-10-29T14:44:40.000Z</time>
      </trkpt>
      <trkpt lat="47.30661" lon="4.03213">
        <ele>496</ele>
        <time>2022-10-29T14:44:43.000Z</time>
      </trkpt>
      <trkpt lat="47.30649" lon="4.03222">
        <ele>495.60000610352</ele>
        <time>2022-10-29T14:44:45.000Z</time>
      </trkpt>
      <trkpt lat="47.30633" lon="4.03242">
        <ele>495</ele>
        <time>2022-10-29T14:44:48.000Z</time>
      </trkpt>
      <trkpt lat="47.30614" lon="4.03285">
        <ele>494.39999389648</ele>
        <time>2022-10-29T14:44:53.000Z</time>
      </trkpt>
      <trkpt lat="47.30588" lon="4.03359">
        <ele>493.79998779297</ele>
        <time>2022-10-29T14:45:02.000Z</time>
      </trkpt>
      <trkpt lat="47.3057" lon="4.03402">
        <ele>494.79998779297</ele>
        <time>2022-10-29T14:45:09.000Z</time>
      </trkpt>
      <trkpt lat="47.30556" lon="4.03426">
        <ele>495.60000610352</ele>
        <time>2022-10-29T14:45:14.000Z</time>
      </trkpt>
      <trkpt lat="47.3055" lon="4.03435">
        <ele>495.79998779297</ele>
        <time>2022-10-29T14:45:16.000Z</time>
      </trkpt>
      <trkpt lat="47.30538" lon="4.03452">
        <ele>496.60000610352</ele>
        <time>2022-10-29T14:45:20.000Z</time>
      </trkpt>
      <trkpt lat="47.30523" lon="4.03472">
        <ele>497.60000610352</ele>
        <time>2022-10-29T14:45:25.000Z</time>
      </trkpt>
      <trkpt lat="47.30505" lon="4.03493">
        <ele>498.79998779297</ele>
        <time>2022-10-29T14:45:30.000Z</time>
      </trkpt>
      <trkpt lat="47.30498" lon="4.035">
        <ele>499</ele>
        <time>2022-10-29T14:45:32.000Z</time>
      </trkpt>
      <trkpt lat="47.30478" lon="4.03522">
        <ele>499.79998779297</ele>
        <time>2022-10-29T14:45:38.000Z</time>
      </trkpt>
      <trkpt lat="47.3047" lon="4.03529">
        <ele>500</ele>
        <time>2022-10-29T14:45:40.000Z</time>
      </trkpt>
      <trkpt lat="47.30437" lon="4.03557">
        <ele>500</ele>
        <time>2022-10-29T14:45:48.000Z</time>
      </trkpt>
      <trkpt lat="47.30405" lon="4.03578">
        <ele>499.39999389648</ele>
        <time>2022-10-29T14:45:54.000Z</time>
      </trkpt>
      <trkpt lat="47.30367" lon="4.03596">
        <ele>498.39999389648</ele>
        <time>2022-10-29T14:46:00.000Z</time>
      </trkpt>
      <trkpt lat="47.30344" lon="4.03602">
        <ele>497</ele>
        <time>2022-10-29T14:46:03.000Z</time>
      </trkpt>
      <trkpt lat="47.30321" lon="4.03606">
        <ele>496</ele>
        <time>2022-10-29T14:46:06.000Z</time>
      </trkpt>
      <trkpt lat="47.30286" lon="4.03608">
        <ele>494.79998779297</ele>
        <time>2022-10-29T14:46:10.000Z</time>
      </trkpt>
      <trkpt lat="47.30275" lon="4.03609">
        <ele>494.39999389648</ele>
        <time>2022-10-29T14:46:11.000Z</time>
      </trkpt>
      <trkpt lat="47.30259" lon="4.0361">
        <ele>493.60000610352</ele>
        <time>2022-10-29T14:46:13.000Z</time>
      </trkpt>
      <trkpt lat="47.30231" lon="4.03612">
        <ele>492.60000610352</ele>
        <time>2022-10-29T14:46:16.000Z</time>
      </trkpt>
      <trkpt lat="47.30223" lon="4.03612">
        <ele>492.20001220703</ele>
        <time>2022-10-29T14:46:17.000Z</time>
      </trkpt>
      <trkpt lat="47.30204" lon="4.03613">
        <ele>491.39999389648</ele>
        <time>2022-10-29T14:46:19.000Z</time>
      </trkpt>
      <trkpt lat="47.30165" lon="4.03617">
        <ele>490</ele>
        <time>2022-10-29T14:46:23.000Z</time>
      </trkpt>
      <trkpt lat="47.30127" lon="4.03617">
        <ele>489</ele>
        <time>2022-10-29T14:46:27.000Z</time>
      </trkpt>
      <trkpt lat="47.30117" lon="4.03615">
        <ele>488.79998779297</ele>
        <time>2022-10-29T14:46:28.000Z</time>
      </trkpt>
      <trkpt lat="47.3011" lon="4.03612">
        <ele>488.39999389648</ele>
        <time>2022-10-29T14:46:29.000Z</time>
      </trkpt>
      <trkpt lat="47.30088" lon="4.03604">
        <ele>487.60000610352</ele>
        <time>2022-10-29T14:46:31.000Z</time>
      </trkpt>
      <trkpt lat="47.30071" lon="4.03594">
        <ele>487</ele>
        <time>2022-10-29T14:46:33.000Z</time>
      </trkpt>
      <trkpt lat="47.30061" lon="4.03587">
        <ele>486.39999389648</ele>
        <time>2022-10-29T14:46:34.000Z</time>
      </trkpt>
      <trkpt lat="47.30033" lon="4.03559">
        <ele>485</ele>
        <time>2022-10-29T14:46:37.000Z</time>
      </trkpt>
      <trkpt lat="47.30012" lon="4.03527">
        <ele>483.79998779297</ele>
        <time>2022-10-29T14:46:40.000Z</time>
      </trkpt>
      <trkpt lat="47.30004" lon="4.03513">
        <ele>483.39999389648</ele>
        <time>2022-10-29T14:46:41.000Z</time>
      </trkpt>
      <trkpt lat="47.29999" lon="4.035">
        <ele>482.60000610352</ele>
        <time>2022-10-29T14:46:42.000Z</time>
      </trkpt>
      <trkpt lat="47.2999" lon="4.03476">
        <ele>481.60000610352</ele>
        <time>2022-10-29T14:46:44.000Z</time>
      </trkpt>
      <trkpt lat="47.29981" lon="4.03445">
        <ele>481</ele>
        <time>2022-10-29T14:46:46.000Z</time>
      </trkpt>
      <trkpt lat="47.29973" lon="4.03418">
        <ele>480.20001220703</ele>
        <time>2022-10-29T14:46:48.000Z</time>
      </trkpt>
      <trkpt lat="47.29964" lon="4.03392">
        <ele>479</ele>
        <time>2022-10-29T14:46:50.000Z</time>
      </trkpt>
      <trkpt lat="47.29959" lon="4.0338">
        <ele>478.39999389648</ele>
        <time>2022-10-29T14:46:51.000Z</time>
      </trkpt>
      <trkpt lat="47.29953" lon="4.03368">
        <ele>478</ele>
        <time>2022-10-29T14:46:52.000Z</time>
      </trkpt>
      <trkpt lat="47.29932" lon="4.03333">
        <ele>476.79998779297</ele>
        <time>2022-10-29T14:46:55.000Z</time>
      </trkpt>
      <trkpt lat="47.29924" lon="4.03322">
        <ele>476.39999389648</ele>
        <time>2022-10-29T14:46:56.000Z</time>
      </trkpt>
      <trkpt lat="47.29908" lon="4.03301">
        <ele>475.39999389648</ele>
        <time>2022-10-29T14:46:58.000Z</time>
      </trkpt>
      <trkpt lat="47.29882" lon="4.0327">
        <ele>473.79998779297</ele>
        <time>2022-10-29T14:47:01.000Z</time>
      </trkpt>
      <trkpt lat="47.29874" lon="4.0326">
        <ele>473.39999389648</ele>
        <time>2022-10-29T14:47:02.000Z</time>
      </trkpt>
      <trkpt lat="47.29856" lon="4.0324">
        <ele>472.60000610352</ele>
        <time>2022-10-29T14:47:04.000Z</time>
      </trkpt>
      <trkpt lat="47.29846" lon="4.0323">
        <ele>472</ele>
        <time>2022-10-29T14:47:05.000Z</time>
      </trkpt>
      <trkpt lat="47.29837" lon="4.03222">
        <ele>471.39999389648</ele>
        <time>2022-10-29T14:47:06.000Z</time>
      </trkpt>
      <trkpt lat="47.29827" lon="4.03215">
        <ele>470.20001220703</ele>
        <time>2022-10-29T14:47:07.000Z</time>
      </trkpt>
      <trkpt lat="47.29818" lon="4.03208">
        <ele>469.20001220703</ele>
        <time>2022-10-29T14:47:08.000Z</time>
      </trkpt>
      <trkpt lat="47.2981" lon="4.03202">
        <ele>469</ele>
        <time>2022-10-29T14:47:09.000Z</time>
      </trkpt>
      <trkpt lat="47.2977" lon="4.03176">
        <ele>467.60000610352</ele>
        <time>2022-10-29T14:47:13.000Z</time>
      </trkpt>
      <trkpt lat="47.2975" lon="4.03164">
        <ele>466.20001220703</ele>
        <time>2022-10-29T14:47:15.000Z</time>
      </trkpt>
      <trkpt lat="47.29738" lon="4.03156">
        <ele>465.79998779297</ele>
        <time>2022-10-29T14:47:16.000Z</time>
      </trkpt>
      <trkpt lat="47.29728" lon="4.0315">
        <ele>464.60000610352</ele>
        <time>2022-10-29T14:47:17.000Z</time>
      </trkpt>
      <trkpt lat="47.29701" lon="4.03133">
        <ele>463.39999389648</ele>
        <time>2022-10-29T14:47:20.000Z</time>
      </trkpt>
      <trkpt lat="47.29692" lon="4.03128">
        <ele>462.20001220703</ele>
        <time>2022-10-29T14:47:21.000Z</time>
      </trkpt>
      <trkpt lat="47.29683" lon="4.03123">
        <ele>461.60000610352</ele>
        <time>2022-10-29T14:47:22.000Z</time>
      </trkpt>
      <trkpt lat="47.29665" lon="4.03115">
        <ele>460.79998779297</ele>
        <time>2022-10-29T14:47:24.000Z</time>
      </trkpt>
      <trkpt lat="47.29634" lon="4.03106">
        <ele>459.39999389648</ele>
        <time>2022-10-29T14:47:27.000Z</time>
      </trkpt>
      <trkpt lat="47.29613" lon="4.03106">
        <ele>457.60000610352</ele>
        <time>2022-10-29T14:47:29.000Z</time>
      </trkpt>
      <trkpt lat="47.29592" lon="4.03111">
        <ele>456.39999389648</ele>
        <time>2022-10-29T14:47:31.000Z</time>
      </trkpt>
      <trkpt lat="47.29574" lon="4.0312">
        <ele>455.60000610352</ele>
        <time>2022-10-29T14:47:33.000Z</time>
      </trkpt>
      <trkpt lat="47.29566" lon="4.03126">
        <ele>454.39999389648</ele>
        <time>2022-10-29T14:47:34.000Z</time>
      </trkpt>
      <trkpt lat="47.29556" lon="4.03135">
        <ele>454</ele>
        <time>2022-10-29T14:47:35.000Z</time>
      </trkpt>
      <trkpt lat="47.29548" lon="4.03145">
        <ele>453.39999389648</ele>
        <time>2022-10-29T14:47:36.000Z</time>
      </trkpt>
      <trkpt lat="47.29539" lon="4.03158">
        <ele>453</ele>
        <time>2022-10-29T14:47:37.000Z</time>
      </trkpt>
      <trkpt lat="47.29528" lon="4.03178">
        <ele>452.39999389648</ele>
        <time>2022-10-29T14:47:39.000Z</time>
      </trkpt>
      <trkpt lat="47.29522" lon="4.0319">
        <ele>452</ele>
        <time>2022-10-29T14:47:40.000Z</time>
      </trkpt>
      <trkpt lat="47.29505" lon="4.03231">
        <ele>450.20001220703</ele>
        <time>2022-10-29T14:47:43.000Z</time>
      </trkpt>
      <trkpt lat="47.29493" lon="4.03254">
        <ele>448.20001220703</ele>
        <time>2022-10-29T14:47:45.000Z</time>
      </trkpt>
      <trkpt lat="47.29485" lon="4.03264">
        <ele>447.60000610352</ele>
        <time>2022-10-29T14:47:46.000Z</time>
      </trkpt>
      <trkpt lat="47.29476" lon="4.03268">
        <ele>447.20001220703</ele>
        <time>2022-10-29T14:47:47.000Z</time>
      </trkpt>
      <trkpt lat="47.29467" lon="4.03269">
        <ele>446.79998779297</ele>
        <time>2022-10-29T14:47:48.000Z</time>
      </trkpt>
      <trkpt lat="47.2946" lon="4.03266">
        <ele>446.39999389648</ele>
        <time>2022-10-29T14:47:49.000Z</time>
      </trkpt>
      <trkpt lat="47.29454" lon="4.0326">
        <ele>446.20001220703</ele>
        <time>2022-10-29T14:47:50.000Z</time>
      </trkpt>
      <trkpt lat="47.29449" lon="4.03251">
        <ele>446</ele>
        <time>2022-10-29T14:47:51.000Z</time>
      </trkpt>
      <trkpt lat="47.29447" lon="4.03242">
        <ele>445.60000610352</ele>
        <time>2022-10-29T14:47:52.000Z</time>
      </trkpt>
      <trkpt lat="47.29445" lon="4.03233">
        <ele>445.60000610352</ele>
        <time>2022-10-29T14:47:53.000Z</time>
      </trkpt>
      <trkpt lat="47.2944" lon="4.03209">
        <ele>445.39999389648</ele>
        <time>2022-10-29T14:47:56.000Z</time>
      </trkpt>
      <trkpt lat="47.29437" lon="4.03194">
        <ele>445.39999389648</ele>
        <time>2022-10-29T14:47:58.000Z</time>
      </trkpt>
      <trkpt lat="47.29429" lon="4.0316">
        <ele>446.20001220703</ele>
        <time>2022-10-29T14:48:03.000Z</time>
      </trkpt>
      <trkpt lat="47.29427" lon="4.03154">
        <ele>446</ele>
        <time>2022-10-29T14:48:04.000Z</time>
      </trkpt>
      <trkpt lat="47.29422" lon="4.03136">
        <ele>446.60000610352</ele>
        <time>2022-10-29T14:48:07.000Z</time>
      </trkpt>
      <trkpt lat="47.29421" lon="4.03131">
        <ele>446.60000610352</ele>
        <time>2022-10-29T14:48:08.000Z</time>
      </trkpt>
      <trkpt lat="47.2942" lon="4.03125">
        <ele>446.79998779297</ele>
        <time>2022-10-29T14:48:09.000Z</time>
      </trkpt>
      <trkpt lat="47.29414" lon="4.03102">
        <ele>447.20001220703</ele>
        <time>2022-10-29T14:48:14.000Z</time>
      </trkpt>
      <trkpt lat="47.29411" lon="4.03093">
        <ele>447.60000610352</ele>
        <time>2022-10-29T14:48:16.000Z</time>
      </trkpt>
      <trkpt lat="47.29407" lon="4.03078">
        <ele>448</ele>
        <time>2022-10-29T14:48:18.000Z</time>
      </trkpt>
      <trkpt lat="47.29401" lon="4.03056">
        <ele>448.79998779297</ele>
        <time>2022-10-29T14:48:21.000Z</time>
      </trkpt>
      <trkpt lat="47.29397" lon="4.03038">
        <ele>449</ele>
        <time>2022-10-29T14:48:24.000Z</time>
      </trkpt>
      <trkpt lat="47.29391" lon="4.03014">
        <ele>449.79998779297</ele>
        <time>2022-10-29T14:48:28.000Z</time>
      </trkpt>
      <trkpt lat="47.29391" lon="4.03008">
        <ele>449.79998779297</ele>
        <time>2022-10-29T14:48:29.000Z</time>
      </trkpt>
      <trkpt lat="47.29382" lon="4.02982">
        <ele>450.60000610352</ele>
        <time>2022-10-29T14:48:34.000Z</time>
      </trkpt>
      <trkpt lat="47.29382" lon="4.02978">
        <ele>450.79998779297</ele>
        <time>2022-10-29T14:48:35.000Z</time>
      </trkpt>
      <trkpt lat="47.29388" lon="4.02964">
        <ele>451.39999389648</ele>
        <time>2022-10-29T14:48:39.000Z</time>
      </trkpt>
      <trkpt lat="47.29389" lon="4.02959">
        <ele>451.60000610352</ele>
        <time>2022-10-29T14:48:41.000Z</time>
      </trkpt>
      <trkpt lat="47.29387" lon="4.02956">
        <ele>451.60000610352</ele>
        <time>2022-10-29T14:48:42.000Z</time>
      </trkpt>
      <trkpt lat="47.29385" lon="4.02949">
        <ele>451.79998779297</ele>
        <time>2022-10-29T14:48:43.000Z</time>
      </trkpt>
      <trkpt lat="47.29384" lon="4.02944">
        <ele>451.79998779297</ele>
        <time>2022-10-29T14:48:44.000Z</time>
      </trkpt>
      <trkpt lat="47.29384" lon="4.02922">
        <ele>452.20001220703</ele>
        <time>2022-10-29T14:48:49.000Z</time>
      </trkpt>
      <trkpt lat="47.29388" lon="4.02898">
        <ele>452.79998779297</ele>
        <time>2022-10-29T14:48:53.000Z</time>
      </trkpt>
      <trkpt lat="47.2939" lon="4.02884">
        <ele>453.20001220703</ele>
        <time>2022-10-29T14:48:55.000Z</time>
      </trkpt>
      <trkpt lat="47.29393" lon="4.0286">
        <ele>453.79998779297</ele>
        <time>2022-10-29T14:48:59.000Z</time>
      </trkpt>
      <trkpt lat="47.29392" lon="4.02854">
        <ele>453.79998779297</ele>
        <time>2022-10-29T14:49:00.000Z</time>
      </trkpt>
      <trkpt lat="47.29397" lon="4.02835">
        <ele>454.39999389648</ele>
        <time>2022-10-29T14:49:05.000Z</time>
      </trkpt>
      <trkpt lat="47.29404" lon="4.0282">
        <ele>455</ele>
        <time>2022-10-29T14:49:09.000Z</time>
      </trkpt>
      <trkpt lat="47.29406" lon="4.02816">
        <ele>455.20001220703</ele>
        <time>2022-10-29T14:49:10.000Z</time>
      </trkpt>
      <trkpt lat="47.29427" lon="4.02793">
        <ele>456.20001220703</ele>
        <time>2022-10-29T14:49:18.000Z</time>
      </trkpt>
      <trkpt lat="47.29442" lon="4.02778">
        <ele>457.20001220703</ele>
        <time>2022-10-29T14:49:24.000Z</time>
      </trkpt>
      <trkpt lat="47.29445" lon="4.02776">
        <ele>457.39999389648</ele>
        <time>2022-10-29T14:49:25.000Z</time>
      </trkpt>
      <trkpt lat="47.29457" lon="4.02764">
        <ele>458.20001220703</ele>
        <time>2022-10-29T14:49:30.000Z</time>
      </trkpt>
      <trkpt lat="47.29472" lon="4.02744">
        <ele>459.39999389648</ele>
        <time>2022-10-29T14:49:37.000Z</time>
      </trkpt>
      <trkpt lat="47.29474" lon="4.02741">
        <ele>459.60000610352</ele>
        <time>2022-10-29T14:49:38.000Z</time>
      </trkpt>
      <trkpt lat="47.29485" lon="4.02716">
        <ele>460.39999389648</ele>
        <time>2022-10-29T14:49:45.000Z</time>
      </trkpt>
      <trkpt lat="47.29486" lon="4.02713">
        <ele>460.60000610352</ele>
        <time>2022-10-29T14:49:46.000Z</time>
      </trkpt>
      <trkpt lat="47.29491" lon="4.02688">
        <ele>461.60000610352</ele>
        <time>2022-10-29T14:49:52.000Z</time>
      </trkpt>
      <trkpt lat="47.29492" lon="4.02679">
        <ele>462</ele>
        <time>2022-10-29T14:49:54.000Z</time>
      </trkpt>
      <trkpt lat="47.29491" lon="4.02661">
        <ele>462.60000610352</ele>
        <time>2022-10-29T14:49:58.000Z</time>
      </trkpt>
      <trkpt lat="47.2949" lon="4.02648">
        <ele>463</ele>
        <time>2022-10-29T14:50:01.000Z</time>
      </trkpt>
      <trkpt lat="47.29487" lon="4.0263">
        <ele>463.79998779297</ele>
        <time>2022-10-29T14:50:05.000Z</time>
      </trkpt>
      <trkpt lat="47.29479" lon="4.0261">
        <ele>464.60000610352</ele>
        <time>2022-10-29T14:50:10.000Z</time>
      </trkpt>
      <trkpt lat="47.29476" lon="4.02602">
        <ele>464.79998779297</ele>
        <time>2022-10-29T14:50:12.000Z</time>
      </trkpt>
      <trkpt lat="47.29468" lon="4.02589">
        <ele>465.39999389648</ele>
        <time>2022-10-29T14:50:16.000Z</time>
      </trkpt>
      <trkpt lat="47.29464" lon="4.02583">
        <ele>466</ele>
        <time>2022-10-29T14:50:18.000Z</time>
      </trkpt>
      <trkpt lat="47.29452" lon="4.02572">
        <ele>467</ele>
        <time>2022-10-29T14:50:23.000Z</time>
      </trkpt>
      <trkpt lat="47.29449" lon="4.02571">
        <ele>467.20001220703</ele>
        <time>2022-10-29T14:50:24.000Z</time>
      </trkpt>
      <trkpt lat="47.29428" lon="4.02563">
        <ele>468.20001220703</ele>
        <time>2022-10-29T14:50:31.000Z</time>
      </trkpt>
      <trkpt lat="47.2941" lon="4.02559">
        <ele>469</ele>
        <time>2022-10-29T14:50:37.000Z</time>
      </trkpt>
      <trkpt lat="47.29404" lon="4.02558">
        <ele>469.20001220703</ele>
        <time>2022-10-29T14:50:39.000Z</time>
      </trkpt>
      <trkpt lat="47.29385" lon="4.02553">
        <ele>470.20001220703</ele>
        <time>2022-10-29T14:50:45.000Z</time>
      </trkpt>
      <trkpt lat="47.29382" lon="4.02552">
        <ele>470.39999389648</ele>
        <time>2022-10-29T14:50:46.000Z</time>
      </trkpt>
      <trkpt lat="47.29367" lon="4.02546">
        <ele>471.39999389648</ele>
        <time>2022-10-29T14:50:51.000Z</time>
      </trkpt>
      <trkpt lat="47.2935" lon="4.02537">
        <ele>472</ele>
        <time>2022-10-29T14:50:57.000Z</time>
      </trkpt>
      <trkpt lat="47.29341" lon="4.02533">
        <ele>472.39999389648</ele>
        <time>2022-10-29T14:51:00.000Z</time>
      </trkpt>
      <trkpt lat="47.29327" lon="4.02525">
        <ele>473.20001220703</ele>
        <time>2022-10-29T14:51:05.000Z</time>
      </trkpt>
      <trkpt lat="47.29322" lon="4.02522">
        <ele>473.39999389648</ele>
        <time>2022-10-29T14:51:07.000Z</time>
      </trkpt>
      <trkpt lat="47.29303" lon="4.02511">
        <ele>474.60000610352</ele>
        <time>2022-10-29T14:51:14.000Z</time>
      </trkpt>
      <trkpt lat="47.29297" lon="4.02508">
        <ele>474.39999389648</ele>
        <time>2022-10-29T14:51:16.000Z</time>
      </trkpt>
      <trkpt lat="47.29279" lon="4.02497">
        <ele>475.39999389648</ele>
        <time>2022-10-29T14:51:23.000Z</time>
      </trkpt>
      <trkpt lat="47.29263" lon="4.02488">
        <ele>476.39999389648</ele>
        <time>2022-10-29T14:51:29.000Z</time>
      </trkpt>
      <trkpt lat="47.29257" lon="4.02484">
        <ele>476.60000610352</ele>
        <time>2022-10-29T14:51:31.000Z</time>
      </trkpt>
      <trkpt lat="47.29242" lon="4.02476">
        <ele>477.79998779297</ele>
        <time>2022-10-29T14:51:36.000Z</time>
      </trkpt>
      <trkpt lat="47.29239" lon="4.02474">
        <ele>478</ele>
        <time>2022-10-29T14:51:37.000Z</time>
      </trkpt>
      <trkpt lat="47.29223" lon="4.02464">
        <ele>478.79998779297</ele>
        <time>2022-10-29T14:51:43.000Z</time>
      </trkpt>
      <trkpt lat="47.29214" lon="4.02459">
        <ele>479.20001220703</ele>
        <time>2022-10-29T14:51:46.000Z</time>
      </trkpt>
      <trkpt lat="47.29197" lon="4.02449">
        <ele>480</ele>
        <time>2022-10-29T14:51:52.000Z</time>
      </trkpt>
      <trkpt lat="47.29191" lon="4.02446">
        <ele>480.60000610352</ele>
        <time>2022-10-29T14:51:54.000Z</time>
      </trkpt>
      <trkpt lat="47.29183" lon="4.02441">
        <ele>481.20001220703</ele>
        <time>2022-10-29T14:51:57.000Z</time>
      </trkpt>
      <trkpt lat="47.29157" lon="4.02427">
        <ele>482.39999389648</ele>
        <time>2022-10-29T14:52:06.000Z</time>
      </trkpt>
      <trkpt lat="47.29143" lon="4.02419">
        <ele>483.79998779297</ele>
        <time>2022-10-29T14:52:11.000Z</time>
      </trkpt>
      <trkpt lat="47.2913" lon="4.02412">
        <ele>484.20001220703</ele>
        <time>2022-10-29T14:52:16.000Z</time>
      </trkpt>
      <trkpt lat="47.29121" lon="4.02407">
        <ele>484.79998779297</ele>
        <time>2022-10-29T14:52:19.000Z</time>
      </trkpt>
      <trkpt lat="47.29104" lon="4.02398">
        <ele>485.39999389648</ele>
        <time>2022-10-29T14:52:25.000Z</time>
      </trkpt>
      <trkpt lat="47.29099" lon="4.02396">
        <ele>485.79998779297</ele>
        <time>2022-10-29T14:52:27.000Z</time>
      </trkpt>
      <trkpt lat="47.29086" lon="4.02388">
        <ele>486.39999389648</ele>
        <time>2022-10-29T14:52:32.000Z</time>
      </trkpt>
      <trkpt lat="47.29081" lon="4.02385">
        <ele>486.79998779297</ele>
        <time>2022-10-29T14:52:34.000Z</time>
      </trkpt>
      <trkpt lat="47.29069" lon="4.02379">
        <ele>487.39999389648</ele>
        <time>2022-10-29T14:52:38.000Z</time>
      </trkpt>
      <trkpt lat="47.29055" lon="4.02371">
        <ele>488</ele>
        <time>2022-10-29T14:52:43.000Z</time>
      </trkpt>
      <trkpt lat="47.29036" lon="4.0236">
        <ele>489.20001220703</ele>
        <time>2022-10-29T14:52:50.000Z</time>
      </trkpt>
      <trkpt lat="47.29034" lon="4.02359">
        <ele>489.20001220703</ele>
        <time>2022-10-29T14:52:51.000Z</time>
      </trkpt>
      <trkpt lat="47.29017" lon="4.02349">
        <ele>490</ele>
        <time>2022-10-29T14:52:57.000Z</time>
      </trkpt>
      <trkpt lat="47.29012" lon="4.02345">
        <ele>490.20001220703</ele>
        <time>2022-10-29T14:52:59.000Z</time>
      </trkpt>
      <trkpt lat="47.28996" lon="4.02333">
        <ele>491</ele>
        <time>2022-10-29T14:53:05.000Z</time>
      </trkpt>
      <trkpt lat="47.28993" lon="4.02331">
        <ele>491.39999389648</ele>
        <time>2022-10-29T14:53:06.000Z</time>
      </trkpt>
      <trkpt lat="47.28974" lon="4.02316">
        <ele>492.60000610352</ele>
        <time>2022-10-29T14:53:13.000Z</time>
      </trkpt>
      <trkpt lat="47.28969" lon="4.02312">
        <ele>492.79998779297</ele>
        <time>2022-10-29T14:53:15.000Z</time>
      </trkpt>
      <trkpt lat="47.28956" lon="4.023">
        <ele>493.60000610352</ele>
        <time>2022-10-29T14:53:20.000Z</time>
      </trkpt>
      <trkpt lat="47.28944" lon="4.02288">
        <ele>494.39999389648</ele>
        <time>2022-10-29T14:53:25.000Z</time>
      </trkpt>
      <trkpt lat="47.28939" lon="4.02283">
        <ele>494.60000610352</ele>
        <time>2022-10-29T14:53:27.000Z</time>
      </trkpt>
      <trkpt lat="47.28923" lon="4.02264">
        <ele>495.39999389648</ele>
        <time>2022-10-29T14:53:34.000Z</time>
      </trkpt>
      <trkpt lat="47.28916" lon="4.02256">
        <ele>496</ele>
        <time>2022-10-29T14:53:37.000Z</time>
      </trkpt>
      <trkpt lat="47.28903" lon="4.02243">
        <ele>496.60000610352</ele>
        <time>2022-10-29T14:53:42.000Z</time>
      </trkpt>
      <trkpt lat="47.28891" lon="4.02229">
        <ele>497.39999389648</ele>
        <time>2022-10-29T14:53:47.000Z</time>
      </trkpt>
      <trkpt lat="47.28886" lon="4.02224">
        <ele>497.79998779297</ele>
        <time>2022-10-29T14:53:49.000Z</time>
      </trkpt>
      <trkpt lat="47.2887" lon="4.02206">
        <ele>498.60000610352</ele>
        <time>2022-10-29T14:53:55.000Z</time>
      </trkpt>
      <trkpt lat="47.28863" lon="4.02199">
        <ele>499</ele>
        <time>2022-10-29T14:53:58.000Z</time>
      </trkpt>
      <trkpt lat="47.28848" lon="4.02186">
        <ele>500.20001220703</ele>
        <time>2022-10-29T14:54:04.000Z</time>
      </trkpt>
      <trkpt lat="47.28824" lon="4.02166">
        <ele>501.20001220703</ele>
        <time>2022-10-29T14:54:13.000Z</time>
      </trkpt>
      <trkpt lat="47.28803" lon="4.02159">
        <ele>502</ele>
        <time>2022-10-29T14:54:20.000Z</time>
      </trkpt>
      <trkpt lat="47.28794" lon="4.02156">
        <ele>502.39999389648</ele>
        <time>2022-10-29T14:54:23.000Z</time>
      </trkpt>
      <trkpt lat="47.28769" lon="4.02149">
        <ele>503.39999389648</ele>
        <time>2022-10-29T14:54:31.000Z</time>
      </trkpt>
      <trkpt lat="47.28743" lon="4.02144">
        <ele>504.60000610352</ele>
        <time>2022-10-29T14:54:39.000Z</time>
      </trkpt>
      <trkpt lat="47.28721" lon="4.02139">
        <ele>505.60000610352</ele>
        <time>2022-10-29T14:54:46.000Z</time>
      </trkpt>
      <trkpt lat="47.28714" lon="4.02137">
        <ele>506.20001220703</ele>
        <time>2022-10-29T14:54:48.000Z</time>
      </trkpt>
      <trkpt lat="47.28693" lon="4.02132">
        <ele>506.79998779297</ele>
        <time>2022-10-29T14:54:55.000Z</time>
      </trkpt>
      <trkpt lat="47.28687" lon="4.0213">
        <ele>507.20001220703</ele>
        <time>2022-10-29T14:54:57.000Z</time>
      </trkpt>
      <trkpt lat="47.28675" lon="4.02128">
        <ele>508</ele>
        <time>2022-10-29T14:55:01.000Z</time>
      </trkpt>
      <trkpt lat="47.28653" lon="4.02123">
        <ele>509</ele>
        <time>2022-10-29T14:55:08.000Z</time>
      </trkpt>
      <trkpt lat="47.28633" lon="4.02118">
        <ele>510</ele>
        <time>2022-10-29T14:55:15.000Z</time>
      </trkpt>
      <trkpt lat="47.28625" lon="4.02114">
        <ele>510.20001220703</ele>
        <time>2022-10-29T14:55:18.000Z</time>
      </trkpt>
      <trkpt lat="47.2861" lon="4.02111">
        <ele>511</ele>
        <time>2022-10-29T14:55:23.000Z</time>
      </trkpt>
      <trkpt lat="47.286" lon="4.02109">
        <ele>511.39999389648</ele>
        <time>2022-10-29T14:55:26.000Z</time>
      </trkpt>
      <trkpt lat="47.28581" lon="4.02104">
        <ele>512.20001220703</ele>
        <time>2022-10-29T14:55:32.000Z</time>
      </trkpt>
      <trkpt lat="47.28566" lon="4.021">
        <ele>513</ele>
        <time>2022-10-29T14:55:37.000Z</time>
      </trkpt>
      <trkpt lat="47.28563" lon="4.02099">
        <ele>513.20001220703</ele>
        <time>2022-10-29T14:55:38.000Z</time>
      </trkpt>
      <trkpt lat="47.28538" lon="4.02089">
        <ele>514.20001220703</ele>
        <time>2022-10-29T14:55:46.000Z</time>
      </trkpt>
      <trkpt lat="47.28532" lon="4.02085">
        <ele>514.40002441406</ele>
        <time>2022-10-29T14:55:48.000Z</time>
      </trkpt>
      <trkpt lat="47.2851" lon="4.02068">
        <ele>515.20001220703</ele>
        <time>2022-10-29T14:55:56.000Z</time>
      </trkpt>
      <trkpt lat="47.28507" lon="4.02066">
        <ele>515.40002441406</ele>
        <time>2022-10-29T14:55:57.000Z</time>
      </trkpt>
      <trkpt lat="47.2849" lon="4.02051">
        <ele>516.40002441406</ele>
        <time>2022-10-29T14:56:04.000Z</time>
      </trkpt>
      <trkpt lat="47.28488" lon="4.02049">
        <ele>516.40002441406</ele>
        <time>2022-10-29T14:56:05.000Z</time>
      </trkpt>
      <trkpt lat="47.28469" lon="4.02034">
        <ele>517.59997558594</ele>
        <time>2022-10-29T14:56:12.000Z</time>
      </trkpt>
      <trkpt lat="47.28467" lon="4.02032">
        <ele>517.59997558594</ele>
        <time>2022-10-29T14:56:13.000Z</time>
      </trkpt>
      <trkpt lat="47.28451" lon="4.02019">
        <ele>518.59997558594</ele>
        <time>2022-10-29T14:56:20.000Z</time>
      </trkpt>
      <trkpt lat="47.28447" lon="4.02015">
        <ele>518.79998779297</ele>
        <time>2022-10-29T14:56:22.000Z</time>
      </trkpt>
      <trkpt lat="47.28431" lon="4.01998">
        <ele>519.59997558594</ele>
        <time>2022-10-29T14:56:31.000Z</time>
      </trkpt>
      <trkpt lat="47.28423" lon="4.01977">
        <ele>520.40002441406</ele>
        <time>2022-10-29T14:56:38.000Z</time>
      </trkpt>
      <trkpt lat="47.28421" lon="4.0197">
        <ele>520.79998779297</ele>
        <time>2022-10-29T14:56:40.000Z</time>
      </trkpt>
      <trkpt lat="47.28419" lon="4.01952">
        <ele>521.59997558594</ele>
        <time>2022-10-29T14:56:45.000Z</time>
      </trkpt>
      <trkpt lat="47.28418" lon="4.01945">
        <ele>522</ele>
        <time>2022-10-29T14:56:47.000Z</time>
      </trkpt>
      <trkpt lat="47.28418" lon="4.01931">
        <ele>522.59997558594</ele>
        <time>2022-10-29T14:56:51.000Z</time>
      </trkpt>
      <trkpt lat="47.28419" lon="4.01922">
        <ele>523</ele>
        <time>2022-10-29T14:56:54.000Z</time>
      </trkpt>
      <trkpt lat="47.28419" lon="4.01918">
        <ele>523.20001220703</ele>
        <time>2022-10-29T14:56:56.000Z</time>
      </trkpt>
      <trkpt lat="47.28415" lon="4.01904">
        <ele>523.59997558594</ele>
        <time>2022-10-29T14:57:00.000Z</time>
      </trkpt>
      <trkpt lat="47.28415" lon="4.019">
        <ele>523.59997558594</ele>
        <time>2022-10-29T14:57:01.000Z</time>
      </trkpt>
      <trkpt lat="47.28414" lon="4.01897">
        <ele>523.79998779297</ele>
        <time>2022-10-29T14:57:02.000Z</time>
      </trkpt>
      <trkpt lat="47.28411" lon="4.01895">
        <ele>524</ele>
        <time>2022-10-29T14:57:04.000Z</time>
      </trkpt>
      <trkpt lat="47.2841" lon="4.01896">
        <ele>524</ele>
        <time>2022-10-29T14:57:05.000Z</time>
      </trkpt>
      <trkpt lat="47.2841" lon="4.01899">
        <ele>524.40002441406</ele>
        <time>2022-10-29T14:57:10.000Z</time>
      </trkpt>
      <trkpt lat="47.2841" lon="4.019">
        <ele>524.79998779297</ele>
        <time>2022-10-29T14:58:03.000Z</time>
      </trkpt>
      <trkpt lat="47.28409" lon="4.01899">
        <ele>524.40002441406</ele>
        <time>2022-10-29T14:58:07.000Z</time>
      </trkpt>
      <trkpt lat="47.28409" lon="4.01897">
        <ele>524.40002441406</ele>
        <time>2022-10-29T14:58:09.000Z</time>
      </trkpt>
      <trkpt lat="47.2841" lon="4.01895">
        <ele>524.40002441406</ele>
        <time>2022-10-29T14:58:17.000Z</time>
      </trkpt>
      <trkpt lat="47.28409" lon="4.01894">
        <ele>524.79998779297</ele>
        <time>2022-10-29T14:59:27.000Z</time>
      </trkpt>
      <trkpt lat="47.28414" lon="4.01893">
        <ele>524.79998779297</ele>
        <time>2022-10-29T14:59:30.000Z</time>
      </trkpt>
      <trkpt lat="47.28418" lon="4.01892">
        <ele>524.79998779297</ele>
        <time>2022-10-29T14:59:32.000Z</time>
      </trkpt>
      <trkpt lat="47.28422" lon="4.01887">
        <ele>524.79998779297</ele>
        <time>2022-10-29T14:59:34.000Z</time>
      </trkpt>
      <trkpt lat="47.28424" lon="4.0188">
        <ele>524.79998779297</ele>
        <time>2022-10-29T14:59:36.000Z</time>
      </trkpt>
      <trkpt lat="47.2843" lon="4.01859">
        <ele>525.20001220703</ele>
        <time>2022-10-29T14:59:41.000Z</time>
      </trkpt>
      <trkpt lat="47.28436" lon="4.01825">
        <ele>526</ele>
        <time>2022-10-29T14:59:48.000Z</time>
      </trkpt>
      <trkpt lat="47.28436" lon="4.01819">
        <ele>526</ele>
        <time>2022-10-29T14:59:49.000Z</time>
      </trkpt>
      <trkpt lat="47.2844" lon="4.01777">
        <ele>526.59997558594</ele>
        <time>2022-10-29T14:59:57.000Z</time>
      </trkpt>
      <trkpt lat="47.28443" lon="4.01754">
        <ele>527</ele>
        <time>2022-10-29T15:00:02.000Z</time>
      </trkpt>
      <trkpt lat="47.28444" lon="4.0174">
        <ele>527.20001220703</ele>
        <time>2022-10-29T15:00:05.000Z</time>
      </trkpt>
      <trkpt lat="47.28448" lon="4.01702">
        <ele>528</ele>
        <time>2022-10-29T15:00:13.000Z</time>
      </trkpt>
      <trkpt lat="47.28448" lon="4.01697">
        <ele>528.20001220703</ele>
        <time>2022-10-29T15:00:14.000Z</time>
      </trkpt>
      <trkpt lat="47.2845" lon="4.01669">
        <ele>528.79998779297</ele>
        <time>2022-10-29T15:00:20.000Z</time>
      </trkpt>
      <trkpt lat="47.28449" lon="4.01655">
        <ele>529.20001220703</ele>
        <time>2022-10-29T15:00:23.000Z</time>
      </trkpt>
      <trkpt lat="47.28447" lon="4.01622">
        <ele>530</ele>
        <time>2022-10-29T15:00:30.000Z</time>
      </trkpt>
      <trkpt lat="47.28444" lon="4.0159">
        <ele>530.20001220703</ele>
        <time>2022-10-29T15:00:37.000Z</time>
      </trkpt>
      <trkpt lat="47.28442" lon="4.01585">
        <ele>530.20001220703</ele>
        <time>2022-10-29T15:00:38.000Z</time>
      </trkpt>
      <trkpt lat="47.28437" lon="4.01583">
        <ele>530.40002441406</ele>
        <time>2022-10-29T15:00:40.000Z</time>
      </trkpt>
      <trkpt lat="47.28434" lon="4.01583">
        <ele>530.40002441406</ele>
        <time>2022-10-29T15:00:41.000Z</time>
      </trkpt>
      <trkpt lat="47.28422" lon="4.01586">
        <ele>531</ele>
        <time>2022-10-29T15:00:46.000Z</time>
      </trkpt>
      <trkpt lat="47.28415" lon="4.01588">
        <ele>531.40002441406</ele>
        <time>2022-10-29T15:00:49.000Z</time>
      </trkpt>
      <trkpt lat="47.28409" lon="4.0159">
        <ele>531.79998779297</ele>
        <time>2022-10-29T15:00:52.000Z</time>
      </trkpt>
      <trkpt lat="47.28407" lon="4.01591">
        <ele>532</ele>
        <time>2022-10-29T15:00:53.000Z</time>
      </trkpt>
      <trkpt lat="47.284" lon="4.01591">
        <ele>532.40002441406</ele>
        <time>2022-10-29T15:00:56.000Z</time>
      </trkpt>
      <trkpt lat="47.28396" lon="4.01592">
        <ele>532.79998779297</ele>
        <time>2022-10-29T15:00:58.000Z</time>
      </trkpt>
      <trkpt lat="47.28389" lon="4.01594">
        <ele>533.40002441406</ele>
        <time>2022-10-29T15:01:01.000Z</time>
      </trkpt>
      <trkpt lat="47.28382" lon="4.01598">
        <ele>534.20001220703</ele>
        <time>2022-10-29T15:01:04.000Z</time>
      </trkpt>
      <trkpt lat="47.28377" lon="4.01601">
        <ele>534.59997558594</ele>
        <time>2022-10-29T15:01:06.000Z</time>
      </trkpt>
      <trkpt lat="47.28368" lon="4.01609">
        <ele>535.59997558594</ele>
        <time>2022-10-29T15:01:11.000Z</time>
      </trkpt>
      <trkpt lat="47.28367" lon="4.0161">
        <ele>535.40002441406</ele>
        <time>2022-10-29T15:01:12.000Z</time>
      </trkpt>
      <trkpt lat="47.28359" lon="4.01622">
        <ele>536.59997558594</ele>
        <time>2022-10-29T15:01:17.000Z</time>
      </trkpt>
      <trkpt lat="47.28358" lon="4.01625">
        <ele>536.59997558594</ele>
        <time>2022-10-29T15:01:18.000Z</time>
      </trkpt>
      <trkpt lat="47.28352" lon="4.01642">
        <ele>537.59997558594</ele>
        <time>2022-10-29T15:01:23.000Z</time>
      </trkpt>
      <trkpt lat="47.28349" lon="4.01653">
        <ele>538</ele>
        <time>2022-10-29T15:01:26.000Z</time>
      </trkpt>
      <trkpt lat="47.28346" lon="4.01669">
        <ele>538.79998779297</ele>
        <time>2022-10-29T15:01:30.000Z</time>
      </trkpt>
      <trkpt lat="47.28342" lon="4.01688">
        <ele>539.59997558594</ele>
        <time>2022-10-29T15:01:35.000Z</time>
      </trkpt>
      <trkpt lat="47.28341" lon="4.01699">
        <ele>539.79998779297</ele>
        <time>2022-10-29T15:01:38.000Z</time>
      </trkpt>
      <trkpt lat="47.2834" lon="4.01712">
        <ele>540.20001220703</ele>
        <time>2022-10-29T15:01:41.000Z</time>
      </trkpt>
      <trkpt lat="47.2834" lon="4.01737">
        <ele>541</ele>
        <time>2022-10-29T15:01:47.000Z</time>
      </trkpt>
      <trkpt lat="47.28341" lon="4.01745">
        <ele>541.20001220703</ele>
        <time>2022-10-29T15:01:49.000Z</time>
      </trkpt>
      <trkpt lat="47.2834" lon="4.01771">
        <ele>542</ele>
        <time>2022-10-29T15:01:56.000Z</time>
      </trkpt>
      <trkpt lat="47.28333" lon="4.01796">
        <ele>542.59997558594</ele>
        <time>2022-10-29T15:02:03.000Z</time>
      </trkpt>
      <trkpt lat="47.28327" lon="4.01803">
        <ele>543</ele>
        <time>2022-10-29T15:02:06.000Z</time>
      </trkpt>
      <trkpt lat="47.28317" lon="4.01811">
        <ele>543.59997558594</ele>
        <time>2022-10-29T15:02:10.000Z</time>
      </trkpt>
      <trkpt lat="47.28309" lon="4.01814">
        <ele>544.20001220703</ele>
        <time>2022-10-29T15:02:13.000Z</time>
      </trkpt>
      <trkpt lat="47.28296" lon="4.0182">
        <ele>544.79998779297</ele>
        <time>2022-10-29T15:02:18.000Z</time>
      </trkpt>
      <trkpt lat="47.28291" lon="4.01821">
        <ele>545.20001220703</ele>
        <time>2022-10-29T15:02:20.000Z</time>
      </trkpt>
      <trkpt lat="47.28276" lon="4.01826">
        <ele>546.40002441406</ele>
        <time>2022-10-29T15:02:26.000Z</time>
      </trkpt>
      <trkpt lat="47.28261" lon="4.01827">
        <ele>547.59997558594</ele>
        <time>2022-10-29T15:02:32.000Z</time>
      </trkpt>
      <trkpt lat="47.28254" lon="4.01828">
        <ele>548.20001220703</ele>
        <time>2022-10-29T15:02:35.000Z</time>
      </trkpt>
      <trkpt lat="47.28248" lon="4.01829">
        <ele>548.59997558594</ele>
        <time>2022-10-29T15:02:37.000Z</time>
      </trkpt>
      <trkpt lat="47.28232" lon="4.01831">
        <ele>549.59997558594</ele>
        <time>2022-10-29T15:02:43.000Z</time>
      </trkpt>
      <trkpt lat="47.2823" lon="4.01832">
        <ele>549.79998779297</ele>
        <time>2022-10-29T15:02:44.000Z</time>
      </trkpt>
      <trkpt lat="47.28214" lon="4.01834">
        <ele>550.79998779297</ele>
        <time>2022-10-29T15:02:50.000Z</time>
      </trkpt>
      <trkpt lat="47.28209" lon="4.01834">
        <ele>551.20001220703</ele>
        <time>2022-10-29T15:02:52.000Z</time>
      </trkpt>
      <trkpt lat="47.282" lon="4.01835">
        <ele>551.79998779297</ele>
        <time>2022-10-29T15:02:55.000Z</time>
      </trkpt>
      <trkpt lat="47.28192" lon="4.01835">
        <ele>552.20001220703</ele>
        <time>2022-10-29T15:02:58.000Z</time>
      </trkpt>
      <trkpt lat="47.2818" lon="4.01837">
        <ele>552.79998779297</ele>
        <time>2022-10-29T15:03:02.000Z</time>
      </trkpt>
      <trkpt lat="47.2817" lon="4.01838">
        <ele>553.59997558594</ele>
        <time>2022-10-29T15:03:06.000Z</time>
      </trkpt>
      <trkpt lat="47.28162" lon="4.0184">
        <ele>554</ele>
        <time>2022-10-29T15:03:09.000Z</time>
      </trkpt>
      <trkpt lat="47.28145" lon="4.01842">
        <ele>554.20001220703</ele>
        <time>2022-10-29T15:03:15.000Z</time>
      </trkpt>
      <trkpt lat="47.28131" lon="4.01844">
        <ele>554.79998779297</ele>
        <time>2022-10-29T15:03:20.000Z</time>
      </trkpt>
      <trkpt lat="47.28119" lon="4.01847">
        <ele>555.20001220703</ele>
        <time>2022-10-29T15:03:24.000Z</time>
      </trkpt>
      <trkpt lat="47.28101" lon="4.01853">
        <ele>556</ele>
        <time>2022-10-29T15:03:30.000Z</time>
      </trkpt>
      <trkpt lat="47.28095" lon="4.01856">
        <ele>556.40002441406</ele>
        <time>2022-10-29T15:03:32.000Z</time>
      </trkpt>
      <trkpt lat="47.28073" lon="4.01868">
        <ele>557</ele>
        <time>2022-10-29T15:03:40.000Z</time>
      </trkpt>
      <trkpt lat="47.2807" lon="4.0187">
        <ele>557</ele>
        <time>2022-10-29T15:03:41.000Z</time>
      </trkpt>
      <trkpt lat="47.28049" lon="4.01888">
        <ele>557.79998779297</ele>
        <time>2022-10-29T15:03:49.000Z</time>
      </trkpt>
      <trkpt lat="47.28042" lon="4.01896">
        <ele>558.20001220703</ele>
        <time>2022-10-29T15:03:52.000Z</time>
      </trkpt>
      <trkpt lat="47.28034" lon="4.01902">
        <ele>558.20001220703</ele>
        <time>2022-10-29T15:03:56.000Z</time>
      </trkpt>
      <trkpt lat="47.28022" lon="4.01909">
        <ele>558.40002441406</ele>
        <time>2022-10-29T15:04:02.000Z</time>
      </trkpt>
      <trkpt lat="47.28021" lon="4.0191">
        <ele>558.40002441406</ele>
        <time>2022-10-29T15:04:03.000Z</time>
      </trkpt>
      <trkpt lat="47.28017" lon="4.01913">
        <ele>559</ele>
        <time>2022-10-29T15:04:06.000Z</time>
      </trkpt>
      <trkpt lat="47.28016" lon="4.01913">
        <ele>559</ele>
        <time>2022-10-29T15:04:07.000Z</time>
      </trkpt>
      <trkpt lat="47.2801" lon="4.01912">
        <ele>559</ele>
        <time>2022-10-29T15:04:10.000Z</time>
      </trkpt>
      <trkpt lat="47.27997" lon="4.01907">
        <ele>559.59997558594</ele>
        <time>2022-10-29T15:04:16.000Z</time>
      </trkpt>
      <trkpt lat="47.27992" lon="4.01906">
        <ele>560</ele>
        <time>2022-10-29T15:04:18.000Z</time>
      </trkpt>
      <trkpt lat="47.27984" lon="4.01905">
        <ele>561</ele>
        <time>2022-10-29T15:04:22.000Z</time>
      </trkpt>
      <trkpt lat="47.27981" lon="4.01904">
        <ele>561.20001220703</ele>
        <time>2022-10-29T15:04:23.000Z</time>
      </trkpt>
      <trkpt lat="47.2797" lon="4.01903">
        <ele>562.40002441406</ele>
        <time>2022-10-29T15:04:28.000Z</time>
      </trkpt>
      <trkpt lat="47.27965" lon="4.01901">
        <ele>562.79998779297</ele>
        <time>2022-10-29T15:04:30.000Z</time>
      </trkpt>
      <trkpt lat="47.27955" lon="4.01897">
        <ele>563.40002441406</ele>
        <time>2022-10-29T15:04:34.000Z</time>
      </trkpt>
      <trkpt lat="47.27945" lon="4.01891">
        <ele>564.20001220703</ele>
        <time>2022-10-29T15:04:38.000Z</time>
      </trkpt>
      <trkpt lat="47.27941" lon="4.01887">
        <ele>564.59997558594</ele>
        <time>2022-10-29T15:04:40.000Z</time>
      </trkpt>
      <trkpt lat="47.27932" lon="4.01878">
        <ele>565.20001220703</ele>
        <time>2022-10-29T15:04:44.000Z</time>
      </trkpt>
      <trkpt lat="47.27926" lon="4.01871">
        <ele>565.59997558594</ele>
        <time>2022-10-29T15:04:47.000Z</time>
      </trkpt>
      <trkpt lat="47.27916" lon="4.01858">
        <ele>566.20001220703</ele>
        <time>2022-10-29T15:04:52.000Z</time>
      </trkpt>
      <trkpt lat="47.27907" lon="4.01842">
        <ele>566.79998779297</ele>
        <time>2022-10-29T15:04:57.000Z</time>
      </trkpt>
      <trkpt lat="47.27899" lon="4.01826">
        <ele>567.40002441406</ele>
        <time>2022-10-29T15:05:02.000Z</time>
      </trkpt>
      <trkpt lat="47.27894" lon="4.01816">
        <ele>567.79998779297</ele>
        <time>2022-10-29T15:05:05.000Z</time>
      </trkpt>
      <trkpt lat="47.27881" lon="4.01795">
        <ele>568.59997558594</ele>
        <time>2022-10-29T15:05:12.000Z</time>
      </trkpt>
      <trkpt lat="47.27879" lon="4.01793">
        <ele>568.79998779297</ele>
        <time>2022-10-29T15:05:13.000Z</time>
      </trkpt>
      <trkpt lat="47.27865" lon="4.01779">
        <ele>569.59997558594</ele>
        <time>2022-10-29T15:05:20.000Z</time>
      </trkpt>
      <trkpt lat="47.27855" lon="4.01765">
        <ele>570.59997558594</ele>
        <time>2022-10-29T15:05:26.000Z</time>
      </trkpt>
      <trkpt lat="47.27853" lon="4.01764">
        <ele>570.79998779297</ele>
        <time>2022-10-29T15:05:27.000Z</time>
      </trkpt>
      <trkpt lat="47.27842" lon="4.01754">
        <ele>572</ele>
        <time>2022-10-29T15:05:32.000Z</time>
      </trkpt>
      <trkpt lat="47.27827" lon="4.01734">
        <ele>573</ele>
        <time>2022-10-29T15:05:40.000Z</time>
      </trkpt>
      <trkpt lat="47.27825" lon="4.01732">
        <ele>573.20001220703</ele>
        <time>2022-10-29T15:05:41.000Z</time>
      </trkpt>
      <trkpt lat="47.27812" lon="4.01712">
        <ele>574</ele>
        <time>2022-10-29T15:05:48.000Z</time>
      </trkpt>
      <trkpt lat="47.2781" lon="4.01709">
        <ele>574.20001220703</ele>
        <time>2022-10-29T15:05:49.000Z</time>
      </trkpt>
      <trkpt lat="47.27797" lon="4.01681">
        <ele>574.79998779297</ele>
        <time>2022-10-29T15:05:57.000Z</time>
      </trkpt>
      <trkpt lat="47.27787" lon="4.01651">
        <ele>575</ele>
        <time>2022-10-29T15:06:04.000Z</time>
      </trkpt>
      <trkpt lat="47.27785" lon="4.01647">
        <ele>575</ele>
        <time>2022-10-29T15:06:05.000Z</time>
      </trkpt>
      <trkpt lat="47.27773" lon="4.0162">
        <ele>575.40002441406</ele>
        <time>2022-10-29T15:06:12.000Z</time>
      </trkpt>
      <trkpt lat="47.27764" lon="4.01599">
        <ele>575.40002441406</ele>
        <time>2022-10-29T15:06:17.000Z</time>
      </trkpt>
      <trkpt lat="47.27749" lon="4.01576">
        <ele>575.59997558594</ele>
        <time>2022-10-29T15:06:24.000Z</time>
      </trkpt>
      <trkpt lat="47.27734" lon="4.01561">
        <ele>575.40002441406</ele>
        <time>2022-10-29T15:06:29.000Z</time>
      </trkpt>
      <trkpt lat="47.2772" lon="4.01548">
        <ele>575</ele>
        <time>2022-10-29T15:06:33.000Z</time>
      </trkpt>
      <trkpt lat="47.27702" lon="4.01518">
        <ele>574.59997558594</ele>
        <time>2022-10-29T15:06:39.000Z</time>
      </trkpt>
      <trkpt lat="47.27696" lon="4.01494">
        <ele>574.40002441406</ele>
        <time>2022-10-29T15:06:44.000Z</time>
      </trkpt>
      <trkpt lat="47.27693" lon="4.01484">
        <ele>574.59997558594</ele>
        <time>2022-10-29T15:06:47.000Z</time>
      </trkpt>
      <trkpt lat="47.2769" lon="4.01476">
        <ele>574.79998779297</ele>
        <time>2022-10-29T15:06:49.000Z</time>
      </trkpt>
      <trkpt lat="47.27685" lon="4.01453">
        <ele>575.59997558594</ele>
        <time>2022-10-29T15:06:53.000Z</time>
      </trkpt>
      <trkpt lat="47.27681" lon="4.01444">
        <ele>576</ele>
        <time>2022-10-29T15:06:55.000Z</time>
      </trkpt>
      <trkpt lat="47.27667" lon="4.01411">
        <ele>576.40002441406</ele>
        <time>2022-10-29T15:07:01.000Z</time>
      </trkpt>
      <trkpt lat="47.27652" lon="4.01368">
        <ele>577</ele>
        <time>2022-10-29T15:07:08.000Z</time>
      </trkpt>
      <trkpt lat="47.27651" lon="4.01362">
        <ele>577</ele>
        <time>2022-10-29T15:07:09.000Z</time>
      </trkpt>
      <trkpt lat="47.27634" lon="4.01323">
        <ele>577.59997558594</ele>
        <time>2022-10-29T15:07:16.000Z</time>
      </trkpt>
      <trkpt lat="47.27632" lon="4.01319">
        <ele>577.59997558594</ele>
        <time>2022-10-29T15:07:17.000Z</time>
      </trkpt>
      <trkpt lat="47.27627" lon="4.01311">
        <ele>577.59997558594</ele>
        <time>2022-10-29T15:07:19.000Z</time>
      </trkpt>
      <trkpt lat="47.27617" lon="4.01296">
        <ele>578</ele>
        <time>2022-10-29T15:07:23.000Z</time>
      </trkpt>
      <trkpt lat="47.27615" lon="4.01293">
        <ele>578.20001220703</ele>
        <time>2022-10-29T15:07:24.000Z</time>
      </trkpt>
      <trkpt lat="47.27606" lon="4.01281">
        <ele>579.20001220703</ele>
        <time>2022-10-29T15:07:28.000Z</time>
      </trkpt>
      <trkpt lat="47.27604" lon="4.01278">
        <ele>579.40002441406</ele>
        <time>2022-10-29T15:07:29.000Z</time>
      </trkpt>
      <trkpt lat="47.2759" lon="4.01259">
        <ele>580.59997558594</ele>
        <time>2022-10-29T15:07:35.000Z</time>
      </trkpt>
      <trkpt lat="47.2758" lon="4.01245">
        <ele>581.59997558594</ele>
        <time>2022-10-29T15:07:39.000Z</time>
      </trkpt>
      <trkpt lat="47.27578" lon="4.01242">
        <ele>581.79998779297</ele>
        <time>2022-10-29T15:07:40.000Z</time>
      </trkpt>
      <trkpt lat="47.27564" lon="4.01218">
        <ele>582.79998779297</ele>
        <time>2022-10-29T15:07:46.000Z</time>
      </trkpt>
      <trkpt lat="47.27561" lon="4.01212">
        <ele>582.79998779297</ele>
        <time>2022-10-29T15:07:47.000Z</time>
      </trkpt>
      <trkpt lat="47.2754" lon="4.01177">
        <ele>582.79998779297</ele>
        <time>2022-10-29T15:07:53.000Z</time>
      </trkpt>
      <trkpt lat="47.2753" lon="4.01163">
        <ele>581.59997558594</ele>
        <time>2022-10-29T15:07:55.000Z</time>
      </trkpt>
      <trkpt lat="47.2751" lon="4.01136">
        <ele>580.59997558594</ele>
        <time>2022-10-29T15:07:59.000Z</time>
      </trkpt>
      <trkpt lat="47.27506" lon="4.0113">
        <ele>580.59997558594</ele>
        <time>2022-10-29T15:08:00.000Z</time>
      </trkpt>
      <trkpt lat="47.27477" lon="4.01091">
        <ele>579.40002441406</ele>
        <time>2022-10-29T15:08:06.000Z</time>
      </trkpt>
      <trkpt lat="47.27472" lon="4.01084">
        <ele>579.20001220703</ele>
        <time>2022-10-29T15:08:07.000Z</time>
      </trkpt>
      <trkpt lat="47.27454" lon="4.01044">
        <ele>578.40002441406</ele>
        <time>2022-10-29T15:08:12.000Z</time>
      </trkpt>
      <trkpt lat="47.27443" lon="4.01023">
        <ele>578</ele>
        <time>2022-10-29T15:08:15.000Z</time>
      </trkpt>
      <trkpt lat="47.27438" lon="4.01013">
        <ele>577.79998779297</ele>
        <time>2022-10-29T15:08:17.000Z</time>
      </trkpt>
      <trkpt lat="47.27427" lon="4.00991">
        <ele>578</ele>
        <time>2022-10-29T15:08:21.000Z</time>
      </trkpt>
      <trkpt lat="47.27418" lon="4.00981">
        <ele>578.20001220703</ele>
        <time>2022-10-29T15:08:23.000Z</time>
      </trkpt>
      <trkpt lat="47.274" lon="4.00964">
        <ele>579.40002441406</ele>
        <time>2022-10-29T15:08:28.000Z</time>
      </trkpt>
      <trkpt lat="47.27397" lon="4.00962">
        <ele>579.59997558594</ele>
        <time>2022-10-29T15:08:29.000Z</time>
      </trkpt>
      <trkpt lat="47.27379" lon="4.00951">
        <ele>580.40002441406</ele>
        <time>2022-10-29T15:08:34.000Z</time>
      </trkpt>
      <trkpt lat="47.27375" lon="4.00949">
        <ele>580.59997558594</ele>
        <time>2022-10-29T15:08:35.000Z</time>
      </trkpt>
      <trkpt lat="47.27358" lon="4.00944">
        <ele>580.79998779297</ele>
        <time>2022-10-29T15:08:39.000Z</time>
      </trkpt>
      <trkpt lat="47.27354" lon="4.00943">
        <ele>581</ele>
        <time>2022-10-29T15:08:40.000Z</time>
      </trkpt>
      <trkpt lat="47.27336" lon="4.00943">
        <ele>581.20001220703</ele>
        <time>2022-10-29T15:08:44.000Z</time>
      </trkpt>
      <trkpt lat="47.2732" lon="4.00951">
        <ele>581.59997558594</ele>
        <time>2022-10-29T15:08:48.000Z</time>
      </trkpt>
      <trkpt lat="47.27306" lon="4.00967">
        <ele>581.59997558594</ele>
        <time>2022-10-29T15:08:52.000Z</time>
      </trkpt>
      <trkpt lat="47.27304" lon="4.0097">
        <ele>581.59997558594</ele>
        <time>2022-10-29T15:08:53.000Z</time>
      </trkpt>
      <trkpt lat="47.27284" lon="4.00999">
        <ele>581.59997558594</ele>
        <time>2022-10-29T15:08:59.000Z</time>
      </trkpt>
      <trkpt lat="47.27268" lon="4.01021">
        <ele>581.59997558594</ele>
        <time>2022-10-29T15:09:03.000Z</time>
      </trkpt>
      <trkpt lat="47.2724" lon="4.01047">
        <ele>580.79998779297</ele>
        <time>2022-10-29T15:09:08.000Z</time>
      </trkpt>
      <trkpt lat="47.27233" lon="4.0105">
        <ele>580.40002441406</ele>
        <time>2022-10-29T15:09:09.000Z</time>
      </trkpt>
      <trkpt lat="47.27202" lon="4.01067">
        <ele>579.20001220703</ele>
        <time>2022-10-29T15:09:14.000Z</time>
      </trkpt>
      <trkpt lat="47.27158" lon="4.01084">
        <ele>578.40002441406</ele>
        <time>2022-10-29T15:09:21.000Z</time>
      </trkpt>
      <trkpt lat="47.27152" lon="4.01085">
        <ele>578.20001220703</ele>
        <time>2022-10-29T15:09:22.000Z</time>
      </trkpt>
      <trkpt lat="47.27116" lon="4.01084">
        <ele>578.20001220703</ele>
        <time>2022-10-29T15:09:28.000Z</time>
      </trkpt>
      <trkpt lat="47.27065" lon="4.01075">
        <ele>579.20001220703</ele>
        <time>2022-10-29T15:09:37.000Z</time>
      </trkpt>
      <trkpt lat="47.27054" lon="4.01075">
        <ele>579.20001220703</ele>
        <time>2022-10-29T15:09:39.000Z</time>
      </trkpt>
      <trkpt lat="47.27027" lon="4.01077">
        <ele>579.59997558594</ele>
        <time>2022-10-29T15:09:44.000Z</time>
      </trkpt>
      <trkpt lat="47.26992" lon="4.0108">
        <ele>579.79998779297</ele>
        <time>2022-10-29T15:09:50.000Z</time>
      </trkpt>
      <trkpt lat="47.26986" lon="4.01081">
        <ele>579.79998779297</ele>
        <time>2022-10-29T15:09:51.000Z</time>
      </trkpt>
      <trkpt lat="47.26936" lon="4.01088">
        <ele>580.40002441406</ele>
        <time>2022-10-29T15:10:00.000Z</time>
      </trkpt>
      <trkpt lat="47.26918" lon="4.01091">
        <ele>581.20001220703</ele>
        <time>2022-10-29T15:10:05.000Z</time>
      </trkpt>
      <trkpt lat="47.26916" lon="4.01091">
        <ele>581.59997558594</ele>
        <time>2022-10-29T15:10:06.000Z</time>
      </trkpt>
      <trkpt lat="47.26904" lon="4.01096">
        <ele>581.79998779297</ele>
        <time>2022-10-29T15:10:11.000Z</time>
      </trkpt>
      <trkpt lat="47.26887" lon="4.01103">
        <ele>581.79998779297</ele>
        <time>2022-10-29T15:10:15.000Z</time>
      </trkpt>
      <trkpt lat="47.26881" lon="4.01105">
        <ele>581.79998779297</ele>
        <time>2022-10-29T15:10:16.000Z</time>
      </trkpt>
      <trkpt lat="47.26856" lon="4.01112">
        <ele>581.59997558594</ele>
        <time>2022-10-29T15:10:20.000Z</time>
      </trkpt>
      <trkpt lat="47.26823" lon="4.01123">
        <ele>581.20001220703</ele>
        <time>2022-10-29T15:10:25.000Z</time>
      </trkpt>
      <trkpt lat="47.26799" lon="4.01124">
        <ele>580.40002441406</ele>
        <time>2022-10-29T15:10:29.000Z</time>
      </trkpt>
      <trkpt lat="47.26793" lon="4.01122">
        <ele>580.40002441406</ele>
        <time>2022-10-29T15:10:30.000Z</time>
      </trkpt>
      <trkpt lat="47.26788" lon="4.0112">
        <ele>580.20001220703</ele>
        <time>2022-10-29T15:10:31.000Z</time>
      </trkpt>
      <trkpt lat="47.26777" lon="4.01115">
        <ele>580.20001220703</ele>
        <time>2022-10-29T15:10:33.000Z</time>
      </trkpt>
      <trkpt lat="47.2677" lon="4.01111">
        <ele>580.20001220703</ele>
        <time>2022-10-29T15:10:34.000Z</time>
      </trkpt>
      <trkpt lat="47.26735" lon="4.01088">
        <ele>580</ele>
        <time>2022-10-29T15:10:41.000Z</time>
      </trkpt>
      <trkpt lat="47.26714" lon="4.01073">
        <ele>580.40002441406</ele>
        <time>2022-10-29T15:10:46.000Z</time>
      </trkpt>
      <trkpt lat="47.2671" lon="4.0107">
        <ele>580.40002441406</ele>
        <time>2022-10-29T15:10:47.000Z</time>
      </trkpt>
      <trkpt lat="47.26685" lon="4.01053">
        <ele>581.59997558594</ele>
        <time>2022-10-29T15:10:53.000Z</time>
      </trkpt>
      <trkpt lat="47.26681" lon="4.01051">
        <ele>581.59997558594</ele>
        <time>2022-10-29T15:10:54.000Z</time>
      </trkpt>
      <trkpt lat="47.26677" lon="4.01049">
        <ele>581.79998779297</ele>
        <time>2022-10-29T15:10:55.000Z</time>
      </trkpt>
      <trkpt lat="47.2666" lon="4.01042">
        <ele>582.20001220703</ele>
        <time>2022-10-29T15:10:59.000Z</time>
      </trkpt>
      <trkpt lat="47.26651" lon="4.01039">
        <ele>582.40002441406</ele>
        <time>2022-10-29T15:11:01.000Z</time>
      </trkpt>
      <trkpt lat="47.26646" lon="4.01038">
        <ele>582.59997558594</ele>
        <time>2022-10-29T15:11:02.000Z</time>
      </trkpt>
      <trkpt lat="47.26626" lon="4.01036">
        <ele>583.40002441406</ele>
        <time>2022-10-29T15:11:07.000Z</time>
      </trkpt>
      <trkpt lat="47.26618" lon="4.01035">
        <ele>583.59997558594</ele>
        <time>2022-10-29T15:11:09.000Z</time>
      </trkpt>
      <trkpt lat="47.26609" lon="4.01036">
        <ele>583.59997558594</ele>
        <time>2022-10-29T15:11:11.000Z</time>
      </trkpt>
      <trkpt lat="47.26597" lon="4.01036">
        <ele>584</ele>
        <time>2022-10-29T15:11:14.000Z</time>
      </trkpt>
      <trkpt lat="47.26577" lon="4.01037">
        <ele>585</ele>
        <time>2022-10-29T15:11:19.000Z</time>
      </trkpt>
      <trkpt lat="47.26568" lon="4.01037">
        <ele>585.40002441406</ele>
        <time>2022-10-29T15:11:21.000Z</time>
      </trkpt>
      <trkpt lat="47.26548" lon="4.01039">
        <ele>586</ele>
        <time>2022-10-29T15:11:26.000Z</time>
      </trkpt>
      <trkpt lat="47.26536" lon="4.01042">
        <ele>586.20001220703</ele>
        <time>2022-10-29T15:11:29.000Z</time>
      </trkpt>
      <trkpt lat="47.26493" lon="4.01053">
        <ele>586.40002441406</ele>
        <time>2022-10-29T15:11:38.000Z</time>
      </trkpt>
      <trkpt lat="47.26488" lon="4.01054">
        <ele>586.40002441406</ele>
        <time>2022-10-29T15:11:39.000Z</time>
      </trkpt>
      <trkpt lat="47.26465" lon="4.01056">
        <ele>586</ele>
        <time>2022-10-29T15:11:43.000Z</time>
      </trkpt>
      <trkpt lat="47.26423" lon="4.01055">
        <ele>584.79998779297</ele>
        <time>2022-10-29T15:11:49.000Z</time>
      </trkpt>
      <trkpt lat="47.26407" lon="4.0105">
        <ele>584.79998779297</ele>
        <time>2022-10-29T15:11:51.000Z</time>
      </trkpt>
      <trkpt lat="47.264" lon="4.01046">
        <ele>584.59997558594</ele>
        <time>2022-10-29T15:11:52.000Z</time>
      </trkpt>
      <trkpt lat="47.26385" lon="4.01038">
        <ele>583.79998779297</ele>
        <time>2022-10-29T15:11:54.000Z</time>
      </trkpt>
      <trkpt lat="47.26378" lon="4.01033">
        <ele>583.20001220703</ele>
        <time>2022-10-29T15:11:55.000Z</time>
      </trkpt>
      <trkpt lat="47.2635" lon="4.01019">
        <ele>582</ele>
        <time>2022-10-29T15:11:58.000Z</time>
      </trkpt>
      <trkpt lat="47.26341" lon="4.01015">
        <ele>581.79998779297</ele>
        <time>2022-10-29T15:11:59.000Z</time>
      </trkpt>
      <trkpt lat="47.26322" lon="4.01009">
        <ele>581</ele>
        <time>2022-10-29T15:12:01.000Z</time>
      </trkpt>
      <trkpt lat="47.26296" lon="4.01004">
        <ele>579.79998779297</ele>
        <time>2022-10-29T15:12:04.000Z</time>
      </trkpt>
      <trkpt lat="47.26287" lon="4.01002">
        <ele>579.59997558594</ele>
        <time>2022-10-29T15:12:05.000Z</time>
      </trkpt>
      <trkpt lat="47.26272" lon="4.00997">
        <ele>579.20001220703</ele>
        <time>2022-10-29T15:12:07.000Z</time>
      </trkpt>
      <trkpt lat="47.26259" lon="4.00988">
        <ele>579</ele>
        <time>2022-10-29T15:12:09.000Z</time>
      </trkpt>
      <trkpt lat="47.26247" lon="4.00977">
        <ele>579</ele>
        <time>2022-10-29T15:12:11.000Z</time>
      </trkpt>
      <trkpt lat="47.26232" lon="4.0096">
        <ele>579</ele>
        <time>2022-10-29T15:12:14.000Z</time>
      </trkpt>
      <trkpt lat="47.26215" lon="4.00933">
        <ele>579.79998779297</ele>
        <time>2022-10-29T15:12:19.000Z</time>
      </trkpt>
      <trkpt lat="47.26202" lon="4.00916">
        <ele>581</ele>
        <time>2022-10-29T15:12:23.000Z</time>
      </trkpt>
      <trkpt lat="47.26196" lon="4.00908">
        <ele>581.59997558594</ele>
        <time>2022-10-29T15:12:25.000Z</time>
      </trkpt>
      <trkpt lat="47.26193" lon="4.00903">
        <ele>581.79998779297</ele>
        <time>2022-10-29T15:12:26.000Z</time>
      </trkpt>
      <trkpt lat="47.26185" lon="4.00895">
        <ele>582.40002441406</ele>
        <time>2022-10-29T15:12:28.000Z</time>
      </trkpt>
      <trkpt lat="47.2618" lon="4.0089">
        <ele>582.59997558594</ele>
        <time>2022-10-29T15:12:30.000Z</time>
      </trkpt>
      <trkpt lat="47.26176" lon="4.00887">
        <ele>582.59997558594</ele>
        <time>2022-10-29T15:12:31.000Z</time>
      </trkpt>
      <trkpt lat="47.26174" lon="4.00884">
        <ele>582.79998779297</ele>
        <time>2022-10-29T15:12:32.000Z</time>
      </trkpt>
      <trkpt lat="47.26169" lon="4.00881">
        <ele>583</ele>
        <time>2022-10-29T15:12:34.000Z</time>
      </trkpt>
      <trkpt lat="47.26166" lon="4.00878">
        <ele>583.40002441406</ele>
        <time>2022-10-29T15:12:35.000Z</time>
      </trkpt>
      <trkpt lat="47.26148" lon="4.00864">
        <ele>584.20001220703</ele>
        <time>2022-10-29T15:12:40.000Z</time>
      </trkpt>
      <trkpt lat="47.26126" lon="4.00846">
        <ele>584.20001220703</ele>
        <time>2022-10-29T15:12:44.000Z</time>
      </trkpt>
      <trkpt lat="47.26121" lon="4.0084">
        <ele>584</ele>
        <time>2022-10-29T15:12:45.000Z</time>
      </trkpt>
      <trkpt lat="47.26111" lon="4.00826">
        <ele>583.59997558594</ele>
        <time>2022-10-29T15:12:47.000Z</time>
      </trkpt>
      <trkpt lat="47.26107" lon="4.0082">
        <ele>583.40002441406</ele>
        <time>2022-10-29T15:12:48.000Z</time>
      </trkpt>
      <trkpt lat="47.261" lon="4.00813">
        <ele>583</ele>
        <time>2022-10-29T15:12:49.000Z</time>
      </trkpt>
      <trkpt lat="47.26085" lon="4.00797">
        <ele>582.40002441406</ele>
        <time>2022-10-29T15:12:52.000Z</time>
      </trkpt>
      <trkpt lat="47.26078" lon="4.00795">
        <ele>582.40002441406</ele>
        <time>2022-10-29T15:12:53.000Z</time>
      </trkpt>
      <trkpt lat="47.26073" lon="4.00789">
        <ele>582</ele>
        <time>2022-10-29T15:12:54.000Z</time>
      </trkpt>
      <trkpt lat="47.26059" lon="4.0077">
        <ele>581</ele>
        <time>2022-10-29T15:12:57.000Z</time>
      </trkpt>
      <trkpt lat="47.26043" lon="4.00755">
        <ele>581</ele>
        <time>2022-10-29T15:13:00.000Z</time>
      </trkpt>
      <trkpt lat="47.26026" lon="4.00745">
        <ele>580.40002441406</ele>
        <time>2022-10-29T15:13:03.000Z</time>
      </trkpt>
      <trkpt lat="47.25999" lon="4.00731">
        <ele>580</ele>
        <time>2022-10-29T15:13:08.000Z</time>
      </trkpt>
      <trkpt lat="47.25975" lon="4.00717">
        <ele>579.59997558594</ele>
        <time>2022-10-29T15:13:12.000Z</time>
      </trkpt>
      <trkpt lat="47.25954" lon="4.00702">
        <ele>579</ele>
        <time>2022-10-29T15:13:15.000Z</time>
      </trkpt>
      <trkpt lat="47.25926" lon="4.0068">
        <ele>578</ele>
        <time>2022-10-29T15:13:19.000Z</time>
      </trkpt>
      <trkpt lat="47.25897" lon="4.00659">
        <ele>576.40002441406</ele>
        <time>2022-10-29T15:13:23.000Z</time>
      </trkpt>
      <trkpt lat="47.25878" lon="4.00648">
        <ele>575.59997558594</ele>
        <time>2022-10-29T15:13:26.000Z</time>
      </trkpt>
      <trkpt lat="47.2587" lon="4.00645">
        <ele>575.40002441406</ele>
        <time>2022-10-29T15:13:27.000Z</time>
      </trkpt>
      <trkpt lat="47.25848" lon="4.00637">
        <ele>575.40002441406</ele>
        <time>2022-10-29T15:13:31.000Z</time>
      </trkpt>
      <trkpt lat="47.25827" lon="4.00632">
        <ele>576.20001220703</ele>
        <time>2022-10-29T15:13:36.000Z</time>
      </trkpt>
      <trkpt lat="47.25824" lon="4.00631">
        <ele>576.59997558594</ele>
        <time>2022-10-29T15:13:37.000Z</time>
      </trkpt>
      <trkpt lat="47.2581" lon="4.00629">
        <ele>577.59997558594</ele>
        <time>2022-10-29T15:13:41.000Z</time>
      </trkpt>
      <trkpt lat="47.25803" lon="4.00628">
        <ele>578</ele>
        <time>2022-10-29T15:13:43.000Z</time>
      </trkpt>
      <trkpt lat="47.25791" lon="4.00627">
        <ele>578.79998779297</ele>
        <time>2022-10-29T15:13:47.000Z</time>
      </trkpt>
      <trkpt lat="47.2577" lon="4.00627">
        <ele>579.79998779297</ele>
        <time>2022-10-29T15:13:53.000Z</time>
      </trkpt>
      <trkpt lat="47.25755" lon="4.00624">
        <ele>580.79998779297</ele>
        <time>2022-10-29T15:13:59.000Z</time>
      </trkpt>
      <trkpt lat="47.25738" lon="4.00619">
        <ele>582</ele>
        <time>2022-10-29T15:14:05.000Z</time>
      </trkpt>
      <trkpt lat="47.2573" lon="4.00616">
        <ele>582.40002441406</ele>
        <time>2022-10-29T15:14:08.000Z</time>
      </trkpt>
      <trkpt lat="47.2572" lon="4.00614">
        <ele>583</ele>
        <time>2022-10-29T15:14:11.000Z</time>
      </trkpt>
      <trkpt lat="47.25707" lon="4.00608">
        <ele>583.79998779297</ele>
        <time>2022-10-29T15:14:15.000Z</time>
      </trkpt>
      <trkpt lat="47.25704" lon="4.00606">
        <ele>584</ele>
        <time>2022-10-29T15:14:16.000Z</time>
      </trkpt>
      <trkpt lat="47.25682" lon="4.00596">
        <ele>585.20001220703</ele>
        <time>2022-10-29T15:14:23.000Z</time>
      </trkpt>
      <trkpt lat="47.25678" lon="4.00594">
        <ele>585.20001220703</ele>
        <time>2022-10-29T15:14:24.000Z</time>
      </trkpt>
      <trkpt lat="47.25651" lon="4.00584">
        <ele>585.79998779297</ele>
        <time>2022-10-29T15:14:32.000Z</time>
      </trkpt>
      <trkpt lat="47.25632" lon="4.00577">
        <ele>586.20001220703</ele>
        <time>2022-10-29T15:14:37.000Z</time>
      </trkpt>
      <trkpt lat="47.25604" lon="4.00567">
        <ele>586.40002441406</ele>
        <time>2022-10-29T15:14:44.000Z</time>
      </trkpt>
      <trkpt lat="47.25583" lon="4.00558">
        <ele>586.40002441406</ele>
        <time>2022-10-29T15:14:49.000Z</time>
      </trkpt>
      <trkpt lat="47.25568" lon="4.00553">
        <ele>586.40002441406</ele>
        <time>2022-10-29T15:14:52.000Z</time>
      </trkpt>
      <trkpt lat="47.2553" lon="4.00532">
        <ele>586.79998779297</ele>
        <time>2022-10-29T15:15:01.000Z</time>
      </trkpt>
      <trkpt lat="47.25514" lon="4.00521">
        <ele>587.20001220703</ele>
        <time>2022-10-29T15:15:05.000Z</time>
      </trkpt>
      <trkpt lat="47.25499" lon="4.00511">
        <ele>587.59997558594</ele>
        <time>2022-10-29T15:15:09.000Z</time>
      </trkpt>
      <trkpt lat="47.25475" lon="4.00493">
        <ele>588.40002441406</ele>
        <time>2022-10-29T15:15:15.000Z</time>
      </trkpt>
      <trkpt lat="47.25462" lon="4.00483">
        <ele>588.59997558594</ele>
        <time>2022-10-29T15:15:18.000Z</time>
      </trkpt>
      <trkpt lat="47.25428" lon="4.00464">
        <ele>588.40002441406</ele>
        <time>2022-10-29T15:15:25.000Z</time>
      </trkpt>
      <trkpt lat="47.25386" lon="4.00441">
        <ele>587.59997558594</ele>
        <time>2022-10-29T15:15:33.000Z</time>
      </trkpt>
      <trkpt lat="47.25337" lon="4.004">
        <ele>588</ele>
        <time>2022-10-29T15:15:43.000Z</time>
      </trkpt>
      <trkpt lat="47.25302" lon="4.00365">
        <ele>588.40002441406</ele>
        <time>2022-10-29T15:15:51.000Z</time>
      </trkpt>
      <trkpt lat="47.25283" lon="4.00341">
        <ele>589</ele>
        <time>2022-10-29T15:15:57.000Z</time>
      </trkpt>
      <trkpt lat="47.25276" lon="4.0033">
        <ele>589.59997558594</ele>
        <time>2022-10-29T15:16:00.000Z</time>
      </trkpt>
      <trkpt lat="47.25261" lon="4.00312">
        <ele>590.59997558594</ele>
        <time>2022-10-29T15:16:06.000Z</time>
      </trkpt>
      <trkpt lat="47.25258" lon="4.00309">
        <ele>591</ele>
        <time>2022-10-29T15:16:07.000Z</time>
      </trkpt>
      <trkpt lat="47.25246" lon="4.00292">
        <ele>592.20001220703</ele>
        <time>2022-10-29T15:16:12.000Z</time>
      </trkpt>
      <trkpt lat="47.25243" lon="4.00283">
        <ele>592.59997558594</ele>
        <time>2022-10-29T15:16:14.000Z</time>
      </trkpt>
      <trkpt lat="47.25239" lon="4.00269">
        <ele>593.40002441406</ele>
        <time>2022-10-29T15:16:17.000Z</time>
      </trkpt>
      <trkpt lat="47.25237" lon="4.00248">
        <ele>594.20001220703</ele>
        <time>2022-10-29T15:16:22.000Z</time>
      </trkpt>
      <trkpt lat="47.25237" lon="4.00244">
        <ele>594.40002441406</ele>
        <time>2022-10-29T15:16:23.000Z</time>
      </trkpt>
      <trkpt lat="47.2524" lon="4.00223">
        <ele>595.40002441406</ele>
        <time>2022-10-29T15:16:28.000Z</time>
      </trkpt>
      <trkpt lat="47.2524" lon="4.00214">
        <ele>595.79998779297</ele>
        <time>2022-10-29T15:16:30.000Z</time>
      </trkpt>
      <trkpt lat="47.25241" lon="4.00196">
        <ele>596.59997558594</ele>
        <time>2022-10-29T15:16:34.000Z</time>
      </trkpt>
      <trkpt lat="47.25241" lon="4.00168">
        <ele>597.79998779297</ele>
        <time>2022-10-29T15:16:40.000Z</time>
      </trkpt>
      <trkpt lat="47.2524" lon="4.00159">
        <ele>598.20001220703</ele>
        <time>2022-10-29T15:16:42.000Z</time>
      </trkpt>
      <trkpt lat="47.2524" lon="4.00146">
        <ele>598.79998779297</ele>
        <time>2022-10-29T15:16:45.000Z</time>
      </trkpt>
      <trkpt lat="47.25236" lon="4.00119">
        <ele>599.79998779297</ele>
        <time>2022-10-29T15:16:51.000Z</time>
      </trkpt>
      <trkpt lat="47.25236" lon="4.00114">
        <ele>600.20001220703</ele>
        <time>2022-10-29T15:16:52.000Z</time>
      </trkpt>
      <trkpt lat="47.25233" lon="4.00082">
        <ele>601.20001220703</ele>
        <time>2022-10-29T15:16:59.000Z</time>
      </trkpt>
      <trkpt lat="47.25232" lon="4.00078">
        <ele>601.40002441406</ele>
        <time>2022-10-29T15:17:00.000Z</time>
      </trkpt>
      <trkpt lat="47.25229" lon="4.00059">
        <ele>602.20001220703</ele>
        <time>2022-10-29T15:17:04.000Z</time>
      </trkpt>
      <trkpt lat="47.25224" lon="4.00038">
        <ele>602.40002441406</ele>
        <time>2022-10-29T15:17:08.000Z</time>
      </trkpt>
      <trkpt lat="47.25222" lon="4.00031">
        <ele>602.40002441406</ele>
        <time>2022-10-29T15:17:09.000Z</time>
      </trkpt>
      <trkpt lat="47.25213" lon="4.00013">
        <ele>602</ele>
        <time>2022-10-29T15:17:12.000Z</time>
      </trkpt>
      <trkpt lat="47.25191" lon="3.99975">
        <ele>601.20001220703</ele>
        <time>2022-10-29T15:17:18.000Z</time>
      </trkpt>
      <trkpt lat="47.25186" lon="3.99968">
        <ele>601.20001220703</ele>
        <time>2022-10-29T15:17:19.000Z</time>
      </trkpt>
      <trkpt lat="47.25172" lon="3.9995">
        <ele>600.59997558594</ele>
        <time>2022-10-29T15:17:22.000Z</time>
      </trkpt>
      <trkpt lat="47.25156" lon="3.99937">
        <ele>600.20001220703</ele>
        <time>2022-10-29T15:17:25.000Z</time>
      </trkpt>
      <trkpt lat="47.25123" lon="3.99918">
        <ele>599.40002441406</ele>
        <time>2022-10-29T15:17:31.000Z</time>
      </trkpt>
      <trkpt lat="47.25107" lon="3.99913">
        <ele>599.20001220703</ele>
        <time>2022-10-29T15:17:34.000Z</time>
      </trkpt>
      <trkpt lat="47.2509" lon="3.99912">
        <ele>599</ele>
        <time>2022-10-29T15:17:37.000Z</time>
      </trkpt>
      <trkpt lat="47.25053" lon="3.99917">
        <ele>598.79998779297</ele>
        <time>2022-10-29T15:17:44.000Z</time>
      </trkpt>
      <trkpt lat="47.25028" lon="3.99914">
        <ele>599</ele>
        <time>2022-10-29T15:17:50.000Z</time>
      </trkpt>
      <trkpt lat="47.25009" lon="3.99902">
        <ele>600.20001220703</ele>
        <time>2022-10-29T15:17:55.000Z</time>
      </trkpt>
      <trkpt lat="47.25006" lon="3.99899">
        <ele>600.40002441406</ele>
        <time>2022-10-29T15:17:56.000Z</time>
      </trkpt>
      <trkpt lat="47.2499" lon="3.9988">
        <ele>601.40002441406</ele>
        <time>2022-10-29T15:18:01.000Z</time>
      </trkpt>
      <trkpt lat="47.2498" lon="3.99863">
        <ele>602.20001220703</ele>
        <time>2022-10-29T15:18:05.000Z</time>
      </trkpt>
      <trkpt lat="47.24977" lon="3.99858">
        <ele>602.59997558594</ele>
        <time>2022-10-29T15:18:06.000Z</time>
      </trkpt>
      <trkpt lat="47.24964" lon="3.99837">
        <ele>603.79998779297</ele>
        <time>2022-10-29T15:18:11.000Z</time>
      </trkpt>
      <trkpt lat="47.24959" lon="3.99828">
        <ele>604.20001220703</ele>
        <time>2022-10-29T15:18:13.000Z</time>
      </trkpt>
      <trkpt lat="47.24952" lon="3.99815">
        <ele>604.79998779297</ele>
        <time>2022-10-29T15:18:16.000Z</time>
      </trkpt>
      <trkpt lat="47.24941" lon="3.99795">
        <ele>605.59997558594</ele>
        <time>2022-10-29T15:18:21.000Z</time>
      </trkpt>
      <trkpt lat="47.24939" lon="3.99791">
        <ele>605.79998779297</ele>
        <time>2022-10-29T15:18:22.000Z</time>
      </trkpt>
      <trkpt lat="47.24929" lon="3.99769">
        <ele>606.20001220703</ele>
        <time>2022-10-29T15:18:27.000Z</time>
      </trkpt>
      <trkpt lat="47.24914" lon="3.99742">
        <ele>606.59997558594</ele>
        <time>2022-10-29T15:18:33.000Z</time>
      </trkpt>
      <trkpt lat="47.24898" lon="3.99705">
        <ele>606.40002441406</ele>
        <time>2022-10-29T15:18:41.000Z</time>
      </trkpt>
      <trkpt lat="47.2489" lon="3.99674">
        <ele>606.20001220703</ele>
        <time>2022-10-29T15:18:47.000Z</time>
      </trkpt>
      <trkpt lat="47.24881" lon="3.99631">
        <ele>605.79998779297</ele>
        <time>2022-10-29T15:18:55.000Z</time>
      </trkpt>
      <trkpt lat="47.24871" lon="3.99584">
        <ele>605</ele>
        <time>2022-10-29T15:19:04.000Z</time>
      </trkpt>
      <trkpt lat="47.24865" lon="3.99546">
        <ele>604.79998779297</ele>
        <time>2022-10-29T15:19:11.000Z</time>
      </trkpt>
      <trkpt lat="47.24864" lon="3.99503">
        <ele>604.79998779297</ele>
        <time>2022-10-29T15:19:18.000Z</time>
      </trkpt>
      <trkpt lat="47.24869" lon="3.99446">
        <ele>605.40002441406</ele>
        <time>2022-10-29T15:19:28.000Z</time>
      </trkpt>
      <trkpt lat="47.24869" lon="3.99405">
        <ele>606.59997558594</ele>
        <time>2022-10-29T15:19:35.000Z</time>
      </trkpt>
      <trkpt lat="47.24868" lon="3.99393">
        <ele>606.79998779297</ele>
        <time>2022-10-29T15:19:37.000Z</time>
      </trkpt>
      <trkpt lat="47.24869" lon="3.99367">
        <ele>607.79998779297</ele>
        <time>2022-10-29T15:19:42.000Z</time>
      </trkpt>
      <trkpt lat="47.24868" lon="3.99339">
        <ele>609</ele>
        <time>2022-10-29T15:19:48.000Z</time>
      </trkpt>
      <trkpt lat="47.24868" lon="3.99318">
        <ele>609.79998779297</ele>
        <time>2022-10-29T15:19:53.000Z</time>
      </trkpt>
      <trkpt lat="47.24866" lon="3.99316">
        <ele>610</ele>
        <time>2022-10-29T15:19:54.000Z</time>
      </trkpt>
      <trkpt lat="47.24864" lon="3.99314">
        <ele>610.40002441406</ele>
        <time>2022-10-29T15:19:55.000Z</time>
      </trkpt>
      <trkpt lat="47.2486" lon="3.99313">
        <ele>611</ele>
        <time>2022-10-29T15:19:58.000Z</time>
      </trkpt>
      <trkpt lat="47.24853" lon="3.99316">
        <ele>611.59997558594</ele>
        <time>2022-10-29T15:20:04.000Z</time>
      </trkpt>
      <trkpt lat="47.24847" lon="3.99318">
        <ele>611.59997558594</ele>
        <time>2022-10-29T15:20:08.000Z</time>
      </trkpt>
      <trkpt lat="47.24843" lon="3.99322">
        <ele>611.40002441406</ele>
        <time>2022-10-29T15:20:10.000Z</time>
      </trkpt>
      <trkpt lat="47.24825" lon="3.99333">
        <ele>611</ele>
        <time>2022-10-29T15:20:17.000Z</time>
      </trkpt>
      <trkpt lat="47.24805" lon="3.99343">
        <ele>610.59997558594</ele>
        <time>2022-10-29T15:20:22.000Z</time>
      </trkpt>
      <trkpt lat="47.24779" lon="3.99359">
        <ele>610.20001220703</ele>
        <time>2022-10-29T15:20:27.000Z</time>
      </trkpt>
      <trkpt lat="47.24774" lon="3.99364">
        <ele>610</ele>
        <time>2022-10-29T15:20:28.000Z</time>
      </trkpt>
      <trkpt lat="47.24768" lon="3.99369">
        <ele>609.59997558594</ele>
        <time>2022-10-29T15:20:29.000Z</time>
      </trkpt>
      <trkpt lat="47.2475" lon="3.99381">
        <ele>608.59997558594</ele>
        <time>2022-10-29T15:20:32.000Z</time>
      </trkpt>
      <trkpt lat="47.24726" lon="3.99395">
        <ele>607.20001220703</ele>
        <time>2022-10-29T15:20:36.000Z</time>
      </trkpt>
      <trkpt lat="47.24699" lon="3.99412">
        <ele>606.20001220703</ele>
        <time>2022-10-29T15:20:40.000Z</time>
      </trkpt>
      <trkpt lat="47.24685" lon="3.99418">
        <ele>605.40002441406</ele>
        <time>2022-10-29T15:20:42.000Z</time>
      </trkpt>
      <trkpt lat="47.24678" lon="3.9942">
        <ele>605</ele>
        <time>2022-10-29T15:20:43.000Z</time>
      </trkpt>
      <trkpt lat="47.24664" lon="3.99423">
        <ele>604.59997558594</ele>
        <time>2022-10-29T15:20:45.000Z</time>
      </trkpt>
      <trkpt lat="47.2463" lon="3.99425">
        <ele>603.79998779297</ele>
        <time>2022-10-29T15:20:50.000Z</time>
      </trkpt>
      <trkpt lat="47.24604" lon="3.99426">
        <ele>602.79998779297</ele>
        <time>2022-10-29T15:20:54.000Z</time>
      </trkpt>
      <trkpt lat="47.24563" lon="3.99429">
        <ele>601.59997558594</ele>
        <time>2022-10-29T15:21:00.000Z</time>
      </trkpt>
      <trkpt lat="47.24557" lon="3.99429">
        <ele>601.40002441406</ele>
        <time>2022-10-29T15:21:01.000Z</time>
      </trkpt>
      <trkpt lat="47.24525" lon="3.99422">
        <ele>600.59997558594</ele>
        <time>2022-10-29T15:21:06.000Z</time>
      </trkpt>
      <trkpt lat="47.24518" lon="3.99421">
        <ele>600.20001220703</ele>
        <time>2022-10-29T15:21:07.000Z</time>
      </trkpt>
      <trkpt lat="47.24491" lon="3.99413">
        <ele>599.40002441406</ele>
        <time>2022-10-29T15:21:11.000Z</time>
      </trkpt>
      <trkpt lat="47.24477" lon="3.99411">
        <ele>598.59997558594</ele>
        <time>2022-10-29T15:21:13.000Z</time>
      </trkpt>
      <trkpt lat="47.2447" lon="3.99411">
        <ele>598.20001220703</ele>
        <time>2022-10-29T15:21:14.000Z</time>
      </trkpt>
      <trkpt lat="47.24463" lon="3.99411">
        <ele>598</ele>
        <time>2022-10-29T15:21:15.000Z</time>
      </trkpt>
      <trkpt lat="47.24434" lon="3.99426">
        <ele>597</ele>
        <time>2022-10-29T15:21:19.000Z</time>
      </trkpt>
      <trkpt lat="47.24427" lon="3.99429">
        <ele>596.79998779297</ele>
        <time>2022-10-29T15:21:20.000Z</time>
      </trkpt>
      <trkpt lat="47.2441" lon="3.99432">
        <ele>595.79998779297</ele>
        <time>2022-10-29T15:21:22.000Z</time>
      </trkpt>
      <trkpt lat="47.24402" lon="3.99432">
        <ele>595.40002441406</ele>
        <time>2022-10-29T15:21:23.000Z</time>
      </trkpt>
      <trkpt lat="47.24377" lon="3.9943">
        <ele>594.59997558594</ele>
        <time>2022-10-29T15:21:26.000Z</time>
      </trkpt>
      <trkpt lat="47.24352" lon="3.99427">
        <ele>593.59997558594</ele>
        <time>2022-10-29T15:21:29.000Z</time>
      </trkpt>
      <trkpt lat="47.24344" lon="3.99426">
        <ele>593.40002441406</ele>
        <time>2022-10-29T15:21:30.000Z</time>
      </trkpt>
      <trkpt lat="47.24319" lon="3.99423">
        <ele>592</ele>
        <time>2022-10-29T15:21:33.000Z</time>
      </trkpt>
      <trkpt lat="47.24289" lon="3.99423">
        <ele>591.20001220703</ele>
        <time>2022-10-29T15:21:37.000Z</time>
      </trkpt>
      <trkpt lat="47.24281" lon="3.99424">
        <ele>591.20001220703</ele>
        <time>2022-10-29T15:21:38.000Z</time>
      </trkpt>
      <trkpt lat="47.24268" lon="3.99431">
        <ele>591</ele>
        <time>2022-10-29T15:21:40.000Z</time>
      </trkpt>
      <trkpt lat="47.24264" lon="3.99436">
        <ele>590.79998779297</ele>
        <time>2022-10-29T15:21:41.000Z</time>
      </trkpt>
      <trkpt lat="47.24258" lon="3.99442">
        <ele>590.79998779297</ele>
        <time>2022-10-29T15:21:42.000Z</time>
      </trkpt>
      <trkpt lat="47.24243" lon="3.99462">
        <ele>590.79998779297</ele>
        <time>2022-10-29T15:21:45.000Z</time>
      </trkpt>
      <trkpt lat="47.24239" lon="3.99469">
        <ele>590.79998779297</ele>
        <time>2022-10-29T15:21:46.000Z</time>
      </trkpt>
      <trkpt lat="47.24222" lon="3.99498">
        <ele>591.40002441406</ele>
        <time>2022-10-29T15:21:51.000Z</time>
      </trkpt>
      <trkpt lat="47.24209" lon="3.99519">
        <ele>592.20001220703</ele>
        <time>2022-10-29T15:21:55.000Z</time>
      </trkpt>
      <trkpt lat="47.24198" lon="3.99532">
        <ele>592.79998779297</ele>
        <time>2022-10-29T15:21:58.000Z</time>
      </trkpt>
      <trkpt lat="47.24189" lon="3.99545">
        <ele>593.20001220703</ele>
        <time>2022-10-29T15:22:01.000Z</time>
      </trkpt>
      <trkpt lat="47.24176" lon="3.99559">
        <ele>594.40002441406</ele>
        <time>2022-10-29T15:22:05.000Z</time>
      </trkpt>
      <trkpt lat="47.24152" lon="3.99583">
        <ele>595.59997558594</ele>
        <time>2022-10-29T15:22:12.000Z</time>
      </trkpt>
      <trkpt lat="47.24148" lon="3.99587">
        <ele>595.59997558594</ele>
        <time>2022-10-29T15:22:13.000Z</time>
      </trkpt>
      <trkpt lat="47.24131" lon="3.99606">
        <ele>596.59997558594</ele>
        <time>2022-10-29T15:22:18.000Z</time>
      </trkpt>
      <trkpt lat="47.24121" lon="3.99617">
        <ele>596.79998779297</ele>
        <time>2022-10-29T15:22:21.000Z</time>
      </trkpt>
      <trkpt lat="47.24096" lon="3.99648">
        <ele>597.59997558594</ele>
        <time>2022-10-29T15:22:28.000Z</time>
      </trkpt>
      <trkpt lat="47.24085" lon="3.99662">
        <ele>597.79998779297</ele>
        <time>2022-10-29T15:22:31.000Z</time>
      </trkpt>
      <trkpt lat="47.24056" lon="3.99707">
        <ele>598.40002441406</ele>
        <time>2022-10-29T15:22:40.000Z</time>
      </trkpt>
      <trkpt lat="47.24034" lon="3.99741">
        <ele>598.59997558594</ele>
        <time>2022-10-29T15:22:47.000Z</time>
      </trkpt>
      <trkpt lat="47.24031" lon="3.99746">
        <ele>598.59997558594</ele>
        <time>2022-10-29T15:22:48.000Z</time>
      </trkpt>
      <trkpt lat="47.23999" lon="3.99778">
        <ele>598</ele>
        <time>2022-10-29T15:22:55.000Z</time>
      </trkpt>
      <trkpt lat="47.2396" lon="3.99799">
        <ele>596.59997558594</ele>
        <time>2022-10-29T15:23:02.000Z</time>
      </trkpt>
      <trkpt lat="47.23948" lon="3.99804">
        <ele>596.40002441406</ele>
        <time>2022-10-29T15:23:04.000Z</time>
      </trkpt>
      <trkpt lat="47.23913" lon="3.99821">
        <ele>595.20001220703</ele>
        <time>2022-10-29T15:23:10.000Z</time>
      </trkpt>
      <trkpt lat="47.23866" lon="3.99847">
        <ele>594.20001220703</ele>
        <time>2022-10-29T15:23:18.000Z</time>
      </trkpt>
      <trkpt lat="47.23861" lon="3.9985">
        <ele>594</ele>
        <time>2022-10-29T15:23:19.000Z</time>
      </trkpt>
      <trkpt lat="47.23826" lon="3.99884">
        <ele>593.40002441406</ele>
        <time>2022-10-29T15:23:25.000Z</time>
      </trkpt>
      <trkpt lat="47.23821" lon="3.99891">
        <ele>593.20001220703</ele>
        <time>2022-10-29T15:23:26.000Z</time>
      </trkpt>
      <trkpt lat="47.23797" lon="3.99931">
        <ele>592.20001220703</ele>
        <time>2022-10-29T15:23:31.000Z</time>
      </trkpt>
      <trkpt lat="47.23792" lon="3.99939">
        <ele>592.20001220703</ele>
        <time>2022-10-29T15:23:32.000Z</time>
      </trkpt>
      <trkpt lat="47.23787" lon="3.99944">
        <ele>592</ele>
        <time>2022-10-29T15:23:33.000Z</time>
      </trkpt>
      <trkpt lat="47.23767" lon="3.99968">
        <ele>591.20001220703</ele>
        <time>2022-10-29T15:23:36.000Z</time>
      </trkpt>
      <trkpt lat="47.23762" lon="3.99975">
        <ele>590.79998779297</ele>
        <time>2022-10-29T15:23:37.000Z</time>
      </trkpt>
      <trkpt lat="47.23745" lon="3.99994">
        <ele>589.79998779297</ele>
        <time>2022-10-29T15:23:40.000Z</time>
      </trkpt>
      <trkpt lat="47.23734" lon="4.00006">
        <ele>589.59997558594</ele>
        <time>2022-10-29T15:23:42.000Z</time>
      </trkpt>
      <trkpt lat="47.23722" lon="4.00021">
        <ele>589.20001220703</ele>
        <time>2022-10-29T15:23:45.000Z</time>
      </trkpt>
      <trkpt lat="47.23701" lon="4.00042">
        <ele>589.20001220703</ele>
        <time>2022-10-29T15:23:49.000Z</time>
      </trkpt>
      <trkpt lat="47.23697" lon="4.00046">
        <ele>589</ele>
        <time>2022-10-29T15:23:50.000Z</time>
      </trkpt>
      <trkpt lat="47.23667" lon="4.00085">
        <ele>589.40002441406</ele>
        <time>2022-10-29T15:23:57.000Z</time>
      </trkpt>
      <trkpt lat="47.23633" lon="4.00137">
        <ele>589.59997558594</ele>
        <time>2022-10-29T15:24:04.000Z</time>
      </trkpt>
      <trkpt lat="47.2363" lon="4.00144">
        <ele>589.59997558594</ele>
        <time>2022-10-29T15:24:05.000Z</time>
      </trkpt>
      <trkpt lat="47.23605" lon="4.00216">
        <ele>589.59997558594</ele>
        <time>2022-10-29T15:24:14.000Z</time>
      </trkpt>
      <trkpt lat="47.23584" lon="4.0028">
        <ele>589.79998779297</ele>
        <time>2022-10-29T15:24:23.000Z</time>
      </trkpt>
      <trkpt lat="47.23556" lon="4.00324">
        <ele>590.40002441406</ele>
        <time>2022-10-29T15:24:30.000Z</time>
      </trkpt>
      <trkpt lat="47.23527" lon="4.0036">
        <ele>590.40002441406</ele>
        <time>2022-10-29T15:24:37.000Z</time>
      </trkpt>
      <trkpt lat="47.23522" lon="4.00367">
        <ele>590.40002441406</ele>
        <time>2022-10-29T15:24:38.000Z</time>
      </trkpt>
      <trkpt lat="47.23498" lon="4.00406">
        <ele>590.40002441406</ele>
        <time>2022-10-29T15:24:45.000Z</time>
      </trkpt>
      <trkpt lat="47.23482" lon="4.00441">
        <ele>589.79998779297</ele>
        <time>2022-10-29T15:24:50.000Z</time>
      </trkpt>
      <trkpt lat="47.2348" lon="4.00447">
        <ele>589.59997558594</ele>
        <time>2022-10-29T15:24:51.000Z</time>
      </trkpt>
      <trkpt lat="47.2347" lon="4.00472">
        <ele>589.20001220703</ele>
        <time>2022-10-29T15:24:54.000Z</time>
      </trkpt>
      <trkpt lat="47.23452" lon="4.00517">
        <ele>588.79998779297</ele>
        <time>2022-10-29T15:25:00.000Z</time>
      </trkpt>
      <trkpt lat="47.2345" lon="4.00522">
        <ele>588.79998779297</ele>
        <time>2022-10-29T15:25:01.000Z</time>
      </trkpt>
      <trkpt lat="47.23425" lon="4.00581">
        <ele>588.79998779297</ele>
        <time>2022-10-29T15:25:09.000Z</time>
      </trkpt>
      <trkpt lat="47.23405" lon="4.00624">
        <ele>588.59997558594</ele>
        <time>2022-10-29T15:25:16.000Z</time>
      </trkpt>
      <trkpt lat="47.23402" lon="4.00629">
        <ele>588.40002441406</ele>
        <time>2022-10-29T15:25:17.000Z</time>
      </trkpt>
      <trkpt lat="47.23379" lon="4.00664">
        <ele>588.20001220703</ele>
        <time>2022-10-29T15:25:23.000Z</time>
      </trkpt>
      <trkpt lat="47.23371" lon="4.00675">
        <ele>588</ele>
        <time>2022-10-29T15:25:25.000Z</time>
      </trkpt>
      <trkpt lat="47.23352" lon="4.00699">
        <ele>587.59997558594</ele>
        <time>2022-10-29T15:25:29.000Z</time>
      </trkpt>
      <trkpt lat="47.23338" lon="4.0072">
        <ele>587</ele>
        <time>2022-10-29T15:25:32.000Z</time>
      </trkpt>
      <trkpt lat="47.23319" lon="4.00747">
        <ele>586.40002441406</ele>
        <time>2022-10-29T15:25:36.000Z</time>
      </trkpt>
      <trkpt lat="47.23304" lon="4.00768">
        <ele>586</ele>
        <time>2022-10-29T15:25:39.000Z</time>
      </trkpt>
      <trkpt lat="47.23264" lon="4.00821">
        <ele>585.20001220703</ele>
        <time>2022-10-29T15:25:47.000Z</time>
      </trkpt>
      <trkpt lat="47.23253" lon="4.00832">
        <ele>584.79998779297</ele>
        <time>2022-10-29T15:25:49.000Z</time>
      </trkpt>
      <trkpt lat="47.23247" lon="4.00837">
        <ele>584.59997558594</ele>
        <time>2022-10-29T15:25:50.000Z</time>
      </trkpt>
      <trkpt lat="47.23228" lon="4.00849">
        <ele>584.20001220703</ele>
        <time>2022-10-29T15:25:53.000Z</time>
      </trkpt>
      <trkpt lat="47.23209" lon="4.00858">
        <ele>583.79998779297</ele>
        <time>2022-10-29T15:25:56.000Z</time>
      </trkpt>
      <trkpt lat="47.23191" lon="4.00867">
        <ele>583.59997558594</ele>
        <time>2022-10-29T15:25:59.000Z</time>
      </trkpt>
      <trkpt lat="47.23145" lon="4.00888">
        <ele>583.79998779297</ele>
        <time>2022-10-29T15:26:07.000Z</time>
      </trkpt>
      <trkpt lat="47.23107" lon="4.00904">
        <ele>584.40002441406</ele>
        <time>2022-10-29T15:26:14.000Z</time>
      </trkpt>
      <trkpt lat="47.23091" lon="4.00908">
        <ele>584.79998779297</ele>
        <time>2022-10-29T15:26:17.000Z</time>
      </trkpt>
      <trkpt lat="47.23062" lon="4.00914">
        <ele>585.40002441406</ele>
        <time>2022-10-29T15:26:23.000Z</time>
      </trkpt>
      <trkpt lat="47.23046" lon="4.00916">
        <ele>585.79998779297</ele>
        <time>2022-10-29T15:26:26.000Z</time>
      </trkpt>
      <trkpt lat="47.23016" lon="4.00922">
        <ele>586.20001220703</ele>
        <time>2022-10-29T15:26:33.000Z</time>
      </trkpt>
      <trkpt lat="47.22997" lon="4.00922">
        <ele>586</ele>
        <time>2022-10-29T15:26:38.000Z</time>
      </trkpt>
      <trkpt lat="47.22967" lon="4.00921">
        <ele>586</ele>
        <time>2022-10-29T15:26:43.000Z</time>
      </trkpt>
      <trkpt lat="47.2293" lon="4.00909">
        <ele>585.40002441406</ele>
        <time>2022-10-29T15:26:49.000Z</time>
      </trkpt>
      <trkpt lat="47.22891" lon="4.0089">
        <ele>585.20001220703</ele>
        <time>2022-10-29T15:26:55.000Z</time>
      </trkpt>
      <trkpt lat="47.22873" lon="4.00883">
        <ele>584.59997558594</ele>
        <time>2022-10-29T15:26:58.000Z</time>
      </trkpt>
      <trkpt lat="47.22867" lon="4.00883">
        <ele>584.59997558594</ele>
        <time>2022-10-29T15:26:59.000Z</time>
      </trkpt>
      <trkpt lat="47.22858" lon="4.00883">
        <ele>584.40002441406</ele>
        <time>2022-10-29T15:27:01.000Z</time>
      </trkpt>
      <trkpt lat="47.22837" lon="4.00886">
        <ele>584</ele>
        <time>2022-10-29T15:27:05.000Z</time>
      </trkpt>
      <trkpt lat="47.22825" lon="4.00888">
        <ele>584</ele>
        <time>2022-10-29T15:27:07.000Z</time>
      </trkpt>
      <trkpt lat="47.22797" lon="4.00894">
        <ele>583.79998779297</ele>
        <time>2022-10-29T15:27:12.000Z</time>
      </trkpt>
      <trkpt lat="47.22764" lon="4.00902">
        <ele>583.79998779297</ele>
        <time>2022-10-29T15:27:18.000Z</time>
      </trkpt>
      <trkpt lat="47.22754" lon="4.00907">
        <ele>583.79998779297</ele>
        <time>2022-10-29T15:27:20.000Z</time>
      </trkpt>
      <trkpt lat="47.22744" lon="4.00911">
        <ele>583.79998779297</ele>
        <time>2022-10-29T15:27:22.000Z</time>
      </trkpt>
      <trkpt lat="47.22733" lon="4.00915">
        <ele>583.79998779297</ele>
        <time>2022-10-29T15:27:24.000Z</time>
      </trkpt>
      <trkpt lat="47.22724" lon="4.00919">
        <ele>583.79998779297</ele>
        <time>2022-10-29T15:27:26.000Z</time>
      </trkpt>
      <trkpt lat="47.22714" lon="4.00925">
        <ele>583.79998779297</ele>
        <time>2022-10-29T15:27:28.000Z</time>
      </trkpt>
      <trkpt lat="47.22704" lon="4.00929">
        <ele>583.40002441406</ele>
        <time>2022-10-29T15:27:30.000Z</time>
      </trkpt>
      <trkpt lat="47.22685" lon="4.00936">
        <ele>583.40002441406</ele>
        <time>2022-10-29T15:27:33.000Z</time>
      </trkpt>
      <trkpt lat="47.22667" lon="4.00943">
        <ele>583.20001220703</ele>
        <time>2022-10-29T15:27:36.000Z</time>
      </trkpt>
      <trkpt lat="47.22624" lon="4.00964">
        <ele>582.79998779297</ele>
        <time>2022-10-29T15:27:44.000Z</time>
      </trkpt>
      <trkpt lat="47.2259" lon="4.00974">
        <ele>583</ele>
        <time>2022-10-29T15:27:51.000Z</time>
      </trkpt>
      <trkpt lat="47.22571" lon="4.00981">
        <ele>583.59997558594</ele>
        <time>2022-10-29T15:27:55.000Z</time>
      </trkpt>
      <trkpt lat="47.22559" lon="4.00984">
        <ele>583.59997558594</ele>
        <time>2022-10-29T15:27:57.000Z</time>
      </trkpt>
      <trkpt lat="47.22523" lon="4.00996">
        <ele>584</ele>
        <time>2022-10-29T15:28:04.000Z</time>
      </trkpt>
      <trkpt lat="47.22508" lon="4.01">
        <ele>584</ele>
        <time>2022-10-29T15:28:08.000Z</time>
      </trkpt>
      <trkpt lat="47.22481" lon="4.01009">
        <ele>584.20001220703</ele>
        <time>2022-10-29T15:28:13.000Z</time>
      </trkpt>
      <trkpt lat="47.22438" lon="4.01024">
        <ele>584</ele>
        <time>2022-10-29T15:28:20.000Z</time>
      </trkpt>
      <trkpt lat="47.22398" lon="4.01037">
        <ele>584.40002441406</ele>
        <time>2022-10-29T15:28:27.000Z</time>
      </trkpt>
      <trkpt lat="47.22376" lon="4.01043">
        <ele>585.20001220703</ele>
        <time>2022-10-29T15:28:32.000Z</time>
      </trkpt>
      <trkpt lat="47.22367" lon="4.01045">
        <ele>585.40002441406</ele>
        <time>2022-10-29T15:28:34.000Z</time>
      </trkpt>
      <trkpt lat="47.22345" lon="4.01051">
        <ele>586</ele>
        <time>2022-10-29T15:28:39.000Z</time>
      </trkpt>
      <trkpt lat="47.2233" lon="4.01056">
        <ele>586.20001220703</ele>
        <time>2022-10-29T15:28:42.000Z</time>
      </trkpt>
      <trkpt lat="47.22314" lon="4.0106">
        <ele>586.59997558594</ele>
        <time>2022-10-29T15:28:45.000Z</time>
      </trkpt>
      <trkpt lat="47.22272" lon="4.01072">
        <ele>587</ele>
        <time>2022-10-29T15:28:53.000Z</time>
      </trkpt>
      <trkpt lat="47.22237" lon="4.01079">
        <ele>587.20001220703</ele>
        <time>2022-10-29T15:29:00.000Z</time>
      </trkpt>
      <trkpt lat="47.22228" lon="4.01082">
        <ele>587.20001220703</ele>
        <time>2022-10-29T15:29:02.000Z</time>
      </trkpt>
      <trkpt lat="47.22215" lon="4.01087">
        <ele>587</ele>
        <time>2022-10-29T15:29:05.000Z</time>
      </trkpt>
      <trkpt lat="47.22184" lon="4.01092">
        <ele>587</ele>
        <time>2022-10-29T15:29:11.000Z</time>
      </trkpt>
      <trkpt lat="47.22177" lon="4.01093">
        <ele>587</ele>
        <time>2022-10-29T15:29:12.000Z</time>
      </trkpt>
      <trkpt lat="47.22149" lon="4.01095">
        <ele>587</ele>
        <time>2022-10-29T15:29:16.000Z</time>
      </trkpt>
      <trkpt lat="47.22137" lon="4.01096">
        <ele>587</ele>
        <time>2022-10-29T15:29:18.000Z</time>
      </trkpt>
      <trkpt lat="47.22127" lon="4.01099">
        <ele>586.79998779297</ele>
        <time>2022-10-29T15:29:20.000Z</time>
      </trkpt>
      <trkpt lat="47.22122" lon="4.011">
        <ele>587</ele>
        <time>2022-10-29T15:29:21.000Z</time>
      </trkpt>
      <trkpt lat="47.22079" lon="4.0111">
        <ele>587.20001220703</ele>
        <time>2022-10-29T15:29:29.000Z</time>
      </trkpt>
      <trkpt lat="47.22074" lon="4.01112">
        <ele>587.40002441406</ele>
        <time>2022-10-29T15:29:30.000Z</time>
      </trkpt>
      <trkpt lat="47.22027" lon="4.01127">
        <ele>587.40002441406</ele>
        <time>2022-10-29T15:29:39.000Z</time>
      </trkpt>
      <trkpt lat="47.21976" lon="4.01143">
        <ele>587.79998779297</ele>
        <time>2022-10-29T15:29:49.000Z</time>
      </trkpt>
      <trkpt lat="47.21944" lon="4.01156">
        <ele>588.20001220703</ele>
        <time>2022-10-29T15:29:56.000Z</time>
      </trkpt>
      <trkpt lat="47.21924" lon="4.01164">
        <ele>588.79998779297</ele>
        <time>2022-10-29T15:30:01.000Z</time>
      </trkpt>
      <trkpt lat="47.21898" lon="4.01181">
        <ele>589</ele>
        <time>2022-10-29T15:30:08.000Z</time>
      </trkpt>
      <trkpt lat="47.21893" lon="4.01184">
        <ele>589</ele>
        <time>2022-10-29T15:30:09.000Z</time>
      </trkpt>
      <trkpt lat="47.21866" lon="4.01198">
        <ele>589</ele>
        <time>2022-10-29T15:30:14.000Z</time>
      </trkpt>
      <trkpt lat="47.21846" lon="4.01211">
        <ele>589</ele>
        <time>2022-10-29T15:30:18.000Z</time>
      </trkpt>
      <trkpt lat="47.21836" lon="4.01218">
        <ele>588.79998779297</ele>
        <time>2022-10-29T15:30:20.000Z</time>
      </trkpt>
      <trkpt lat="47.21826" lon="4.01225">
        <ele>589</ele>
        <time>2022-10-29T15:30:22.000Z</time>
      </trkpt>
      <trkpt lat="47.2181" lon="4.01243">
        <ele>588.79998779297</ele>
        <time>2022-10-29T15:30:26.000Z</time>
      </trkpt>
      <trkpt lat="47.21794" lon="4.01257">
        <ele>588.79998779297</ele>
        <time>2022-10-29T15:30:29.000Z</time>
      </trkpt>
      <trkpt lat="47.21773" lon="4.01282">
        <ele>588.59997558594</ele>
        <time>2022-10-29T15:30:33.000Z</time>
      </trkpt>
      <trkpt lat="47.21745" lon="4.01314">
        <ele>588.20001220703</ele>
        <time>2022-10-29T15:30:38.000Z</time>
      </trkpt>
      <trkpt lat="47.21704" lon="4.01353">
        <ele>588.40002441406</ele>
        <time>2022-10-29T15:30:47.000Z</time>
      </trkpt>
      <trkpt lat="47.21677" lon="4.01381">
        <ele>589</ele>
        <time>2022-10-29T15:30:54.000Z</time>
      </trkpt>
      <trkpt lat="47.2165" lon="4.0141">
        <ele>589.79998779297</ele>
        <time>2022-10-29T15:31:02.000Z</time>
      </trkpt>
      <trkpt lat="47.21643" lon="4.01418">
        <ele>590.20001220703</ele>
        <time>2022-10-29T15:31:04.000Z</time>
      </trkpt>
      <trkpt lat="47.21617" lon="4.01446">
        <ele>590.79998779297</ele>
        <time>2022-10-29T15:31:12.000Z</time>
      </trkpt>
      <trkpt lat="47.21605" lon="4.01459">
        <ele>591.20001220703</ele>
        <time>2022-10-29T15:31:16.000Z</time>
      </trkpt>
      <trkpt lat="47.21585" lon="4.01479">
        <ele>592.20001220703</ele>
        <time>2022-10-29T15:31:22.000Z</time>
      </trkpt>
      <trkpt lat="47.21564" lon="4.015">
        <ele>593.40002441406</ele>
        <time>2022-10-29T15:31:29.000Z</time>
      </trkpt>
      <trkpt lat="47.21558" lon="4.01506">
        <ele>593.59997558594</ele>
        <time>2022-10-29T15:31:31.000Z</time>
      </trkpt>
      <trkpt lat="47.21544" lon="4.01523">
        <ele>594.40002441406</ele>
        <time>2022-10-29T15:31:37.000Z</time>
      </trkpt>
      <trkpt lat="47.21542" lon="4.01527">
        <ele>594.59997558594</ele>
        <time>2022-10-29T15:31:38.000Z</time>
      </trkpt>
      <trkpt lat="47.2154" lon="4.01532">
        <ele>594.59997558594</ele>
        <time>2022-10-29T15:31:39.000Z</time>
      </trkpt>
      <trkpt lat="47.21542" lon="4.01544">
        <ele>595</ele>
        <time>2022-10-29T15:31:41.000Z</time>
      </trkpt>
      <trkpt lat="47.21551" lon="4.01572">
        <ele>595.40002441406</ele>
        <time>2022-10-29T15:31:45.000Z</time>
      </trkpt>
      <trkpt lat="47.21565" lon="4.01627">
        <ele>594.59997558594</ele>
        <time>2022-10-29T15:31:52.000Z</time>
      </trkpt>
      <trkpt lat="47.21578" lon="4.01683">
        <ele>593.40002441406</ele>
        <time>2022-10-29T15:31:59.000Z</time>
      </trkpt>
      <trkpt lat="47.2158" lon="4.01691">
        <ele>593.40002441406</ele>
        <time>2022-10-29T15:32:00.000Z</time>
      </trkpt>
      <trkpt lat="47.21583" lon="4.01707">
        <ele>593.20001220703</ele>
        <time>2022-10-29T15:32:02.000Z</time>
      </trkpt>
      <trkpt lat="47.21584" lon="4.01716">
        <ele>593.20001220703</ele>
        <time>2022-10-29T15:32:03.000Z</time>
      </trkpt>
      <trkpt lat="47.21586" lon="4.01743">
        <ele>593</ele>
        <time>2022-10-29T15:32:06.000Z</time>
      </trkpt>
      <trkpt lat="47.21584" lon="4.01763">
        <ele>592.79998779297</ele>
        <time>2022-10-29T15:32:08.000Z</time>
      </trkpt>
      <trkpt lat="47.21583" lon="4.01773">
        <ele>592.59997558594</ele>
        <time>2022-10-29T15:32:09.000Z</time>
      </trkpt>
      <trkpt lat="47.21579" lon="4.01792">
        <ele>592.20001220703</ele>
        <time>2022-10-29T15:32:11.000Z</time>
      </trkpt>
      <trkpt lat="47.21576" lon="4.01802">
        <ele>592.20001220703</ele>
        <time>2022-10-29T15:32:12.000Z</time>
      </trkpt>
      <trkpt lat="47.21565" lon="4.0185">
        <ele>591</ele>
        <time>2022-10-29T15:32:17.000Z</time>
      </trkpt>
      <trkpt lat="47.21555" lon="4.01888">
        <ele>590.20001220703</ele>
        <time>2022-10-29T15:32:21.000Z</time>
      </trkpt>
      <trkpt lat="47.21553" lon="4.01897">
        <ele>590</ele>
        <time>2022-10-29T15:32:22.000Z</time>
      </trkpt>
      <trkpt lat="47.21535" lon="4.01972">
        <ele>589</ele>
        <time>2022-10-29T15:32:30.000Z</time>
      </trkpt>
      <trkpt lat="47.21533" lon="4.01981">
        <ele>589</ele>
        <time>2022-10-29T15:32:31.000Z</time>
      </trkpt>
      <trkpt lat="47.21522" lon="4.02048">
        <ele>588.20001220703</ele>
        <time>2022-10-29T15:32:38.000Z</time>
      </trkpt>
      <trkpt lat="47.21517" lon="4.02077">
        <ele>587.79998779297</ele>
        <time>2022-10-29T15:32:41.000Z</time>
      </trkpt>
      <trkpt lat="47.21505" lon="4.02146">
        <ele>587.20001220703</ele>
        <time>2022-10-29T15:32:48.000Z</time>
      </trkpt>
      <trkpt lat="47.21494" lon="4.02205">
        <ele>586.79998779297</ele>
        <time>2022-10-29T15:32:54.000Z</time>
      </trkpt>
      <trkpt lat="47.21488" lon="4.02242">
        <ele>586.40002441406</ele>
        <time>2022-10-29T15:32:58.000Z</time>
      </trkpt>
      <trkpt lat="47.21477" lon="4.02306">
        <ele>586</ele>
        <time>2022-10-29T15:33:05.000Z</time>
      </trkpt>
      <trkpt lat="47.21462" lon="4.02384">
        <ele>585.79998779297</ele>
        <time>2022-10-29T15:33:14.000Z</time>
      </trkpt>
      <trkpt lat="47.21459" lon="4.02403">
        <ele>585.79998779297</ele>
        <time>2022-10-29T15:33:16.000Z</time>
      </trkpt>
      <trkpt lat="47.21454" lon="4.02452">
        <ele>585</ele>
        <time>2022-10-29T15:33:21.000Z</time>
      </trkpt>
      <trkpt lat="47.21455" lon="4.02473">
        <ele>584.59997558594</ele>
        <time>2022-10-29T15:33:23.000Z</time>
      </trkpt>
      <trkpt lat="47.21457" lon="4.02513">
        <ele>583.79998779297</ele>
        <time>2022-10-29T15:33:27.000Z</time>
      </trkpt>
      <trkpt lat="47.21459" lon="4.02522">
        <ele>583.59997558594</ele>
        <time>2022-10-29T15:33:28.000Z</time>
      </trkpt>
      <trkpt lat="47.21462" lon="4.0254">
        <ele>583.20001220703</ele>
        <time>2022-10-29T15:33:30.000Z</time>
      </trkpt>
      <trkpt lat="47.21461" lon="4.02548">
        <ele>582.79998779297</ele>
        <time>2022-10-29T15:33:31.000Z</time>
      </trkpt>
      <trkpt lat="47.21458" lon="4.02554">
        <ele>582.59997558594</ele>
        <time>2022-10-29T15:33:32.000Z</time>
      </trkpt>
      <trkpt lat="47.21453" lon="4.02557">
        <ele>582.40002441406</ele>
        <time>2022-10-29T15:33:33.000Z</time>
      </trkpt>
      <trkpt lat="47.21446" lon="4.02558">
        <ele>582.40002441406</ele>
        <time>2022-10-29T15:33:34.000Z</time>
      </trkpt>
      <trkpt lat="47.21425" lon="4.02555">
        <ele>582.20001220703</ele>
        <time>2022-10-29T15:33:37.000Z</time>
      </trkpt>
      <trkpt lat="47.2141" lon="4.02553">
        <ele>581.59997558594</ele>
        <time>2022-10-29T15:33:39.000Z</time>
      </trkpt>
      <trkpt lat="47.21393" lon="4.0255">
        <ele>580.79998779297</ele>
        <time>2022-10-29T15:33:41.000Z</time>
      </trkpt>
      <trkpt lat="47.21386" lon="4.02547">
        <ele>580.59997558594</ele>
        <time>2022-10-29T15:33:42.000Z</time>
      </trkpt>
      <trkpt lat="47.21379" lon="4.02541">
        <ele>580.40002441406</ele>
        <time>2022-10-29T15:33:43.000Z</time>
      </trkpt>
      <trkpt lat="47.21364" lon="4.02525">
        <ele>579.59997558594</ele>
        <time>2022-10-29T15:33:45.000Z</time>
      </trkpt>
      <trkpt lat="47.21359" lon="4.02516">
        <ele>579</ele>
        <time>2022-10-29T15:33:46.000Z</time>
      </trkpt>
      <trkpt lat="47.21355" lon="4.02505">
        <ele>578.79998779297</ele>
        <time>2022-10-29T15:33:47.000Z</time>
      </trkpt>
      <trkpt lat="47.21351" lon="4.02493">
        <ele>578.40002441406</ele>
        <time>2022-10-29T15:33:48.000Z</time>
      </trkpt>
      <trkpt lat="47.21345" lon="4.02471">
        <ele>577.79998779297</ele>
        <time>2022-10-29T15:33:50.000Z</time>
      </trkpt>
      <trkpt lat="47.21333" lon="4.02426">
        <ele>576.59997558594</ele>
        <time>2022-10-29T15:33:54.000Z</time>
      </trkpt>
      <trkpt lat="47.21318" lon="4.02367">
        <ele>575.59997558594</ele>
        <time>2022-10-29T15:33:59.000Z</time>
      </trkpt>
      <trkpt lat="47.21299" lon="4.02308">
        <ele>574.40002441406</ele>
        <time>2022-10-29T15:34:04.000Z</time>
      </trkpt>
      <trkpt lat="47.21284" lon="4.02276">
        <ele>573.20001220703</ele>
        <time>2022-10-29T15:34:07.000Z</time>
      </trkpt>
      <trkpt lat="47.21279" lon="4.02266">
        <ele>572.79998779297</ele>
        <time>2022-10-29T15:34:08.000Z</time>
      </trkpt>
      <trkpt lat="47.21275" lon="4.02258">
        <ele>572.40002441406</ele>
        <time>2022-10-29T15:34:09.000Z</time>
      </trkpt>
      <trkpt lat="47.21271" lon="4.02251">
        <ele>571.59997558594</ele>
        <time>2022-10-29T15:34:10.000Z</time>
      </trkpt>
      <trkpt lat="47.21259" lon="4.02247">
        <ele>570.59997558594</ele>
        <time>2022-10-29T15:34:12.000Z</time>
      </trkpt>
      <trkpt lat="47.21249" lon="4.02255">
        <ele>570</ele>
        <time>2022-10-29T15:34:14.000Z</time>
      </trkpt>
      <trkpt lat="47.21244" lon="4.02261">
        <ele>569.79998779297</ele>
        <time>2022-10-29T15:34:15.000Z</time>
      </trkpt>
      <trkpt lat="47.21239" lon="4.02267">
        <ele>569.59997558594</ele>
        <time>2022-10-29T15:34:16.000Z</time>
      </trkpt>
      <trkpt lat="47.21219" lon="4.02278">
        <ele>569.40002441406</ele>
        <time>2022-10-29T15:34:19.000Z</time>
      </trkpt>
      <trkpt lat="47.21188" lon="4.02292">
        <ele>569</ele>
        <time>2022-10-29T15:34:23.000Z</time>
      </trkpt>
      <trkpt lat="47.21181" lon="4.02298">
        <ele>568.40002441406</ele>
        <time>2022-10-29T15:34:24.000Z</time>
      </trkpt>
      <trkpt lat="47.21149" lon="4.02317">
        <ele>567</ele>
        <time>2022-10-29T15:34:28.000Z</time>
      </trkpt>
      <trkpt lat="47.2114" lon="4.0232">
        <ele>566.59997558594</ele>
        <time>2022-10-29T15:34:29.000Z</time>
      </trkpt>
      <trkpt lat="47.21123" lon="4.02324">
        <ele>565.40002441406</ele>
        <time>2022-10-29T15:34:31.000Z</time>
      </trkpt>
      <trkpt lat="47.2109" lon="4.02331">
        <ele>564.59997558594</ele>
        <time>2022-10-29T15:34:35.000Z</time>
      </trkpt>
      <trkpt lat="47.21082" lon="4.02333">
        <ele>564.40002441406</ele>
        <time>2022-10-29T15:34:36.000Z</time>
      </trkpt>
      <trkpt lat="47.21051" lon="4.0235">
        <ele>563.59997558594</ele>
        <time>2022-10-29T15:34:40.000Z</time>
      </trkpt>
      <trkpt lat="47.21036" lon="4.02363">
        <ele>563.20001220703</ele>
        <time>2022-10-29T15:34:42.000Z</time>
      </trkpt>
      <trkpt lat="47.21024" lon="4.0238">
        <ele>562.79998779297</ele>
        <time>2022-10-29T15:34:44.000Z</time>
      </trkpt>
      <trkpt lat="47.21019" lon="4.02389">
        <ele>562.59997558594</ele>
        <time>2022-10-29T15:34:45.000Z</time>
      </trkpt>
      <trkpt lat="47.2101" lon="4.02407">
        <ele>562</ele>
        <time>2022-10-29T15:34:47.000Z</time>
      </trkpt>
      <trkpt lat="47.21005" lon="4.02419">
        <ele>561.59997558594</ele>
        <time>2022-10-29T15:34:48.000Z</time>
      </trkpt>
      <trkpt lat="47.20998" lon="4.02441">
        <ele>561</ele>
        <time>2022-10-29T15:34:50.000Z</time>
      </trkpt>
      <trkpt lat="47.20985" lon="4.02484">
        <ele>560.40002441406</ele>
        <time>2022-10-29T15:34:54.000Z</time>
      </trkpt>
      <trkpt lat="47.20978" lon="4.02506">
        <ele>560</ele>
        <time>2022-10-29T15:34:56.000Z</time>
      </trkpt>
      <trkpt lat="47.20961" lon="4.02562">
        <ele>558.79998779297</ele>
        <time>2022-10-29T15:35:01.000Z</time>
      </trkpt>
      <trkpt lat="47.20958" lon="4.02574">
        <ele>558.79998779297</ele>
        <time>2022-10-29T15:35:02.000Z</time>
      </trkpt>
      <trkpt lat="47.20951" lon="4.02627">
        <ele>557.59997558594</ele>
        <time>2022-10-29T15:35:06.000Z</time>
      </trkpt>
      <trkpt lat="47.20949" lon="4.02641">
        <ele>557</ele>
        <time>2022-10-29T15:35:07.000Z</time>
      </trkpt>
      <trkpt lat="47.20947" lon="4.0267">
        <ele>555.79998779297</ele>
        <time>2022-10-29T15:35:09.000Z</time>
      </trkpt>
      <trkpt lat="47.20942" lon="4.02699">
        <ele>555</ele>
        <time>2022-10-29T15:35:11.000Z</time>
      </trkpt>
      <trkpt lat="47.20938" lon="4.02714">
        <ele>554.59997558594</ele>
        <time>2022-10-29T15:35:12.000Z</time>
      </trkpt>
      <trkpt lat="47.20933" lon="4.02727">
        <ele>554.40002441406</ele>
        <time>2022-10-29T15:35:13.000Z</time>
      </trkpt>
      <trkpt lat="47.2092" lon="4.02751">
        <ele>553.59997558594</ele>
        <time>2022-10-29T15:35:15.000Z</time>
      </trkpt>
      <trkpt lat="47.20912" lon="4.02762">
        <ele>552.40002441406</ele>
        <time>2022-10-29T15:35:16.000Z</time>
      </trkpt>
      <trkpt lat="47.20897" lon="4.02783">
        <ele>551.20001220703</ele>
        <time>2022-10-29T15:35:18.000Z</time>
      </trkpt>
      <trkpt lat="47.20883" lon="4.02803">
        <ele>550.20001220703</ele>
        <time>2022-10-29T15:35:20.000Z</time>
      </trkpt>
      <trkpt lat="47.20876" lon="4.02812">
        <ele>549.79998779297</ele>
        <time>2022-10-29T15:35:21.000Z</time>
      </trkpt>
      <trkpt lat="47.20863" lon="4.02829">
        <ele>549</ele>
        <time>2022-10-29T15:35:23.000Z</time>
      </trkpt>
      <trkpt lat="47.20839" lon="4.02861">
        <ele>548.59997558594</ele>
        <time>2022-10-29T15:35:27.000Z</time>
      </trkpt>
      <trkpt lat="47.20807" lon="4.02908">
        <ele>548</ele>
        <time>2022-10-29T15:35:33.000Z</time>
      </trkpt>
      <trkpt lat="47.20795" lon="4.02942">
        <ele>548</ele>
        <time>2022-10-29T15:35:37.000Z</time>
      </trkpt>
      <trkpt lat="47.20788" lon="4.02983">
        <ele>548.59997558594</ele>
        <time>2022-10-29T15:35:42.000Z</time>
      </trkpt>
      <trkpt lat="47.20786" lon="4.03018">
        <ele>549.59997558594</ele>
        <time>2022-10-29T15:35:47.000Z</time>
      </trkpt>
      <trkpt lat="47.20786" lon="4.03024">
        <ele>549.59997558594</ele>
        <time>2022-10-29T15:35:48.000Z</time>
      </trkpt>
      <trkpt lat="47.20785" lon="4.0304">
        <ele>550</ele>
        <time>2022-10-29T15:35:51.000Z</time>
      </trkpt>
      <trkpt lat="47.20783" lon="4.03059">
        <ele>551</ele>
        <time>2022-10-29T15:35:55.000Z</time>
      </trkpt>
      <trkpt lat="47.20783" lon="4.03064">
        <ele>551.20001220703</ele>
        <time>2022-10-29T15:35:56.000Z</time>
      </trkpt>
      <trkpt lat="47.20782" lon="4.03088">
        <ele>552.40002441406</ele>
        <time>2022-10-29T15:36:01.000Z</time>
      </trkpt>
      <trkpt lat="47.20778" lon="4.0311">
        <ele>553.40002441406</ele>
        <time>2022-10-29T15:36:06.000Z</time>
      </trkpt>
      <trkpt lat="47.20774" lon="4.03124">
        <ele>554.40002441406</ele>
        <time>2022-10-29T15:36:09.000Z</time>
      </trkpt>
      <trkpt lat="47.20772" lon="4.03128">
        <ele>554.59997558594</ele>
        <time>2022-10-29T15:36:10.000Z</time>
      </trkpt>
      <trkpt lat="47.20766" lon="4.03143">
        <ele>555.20001220703</ele>
        <time>2022-10-29T15:36:14.000Z</time>
      </trkpt>
      <trkpt lat="47.20762" lon="4.0315">
        <ele>555.79998779297</ele>
        <time>2022-10-29T15:36:16.000Z</time>
      </trkpt>
      <trkpt lat="47.20753" lon="4.03166">
        <ele>556.20001220703</ele>
        <time>2022-10-29T15:36:20.000Z</time>
      </trkpt>
      <trkpt lat="47.20748" lon="4.03179">
        <ele>557</ele>
        <time>2022-10-29T15:36:23.000Z</time>
      </trkpt>
      <trkpt lat="47.20735" lon="4.03198">
        <ele>557.79998779297</ele>
        <time>2022-10-29T15:36:28.000Z</time>
      </trkpt>
      <trkpt lat="47.20734" lon="4.03202">
        <ele>558</ele>
        <time>2022-10-29T15:36:29.000Z</time>
      </trkpt>
      <trkpt lat="47.20726" lon="4.03224">
        <ele>559.20001220703</ele>
        <time>2022-10-29T15:36:34.000Z</time>
      </trkpt>
      <trkpt lat="47.20719" lon="4.03241">
        <ele>560</ele>
        <time>2022-10-29T15:36:38.000Z</time>
      </trkpt>
      <trkpt lat="47.20717" lon="4.03249">
        <ele>560.40002441406</ele>
        <time>2022-10-29T15:36:40.000Z</time>
      </trkpt>
      <trkpt lat="47.20709" lon="4.03281">
        <ele>561.40002441406</ele>
        <time>2022-10-29T15:36:47.000Z</time>
      </trkpt>
      <trkpt lat="47.20708" lon="4.03285">
        <ele>561.59997558594</ele>
        <time>2022-10-29T15:36:48.000Z</time>
      </trkpt>
      <trkpt lat="47.20707" lon="4.03304">
        <ele>562.79998779297</ele>
        <time>2022-10-29T15:36:52.000Z</time>
      </trkpt>
      <trkpt lat="47.20707" lon="4.03318">
        <ele>563</ele>
        <time>2022-10-29T15:36:55.000Z</time>
      </trkpt>
      <trkpt lat="47.20707" lon="4.03336">
        <ele>563.79998779297</ele>
        <time>2022-10-29T15:36:59.000Z</time>
      </trkpt>
      <trkpt lat="47.20708" lon="4.03358">
        <ele>564.59997558594</ele>
        <time>2022-10-29T15:37:04.000Z</time>
      </trkpt>
      <trkpt lat="47.20709" lon="4.03362">
        <ele>564.79998779297</ele>
        <time>2022-10-29T15:37:05.000Z</time>
      </trkpt>
      <trkpt lat="47.20712" lon="4.0339">
        <ele>565.79998779297</ele>
        <time>2022-10-29T15:37:12.000Z</time>
      </trkpt>
      <trkpt lat="47.20715" lon="4.03414">
        <ele>566.79998779297</ele>
        <time>2022-10-29T15:37:19.000Z</time>
      </trkpt>
      <trkpt lat="47.20715" lon="4.03417">
        <ele>567</ele>
        <time>2022-10-29T15:37:20.000Z</time>
      </trkpt>
      <trkpt lat="47.20717" lon="4.03433">
        <ele>567.79998779297</ele>
        <time>2022-10-29T15:37:24.000Z</time>
      </trkpt>
      <trkpt lat="47.20718" lon="4.0344">
        <ele>568</ele>
        <time>2022-10-29T15:37:26.000Z</time>
      </trkpt>
      <trkpt lat="47.2072" lon="4.0346">
        <ele>568.40002441406</ele>
        <time>2022-10-29T15:37:31.000Z</time>
      </trkpt>
      <trkpt lat="47.20721" lon="4.03473">
        <ele>568.79998779297</ele>
        <time>2022-10-29T15:37:34.000Z</time>
      </trkpt>
      <trkpt lat="47.20721" lon="4.03484">
        <ele>569.40002441406</ele>
        <time>2022-10-29T15:37:37.000Z</time>
      </trkpt>
      <trkpt lat="47.20718" lon="4.03507">
        <ele>570</ele>
        <time>2022-10-29T15:37:42.000Z</time>
      </trkpt>
      <trkpt lat="47.20717" lon="4.03517">
        <ele>570.40002441406</ele>
        <time>2022-10-29T15:37:44.000Z</time>
      </trkpt>
      <trkpt lat="47.20714" lon="4.03535">
        <ele>571</ele>
        <time>2022-10-29T15:37:48.000Z</time>
      </trkpt>
      <trkpt lat="47.20713" lon="4.03548">
        <ele>571.59997558594</ele>
        <time>2022-10-29T15:37:51.000Z</time>
      </trkpt>
      <trkpt lat="47.20716" lon="4.03567">
        <ele>572.20001220703</ele>
        <time>2022-10-29T15:37:54.000Z</time>
      </trkpt>
      <trkpt lat="47.20721" lon="4.03583">
        <ele>572.40002441406</ele>
        <time>2022-10-29T15:37:57.000Z</time>
      </trkpt>
      <trkpt lat="47.20729" lon="4.03609">
        <ele>573.20001220703</ele>
        <time>2022-10-29T15:38:03.000Z</time>
      </trkpt>
      <trkpt lat="47.20733" lon="4.03617">
        <ele>573.79998779297</ele>
        <time>2022-10-29T15:38:05.000Z</time>
      </trkpt>
      <trkpt lat="47.20738" lon="4.0363">
        <ele>574.40002441406</ele>
        <time>2022-10-29T15:38:08.000Z</time>
      </trkpt>
      <trkpt lat="47.2075" lon="4.03652">
        <ele>575.20001220703</ele>
        <time>2022-10-29T15:38:14.000Z</time>
      </trkpt>
      <trkpt lat="47.20752" lon="4.03655">
        <ele>575.59997558594</ele>
        <time>2022-10-29T15:38:15.000Z</time>
      </trkpt>
      <trkpt lat="47.20767" lon="4.03681">
        <ele>576.40002441406</ele>
        <time>2022-10-29T15:38:22.000Z</time>
      </trkpt>
      <trkpt lat="47.20771" lon="4.03688">
        <ele>576.59997558594</ele>
        <time>2022-10-29T15:38:24.000Z</time>
      </trkpt>
      <trkpt lat="47.20779" lon="4.03699">
        <ele>577.20001220703</ele>
        <time>2022-10-29T15:38:27.000Z</time>
      </trkpt>
      <trkpt lat="47.20784" lon="4.03711">
        <ele>577.79998779297</ele>
        <time>2022-10-29T15:38:30.000Z</time>
      </trkpt>
      <trkpt lat="47.20794" lon="4.03728">
        <ele>578.40002441406</ele>
        <time>2022-10-29T15:38:35.000Z</time>
      </trkpt>
      <trkpt lat="47.20798" lon="4.03735">
        <ele>578.79998779297</ele>
        <time>2022-10-29T15:38:37.000Z</time>
      </trkpt>
      <trkpt lat="47.2081" lon="4.03756">
        <ele>579.40002441406</ele>
        <time>2022-10-29T15:38:43.000Z</time>
      </trkpt>
      <trkpt lat="47.20816" lon="4.03769">
        <ele>580</ele>
        <time>2022-10-29T15:38:46.000Z</time>
      </trkpt>
      <trkpt lat="47.20825" lon="4.03796">
        <ele>580.79998779297</ele>
        <time>2022-10-29T15:38:51.000Z</time>
      </trkpt>
      <trkpt lat="47.20828" lon="4.03807">
        <ele>581.20001220703</ele>
        <time>2022-10-29T15:38:53.000Z</time>
      </trkpt>
      <trkpt lat="47.20833" lon="4.03838">
        <ele>581.79998779297</ele>
        <time>2022-10-29T15:38:58.000Z</time>
      </trkpt>
      <trkpt lat="47.20835" lon="4.03871">
        <ele>582.20001220703</ele>
        <time>2022-10-29T15:39:03.000Z</time>
      </trkpt>
      <trkpt lat="47.20834" lon="4.0389">
        <ele>583</ele>
        <time>2022-10-29T15:39:06.000Z</time>
      </trkpt>
      <trkpt lat="47.2083" lon="4.03915">
        <ele>583.40002441406</ele>
        <time>2022-10-29T15:39:10.000Z</time>
      </trkpt>
      <trkpt lat="47.20823" lon="4.03938">
        <ele>583.79998779297</ele>
        <time>2022-10-29T15:39:14.000Z</time>
      </trkpt>
      <trkpt lat="47.20802" lon="4.03981">
        <ele>584.20001220703</ele>
        <time>2022-10-29T15:39:22.000Z</time>
      </trkpt>
      <trkpt lat="47.20792" lon="4.03996">
        <ele>584.20001220703</ele>
        <time>2022-10-29T15:39:25.000Z</time>
      </trkpt>
      <trkpt lat="47.20787" lon="4.04007">
        <ele>584.40002441406</ele>
        <time>2022-10-29T15:39:27.000Z</time>
      </trkpt>
      <trkpt lat="47.20782" lon="4.04019">
        <ele>584.40002441406</ele>
        <time>2022-10-29T15:39:29.000Z</time>
      </trkpt>
      <trkpt lat="47.20763" lon="4.04073">
        <ele>584.79998779297</ele>
        <time>2022-10-29T15:39:38.000Z</time>
      </trkpt>
      <trkpt lat="47.20745" lon="4.04123">
        <ele>585.20001220703</ele>
        <time>2022-10-29T15:39:46.000Z</time>
      </trkpt>
      <trkpt lat="47.20744" lon="4.0413">
        <ele>585.20001220703</ele>
        <time>2022-10-29T15:39:47.000Z</time>
      </trkpt>
      <trkpt lat="47.20737" lon="4.04152">
        <ele>585.40002441406</ele>
        <time>2022-10-29T15:39:50.000Z</time>
      </trkpt>
      <trkpt lat="47.20727" lon="4.04192">
        <ele>585.59997558594</ele>
        <time>2022-10-29T15:39:55.000Z</time>
      </trkpt>
      <trkpt lat="47.20727" lon="4.042">
        <ele>585.79998779297</ele>
        <time>2022-10-29T15:39:56.000Z</time>
      </trkpt>
      <trkpt lat="47.20725" lon="4.04224">
        <ele>586</ele>
        <time>2022-10-29T15:39:59.000Z</time>
      </trkpt>
      <trkpt lat="47.20723" lon="4.0424">
        <ele>586.20001220703</ele>
        <time>2022-10-29T15:40:01.000Z</time>
      </trkpt>
      <trkpt lat="47.20722" lon="4.04248">
        <ele>586.40002441406</ele>
        <time>2022-10-29T15:40:02.000Z</time>
      </trkpt>
      <trkpt lat="47.20721" lon="4.04255">
        <ele>586.59997558594</ele>
        <time>2022-10-29T15:40:03.000Z</time>
      </trkpt>
      <trkpt lat="47.20715" lon="4.04277">
        <ele>587.20001220703</ele>
        <time>2022-10-29T15:40:06.000Z</time>
      </trkpt>
      <trkpt lat="47.20713" lon="4.04283">
        <ele>587.20001220703</ele>
        <time>2022-10-29T15:40:07.000Z</time>
      </trkpt>
      <trkpt lat="47.2071" lon="4.04293">
        <ele>587.40002441406</ele>
        <time>2022-10-29T15:40:09.000Z</time>
      </trkpt>
      <trkpt lat="47.20705" lon="4.04303">
        <ele>587.59997558594</ele>
        <time>2022-10-29T15:40:11.000Z</time>
      </trkpt>
      <trkpt lat="47.20681" lon="4.04334">
        <ele>588.20001220703</ele>
        <time>2022-10-29T15:40:16.000Z</time>
      </trkpt>
      <trkpt lat="47.20677" lon="4.04339">
        <ele>588.20001220703</ele>
        <time>2022-10-29T15:40:17.000Z</time>
      </trkpt>
      <trkpt lat="47.20673" lon="4.04343">
        <ele>588.40002441406</ele>
        <time>2022-10-29T15:40:18.000Z</time>
      </trkpt>
      <trkpt lat="47.20664" lon="4.04355">
        <ele>588.59997558594</ele>
        <time>2022-10-29T15:40:21.000Z</time>
      </trkpt>
      <trkpt lat="47.2066" lon="4.0436">
        <ele>588.59997558594</ele>
        <time>2022-10-29T15:40:22.000Z</time>
      </trkpt>
      <trkpt lat="47.20649" lon="4.04369">
        <ele>588.79998779297</ele>
        <time>2022-10-29T15:40:24.000Z</time>
      </trkpt>
      <trkpt lat="47.20635" lon="4.04384">
        <ele>589</ele>
        <time>2022-10-29T15:40:27.000Z</time>
      </trkpt>
      <trkpt lat="47.20625" lon="4.04396">
        <ele>589.20001220703</ele>
        <time>2022-10-29T15:40:29.000Z</time>
      </trkpt>
      <trkpt lat="47.2061" lon="4.04409">
        <ele>589.20001220703</ele>
        <time>2022-10-29T15:40:32.000Z</time>
      </trkpt>
      <trkpt lat="47.20602" lon="4.04417">
        <ele>589.40002441406</ele>
        <time>2022-10-29T15:40:33.000Z</time>
      </trkpt>
      <trkpt lat="47.20596" lon="4.04426">
        <ele>589.40002441406</ele>
        <time>2022-10-29T15:40:35.000Z</time>
      </trkpt>
      <trkpt lat="47.20587" lon="4.04438">
        <ele>589.40002441406</ele>
        <time>2022-10-29T15:40:37.000Z</time>
      </trkpt>
      <trkpt lat="47.20572" lon="4.04459">
        <ele>589.59997558594</ele>
        <time>2022-10-29T15:40:43.000Z</time>
      </trkpt>
      <trkpt lat="47.20549" lon="4.04477">
        <ele>590.20001220703</ele>
        <time>2022-10-29T15:40:49.000Z</time>
      </trkpt>
      <trkpt lat="47.20545" lon="4.0448">
        <ele>590.20001220703</ele>
        <time>2022-10-29T15:40:50.000Z</time>
      </trkpt>
      <trkpt lat="47.20535" lon="4.04485">
        <ele>590.59997558594</ele>
        <time>2022-10-29T15:40:52.000Z</time>
      </trkpt>
      <trkpt lat="47.2053" lon="4.04486">
        <ele>590.79998779297</ele>
        <time>2022-10-29T15:40:53.000Z</time>
      </trkpt>
      <trkpt lat="47.20518" lon="4.04492">
        <ele>591.20001220703</ele>
        <time>2022-10-29T15:40:56.000Z</time>
      </trkpt>
      <trkpt lat="47.20508" lon="4.04494">
        <ele>591.79998779297</ele>
        <time>2022-10-29T15:40:58.000Z</time>
      </trkpt>
      <trkpt lat="47.20492" lon="4.04497">
        <ele>592</ele>
        <time>2022-10-29T15:41:01.000Z</time>
      </trkpt>
      <trkpt lat="47.20477" lon="4.045">
        <ele>592.79998779297</ele>
        <time>2022-10-29T15:41:04.000Z</time>
      </trkpt>
      <trkpt lat="47.20471" lon="4.04502">
        <ele>593</ele>
        <time>2022-10-29T15:41:05.000Z</time>
      </trkpt>
      <trkpt lat="47.20466" lon="4.04503">
        <ele>593.20001220703</ele>
        <time>2022-10-29T15:41:06.000Z</time>
      </trkpt>
      <trkpt lat="47.20436" lon="4.04506">
        <ele>593.59997558594</ele>
        <time>2022-10-29T15:41:12.000Z</time>
      </trkpt>
      <trkpt lat="47.20391" lon="4.04511">
        <ele>593.79998779297</ele>
        <time>2022-10-29T15:41:20.000Z</time>
      </trkpt>
      <trkpt lat="47.20379" lon="4.04512">
        <ele>593.79998779297</ele>
        <time>2022-10-29T15:41:22.000Z</time>
      </trkpt>
      <trkpt lat="47.20346" lon="4.04515">
        <ele>593.79998779297</ele>
        <time>2022-10-29T15:41:28.000Z</time>
      </trkpt>
      <trkpt lat="47.20339" lon="4.04516">
        <ele>593.79998779297</ele>
        <time>2022-10-29T15:41:29.000Z</time>
      </trkpt>
      <trkpt lat="47.20319" lon="4.04518">
        <ele>593.79998779297</ele>
        <time>2022-10-29T15:41:33.000Z</time>
      </trkpt>
      <trkpt lat="47.20288" lon="4.04519">
        <ele>593.40002441406</ele>
        <time>2022-10-29T15:41:38.000Z</time>
      </trkpt>
      <trkpt lat="47.20275" lon="4.0452">
        <ele>593.40002441406</ele>
        <time>2022-10-29T15:41:40.000Z</time>
      </trkpt>
      <trkpt lat="47.20232" lon="4.04528">
        <ele>593.79998779297</ele>
        <time>2022-10-29T15:41:47.000Z</time>
      </trkpt>
      <trkpt lat="47.20225" lon="4.0453">
        <ele>594</ele>
        <time>2022-10-29T15:41:48.000Z</time>
      </trkpt>
      <trkpt lat="47.20182" lon="4.04545">
        <ele>594</ele>
        <time>2022-10-29T15:41:55.000Z</time>
      </trkpt>
      <trkpt lat="47.2013" lon="4.04571">
        <ele>593.59997558594</ele>
        <time>2022-10-29T15:42:03.000Z</time>
      </trkpt>
      <trkpt lat="47.20091" lon="4.04605">
        <ele>593</ele>
        <time>2022-10-29T15:42:10.000Z</time>
      </trkpt>
      <trkpt lat="47.20067" lon="4.0463">
        <ele>592.40002441406</ele>
        <time>2022-10-29T15:42:15.000Z</time>
      </trkpt>
      <trkpt lat="47.20057" lon="4.04642">
        <ele>592.40002441406</ele>
        <time>2022-10-29T15:42:17.000Z</time>
      </trkpt>
      <trkpt lat="47.20041" lon="4.04655">
        <ele>592.59997558594</ele>
        <time>2022-10-29T15:42:20.000Z</time>
      </trkpt>
      <trkpt lat="47.20023" lon="4.04668">
        <ele>592.79998779297</ele>
        <time>2022-10-29T15:42:23.000Z</time>
      </trkpt>
      <trkpt lat="47.20005" lon="4.04676">
        <ele>593.40002441406</ele>
        <time>2022-10-29T15:42:26.000Z</time>
      </trkpt>
      <trkpt lat="47.19984" lon="4.04682">
        <ele>594</ele>
        <time>2022-10-29T15:42:30.000Z</time>
      </trkpt>
      <trkpt lat="47.19964" lon="4.04687">
        <ele>594.59997558594</ele>
        <time>2022-10-29T15:42:34.000Z</time>
      </trkpt>
      <trkpt lat="47.19931" lon="4.04693">
        <ele>595</ele>
        <time>2022-10-29T15:42:40.000Z</time>
      </trkpt>
      <trkpt lat="47.19888" lon="4.04703">
        <ele>596</ele>
        <time>2022-10-29T15:42:48.000Z</time>
      </trkpt>
      <trkpt lat="47.19881" lon="4.04704">
        <ele>596.20001220703</ele>
        <time>2022-10-29T15:42:49.000Z</time>
      </trkpt>
      <trkpt lat="47.19826" lon="4.04718">
        <ele>596.59997558594</ele>
        <time>2022-10-29T15:42:59.000Z</time>
      </trkpt>
      <trkpt lat="47.19799" lon="4.04723">
        <ele>596.79998779297</ele>
        <time>2022-10-29T15:43:05.000Z</time>
      </trkpt>
      <trkpt lat="47.19777" lon="4.04727">
        <ele>597</ele>
        <time>2022-10-29T15:43:11.000Z</time>
      </trkpt>
      <trkpt lat="47.19747" lon="4.04735">
        <ele>596.79998779297</ele>
        <time>2022-10-29T15:43:18.000Z</time>
      </trkpt>
      <trkpt lat="47.19709" lon="4.04747">
        <ele>596.59997558594</ele>
        <time>2022-10-29T15:43:26.000Z</time>
      </trkpt>
      <trkpt lat="47.19702" lon="4.04757">
        <ele>596.59997558594</ele>
        <time>2022-10-29T15:43:28.000Z</time>
      </trkpt>
      <trkpt lat="47.19699" lon="4.04763">
        <ele>596.59997558594</ele>
        <time>2022-10-29T15:43:29.000Z</time>
      </trkpt>
      <trkpt lat="47.19697" lon="4.04771">
        <ele>596.59997558594</ele>
        <time>2022-10-29T15:43:30.000Z</time>
      </trkpt>
      <trkpt lat="47.19693" lon="4.04788">
        <ele>596.20001220703</ele>
        <time>2022-10-29T15:43:32.000Z</time>
      </trkpt>
      <trkpt lat="47.19689" lon="4.04795">
        <ele>596.20001220703</ele>
        <time>2022-10-29T15:43:33.000Z</time>
      </trkpt>
      <trkpt lat="47.19685" lon="4.048">
        <ele>596.20001220703</ele>
        <time>2022-10-29T15:43:34.000Z</time>
      </trkpt>
      <trkpt lat="47.19671" lon="4.0482">
        <ele>596.20001220703</ele>
        <time>2022-10-29T15:43:38.000Z</time>
      </trkpt>
      <trkpt lat="47.19668" lon="4.04824">
        <ele>596.20001220703</ele>
        <time>2022-10-29T15:43:39.000Z</time>
      </trkpt>
      <trkpt lat="47.1965" lon="4.04864">
        <ele>597</ele>
        <time>2022-10-29T15:43:45.000Z</time>
      </trkpt>
      <trkpt lat="47.19646" lon="4.04879">
        <ele>597.20001220703</ele>
        <time>2022-10-29T15:43:47.000Z</time>
      </trkpt>
      <trkpt lat="47.19639" lon="4.04909">
        <ele>597.59997558594</ele>
        <time>2022-10-29T15:43:51.000Z</time>
      </trkpt>
      <trkpt lat="47.19628" lon="4.04964">
        <ele>597.79998779297</ele>
        <time>2022-10-29T15:43:58.000Z</time>
      </trkpt>
      <trkpt lat="47.19611" lon="4.05024">
        <ele>597.40002441406</ele>
        <time>2022-10-29T15:44:06.000Z</time>
      </trkpt>
      <trkpt lat="47.19604" lon="4.0504">
        <ele>597.20001220703</ele>
        <time>2022-10-29T15:44:10.000Z</time>
      </trkpt>
      <trkpt lat="47.196" lon="4.05048">
        <ele>597</ele>
        <time>2022-10-29T15:44:16.000Z</time>
      </trkpt>
      <trkpt lat="47.19596" lon="4.05053">
        <ele>597</ele>
        <time>2022-10-29T15:44:25.000Z</time>
      </trkpt>
      <trkpt lat="47.19595" lon="4.05056">
        <ele>597</ele>
        <time>2022-10-29T15:44:27.000Z</time>
      </trkpt>
      <trkpt lat="47.19591" lon="4.0507">
        <ele>597</ele>
        <time>2022-10-29T15:44:32.000Z</time>
      </trkpt>
      <trkpt lat="47.19581" lon="4.05092">
        <ele>597</ele>
        <time>2022-10-29T15:44:37.000Z</time>
      </trkpt>
      <trkpt lat="47.19576" lon="4.0512">
        <ele>597</ele>
        <time>2022-10-29T15:44:41.000Z</time>
      </trkpt>
      <trkpt lat="47.19572" lon="4.05143">
        <ele>597</ele>
        <time>2022-10-29T15:44:44.000Z</time>
      </trkpt>
      <trkpt lat="47.19571" lon="4.05168">
        <ele>597</ele>
        <time>2022-10-29T15:44:47.000Z</time>
      </trkpt>
      <trkpt lat="47.19573" lon="4.05184">
        <ele>597</ele>
        <time>2022-10-29T15:44:49.000Z</time>
      </trkpt>
      <trkpt lat="47.19584" lon="4.05237">
        <ele>597</ele>
        <time>2022-10-29T15:44:56.000Z</time>
      </trkpt>
      <trkpt lat="47.19593" lon="4.05265">
        <ele>597</ele>
        <time>2022-10-29T15:45:00.000Z</time>
      </trkpt>
      <trkpt lat="47.196" lon="4.05279">
        <ele>597</ele>
        <time>2022-10-29T15:45:02.000Z</time>
      </trkpt>
      <trkpt lat="47.19604" lon="4.05285">
        <ele>597</ele>
        <time>2022-10-29T15:45:03.000Z</time>
      </trkpt>
      <trkpt lat="47.19612" lon="4.05293">
        <ele>597</ele>
        <time>2022-10-29T15:45:05.000Z</time>
      </trkpt>
      <trkpt lat="47.19618" lon="4.05297">
        <ele>597.20001220703</ele>
        <time>2022-10-29T15:45:06.000Z</time>
      </trkpt>
      <trkpt lat="47.19656" lon="4.05313">
        <ele>597.20001220703</ele>
        <time>2022-10-29T15:45:13.000Z</time>
      </trkpt>
      <trkpt lat="47.19694" lon="4.0532">
        <ele>597.40002441406</ele>
        <time>2022-10-29T15:45:20.000Z</time>
      </trkpt>
      <trkpt lat="47.19726" lon="4.05325">
        <ele>597.20001220703</ele>
        <time>2022-10-29T15:45:25.000Z</time>
      </trkpt>
      <trkpt lat="47.19732" lon="4.05327">
        <ele>596.79998779297</ele>
        <time>2022-10-29T15:45:26.000Z</time>
      </trkpt>
      <trkpt lat="47.19751" lon="4.05332">
        <ele>596.59997558594</ele>
        <time>2022-10-29T15:45:29.000Z</time>
      </trkpt>
      <trkpt lat="47.19767" lon="4.05342">
        <ele>596.40002441406</ele>
        <time>2022-10-29T15:45:32.000Z</time>
      </trkpt>
      <trkpt lat="47.19781" lon="4.05353">
        <ele>596.20001220703</ele>
        <time>2022-10-29T15:45:35.000Z</time>
      </trkpt>
      <trkpt lat="47.19796" lon="4.05364">
        <ele>596.20001220703</ele>
        <time>2022-10-29T15:45:38.000Z</time>
      </trkpt>
      <trkpt lat="47.19822" lon="4.05391">
        <ele>596.20001220703</ele>
        <time>2022-10-29T15:45:43.000Z</time>
      </trkpt>
      <trkpt lat="47.19832" lon="4.05414">
        <ele>596.20001220703</ele>
        <time>2022-10-29T15:45:46.000Z</time>
      </trkpt>
      <trkpt lat="47.19834" lon="4.05422">
        <ele>596.20001220703</ele>
        <time>2022-10-29T15:45:47.000Z</time>
      </trkpt>
      <trkpt lat="47.19834" lon="4.05431">
        <ele>596.40002441406</ele>
        <time>2022-10-29T15:45:48.000Z</time>
      </trkpt>
      <trkpt lat="47.19831" lon="4.05456">
        <ele>596.40002441406</ele>
        <time>2022-10-29T15:45:51.000Z</time>
      </trkpt>
      <trkpt lat="47.19822" lon="4.05499">
        <ele>596.40002441406</ele>
        <time>2022-10-29T15:45:57.000Z</time>
      </trkpt>
      <trkpt lat="47.19821" lon="4.05509">
        <ele>596.40002441406</ele>
        <time>2022-10-29T15:46:01.000Z</time>
      </trkpt>
      <trkpt lat="47.1982" lon="4.05514">
        <ele>596.20001220703</ele>
        <time>2022-10-29T15:46:06.000Z</time>
      </trkpt>
      <trkpt lat="47.1982" lon="4.05514">
        <ele>596.20001220703</ele>
        <time>2022-10-29T15:46:13.000Z</time>
      </trkpt>
      <trkpt lat="47.1982" lon="4.05514">
        <ele>596.40002441406</ele>
        <time>2022-10-29T15:46:21.000Z</time>
      </trkpt>
      <trkpt lat="47.19821" lon="4.05514">
        <ele>596.59997558594</ele>
        <time>2022-10-29T16:02:50.000Z</time>
      </trkpt>
      <trkpt lat="47.19821" lon="4.05514">
        <ele>596.59997558594</ele>
        <time>2022-10-29T16:03:56.000Z</time>
      </trkpt>
      <trkpt lat="47.19821" lon="4.05513">
        <ele>596.40002441406</ele>
        <time>2022-10-29T16:04:47.000Z</time>
      </trkpt>
      <trkpt lat="47.19823" lon="4.05508">
        <ele>596.40002441406</ele>
        <time>2022-10-29T16:04:49.000Z</time>
      </trkpt>
      <trkpt lat="47.19827" lon="4.05493">
        <ele>596.40002441406</ele>
        <time>2022-10-29T16:04:54.000Z</time>
      </trkpt>
      <trkpt lat="47.19828" lon="4.05492">
        <ele>596.40002441406</ele>
        <time>2022-10-29T16:04:55.000Z</time>
      </trkpt>
      <trkpt lat="47.19829" lon="4.05488">
        <ele>596.40002441406</ele>
        <time>2022-10-29T16:04:57.000Z</time>
      </trkpt>
      <trkpt lat="47.19829" lon="4.05486">
        <ele>596.40002441406</ele>
        <time>2022-10-29T16:04:58.000Z</time>
      </trkpt>
      <trkpt lat="47.19837" lon="4.05463">
        <ele>596.20001220703</ele>
        <time>2022-10-29T16:05:04.000Z</time>
      </trkpt>
      <trkpt lat="47.19841" lon="4.05429">
        <ele>596.40002441406</ele>
        <time>2022-10-29T16:05:09.000Z</time>
      </trkpt>
      <trkpt lat="47.19836" lon="4.05395">
        <ele>596.59997558594</ele>
        <time>2022-10-29T16:05:14.000Z</time>
      </trkpt>
      <trkpt lat="47.19829" lon="4.05383">
        <ele>596.59997558594</ele>
        <time>2022-10-29T16:05:16.000Z</time>
      </trkpt>
      <trkpt lat="47.19818" lon="4.0537">
        <ele>596.79998779297</ele>
        <time>2022-10-29T16:05:19.000Z</time>
      </trkpt>
      <trkpt lat="47.19785" lon="4.05347">
        <ele>597</ele>
        <time>2022-10-29T16:05:26.000Z</time>
      </trkpt>
      <trkpt lat="47.19759" lon="4.0533">
        <ele>597.20001220703</ele>
        <time>2022-10-29T16:05:32.000Z</time>
      </trkpt>
      <trkpt lat="47.1973" lon="4.05319">
        <ele>597.20001220703</ele>
        <time>2022-10-29T16:05:38.000Z</time>
      </trkpt>
      <trkpt lat="47.19726" lon="4.05318">
        <ele>597</ele>
        <time>2022-10-29T16:05:39.000Z</time>
      </trkpt>
      <trkpt lat="47.197" lon="4.05315">
        <ele>597</ele>
        <time>2022-10-29T16:05:45.000Z</time>
      </trkpt>
      <trkpt lat="47.19687" lon="4.05313">
        <ele>597.20001220703</ele>
        <time>2022-10-29T16:05:48.000Z</time>
      </trkpt>
      <trkpt lat="47.19676" lon="4.05311">
        <ele>597</ele>
        <time>2022-10-29T16:05:50.000Z</time>
      </trkpt>
      <trkpt lat="47.1965" lon="4.05304">
        <ele>597</ele>
        <time>2022-10-29T16:05:55.000Z</time>
      </trkpt>
      <trkpt lat="47.19627" lon="4.05295">
        <ele>597</ele>
        <time>2022-10-29T16:05:59.000Z</time>
      </trkpt>
      <trkpt lat="47.19616" lon="4.05287">
        <ele>597</ele>
        <time>2022-10-29T16:06:01.000Z</time>
      </trkpt>
      <trkpt lat="47.1961" lon="4.05281">
        <ele>597</ele>
        <time>2022-10-29T16:06:02.000Z</time>
      </trkpt>
      <trkpt lat="47.19602" lon="4.05269">
        <ele>597</ele>
        <time>2022-10-29T16:06:04.000Z</time>
      </trkpt>
      <trkpt lat="47.19594" lon="4.05249">
        <ele>597</ele>
        <time>2022-10-29T16:06:07.000Z</time>
      </trkpt>
      <trkpt lat="47.19583" lon="4.05204">
        <ele>597.20001220703</ele>
        <time>2022-10-29T16:06:13.000Z</time>
      </trkpt>
      <trkpt lat="47.19582" lon="4.05197">
        <ele>597.40002441406</ele>
        <time>2022-10-29T16:06:14.000Z</time>
      </trkpt>
      <trkpt lat="47.19578" lon="4.05163">
        <ele>597.40002441406</ele>
        <time>2022-10-29T16:06:18.000Z</time>
      </trkpt>
      <trkpt lat="47.19579" lon="4.05155">
        <ele>597.20001220703</ele>
        <time>2022-10-29T16:06:19.000Z</time>
      </trkpt>
      <trkpt lat="47.19587" lon="4.05101">
        <ele>597</ele>
        <time>2022-10-29T16:06:26.000Z</time>
      </trkpt>
      <trkpt lat="47.19603" lon="4.05063">
        <ele>597</ele>
        <time>2022-10-29T16:06:32.000Z</time>
      </trkpt>
      <trkpt lat="47.19606" lon="4.05056">
        <ele>597</ele>
        <time>2022-10-29T16:06:33.000Z</time>
      </trkpt>
      <trkpt lat="47.19611" lon="4.05042">
        <ele>597</ele>
        <time>2022-10-29T16:06:35.000Z</time>
      </trkpt>
      <trkpt lat="47.19616" lon="4.0503">
        <ele>597</ele>
        <time>2022-10-29T16:06:37.000Z</time>
      </trkpt>
      <trkpt lat="47.1963" lon="4.04987">
        <ele>597.20001220703</ele>
        <time>2022-10-29T16:06:43.000Z</time>
      </trkpt>
      <trkpt lat="47.19647" lon="4.04905">
        <ele>597.40002441406</ele>
        <time>2022-10-29T16:06:54.000Z</time>
      </trkpt>
      <trkpt lat="47.19659" lon="4.0486">
        <ele>597.59997558594</ele>
        <time>2022-10-29T16:07:00.000Z</time>
      </trkpt>
      <trkpt lat="47.19681" lon="4.04818">
        <ele>597.59997558594</ele>
        <time>2022-10-29T16:07:06.000Z</time>
      </trkpt>
      <trkpt lat="47.19707" lon="4.04782">
        <ele>597</ele>
        <time>2022-10-29T16:07:12.000Z</time>
      </trkpt>
      <trkpt lat="47.19711" lon="4.0477">
        <ele>596.79998779297</ele>
        <time>2022-10-29T16:07:14.000Z</time>
      </trkpt>
      <trkpt lat="47.19712" lon="4.04763">
        <ele>596.79998779297</ele>
        <time>2022-10-29T16:07:16.000Z</time>
      </trkpt>
      <trkpt lat="47.1971" lon="4.04756">
        <ele>596.59997558594</ele>
        <time>2022-10-29T16:07:19.000Z</time>
      </trkpt>
      <trkpt lat="47.19707" lon="4.04752">
        <ele>596.59997558594</ele>
        <time>2022-10-29T16:07:21.000Z</time>
      </trkpt>
      <trkpt lat="47.19697" lon="4.04748">
        <ele>596.59997558594</ele>
        <time>2022-10-29T16:07:24.000Z</time>
      </trkpt>
      <trkpt lat="47.19668" lon="4.04752">
        <ele>596.20001220703</ele>
        <time>2022-10-29T16:07:30.000Z</time>
      </trkpt>
      <trkpt lat="47.19663" lon="4.04754">
        <ele>596</ele>
        <time>2022-10-29T16:07:31.000Z</time>
      </trkpt>
      <trkpt lat="47.19645" lon="4.04761">
        <ele>595.59997558594</ele>
        <time>2022-10-29T16:07:34.000Z</time>
      </trkpt>
      <trkpt lat="47.19632" lon="4.04769">
        <ele>595.20001220703</ele>
        <time>2022-10-29T16:07:36.000Z</time>
      </trkpt>
      <trkpt lat="47.1961" lon="4.04789">
        <ele>594.20001220703</ele>
        <time>2022-10-29T16:07:39.000Z</time>
      </trkpt>
      <trkpt lat="47.19603" lon="4.04797">
        <ele>593.79998779297</ele>
        <time>2022-10-29T16:07:40.000Z</time>
      </trkpt>
      <trkpt lat="47.19581" lon="4.04824">
        <ele>592</ele>
        <time>2022-10-29T16:07:43.000Z</time>
      </trkpt>
      <trkpt lat="47.19574" lon="4.04834">
        <ele>591.59997558594</ele>
        <time>2022-10-29T16:07:44.000Z</time>
      </trkpt>
      <trkpt lat="47.19566" lon="4.04845">
        <ele>590.79998779297</ele>
        <time>2022-10-29T16:07:45.000Z</time>
      </trkpt>
      <trkpt lat="47.19553" lon="4.04866">
        <ele>589.79998779297</ele>
        <time>2022-10-29T16:07:47.000Z</time>
      </trkpt>
      <trkpt lat="47.19547" lon="4.04879">
        <ele>589.20001220703</ele>
        <time>2022-10-29T16:07:48.000Z</time>
      </trkpt>
      <trkpt lat="47.19537" lon="4.04906">
        <ele>587.59997558594</ele>
        <time>2022-10-29T16:07:50.000Z</time>
      </trkpt>
      <trkpt lat="47.19534" lon="4.0492">
        <ele>587.20001220703</ele>
        <time>2022-10-29T16:07:51.000Z</time>
      </trkpt>
      <trkpt lat="47.1953" lon="4.04934">
        <ele>586.40002441406</ele>
        <time>2022-10-29T16:07:52.000Z</time>
      </trkpt>
      <trkpt lat="47.19524" lon="4.04964">
        <ele>584.59997558594</ele>
        <time>2022-10-29T16:07:54.000Z</time>
      </trkpt>
      <trkpt lat="47.19517" lon="4.04993">
        <ele>583.59997558594</ele>
        <time>2022-10-29T16:07:56.000Z</time>
      </trkpt>
      <trkpt lat="47.19512" lon="4.05007">
        <ele>582.79998779297</ele>
        <time>2022-10-29T16:07:57.000Z</time>
      </trkpt>
      <trkpt lat="47.19506" lon="4.05021">
        <ele>582.20001220703</ele>
        <time>2022-10-29T16:07:58.000Z</time>
      </trkpt>
      <trkpt lat="47.19499" lon="4.05033">
        <ele>581.20001220703</ele>
        <time>2022-10-29T16:07:59.000Z</time>
      </trkpt>
      <trkpt lat="47.19491" lon="4.05044">
        <ele>580.20001220703</ele>
        <time>2022-10-29T16:08:00.000Z</time>
      </trkpt>
      <trkpt lat="47.19471" lon="4.05061">
        <ele>578.79998779297</ele>
        <time>2022-10-29T16:08:02.000Z</time>
      </trkpt>
      <trkpt lat="47.19461" lon="4.05066">
        <ele>578.40002441406</ele>
        <time>2022-10-29T16:08:03.000Z</time>
      </trkpt>
      <trkpt lat="47.19449" lon="4.05068">
        <ele>577.40002441406</ele>
        <time>2022-10-29T16:08:04.000Z</time>
      </trkpt>
      <trkpt lat="47.19438" lon="4.05069">
        <ele>576.20001220703</ele>
        <time>2022-10-29T16:08:05.000Z</time>
      </trkpt>
      <trkpt lat="47.19427" lon="4.05068">
        <ele>575.79998779297</ele>
        <time>2022-10-29T16:08:06.000Z</time>
      </trkpt>
      <trkpt lat="47.19417" lon="4.05068">
        <ele>575</ele>
        <time>2022-10-29T16:08:07.000Z</time>
      </trkpt>
      <trkpt lat="47.19397" lon="4.05066">
        <ele>573.79998779297</ele>
        <time>2022-10-29T16:08:09.000Z</time>
      </trkpt>
      <trkpt lat="47.19388" lon="4.05065">
        <ele>573.40002441406</ele>
        <time>2022-10-29T16:08:10.000Z</time>
      </trkpt>
      <trkpt lat="47.19361" lon="4.05063">
        <ele>572.59997558594</ele>
        <time>2022-10-29T16:08:13.000Z</time>
      </trkpt>
      <trkpt lat="47.19345" lon="4.05061">
        <ele>572.20001220703</ele>
        <time>2022-10-29T16:08:15.000Z</time>
      </trkpt>
      <trkpt lat="47.19309" lon="4.05062">
        <ele>572.40002441406</ele>
        <time>2022-10-29T16:08:20.000Z</time>
      </trkpt>
      <trkpt lat="47.19297" lon="4.05067">
        <ele>573</ele>
        <time>2022-10-29T16:08:22.000Z</time>
      </trkpt>
      <trkpt lat="47.19286" lon="4.05072">
        <ele>573.59997558594</ele>
        <time>2022-10-29T16:08:24.000Z</time>
      </trkpt>
      <trkpt lat="47.19268" lon="4.05084">
        <ele>574.79998779297</ele>
        <time>2022-10-29T16:08:28.000Z</time>
      </trkpt>
      <trkpt lat="47.19264" lon="4.05088">
        <ele>575.20001220703</ele>
        <time>2022-10-29T16:08:29.000Z</time>
      </trkpt>
      <trkpt lat="47.19258" lon="4.05096">
        <ele>576.20001220703</ele>
        <time>2022-10-29T16:08:31.000Z</time>
      </trkpt>
      <trkpt lat="47.19247" lon="4.05107">
        <ele>577.20001220703</ele>
        <time>2022-10-29T16:08:34.000Z</time>
      </trkpt>
      <trkpt lat="47.19244" lon="4.05111">
        <ele>577.59997558594</ele>
        <time>2022-10-29T16:08:35.000Z</time>
      </trkpt>
      <trkpt lat="47.19239" lon="4.05119">
        <ele>578.20001220703</ele>
        <time>2022-10-29T16:08:37.000Z</time>
      </trkpt>
      <trkpt lat="47.19231" lon="4.05138">
        <ele>579</ele>
        <time>2022-10-29T16:08:41.000Z</time>
      </trkpt>
      <trkpt lat="47.19229" lon="4.05143">
        <ele>579.20001220703</ele>
        <time>2022-10-29T16:08:42.000Z</time>
      </trkpt>
      <trkpt lat="47.19223" lon="4.05168">
        <ele>580.40002441406</ele>
        <time>2022-10-29T16:08:47.000Z</time>
      </trkpt>
      <trkpt lat="47.19218" lon="4.05191">
        <ele>581.40002441406</ele>
        <time>2022-10-29T16:08:52.000Z</time>
      </trkpt>
      <trkpt lat="47.19217" lon="4.05206">
        <ele>582.20001220703</ele>
        <time>2022-10-29T16:08:55.000Z</time>
      </trkpt>
      <trkpt lat="47.19216" lon="4.05215">
        <ele>582.59997558594</ele>
        <time>2022-10-29T16:08:57.000Z</time>
      </trkpt>
      <trkpt lat="47.19216" lon="4.05246">
        <ele>583.59997558594</ele>
        <time>2022-10-29T16:09:03.000Z</time>
      </trkpt>
      <trkpt lat="47.19215" lon="4.05255">
        <ele>584.20001220703</ele>
        <time>2022-10-29T16:09:05.000Z</time>
      </trkpt>
      <trkpt lat="47.19214" lon="4.05265">
        <ele>584.79998779297</ele>
        <time>2022-10-29T16:09:07.000Z</time>
      </trkpt>
      <trkpt lat="47.19211" lon="4.0529">
        <ele>585.79998779297</ele>
        <time>2022-10-29T16:09:12.000Z</time>
      </trkpt>
      <trkpt lat="47.19211" lon="4.05295">
        <ele>586</ele>
        <time>2022-10-29T16:09:13.000Z</time>
      </trkpt>
      <trkpt lat="47.19211" lon="4.05309">
        <ele>586.79998779297</ele>
        <time>2022-10-29T16:09:16.000Z</time>
      </trkpt>
      <trkpt lat="47.1921" lon="4.05326">
        <ele>587.40002441406</ele>
        <time>2022-10-29T16:09:20.000Z</time>
      </trkpt>
      <trkpt lat="47.19211" lon="4.05338">
        <ele>588</ele>
        <time>2022-10-29T16:09:23.000Z</time>
      </trkpt>
      <trkpt lat="47.19215" lon="4.05358">
        <ele>588.79998779297</ele>
        <time>2022-10-29T16:09:28.000Z</time>
      </trkpt>
      <trkpt lat="47.19219" lon="4.05369">
        <ele>589.40002441406</ele>
        <time>2022-10-29T16:09:31.000Z</time>
      </trkpt>
      <trkpt lat="47.19227" lon="4.05387">
        <ele>590</ele>
        <time>2022-10-29T16:09:36.000Z</time>
      </trkpt>
      <trkpt lat="47.19241" lon="4.05422">
        <ele>590.40002441406</ele>
        <time>2022-10-29T16:09:45.000Z</time>
      </trkpt>
      <trkpt lat="47.19242" lon="4.05452">
        <ele>590.40002441406</ele>
        <time>2022-10-29T16:09:51.000Z</time>
      </trkpt>
      <trkpt lat="47.19237" lon="4.05468">
        <ele>590.59997558594</ele>
        <time>2022-10-29T16:09:55.000Z</time>
      </trkpt>
      <trkpt lat="47.19235" lon="4.05471">
        <ele>590.59997558594</ele>
        <time>2022-10-29T16:09:56.000Z</time>
      </trkpt>
      <trkpt lat="47.19222" lon="4.05484">
        <ele>591.79998779297</ele>
        <time>2022-10-29T16:10:02.000Z</time>
      </trkpt>
      <trkpt lat="47.19206" lon="4.05487">
        <ele>592.40002441406</ele>
        <time>2022-10-29T16:10:08.000Z</time>
      </trkpt>
      <trkpt lat="47.19198" lon="4.05484">
        <ele>592.79998779297</ele>
        <time>2022-10-29T16:10:11.000Z</time>
      </trkpt>
      <trkpt lat="47.19191" lon="4.05479">
        <ele>593.40002441406</ele>
        <time>2022-10-29T16:10:14.000Z</time>
      </trkpt>
      <trkpt lat="47.19185" lon="4.05473">
        <ele>594</ele>
        <time>2022-10-29T16:10:17.000Z</time>
      </trkpt>
      <trkpt lat="47.1918" lon="4.05464">
        <ele>594.40002441406</ele>
        <time>2022-10-29T16:10:20.000Z</time>
      </trkpt>
      <trkpt lat="47.19174" lon="4.05451">
        <ele>595</ele>
        <time>2022-10-29T16:10:24.000Z</time>
      </trkpt>
      <trkpt lat="47.19171" lon="4.05444">
        <ele>595.59997558594</ele>
        <time>2022-10-29T16:10:26.000Z</time>
      </trkpt>
      <trkpt lat="47.19166" lon="4.0543">
        <ele>596.20001220703</ele>
        <time>2022-10-29T16:10:30.000Z</time>
      </trkpt>
      <trkpt lat="47.19159" lon="4.05414">
        <ele>596.79998779297</ele>
        <time>2022-10-29T16:10:35.000Z</time>
      </trkpt>
      <trkpt lat="47.19156" lon="4.05408">
        <ele>597.20001220703</ele>
        <time>2022-10-29T16:10:37.000Z</time>
      </trkpt>
      <trkpt lat="47.19147" lon="4.05384">
        <ele>598.40002441406</ele>
        <time>2022-10-29T16:10:44.000Z</time>
      </trkpt>
      <trkpt lat="47.19139" lon="4.05362">
        <ele>599.79998779297</ele>
        <time>2022-10-29T16:10:51.000Z</time>
      </trkpt>
      <trkpt lat="47.19136" lon="4.05355">
        <ele>599.79998779297</ele>
        <time>2022-10-29T16:10:53.000Z</time>
      </trkpt>
      <trkpt lat="47.19124" lon="4.05323">
        <ele>600.79998779297</ele>
        <time>2022-10-29T16:11:01.000Z</time>
      </trkpt>
      <trkpt lat="47.19109" lon="4.05284">
        <ele>601.40002441406</ele>
        <time>2022-10-29T16:11:09.000Z</time>
      </trkpt>
      <trkpt lat="47.19099" lon="4.05259">
        <ele>601.79998779297</ele>
        <time>2022-10-29T16:11:14.000Z</time>
      </trkpt>
      <trkpt lat="47.19095" lon="4.05249">
        <ele>601.79998779297</ele>
        <time>2022-10-29T16:11:16.000Z</time>
      </trkpt>
      <trkpt lat="47.19076" lon="4.05201">
        <ele>601.59997558594</ele>
        <time>2022-10-29T16:11:25.000Z</time>
      </trkpt>
      <trkpt lat="47.19057" lon="4.05156">
        <ele>601.20001220703</ele>
        <time>2022-10-29T16:11:32.000Z</time>
      </trkpt>
      <trkpt lat="47.19038" lon="4.05121">
        <ele>600.40002441406</ele>
        <time>2022-10-29T16:11:37.000Z</time>
      </trkpt>
      <trkpt lat="47.19033" lon="4.05113">
        <ele>600.20001220703</ele>
        <time>2022-10-29T16:11:38.000Z</time>
      </trkpt>
      <trkpt lat="47.19015" lon="4.05086">
        <ele>599.20001220703</ele>
        <time>2022-10-29T16:11:41.000Z</time>
      </trkpt>
      <trkpt lat="47.19003" lon="4.0507">
        <ele>598.40002441406</ele>
        <time>2022-10-29T16:11:43.000Z</time>
      </trkpt>
      <trkpt lat="47.18995" lon="4.05061">
        <ele>598</ele>
        <time>2022-10-29T16:11:44.000Z</time>
      </trkpt>
      <trkpt lat="47.18975" lon="4.0504">
        <ele>596.59997558594</ele>
        <time>2022-10-29T16:11:47.000Z</time>
      </trkpt>
      <trkpt lat="47.18967" lon="4.05033">
        <ele>596</ele>
        <time>2022-10-29T16:11:48.000Z</time>
      </trkpt>
      <trkpt lat="47.18958" lon="4.05024">
        <ele>595.20001220703</ele>
        <time>2022-10-29T16:11:49.000Z</time>
      </trkpt>
      <trkpt lat="47.18938" lon="4.05004">
        <ele>594.20001220703</ele>
        <time>2022-10-29T16:11:52.000Z</time>
      </trkpt>
      <trkpt lat="47.18906" lon="4.04973">
        <ele>593.40002441406</ele>
        <time>2022-10-29T16:11:57.000Z</time>
      </trkpt>
      <trkpt lat="47.18861" lon="4.04939">
        <ele>593.59997558594</ele>
        <time>2022-10-29T16:12:04.000Z</time>
      </trkpt>
      <trkpt lat="47.18809" lon="4.04896">
        <ele>594</ele>
        <time>2022-10-29T16:12:13.000Z</time>
      </trkpt>
      <trkpt lat="47.18805" lon="4.04892">
        <ele>594</ele>
        <time>2022-10-29T16:12:14.000Z</time>
      </trkpt>
      <trkpt lat="47.18768" lon="4.04848">
        <ele>594.40002441406</ele>
        <time>2022-10-29T16:12:21.000Z</time>
      </trkpt>
      <trkpt lat="47.18726" lon="4.04789">
        <ele>594.79998779297</ele>
        <time>2022-10-29T16:12:30.000Z</time>
      </trkpt>
      <trkpt lat="47.18714" lon="4.04771">
        <ele>594.79998779297</ele>
        <time>2022-10-29T16:12:33.000Z</time>
      </trkpt>
      <trkpt lat="47.18682" lon="4.04718">
        <ele>595.20001220703</ele>
        <time>2022-10-29T16:12:41.000Z</time>
      </trkpt>
      <trkpt lat="47.1868" lon="4.04712">
        <ele>595.40002441406</ele>
        <time>2022-10-29T16:12:42.000Z</time>
      </trkpt>
      <trkpt lat="47.18655" lon="4.0465">
        <ele>596</ele>
        <time>2022-10-29T16:12:50.000Z</time>
      </trkpt>
      <trkpt lat="47.18646" lon="4.04631">
        <ele>596.40002441406</ele>
        <time>2022-10-29T16:12:53.000Z</time>
      </trkpt>
      <trkpt lat="47.18624" lon="4.0459">
        <ele>596.79998779297</ele>
        <time>2022-10-29T16:12:59.000Z</time>
      </trkpt>
      <trkpt lat="47.18587" lon="4.04538">
        <ele>597.20001220703</ele>
        <time>2022-10-29T16:13:08.000Z</time>
      </trkpt>
      <trkpt lat="47.18554" lon="4.04507">
        <ele>597.40002441406</ele>
        <time>2022-10-29T16:13:15.000Z</time>
      </trkpt>
      <trkpt lat="47.18549" lon="4.04503">
        <ele>597.59997558594</ele>
        <time>2022-10-29T16:13:16.000Z</time>
      </trkpt>
      <trkpt lat="47.18498" lon="4.04473">
        <ele>598</ele>
        <time>2022-10-29T16:13:26.000Z</time>
      </trkpt>
      <trkpt lat="47.18447" lon="4.0446">
        <ele>598.20001220703</ele>
        <time>2022-10-29T16:13:35.000Z</time>
      </trkpt>
      <trkpt lat="47.18405" lon="4.04456">
        <ele>597.79998779297</ele>
        <time>2022-10-29T16:13:42.000Z</time>
      </trkpt>
      <trkpt lat="47.18352" lon="4.04452">
        <ele>596.79998779297</ele>
        <time>2022-10-29T16:13:50.000Z</time>
      </trkpt>
      <trkpt lat="47.18331" lon="4.04451">
        <ele>596.40002441406</ele>
        <time>2022-10-29T16:13:53.000Z</time>
      </trkpt>
      <trkpt lat="47.18287" lon="4.04448">
        <ele>595.40002441406</ele>
        <time>2022-10-29T16:13:59.000Z</time>
      </trkpt>
      <trkpt lat="47.1828" lon="4.04448">
        <ele>595.40002441406</ele>
        <time>2022-10-29T16:14:00.000Z</time>
      </trkpt>
      <trkpt lat="47.1822" lon="4.04443">
        <ele>594.20001220703</ele>
        <time>2022-10-29T16:14:08.000Z</time>
      </trkpt>
      <trkpt lat="47.18179" lon="4.04441">
        <ele>593.40002441406</ele>
        <time>2022-10-29T16:14:13.000Z</time>
      </trkpt>
      <trkpt lat="47.18133" lon="4.04437">
        <ele>592.40002441406</ele>
        <time>2022-10-29T16:14:19.000Z</time>
      </trkpt>
      <trkpt lat="47.18087" lon="4.04434">
        <ele>592.59997558594</ele>
        <time>2022-10-29T16:14:26.000Z</time>
      </trkpt>
      <trkpt lat="47.18036" lon="4.0443">
        <ele>593</ele>
        <time>2022-10-29T16:14:34.000Z</time>
      </trkpt>
      <trkpt lat="47.17988" lon="4.04423">
        <ele>592.79998779297</ele>
        <time>2022-10-29T16:14:42.000Z</time>
      </trkpt>
      <trkpt lat="47.17954" lon="4.0441">
        <ele>592.79998779297</ele>
        <time>2022-10-29T16:14:48.000Z</time>
      </trkpt>
      <trkpt lat="47.1791" lon="4.04378">
        <ele>593</ele>
        <time>2022-10-29T16:14:56.000Z</time>
      </trkpt>
      <trkpt lat="47.17878" lon="4.0434">
        <ele>592.79998779297</ele>
        <time>2022-10-29T16:15:03.000Z</time>
      </trkpt>
      <trkpt lat="47.17844" lon="4.04282">
        <ele>592.20001220703</ele>
        <time>2022-10-29T16:15:11.000Z</time>
      </trkpt>
      <trkpt lat="47.17816" lon="4.0423">
        <ele>591</ele>
        <time>2022-10-29T16:15:17.000Z</time>
      </trkpt>
      <trkpt lat="47.17801" lon="4.04204">
        <ele>590.40002441406</ele>
        <time>2022-10-29T16:15:20.000Z</time>
      </trkpt>
      <trkpt lat="47.17791" lon="4.04185">
        <ele>589.59997558594</ele>
        <time>2022-10-29T16:15:22.000Z</time>
      </trkpt>
      <trkpt lat="47.17768" lon="4.04144">
        <ele>588.59997558594</ele>
        <time>2022-10-29T16:15:26.000Z</time>
      </trkpt>
      <trkpt lat="47.17762" lon="4.04133">
        <ele>588.20001220703</ele>
        <time>2022-10-29T16:15:27.000Z</time>
      </trkpt>
      <trkpt lat="47.17751" lon="4.04113">
        <ele>587.40002441406</ele>
        <time>2022-10-29T16:15:29.000Z</time>
      </trkpt>
      <trkpt lat="47.17736" lon="4.04088">
        <ele>586.40002441406</ele>
        <time>2022-10-29T16:15:31.000Z</time>
      </trkpt>
      <trkpt lat="47.17721" lon="4.04066">
        <ele>585.59997558594</ele>
        <time>2022-10-29T16:15:33.000Z</time>
      </trkpt>
      <trkpt lat="47.17713" lon="4.04056">
        <ele>585.20001220703</ele>
        <time>2022-10-29T16:15:34.000Z</time>
      </trkpt>
      <trkpt lat="47.17705" lon="4.04046">
        <ele>584.20001220703</ele>
        <time>2022-10-29T16:15:35.000Z</time>
      </trkpt>
      <trkpt lat="47.17687" lon="4.04027">
        <ele>583</ele>
        <time>2022-10-29T16:15:37.000Z</time>
      </trkpt>
      <trkpt lat="47.17678" lon="4.04019">
        <ele>582.59997558594</ele>
        <time>2022-10-29T16:15:38.000Z</time>
      </trkpt>
      <trkpt lat="47.17671" lon="4.04012">
        <ele>582</ele>
        <time>2022-10-29T16:15:39.000Z</time>
      </trkpt>
      <trkpt lat="47.17633" lon="4.03982">
        <ele>580.79998779297</ele>
        <time>2022-10-29T16:15:43.000Z</time>
      </trkpt>
      <trkpt lat="47.17625" lon="4.03976">
        <ele>580.20001220703</ele>
        <time>2022-10-29T16:15:44.000Z</time>
      </trkpt>
      <trkpt lat="47.176" lon="4.03964">
        <ele>579.59997558594</ele>
        <time>2022-10-29T16:15:47.000Z</time>
      </trkpt>
      <trkpt lat="47.17582" lon="4.03957">
        <ele>579.59997558594</ele>
        <time>2022-10-29T16:15:49.000Z</time>
      </trkpt>
      <trkpt lat="47.17538" lon="4.03947">
        <ele>579.79998779297</ele>
        <time>2022-10-29T16:15:55.000Z</time>
      </trkpt>
      <trkpt lat="47.17503" lon="4.03939">
        <ele>580.40002441406</ele>
        <time>2022-10-29T16:16:01.000Z</time>
      </trkpt>
      <trkpt lat="47.17491" lon="4.03936">
        <ele>581</ele>
        <time>2022-10-29T16:16:03.000Z</time>
      </trkpt>
      <trkpt lat="47.17478" lon="4.0393">
        <ele>581.79998779297</ele>
        <time>2022-10-29T16:16:06.000Z</time>
      </trkpt>
      <trkpt lat="47.17469" lon="4.03926">
        <ele>582.40002441406</ele>
        <time>2022-10-29T16:16:08.000Z</time>
      </trkpt>
      <trkpt lat="47.17455" lon="4.03919">
        <ele>583.40002441406</ele>
        <time>2022-10-29T16:16:12.000Z</time>
      </trkpt>
      <trkpt lat="47.17452" lon="4.03918">
        <ele>583.59997558594</ele>
        <time>2022-10-29T16:16:13.000Z</time>
      </trkpt>
      <trkpt lat="47.17439" lon="4.0391">
        <ele>584.79998779297</ele>
        <time>2022-10-29T16:16:18.000Z</time>
      </trkpt>
      <trkpt lat="47.17424" lon="4.03897">
        <ele>586</ele>
        <time>2022-10-29T16:16:25.000Z</time>
      </trkpt>
      <trkpt lat="47.17419" lon="4.03892">
        <ele>586.59997558594</ele>
        <time>2022-10-29T16:16:27.000Z</time>
      </trkpt>
      <trkpt lat="47.17411" lon="4.03886">
        <ele>587.20001220703</ele>
        <time>2022-10-29T16:16:30.000Z</time>
      </trkpt>
      <trkpt lat="47.17394" lon="4.03873">
        <ele>588.40002441406</ele>
        <time>2022-10-29T16:16:36.000Z</time>
      </trkpt>
      <trkpt lat="47.17392" lon="4.03871">
        <ele>588.79998779297</ele>
        <time>2022-10-29T16:16:37.000Z</time>
      </trkpt>
      <trkpt lat="47.17382" lon="4.03863">
        <ele>589.59997558594</ele>
        <time>2022-10-29T16:16:41.000Z</time>
      </trkpt>
      <trkpt lat="47.17374" lon="4.03856">
        <ele>590</ele>
        <time>2022-10-29T16:16:44.000Z</time>
      </trkpt>
      <trkpt lat="47.17364" lon="4.03849">
        <ele>590.59997558594</ele>
        <time>2022-10-29T16:16:48.000Z</time>
      </trkpt>
      <trkpt lat="47.17356" lon="4.03841">
        <ele>591</ele>
        <time>2022-10-29T16:16:51.000Z</time>
      </trkpt>
      <trkpt lat="47.17348" lon="4.03834">
        <ele>591.79998779297</ele>
        <time>2022-10-29T16:16:54.000Z</time>
      </trkpt>
      <trkpt lat="47.17338" lon="4.03823">
        <ele>592.59997558594</ele>
        <time>2022-10-29T16:16:59.000Z</time>
      </trkpt>
      <trkpt lat="47.17337" lon="4.03821">
        <ele>592.79998779297</ele>
        <time>2022-10-29T16:17:00.000Z</time>
      </trkpt>
      <trkpt lat="47.17324" lon="4.03802">
        <ele>593.59997558594</ele>
        <time>2022-10-29T16:17:07.000Z</time>
      </trkpt>
      <trkpt lat="47.17321" lon="4.03797">
        <ele>594</ele>
        <time>2022-10-29T16:17:09.000Z</time>
      </trkpt>
      <trkpt lat="47.17311" lon="4.0378">
        <ele>594.79998779297</ele>
        <time>2022-10-29T16:17:16.000Z</time>
      </trkpt>
      <trkpt lat="47.17302" lon="4.03763">
        <ele>595.79998779297</ele>
        <time>2022-10-29T16:17:22.000Z</time>
      </trkpt>
      <trkpt lat="47.17298" lon="4.03755">
        <ele>596.20001220703</ele>
        <time>2022-10-29T16:17:25.000Z</time>
      </trkpt>
      <trkpt lat="47.17291" lon="4.03743">
        <ele>597</ele>
        <time>2022-10-29T16:17:29.000Z</time>
      </trkpt>
      <trkpt lat="47.17285" lon="4.03729">
        <ele>597.59997558594</ele>
        <time>2022-10-29T16:17:33.000Z</time>
      </trkpt>
      <trkpt lat="47.17279" lon="4.03716">
        <ele>598</ele>
        <time>2022-10-29T16:17:37.000Z</time>
      </trkpt>
      <trkpt lat="47.17274" lon="4.03707">
        <ele>598.40002441406</ele>
        <time>2022-10-29T16:17:40.000Z</time>
      </trkpt>
      <trkpt lat="47.17268" lon="4.03693">
        <ele>599</ele>
        <time>2022-10-29T16:17:45.000Z</time>
      </trkpt>
      <trkpt lat="47.17264" lon="4.03686">
        <ele>599.20001220703</ele>
        <time>2022-10-29T16:17:47.000Z</time>
      </trkpt>
      <trkpt lat="47.17252" lon="4.03665">
        <ele>600</ele>
        <time>2022-10-29T16:17:53.000Z</time>
      </trkpt>
      <trkpt lat="47.1725" lon="4.03662">
        <ele>600.20001220703</ele>
        <time>2022-10-29T16:17:54.000Z</time>
      </trkpt>
      <trkpt lat="47.17247" lon="4.03659">
        <ele>600.40002441406</ele>
        <time>2022-10-29T16:17:55.000Z</time>
      </trkpt>
      <trkpt lat="47.17225" lon="4.03631">
        <ele>601</ele>
        <time>2022-10-29T16:18:03.000Z</time>
      </trkpt>
      <trkpt lat="47.17222" lon="4.03627">
        <ele>601.20001220703</ele>
        <time>2022-10-29T16:18:04.000Z</time>
      </trkpt>
      <trkpt lat="47.17205" lon="4.0361">
        <ele>601.59997558594</ele>
        <time>2022-10-29T16:18:10.000Z</time>
      </trkpt>
      <trkpt lat="47.17173" lon="4.03587">
        <ele>602.20001220703</ele>
        <time>2022-10-29T16:18:19.000Z</time>
      </trkpt>
      <trkpt lat="47.17133" lon="4.03566">
        <ele>602.59997558594</ele>
        <time>2022-10-29T16:18:28.000Z</time>
      </trkpt>
      <trkpt lat="47.1708" lon="4.0354">
        <ele>602.59997558594</ele>
        <time>2022-10-29T16:18:39.000Z</time>
      </trkpt>
      <trkpt lat="47.17075" lon="4.03537">
        <ele>602.79998779297</ele>
        <time>2022-10-29T16:18:40.000Z</time>
      </trkpt>
      <trkpt lat="47.17024" lon="4.0351">
        <ele>602.79998779297</ele>
        <time>2022-10-29T16:18:50.000Z</time>
      </trkpt>
      <trkpt lat="47.1702" lon="4.03508">
        <ele>602.79998779297</ele>
        <time>2022-10-29T16:18:51.000Z</time>
      </trkpt>
      <trkpt lat="47.1697" lon="4.03478">
        <ele>602.59997558594</ele>
        <time>2022-10-29T16:19:01.000Z</time>
      </trkpt>
      <trkpt lat="47.16965" lon="4.03475">
        <ele>602.79998779297</ele>
        <time>2022-10-29T16:19:02.000Z</time>
      </trkpt>
      <trkpt lat="47.16924" lon="4.03449">
        <ele>603.20001220703</ele>
        <time>2022-10-29T16:19:11.000Z</time>
      </trkpt>
      <trkpt lat="47.16919" lon="4.03446">
        <ele>603.40002441406</ele>
        <time>2022-10-29T16:19:12.000Z</time>
      </trkpt>
      <trkpt lat="47.16886" lon="4.03426">
        <ele>604.20001220703</ele>
        <time>2022-10-29T16:19:20.000Z</time>
      </trkpt>
      <trkpt lat="47.16857" lon="4.03406">
        <ele>605.20001220703</ele>
        <time>2022-10-29T16:19:28.000Z</time>
      </trkpt>
      <trkpt lat="47.16852" lon="4.03403">
        <ele>605.40002441406</ele>
        <time>2022-10-29T16:19:29.000Z</time>
      </trkpt>
      <trkpt lat="47.16838" lon="4.03394">
        <ele>606.20001220703</ele>
        <time>2022-10-29T16:19:33.000Z</time>
      </trkpt>
      <trkpt lat="47.16828" lon="4.03388">
        <ele>606.79998779297</ele>
        <time>2022-10-29T16:19:36.000Z</time>
      </trkpt>
      <trkpt lat="47.16814" lon="4.0338">
        <ele>607.40002441406</ele>
        <time>2022-10-29T16:19:40.000Z</time>
      </trkpt>
      <trkpt lat="47.16804" lon="4.03374">
        <ele>607.79998779297</ele>
        <time>2022-10-29T16:19:43.000Z</time>
      </trkpt>
      <trkpt lat="47.16786" lon="4.03365">
        <ele>608.40002441406</ele>
        <time>2022-10-29T16:19:48.000Z</time>
      </trkpt>
      <trkpt lat="47.16781" lon="4.03361">
        <ele>608.59997558594</ele>
        <time>2022-10-29T16:19:50.000Z</time>
      </trkpt>
      <trkpt lat="47.16761" lon="4.03349">
        <ele>609.40002441406</ele>
        <time>2022-10-29T16:19:56.000Z</time>
      </trkpt>
      <trkpt lat="47.16757" lon="4.03347">
        <ele>609.59997558594</ele>
        <time>2022-10-29T16:19:57.000Z</time>
      </trkpt>
      <trkpt lat="47.16733" lon="4.03331">
        <ele>610.40002441406</ele>
        <time>2022-10-29T16:20:04.000Z</time>
      </trkpt>
      <trkpt lat="47.16729" lon="4.03328">
        <ele>610.59997558594</ele>
        <time>2022-10-29T16:20:05.000Z</time>
      </trkpt>
      <trkpt lat="47.16707" lon="4.03312">
        <ele>611.59997558594</ele>
        <time>2022-10-29T16:20:12.000Z</time>
      </trkpt>
      <trkpt lat="47.16689" lon="4.03293">
        <ele>612.79998779297</ele>
        <time>2022-10-29T16:20:19.000Z</time>
      </trkpt>
      <trkpt lat="47.16675" lon="4.03267">
        <ele>614</ele>
        <time>2022-10-29T16:20:25.000Z</time>
      </trkpt>
      <trkpt lat="47.16672" lon="4.03258">
        <ele>614.20001220703</ele>
        <time>2022-10-29T16:20:27.000Z</time>
      </trkpt>
      <trkpt lat="47.16664" lon="4.03228">
        <ele>614.79998779297</ele>
        <time>2022-10-29T16:20:33.000Z</time>
      </trkpt>
      <trkpt lat="47.16663" lon="4.03223">
        <ele>615</ele>
        <time>2022-10-29T16:20:34.000Z</time>
      </trkpt>
      <trkpt lat="47.16657" lon="4.03186">
        <ele>615.79998779297</ele>
        <time>2022-10-29T16:20:41.000Z</time>
      </trkpt>
      <trkpt lat="47.16657" lon="4.03179">
        <ele>616</ele>
        <time>2022-10-29T16:20:42.000Z</time>
      </trkpt>
      <trkpt lat="47.16655" lon="4.03146">
        <ele>617</ele>
        <time>2022-10-29T16:20:48.000Z</time>
      </trkpt>
      <trkpt lat="47.16654" lon="4.03141">
        <ele>617.20001220703</ele>
        <time>2022-10-29T16:20:49.000Z</time>
      </trkpt>
      <trkpt lat="47.16649" lon="4.03092">
        <ele>618.20001220703</ele>
        <time>2022-10-29T16:20:58.000Z</time>
      </trkpt>
      <trkpt lat="47.16648" lon="4.03088">
        <ele>618.40002441406</ele>
        <time>2022-10-29T16:20:59.000Z</time>
      </trkpt>
      <trkpt lat="47.16645" lon="4.03062">
        <ele>619.20001220703</ele>
        <time>2022-10-29T16:21:04.000Z</time>
      </trkpt>
      <trkpt lat="47.16643" lon="4.03051">
        <ele>619.59997558594</ele>
        <time>2022-10-29T16:21:06.000Z</time>
      </trkpt>
      <trkpt lat="47.16637" lon="4.03026">
        <ele>620.20001220703</ele>
        <time>2022-10-29T16:21:11.000Z</time>
      </trkpt>
      <trkpt lat="47.16631" lon="4.03006">
        <ele>620.59997558594</ele>
        <time>2022-10-29T16:21:15.000Z</time>
      </trkpt>
      <trkpt lat="47.16611" lon="4.0297">
        <ele>621.20001220703</ele>
        <time>2022-10-29T16:21:23.000Z</time>
      </trkpt>
      <trkpt lat="47.16604" lon="4.0296">
        <ele>621.20001220703</ele>
        <time>2022-10-29T16:21:25.000Z</time>
      </trkpt>
      <trkpt lat="47.16588" lon="4.02942">
        <ele>621</ele>
        <time>2022-10-29T16:21:29.000Z</time>
      </trkpt>
      <trkpt lat="47.16568" lon="4.02926">
        <ele>620.59997558594</ele>
        <time>2022-10-29T16:21:33.000Z</time>
      </trkpt>
      <trkpt lat="47.16562" lon="4.02923">
        <ele>620.59997558594</ele>
        <time>2022-10-29T16:21:34.000Z</time>
      </trkpt>
      <trkpt lat="47.16524" lon="4.0291">
        <ele>619.40002441406</ele>
        <time>2022-10-29T16:21:40.000Z</time>
      </trkpt>
      <trkpt lat="47.16508" lon="4.02909">
        <ele>618.79998779297</ele>
        <time>2022-10-29T16:21:42.000Z</time>
      </trkpt>
      <trkpt lat="47.16472" lon="4.02912">
        <ele>617.59997558594</ele>
        <time>2022-10-29T16:21:47.000Z</time>
      </trkpt>
      <trkpt lat="47.16432" lon="4.02913">
        <ele>616.40002441406</ele>
        <time>2022-10-29T16:21:52.000Z</time>
      </trkpt>
      <trkpt lat="47.16409" lon="4.0291">
        <ele>615.79998779297</ele>
        <time>2022-10-29T16:21:55.000Z</time>
      </trkpt>
      <trkpt lat="47.16392" lon="4.02904">
        <ele>615</ele>
        <time>2022-10-29T16:21:57.000Z</time>
      </trkpt>
      <trkpt lat="47.1636" lon="4.02889">
        <ele>613.79998779297</ele>
        <time>2022-10-29T16:22:01.000Z</time>
      </trkpt>
      <trkpt lat="47.16323" lon="4.02862">
        <ele>612.79998779297</ele>
        <time>2022-10-29T16:22:06.000Z</time>
      </trkpt>
      <trkpt lat="47.16317" lon="4.02857">
        <ele>612.79998779297</ele>
        <time>2022-10-29T16:22:07.000Z</time>
      </trkpt>
      <trkpt lat="47.16286" lon="4.0284">
        <ele>612.79998779297</ele>
        <time>2022-10-29T16:22:12.000Z</time>
      </trkpt>
      <trkpt lat="47.16281" lon="4.02838">
        <ele>612.79998779297</ele>
        <time>2022-10-29T16:22:13.000Z</time>
      </trkpt>
      <trkpt lat="47.16254" lon="4.0283">
        <ele>613.20001220703</ele>
        <time>2022-10-29T16:22:19.000Z</time>
      </trkpt>
      <trkpt lat="47.16245" lon="4.02829">
        <ele>613.59997558594</ele>
        <time>2022-10-29T16:22:21.000Z</time>
      </trkpt>
      <trkpt lat="47.16228" lon="4.02826">
        <ele>614.79998779297</ele>
        <time>2022-10-29T16:22:26.000Z</time>
      </trkpt>
      <trkpt lat="47.16216" lon="4.02823">
        <ele>616</ele>
        <time>2022-10-29T16:22:30.000Z</time>
      </trkpt>
      <trkpt lat="47.1621" lon="4.02823">
        <ele>616.40002441406</ele>
        <time>2022-10-29T16:22:32.000Z</time>
      </trkpt>
      <trkpt lat="47.16203" lon="4.02822">
        <ele>617</ele>
        <time>2022-10-29T16:22:34.000Z</time>
      </trkpt>
      <trkpt lat="47.16188" lon="4.0282">
        <ele>618</ele>
        <time>2022-10-29T16:22:39.000Z</time>
      </trkpt>
      <trkpt lat="47.16175" lon="4.02819">
        <ele>619</ele>
        <time>2022-10-29T16:22:44.000Z</time>
      </trkpt>
      <trkpt lat="47.16167" lon="4.02817">
        <ele>619.59997558594</ele>
        <time>2022-10-29T16:22:47.000Z</time>
      </trkpt>
      <trkpt lat="47.16162" lon="4.02816">
        <ele>620.20001220703</ele>
        <time>2022-10-29T16:22:49.000Z</time>
      </trkpt>
      <trkpt lat="47.16148" lon="4.02813">
        <ele>621.20001220703</ele>
        <time>2022-10-29T16:22:54.000Z</time>
      </trkpt>
      <trkpt lat="47.16146" lon="4.02812">
        <ele>621.40002441406</ele>
        <time>2022-10-29T16:22:55.000Z</time>
      </trkpt>
      <trkpt lat="47.16131" lon="4.0281">
        <ele>622.20001220703</ele>
        <time>2022-10-29T16:23:00.000Z</time>
      </trkpt>
      <trkpt lat="47.16119" lon="4.02805">
        <ele>623.40002441406</ele>
        <time>2022-10-29T16:23:04.000Z</time>
      </trkpt>
      <trkpt lat="47.16117" lon="4.02804">
        <ele>623.40002441406</ele>
        <time>2022-10-29T16:23:05.000Z</time>
      </trkpt>
      <trkpt lat="47.16106" lon="4.02796">
        <ele>624.40002441406</ele>
        <time>2022-10-29T16:23:09.000Z</time>
      </trkpt>
      <trkpt lat="47.16096" lon="4.02787">
        <ele>625.40002441406</ele>
        <time>2022-10-29T16:23:13.000Z</time>
      </trkpt>
      <trkpt lat="47.16094" lon="4.02784">
        <ele>625.59997558594</ele>
        <time>2022-10-29T16:23:14.000Z</time>
      </trkpt>
      <trkpt lat="47.16078" lon="4.0277">
        <ele>626.79998779297</ele>
        <time>2022-10-29T16:23:20.000Z</time>
      </trkpt>
      <trkpt lat="47.16076" lon="4.02768">
        <ele>627</ele>
        <time>2022-10-29T16:23:21.000Z</time>
      </trkpt>
      <trkpt lat="47.1606" lon="4.02755">
        <ele>627.59997558594</ele>
        <time>2022-10-29T16:23:27.000Z</time>
      </trkpt>
      <trkpt lat="47.16057" lon="4.02753">
        <ele>628</ele>
        <time>2022-10-29T16:23:28.000Z</time>
      </trkpt>
      <trkpt lat="47.16038" lon="4.02743">
        <ele>628.79998779297</ele>
        <time>2022-10-29T16:23:34.000Z</time>
      </trkpt>
      <trkpt lat="47.16032" lon="4.02741">
        <ele>629</ele>
        <time>2022-10-29T16:23:36.000Z</time>
      </trkpt>
      <trkpt lat="47.16008" lon="4.02731">
        <ele>630</ele>
        <time>2022-10-29T16:23:44.000Z</time>
      </trkpt>
      <trkpt lat="47.16005" lon="4.02731">
        <ele>630.20001220703</ele>
        <time>2022-10-29T16:23:45.000Z</time>
      </trkpt>
      <trkpt lat="47.15976" lon="4.02727">
        <ele>631</ele>
        <time>2022-10-29T16:23:54.000Z</time>
      </trkpt>
      <trkpt lat="47.15969" lon="4.02727">
        <ele>631.20001220703</ele>
        <time>2022-10-29T16:23:56.000Z</time>
      </trkpt>
      <trkpt lat="47.15944" lon="4.02729">
        <ele>631.79998779297</ele>
        <time>2022-10-29T16:24:03.000Z</time>
      </trkpt>
      <trkpt lat="47.15911" lon="4.02731">
        <ele>632.20001220703</ele>
        <time>2022-10-29T16:24:11.000Z</time>
      </trkpt>
      <trkpt lat="47.15899" lon="4.02732">
        <ele>632.40002441406</ele>
        <time>2022-10-29T16:24:14.000Z</time>
      </trkpt>
      <trkpt lat="47.15858" lon="4.02737">
        <ele>632.40002441406</ele>
        <time>2022-10-29T16:24:23.000Z</time>
      </trkpt>
      <trkpt lat="47.15812" lon="4.02745">
        <ele>632.59997558594</ele>
        <time>2022-10-29T16:24:33.000Z</time>
      </trkpt>
      <trkpt lat="47.15756" lon="4.02753">
        <ele>632.59997558594</ele>
        <time>2022-10-29T16:24:44.000Z</time>
      </trkpt>
      <trkpt lat="47.15746" lon="4.02755">
        <ele>632.59997558594</ele>
        <time>2022-10-29T16:24:46.000Z</time>
      </trkpt>
      <trkpt lat="47.15699" lon="4.02762">
        <ele>631.79998779297</ele>
        <time>2022-10-29T16:24:54.000Z</time>
      </trkpt>
      <trkpt lat="47.1566" lon="4.02769">
        <ele>631</ele>
        <time>2022-10-29T16:25:00.000Z</time>
      </trkpt>
      <trkpt lat="47.15647" lon="4.02771">
        <ele>630.79998779297</ele>
        <time>2022-10-29T16:25:02.000Z</time>
      </trkpt>
      <trkpt lat="47.1559" lon="4.02781">
        <ele>630.20001220703</ele>
        <time>2022-10-29T16:25:10.000Z</time>
      </trkpt>
      <trkpt lat="47.15577" lon="4.02783">
        <ele>630</ele>
        <time>2022-10-29T16:25:12.000Z</time>
      </trkpt>
      <trkpt lat="47.15517" lon="4.02793">
        <ele>630</ele>
        <time>2022-10-29T16:25:21.000Z</time>
      </trkpt>
      <trkpt lat="47.15511" lon="4.02794">
        <ele>630</ele>
        <time>2022-10-29T16:25:22.000Z</time>
      </trkpt>
      <trkpt lat="47.15454" lon="4.02804">
        <ele>630.59997558594</ele>
        <time>2022-10-29T16:25:31.000Z</time>
      </trkpt>
      <trkpt lat="47.15426" lon="4.02809">
        <ele>631</ele>
        <time>2022-10-29T16:25:36.000Z</time>
      </trkpt>
      <trkpt lat="47.15402" lon="4.02812">
        <ele>631.40002441406</ele>
        <time>2022-10-29T16:25:40.000Z</time>
      </trkpt>
      <trkpt lat="47.15367" lon="4.02818">
        <ele>632</ele>
        <time>2022-10-29T16:25:46.000Z</time>
      </trkpt>
      <trkpt lat="47.1534" lon="4.02822">
        <ele>632.40002441406</ele>
        <time>2022-10-29T16:25:51.000Z</time>
      </trkpt>
      <trkpt lat="47.15329" lon="4.02824">
        <ele>633</ele>
        <time>2022-10-29T16:25:53.000Z</time>
      </trkpt>
      <trkpt lat="47.15281" lon="4.02832">
        <ele>634</ele>
        <time>2022-10-29T16:26:02.000Z</time>
      </trkpt>
      <trkpt lat="47.1527" lon="4.02833">
        <ele>634.20001220703</ele>
        <time>2022-10-29T16:26:04.000Z</time>
      </trkpt>
      <trkpt lat="47.15243" lon="4.02838">
        <ele>634.79998779297</ele>
        <time>2022-10-29T16:26:09.000Z</time>
      </trkpt>
      <trkpt lat="47.15218" lon="4.02841">
        <ele>635.20001220703</ele>
        <time>2022-10-29T16:26:14.000Z</time>
      </trkpt>
      <trkpt lat="47.15198" lon="4.02841">
        <ele>635.40002441406</ele>
        <time>2022-10-29T16:26:18.000Z</time>
      </trkpt>
      <trkpt lat="47.15156" lon="4.02833">
        <ele>636.20001220703</ele>
        <time>2022-10-29T16:26:26.000Z</time>
      </trkpt>
      <trkpt lat="47.15152" lon="4.02832">
        <ele>636.20001220703</ele>
        <time>2022-10-29T16:26:27.000Z</time>
      </trkpt>
      <trkpt lat="47.15114" lon="4.02814">
        <ele>637.40002441406</ele>
        <time>2022-10-29T16:26:35.000Z</time>
      </trkpt>
      <trkpt lat="47.15083" lon="4.02793">
        <ele>638</ele>
        <time>2022-10-29T16:26:42.000Z</time>
      </trkpt>
      <trkpt lat="47.15069" lon="4.02783">
        <ele>638.40002441406</ele>
        <time>2022-10-29T16:26:45.000Z</time>
      </trkpt>
      <trkpt lat="47.15036" lon="4.02758">
        <ele>638.79998779297</ele>
        <time>2022-10-29T16:26:52.000Z</time>
      </trkpt>
      <trkpt lat="47.14988" lon="4.02727">
        <ele>639.20001220703</ele>
        <time>2022-10-29T16:27:02.000Z</time>
      </trkpt>
      <trkpt lat="47.14944" lon="4.02712">
        <ele>639</ele>
        <time>2022-10-29T16:27:10.000Z</time>
      </trkpt>
      <trkpt lat="47.14933" lon="4.02707">
        <ele>638.79998779297</ele>
        <time>2022-10-29T16:27:12.000Z</time>
      </trkpt>
      <trkpt lat="47.14924" lon="4.02697">
        <ele>638.79998779297</ele>
        <time>2022-10-29T16:27:14.000Z</time>
      </trkpt>
      <trkpt lat="47.1492" lon="4.02683">
        <ele>638.59997558594</ele>
        <time>2022-10-29T16:27:16.000Z</time>
      </trkpt>
      <trkpt lat="47.14918" lon="4.02673">
        <ele>638.59997558594</ele>
        <time>2022-10-29T16:27:17.000Z</time>
      </trkpt>
      <trkpt lat="47.14921" lon="4.02615">
        <ele>637.79998779297</ele>
        <time>2022-10-29T16:27:23.000Z</time>
      </trkpt>
      <trkpt lat="47.14922" lon="4.02593">
        <ele>637.40002441406</ele>
        <time>2022-10-29T16:27:25.000Z</time>
      </trkpt>
      <trkpt lat="47.14924" lon="4.02558">
        <ele>636.20001220703</ele>
        <time>2022-10-29T16:27:28.000Z</time>
      </trkpt>
      <trkpt lat="47.14925" lon="4.02548">
        <ele>635.40002441406</ele>
        <time>2022-10-29T16:27:29.000Z</time>
      </trkpt>
      <trkpt lat="47.14926" lon="4.02536">
        <ele>635.20001220703</ele>
        <time>2022-10-29T16:27:30.000Z</time>
      </trkpt>
      <trkpt lat="47.14928" lon="4.02496">
        <ele>634</ele>
        <time>2022-10-29T16:27:33.000Z</time>
      </trkpt>
      <trkpt lat="47.1493" lon="4.0246">
        <ele>632.79998779297</ele>
        <time>2022-10-29T16:27:36.000Z</time>
      </trkpt>
      <trkpt lat="47.1493" lon="4.02448">
        <ele>632.79998779297</ele>
        <time>2022-10-29T16:27:37.000Z</time>
      </trkpt>
      <trkpt lat="47.14933" lon="4.02402">
        <ele>631.79998779297</ele>
        <time>2022-10-29T16:27:41.000Z</time>
      </trkpt>
      <trkpt lat="47.14934" lon="4.02381">
        <ele>631.40002441406</ele>
        <time>2022-10-29T16:27:43.000Z</time>
      </trkpt>
      <trkpt lat="47.14936" lon="4.02347">
        <ele>630.59997558594</ele>
        <time>2022-10-29T16:27:46.000Z</time>
      </trkpt>
      <trkpt lat="47.14939" lon="4.02325">
        <ele>630.20001220703</ele>
        <time>2022-10-29T16:27:48.000Z</time>
      </trkpt>
      <trkpt lat="47.1494" lon="4.02314">
        <ele>630.20001220703</ele>
        <time>2022-10-29T16:27:49.000Z</time>
      </trkpt>
      <trkpt lat="47.14946" lon="4.02294">
        <ele>629.79998779297</ele>
        <time>2022-10-29T16:27:51.000Z</time>
      </trkpt>
      <trkpt lat="47.14955" lon="4.02278">
        <ele>629.40002441406</ele>
        <time>2022-10-29T16:27:53.000Z</time>
      </trkpt>
      <trkpt lat="47.1497" lon="4.02264">
        <ele>629</ele>
        <time>2022-10-29T16:27:55.000Z</time>
      </trkpt>
      <trkpt lat="47.14976" lon="4.0226">
        <ele>628.79998779297</ele>
        <time>2022-10-29T16:27:56.000Z</time>
      </trkpt>
      <trkpt lat="47.14986" lon="4.02254">
        <ele>628.40002441406</ele>
        <time>2022-10-29T16:27:57.000Z</time>
      </trkpt>
      <trkpt lat="47.15012" lon="4.02242">
        <ele>627.40002441406</ele>
        <time>2022-10-29T16:28:00.000Z</time>
      </trkpt>
      <trkpt lat="47.15019" lon="4.02238">
        <ele>627</ele>
        <time>2022-10-29T16:28:01.000Z</time>
      </trkpt>
      <trkpt lat="47.15039" lon="4.02226">
        <ele>626.40002441406</ele>
        <time>2022-10-29T16:28:03.000Z</time>
      </trkpt>
      <trkpt lat="47.15054" lon="4.02209">
        <ele>625.40002441406</ele>
        <time>2022-10-29T16:28:05.000Z</time>
      </trkpt>
      <trkpt lat="47.15059" lon="4.02199">
        <ele>625.20001220703</ele>
        <time>2022-10-29T16:28:06.000Z</time>
      </trkpt>
      <trkpt lat="47.15064" lon="4.02183">
        <ele>624.59997558594</ele>
        <time>2022-10-29T16:28:07.000Z</time>
      </trkpt>
      <trkpt lat="47.15067" lon="4.02169">
        <ele>624.40002441406</ele>
        <time>2022-10-29T16:28:08.000Z</time>
      </trkpt>
      <trkpt lat="47.1507" lon="4.02154">
        <ele>623.79998779297</ele>
        <time>2022-10-29T16:28:09.000Z</time>
      </trkpt>
      <trkpt lat="47.15075" lon="4.02125">
        <ele>622.79998779297</ele>
        <time>2022-10-29T16:28:11.000Z</time>
      </trkpt>
      <trkpt lat="47.15083" lon="4.02081">
        <ele>621.20001220703</ele>
        <time>2022-10-29T16:28:14.000Z</time>
      </trkpt>
      <trkpt lat="47.15086" lon="4.02069">
        <ele>620.59997558594</ele>
        <time>2022-10-29T16:28:15.000Z</time>
      </trkpt>
      <trkpt lat="47.1509" lon="4.02055">
        <ele>620.20001220703</ele>
        <time>2022-10-29T16:28:16.000Z</time>
      </trkpt>
      <trkpt lat="47.15096" lon="4.02039">
        <ele>619.59997558594</ele>
        <time>2022-10-29T16:28:17.000Z</time>
      </trkpt>
      <trkpt lat="47.15103" lon="4.02027">
        <ele>619.20001220703</ele>
        <time>2022-10-29T16:28:18.000Z</time>
      </trkpt>
      <trkpt lat="47.15111" lon="4.02017">
        <ele>618.40002441406</ele>
        <time>2022-10-29T16:28:19.000Z</time>
      </trkpt>
      <trkpt lat="47.15136" lon="4.0199">
        <ele>617</ele>
        <time>2022-10-29T16:28:22.000Z</time>
      </trkpt>
      <trkpt lat="47.15155" lon="4.01973">
        <ele>615.59997558594</ele>
        <time>2022-10-29T16:28:24.000Z</time>
      </trkpt>
      <trkpt lat="47.15174" lon="4.01955">
        <ele>614</ele>
        <time>2022-10-29T16:28:26.000Z</time>
      </trkpt>
      <trkpt lat="47.15183" lon="4.01946">
        <ele>612.79998779297</ele>
        <time>2022-10-29T16:28:27.000Z</time>
      </trkpt>
      <trkpt lat="47.15193" lon="4.01937">
        <ele>612.40002441406</ele>
        <time>2022-10-29T16:28:28.000Z</time>
      </trkpt>
      <trkpt lat="47.15212" lon="4.01919">
        <ele>611.79998779297</ele>
        <time>2022-10-29T16:28:30.000Z</time>
      </trkpt>
      <trkpt lat="47.1523" lon="4.01901">
        <ele>610.59997558594</ele>
        <time>2022-10-29T16:28:32.000Z</time>
      </trkpt>
      <trkpt lat="47.15247" lon="4.01886">
        <ele>609.20001220703</ele>
        <time>2022-10-29T16:28:34.000Z</time>
      </trkpt>
      <trkpt lat="47.15258" lon="4.01877">
        <ele>608.79998779297</ele>
        <time>2022-10-29T16:28:35.000Z</time>
      </trkpt>
      <trkpt lat="47.15268" lon="4.0187">
        <ele>608.20001220703</ele>
        <time>2022-10-29T16:28:36.000Z</time>
      </trkpt>
      <trkpt lat="47.15285" lon="4.01861">
        <ele>607.40002441406</ele>
        <time>2022-10-29T16:28:38.000Z</time>
      </trkpt>
      <trkpt lat="47.15306" lon="4.01848">
        <ele>607</ele>
        <time>2022-10-29T16:28:40.000Z</time>
      </trkpt>
      <trkpt lat="47.15321" lon="4.01834">
        <ele>606.59997558594</ele>
        <time>2022-10-29T16:28:42.000Z</time>
      </trkpt>
      <trkpt lat="47.15333" lon="4.01813">
        <ele>606.20001220703</ele>
        <time>2022-10-29T16:28:44.000Z</time>
      </trkpt>
      <trkpt lat="47.15338" lon="4.018">
        <ele>605.79998779297</ele>
        <time>2022-10-29T16:28:45.000Z</time>
      </trkpt>
      <trkpt lat="47.15348" lon="4.01758">
        <ele>605</ele>
        <time>2022-10-29T16:28:48.000Z</time>
      </trkpt>
      <trkpt lat="47.1535" lon="4.01744">
        <ele>604.79998779297</ele>
        <time>2022-10-29T16:28:49.000Z</time>
      </trkpt>
      <trkpt lat="47.15352" lon="4.01729">
        <ele>604.20001220703</ele>
        <time>2022-10-29T16:28:50.000Z</time>
      </trkpt>
      <trkpt lat="47.15355" lon="4.01685">
        <ele>603</ele>
        <time>2022-10-29T16:28:53.000Z</time>
      </trkpt>
      <trkpt lat="47.15356" lon="4.01655">
        <ele>601.59997558594</ele>
        <time>2022-10-29T16:28:55.000Z</time>
      </trkpt>
      <trkpt lat="47.15356" lon="4.01627">
        <ele>600.79998779297</ele>
        <time>2022-10-29T16:28:57.000Z</time>
      </trkpt>
      <trkpt lat="47.15355" lon="4.01613">
        <ele>600.40002441406</ele>
        <time>2022-10-29T16:28:58.000Z</time>
      </trkpt>
      <trkpt lat="47.15354" lon="4.01599">
        <ele>600.20001220703</ele>
        <time>2022-10-29T16:28:59.000Z</time>
      </trkpt>
      <trkpt lat="47.15352" lon="4.01584">
        <ele>599.40002441406</ele>
        <time>2022-10-29T16:29:00.000Z</time>
      </trkpt>
      <trkpt lat="47.1535" lon="4.01555">
        <ele>598.59997558594</ele>
        <time>2022-10-29T16:29:02.000Z</time>
      </trkpt>
      <trkpt lat="47.15347" lon="4.01538">
        <ele>598</ele>
        <time>2022-10-29T16:29:03.000Z</time>
      </trkpt>
      <trkpt lat="47.15344" lon="4.01524">
        <ele>597.59997558594</ele>
        <time>2022-10-29T16:29:04.000Z</time>
      </trkpt>
      <trkpt lat="47.15335" lon="4.0148">
        <ele>596.40002441406</ele>
        <time>2022-10-29T16:29:07.000Z</time>
      </trkpt>
      <trkpt lat="47.15325" lon="4.01438">
        <ele>595</ele>
        <time>2022-10-29T16:29:10.000Z</time>
      </trkpt>
      <trkpt lat="47.15322" lon="4.01425">
        <ele>595</ele>
        <time>2022-10-29T16:29:11.000Z</time>
      </trkpt>
      <trkpt lat="47.15318" lon="4.01395">
        <ele>594.59997558594</ele>
        <time>2022-10-29T16:29:13.000Z</time>
      </trkpt>
      <trkpt lat="47.15319" lon="4.01366">
        <ele>594</ele>
        <time>2022-10-29T16:29:15.000Z</time>
      </trkpt>
      <trkpt lat="47.15325" lon="4.01326">
        <ele>593</ele>
        <time>2022-10-29T16:29:18.000Z</time>
      </trkpt>
      <trkpt lat="47.1533" lon="4.01315">
        <ele>592.59997558594</ele>
        <time>2022-10-29T16:29:19.000Z</time>
      </trkpt>
      <trkpt lat="47.15339" lon="4.01291">
        <ele>592</ele>
        <time>2022-10-29T16:29:21.000Z</time>
      </trkpt>
      <trkpt lat="47.15345" lon="4.01267">
        <ele>591.59997558594</ele>
        <time>2022-10-29T16:29:23.000Z</time>
      </trkpt>
      <trkpt lat="47.15346" lon="4.01242">
        <ele>591.40002441406</ele>
        <time>2022-10-29T16:29:25.000Z</time>
      </trkpt>
      <trkpt lat="47.15345" lon="4.01228">
        <ele>591</ele>
        <time>2022-10-29T16:29:26.000Z</time>
      </trkpt>
      <trkpt lat="47.15344" lon="4.01214">
        <ele>590.59997558594</ele>
        <time>2022-10-29T16:29:27.000Z</time>
      </trkpt>
      <trkpt lat="47.15338" lon="4.01159">
        <ele>589</ele>
        <time>2022-10-29T16:29:31.000Z</time>
      </trkpt>
      <trkpt lat="47.15337" lon="4.01145">
        <ele>588.20001220703</ele>
        <time>2022-10-29T16:29:32.000Z</time>
      </trkpt>
      <trkpt lat="47.15335" lon="4.01131">
        <ele>588</ele>
        <time>2022-10-29T16:29:33.000Z</time>
      </trkpt>
      <trkpt lat="47.15331" lon="4.0109">
        <ele>586.59997558594</ele>
        <time>2022-10-29T16:29:36.000Z</time>
      </trkpt>
      <trkpt lat="47.15328" lon="4.01063">
        <ele>585.40002441406</ele>
        <time>2022-10-29T16:29:38.000Z</time>
      </trkpt>
      <trkpt lat="47.15327" lon="4.01049">
        <ele>585</ele>
        <time>2022-10-29T16:29:39.000Z</time>
      </trkpt>
      <trkpt lat="47.15323" lon="4.01019">
        <ele>584.20001220703</ele>
        <time>2022-10-29T16:29:41.000Z</time>
      </trkpt>
      <trkpt lat="47.15317" lon="4.00973">
        <ele>582.59997558594</ele>
        <time>2022-10-29T16:29:44.000Z</time>
      </trkpt>
      <trkpt lat="47.15312" lon="4.00942">
        <ele>581.40002441406</ele>
        <time>2022-10-29T16:29:46.000Z</time>
      </trkpt>
      <trkpt lat="47.15311" lon="4.00892">
        <ele>579.79998779297</ele>
        <time>2022-10-29T16:29:49.000Z</time>
      </trkpt>
      <trkpt lat="47.15314" lon="4.00875">
        <ele>579.40002441406</ele>
        <time>2022-10-29T16:29:50.000Z</time>
      </trkpt>
      <trkpt lat="47.15324" lon="4.00842">
        <ele>578.79998779297</ele>
        <time>2022-10-29T16:29:52.000Z</time>
      </trkpt>
      <trkpt lat="47.15329" lon="4.00832">
        <ele>578.59997558594</ele>
        <time>2022-10-29T16:29:53.000Z</time>
      </trkpt>
      <trkpt lat="47.15346" lon="4.00812">
        <ele>577.20001220703</ele>
        <time>2022-10-29T16:29:55.000Z</time>
      </trkpt>
      <trkpt lat="47.15355" lon="4.00802">
        <ele>576.20001220703</ele>
        <time>2022-10-29T16:29:56.000Z</time>
      </trkpt>
      <trkpt lat="47.1537" lon="4.00783">
        <ele>575</ele>
        <time>2022-10-29T16:29:58.000Z</time>
      </trkpt>
      <trkpt lat="47.15376" lon="4.00771">
        <ele>574.79998779297</ele>
        <time>2022-10-29T16:29:59.000Z</time>
      </trkpt>
      <trkpt lat="47.1538" lon="4.00757">
        <ele>574.20001220703</ele>
        <time>2022-10-29T16:30:00.000Z</time>
      </trkpt>
      <trkpt lat="47.15384" lon="4.00742">
        <ele>573.59997558594</ele>
        <time>2022-10-29T16:30:01.000Z</time>
      </trkpt>
      <trkpt lat="47.15388" lon="4.00725">
        <ele>573.40002441406</ele>
        <time>2022-10-29T16:30:02.000Z</time>
      </trkpt>
      <trkpt lat="47.15394" lon="4.00693">
        <ele>572.79998779297</ele>
        <time>2022-10-29T16:30:04.000Z</time>
      </trkpt>
      <trkpt lat="47.15394" lon="4.00677">
        <ele>572.20001220703</ele>
        <time>2022-10-29T16:30:05.000Z</time>
      </trkpt>
      <trkpt lat="47.15394" lon="4.00661">
        <ele>572</ele>
        <time>2022-10-29T16:30:06.000Z</time>
      </trkpt>
      <trkpt lat="47.15394" lon="4.00644">
        <ele>571.20001220703</ele>
        <time>2022-10-29T16:30:07.000Z</time>
      </trkpt>
      <trkpt lat="47.15396" lon="4.00592">
        <ele>570</ele>
        <time>2022-10-29T16:30:10.000Z</time>
      </trkpt>
      <trkpt lat="47.15398" lon="4.00574">
        <ele>569.79998779297</ele>
        <time>2022-10-29T16:30:11.000Z</time>
      </trkpt>
      <trkpt lat="47.15399" lon="4.00556">
        <ele>568.59997558594</ele>
        <time>2022-10-29T16:30:12.000Z</time>
      </trkpt>
      <trkpt lat="47.15401" lon="4.00538">
        <ele>567.59997558594</ele>
        <time>2022-10-29T16:30:13.000Z</time>
      </trkpt>
      <trkpt lat="47.15405" lon="4.00521">
        <ele>567.40002441406</ele>
        <time>2022-10-29T16:30:14.000Z</time>
      </trkpt>
      <trkpt lat="47.15409" lon="4.00504">
        <ele>566.59997558594</ele>
        <time>2022-10-29T16:30:15.000Z</time>
      </trkpt>
      <trkpt lat="47.15413" lon="4.00489">
        <ele>566.20001220703</ele>
        <time>2022-10-29T16:30:16.000Z</time>
      </trkpt>
      <trkpt lat="47.15426" lon="4.00445">
        <ele>564.79998779297</ele>
        <time>2022-10-29T16:30:19.000Z</time>
      </trkpt>
      <trkpt lat="47.1544" lon="4.00405">
        <ele>563.40002441406</ele>
        <time>2022-10-29T16:30:22.000Z</time>
      </trkpt>
      <trkpt lat="47.15454" lon="4.0037">
        <ele>563</ele>
        <time>2022-10-29T16:30:25.000Z</time>
      </trkpt>
      <trkpt lat="47.15478" lon="4.00301">
        <ele>562.79998779297</ele>
        <time>2022-10-29T16:30:31.000Z</time>
      </trkpt>
      <trkpt lat="47.15482" lon="4.0029">
        <ele>562.59997558594</ele>
        <time>2022-10-29T16:30:32.000Z</time>
      </trkpt>
      <trkpt lat="47.15496" lon="4.00248">
        <ele>562.40002441406</ele>
        <time>2022-10-29T16:30:36.000Z</time>
      </trkpt>
      <trkpt lat="47.15503" lon="4.00228">
        <ele>562.20001220703</ele>
        <time>2022-10-29T16:30:38.000Z</time>
      </trkpt>
      <trkpt lat="47.1551" lon="4.00208">
        <ele>562.40002441406</ele>
        <time>2022-10-29T16:30:40.000Z</time>
      </trkpt>
      <trkpt lat="47.15513" lon="4.00199">
        <ele>562.40002441406</ele>
        <time>2022-10-29T16:30:41.000Z</time>
      </trkpt>
      <trkpt lat="47.15534" lon="4.00151">
        <ele>562.59997558594</ele>
        <time>2022-10-29T16:30:47.000Z</time>
      </trkpt>
      <trkpt lat="47.15559" lon="4.00098">
        <ele>563.40002441406</ele>
        <time>2022-10-29T16:30:54.000Z</time>
      </trkpt>
      <trkpt lat="47.15569" lon="4.00077">
        <ele>563.59997558594</ele>
        <time>2022-10-29T16:30:57.000Z</time>
      </trkpt>
      <trkpt lat="47.15577" lon="4.00064">
        <ele>563.79998779297</ele>
        <time>2022-10-29T16:30:59.000Z</time>
      </trkpt>
      <trkpt lat="47.1558" lon="4.00057">
        <ele>563.79998779297</ele>
        <time>2022-10-29T16:31:00.000Z</time>
      </trkpt>
      <trkpt lat="47.15586" lon="4.00043">
        <ele>564</ele>
        <time>2022-10-29T16:31:02.000Z</time>
      </trkpt>
      <trkpt lat="47.15588" lon="4.00036">
        <ele>564</ele>
        <time>2022-10-29T16:31:03.000Z</time>
      </trkpt>
      <trkpt lat="47.1559" lon="4.00029">
        <ele>564</ele>
        <time>2022-10-29T16:31:04.000Z</time>
      </trkpt>
      <trkpt lat="47.15601" lon="4.00006">
        <ele>564.20001220703</ele>
        <time>2022-10-29T16:31:07.000Z</time>
      </trkpt>
      <trkpt lat="47.15613" lon="3.99986">
        <ele>564.20001220703</ele>
        <time>2022-10-29T16:31:10.000Z</time>
      </trkpt>
      <trkpt lat="47.15622" lon="3.99977">
        <ele>564.20001220703</ele>
        <time>2022-10-29T16:31:12.000Z</time>
      </trkpt>
      <trkpt lat="47.15645" lon="3.99958">
        <ele>564.40002441406</ele>
        <time>2022-10-29T16:31:16.000Z</time>
      </trkpt>
      <trkpt lat="47.1565" lon="3.99954">
        <ele>564.40002441406</ele>
        <time>2022-10-29T16:31:17.000Z</time>
      </trkpt>
      <trkpt lat="47.15656" lon="3.9995">
        <ele>564.59997558594</ele>
        <time>2022-10-29T16:31:18.000Z</time>
      </trkpt>
      <trkpt lat="47.15695" lon="3.99931">
        <ele>565</ele>
        <time>2022-10-29T16:31:25.000Z</time>
      </trkpt>
      <trkpt lat="47.15719" lon="3.99909">
        <ele>565.20001220703</ele>
        <time>2022-10-29T16:31:30.000Z</time>
      </trkpt>
      <trkpt lat="47.15727" lon="3.99894">
        <ele>565.20001220703</ele>
        <time>2022-10-29T16:31:32.000Z</time>
      </trkpt>
      <trkpt lat="47.15735" lon="3.99873">
        <ele>565.20001220703</ele>
        <time>2022-10-29T16:31:34.000Z</time>
      </trkpt>
      <trkpt lat="47.15755" lon="3.99829">
        <ele>565.20001220703</ele>
        <time>2022-10-29T16:31:39.000Z</time>
      </trkpt>
      <trkpt lat="47.1577" lon="3.99807">
        <ele>565</ele>
        <time>2022-10-29T16:31:42.000Z</time>
      </trkpt>
      <trkpt lat="47.15781" lon="3.99797">
        <ele>565</ele>
        <time>2022-10-29T16:31:44.000Z</time>
      </trkpt>
      <trkpt lat="47.15786" lon="3.99793">
        <ele>565</ele>
        <time>2022-10-29T16:31:45.000Z</time>
      </trkpt>
      <trkpt lat="47.15809" lon="3.99781">
        <ele>565.20001220703</ele>
        <time>2022-10-29T16:31:49.000Z</time>
      </trkpt>
      <trkpt lat="47.15848" lon="3.99765">
        <ele>565.20001220703</ele>
        <time>2022-10-29T16:31:56.000Z</time>
      </trkpt>
      <trkpt lat="47.15859" lon="3.99763">
        <ele>565.20001220703</ele>
        <time>2022-10-29T16:31:58.000Z</time>
      </trkpt>
      <trkpt lat="47.15878" lon="3.99757">
        <ele>565</ele>
        <time>2022-10-29T16:32:01.000Z</time>
      </trkpt>
      <trkpt lat="47.1589" lon="3.99753">
        <ele>565</ele>
        <time>2022-10-29T16:32:03.000Z</time>
      </trkpt>
      <trkpt lat="47.159" lon="3.99749">
        <ele>564.79998779297</ele>
        <time>2022-10-29T16:32:05.000Z</time>
      </trkpt>
      <trkpt lat="47.15904" lon="3.99747">
        <ele>565</ele>
        <time>2022-10-29T16:32:06.000Z</time>
      </trkpt>
      <trkpt lat="47.15936" lon="3.99734">
        <ele>565</ele>
        <time>2022-10-29T16:32:13.000Z</time>
      </trkpt>
      <trkpt lat="47.15957" lon="3.9972">
        <ele>565.20001220703</ele>
        <time>2022-10-29T16:32:17.000Z</time>
      </trkpt>
      <trkpt lat="47.15969" lon="3.99707">
        <ele>565.20001220703</ele>
        <time>2022-10-29T16:32:19.000Z</time>
      </trkpt>
      <trkpt lat="47.1598" lon="3.9969">
        <ele>565.20001220703</ele>
        <time>2022-10-29T16:32:21.000Z</time>
      </trkpt>
      <trkpt lat="47.15993" lon="3.99665">
        <ele>565.40002441406</ele>
        <time>2022-10-29T16:32:24.000Z</time>
      </trkpt>
      <trkpt lat="47.16004" lon="3.99644">
        <ele>565.59997558594</ele>
        <time>2022-10-29T16:32:27.000Z</time>
      </trkpt>
      <trkpt lat="47.16027" lon="3.99606">
        <ele>565.59997558594</ele>
        <time>2022-10-29T16:32:33.000Z</time>
      </trkpt>
      <trkpt lat="47.16035" lon="3.99592">
        <ele>565.59997558594</ele>
        <time>2022-10-29T16:32:35.000Z</time>
      </trkpt>
      <trkpt lat="47.16046" lon="3.99581">
        <ele>565.59997558594</ele>
        <time>2022-10-29T16:32:37.000Z</time>
      </trkpt>
      <trkpt lat="47.16052" lon="3.99578">
        <ele>565.59997558594</ele>
        <time>2022-10-29T16:32:38.000Z</time>
      </trkpt>
      <trkpt lat="47.1608" lon="3.9956">
        <ele>565.40002441406</ele>
        <time>2022-10-29T16:32:43.000Z</time>
      </trkpt>
      <trkpt lat="47.16084" lon="3.99552">
        <ele>565.40002441406</ele>
        <time>2022-10-29T16:32:44.000Z</time>
      </trkpt>
      <trkpt lat="47.16088" lon="3.99545">
        <ele>565.40002441406</ele>
        <time>2022-10-29T16:32:45.000Z</time>
      </trkpt>
      <trkpt lat="47.16091" lon="3.99531">
        <ele>565.59997558594</ele>
        <time>2022-10-29T16:32:47.000Z</time>
      </trkpt>
      <trkpt lat="47.16092" lon="3.99524">
        <ele>565.59997558594</ele>
        <time>2022-10-29T16:32:48.000Z</time>
      </trkpt>
      <trkpt lat="47.16096" lon="3.99473">
        <ele>566</ele>
        <time>2022-10-29T16:32:54.000Z</time>
      </trkpt>
      <trkpt lat="47.16097" lon="3.99465">
        <ele>566</ele>
        <time>2022-10-29T16:32:55.000Z</time>
      </trkpt>
      <trkpt lat="47.161" lon="3.99449">
        <ele>566.20001220703</ele>
        <time>2022-10-29T16:32:57.000Z</time>
      </trkpt>
      <trkpt lat="47.16105" lon="3.99434">
        <ele>566.20001220703</ele>
        <time>2022-10-29T16:32:59.000Z</time>
      </trkpt>
      <trkpt lat="47.16106" lon="3.99426">
        <ele>566.20001220703</ele>
        <time>2022-10-29T16:33:00.000Z</time>
      </trkpt>
      <trkpt lat="47.16108" lon="3.99418">
        <ele>566</ele>
        <time>2022-10-29T16:33:01.000Z</time>
      </trkpt>
      <trkpt lat="47.16115" lon="3.99391">
        <ele>566</ele>
        <time>2022-10-29T16:33:05.000Z</time>
      </trkpt>
      <trkpt lat="47.16116" lon="3.99378">
        <ele>566.20001220703</ele>
        <time>2022-10-29T16:33:07.000Z</time>
      </trkpt>
      <trkpt lat="47.16114" lon="3.99363">
        <ele>566</ele>
        <time>2022-10-29T16:33:09.000Z</time>
      </trkpt>
      <trkpt lat="47.16109" lon="3.99339">
        <ele>566</ele>
        <time>2022-10-29T16:33:12.000Z</time>
      </trkpt>
      <trkpt lat="47.16104" lon="3.99326">
        <ele>566</ele>
        <time>2022-10-29T16:33:14.000Z</time>
      </trkpt>
      <trkpt lat="47.16087" lon="3.99287">
        <ele>566.20001220703</ele>
        <time>2022-10-29T16:33:20.000Z</time>
      </trkpt>
      <trkpt lat="47.16064" lon="3.99249">
        <ele>566</ele>
        <time>2022-10-29T16:33:25.000Z</time>
      </trkpt>
      <trkpt lat="47.16059" lon="3.99239">
        <ele>565.79998779297</ele>
        <time>2022-10-29T16:33:26.000Z</time>
      </trkpt>
      <trkpt lat="47.16051" lon="3.99229">
        <ele>565.79998779297</ele>
        <time>2022-10-29T16:33:27.000Z</time>
      </trkpt>
      <trkpt lat="47.16044" lon="3.99195">
        <ele>565.79998779297</ele>
        <time>2022-10-29T16:33:30.000Z</time>
      </trkpt>
      <trkpt lat="47.16044" lon="3.99184">
        <ele>565.59997558594</ele>
        <time>2022-10-29T16:33:31.000Z</time>
      </trkpt>
      <trkpt lat="47.16046" lon="3.99154">
        <ele>565.59997558594</ele>
        <time>2022-10-29T16:33:34.000Z</time>
      </trkpt>
      <trkpt lat="47.16058" lon="3.99102">
        <ele>565.40002441406</ele>
        <time>2022-10-29T16:33:40.000Z</time>
      </trkpt>
      <trkpt lat="47.16078" lon="3.99036">
        <ele>565.79998779297</ele>
        <time>2022-10-29T16:33:48.000Z</time>
      </trkpt>
      <trkpt lat="47.16091" lon="3.98998">
        <ele>566.59997558594</ele>
        <time>2022-10-29T16:33:53.000Z</time>
      </trkpt>
      <trkpt lat="47.16104" lon="3.9896">
        <ele>567.20001220703</ele>
        <time>2022-10-29T16:33:58.000Z</time>
      </trkpt>
      <trkpt lat="47.16117" lon="3.98915">
        <ele>567.59997558594</ele>
        <time>2022-10-29T16:34:04.000Z</time>
      </trkpt>
      <trkpt lat="47.16119" lon="3.989">
        <ele>567.59997558594</ele>
        <time>2022-10-29T16:34:06.000Z</time>
      </trkpt>
      <trkpt lat="47.16122" lon="3.98857">
        <ele>568.20001220703</ele>
        <time>2022-10-29T16:34:12.000Z</time>
      </trkpt>
      <trkpt lat="47.16118" lon="3.98824">
        <ele>568.59997558594</ele>
        <time>2022-10-29T16:34:17.000Z</time>
      </trkpt>
      <trkpt lat="47.16116" lon="3.98817">
        <ele>568.79998779297</ele>
        <time>2022-10-29T16:34:18.000Z</time>
      </trkpt>
      <trkpt lat="47.16096" lon="3.98749">
        <ele>569.40002441406</ele>
        <time>2022-10-29T16:34:28.000Z</time>
      </trkpt>
      <trkpt lat="47.16081" lon="3.98699">
        <ele>569.79998779297</ele>
        <time>2022-10-29T16:34:35.000Z</time>
      </trkpt>
      <trkpt lat="47.16079" lon="3.98691">
        <ele>569.79998779297</ele>
        <time>2022-10-29T16:34:36.000Z</time>
      </trkpt>
      <trkpt lat="47.1607" lon="3.98663">
        <ele>570</ele>
        <time>2022-10-29T16:34:40.000Z</time>
      </trkpt>
      <trkpt lat="47.16056" lon="3.98619">
        <ele>570.40002441406</ele>
        <time>2022-10-29T16:34:46.000Z</time>
      </trkpt>
      <trkpt lat="47.16032" lon="3.98542">
        <ele>570.40002441406</ele>
        <time>2022-10-29T16:34:56.000Z</time>
      </trkpt>
      <trkpt lat="47.16025" lon="3.98519">
        <ele>570.40002441406</ele>
        <time>2022-10-29T16:34:59.000Z</time>
      </trkpt>
      <trkpt lat="47.16006" lon="3.98455">
        <ele>570.40002441406</ele>
        <time>2022-10-29T16:35:07.000Z</time>
      </trkpt>
      <trkpt lat="47.15985" lon="3.98393">
        <ele>570</ele>
        <time>2022-10-29T16:35:15.000Z</time>
      </trkpt>
      <trkpt lat="47.15967" lon="3.98333">
        <ele>570</ele>
        <time>2022-10-29T16:35:23.000Z</time>
      </trkpt>
      <trkpt lat="47.15947" lon="3.98269">
        <ele>570.79998779297</ele>
        <time>2022-10-29T16:35:32.000Z</time>
      </trkpt>
      <trkpt lat="47.15941" lon="3.98249">
        <ele>571.20001220703</ele>
        <time>2022-10-29T16:35:35.000Z</time>
      </trkpt>
      <trkpt lat="47.15934" lon="3.98223">
        <ele>571.79998779297</ele>
        <time>2022-10-29T16:35:39.000Z</time>
      </trkpt>
      <trkpt lat="47.15933" lon="3.98217">
        <ele>571.79998779297</ele>
        <time>2022-10-29T16:35:40.000Z</time>
      </trkpt>
      <trkpt lat="47.15933" lon="3.98204">
        <ele>572</ele>
        <time>2022-10-29T16:35:42.000Z</time>
      </trkpt>
      <trkpt lat="47.15933" lon="3.98198">
        <ele>572.20001220703</ele>
        <time>2022-10-29T16:35:43.000Z</time>
      </trkpt>
      <trkpt lat="47.15934" lon="3.98192">
        <ele>572.40002441406</ele>
        <time>2022-10-29T16:35:44.000Z</time>
      </trkpt>
      <trkpt lat="47.15937" lon="3.98183">
        <ele>572.79998779297</ele>
        <time>2022-10-29T16:35:46.000Z</time>
      </trkpt>
      <trkpt lat="47.15941" lon="3.98173">
        <ele>573</ele>
        <time>2022-10-29T16:35:48.000Z</time>
      </trkpt>
      <trkpt lat="47.15947" lon="3.98161">
        <ele>573.59997558594</ele>
        <time>2022-10-29T16:35:51.000Z</time>
      </trkpt>
      <trkpt lat="47.15953" lon="3.98154">
        <ele>573.79998779297</ele>
        <time>2022-10-29T16:35:53.000Z</time>
      </trkpt>
      <trkpt lat="47.15968" lon="3.98138">
        <ele>574.59997558594</ele>
        <time>2022-10-29T16:35:58.000Z</time>
      </trkpt>
      <trkpt lat="47.15974" lon="3.98131">
        <ele>574.79998779297</ele>
        <time>2022-10-29T16:36:00.000Z</time>
      </trkpt>
      <trkpt lat="47.15987" lon="3.98118">
        <ele>575.59997558594</ele>
        <time>2022-10-29T16:36:04.000Z</time>
      </trkpt>
      <trkpt lat="47.16" lon="3.98106">
        <ele>576.40002441406</ele>
        <time>2022-10-29T16:36:08.000Z</time>
      </trkpt>
      <trkpt lat="47.16007" lon="3.981">
        <ele>576.79998779297</ele>
        <time>2022-10-29T16:36:10.000Z</time>
      </trkpt>
      <trkpt lat="47.16025" lon="3.98083">
        <ele>577.59997558594</ele>
        <time>2022-10-29T16:36:16.000Z</time>
      </trkpt>
      <trkpt lat="47.16031" lon="3.98077">
        <ele>577.79998779297</ele>
        <time>2022-10-29T16:36:18.000Z</time>
      </trkpt>
      <trkpt lat="47.16046" lon="3.98067">
        <ele>579</ele>
        <time>2022-10-29T16:36:23.000Z</time>
      </trkpt>
      <trkpt lat="47.16048" lon="3.98065">
        <ele>579</ele>
        <time>2022-10-29T16:36:24.000Z</time>
      </trkpt>
      <trkpt lat="47.1606" lon="3.98059">
        <ele>580</ele>
        <time>2022-10-29T16:36:28.000Z</time>
      </trkpt>
      <trkpt lat="47.16076" lon="3.98052">
        <ele>580.79998779297</ele>
        <time>2022-10-29T16:36:34.000Z</time>
      </trkpt>
      <trkpt lat="47.16082" lon="3.9805">
        <ele>581.20001220703</ele>
        <time>2022-10-29T16:36:36.000Z</time>
      </trkpt>
      <trkpt lat="47.16099" lon="3.98046">
        <ele>582.20001220703</ele>
        <time>2022-10-29T16:36:42.000Z</time>
      </trkpt>
      <trkpt lat="47.16102" lon="3.98045">
        <ele>582.20001220703</ele>
        <time>2022-10-29T16:36:43.000Z</time>
      </trkpt>
      <trkpt lat="47.1612" lon="3.9804">
        <ele>583.20001220703</ele>
        <time>2022-10-29T16:36:49.000Z</time>
      </trkpt>
      <trkpt lat="47.16123" lon="3.98039">
        <ele>583.40002441406</ele>
        <time>2022-10-29T16:36:50.000Z</time>
      </trkpt>
      <trkpt lat="47.16147" lon="3.98033">
        <ele>584.59997558594</ele>
        <time>2022-10-29T16:36:58.000Z</time>
      </trkpt>
      <trkpt lat="47.16164" lon="3.98028">
        <ele>585.59997558594</ele>
        <time>2022-10-29T16:37:04.000Z</time>
      </trkpt>
      <trkpt lat="47.16179" lon="3.98024">
        <ele>586.59997558594</ele>
        <time>2022-10-29T16:37:09.000Z</time>
      </trkpt>
      <trkpt lat="47.16185" lon="3.98022">
        <ele>586.79998779297</ele>
        <time>2022-10-29T16:37:11.000Z</time>
      </trkpt>
      <trkpt lat="47.16188" lon="3.98022">
        <ele>587</ele>
        <time>2022-10-29T16:37:12.000Z</time>
      </trkpt>
      <trkpt lat="47.16197" lon="3.9802">
        <ele>587.59997558594</ele>
        <time>2022-10-29T16:37:15.000Z</time>
      </trkpt>
      <trkpt lat="47.16206" lon="3.98019">
        <ele>588</ele>
        <time>2022-10-29T16:37:18.000Z</time>
      </trkpt>
      <trkpt lat="47.16222" lon="3.98016">
        <ele>588.40002441406</ele>
        <time>2022-10-29T16:37:23.000Z</time>
      </trkpt>
      <trkpt lat="47.16225" lon="3.98015">
        <ele>589</ele>
        <time>2022-10-29T16:37:24.000Z</time>
      </trkpt>
      <trkpt lat="47.16242" lon="3.98011">
        <ele>589.59997558594</ele>
        <time>2022-10-29T16:37:30.000Z</time>
      </trkpt>
      <trkpt lat="47.16269" lon="3.98002">
        <ele>590.79998779297</ele>
        <time>2022-10-29T16:37:38.000Z</time>
      </trkpt>
      <trkpt lat="47.16294" lon="3.97988">
        <ele>591.79998779297</ele>
        <time>2022-10-29T16:37:45.000Z</time>
      </trkpt>
      <trkpt lat="47.16302" lon="3.97981">
        <ele>592.40002441406</ele>
        <time>2022-10-29T16:37:48.000Z</time>
      </trkpt>
      <trkpt lat="47.16309" lon="3.97973">
        <ele>593</ele>
        <time>2022-10-29T16:37:51.000Z</time>
      </trkpt>
      <trkpt lat="47.16322" lon="3.97956">
        <ele>594</ele>
        <time>2022-10-29T16:37:57.000Z</time>
      </trkpt>
      <trkpt lat="47.16324" lon="3.97952">
        <ele>594.20001220703</ele>
        <time>2022-10-29T16:37:58.000Z</time>
      </trkpt>
      <trkpt lat="47.16332" lon="3.97928">
        <ele>595.40002441406</ele>
        <time>2022-10-29T16:38:05.000Z</time>
      </trkpt>
      <trkpt lat="47.16335" lon="3.97921">
        <ele>595.79998779297</ele>
        <time>2022-10-29T16:38:07.000Z</time>
      </trkpt>
      <trkpt lat="47.16342" lon="3.979">
        <ele>596.59997558594</ele>
        <time>2022-10-29T16:38:11.000Z</time>
      </trkpt>
      <trkpt lat="47.16352" lon="3.97871">
        <ele>597.59997558594</ele>
        <time>2022-10-29T16:38:18.000Z</time>
      </trkpt>
      <trkpt lat="47.16362" lon="3.97847">
        <ele>598.59997558594</ele>
        <time>2022-10-29T16:38:24.000Z</time>
      </trkpt>
      <trkpt lat="47.16366" lon="3.9784">
        <ele>599</ele>
        <time>2022-10-29T16:38:26.000Z</time>
      </trkpt>
      <trkpt lat="47.16371" lon="3.97829">
        <ele>599.79998779297</ele>
        <time>2022-10-29T16:38:30.000Z</time>
      </trkpt>
      <trkpt lat="47.16381" lon="3.97811">
        <ele>600.59997558594</ele>
        <time>2022-10-29T16:38:34.000Z</time>
      </trkpt>
      <trkpt lat="47.16385" lon="3.97804">
        <ele>601</ele>
        <time>2022-10-29T16:38:36.000Z</time>
      </trkpt>
      <trkpt lat="47.16395" lon="3.97785">
        <ele>602</ele>
        <time>2022-10-29T16:38:42.000Z</time>
      </trkpt>
      <trkpt lat="47.16406" lon="3.97755">
        <ele>603</ele>
        <time>2022-10-29T16:38:48.000Z</time>
      </trkpt>
      <trkpt lat="47.16409" lon="3.97743">
        <ele>603.59997558594</ele>
        <time>2022-10-29T16:38:51.000Z</time>
      </trkpt>
      <trkpt lat="47.16411" lon="3.97728">
        <ele>604.20001220703</ele>
        <time>2022-10-29T16:38:54.000Z</time>
      </trkpt>
      <trkpt lat="47.16411" lon="3.97724">
        <ele>604.40002441406</ele>
        <time>2022-10-29T16:38:56.000Z</time>
      </trkpt>
      <trkpt lat="47.1641" lon="3.97691">
        <ele>605.40002441406</ele>
        <time>2022-10-29T16:39:02.000Z</time>
      </trkpt>
      <trkpt lat="47.1641" lon="3.97685">
        <ele>605.40002441406</ele>
        <time>2022-10-29T16:39:03.000Z</time>
      </trkpt>
      <trkpt lat="47.16406" lon="3.97661">
        <ele>606.40002441406</ele>
        <time>2022-10-29T16:39:08.000Z</time>
      </trkpt>
      <trkpt lat="47.16405" lon="3.97656">
        <ele>606.40002441406</ele>
        <time>2022-10-29T16:39:09.000Z</time>
      </trkpt>
      <trkpt lat="47.164" lon="3.97631">
        <ele>607.59997558594</ele>
        <time>2022-10-29T16:39:15.000Z</time>
      </trkpt>
      <trkpt lat="47.164" lon="3.97631">
        <ele>607.59997558594</ele>
        <time>2022-10-29T16:39:16.000Z</time>
      </trkpt>
      <trkpt lat="47.16393" lon="3.97605">
        <ele>608.59997558594</ele>
        <time>2022-10-29T16:39:21.000Z</time>
      </trkpt>
      <trkpt lat="47.1639" lon="3.97591">
        <ele>609.20001220703</ele>
        <time>2022-10-29T16:39:24.000Z</time>
      </trkpt>
      <trkpt lat="47.16388" lon="3.97577">
        <ele>609.79998779297</ele>
        <time>2022-10-29T16:39:27.000Z</time>
      </trkpt>
      <trkpt lat="47.16387" lon="3.97563">
        <ele>610.20001220703</ele>
        <time>2022-10-29T16:39:30.000Z</time>
      </trkpt>
      <trkpt lat="47.16387" lon="3.97553">
        <ele>610.79998779297</ele>
        <time>2022-10-29T16:39:32.000Z</time>
      </trkpt>
      <trkpt lat="47.1639" lon="3.9753">
        <ele>611.59997558594</ele>
        <time>2022-10-29T16:39:37.000Z</time>
      </trkpt>
      <trkpt lat="47.16395" lon="3.97516">
        <ele>612</ele>
        <time>2022-10-29T16:39:40.000Z</time>
      </trkpt>
      <trkpt lat="47.16403" lon="3.97495">
        <ele>612.59997558594</ele>
        <time>2022-10-29T16:39:45.000Z</time>
      </trkpt>
      <trkpt lat="47.16407" lon="3.97483">
        <ele>613</ele>
        <time>2022-10-29T16:39:48.000Z</time>
      </trkpt>
      <trkpt lat="47.16415" lon="3.97467">
        <ele>614</ele>
        <time>2022-10-29T16:39:52.000Z</time>
      </trkpt>
      <trkpt lat="47.16417" lon="3.97463">
        <ele>614.20001220703</ele>
        <time>2022-10-29T16:39:53.000Z</time>
      </trkpt>
      <trkpt lat="47.16426" lon="3.97434">
        <ele>615.40002441406</ele>
        <time>2022-10-29T16:40:00.000Z</time>
      </trkpt>
      <trkpt lat="47.16429" lon="3.97424">
        <ele>616</ele>
        <time>2022-10-29T16:40:02.000Z</time>
      </trkpt>
      <trkpt lat="47.16431" lon="3.97414">
        <ele>616.40002441406</ele>
        <time>2022-10-29T16:40:04.000Z</time>
      </trkpt>
      <trkpt lat="47.16437" lon="3.97393">
        <ele>617.20001220703</ele>
        <time>2022-10-29T16:40:08.000Z</time>
      </trkpt>
      <trkpt lat="47.16437" lon="3.97388">
        <ele>617.40002441406</ele>
        <time>2022-10-29T16:40:10.000Z</time>
      </trkpt>
      <trkpt lat="47.16442" lon="3.9735">
        <ele>618.20001220703</ele>
        <time>2022-10-29T16:40:17.000Z</time>
      </trkpt>
      <trkpt lat="47.16441" lon="3.97341">
        <ele>618.59997558594</ele>
        <time>2022-10-29T16:40:19.000Z</time>
      </trkpt>
      <trkpt lat="47.16438" lon="3.97317">
        <ele>620</ele>
        <time>2022-10-29T16:40:24.000Z</time>
      </trkpt>
      <trkpt lat="47.16437" lon="3.97311">
        <ele>620</ele>
        <time>2022-10-29T16:40:25.000Z</time>
      </trkpt>
      <trkpt lat="47.16434" lon="3.97298">
        <ele>621</ele>
        <time>2022-10-29T16:40:28.000Z</time>
      </trkpt>
      <trkpt lat="47.16429" lon="3.97275">
        <ele>621.79998779297</ele>
        <time>2022-10-29T16:40:34.000Z</time>
      </trkpt>
      <trkpt lat="47.16426" lon="3.9726">
        <ele>622</ele>
        <time>2022-10-29T16:40:36.000Z</time>
      </trkpt>
      <trkpt lat="47.1642" lon="3.9723">
        <ele>622.59997558594</ele>
        <time>2022-10-29T16:40:44.000Z</time>
      </trkpt>
      <trkpt lat="47.16416" lon="3.9721">
        <ele>623</ele>
        <time>2022-10-29T16:40:47.000Z</time>
      </trkpt>
      <trkpt lat="47.1641" lon="3.97178">
        <ele>623.79998779297</ele>
        <time>2022-10-29T16:40:54.000Z</time>
      </trkpt>
      <trkpt lat="47.16409" lon="3.97172">
        <ele>624</ele>
        <time>2022-10-29T16:40:55.000Z</time>
      </trkpt>
      <trkpt lat="47.16402" lon="3.9714">
        <ele>624.79998779297</ele>
        <time>2022-10-29T16:41:02.000Z</time>
      </trkpt>
      <trkpt lat="47.16398" lon="3.97125">
        <ele>625.20001220703</ele>
        <time>2022-10-29T16:41:05.000Z</time>
      </trkpt>
      <trkpt lat="47.16391" lon="3.97096">
        <ele>625.59997558594</ele>
        <time>2022-10-29T16:41:11.000Z</time>
      </trkpt>
      <trkpt lat="47.16388" lon="3.97078">
        <ele>626.20001220703</ele>
        <time>2022-10-29T16:41:15.000Z</time>
      </trkpt>
      <trkpt lat="47.16382" lon="3.97048">
        <ele>627</ele>
        <time>2022-10-29T16:41:21.000Z</time>
      </trkpt>
      <trkpt lat="47.16381" lon="3.97033">
        <ele>627.20001220703</ele>
        <time>2022-10-29T16:41:24.000Z</time>
      </trkpt>
      <trkpt lat="47.16381" lon="3.97001">
        <ele>628</ele>
        <time>2022-10-29T16:41:30.000Z</time>
      </trkpt>
      <trkpt lat="47.16386" lon="3.96982">
        <ele>628.40002441406</ele>
        <time>2022-10-29T16:41:34.000Z</time>
      </trkpt>
      <trkpt lat="47.16396" lon="3.9696">
        <ele>628.79998779297</ele>
        <time>2022-10-29T16:41:39.000Z</time>
      </trkpt>
      <trkpt lat="47.16405" lon="3.96947">
        <ele>629.40002441406</ele>
        <time>2022-10-29T16:41:43.000Z</time>
      </trkpt>
      <trkpt lat="47.16412" lon="3.96938">
        <ele>629.79998779297</ele>
        <time>2022-10-29T16:41:47.000Z</time>
      </trkpt>
      <trkpt lat="47.16417" lon="3.96933">
        <ele>630</ele>
        <time>2022-10-29T16:41:52.000Z</time>
      </trkpt>
      <trkpt lat="47.16417" lon="3.96933">
        <ele>630</ele>
        <time>2022-10-29T16:42:07.000Z</time>
      </trkpt>
      <trkpt lat="47.16422" lon="3.96927">
        <ele>629.79998779297</ele>
        <time>2022-10-29T16:43:16.000Z</time>
      </trkpt>
      <trkpt lat="47.16438" lon="3.96908">
        <ele>629.79998779297</ele>
        <time>2022-10-29T16:43:23.000Z</time>
      </trkpt>
      <trkpt lat="47.16461" lon="3.96883">
        <ele>629.20001220703</ele>
        <time>2022-10-29T16:43:29.000Z</time>
      </trkpt>
      <trkpt lat="47.1649" lon="3.96849">
        <ele>628.79998779297</ele>
        <time>2022-10-29T16:43:35.000Z</time>
      </trkpt>
      <trkpt lat="47.16497" lon="3.96842">
        <ele>628.40002441406</ele>
        <time>2022-10-29T16:43:36.000Z</time>
      </trkpt>
      <trkpt lat="47.16517" lon="3.96819">
        <ele>627.20001220703</ele>
        <time>2022-10-29T16:43:41.000Z</time>
      </trkpt>
      <trkpt lat="47.16534" lon="3.96799">
        <ele>627</ele>
        <time>2022-10-29T16:43:43.000Z</time>
      </trkpt>
      <trkpt lat="47.16562" lon="3.96768">
        <ele>626.20001220703</ele>
        <time>2022-10-29T16:43:48.000Z</time>
      </trkpt>
      <trkpt lat="47.16573" lon="3.96756">
        <ele>626</ele>
        <time>2022-10-29T16:43:50.000Z</time>
      </trkpt>
      <trkpt lat="47.16608" lon="3.96706">
        <ele>625.20001220703</ele>
        <time>2022-10-29T16:43:57.000Z</time>
      </trkpt>
      <trkpt lat="47.16624" lon="3.96671">
        <ele>624.79998779297</ele>
        <time>2022-10-29T16:44:01.000Z</time>
      </trkpt>
      <trkpt lat="47.16629" lon="3.96654">
        <ele>624.40002441406</ele>
        <time>2022-10-29T16:44:03.000Z</time>
      </trkpt>
      <trkpt lat="47.16638" lon="3.96616">
        <ele>624</ele>
        <time>2022-10-29T16:44:08.000Z</time>
      </trkpt>
      <trkpt lat="47.16642" lon="3.96597">
        <ele>624</ele>
        <time>2022-10-29T16:44:09.000Z</time>
      </trkpt>
      <trkpt lat="47.16659" lon="3.96503">
        <ele>623</ele>
        <time>2022-10-29T16:44:18.000Z</time>
      </trkpt>
      <trkpt lat="47.16661" lon="3.96492">
        <ele>622.79998779297</ele>
        <time>2022-10-29T16:44:19.000Z</time>
      </trkpt>
      <trkpt lat="47.16669" lon="3.96448">
        <ele>622</ele>
        <time>2022-10-29T16:44:23.000Z</time>
      </trkpt>
      <trkpt lat="47.16676" lon="3.96411">
        <ele>621</ele>
        <time>2022-10-29T16:44:26.000Z</time>
      </trkpt>
      <trkpt lat="47.16679" lon="3.96398">
        <ele>620.59997558594</ele>
        <time>2022-10-29T16:44:27.000Z</time>
      </trkpt>
      <trkpt lat="47.16686" lon="3.9636">
        <ele>619.59997558594</ele>
        <time>2022-10-29T16:44:30.000Z</time>
      </trkpt>
      <trkpt lat="47.16692" lon="3.9633">
        <ele>618.59997558594</ele>
        <time>2022-10-29T16:44:32.000Z</time>
      </trkpt>
      <trkpt lat="47.16705" lon="3.96293">
        <ele>617.40002441406</ele>
        <time>2022-10-29T16:44:35.000Z</time>
      </trkpt>
      <trkpt lat="47.16713" lon="3.96279">
        <ele>616.79998779297</ele>
        <time>2022-10-29T16:44:36.000Z</time>
      </trkpt>
      <trkpt lat="47.16713" lon="3.96279">
        <ele>616.40002441406</ele>
        <time>2022-10-29T16:44:37.000Z</time>
      </trkpt>
      <trkpt lat="47.16729" lon="3.9626">
        <ele>615.59997558594</ele>
        <time>2022-10-29T16:44:38.000Z</time>
      </trkpt>
      <trkpt lat="47.16735" lon="3.96253">
        <ele>614.59997558594</ele>
        <time>2022-10-29T16:44:39.000Z</time>
      </trkpt>
      <trkpt lat="47.16735" lon="3.96253">
        <ele>614.20001220703</ele>
        <time>2022-10-29T16:44:40.000Z</time>
      </trkpt>
      <trkpt lat="47.16762" lon="3.96232">
        <ele>613.40002441406</ele>
        <time>2022-10-29T16:44:42.000Z</time>
      </trkpt>
      <trkpt lat="47.16786" lon="3.96214">
        <ele>612.59997558594</ele>
        <time>2022-10-29T16:44:45.000Z</time>
      </trkpt>
      <trkpt lat="47.16801" lon="3.96204">
        <ele>612.20001220703</ele>
        <time>2022-10-29T16:44:47.000Z</time>
      </trkpt>
      <trkpt lat="47.16807" lon="3.962">
        <ele>612</ele>
        <time>2022-10-29T16:44:48.000Z</time>
      </trkpt>
      <trkpt lat="47.1683" lon="3.96187">
        <ele>611.79998779297</ele>
        <time>2022-10-29T16:44:51.000Z</time>
      </trkpt>
      <trkpt lat="47.16864" lon="3.96177">
        <ele>612</ele>
        <time>2022-10-29T16:44:57.000Z</time>
      </trkpt>
      <trkpt lat="47.1688" lon="3.96174">
        <ele>612.20001220703</ele>
        <time>2022-10-29T16:44:59.000Z</time>
      </trkpt>
      <trkpt lat="47.16888" lon="3.96173">
        <ele>612.59997558594</ele>
        <time>2022-10-29T16:45:01.000Z</time>
      </trkpt>
      <trkpt lat="47.16902" lon="3.96169">
        <ele>613.20001220703</ele>
        <time>2022-10-29T16:45:06.000Z</time>
      </trkpt>
      <trkpt lat="47.16904" lon="3.96167">
        <ele>613.40002441406</ele>
        <time>2022-10-29T16:45:07.000Z</time>
      </trkpt>
      <trkpt lat="47.16915" lon="3.96158">
        <ele>614.20001220703</ele>
        <time>2022-10-29T16:45:10.000Z</time>
      </trkpt>
      <trkpt lat="47.1692" lon="3.96155">
        <ele>614.40002441406</ele>
        <time>2022-10-29T16:45:11.000Z</time>
      </trkpt>
      <trkpt lat="47.16934" lon="3.96148">
        <ele>615.20001220703</ele>
        <time>2022-10-29T16:45:15.000Z</time>
      </trkpt>
      <trkpt lat="47.16937" lon="3.96146">
        <ele>615.20001220703</ele>
        <time>2022-10-29T16:45:16.000Z</time>
      </trkpt>
      <trkpt lat="47.16961" lon="3.96122">
        <ele>616.40002441406</ele>
        <time>2022-10-29T16:45:22.000Z</time>
      </trkpt>
      <trkpt lat="47.16983" lon="3.96093">
        <ele>616.79998779297</ele>
        <time>2022-10-29T16:45:27.000Z</time>
      </trkpt>
      <trkpt lat="47.17016" lon="3.9606">
        <ele>616.79998779297</ele>
        <time>2022-10-29T16:45:32.000Z</time>
      </trkpt>
      <trkpt lat="47.17034" lon="3.96049">
        <ele>616.79998779297</ele>
        <time>2022-10-29T16:45:35.000Z</time>
      </trkpt>
      <trkpt lat="47.17048" lon="3.96043">
        <ele>616.79998779297</ele>
        <time>2022-10-29T16:45:37.000Z</time>
      </trkpt>
      <trkpt lat="47.17097" lon="3.96028">
        <ele>617</ele>
        <time>2022-10-29T16:45:45.000Z</time>
      </trkpt>
      <trkpt lat="47.17142" lon="3.96013">
        <ele>617.20001220703</ele>
        <time>2022-10-29T16:45:53.000Z</time>
      </trkpt>
      <trkpt lat="47.17196" lon="3.95995">
        <ele>617</ele>
        <time>2022-10-29T16:46:02.000Z</time>
      </trkpt>
      <trkpt lat="47.17207" lon="3.95992">
        <ele>617</ele>
        <time>2022-10-29T16:46:04.000Z</time>
      </trkpt>
      <trkpt lat="47.17248" lon="3.95984">
        <ele>616</ele>
        <time>2022-10-29T16:46:10.000Z</time>
      </trkpt>
      <trkpt lat="47.17271" lon="3.95981">
        <ele>615.20001220703</ele>
        <time>2022-10-29T16:46:13.000Z</time>
      </trkpt>
      <trkpt lat="47.17296" lon="3.9598">
        <ele>614.20001220703</ele>
        <time>2022-10-29T16:46:16.000Z</time>
      </trkpt>
      <trkpt lat="47.17326" lon="3.9598">
        <ele>612.59997558594</ele>
        <time>2022-10-29T16:46:19.000Z</time>
      </trkpt>
      <trkpt lat="47.17345" lon="3.95983">
        <ele>611.59997558594</ele>
        <time>2022-10-29T16:46:21.000Z</time>
      </trkpt>
      <trkpt lat="47.17378" lon="3.95995">
        <ele>609.59997558594</ele>
        <time>2022-10-29T16:46:24.000Z</time>
      </trkpt>
      <trkpt lat="47.17397" lon="3.96005">
        <ele>608.40002441406</ele>
        <time>2022-10-29T16:46:26.000Z</time>
      </trkpt>
      <trkpt lat="47.1743" lon="3.96019">
        <ele>607</ele>
        <time>2022-10-29T16:46:29.000Z</time>
      </trkpt>
      <trkpt lat="47.17439" lon="3.9602">
        <ele>606.59997558594</ele>
        <time>2022-10-29T16:46:30.000Z</time>
      </trkpt>
      <trkpt lat="47.17452" lon="3.96021">
        <ele>606</ele>
        <time>2022-10-29T16:46:31.000Z</time>
      </trkpt>
      <trkpt lat="47.17484" lon="3.9602">
        <ele>604.20001220703</ele>
        <time>2022-10-29T16:46:34.000Z</time>
      </trkpt>
      <trkpt lat="47.17509" lon="3.96018">
        <ele>603</ele>
        <time>2022-10-29T16:46:36.000Z</time>
      </trkpt>
      <trkpt lat="47.17531" lon="3.96014">
        <ele>601.79998779297</ele>
        <time>2022-10-29T16:46:38.000Z</time>
      </trkpt>
      <trkpt lat="47.17552" lon="3.96011">
        <ele>600.40002441406</ele>
        <time>2022-10-29T16:46:40.000Z</time>
      </trkpt>
      <trkpt lat="47.17578" lon="3.96008">
        <ele>599.40002441406</ele>
        <time>2022-10-29T16:46:42.000Z</time>
      </trkpt>
      <trkpt lat="47.17598" lon="3.96003">
        <ele>597.79998779297</ele>
        <time>2022-10-29T16:46:44.000Z</time>
      </trkpt>
      <trkpt lat="47.17611" lon="3.95995">
        <ele>597.20001220703</ele>
        <time>2022-10-29T16:46:45.000Z</time>
      </trkpt>
      <trkpt lat="47.17621" lon="3.95986">
        <ele>596.40002441406</ele>
        <time>2022-10-29T16:46:46.000Z</time>
      </trkpt>
      <trkpt lat="47.17637" lon="3.95967">
        <ele>595.40002441406</ele>
        <time>2022-10-29T16:46:48.000Z</time>
      </trkpt>
      <trkpt lat="47.17654" lon="3.95939">
        <ele>594.20001220703</ele>
        <time>2022-10-29T16:46:50.000Z</time>
      </trkpt>
      <trkpt lat="47.17669" lon="3.95914">
        <ele>593</ele>
        <time>2022-10-29T16:46:52.000Z</time>
      </trkpt>
      <trkpt lat="47.17682" lon="3.95891">
        <ele>592</ele>
        <time>2022-10-29T16:46:54.000Z</time>
      </trkpt>
      <trkpt lat="47.17688" lon="3.95879">
        <ele>591.40002441406</ele>
        <time>2022-10-29T16:46:55.000Z</time>
      </trkpt>
      <trkpt lat="47.17706" lon="3.95846">
        <ele>590</ele>
        <time>2022-10-29T16:46:58.000Z</time>
      </trkpt>
      <trkpt lat="47.17718" lon="3.95824">
        <ele>589.40002441406</ele>
        <time>2022-10-29T16:47:00.000Z</time>
      </trkpt>
      <trkpt lat="47.17728" lon="3.95805">
        <ele>589.20001220703</ele>
        <time>2022-10-29T16:47:02.000Z</time>
      </trkpt>
      <trkpt lat="47.17751" lon="3.95762">
        <ele>588.59997558594</ele>
        <time>2022-10-29T16:47:06.000Z</time>
      </trkpt>
      <trkpt lat="47.17773" lon="3.95721">
        <ele>588</ele>
        <time>2022-10-29T16:47:10.000Z</time>
      </trkpt>
      <trkpt lat="47.17804" lon="3.95664">
        <ele>587.40002441406</ele>
        <time>2022-10-29T16:47:16.000Z</time>
      </trkpt>
      <trkpt lat="47.1784" lon="3.95601">
        <ele>587.59997558594</ele>
        <time>2022-10-29T16:47:23.000Z</time>
      </trkpt>
      <trkpt lat="47.17869" lon="3.95547">
        <ele>588.59997558594</ele>
        <time>2022-10-29T16:47:30.000Z</time>
      </trkpt>
      <trkpt lat="47.17881" lon="3.95526">
        <ele>589</ele>
        <time>2022-10-29T16:47:33.000Z</time>
      </trkpt>
      <trkpt lat="47.17884" lon="3.95521">
        <ele>589.40002441406</ele>
        <time>2022-10-29T16:47:35.000Z</time>
      </trkpt>
      <trkpt lat="47.17906" lon="3.95476">
        <ele>590</ele>
        <time>2022-10-29T16:47:40.000Z</time>
      </trkpt>
      <trkpt lat="47.1791" lon="3.95466">
        <ele>590</ele>
        <time>2022-10-29T16:47:41.000Z</time>
      </trkpt>
      <trkpt lat="47.17916" lon="3.95449">
        <ele>590</ele>
        <time>2022-10-29T16:47:43.000Z</time>
      </trkpt>
      <trkpt lat="47.17923" lon="3.95416">
        <ele>589.59997558594</ele>
        <time>2022-10-29T16:47:46.000Z</time>
      </trkpt>
      <trkpt lat="47.17931" lon="3.95369">
        <ele>588.79998779297</ele>
        <time>2022-10-29T16:47:50.000Z</time>
      </trkpt>
      <trkpt lat="47.17933" lon="3.95357">
        <ele>588.20001220703</ele>
        <time>2022-10-29T16:47:52.000Z</time>
      </trkpt>
      <trkpt lat="47.17938" lon="3.95321">
        <ele>587.59997558594</ele>
        <time>2022-10-29T16:47:55.000Z</time>
      </trkpt>
      <trkpt lat="47.17946" lon="3.95275">
        <ele>586.59997558594</ele>
        <time>2022-10-29T16:47:58.000Z</time>
      </trkpt>
      <trkpt lat="47.17959" lon="3.95229">
        <ele>585.20001220703</ele>
        <time>2022-10-29T16:48:02.000Z</time>
      </trkpt>
      <trkpt lat="47.17963" lon="3.95219">
        <ele>585</ele>
        <time>2022-10-29T16:48:03.000Z</time>
      </trkpt>
      <trkpt lat="47.17968" lon="3.95208">
        <ele>584.59997558594</ele>
        <time>2022-10-29T16:48:04.000Z</time>
      </trkpt>
      <trkpt lat="47.17984" lon="3.95184">
        <ele>583.79998779297</ele>
        <time>2022-10-29T16:48:07.000Z</time>
      </trkpt>
      <trkpt lat="47.18003" lon="3.95163">
        <ele>582.20001220703</ele>
        <time>2022-10-29T16:48:10.000Z</time>
      </trkpt>
      <trkpt lat="47.18008" lon="3.95158">
        <ele>582</ele>
        <time>2022-10-29T16:48:11.000Z</time>
      </trkpt>
      <trkpt lat="47.18011" lon="3.95155">
        <ele>581</ele>
        <time>2022-10-29T16:48:12.000Z</time>
      </trkpt>
      <trkpt lat="47.18026" lon="3.95143">
        <ele>580</ele>
        <time>2022-10-29T16:48:15.000Z</time>
      </trkpt>
      <trkpt lat="47.18033" lon="3.95136">
        <ele>579</ele>
        <time>2022-10-29T16:48:17.000Z</time>
      </trkpt>
      <trkpt lat="47.18037" lon="3.95133">
        <ele>578.79998779297</ele>
        <time>2022-10-29T16:48:18.000Z</time>
      </trkpt>
      <trkpt lat="47.18043" lon="3.95128">
        <ele>578</ele>
        <time>2022-10-29T16:48:21.000Z</time>
      </trkpt>
      <trkpt lat="47.18044" lon="3.95128">
        <ele>577.79998779297</ele>
        <time>2022-10-29T16:48:22.000Z</time>
      </trkpt>
      <trkpt lat="47.18044" lon="3.95128">
        <ele>577.40002441406</ele>
        <time>2022-10-29T16:48:25.000Z</time>
      </trkpt>
      <trkpt lat="47.18044" lon="3.95128">
        <ele>576.79998779297</ele>
        <time>2022-10-29T16:48:45.000Z</time>
      </trkpt>
      <trkpt lat="47.18049" lon="3.95125">
        <ele>576.20001220703</ele>
        <time>2022-10-29T16:48:56.000Z</time>
      </trkpt>
      <trkpt lat="47.1805" lon="3.95124">
        <ele>576.20001220703</ele>
        <time>2022-10-29T16:48:59.000Z</time>
      </trkpt>
      <trkpt lat="47.1805" lon="3.95124">
        <ele>576.20001220703</ele>
        <time>2022-10-29T16:49:01.000Z</time>
      </trkpt>
      <trkpt lat="47.18054" lon="3.95122">
        <ele>576.20001220703</ele>
        <time>2022-10-29T16:49:42.000Z</time>
      </trkpt>
      <trkpt lat="47.18055" lon="3.95121">
        <ele>576.20001220703</ele>
        <time>2022-10-29T16:49:48.000Z</time>
      </trkpt>
      <trkpt lat="47.18059" lon="3.95117">
        <ele>576.20001220703</ele>
        <time>2022-10-29T16:50:58.000Z</time>
      </trkpt>
      <trkpt lat="47.18067" lon="3.95112">
        <ele>576</ele>
        <time>2022-10-29T16:51:00.000Z</time>
      </trkpt>
      <trkpt lat="47.18079" lon="3.95104">
        <ele>575.79998779297</ele>
        <time>2022-10-29T16:51:03.000Z</time>
      </trkpt>
      <trkpt lat="47.18104" lon="3.95094">
        <ele>575.79998779297</ele>
        <time>2022-10-29T16:51:08.000Z</time>
      </trkpt>
      <trkpt lat="47.18115" lon="3.9509">
        <ele>575.59997558594</ele>
        <time>2022-10-29T16:51:10.000Z</time>
      </trkpt>
      <trkpt lat="47.18142" lon="3.95085">
        <ele>575.59997558594</ele>
        <time>2022-10-29T16:51:15.000Z</time>
      </trkpt>
      <trkpt lat="47.18151" lon="3.95083">
        <ele>575.40002441406</ele>
        <time>2022-10-29T16:51:17.000Z</time>
      </trkpt>
      <trkpt lat="47.18157" lon="3.95082">
        <ele>575.40002441406</ele>
        <time>2022-10-29T16:51:18.000Z</time>
      </trkpt>
      <trkpt lat="47.18176" lon="3.95078">
        <ele>575.40002441406</ele>
        <time>2022-10-29T16:51:22.000Z</time>
      </trkpt>
      <trkpt lat="47.18186" lon="3.95076">
        <ele>575.40002441406</ele>
        <time>2022-10-29T16:51:24.000Z</time>
      </trkpt>
      <trkpt lat="47.18195" lon="3.95075">
        <ele>575.40002441406</ele>
        <time>2022-10-29T16:51:26.000Z</time>
      </trkpt>
      <trkpt lat="47.18218" lon="3.9507">
        <ele>576.20001220703</ele>
        <time>2022-10-29T16:51:31.000Z</time>
      </trkpt>
      <trkpt lat="47.18226" lon="3.95068">
        <ele>576.40002441406</ele>
        <time>2022-10-29T16:51:33.000Z</time>
      </trkpt>
      <trkpt lat="47.18236" lon="3.95066">
        <ele>576.59997558594</ele>
        <time>2022-10-29T16:51:36.000Z</time>
      </trkpt>
      <trkpt lat="47.18257" lon="3.95061">
        <ele>577.20001220703</ele>
        <time>2022-10-29T16:51:40.000Z</time>
      </trkpt>
      <trkpt lat="47.18263" lon="3.95059">
        <ele>577.20001220703</ele>
        <time>2022-10-29T16:51:41.000Z</time>
      </trkpt>
      <trkpt lat="47.18268" lon="3.95058">
        <ele>577.40002441406</ele>
        <time>2022-10-29T16:51:42.000Z</time>
      </trkpt>
      <trkpt lat="47.18276" lon="3.95055">
        <ele>577.59997558594</ele>
        <time>2022-10-29T16:51:44.000Z</time>
      </trkpt>
      <trkpt lat="47.18286" lon="3.95052">
        <ele>578</ele>
        <time>2022-10-29T16:51:46.000Z</time>
      </trkpt>
      <trkpt lat="47.18293" lon="3.95048">
        <ele>578</ele>
        <time>2022-10-29T16:51:47.000Z</time>
      </trkpt>
      <trkpt lat="47.18293" lon="3.95048">
        <ele>578.20001220703</ele>
        <time>2022-10-29T16:51:48.000Z</time>
      </trkpt>
      <trkpt lat="47.18331" lon="3.95016">
        <ele>579.20001220703</ele>
        <time>2022-10-29T16:51:55.000Z</time>
      </trkpt>
      <trkpt lat="47.18376" lon="3.9497">
        <ele>580.20001220703</ele>
        <time>2022-10-29T16:52:06.000Z</time>
      </trkpt>
      <trkpt lat="47.1838" lon="3.94966">
        <ele>580.40002441406</ele>
        <time>2022-10-29T16:52:07.000Z</time>
      </trkpt>
      <trkpt lat="47.18384" lon="3.94962">
        <ele>580.40002441406</ele>
        <time>2022-10-29T16:52:08.000Z</time>
      </trkpt>
      <trkpt lat="47.18404" lon="3.94944">
        <ele>580.79998779297</ele>
        <time>2022-10-29T16:52:13.000Z</time>
      </trkpt>
      <trkpt lat="47.18408" lon="3.9494">
        <ele>580.79998779297</ele>
        <time>2022-10-29T16:52:14.000Z</time>
      </trkpt>
      <trkpt lat="47.18434" lon="3.94903">
        <ele>580.79998779297</ele>
        <time>2022-10-29T16:52:21.000Z</time>
      </trkpt>
      <trkpt lat="47.18462" lon="3.94852">
        <ele>580.20001220703</ele>
        <time>2022-10-29T16:52:28.000Z</time>
      </trkpt>
      <trkpt lat="47.18482" lon="3.94815">
        <ele>579.20001220703</ele>
        <time>2022-10-29T16:52:32.000Z</time>
      </trkpt>
      <trkpt lat="47.18492" lon="3.94796">
        <ele>578.59997558594</ele>
        <time>2022-10-29T16:52:34.000Z</time>
      </trkpt>
      <trkpt lat="47.18496" lon="3.94789">
        <ele>578</ele>
        <time>2022-10-29T16:52:35.000Z</time>
      </trkpt>
      <trkpt lat="47.1851" lon="3.94764">
        <ele>577</ele>
        <time>2022-10-29T16:52:38.000Z</time>
      </trkpt>
      <trkpt lat="47.18517" lon="3.9475">
        <ele>576.20001220703</ele>
        <time>2022-10-29T16:52:40.000Z</time>
      </trkpt>
      <trkpt lat="47.18526" lon="3.94735">
        <ele>575.59997558594</ele>
        <time>2022-10-29T16:52:42.000Z</time>
      </trkpt>
      <trkpt lat="47.18537" lon="3.94715">
        <ele>574.79998779297</ele>
        <time>2022-10-29T16:52:45.000Z</time>
      </trkpt>
      <trkpt lat="47.1854" lon="3.94707">
        <ele>574.59997558594</ele>
        <time>2022-10-29T16:52:46.000Z</time>
      </trkpt>
      <trkpt lat="47.18547" lon="3.94688">
        <ele>574.20001220703</ele>
        <time>2022-10-29T16:52:48.000Z</time>
      </trkpt>
      <trkpt lat="47.18554" lon="3.94664">
        <ele>573.79998779297</ele>
        <time>2022-10-29T16:52:51.000Z</time>
      </trkpt>
      <trkpt lat="47.18566" lon="3.9463">
        <ele>573.79998779297</ele>
        <time>2022-10-29T16:52:56.000Z</time>
      </trkpt>
      <trkpt lat="47.18579" lon="3.94599">
        <ele>574</ele>
        <time>2022-10-29T16:53:02.000Z</time>
      </trkpt>
      <trkpt lat="47.18594" lon="3.94563">
        <ele>574.40002441406</ele>
        <time>2022-10-29T16:53:08.000Z</time>
      </trkpt>
      <trkpt lat="47.18596" lon="3.94558">
        <ele>574.40002441406</ele>
        <time>2022-10-29T16:53:09.000Z</time>
      </trkpt>
      <trkpt lat="47.18601" lon="3.94548">
        <ele>574.40002441406</ele>
        <time>2022-10-29T16:53:11.000Z</time>
      </trkpt>
      <trkpt lat="47.18609" lon="3.94525">
        <ele>574.59997558594</ele>
        <time>2022-10-29T16:53:15.000Z</time>
      </trkpt>
      <trkpt lat="47.18616" lon="3.94508">
        <ele>575</ele>
        <time>2022-10-29T16:53:18.000Z</time>
      </trkpt>
      <trkpt lat="47.18621" lon="3.94491">
        <ele>575.20001220703</ele>
        <time>2022-10-29T16:53:21.000Z</time>
      </trkpt>
      <trkpt lat="47.18623" lon="3.94486">
        <ele>575.20001220703</ele>
        <time>2022-10-29T16:53:22.000Z</time>
      </trkpt>
      <trkpt lat="47.18626" lon="3.94476">
        <ele>575.40002441406</ele>
        <time>2022-10-29T16:53:24.000Z</time>
      </trkpt>
      <trkpt lat="47.18628" lon="3.94471">
        <ele>575.59997558594</ele>
        <time>2022-10-29T16:53:25.000Z</time>
      </trkpt>
      <trkpt lat="47.1863" lon="3.94466">
        <ele>575.79998779297</ele>
        <time>2022-10-29T16:53:26.000Z</time>
      </trkpt>
      <trkpt lat="47.18635" lon="3.94448">
        <ele>576</ele>
        <time>2022-10-29T16:53:30.000Z</time>
      </trkpt>
      <trkpt lat="47.18636" lon="3.94442">
        <ele>576.20001220703</ele>
        <time>2022-10-29T16:53:31.000Z</time>
      </trkpt>
      <trkpt lat="47.1864" lon="3.94421">
        <ele>577</ele>
        <time>2022-10-29T16:53:35.000Z</time>
      </trkpt>
      <trkpt lat="47.18641" lon="3.94417">
        <ele>577</ele>
        <time>2022-10-29T16:53:36.000Z</time>
      </trkpt>
      <trkpt lat="47.18641" lon="3.94412">
        <ele>577.40002441406</ele>
        <time>2022-10-29T16:53:37.000Z</time>
      </trkpt>
      <trkpt lat="47.18639" lon="3.94405">
        <ele>577.79998779297</ele>
        <time>2022-10-29T16:53:39.000Z</time>
      </trkpt>
      <trkpt lat="47.18632" lon="3.94398">
        <ele>578</ele>
        <time>2022-10-29T16:53:41.000Z</time>
      </trkpt>
      <trkpt lat="47.18629" lon="3.94397">
        <ele>578.20001220703</ele>
        <time>2022-10-29T16:53:42.000Z</time>
      </trkpt>
      <trkpt lat="47.18619" lon="3.94396">
        <ele>578.40002441406</ele>
        <time>2022-10-29T16:53:45.000Z</time>
      </trkpt>
      <trkpt lat="47.18616" lon="3.94398">
        <ele>578.59997558594</ele>
        <time>2022-10-29T16:53:46.000Z</time>
      </trkpt>
      <trkpt lat="47.18612" lon="3.94404">
        <ele>578.59997558594</ele>
        <time>2022-10-29T16:53:48.000Z</time>
      </trkpt>
      <trkpt lat="47.18608" lon="3.94414">
        <ele>578.59997558594</ele>
        <time>2022-10-29T16:53:50.000Z</time>
      </trkpt>
      <trkpt lat="47.18601" lon="3.94446">
        <ele>578.59997558594</ele>
        <time>2022-10-29T16:53:56.000Z</time>
      </trkpt>
      <trkpt lat="47.18595" lon="3.94451">
        <ele>578.40002441406</ele>
        <time>2022-10-29T16:53:58.000Z</time>
      </trkpt>
      <trkpt lat="47.18591" lon="3.94449">
        <ele>578.40002441406</ele>
        <time>2022-10-29T16:53:59.000Z</time>
      </trkpt>
      <trkpt lat="47.18579" lon="3.94447">
        <ele>578.20001220703</ele>
        <time>2022-10-29T16:54:01.000Z</time>
      </trkpt>
      <trkpt lat="47.18555" lon="3.94452">
        <ele>576.79998779297</ele>
        <time>2022-10-29T16:54:06.000Z</time>
      </trkpt>
      <trkpt lat="47.18549" lon="3.94453">
        <ele>576.59997558594</ele>
        <time>2022-10-29T16:54:07.000Z</time>
      </trkpt>
      <trkpt lat="47.18541" lon="3.94452">
        <ele>576.40002441406</ele>
        <time>2022-10-29T16:54:09.000Z</time>
      </trkpt>
      <trkpt lat="47.18531" lon="3.94453">
        <ele>575.59997558594</ele>
        <time>2022-10-29T16:54:11.000Z</time>
      </trkpt>
      <trkpt lat="47.18515" lon="3.94452">
        <ele>574.79998779297</ele>
        <time>2022-10-29T16:54:14.000Z</time>
      </trkpt>
      <trkpt lat="47.18508" lon="3.9445">
        <ele>574.40002441406</ele>
        <time>2022-10-29T16:54:15.000Z</time>
      </trkpt>
      <trkpt lat="47.18502" lon="3.94445">
        <ele>574</ele>
        <time>2022-10-29T16:54:16.000Z</time>
      </trkpt>
      <trkpt lat="47.18495" lon="3.94434">
        <ele>573</ele>
        <time>2022-10-29T16:54:18.000Z</time>
      </trkpt>
      <trkpt lat="47.18493" lon="3.94425">
        <ele>572.59997558594</ele>
        <time>2022-10-29T16:54:19.000Z</time>
      </trkpt>
      <trkpt lat="47.1849" lon="3.94412">
        <ele>571.79998779297</ele>
        <time>2022-10-29T16:54:20.000Z</time>
      </trkpt>
      <trkpt lat="47.18486" lon="3.94392">
        <ele>570.79998779297</ele>
        <time>2022-10-29T16:54:22.000Z</time>
      </trkpt>
      <trkpt lat="47.18485" lon="3.94379">
        <ele>569.59997558594</ele>
        <time>2022-10-29T16:54:23.000Z</time>
      </trkpt>
      <trkpt lat="47.18483" lon="3.94354">
        <ele>568</ele>
        <time>2022-10-29T16:54:25.000Z</time>
      </trkpt>
      <trkpt lat="47.18478" lon="3.94329">
        <ele>566.79998779297</ele>
        <time>2022-10-29T16:54:27.000Z</time>
      </trkpt>
      <trkpt lat="47.18474" lon="3.94302">
        <ele>565.59997558594</ele>
        <time>2022-10-29T16:54:29.000Z</time>
      </trkpt>
      <trkpt lat="47.18473" lon="3.94273">
        <ele>564</ele>
        <time>2022-10-29T16:54:31.000Z</time>
      </trkpt>
      <trkpt lat="47.18474" lon="3.94248">
        <ele>562.79998779297</ele>
        <time>2022-10-29T16:54:33.000Z</time>
      </trkpt>
      <trkpt lat="47.18477" lon="3.94216">
        <ele>561.20001220703</ele>
        <time>2022-10-29T16:54:35.000Z</time>
      </trkpt>
      <trkpt lat="47.18479" lon="3.94204">
        <ele>560</ele>
        <time>2022-10-29T16:54:36.000Z</time>
      </trkpt>
      <trkpt lat="47.1848" lon="3.94186">
        <ele>559.20001220703</ele>
        <time>2022-10-29T16:54:37.000Z</time>
      </trkpt>
      <trkpt lat="47.18482" lon="3.94173">
        <ele>558.79998779297</ele>
        <time>2022-10-29T16:54:38.000Z</time>
      </trkpt>
      <trkpt lat="47.18484" lon="3.9414">
        <ele>557.79998779297</ele>
        <time>2022-10-29T16:54:40.000Z</time>
      </trkpt>
      <trkpt lat="47.18487" lon="3.94109">
        <ele>556.59997558594</ele>
        <time>2022-10-29T16:54:42.000Z</time>
      </trkpt>
      <trkpt lat="47.18489" lon="3.9408">
        <ele>555.59997558594</ele>
        <time>2022-10-29T16:54:44.000Z</time>
      </trkpt>
      <trkpt lat="47.1849" lon="3.94048">
        <ele>554</ele>
        <time>2022-10-29T16:54:46.000Z</time>
      </trkpt>
      <trkpt lat="47.1849" lon="3.94032">
        <ele>552.79998779297</ele>
        <time>2022-10-29T16:54:47.000Z</time>
      </trkpt>
      <trkpt lat="47.18489" lon="3.94016">
        <ele>551.40002441406</ele>
        <time>2022-10-29T16:54:48.000Z</time>
      </trkpt>
      <trkpt lat="47.18487" lon="3.94001">
        <ele>550.40002441406</ele>
        <time>2022-10-29T16:54:49.000Z</time>
      </trkpt>
      <trkpt lat="47.18477" lon="3.93953">
        <ele>549</ele>
        <time>2022-10-29T16:54:52.000Z</time>
      </trkpt>
      <trkpt lat="47.18472" lon="3.93927">
        <ele>547.59997558594</ele>
        <time>2022-10-29T16:54:54.000Z</time>
      </trkpt>
      <trkpt lat="47.1847" lon="3.93908">
        <ele>546.59997558594</ele>
        <time>2022-10-29T16:54:55.000Z</time>
      </trkpt>
      <trkpt lat="47.1847" lon="3.93892">
        <ele>545.59997558594</ele>
        <time>2022-10-29T16:54:56.000Z</time>
      </trkpt>
      <trkpt lat="47.1847" lon="3.93875">
        <ele>545.20001220703</ele>
        <time>2022-10-29T16:54:57.000Z</time>
      </trkpt>
      <trkpt lat="47.18473" lon="3.93846">
        <ele>544</ele>
        <time>2022-10-29T16:54:59.000Z</time>
      </trkpt>
      <trkpt lat="47.18475" lon="3.93826">
        <ele>543</ele>
        <time>2022-10-29T16:55:00.000Z</time>
      </trkpt>
      <trkpt lat="47.18477" lon="3.93813">
        <ele>542.40002441406</ele>
        <time>2022-10-29T16:55:01.000Z</time>
      </trkpt>
      <trkpt lat="47.18482" lon="3.93781">
        <ele>540.79998779297</ele>
        <time>2022-10-29T16:55:03.000Z</time>
      </trkpt>
      <trkpt lat="47.18488" lon="3.9375">
        <ele>539.59997558594</ele>
        <time>2022-10-29T16:55:05.000Z</time>
      </trkpt>
      <trkpt lat="47.18491" lon="3.93735">
        <ele>539</ele>
        <time>2022-10-29T16:55:06.000Z</time>
      </trkpt>
      <trkpt lat="47.18496" lon="3.93721">
        <ele>538.20001220703</ele>
        <time>2022-10-29T16:55:07.000Z</time>
      </trkpt>
      <trkpt lat="47.18506" lon="3.93695">
        <ele>537</ele>
        <time>2022-10-29T16:55:09.000Z</time>
      </trkpt>
      <trkpt lat="47.18516" lon="3.93667">
        <ele>535.79998779297</ele>
        <time>2022-10-29T16:55:11.000Z</time>
      </trkpt>
      <trkpt lat="47.18521" lon="3.93635">
        <ele>534.20001220703</ele>
        <time>2022-10-29T16:55:13.000Z</time>
      </trkpt>
      <trkpt lat="47.18526" lon="3.93603">
        <ele>532.59997558594</ele>
        <time>2022-10-29T16:55:15.000Z</time>
      </trkpt>
      <trkpt lat="47.18529" lon="3.93587">
        <ele>532</ele>
        <time>2022-10-29T16:55:16.000Z</time>
      </trkpt>
      <trkpt lat="47.18532" lon="3.9357">
        <ele>531</ele>
        <time>2022-10-29T16:55:17.000Z</time>
      </trkpt>
      <trkpt lat="47.18547" lon="3.9352">
        <ele>529.59997558594</ele>
        <time>2022-10-29T16:55:20.000Z</time>
      </trkpt>
      <trkpt lat="47.18552" lon="3.93505">
        <ele>528.79998779297</ele>
        <time>2022-10-29T16:55:21.000Z</time>
      </trkpt>
      <trkpt lat="47.18557" lon="3.9349">
        <ele>528</ele>
        <time>2022-10-29T16:55:22.000Z</time>
      </trkpt>
      <trkpt lat="47.18566" lon="3.93463">
        <ele>526.20001220703</ele>
        <time>2022-10-29T16:55:24.000Z</time>
      </trkpt>
      <trkpt lat="47.18576" lon="3.93433">
        <ele>525</ele>
        <time>2022-10-29T16:55:26.000Z</time>
      </trkpt>
      <trkpt lat="47.18591" lon="3.9339">
        <ele>523.40002441406</ele>
        <time>2022-10-29T16:55:29.000Z</time>
      </trkpt>
      <trkpt lat="47.18596" lon="3.93376">
        <ele>523.20001220703</ele>
        <time>2022-10-29T16:55:30.000Z</time>
      </trkpt>
      <trkpt lat="47.18606" lon="3.93348">
        <ele>521.20001220703</ele>
        <time>2022-10-29T16:55:32.000Z</time>
      </trkpt>
      <trkpt lat="47.18616" lon="3.9332">
        <ele>519.79998779297</ele>
        <time>2022-10-29T16:55:34.000Z</time>
      </trkpt>
      <trkpt lat="47.18625" lon="3.93292">
        <ele>518.20001220703</ele>
        <time>2022-10-29T16:55:36.000Z</time>
      </trkpt>
      <trkpt lat="47.1863" lon="3.93275">
        <ele>518</ele>
        <time>2022-10-29T16:55:37.000Z</time>
      </trkpt>
      <trkpt lat="47.18632" lon="3.93263">
        <ele>517</ele>
        <time>2022-10-29T16:55:38.000Z</time>
      </trkpt>
      <trkpt lat="47.18635" lon="3.93248">
        <ele>515.59997558594</ele>
        <time>2022-10-29T16:55:39.000Z</time>
      </trkpt>
      <trkpt lat="47.1864" lon="3.93215">
        <ele>514.20001220703</ele>
        <time>2022-10-29T16:55:41.000Z</time>
      </trkpt>
      <trkpt lat="47.18642" lon="3.932">
        <ele>513.40002441406</ele>
        <time>2022-10-29T16:55:42.000Z</time>
      </trkpt>
      <trkpt lat="47.18644" lon="3.93188">
        <ele>512.20001220703</ele>
        <time>2022-10-29T16:55:43.000Z</time>
      </trkpt>
      <trkpt lat="47.18646" lon="3.93174">
        <ele>511.20001220703</ele>
        <time>2022-10-29T16:55:44.000Z</time>
      </trkpt>
      <trkpt lat="47.18653" lon="3.93128">
        <ele>510</ele>
        <time>2022-10-29T16:55:47.000Z</time>
      </trkpt>
      <trkpt lat="47.18659" lon="3.93103">
        <ele>509</ele>
        <time>2022-10-29T16:55:49.000Z</time>
      </trkpt>
      <trkpt lat="47.18663" lon="3.93091">
        <ele>508.20001220703</ele>
        <time>2022-10-29T16:55:50.000Z</time>
      </trkpt>
      <trkpt lat="47.18668" lon="3.93079">
        <ele>507.60000610352</ele>
        <time>2022-10-29T16:55:51.000Z</time>
      </trkpt>
      <trkpt lat="47.18674" lon="3.93068">
        <ele>507.39999389648</ele>
        <time>2022-10-29T16:55:52.000Z</time>
      </trkpt>
      <trkpt lat="47.18682" lon="3.93056">
        <ele>506.60000610352</ele>
        <time>2022-10-29T16:55:53.000Z</time>
      </trkpt>
      <trkpt lat="47.1869" lon="3.93041">
        <ele>505.20001220703</ele>
        <time>2022-10-29T16:55:55.000Z</time>
      </trkpt>
      <trkpt lat="47.18693" lon="3.93032">
        <ele>504.79998779297</ele>
        <time>2022-10-29T16:55:56.000Z</time>
      </trkpt>
      <trkpt lat="47.18694" lon="3.93022">
        <ele>504.20001220703</ele>
        <time>2022-10-29T16:55:57.000Z</time>
      </trkpt>
      <trkpt lat="47.18693" lon="3.93012">
        <ele>503.79998779297</ele>
        <time>2022-10-29T16:55:58.000Z</time>
      </trkpt>
      <trkpt lat="47.1869" lon="3.93002">
        <ele>503.60000610352</ele>
        <time>2022-10-29T16:55:59.000Z</time>
      </trkpt>
      <trkpt lat="47.18684" lon="3.92994">
        <ele>502.60000610352</ele>
        <time>2022-10-29T16:56:00.000Z</time>
      </trkpt>
      <trkpt lat="47.18676" lon="3.9299">
        <ele>502</ele>
        <time>2022-10-29T16:56:01.000Z</time>
      </trkpt>
      <trkpt lat="47.18667" lon="3.9299">
        <ele>501.39999389648</ele>
        <time>2022-10-29T16:56:02.000Z</time>
      </trkpt>
      <trkpt lat="47.18659" lon="3.92994">
        <ele>501</ele>
        <time>2022-10-29T16:56:03.000Z</time>
      </trkpt>
      <trkpt lat="47.18651" lon="3.93">
        <ele>500.79998779297</ele>
        <time>2022-10-29T16:56:04.000Z</time>
      </trkpt>
      <trkpt lat="47.18644" lon="3.93007">
        <ele>500.20001220703</ele>
        <time>2022-10-29T16:56:05.000Z</time>
      </trkpt>
      <trkpt lat="47.1863" lon="3.93022">
        <ele>499</ele>
        <time>2022-10-29T16:56:07.000Z</time>
      </trkpt>
      <trkpt lat="47.18616" lon="3.93038">
        <ele>497.79998779297</ele>
        <time>2022-10-29T16:56:09.000Z</time>
      </trkpt>
      <trkpt lat="47.18602" lon="3.93055">
        <ele>496.60000610352</ele>
        <time>2022-10-29T16:56:11.000Z</time>
      </trkpt>
      <trkpt lat="47.18588" lon="3.93072">
        <ele>495.79998779297</ele>
        <time>2022-10-29T16:56:13.000Z</time>
      </trkpt>
      <trkpt lat="47.1858" lon="3.9308">
        <ele>495.20001220703</ele>
        <time>2022-10-29T16:56:14.000Z</time>
      </trkpt>
      <trkpt lat="47.18549" lon="3.93114">
        <ele>494.20001220703</ele>
        <time>2022-10-29T16:56:18.000Z</time>
      </trkpt>
      <trkpt lat="47.18541" lon="3.93121">
        <ele>494</ele>
        <time>2022-10-29T16:56:19.000Z</time>
      </trkpt>
      <trkpt lat="47.18532" lon="3.93127">
        <ele>493.79998779297</ele>
        <time>2022-10-29T16:56:20.000Z</time>
      </trkpt>
      <trkpt lat="47.18513" lon="3.93136">
        <ele>492.79998779297</ele>
        <time>2022-10-29T16:56:22.000Z</time>
      </trkpt>
      <trkpt lat="47.18494" lon="3.93141">
        <ele>491</ele>
        <time>2022-10-29T16:56:24.000Z</time>
      </trkpt>
      <trkpt lat="47.18474" lon="3.93144">
        <ele>489.60000610352</ele>
        <time>2022-10-29T16:56:26.000Z</time>
      </trkpt>
      <trkpt lat="47.18444" lon="3.93145">
        <ele>488</ele>
        <time>2022-10-29T16:56:29.000Z</time>
      </trkpt>
      <trkpt lat="47.18434" lon="3.93145">
        <ele>487.60000610352</ele>
        <time>2022-10-29T16:56:30.000Z</time>
      </trkpt>
      <trkpt lat="47.18424" lon="3.93145">
        <ele>486.39999389648</ele>
        <time>2022-10-29T16:56:31.000Z</time>
      </trkpt>
      <trkpt lat="47.18403" lon="3.93145">
        <ele>485.20001220703</ele>
        <time>2022-10-29T16:56:33.000Z</time>
      </trkpt>
      <trkpt lat="47.18382" lon="3.93145">
        <ele>484</ele>
        <time>2022-10-29T16:56:35.000Z</time>
      </trkpt>
      <trkpt lat="47.18361" lon="3.93147">
        <ele>483</ele>
        <time>2022-10-29T16:56:37.000Z</time>
      </trkpt>
      <trkpt lat="47.18351" lon="3.93148">
        <ele>482</ele>
        <time>2022-10-29T16:56:38.000Z</time>
      </trkpt>
      <trkpt lat="47.18341" lon="3.93151">
        <ele>481.60000610352</ele>
        <time>2022-10-29T16:56:39.000Z</time>
      </trkpt>
      <trkpt lat="47.18331" lon="3.93156">
        <ele>481</ele>
        <time>2022-10-29T16:56:40.000Z</time>
      </trkpt>
      <trkpt lat="47.18322" lon="3.93161">
        <ele>480.60000610352</ele>
        <time>2022-10-29T16:56:41.000Z</time>
      </trkpt>
      <trkpt lat="47.18314" lon="3.93168">
        <ele>480.20001220703</ele>
        <time>2022-10-29T16:56:42.000Z</time>
      </trkpt>
      <trkpt lat="47.18291" lon="3.93187">
        <ele>478.79998779297</ele>
        <time>2022-10-29T16:56:45.000Z</time>
      </trkpt>
      <trkpt lat="47.18283" lon="3.93194">
        <ele>478.39999389648</ele>
        <time>2022-10-29T16:56:46.000Z</time>
      </trkpt>
      <trkpt lat="47.18269" lon="3.93206">
        <ele>477.79998779297</ele>
        <time>2022-10-29T16:56:48.000Z</time>
      </trkpt>
      <trkpt lat="47.18262" lon="3.93214">
        <ele>477.60000610352</ele>
        <time>2022-10-29T16:56:49.000Z</time>
      </trkpt>
      <trkpt lat="47.1825" lon="3.9323">
        <ele>477.39999389648</ele>
        <time>2022-10-29T16:56:51.000Z</time>
      </trkpt>
      <trkpt lat="47.18229" lon="3.93273">
        <ele>476.60000610352</ele>
        <time>2022-10-29T16:56:55.000Z</time>
      </trkpt>
      <trkpt lat="47.18224" lon="3.93285">
        <ele>476.39999389648</ele>
        <time>2022-10-29T16:56:56.000Z</time>
      </trkpt>
      <trkpt lat="47.18209" lon="3.93322">
        <ele>475</ele>
        <time>2022-10-29T16:56:59.000Z</time>
      </trkpt>
      <trkpt lat="47.18194" lon="3.93361">
        <ele>473.60000610352</ele>
        <time>2022-10-29T16:57:02.000Z</time>
      </trkpt>
      <trkpt lat="47.18183" lon="3.93387">
        <ele>472.60000610352</ele>
        <time>2022-10-29T16:57:04.000Z</time>
      </trkpt>
      <trkpt lat="47.18178" lon="3.934">
        <ele>472.20001220703</ele>
        <time>2022-10-29T16:57:05.000Z</time>
      </trkpt>
      <trkpt lat="47.18167" lon="3.93427">
        <ele>471</ele>
        <time>2022-10-29T16:57:07.000Z</time>
      </trkpt>
      <trkpt lat="47.18151" lon="3.93466">
        <ele>469.79998779297</ele>
        <time>2022-10-29T16:57:10.000Z</time>
      </trkpt>
      <trkpt lat="47.18144" lon="3.93476">
        <ele>469.39999389648</ele>
        <time>2022-10-29T16:57:11.000Z</time>
      </trkpt>
      <trkpt lat="47.18137" lon="3.93485">
        <ele>468.39999389648</ele>
        <time>2022-10-29T16:57:12.000Z</time>
      </trkpt>
      <trkpt lat="47.18122" lon="3.93497">
        <ele>467.39999389648</ele>
        <time>2022-10-29T16:57:14.000Z</time>
      </trkpt>
      <trkpt lat="47.18104" lon="3.93505">
        <ele>466.20001220703</ele>
        <time>2022-10-29T16:57:16.000Z</time>
      </trkpt>
      <trkpt lat="47.18095" lon="3.93506">
        <ele>466</ele>
        <time>2022-10-29T16:57:17.000Z</time>
      </trkpt>
      <trkpt lat="47.18087" lon="3.93502">
        <ele>464.79998779297</ele>
        <time>2022-10-29T16:57:18.000Z</time>
      </trkpt>
      <trkpt lat="47.18079" lon="3.93495">
        <ele>463.79998779297</ele>
        <time>2022-10-29T16:57:19.000Z</time>
      </trkpt>
      <trkpt lat="47.18064" lon="3.93476">
        <ele>462.79998779297</ele>
        <time>2022-10-29T16:57:21.000Z</time>
      </trkpt>
      <trkpt lat="47.18049" lon="3.93459">
        <ele>461.60000610352</ele>
        <time>2022-10-29T16:57:23.000Z</time>
      </trkpt>
      <trkpt lat="47.18035" lon="3.93442">
        <ele>461.20001220703</ele>
        <time>2022-10-29T16:57:25.000Z</time>
      </trkpt>
      <trkpt lat="47.18029" lon="3.93434">
        <ele>460.20001220703</ele>
        <time>2022-10-29T16:57:26.000Z</time>
      </trkpt>
      <trkpt lat="47.18016" lon="3.93421">
        <ele>459.20001220703</ele>
        <time>2022-10-29T16:57:28.000Z</time>
      </trkpt>
      <trkpt lat="47.18008" lon="3.93414">
        <ele>459</ele>
        <time>2022-10-29T16:57:29.000Z</time>
      </trkpt>
      <trkpt lat="47.18001" lon="3.93408">
        <ele>457.79998779297</ele>
        <time>2022-10-29T16:57:30.000Z</time>
      </trkpt>
      <trkpt lat="47.17986" lon="3.93397">
        <ele>456.39999389648</ele>
        <time>2022-10-29T16:57:32.000Z</time>
      </trkpt>
      <trkpt lat="47.17968" lon="3.93389">
        <ele>455.20001220703</ele>
        <time>2022-10-29T16:57:34.000Z</time>
      </trkpt>
      <trkpt lat="47.17959" lon="3.93386">
        <ele>454.60000610352</ele>
        <time>2022-10-29T16:57:35.000Z</time>
      </trkpt>
      <trkpt lat="47.1794" lon="3.9338">
        <ele>453.79998779297</ele>
        <time>2022-10-29T16:57:37.000Z</time>
      </trkpt>
      <trkpt lat="47.1791" lon="3.93373">
        <ele>452</ele>
        <time>2022-10-29T16:57:40.000Z</time>
      </trkpt>
      <trkpt lat="47.17883" lon="3.93372">
        <ele>450.39999389648</ele>
        <time>2022-10-29T16:57:43.000Z</time>
      </trkpt>
      <trkpt lat="47.17857" lon="3.93368">
        <ele>449.20001220703</ele>
        <time>2022-10-29T16:57:46.000Z</time>
      </trkpt>
      <trkpt lat="47.17848" lon="3.93365">
        <ele>448.20001220703</ele>
        <time>2022-10-29T16:57:47.000Z</time>
      </trkpt>
      <trkpt lat="47.17831" lon="3.93357">
        <ele>447</ele>
        <time>2022-10-29T16:57:49.000Z</time>
      </trkpt>
      <trkpt lat="47.17823" lon="3.9335">
        <ele>446.79998779297</ele>
        <time>2022-10-29T16:57:50.000Z</time>
      </trkpt>
      <trkpt lat="47.17815" lon="3.93342">
        <ele>446.39999389648</ele>
        <time>2022-10-29T16:57:51.000Z</time>
      </trkpt>
      <trkpt lat="47.17808" lon="3.93333">
        <ele>445.79998779297</ele>
        <time>2022-10-29T16:57:52.000Z</time>
      </trkpt>
      <trkpt lat="47.17794" lon="3.93314">
        <ele>443.79998779297</ele>
        <time>2022-10-29T16:57:54.000Z</time>
      </trkpt>
      <trkpt lat="47.17787" lon="3.93305">
        <ele>443.20001220703</ele>
        <time>2022-10-29T16:57:55.000Z</time>
      </trkpt>
      <trkpt lat="47.17773" lon="3.93285">
        <ele>442.20001220703</ele>
        <time>2022-10-29T16:57:57.000Z</time>
      </trkpt>
      <trkpt lat="47.17751" lon="3.93255">
        <ele>441</ele>
        <time>2022-10-29T16:58:00.000Z</time>
      </trkpt>
      <trkpt lat="47.17736" lon="3.93234">
        <ele>440</ele>
        <time>2022-10-29T16:58:02.000Z</time>
      </trkpt>
      <trkpt lat="47.17729" lon="3.93224">
        <ele>439.39999389648</ele>
        <time>2022-10-29T16:58:03.000Z</time>
      </trkpt>
      <trkpt lat="47.17722" lon="3.93213">
        <ele>438.60000610352</ele>
        <time>2022-10-29T16:58:04.000Z</time>
      </trkpt>
      <trkpt lat="47.17708" lon="3.9319">
        <ele>437.39999389648</ele>
        <time>2022-10-29T16:58:06.000Z</time>
      </trkpt>
      <trkpt lat="47.17696" lon="3.93166">
        <ele>436.20001220703</ele>
        <time>2022-10-29T16:58:08.000Z</time>
      </trkpt>
      <trkpt lat="47.17685" lon="3.93139">
        <ele>435.20001220703</ele>
        <time>2022-10-29T16:58:10.000Z</time>
      </trkpt>
      <trkpt lat="47.17677" lon="3.93111">
        <ele>434.20001220703</ele>
        <time>2022-10-29T16:58:12.000Z</time>
      </trkpt>
      <trkpt lat="47.17674" lon="3.93097">
        <ele>433.20001220703</ele>
        <time>2022-10-29T16:58:13.000Z</time>
      </trkpt>
      <trkpt lat="47.1767" lon="3.93072">
        <ele>432</ele>
        <time>2022-10-29T16:58:15.000Z</time>
      </trkpt>
      <trkpt lat="47.1767" lon="3.9306">
        <ele>431</ele>
        <time>2022-10-29T16:58:16.000Z</time>
      </trkpt>
      <trkpt lat="47.17673" lon="3.93038">
        <ele>430.20001220703</ele>
        <time>2022-10-29T16:58:18.000Z</time>
      </trkpt>
      <trkpt lat="47.17677" lon="3.93028">
        <ele>430</ele>
        <time>2022-10-29T16:58:19.000Z</time>
      </trkpt>
      <trkpt lat="47.17688" lon="3.93012">
        <ele>428.39999389648</ele>
        <time>2022-10-29T16:58:21.000Z</time>
      </trkpt>
      <trkpt lat="47.17697" lon="3.92996">
        <ele>427.60000610352</ele>
        <time>2022-10-29T16:58:23.000Z</time>
      </trkpt>
      <trkpt lat="47.17701" lon="3.92988">
        <ele>427</ele>
        <time>2022-10-29T16:58:24.000Z</time>
      </trkpt>
      <trkpt lat="47.17703" lon="3.92981">
        <ele>426.20001220703</ele>
        <time>2022-10-29T16:58:25.000Z</time>
      </trkpt>
      <trkpt lat="47.17702" lon="3.92967">
        <ele>425</ele>
        <time>2022-10-29T16:58:27.000Z</time>
      </trkpt>
      <trkpt lat="47.17696" lon="3.92954">
        <ele>423.79998779297</ele>
        <time>2022-10-29T16:58:29.000Z</time>
      </trkpt>
      <trkpt lat="47.17691" lon="3.92951">
        <ele>423.39999389648</ele>
        <time>2022-10-29T16:58:30.000Z</time>
      </trkpt>
      <trkpt lat="47.17685" lon="3.92949">
        <ele>423.20001220703</ele>
        <time>2022-10-29T16:58:31.000Z</time>
      </trkpt>
      <trkpt lat="47.17671" lon="3.92944">
        <ele>422.60000610352</ele>
        <time>2022-10-29T16:58:33.000Z</time>
      </trkpt>
      <trkpt lat="47.17643" lon="3.92935">
        <ele>421.20001220703</ele>
        <time>2022-10-29T16:58:37.000Z</time>
      </trkpt>
      <trkpt lat="47.17637" lon="3.92934">
        <ele>421.20001220703</ele>
        <time>2022-10-29T16:58:38.000Z</time>
      </trkpt>
      <trkpt lat="47.17632" lon="3.92932">
        <ele>420.39999389648</ele>
        <time>2022-10-29T16:58:39.000Z</time>
      </trkpt>
      <trkpt lat="47.17625" lon="3.92929">
        <ele>419.79998779297</ele>
        <time>2022-10-29T16:58:40.000Z</time>
      </trkpt>
      <trkpt lat="47.17605" lon="3.92919">
        <ele>418.60000610352</ele>
        <time>2022-10-29T16:58:43.000Z</time>
      </trkpt>
      <trkpt lat="47.17592" lon="3.92909">
        <ele>417.79998779297</ele>
        <time>2022-10-29T16:58:45.000Z</time>
      </trkpt>
      <trkpt lat="47.17586" lon="3.92902">
        <ele>417.39999389648</ele>
        <time>2022-10-29T16:58:46.000Z</time>
      </trkpt>
      <trkpt lat="47.17582" lon="3.92893">
        <ele>417</ele>
        <time>2022-10-29T16:58:47.000Z</time>
      </trkpt>
      <trkpt lat="47.17579" lon="3.92884">
        <ele>416.79998779297</ele>
        <time>2022-10-29T16:58:48.000Z</time>
      </trkpt>
      <trkpt lat="47.17577" lon="3.92874">
        <ele>416.39999389648</ele>
        <time>2022-10-29T16:58:49.000Z</time>
      </trkpt>
      <trkpt lat="47.17576" lon="3.92852">
        <ele>415.39999389648</ele>
        <time>2022-10-29T16:58:51.000Z</time>
      </trkpt>
      <trkpt lat="47.17579" lon="3.92829">
        <ele>414.60000610352</ele>
        <time>2022-10-29T16:58:53.000Z</time>
      </trkpt>
      <trkpt lat="47.17584" lon="3.92794">
        <ele>413.20001220703</ele>
        <time>2022-10-29T16:58:56.000Z</time>
      </trkpt>
      <trkpt lat="47.17587" lon="3.92771">
        <ele>412.39999389648</ele>
        <time>2022-10-29T16:58:58.000Z</time>
      </trkpt>
      <trkpt lat="47.17587" lon="3.9276">
        <ele>412</ele>
        <time>2022-10-29T16:58:59.000Z</time>
      </trkpt>
      <trkpt lat="47.17586" lon="3.92738">
        <ele>410.79998779297</ele>
        <time>2022-10-29T16:59:01.000Z</time>
      </trkpt>
      <trkpt lat="47.17585" lon="3.92726">
        <ele>410.60000610352</ele>
        <time>2022-10-29T16:59:02.000Z</time>
      </trkpt>
      <trkpt lat="47.17579" lon="3.92704">
        <ele>409.60000610352</ele>
        <time>2022-10-29T16:59:04.000Z</time>
      </trkpt>
      <trkpt lat="47.1757" lon="3.92682">
        <ele>408</ele>
        <time>2022-10-29T16:59:06.000Z</time>
      </trkpt>
      <trkpt lat="47.17565" lon="3.92672">
        <ele>407.79998779297</ele>
        <time>2022-10-29T16:59:07.000Z</time>
      </trkpt>
      <trkpt lat="47.17546" lon="3.92642">
        <ele>406.79998779297</ele>
        <time>2022-10-29T16:59:10.000Z</time>
      </trkpt>
      <trkpt lat="47.17525" lon="3.92616">
        <ele>405.39999389648</ele>
        <time>2022-10-29T16:59:13.000Z</time>
      </trkpt>
      <trkpt lat="47.17511" lon="3.92599">
        <ele>404.60000610352</ele>
        <time>2022-10-29T16:59:15.000Z</time>
      </trkpt>
      <trkpt lat="47.17497" lon="3.92582">
        <ele>403.79998779297</ele>
        <time>2022-10-29T16:59:17.000Z</time>
      </trkpt>
      <trkpt lat="47.17491" lon="3.92573">
        <ele>403</ele>
        <time>2022-10-29T16:59:18.000Z</time>
      </trkpt>
      <trkpt lat="47.17486" lon="3.92562">
        <ele>402.60000610352</ele>
        <time>2022-10-29T16:59:19.000Z</time>
      </trkpt>
      <trkpt lat="47.17478" lon="3.92536">
        <ele>401.79998779297</ele>
        <time>2022-10-29T16:59:21.000Z</time>
      </trkpt>
      <trkpt lat="47.17475" lon="3.92522">
        <ele>401.39999389648</ele>
        <time>2022-10-29T16:59:22.000Z</time>
      </trkpt>
      <trkpt lat="47.1747" lon="3.92482">
        <ele>399.60000610352</ele>
        <time>2022-10-29T16:59:25.000Z</time>
      </trkpt>
      <trkpt lat="47.17467" lon="3.92456">
        <ele>398.39999389648</ele>
        <time>2022-10-29T16:59:27.000Z</time>
      </trkpt>
      <trkpt lat="47.17463" lon="3.92431">
        <ele>397.39999389648</ele>
        <time>2022-10-29T16:59:29.000Z</time>
      </trkpt>
      <trkpt lat="47.17456" lon="3.92383">
        <ele>396.39999389648</ele>
        <time>2022-10-29T16:59:33.000Z</time>
      </trkpt>
      <trkpt lat="47.17452" lon="3.92373">
        <ele>396.20001220703</ele>
        <time>2022-10-29T16:59:34.000Z</time>
      </trkpt>
      <trkpt lat="47.17448" lon="3.92364">
        <ele>396.20001220703</ele>
        <time>2022-10-29T16:59:35.000Z</time>
      </trkpt>
      <trkpt lat="47.17444" lon="3.92358">
        <ele>395.79998779297</ele>
        <time>2022-10-29T16:59:36.000Z</time>
      </trkpt>
      <trkpt lat="47.1744" lon="3.92353">
        <ele>395.20001220703</ele>
        <time>2022-10-29T16:59:37.000Z</time>
      </trkpt>
      <trkpt lat="47.17434" lon="3.92346">
        <ele>394</ele>
        <time>2022-10-29T16:59:39.000Z</time>
      </trkpt>
      <trkpt lat="47.17426" lon="3.9234">
        <ele>392.39999389648</ele>
        <time>2022-10-29T16:59:42.000Z</time>
      </trkpt>
      <trkpt lat="47.17424" lon="3.92338">
        <ele>392.20001220703</ele>
        <time>2022-10-29T16:59:43.000Z</time>
      </trkpt>
      <trkpt lat="47.17424" lon="3.92335">
        <ele>391.79998779297</ele>
        <time>2022-10-29T16:59:44.000Z</time>
      </trkpt>
      <trkpt lat="47.17424" lon="3.92334">
        <ele>391.39999389648</ele>
        <time>2022-10-29T16:59:46.000Z</time>
      </trkpt>
      <trkpt lat="47.17424" lon="3.92334">
        <ele>390.79998779297</ele>
        <time>2022-10-29T16:59:48.000Z</time>
      </trkpt>
      <trkpt lat="47.17424" lon="3.92334">
        <ele>390.20001220703</ele>
        <time>2022-10-29T16:59:54.000Z</time>
      </trkpt>
      <trkpt lat="47.17424" lon="3.92334">
        <ele>390.20001220703</ele>
        <time>2022-10-29T17:00:00.000Z</time>
      </trkpt>
      <trkpt lat="47.17425" lon="3.92333">
        <ele>390</ele>
        <time>2022-10-29T17:01:56.000Z</time>
      </trkpt>
      <trkpt lat="47.17425" lon="3.92333">
        <ele>389.39999389648</ele>
        <time>2022-10-29T17:03:35.000Z</time>
      </trkpt>
      <trkpt lat="47.17425" lon="3.92333">
        <ele>390</ele>
        <time>2022-10-29T17:09:18.000Z</time>
      </trkpt>
      <trkpt lat="47.17425" lon="3.92333">
        <ele>389.79998779297</ele>
        <time>2022-10-29T17:09:30.000Z</time>
      </trkpt>
      <trkpt lat="47.17425" lon="3.92333">
        <ele>389.60000610352</ele>
        <time>2022-10-29T17:12:08.000Z</time>
      </trkpt>
      <trkpt lat="47.17425" lon="3.92333">
        <ele>389.79998779297</ele>
        <time>2022-10-29T17:12:37.000Z</time>
      </trkpt>
      <trkpt lat="47.17425" lon="3.92333">
        <ele>389.60000610352</ele>
        <time>2022-10-29T17:14:02.000Z</time>
      </trkpt>
      <trkpt lat="47.17423" lon="3.92334">
        <ele>389.60000610352</ele>
        <time>2022-10-29T17:16:11.000Z</time>
      </trkpt>
      <trkpt lat="47.17419" lon="3.92332">
        <ele>389.60000610352</ele>
        <time>2022-10-29T17:16:13.000Z</time>
      </trkpt>
      <trkpt lat="47.17404" lon="3.92321">
        <ele>389.39999389648</ele>
        <time>2022-10-29T17:16:17.000Z</time>
      </trkpt>
      <trkpt lat="47.174" lon="3.92318">
        <ele>389.39999389648</ele>
        <time>2022-10-29T17:16:18.000Z</time>
      </trkpt>
      <trkpt lat="47.17381" lon="3.92299">
        <ele>389.20001220703</ele>
        <time>2022-10-29T17:16:22.000Z</time>
      </trkpt>
      <trkpt lat="47.17362" lon="3.92278">
        <ele>388.39999389648</ele>
        <time>2022-10-29T17:16:26.000Z</time>
      </trkpt>
      <trkpt lat="47.17349" lon="3.92262">
        <ele>388</ele>
        <time>2022-10-29T17:16:29.000Z</time>
      </trkpt>
      <trkpt lat="47.1733" lon="3.92244">
        <ele>387.39999389648</ele>
        <time>2022-10-29T17:16:33.000Z</time>
      </trkpt>
      <trkpt lat="47.17324" lon="3.92241">
        <ele>387</ele>
        <time>2022-10-29T17:16:34.000Z</time>
      </trkpt>
      <trkpt lat="47.17319" lon="3.92238">
        <ele>386.79998779297</ele>
        <time>2022-10-29T17:16:35.000Z</time>
      </trkpt>
      <trkpt lat="47.17304" lon="3.92233">
        <ele>386.20001220703</ele>
        <time>2022-10-29T17:16:38.000Z</time>
      </trkpt>
      <trkpt lat="47.17288" lon="3.92228">
        <ele>385.79998779297</ele>
        <time>2022-10-29T17:16:41.000Z</time>
      </trkpt>
      <trkpt lat="47.17276" lon="3.92226">
        <ele>385.20001220703</ele>
        <time>2022-10-29T17:16:43.000Z</time>
      </trkpt>
      <trkpt lat="47.17263" lon="3.92226">
        <ele>384.60000610352</ele>
        <time>2022-10-29T17:16:45.000Z</time>
      </trkpt>
      <trkpt lat="47.17258" lon="3.92228">
        <ele>384.20001220703</ele>
        <time>2022-10-29T17:16:46.000Z</time>
      </trkpt>
      <trkpt lat="47.17251" lon="3.92231">
        <ele>384.20001220703</ele>
        <time>2022-10-29T17:16:47.000Z</time>
      </trkpt>
      <trkpt lat="47.17244" lon="3.92236">
        <ele>383.79998779297</ele>
        <time>2022-10-29T17:16:48.000Z</time>
      </trkpt>
      <trkpt lat="47.17238" lon="3.92241">
        <ele>383.79998779297</ele>
        <time>2022-10-29T17:16:49.000Z</time>
      </trkpt>
      <trkpt lat="47.17232" lon="3.92247">
        <ele>383.39999389648</ele>
        <time>2022-10-29T17:16:50.000Z</time>
      </trkpt>
      <trkpt lat="47.17216" lon="3.92267">
        <ele>382.79998779297</ele>
        <time>2022-10-29T17:16:53.000Z</time>
      </trkpt>
      <trkpt lat="47.17204" lon="3.9228">
        <ele>382.20001220703</ele>
        <time>2022-10-29T17:16:55.000Z</time>
      </trkpt>
      <trkpt lat="47.17187" lon="3.92291">
        <ele>381.60000610352</ele>
        <time>2022-10-29T17:16:58.000Z</time>
      </trkpt>
      <trkpt lat="47.17181" lon="3.92292">
        <ele>381.60000610352</ele>
        <time>2022-10-29T17:16:59.000Z</time>
      </trkpt>
      <trkpt lat="47.17176" lon="3.92291">
        <ele>381</ele>
        <time>2022-10-29T17:17:00.000Z</time>
      </trkpt>
      <trkpt lat="47.17167" lon="3.92284">
        <ele>380.39999389648</ele>
        <time>2022-10-29T17:17:02.000Z</time>
      </trkpt>
      <trkpt lat="47.17157" lon="3.92269">
        <ele>380.20001220703</ele>
        <time>2022-10-29T17:17:04.000Z</time>
      </trkpt>
      <trkpt lat="47.17155" lon="3.92262">
        <ele>380</ele>
        <time>2022-10-29T17:17:05.000Z</time>
      </trkpt>
      <trkpt lat="47.17153" lon="3.92253">
        <ele>380</ele>
        <time>2022-10-29T17:17:06.000Z</time>
      </trkpt>
      <trkpt lat="47.17149" lon="3.92226">
        <ele>379.79998779297</ele>
        <time>2022-10-29T17:17:09.000Z</time>
      </trkpt>
      <trkpt lat="47.17143" lon="3.92203">
        <ele>379.79998779297</ele>
        <time>2022-10-29T17:17:12.000Z</time>
      </trkpt>
      <trkpt lat="47.17137" lon="3.92189">
        <ele>379.79998779297</ele>
        <time>2022-10-29T17:17:14.000Z</time>
      </trkpt>
      <trkpt lat="47.17117" lon="3.92164">
        <ele>380.20001220703</ele>
        <time>2022-10-29T17:17:19.000Z</time>
      </trkpt>
      <trkpt lat="47.17089" lon="3.92136">
        <ele>380.79998779297</ele>
        <time>2022-10-29T17:17:25.000Z</time>
      </trkpt>
      <trkpt lat="47.17077" lon="3.9211">
        <ele>381.60000610352</ele>
        <time>2022-10-29T17:17:30.000Z</time>
      </trkpt>
      <trkpt lat="47.17074" lon="3.92098">
        <ele>382</ele>
        <time>2022-10-29T17:17:32.000Z</time>
      </trkpt>
      <trkpt lat="47.1707" lon="3.92089">
        <ele>382.79998779297</ele>
        <time>2022-10-29T17:17:34.000Z</time>
      </trkpt>
      <trkpt lat="47.17069" lon="3.92083">
        <ele>382.79998779297</ele>
        <time>2022-10-29T17:17:35.000Z</time>
      </trkpt>
      <trkpt lat="47.17064" lon="3.92066">
        <ele>383.79998779297</ele>
        <time>2022-10-29T17:17:38.000Z</time>
      </trkpt>
      <trkpt lat="47.17055" lon="3.92044">
        <ele>384.79998779297</ele>
        <time>2022-10-29T17:17:43.000Z</time>
      </trkpt>
      <trkpt lat="47.17051" lon="3.92039">
        <ele>384.79998779297</ele>
        <time>2022-10-29T17:17:44.000Z</time>
      </trkpt>
      <trkpt lat="47.17039" lon="3.92028">
        <ele>385.20001220703</ele>
        <time>2022-10-29T17:17:48.000Z</time>
      </trkpt>
      <trkpt lat="47.1702" lon="3.92012">
        <ele>385.20001220703</ele>
        <time>2022-10-29T17:17:53.000Z</time>
      </trkpt>
      <trkpt lat="47.17012" lon="3.92007">
        <ele>385.20001220703</ele>
        <time>2022-10-29T17:17:55.000Z</time>
      </trkpt>
      <trkpt lat="47.16977" lon="3.91988">
        <ele>384.79998779297</ele>
        <time>2022-10-29T17:18:03.000Z</time>
      </trkpt>
      <trkpt lat="47.1697" lon="3.91981">
        <ele>384.60000610352</ele>
        <time>2022-10-29T17:18:05.000Z</time>
      </trkpt>
      <trkpt lat="47.16957" lon="3.91963">
        <ele>384.39999389648</ele>
        <time>2022-10-29T17:18:08.000Z</time>
      </trkpt>
      <trkpt lat="47.16947" lon="3.91936">
        <ele>383.79998779297</ele>
        <time>2022-10-29T17:18:12.000Z</time>
      </trkpt>
      <trkpt lat="47.16945" lon="3.91928">
        <ele>383.79998779297</ele>
        <time>2022-10-29T17:18:13.000Z</time>
      </trkpt>
      <trkpt lat="47.16944" lon="3.91921">
        <ele>383.79998779297</ele>
        <time>2022-10-29T17:18:14.000Z</time>
      </trkpt>
      <trkpt lat="47.16933" lon="3.91866">
        <ele>383.79998779297</ele>
        <time>2022-10-29T17:18:22.000Z</time>
      </trkpt>
      <trkpt lat="47.16928" lon="3.91853">
        <ele>383.79998779297</ele>
        <time>2022-10-29T17:18:24.000Z</time>
      </trkpt>
      <trkpt lat="47.16915" lon="3.91829">
        <ele>384.39999389648</ele>
        <time>2022-10-29T17:18:28.000Z</time>
      </trkpt>
      <trkpt lat="47.16893" lon="3.91801">
        <ele>384.60000610352</ele>
        <time>2022-10-29T17:18:34.000Z</time>
      </trkpt>
      <trkpt lat="47.16882" lon="3.91788">
        <ele>384.60000610352</ele>
        <time>2022-10-29T17:18:37.000Z</time>
      </trkpt>
      <trkpt lat="47.1688" lon="3.91784">
        <ele>384.60000610352</ele>
        <time>2022-10-29T17:18:38.000Z</time>
      </trkpt>
      <trkpt lat="47.16876" lon="3.9178">
        <ele>384.60000610352</ele>
        <time>2022-10-29T17:18:39.000Z</time>
      </trkpt>
      <trkpt lat="47.16866" lon="3.91764">
        <ele>384.39999389648</ele>
        <time>2022-10-29T17:18:42.000Z</time>
      </trkpt>
      <trkpt lat="47.16856" lon="3.91747">
        <ele>384.39999389648</ele>
        <time>2022-10-29T17:18:45.000Z</time>
      </trkpt>
      <trkpt lat="47.16828" lon="3.91698">
        <ele>384.20001220703</ele>
        <time>2022-10-29T17:18:53.000Z</time>
      </trkpt>
      <trkpt lat="47.16794" lon="3.91643">
        <ele>383.39999389648</ele>
        <time>2022-10-29T17:19:01.000Z</time>
      </trkpt>
      <trkpt lat="47.16781" lon="3.91621">
        <ele>383</ele>
        <time>2022-10-29T17:19:04.000Z</time>
      </trkpt>
      <trkpt lat="47.16766" lon="3.91588">
        <ele>382.60000610352</ele>
        <time>2022-10-29T17:19:09.000Z</time>
      </trkpt>
      <trkpt lat="47.16754" lon="3.91543">
        <ele>382.79998779297</ele>
        <time>2022-10-29T17:19:16.000Z</time>
      </trkpt>
      <trkpt lat="47.16749" lon="3.91494">
        <ele>383.60000610352</ele>
        <time>2022-10-29T17:19:23.000Z</time>
      </trkpt>
      <trkpt lat="47.16746" lon="3.91472">
        <ele>383.79998779297</ele>
        <time>2022-10-29T17:19:26.000Z</time>
      </trkpt>
      <trkpt lat="47.16742" lon="3.9146">
        <ele>383.79998779297</ele>
        <time>2022-10-29T17:19:28.000Z</time>
      </trkpt>
      <trkpt lat="47.1674" lon="3.91455">
        <ele>383.79998779297</ele>
        <time>2022-10-29T17:19:29.000Z</time>
      </trkpt>
      <trkpt lat="47.16734" lon="3.91444">
        <ele>383.79998779297</ele>
        <time>2022-10-29T17:19:31.000Z</time>
      </trkpt>
      <trkpt lat="47.1672" lon="3.91426">
        <ele>383.79998779297</ele>
        <time>2022-10-29T17:19:35.000Z</time>
      </trkpt>
      <trkpt lat="47.16702" lon="3.91409">
        <ele>383.79998779297</ele>
        <time>2022-10-29T17:19:39.000Z</time>
      </trkpt>
      <trkpt lat="47.16686" lon="3.91399">
        <ele>383.60000610352</ele>
        <time>2022-10-29T17:19:42.000Z</time>
      </trkpt>
      <trkpt lat="47.16669" lon="3.91395">
        <ele>383.39999389648</ele>
        <time>2022-10-29T17:19:45.000Z</time>
      </trkpt>
      <trkpt lat="47.16658" lon="3.91395">
        <ele>383.20001220703</ele>
        <time>2022-10-29T17:19:47.000Z</time>
      </trkpt>
      <trkpt lat="47.16648" lon="3.91392">
        <ele>383</ele>
        <time>2022-10-29T17:19:49.000Z</time>
      </trkpt>
      <trkpt lat="47.16638" lon="3.91383">
        <ele>382.79998779297</ele>
        <time>2022-10-29T17:19:51.000Z</time>
      </trkpt>
      <trkpt lat="47.16632" lon="3.91371">
        <ele>382.60000610352</ele>
        <time>2022-10-29T17:19:53.000Z</time>
      </trkpt>
      <trkpt lat="47.16632" lon="3.91365">
        <ele>382.39999389648</ele>
        <time>2022-10-29T17:19:54.000Z</time>
      </trkpt>
      <trkpt lat="47.16633" lon="3.91358">
        <ele>382.20001220703</ele>
        <time>2022-10-29T17:19:55.000Z</time>
      </trkpt>
      <trkpt lat="47.16638" lon="3.91345">
        <ele>381.79998779297</ele>
        <time>2022-10-29T17:19:57.000Z</time>
      </trkpt>
      <trkpt lat="47.16647" lon="3.91325">
        <ele>380.60000610352</ele>
        <time>2022-10-29T17:20:00.000Z</time>
      </trkpt>
      <trkpt lat="47.16656" lon="3.913">
        <ele>380.20001220703</ele>
        <time>2022-10-29T17:20:03.000Z</time>
      </trkpt>
      <trkpt lat="47.1666" lon="3.9129">
        <ele>380</ele>
        <time>2022-10-29T17:20:04.000Z</time>
      </trkpt>
      <trkpt lat="47.16672" lon="3.9126">
        <ele>379.39999389648</ele>
        <time>2022-10-29T17:20:07.000Z</time>
      </trkpt>
      <trkpt lat="47.16679" lon="3.91241">
        <ele>378.79998779297</ele>
        <time>2022-10-29T17:20:09.000Z</time>
      </trkpt>
      <trkpt lat="47.16687" lon="3.91223">
        <ele>377.39999389648</ele>
        <time>2022-10-29T17:20:11.000Z</time>
      </trkpt>
      <trkpt lat="47.16702" lon="3.91193">
        <ele>376.39999389648</ele>
        <time>2022-10-29T17:20:14.000Z</time>
      </trkpt>
      <trkpt lat="47.16706" lon="3.91186">
        <ele>376.20001220703</ele>
        <time>2022-10-29T17:20:15.000Z</time>
      </trkpt>
      <trkpt lat="47.1672" lon="3.91163">
        <ele>375.20001220703</ele>
        <time>2022-10-29T17:20:18.000Z</time>
      </trkpt>
      <trkpt lat="47.16724" lon="3.91155">
        <ele>374.79998779297</ele>
        <time>2022-10-29T17:20:19.000Z</time>
      </trkpt>
      <trkpt lat="47.16726" lon="3.91145">
        <ele>374.60000610352</ele>
        <time>2022-10-29T17:20:20.000Z</time>
      </trkpt>
      <trkpt lat="47.16726" lon="3.91134">
        <ele>374.20001220703</ele>
        <time>2022-10-29T17:20:21.000Z</time>
      </trkpt>
      <trkpt lat="47.16724" lon="3.91123">
        <ele>373.79998779297</ele>
        <time>2022-10-29T17:20:22.000Z</time>
      </trkpt>
      <trkpt lat="47.16719" lon="3.91109">
        <ele>373</ele>
        <time>2022-10-29T17:20:24.000Z</time>
      </trkpt>
      <trkpt lat="47.16711" lon="3.91097">
        <ele>372.60000610352</ele>
        <time>2022-10-29T17:20:26.000Z</time>
      </trkpt>
      <trkpt lat="47.16705" lon="3.9109">
        <ele>372.20001220703</ele>
        <time>2022-10-29T17:20:27.000Z</time>
      </trkpt>
      <trkpt lat="47.167" lon="3.91085">
        <ele>372</ele>
        <time>2022-10-29T17:20:28.000Z</time>
      </trkpt>
      <trkpt lat="47.16695" lon="3.91082">
        <ele>371.79998779297</ele>
        <time>2022-10-29T17:20:29.000Z</time>
      </trkpt>
      <trkpt lat="47.16689" lon="3.91079">
        <ele>371.39999389648</ele>
        <time>2022-10-29T17:20:30.000Z</time>
      </trkpt>
      <trkpt lat="47.16674" lon="3.91071">
        <ele>371</ele>
        <time>2022-10-29T17:20:32.000Z</time>
      </trkpt>
      <trkpt lat="47.16659" lon="3.91065">
        <ele>370.39999389648</ele>
        <time>2022-10-29T17:20:34.000Z</time>
      </trkpt>
      <trkpt lat="47.16652" lon="3.91063">
        <ele>370</ele>
        <time>2022-10-29T17:20:35.000Z</time>
      </trkpt>
      <trkpt lat="47.16625" lon="3.91058">
        <ele>368.79998779297</ele>
        <time>2022-10-29T17:20:38.000Z</time>
      </trkpt>
      <trkpt lat="47.16618" lon="3.91056">
        <ele>368.60000610352</ele>
        <time>2022-10-29T17:20:39.000Z</time>
      </trkpt>
      <trkpt lat="47.1659" lon="3.91055">
        <ele>367.60000610352</ele>
        <time>2022-10-29T17:20:42.000Z</time>
      </trkpt>
      <trkpt lat="47.16574" lon="3.91055">
        <ele>367.20001220703</ele>
        <time>2022-10-29T17:20:44.000Z</time>
      </trkpt>
      <trkpt lat="47.16563" lon="3.91054">
        <ele>366.79998779297</ele>
        <time>2022-10-29T17:20:45.000Z</time>
      </trkpt>
      <trkpt lat="47.16554" lon="3.91051">
        <ele>366.60000610352</ele>
        <time>2022-10-29T17:20:46.000Z</time>
      </trkpt>
      <trkpt lat="47.16538" lon="3.91046">
        <ele>365.39999389648</ele>
        <time>2022-10-29T17:20:48.000Z</time>
      </trkpt>
      <trkpt lat="47.16529" lon="3.91044">
        <ele>365.20001220703</ele>
        <time>2022-10-29T17:20:49.000Z</time>
      </trkpt>
      <trkpt lat="47.16511" lon="3.91038">
        <ele>364.20001220703</ele>
        <time>2022-10-29T17:20:51.000Z</time>
      </trkpt>
      <trkpt lat="47.16503" lon="3.91033">
        <ele>363.39999389648</ele>
        <time>2022-10-29T17:20:52.000Z</time>
      </trkpt>
      <trkpt lat="47.16495" lon="3.91027">
        <ele>363.20001220703</ele>
        <time>2022-10-29T17:20:53.000Z</time>
      </trkpt>
      <trkpt lat="47.16487" lon="3.91022">
        <ele>362.79998779297</ele>
        <time>2022-10-29T17:20:54.000Z</time>
      </trkpt>
      <trkpt lat="47.16461" lon="3.91008">
        <ele>361.60000610352</ele>
        <time>2022-10-29T17:20:57.000Z</time>
      </trkpt>
      <trkpt lat="47.16435" lon="3.90992">
        <ele>360.39999389648</ele>
        <time>2022-10-29T17:21:00.000Z</time>
      </trkpt>
      <trkpt lat="47.16415" lon="3.90978">
        <ele>359.20001220703</ele>
        <time>2022-10-29T17:21:03.000Z</time>
      </trkpt>
      <trkpt lat="47.16401" lon="3.9096">
        <ele>358.79998779297</ele>
        <time>2022-10-29T17:21:05.000Z</time>
      </trkpt>
      <trkpt lat="47.16393" lon="3.90953">
        <ele>358</ele>
        <time>2022-10-29T17:21:06.000Z</time>
      </trkpt>
      <trkpt lat="47.16378" lon="3.90944">
        <ele>356.79998779297</ele>
        <time>2022-10-29T17:21:08.000Z</time>
      </trkpt>
      <trkpt lat="47.16369" lon="3.90939">
        <ele>356.39999389648</ele>
        <time>2022-10-29T17:21:09.000Z</time>
      </trkpt>
      <trkpt lat="47.16343" lon="3.90923">
        <ele>355.39999389648</ele>
        <time>2022-10-29T17:21:12.000Z</time>
      </trkpt>
      <trkpt lat="47.16326" lon="3.90911">
        <ele>354.60000610352</ele>
        <time>2022-10-29T17:21:14.000Z</time>
      </trkpt>
      <trkpt lat="47.16317" lon="3.90906">
        <ele>354.39999389648</ele>
        <time>2022-10-29T17:21:15.000Z</time>
      </trkpt>
      <trkpt lat="47.16284" lon="3.90884">
        <ele>352.79998779297</ele>
        <time>2022-10-29T17:21:19.000Z</time>
      </trkpt>
      <trkpt lat="47.1627" lon="3.90875">
        <ele>351.20001220703</ele>
        <time>2022-10-29T17:21:21.000Z</time>
      </trkpt>
      <trkpt lat="47.16254" lon="3.90865">
        <ele>349.79998779297</ele>
        <time>2022-10-29T17:21:23.000Z</time>
      </trkpt>
      <trkpt lat="47.16236" lon="3.90851">
        <ele>348.39999389648</ele>
        <time>2022-10-29T17:21:26.000Z</time>
      </trkpt>
      <trkpt lat="47.16214" lon="3.90835">
        <ele>347.60000610352</ele>
        <time>2022-10-29T17:21:30.000Z</time>
      </trkpt>
      <trkpt lat="47.16207" lon="3.90829">
        <ele>347.39999389648</ele>
        <time>2022-10-29T17:21:31.000Z</time>
      </trkpt>
      <trkpt lat="47.16202" lon="3.90825">
        <ele>347.39999389648</ele>
        <time>2022-10-29T17:21:32.000Z</time>
      </trkpt>
      <trkpt lat="47.16196" lon="3.90819">
        <ele>347.39999389648</ele>
        <time>2022-10-29T17:21:33.000Z</time>
      </trkpt>
      <trkpt lat="47.16181" lon="3.90803">
        <ele>347.39999389648</ele>
        <time>2022-10-29T17:21:36.000Z</time>
      </trkpt>
      <trkpt lat="47.16174" lon="3.90798">
        <ele>347.39999389648</ele>
        <time>2022-10-29T17:21:37.000Z</time>
      </trkpt>
      <trkpt lat="47.16158" lon="3.90791">
        <ele>347.60000610352</ele>
        <time>2022-10-29T17:21:40.000Z</time>
      </trkpt>
      <trkpt lat="47.16148" lon="3.90789">
        <ele>347.60000610352</ele>
        <time>2022-10-29T17:21:42.000Z</time>
      </trkpt>
      <trkpt lat="47.16137" lon="3.90792">
        <ele>347.79998779297</ele>
        <time>2022-10-29T17:21:44.000Z</time>
      </trkpt>
      <trkpt lat="47.16117" lon="3.90806">
        <ele>347.79998779297</ele>
        <time>2022-10-29T17:21:48.000Z</time>
      </trkpt>
      <trkpt lat="47.1611" lon="3.90808">
        <ele>347.79998779297</ele>
        <time>2022-10-29T17:21:49.000Z</time>
      </trkpt>
      <trkpt lat="47.16105" lon="3.90809">
        <ele>347.79998779297</ele>
        <time>2022-10-29T17:21:50.000Z</time>
      </trkpt>
      <trkpt lat="47.16084" lon="3.90811">
        <ele>347.39999389648</ele>
        <time>2022-10-29T17:21:53.000Z</time>
      </trkpt>
      <trkpt lat="47.1606" lon="3.90809">
        <ele>346.79998779297</ele>
        <time>2022-10-29T17:21:57.000Z</time>
      </trkpt>
      <trkpt lat="47.16053" lon="3.90805">
        <ele>346.79998779297</ele>
        <time>2022-10-29T17:21:58.000Z</time>
      </trkpt>
      <trkpt lat="47.16047" lon="3.908">
        <ele>346.60000610352</ele>
        <time>2022-10-29T17:21:59.000Z</time>
      </trkpt>
      <trkpt lat="47.16039" lon="3.90791">
        <ele>346.39999389648</ele>
        <time>2022-10-29T17:22:01.000Z</time>
      </trkpt>
      <trkpt lat="47.16035" lon="3.90783">
        <ele>346.39999389648</ele>
        <time>2022-10-29T17:22:02.000Z</time>
      </trkpt>
      <trkpt lat="47.16032" lon="3.90775">
        <ele>346.39999389648</ele>
        <time>2022-10-29T17:22:03.000Z</time>
      </trkpt>
      <trkpt lat="47.16029" lon="3.90761">
        <ele>346.39999389648</ele>
        <time>2022-10-29T17:22:05.000Z</time>
      </trkpt>
      <trkpt lat="47.16028" lon="3.90751">
        <ele>346.39999389648</ele>
        <time>2022-10-29T17:22:06.000Z</time>
      </trkpt>
      <trkpt lat="47.16024" lon="3.90711">
        <ele>346.60000610352</ele>
        <time>2022-10-29T17:22:11.000Z</time>
      </trkpt>
      <trkpt lat="47.16021" lon="3.90703">
        <ele>346.79998779297</ele>
        <time>2022-10-29T17:22:12.000Z</time>
      </trkpt>
      <trkpt lat="47.16015" lon="3.9069">
        <ele>347</ele>
        <time>2022-10-29T17:22:14.000Z</time>
      </trkpt>
      <trkpt lat="47.16006" lon="3.90678">
        <ele>347.20001220703</ele>
        <time>2022-10-29T17:22:16.000Z</time>
      </trkpt>
      <trkpt lat="47.15996" lon="3.90668">
        <ele>347.39999389648</ele>
        <time>2022-10-29T17:22:18.000Z</time>
      </trkpt>
      <trkpt lat="47.15982" lon="3.90657">
        <ele>347.60000610352</ele>
        <time>2022-10-29T17:22:21.000Z</time>
      </trkpt>
      <trkpt lat="47.15969" lon="3.90645">
        <ele>347.60000610352</ele>
        <time>2022-10-29T17:22:24.000Z</time>
      </trkpt>
      <trkpt lat="47.15959" lon="3.90635">
        <ele>347.60000610352</ele>
        <time>2022-10-29T17:22:26.000Z</time>
      </trkpt>
      <trkpt lat="47.15925" lon="3.906">
        <ele>347.20001220703</ele>
        <time>2022-10-29T17:22:32.000Z</time>
      </trkpt>
      <trkpt lat="47.15889" lon="3.90558">
        <ele>347</ele>
        <time>2022-10-29T17:22:39.000Z</time>
      </trkpt>
      <trkpt lat="47.15858" lon="3.90508">
        <ele>346.79998779297</ele>
        <time>2022-10-29T17:22:46.000Z</time>
      </trkpt>
      <trkpt lat="47.15837" lon="3.90466">
        <ele>346.60000610352</ele>
        <time>2022-10-29T17:22:52.000Z</time>
      </trkpt>
      <trkpt lat="47.15833" lon="3.9046">
        <ele>346.60000610352</ele>
        <time>2022-10-29T17:22:53.000Z</time>
      </trkpt>
      <trkpt lat="47.15823" lon="3.90451">
        <ele>346.79998779297</ele>
        <time>2022-10-29T17:22:55.000Z</time>
      </trkpt>
      <trkpt lat="47.15819" lon="3.90448">
        <ele>346.79998779297</ele>
        <time>2022-10-29T17:22:56.000Z</time>
      </trkpt>
      <trkpt lat="47.15813" lon="3.90445">
        <ele>346.79998779297</ele>
        <time>2022-10-29T17:22:57.000Z</time>
      </trkpt>
      <trkpt lat="47.15784" lon="3.90428">
        <ele>346.60000610352</ele>
        <time>2022-10-29T17:23:02.000Z</time>
      </trkpt>
      <trkpt lat="47.15761" lon="3.90398">
        <ele>346.39999389648</ele>
        <time>2022-10-29T17:23:07.000Z</time>
      </trkpt>
      <trkpt lat="47.15747" lon="3.90381">
        <ele>346.20001220703</ele>
        <time>2022-10-29T17:23:10.000Z</time>
      </trkpt>
      <trkpt lat="47.15742" lon="3.90376">
        <ele>346.20001220703</ele>
        <time>2022-10-29T17:23:11.000Z</time>
      </trkpt>
      <trkpt lat="47.15736" lon="3.90373">
        <ele>346.20001220703</ele>
        <time>2022-10-29T17:23:12.000Z</time>
      </trkpt>
      <trkpt lat="47.15725" lon="3.90367">
        <ele>346</ele>
        <time>2022-10-29T17:23:14.000Z</time>
      </trkpt>
      <trkpt lat="47.15707" lon="3.90361">
        <ele>346</ele>
        <time>2022-10-29T17:23:17.000Z</time>
      </trkpt>
      <trkpt lat="47.15688" lon="3.90353">
        <ele>346.20001220703</ele>
        <time>2022-10-29T17:23:21.000Z</time>
      </trkpt>
      <trkpt lat="47.15684" lon="3.90351">
        <ele>346.20001220703</ele>
        <time>2022-10-29T17:23:22.000Z</time>
      </trkpt>
      <trkpt lat="47.15649" lon="3.90327">
        <ele>346.39999389648</ele>
        <time>2022-10-29T17:23:29.000Z</time>
      </trkpt>
      <trkpt lat="47.15624" lon="3.90309">
        <ele>346.60000610352</ele>
        <time>2022-10-29T17:23:33.000Z</time>
      </trkpt>
      <trkpt lat="47.15611" lon="3.90301">
        <ele>346.79998779297</ele>
        <time>2022-10-29T17:23:35.000Z</time>
      </trkpt>
      <trkpt lat="47.15598" lon="3.90292">
        <ele>346.79998779297</ele>
        <time>2022-10-29T17:23:37.000Z</time>
      </trkpt>
      <trkpt lat="47.15586" lon="3.90282">
        <ele>346.79998779297</ele>
        <time>2022-10-29T17:23:39.000Z</time>
      </trkpt>
      <trkpt lat="47.15569" lon="3.90269">
        <ele>346.79998779297</ele>
        <time>2022-10-29T17:23:42.000Z</time>
      </trkpt>
      <trkpt lat="47.15527" lon="3.90241">
        <ele>347</ele>
        <time>2022-10-29T17:23:50.000Z</time>
      </trkpt>
      <trkpt lat="47.155" lon="3.90221">
        <ele>347.20001220703</ele>
        <time>2022-10-29T17:23:55.000Z</time>
      </trkpt>
      <trkpt lat="47.15486" lon="3.90207">
        <ele>347.20001220703</ele>
        <time>2022-10-29T17:23:58.000Z</time>
      </trkpt>
      <trkpt lat="47.15471" lon="3.90192">
        <ele>347.39999389648</ele>
        <time>2022-10-29T17:24:01.000Z</time>
      </trkpt>
      <trkpt lat="47.15463" lon="3.90185">
        <ele>347.39999389648</ele>
        <time>2022-10-29T17:24:03.000Z</time>
      </trkpt>
      <trkpt lat="47.15445" lon="3.90165">
        <ele>347.79998779297</ele>
        <time>2022-10-29T17:24:08.000Z</time>
      </trkpt>
      <trkpt lat="47.15441" lon="3.90162">
        <ele>348</ele>
        <time>2022-10-29T17:24:09.000Z</time>
      </trkpt>
      <trkpt lat="47.15433" lon="3.90152">
        <ele>348.20001220703</ele>
        <time>2022-10-29T17:24:11.000Z</time>
      </trkpt>
      <trkpt lat="47.15419" lon="3.90134">
        <ele>348.60000610352</ele>
        <time>2022-10-29T17:24:15.000Z</time>
      </trkpt>
      <trkpt lat="47.15402" lon="3.90119">
        <ele>349</ele>
        <time>2022-10-29T17:24:19.000Z</time>
      </trkpt>
      <trkpt lat="47.15396" lon="3.90113">
        <ele>349</ele>
        <time>2022-10-29T17:24:20.000Z</time>
      </trkpt>
      <trkpt lat="47.15392" lon="3.90109">
        <ele>349.20001220703</ele>
        <time>2022-10-29T17:24:21.000Z</time>
      </trkpt>
      <trkpt lat="47.15388" lon="3.90105">
        <ele>349.20001220703</ele>
        <time>2022-10-29T17:24:22.000Z</time>
      </trkpt>
      <trkpt lat="47.15379" lon="3.90095">
        <ele>349.20001220703</ele>
        <time>2022-10-29T17:24:24.000Z</time>
      </trkpt>
      <trkpt lat="47.15367" lon="3.90081">
        <ele>349.20001220703</ele>
        <time>2022-10-29T17:24:26.000Z</time>
      </trkpt>
      <trkpt lat="47.15333" lon="3.90047">
        <ele>348.39999389648</ele>
        <time>2022-10-29T17:24:32.000Z</time>
      </trkpt>
      <trkpt lat="47.15328" lon="3.90043">
        <ele>348</ele>
        <time>2022-10-29T17:24:33.000Z</time>
      </trkpt>
      <trkpt lat="47.15316" lon="3.90032">
        <ele>347.60000610352</ele>
        <time>2022-10-29T17:24:36.000Z</time>
      </trkpt>
      <trkpt lat="47.153" lon="3.90016">
        <ele>347</ele>
        <time>2022-10-29T17:24:40.000Z</time>
      </trkpt>
      <trkpt lat="47.15296" lon="3.90012">
        <ele>346.79998779297</ele>
        <time>2022-10-29T17:24:41.000Z</time>
      </trkpt>
      <trkpt lat="47.15284" lon="3.90003">
        <ele>346.60000610352</ele>
        <time>2022-10-29T17:24:43.000Z</time>
      </trkpt>
      <trkpt lat="47.1526" lon="3.89992">
        <ele>346.39999389648</ele>
        <time>2022-10-29T17:24:47.000Z</time>
      </trkpt>
      <trkpt lat="47.15254" lon="3.89991">
        <ele>346.39999389648</ele>
        <time>2022-10-29T17:24:48.000Z</time>
      </trkpt>
      <trkpt lat="47.15238" lon="3.89988">
        <ele>346.39999389648</ele>
        <time>2022-10-29T17:24:51.000Z</time>
      </trkpt>
      <trkpt lat="47.15233" lon="3.89989">
        <ele>346.39999389648</ele>
        <time>2022-10-29T17:24:52.000Z</time>
      </trkpt>
      <trkpt lat="47.15194" lon="3.89997">
        <ele>347</ele>
        <time>2022-10-29T17:24:59.000Z</time>
      </trkpt>
      <trkpt lat="47.15178" lon="3.90006">
        <ele>346.79998779297</ele>
        <time>2022-10-29T17:25:02.000Z</time>
      </trkpt>
      <trkpt lat="47.15163" lon="3.90022">
        <ele>346.79998779297</ele>
        <time>2022-10-29T17:25:05.000Z</time>
      </trkpt>
      <trkpt lat="47.15126" lon="3.90055">
        <ele>346.39999389648</ele>
        <time>2022-10-29T17:25:12.000Z</time>
      </trkpt>
      <trkpt lat="47.1509" lon="3.9009">
        <ele>346.20001220703</ele>
        <time>2022-10-29T17:25:20.000Z</time>
      </trkpt>
      <trkpt lat="47.15069" lon="3.90107">
        <ele>346.20001220703</ele>
        <time>2022-10-29T17:25:24.000Z</time>
      </trkpt>
      <trkpt lat="47.15057" lon="3.90114">
        <ele>346</ele>
        <time>2022-10-29T17:25:26.000Z</time>
      </trkpt>
      <trkpt lat="47.1504" lon="3.90121">
        <ele>346</ele>
        <time>2022-10-29T17:25:29.000Z</time>
      </trkpt>
      <trkpt lat="47.1503" lon="3.90123">
        <ele>346</ele>
        <time>2022-10-29T17:25:31.000Z</time>
      </trkpt>
      <trkpt lat="47.1502" lon="3.90126">
        <ele>346</ele>
        <time>2022-10-29T17:25:33.000Z</time>
      </trkpt>
      <trkpt lat="47.15016" lon="3.90127">
        <ele>346</ele>
        <time>2022-10-29T17:25:34.000Z</time>
      </trkpt>
      <trkpt lat="47.15007" lon="3.90129">
        <ele>346</ele>
        <time>2022-10-29T17:25:36.000Z</time>
      </trkpt>
      <trkpt lat="47.15003" lon="3.90131">
        <ele>346</ele>
        <time>2022-10-29T17:25:37.000Z</time>
      </trkpt>
      <trkpt lat="47.14983" lon="3.90146">
        <ele>347.20001220703</ele>
        <time>2022-10-29T17:25:43.000Z</time>
      </trkpt>
      <trkpt lat="47.14969" lon="3.90166">
        <ele>348.20001220703</ele>
        <time>2022-10-29T17:25:49.000Z</time>
      </trkpt>
      <trkpt lat="47.14956" lon="3.90195">
        <ele>349.39999389648</ele>
        <time>2022-10-29T17:25:55.000Z</time>
      </trkpt>
      <trkpt lat="47.14942" lon="3.90222">
        <ele>350.60000610352</ele>
        <time>2022-10-29T17:26:02.000Z</time>
      </trkpt>
      <trkpt lat="47.14932" lon="3.90242">
        <ele>351.60000610352</ele>
        <time>2022-10-29T17:26:08.000Z</time>
      </trkpt>
      <trkpt lat="47.1492" lon="3.90266">
        <ele>352.39999389648</ele>
        <time>2022-10-29T17:26:16.000Z</time>
      </trkpt>
      <trkpt lat="47.14917" lon="3.90273">
        <ele>352.60000610352</ele>
        <time>2022-10-29T17:26:18.000Z</time>
      </trkpt>
      <trkpt lat="47.1491" lon="3.90292">
        <ele>353.20001220703</ele>
        <time>2022-10-29T17:26:23.000Z</time>
      </trkpt>
      <trkpt lat="47.14904" lon="3.90323">
        <ele>354</ele>
        <time>2022-10-29T17:26:29.000Z</time>
      </trkpt>
      <trkpt lat="47.14903" lon="3.90328">
        <ele>354</ele>
        <time>2022-10-29T17:26:30.000Z</time>
      </trkpt>
      <trkpt lat="47.14896" lon="3.9036">
        <ele>355</ele>
        <time>2022-10-29T17:26:36.000Z</time>
      </trkpt>
      <trkpt lat="47.1489" lon="3.90372">
        <ele>355.60000610352</ele>
        <time>2022-10-29T17:26:39.000Z</time>
      </trkpt>
      <trkpt lat="47.1488" lon="3.90389">
        <ele>356</ele>
        <time>2022-10-29T17:26:44.000Z</time>
      </trkpt>
      <trkpt lat="47.14877" lon="3.90391">
        <ele>356.20001220703</ele>
        <time>2022-10-29T17:26:45.000Z</time>
      </trkpt>
      <trkpt lat="47.14864" lon="3.90396">
        <ele>357.20001220703</ele>
        <time>2022-10-29T17:26:50.000Z</time>
      </trkpt>
      <trkpt lat="47.14861" lon="3.90396">
        <ele>357.39999389648</ele>
        <time>2022-10-29T17:26:51.000Z</time>
      </trkpt>
      <trkpt lat="47.14846" lon="3.90394">
        <ele>358.20001220703</ele>
        <time>2022-10-29T17:26:56.000Z</time>
      </trkpt>
      <trkpt lat="47.1484" lon="3.90394">
        <ele>358.79998779297</ele>
        <time>2022-10-29T17:26:58.000Z</time>
      </trkpt>
      <trkpt lat="47.1483" lon="3.90393">
        <ele>359.60000610352</ele>
        <time>2022-10-29T17:27:01.000Z</time>
      </trkpt>
      <trkpt lat="47.14817" lon="3.90394">
        <ele>360.39999389648</ele>
        <time>2022-10-29T17:27:05.000Z</time>
      </trkpt>
      <trkpt lat="47.14805" lon="3.90397">
        <ele>360.79998779297</ele>
        <time>2022-10-29T17:27:08.000Z</time>
      </trkpt>
      <trkpt lat="47.14783" lon="3.90407">
        <ele>361.60000610352</ele>
        <time>2022-10-29T17:27:14.000Z</time>
      </trkpt>
      <trkpt lat="47.14776" lon="3.9041">
        <ele>361.79998779297</ele>
        <time>2022-10-29T17:27:16.000Z</time>
      </trkpt>
      <trkpt lat="47.14752" lon="3.90422">
        <ele>362.79998779297</ele>
        <time>2022-10-29T17:27:22.000Z</time>
      </trkpt>
      <trkpt lat="47.14748" lon="3.90423">
        <ele>362.79998779297</ele>
        <time>2022-10-29T17:27:23.000Z</time>
      </trkpt>
      <trkpt lat="47.14722" lon="3.9044">
        <ele>363.60000610352</ele>
        <time>2022-10-29T17:27:30.000Z</time>
      </trkpt>
      <trkpt lat="47.14714" lon="3.90451">
        <ele>363.79998779297</ele>
        <time>2022-10-29T17:27:33.000Z</time>
      </trkpt>
      <trkpt lat="47.14707" lon="3.90464">
        <ele>364.60000610352</ele>
        <time>2022-10-29T17:27:36.000Z</time>
      </trkpt>
      <trkpt lat="47.147" lon="3.90496">
        <ele>365</ele>
        <time>2022-10-29T17:27:42.000Z</time>
      </trkpt>
      <trkpt lat="47.147" lon="3.90502">
        <ele>365.20001220703</ele>
        <time>2022-10-29T17:27:43.000Z</time>
      </trkpt>
      <trkpt lat="47.14705" lon="3.9053">
        <ele>365.39999389648</ele>
        <time>2022-10-29T17:27:48.000Z</time>
      </trkpt>
      <trkpt lat="47.14718" lon="3.90557">
        <ele>366</ele>
        <time>2022-10-29T17:27:54.000Z</time>
      </trkpt>
      <trkpt lat="47.14723" lon="3.90564">
        <ele>366.20001220703</ele>
        <time>2022-10-29T17:27:56.000Z</time>
      </trkpt>
      <trkpt lat="47.14738" lon="3.90582">
        <ele>366.79998779297</ele>
        <time>2022-10-29T17:28:01.000Z</time>
      </trkpt>
      <trkpt lat="47.1475" lon="3.90595">
        <ele>367.20001220703</ele>
        <time>2022-10-29T17:28:05.000Z</time>
      </trkpt>
      <trkpt lat="47.14762" lon="3.90612">
        <ele>368</ele>
        <time>2022-10-29T17:28:09.000Z</time>
      </trkpt>
      <trkpt lat="47.14767" lon="3.9062">
        <ele>368.60000610352</ele>
        <time>2022-10-29T17:28:11.000Z</time>
      </trkpt>
      <trkpt lat="47.14777" lon="3.90643">
        <ele>369.20001220703</ele>
        <time>2022-10-29T17:28:16.000Z</time>
      </trkpt>
      <trkpt lat="47.14779" lon="3.90653">
        <ele>369.60000610352</ele>
        <time>2022-10-29T17:28:18.000Z</time>
      </trkpt>
      <trkpt lat="47.14782" lon="3.9068">
        <ele>370.39999389648</ele>
        <time>2022-10-29T17:28:23.000Z</time>
      </trkpt>
      <trkpt lat="47.14781" lon="3.9069">
        <ele>370.79998779297</ele>
        <time>2022-10-29T17:28:25.000Z</time>
      </trkpt>
      <trkpt lat="47.14776" lon="3.90723">
        <ele>371.79998779297</ele>
        <time>2022-10-29T17:28:31.000Z</time>
      </trkpt>
      <trkpt lat="47.14775" lon="3.90729">
        <ele>372</ele>
        <time>2022-10-29T17:28:32.000Z</time>
      </trkpt>
      <trkpt lat="47.14769" lon="3.90755">
        <ele>372.79998779297</ele>
        <time>2022-10-29T17:28:37.000Z</time>
      </trkpt>
      <trkpt lat="47.14766" lon="3.90765">
        <ele>373.20001220703</ele>
        <time>2022-10-29T17:28:39.000Z</time>
      </trkpt>
      <trkpt lat="47.14749" lon="3.9079">
        <ele>373.60000610352</ele>
        <time>2022-10-29T17:28:45.000Z</time>
      </trkpt>
      <trkpt lat="47.1472" lon="3.90817">
        <ele>373.60000610352</ele>
        <time>2022-10-29T17:28:51.000Z</time>
      </trkpt>
      <trkpt lat="47.14687" lon="3.90847">
        <ele>372.39999389648</ele>
        <time>2022-10-29T17:28:57.000Z</time>
      </trkpt>
      <trkpt lat="47.14674" lon="3.90858">
        <ele>371.60000610352</ele>
        <time>2022-10-29T17:28:59.000Z</time>
      </trkpt>
      <trkpt lat="47.14668" lon="3.90865">
        <ele>371.39999389648</ele>
        <time>2022-10-29T17:29:00.000Z</time>
      </trkpt>
      <trkpt lat="47.14655" lon="3.90876">
        <ele>370.60000610352</ele>
        <time>2022-10-29T17:29:02.000Z</time>
      </trkpt>
      <trkpt lat="47.14649" lon="3.90882">
        <ele>370.39999389648</ele>
        <time>2022-10-29T17:29:03.000Z</time>
      </trkpt>
      <trkpt lat="47.1463" lon="3.90902">
        <ele>369.39999389648</ele>
        <time>2022-10-29T17:29:06.000Z</time>
      </trkpt>
      <trkpt lat="47.14607" lon="3.90931">
        <ele>368.39999389648</ele>
        <time>2022-10-29T17:29:10.000Z</time>
      </trkpt>
      <trkpt lat="47.14603" lon="3.90938">
        <ele>368</ele>
        <time>2022-10-29T17:29:11.000Z</time>
      </trkpt>
      <trkpt lat="47.14589" lon="3.90964">
        <ele>367</ele>
        <time>2022-10-29T17:29:15.000Z</time>
      </trkpt>
      <trkpt lat="47.14582" lon="3.90978">
        <ele>365.79998779297</ele>
        <time>2022-10-29T17:29:18.000Z</time>
      </trkpt>
      <trkpt lat="47.14581" lon="3.90981">
        <ele>365.60000610352</ele>
        <time>2022-10-29T17:29:19.000Z</time>
      </trkpt>
      <trkpt lat="47.14576" lon="3.90995">
        <ele>364.79998779297</ele>
        <time>2022-10-29T17:29:23.000Z</time>
      </trkpt>
      <trkpt lat="47.14572" lon="3.91004">
        <ele>364.39999389648</ele>
        <time>2022-10-29T17:29:26.000Z</time>
      </trkpt>
      <trkpt lat="47.14571" lon="3.91006">
        <ele>363.79998779297</ele>
        <time>2022-10-29T17:29:31.000Z</time>
      </trkpt>
      <trkpt lat="47.14571" lon="3.91006">
        <ele>363.60000610352</ele>
        <time>2022-10-29T17:29:32.000Z</time>
      </trkpt>
      <trkpt lat="47.14571" lon="3.91006">
        <ele>363.39999389648</ele>
        <time>2022-10-29T17:29:41.000Z</time>
      </trkpt>
      <trkpt lat="47.14571" lon="3.91006">
        <ele>363</ele>
        <time>2022-10-29T17:30:15.000Z</time>
      </trkpt>
      <trkpt lat="47.14571" lon="3.91007">
        <ele>363.20001220703</ele>
        <time>2022-10-29T17:30:36.000Z</time>
      </trkpt>
      <trkpt lat="47.1457" lon="3.9101">
        <ele>363.20001220703</ele>
        <time>2022-10-29T17:30:39.000Z</time>
      </trkpt>
      <trkpt lat="47.1457" lon="3.91011">
        <ele>363.20001220703</ele>
        <time>2022-10-29T17:30:47.000Z</time>
      </trkpt>
      <trkpt lat="47.1457" lon="3.91011">
        <ele>363</ele>
        <time>2022-10-29T17:31:54.000Z</time>
      </trkpt>
      <trkpt lat="47.14565" lon="3.91021">
        <ele>363</ele>
        <time>2022-10-29T17:32:52.000Z</time>
      </trkpt>
      <trkpt lat="47.14559" lon="3.9104">
        <ele>363</ele>
        <time>2022-10-29T17:32:56.000Z</time>
      </trkpt>
      <trkpt lat="47.14542" lon="3.91072">
        <ele>363.39999389648</ele>
        <time>2022-10-29T17:33:03.000Z</time>
      </trkpt>
      <trkpt lat="47.14528" lon="3.91092">
        <ele>364.20001220703</ele>
        <time>2022-10-29T17:33:08.000Z</time>
      </trkpt>
      <trkpt lat="47.14513" lon="3.91114">
        <ele>364.79998779297</ele>
        <time>2022-10-29T17:33:13.000Z</time>
      </trkpt>
      <trkpt lat="47.14505" lon="3.91126">
        <ele>365.39999389648</ele>
        <time>2022-10-29T17:33:16.000Z</time>
      </trkpt>
      <trkpt lat="47.145" lon="3.91134">
        <ele>366</ele>
        <time>2022-10-29T17:33:18.000Z</time>
      </trkpt>
      <trkpt lat="47.14483" lon="3.91155">
        <ele>367.20001220703</ele>
        <time>2022-10-29T17:33:24.000Z</time>
      </trkpt>
      <trkpt lat="47.14464" lon="3.91175">
        <ele>368.20001220703</ele>
        <time>2022-10-29T17:33:30.000Z</time>
      </trkpt>
      <trkpt lat="47.14456" lon="3.91179">
        <ele>368.20001220703</ele>
        <time>2022-10-29T17:33:32.000Z</time>
      </trkpt>
      <trkpt lat="47.14437" lon="3.91189">
        <ele>368.60000610352</ele>
        <time>2022-10-29T17:33:37.000Z</time>
      </trkpt>
      <trkpt lat="47.14432" lon="3.91196">
        <ele>368.79998779297</ele>
        <time>2022-10-29T17:33:39.000Z</time>
      </trkpt>
      <trkpt lat="47.14426" lon="3.9121">
        <ele>369.60000610352</ele>
        <time>2022-10-29T17:33:42.000Z</time>
      </trkpt>
      <trkpt lat="47.14424" lon="3.91218">
        <ele>370.39999389648</ele>
        <time>2022-10-29T17:33:44.000Z</time>
      </trkpt>
      <trkpt lat="47.14423" lon="3.91227">
        <ele>370.79998779297</ele>
        <time>2022-10-29T17:33:46.000Z</time>
      </trkpt>
      <trkpt lat="47.14421" lon="3.9124">
        <ele>371.79998779297</ele>
        <time>2022-10-29T17:33:50.000Z</time>
      </trkpt>
      <trkpt lat="47.14419" lon="3.91249">
        <ele>372.20001220703</ele>
        <time>2022-10-29T17:33:53.000Z</time>
      </trkpt>
      <trkpt lat="47.14419" lon="3.91254">
        <ele>372.60000610352</ele>
        <time>2022-10-29T17:33:55.000Z</time>
      </trkpt>
      <trkpt lat="47.14413" lon="3.91266">
        <ele>372.79998779297</ele>
        <time>2022-10-29T17:33:59.000Z</time>
      </trkpt>
      <trkpt lat="47.14408" lon="3.91275">
        <ele>372.79998779297</ele>
        <time>2022-10-29T17:34:02.000Z</time>
      </trkpt>
      <trkpt lat="47.14395" lon="3.91298">
        <ele>372</ele>
        <time>2022-10-29T17:34:07.000Z</time>
      </trkpt>
      <trkpt lat="47.14392" lon="3.91304">
        <ele>371.79998779297</ele>
        <time>2022-10-29T17:34:08.000Z</time>
      </trkpt>
      <trkpt lat="47.14387" lon="3.91319">
        <ele>370.60000610352</ele>
        <time>2022-10-29T17:34:12.000Z</time>
      </trkpt>
      <trkpt lat="47.14389" lon="3.91339">
        <ele>369.79998779297</ele>
        <time>2022-10-29T17:34:16.000Z</time>
      </trkpt>
      <trkpt lat="47.14392" lon="3.91345">
        <ele>369.60000610352</ele>
        <time>2022-10-29T17:34:17.000Z</time>
      </trkpt>
      <trkpt lat="47.14405" lon="3.9136">
        <ele>369.20001220703</ele>
        <time>2022-10-29T17:34:20.000Z</time>
      </trkpt>
      <trkpt lat="47.14415" lon="3.91371">
        <ele>368.60000610352</ele>
        <time>2022-10-29T17:34:22.000Z</time>
      </trkpt>
      <trkpt lat="47.1442" lon="3.91378">
        <ele>368.39999389648</ele>
        <time>2022-10-29T17:34:23.000Z</time>
      </trkpt>
      <trkpt lat="47.14428" lon="3.91396">
        <ele>367.79998779297</ele>
        <time>2022-10-29T17:34:25.000Z</time>
      </trkpt>
      <trkpt lat="47.14431" lon="3.91419">
        <ele>367.20001220703</ele>
        <time>2022-10-29T17:34:27.000Z</time>
      </trkpt>
      <trkpt lat="47.1443" lon="3.9143">
        <ele>366.79998779297</ele>
        <time>2022-10-29T17:34:28.000Z</time>
      </trkpt>
      <trkpt lat="47.14424" lon="3.91461">
        <ele>365.79998779297</ele>
        <time>2022-10-29T17:34:31.000Z</time>
      </trkpt>
      <trkpt lat="47.1442" lon="3.91478">
        <ele>365.20001220703</ele>
        <time>2022-10-29T17:34:33.000Z</time>
      </trkpt>
      <trkpt lat="47.14414" lon="3.91526">
        <ele>364.79998779297</ele>
        <time>2022-10-29T17:34:39.000Z</time>
      </trkpt>
      <trkpt lat="47.14414" lon="3.91535">
        <ele>364.79998779297</ele>
        <time>2022-10-29T17:34:40.000Z</time>
      </trkpt>
      <trkpt lat="47.14415" lon="3.9155">
        <ele>365</ele>
        <time>2022-10-29T17:34:42.000Z</time>
      </trkpt>
      <trkpt lat="47.14419" lon="3.91566">
        <ele>365.60000610352</ele>
        <time>2022-10-29T17:34:44.000Z</time>
      </trkpt>
      <trkpt lat="47.14424" lon="3.91583">
        <ele>365.60000610352</ele>
        <time>2022-10-29T17:34:46.000Z</time>
      </trkpt>
      <trkpt lat="47.14435" lon="3.9161">
        <ele>365.60000610352</ele>
        <time>2022-10-29T17:34:49.000Z</time>
      </trkpt>
      <trkpt lat="47.1445" lon="3.9165">
        <ele>364.79998779297</ele>
        <time>2022-10-29T17:34:53.000Z</time>
      </trkpt>
      <trkpt lat="47.14452" lon="3.91662">
        <ele>364.39999389648</ele>
        <time>2022-10-29T17:34:54.000Z</time>
      </trkpt>
      <trkpt lat="47.14454" lon="3.91673">
        <ele>363.79998779297</ele>
        <time>2022-10-29T17:34:55.000Z</time>
      </trkpt>
      <trkpt lat="47.14454" lon="3.91685">
        <ele>363.20001220703</ele>
        <time>2022-10-29T17:34:56.000Z</time>
      </trkpt>
      <trkpt lat="47.14453" lon="3.91698">
        <ele>363</ele>
        <time>2022-10-29T17:34:57.000Z</time>
      </trkpt>
      <trkpt lat="47.14447" lon="3.91721">
        <ele>362.39999389648</ele>
        <time>2022-10-29T17:34:59.000Z</time>
      </trkpt>
      <trkpt lat="47.14443" lon="3.91732">
        <ele>362</ele>
        <time>2022-10-29T17:35:00.000Z</time>
      </trkpt>
      <trkpt lat="47.14432" lon="3.9175">
        <ele>361.20001220703</ele>
        <time>2022-10-29T17:35:02.000Z</time>
      </trkpt>
      <trkpt lat="47.14426" lon="3.91758">
        <ele>360.39999389648</ele>
        <time>2022-10-29T17:35:03.000Z</time>
      </trkpt>
      <trkpt lat="47.14421" lon="3.91765">
        <ele>360.20001220703</ele>
        <time>2022-10-29T17:35:04.000Z</time>
      </trkpt>
      <trkpt lat="47.14396" lon="3.91801">
        <ele>359.79998779297</ele>
        <time>2022-10-29T17:35:09.000Z</time>
      </trkpt>
      <trkpt lat="47.14393" lon="3.91809">
        <ele>359.60000610352</ele>
        <time>2022-10-29T17:35:10.000Z</time>
      </trkpt>
      <trkpt lat="47.1439" lon="3.91818">
        <ele>359.60000610352</ele>
        <time>2022-10-29T17:35:11.000Z</time>
      </trkpt>
      <trkpt lat="47.14389" lon="3.91836">
        <ele>359.79998779297</ele>
        <time>2022-10-29T17:35:13.000Z</time>
      </trkpt>
      <trkpt lat="47.14389" lon="3.91845">
        <ele>359.79998779297</ele>
        <time>2022-10-29T17:35:14.000Z</time>
      </trkpt>
      <trkpt lat="47.14393" lon="3.91862">
        <ele>360.20001220703</ele>
        <time>2022-10-29T17:35:16.000Z</time>
      </trkpt>
      <trkpt lat="47.14406" lon="3.91914">
        <ele>361.20001220703</ele>
        <time>2022-10-29T17:35:22.000Z</time>
      </trkpt>
      <trkpt lat="47.14407" lon="3.91931">
        <ele>361.39999389648</ele>
        <time>2022-10-29T17:35:24.000Z</time>
      </trkpt>
      <trkpt lat="47.14407" lon="3.91957">
        <ele>361.79998779297</ele>
        <time>2022-10-29T17:35:27.000Z</time>
      </trkpt>
      <trkpt lat="47.14402" lon="3.92043">
        <ele>362.20001220703</ele>
        <time>2022-10-29T17:35:37.000Z</time>
      </trkpt>
      <trkpt lat="47.14399" lon="3.92085">
        <ele>362.20001220703</ele>
        <time>2022-10-29T17:35:42.000Z</time>
      </trkpt>
      <trkpt lat="47.14396" lon="3.92103">
        <ele>361.60000610352</ele>
        <time>2022-10-29T17:35:44.000Z</time>
      </trkpt>
      <trkpt lat="47.14387" lon="3.92162">
        <ele>361</ele>
        <time>2022-10-29T17:35:50.000Z</time>
      </trkpt>
      <trkpt lat="47.14386" lon="3.92173">
        <ele>360.60000610352</ele>
        <time>2022-10-29T17:35:51.000Z</time>
      </trkpt>
      <trkpt lat="47.14388" lon="3.92195">
        <ele>360</ele>
        <time>2022-10-29T17:35:53.000Z</time>
      </trkpt>
      <trkpt lat="47.14391" lon="3.92205">
        <ele>359.79998779297</ele>
        <time>2022-10-29T17:35:54.000Z</time>
      </trkpt>
      <trkpt lat="47.14394" lon="3.92216">
        <ele>359.20001220703</ele>
        <time>2022-10-29T17:35:55.000Z</time>
      </trkpt>
      <trkpt lat="47.14401" lon="3.92237">
        <ele>357.79998779297</ele>
        <time>2022-10-29T17:35:57.000Z</time>
      </trkpt>
      <trkpt lat="47.14403" lon="3.92248">
        <ele>357.60000610352</ele>
        <time>2022-10-29T17:35:58.000Z</time>
      </trkpt>
      <trkpt lat="47.14405" lon="3.9226">
        <ele>357.39999389648</ele>
        <time>2022-10-29T17:35:59.000Z</time>
      </trkpt>
      <trkpt lat="47.14405" lon="3.92272">
        <ele>356.79998779297</ele>
        <time>2022-10-29T17:36:00.000Z</time>
      </trkpt>
      <trkpt lat="47.14401" lon="3.92295">
        <ele>356</ele>
        <time>2022-10-29T17:36:02.000Z</time>
      </trkpt>
      <trkpt lat="47.14397" lon="3.92305">
        <ele>355.60000610352</ele>
        <time>2022-10-29T17:36:03.000Z</time>
      </trkpt>
      <trkpt lat="47.14392" lon="3.92315">
        <ele>355.20001220703</ele>
        <time>2022-10-29T17:36:04.000Z</time>
      </trkpt>
      <trkpt lat="47.14386" lon="3.92323">
        <ele>354.60000610352</ele>
        <time>2022-10-29T17:36:05.000Z</time>
      </trkpt>
      <trkpt lat="47.1438" lon="3.92331">
        <ele>354.20001220703</ele>
        <time>2022-10-29T17:36:06.000Z</time>
      </trkpt>
      <trkpt lat="47.14368" lon="3.92346">
        <ele>353.39999389648</ele>
        <time>2022-10-29T17:36:08.000Z</time>
      </trkpt>
      <trkpt lat="47.14364" lon="3.92355">
        <ele>352.79998779297</ele>
        <time>2022-10-29T17:36:09.000Z</time>
      </trkpt>
      <trkpt lat="47.1436" lon="3.92365">
        <ele>352.20001220703</ele>
        <time>2022-10-29T17:36:10.000Z</time>
      </trkpt>
      <trkpt lat="47.14356" lon="3.92388">
        <ele>351.79998779297</ele>
        <time>2022-10-29T17:36:12.000Z</time>
      </trkpt>
      <trkpt lat="47.14353" lon="3.9241">
        <ele>351.39999389648</ele>
        <time>2022-10-29T17:36:14.000Z</time>
      </trkpt>
      <trkpt lat="47.14348" lon="3.92446">
        <ele>350.60000610352</ele>
        <time>2022-10-29T17:36:17.000Z</time>
      </trkpt>
      <trkpt lat="47.14344" lon="3.92482">
        <ele>350.20001220703</ele>
        <time>2022-10-29T17:36:20.000Z</time>
      </trkpt>
      <trkpt lat="47.14341" lon="3.92505">
        <ele>349.39999389648</ele>
        <time>2022-10-29T17:36:22.000Z</time>
      </trkpt>
      <trkpt lat="47.14334" lon="3.92563">
        <ele>348.20001220703</ele>
        <time>2022-10-29T17:36:27.000Z</time>
      </trkpt>
      <trkpt lat="47.14325" lon="3.92639">
        <ele>347</ele>
        <time>2022-10-29T17:36:34.000Z</time>
      </trkpt>
      <trkpt lat="47.14321" lon="3.92695">
        <ele>346.39999389648</ele>
        <time>2022-10-29T17:36:39.000Z</time>
      </trkpt>
      <trkpt lat="47.14322" lon="3.92716">
        <ele>346</ele>
        <time>2022-10-29T17:36:41.000Z</time>
      </trkpt>
      <trkpt lat="47.14323" lon="3.92775">
        <ele>345</ele>
        <time>2022-10-29T17:36:47.000Z</time>
      </trkpt>
      <trkpt lat="47.14323" lon="3.92792">
        <ele>344.79998779297</ele>
        <time>2022-10-29T17:36:49.000Z</time>
      </trkpt>
      <trkpt lat="47.14319" lon="3.92809">
        <ele>344.79998779297</ele>
        <time>2022-10-29T17:36:51.000Z</time>
      </trkpt>
      <trkpt lat="47.14309" lon="3.92821">
        <ele>344.79998779297</ele>
        <time>2022-10-29T17:36:53.000Z</time>
      </trkpt>
      <trkpt lat="47.14303" lon="3.92825">
        <ele>344.79998779297</ele>
        <time>2022-10-29T17:36:54.000Z</time>
      </trkpt>
      <trkpt lat="47.14265" lon="3.92842">
        <ele>344.60000610352</ele>
        <time>2022-10-29T17:37:00.000Z</time>
      </trkpt>
      <trkpt lat="47.14215" lon="3.92862">
        <ele>344.79998779297</ele>
        <time>2022-10-29T17:37:08.000Z</time>
      </trkpt>
      <trkpt lat="47.14205" lon="3.92864">
        <ele>344.79998779297</ele>
        <time>2022-10-29T17:37:10.000Z</time>
      </trkpt>
      <trkpt lat="47.14195" lon="3.92862">
        <ele>345</ele>
        <time>2022-10-29T17:37:12.000Z</time>
      </trkpt>
      <trkpt lat="47.14187" lon="3.92858">
        <ele>345.39999389648</ele>
        <time>2022-10-29T17:37:14.000Z</time>
      </trkpt>
      <trkpt lat="47.14177" lon="3.9285">
        <ele>346</ele>
        <time>2022-10-29T17:37:17.000Z</time>
      </trkpt>
      <trkpt lat="47.14174" lon="3.92845">
        <ele>346.20001220703</ele>
        <time>2022-10-29T17:37:18.000Z</time>
      </trkpt>
      <trkpt lat="47.14167" lon="3.92838">
        <ele>347.20001220703</ele>
        <time>2022-10-29T17:37:20.000Z</time>
      </trkpt>
      <trkpt lat="47.14161" lon="3.92831">
        <ele>347.60000610352</ele>
        <time>2022-10-29T17:37:22.000Z</time>
      </trkpt>
      <trkpt lat="47.14152" lon="3.92823">
        <ele>348.20001220703</ele>
        <time>2022-10-29T17:37:25.000Z</time>
      </trkpt>
      <trkpt lat="47.1414" lon="3.92817">
        <ele>349</ele>
        <time>2022-10-29T17:37:29.000Z</time>
      </trkpt>
      <trkpt lat="47.14137" lon="3.92817">
        <ele>349.20001220703</ele>
        <time>2022-10-29T17:37:30.000Z</time>
      </trkpt>
      <trkpt lat="47.14122" lon="3.9282">
        <ele>350.39999389648</ele>
        <time>2022-10-29T17:37:35.000Z</time>
      </trkpt>
      <trkpt lat="47.14119" lon="3.92821">
        <ele>350.39999389648</ele>
        <time>2022-10-29T17:37:36.000Z</time>
      </trkpt>
      <trkpt lat="47.14104" lon="3.92829">
        <ele>351.39999389648</ele>
        <time>2022-10-29T17:37:41.000Z</time>
      </trkpt>
      <trkpt lat="47.14095" lon="3.92835">
        <ele>352</ele>
        <time>2022-10-29T17:37:44.000Z</time>
      </trkpt>
      <trkpt lat="47.14089" lon="3.92839">
        <ele>352.39999389648</ele>
        <time>2022-10-29T17:37:46.000Z</time>
      </trkpt>
      <trkpt lat="47.14076" lon="3.92845">
        <ele>353.20001220703</ele>
        <time>2022-10-29T17:37:50.000Z</time>
      </trkpt>
      <trkpt lat="47.14069" lon="3.92846">
        <ele>353.60000610352</ele>
        <time>2022-10-29T17:37:52.000Z</time>
      </trkpt>
      <trkpt lat="47.14048" lon="3.92845">
        <ele>354.60000610352</ele>
        <time>2022-10-29T17:37:58.000Z</time>
      </trkpt>
      <trkpt lat="47.14031" lon="3.9283">
        <ele>355.60000610352</ele>
        <time>2022-10-29T17:38:04.000Z</time>
      </trkpt>
      <trkpt lat="47.14028" lon="3.92826">
        <ele>355.79998779297</ele>
        <time>2022-10-29T17:38:05.000Z</time>
      </trkpt>
      <trkpt lat="47.14017" lon="3.92799">
        <ele>357</ele>
        <time>2022-10-29T17:38:11.000Z</time>
      </trkpt>
      <trkpt lat="47.14009" lon="3.92767">
        <ele>357.60000610352</ele>
        <time>2022-10-29T17:38:18.000Z</time>
      </trkpt>
      <trkpt lat="47.14007" lon="3.92749">
        <ele>357.60000610352</ele>
        <time>2022-10-29T17:38:21.000Z</time>
      </trkpt>
      <trkpt lat="47.14008" lon="3.92734">
        <ele>357.60000610352</ele>
        <time>2022-10-29T17:38:23.000Z</time>
      </trkpt>
      <trkpt lat="47.14008" lon="3.92704">
        <ele>357</ele>
        <time>2022-10-29T17:38:27.000Z</time>
      </trkpt>
      <trkpt lat="47.14007" lon="3.92679">
        <ele>356.39999389648</ele>
        <time>2022-10-29T17:38:31.000Z</time>
      </trkpt>
      <trkpt lat="47.14006" lon="3.92661">
        <ele>356.39999389648</ele>
        <time>2022-10-29T17:38:34.000Z</time>
      </trkpt>
      <trkpt lat="47.14003" lon="3.92643">
        <ele>356.60000610352</ele>
        <time>2022-10-29T17:38:37.000Z</time>
      </trkpt>
      <trkpt lat="47.14002" lon="3.92637">
        <ele>356.79998779297</ele>
        <time>2022-10-29T17:38:38.000Z</time>
      </trkpt>
      <trkpt lat="47.13993" lon="3.92609">
        <ele>357.60000610352</ele>
        <time>2022-10-29T17:38:43.000Z</time>
      </trkpt>
      <trkpt lat="47.1399" lon="3.92598">
        <ele>358</ele>
        <time>2022-10-29T17:38:45.000Z</time>
      </trkpt>
      <trkpt lat="47.13979" lon="3.92558">
        <ele>359</ele>
        <time>2022-10-29T17:38:52.000Z</time>
      </trkpt>
      <trkpt lat="47.13977" lon="3.92553">
        <ele>359.20001220703</ele>
        <time>2022-10-29T17:38:53.000Z</time>
      </trkpt>
      <trkpt lat="47.1397" lon="3.92521">
        <ele>360</ele>
        <time>2022-10-29T17:38:59.000Z</time>
      </trkpt>
      <trkpt lat="47.13966" lon="3.92505">
        <ele>360.60000610352</ele>
        <time>2022-10-29T17:39:02.000Z</time>
      </trkpt>
      <trkpt lat="47.13964" lon="3.92495">
        <ele>361</ele>
        <time>2022-10-29T17:39:04.000Z</time>
      </trkpt>
      <trkpt lat="47.13955" lon="3.92459">
        <ele>362</ele>
        <time>2022-10-29T17:39:11.000Z</time>
      </trkpt>
      <trkpt lat="47.13954" lon="3.92454">
        <ele>362.20001220703</ele>
        <time>2022-10-29T17:39:12.000Z</time>
      </trkpt>
      <trkpt lat="47.13949" lon="3.92429">
        <ele>363.39999389648</ele>
        <time>2022-10-29T17:39:17.000Z</time>
      </trkpt>
      <trkpt lat="47.13946" lon="3.92414">
        <ele>363.60000610352</ele>
        <time>2022-10-29T17:39:20.000Z</time>
      </trkpt>
      <trkpt lat="47.13945" lon="3.92394">
        <ele>364.39999389648</ele>
        <time>2022-10-29T17:39:24.000Z</time>
      </trkpt>
      <trkpt lat="47.13945" lon="3.92378">
        <ele>364.79998779297</ele>
        <time>2022-10-29T17:39:27.000Z</time>
      </trkpt>
      <trkpt lat="47.13946" lon="3.92354">
        <ele>365.60000610352</ele>
        <time>2022-10-29T17:39:32.000Z</time>
      </trkpt>
      <trkpt lat="47.13944" lon="3.92334">
        <ele>366.79998779297</ele>
        <time>2022-10-29T17:39:36.000Z</time>
      </trkpt>
      <trkpt lat="47.13934" lon="3.92308">
        <ele>368</ele>
        <time>2022-10-29T17:39:42.000Z</time>
      </trkpt>
      <trkpt lat="47.1392" lon="3.92294">
        <ele>369.20001220703</ele>
        <time>2022-10-29T17:39:47.000Z</time>
      </trkpt>
      <trkpt lat="47.13917" lon="3.92293">
        <ele>369.39999389648</ele>
        <time>2022-10-29T17:39:48.000Z</time>
      </trkpt>
      <trkpt lat="47.13903" lon="3.9229">
        <ele>370.20001220703</ele>
        <time>2022-10-29T17:39:52.000Z</time>
      </trkpt>
      <trkpt lat="47.13896" lon="3.9229">
        <ele>370.60000610352</ele>
        <time>2022-10-29T17:39:54.000Z</time>
      </trkpt>
      <trkpt lat="47.1388" lon="3.9229">
        <ele>371.39999389648</ele>
        <time>2022-10-29T17:39:59.000Z</time>
      </trkpt>
      <trkpt lat="47.13866" lon="3.92292">
        <ele>371.79998779297</ele>
        <time>2022-10-29T17:40:03.000Z</time>
      </trkpt>
      <trkpt lat="47.13848" lon="3.92298">
        <ele>372.39999389648</ele>
        <time>2022-10-29T17:40:08.000Z</time>
      </trkpt>
      <trkpt lat="47.13834" lon="3.92305">
        <ele>372.60000610352</ele>
        <time>2022-10-29T17:40:12.000Z</time>
      </trkpt>
      <trkpt lat="47.13807" lon="3.92321">
        <ele>373.20001220703</ele>
        <time>2022-10-29T17:40:20.000Z</time>
      </trkpt>
      <trkpt lat="47.13785" lon="3.92334">
        <ele>373.60000610352</ele>
        <time>2022-10-29T17:40:26.000Z</time>
      </trkpt>
      <trkpt lat="47.13771" lon="3.92345">
        <ele>374</ele>
        <time>2022-10-29T17:40:30.000Z</time>
      </trkpt>
      <trkpt lat="47.13752" lon="3.92367">
        <ele>374.39999389648</ele>
        <time>2022-10-29T17:40:36.000Z</time>
      </trkpt>
      <trkpt lat="47.13737" lon="3.92383">
        <ele>374.60000610352</ele>
        <time>2022-10-29T17:40:41.000Z</time>
      </trkpt>
      <trkpt lat="47.13728" lon="3.92393">
        <ele>375</ele>
        <time>2022-10-29T17:40:44.000Z</time>
      </trkpt>
      <trkpt lat="47.13711" lon="3.92411">
        <ele>375.79998779297</ele>
        <time>2022-10-29T17:40:50.000Z</time>
      </trkpt>
      <trkpt lat="47.13701" lon="3.92424">
        <ele>376.79998779297</ele>
        <time>2022-10-29T17:40:55.000Z</time>
      </trkpt>
      <trkpt lat="47.13685" lon="3.92441">
        <ele>377.79998779297</ele>
        <time>2022-10-29T17:41:00.000Z</time>
      </trkpt>
      <trkpt lat="47.13671" lon="3.92451">
        <ele>378</ele>
        <time>2022-10-29T17:41:04.000Z</time>
      </trkpt>
      <trkpt lat="47.13667" lon="3.92454">
        <ele>378.20001220703</ele>
        <time>2022-10-29T17:41:05.000Z</time>
      </trkpt>
      <trkpt lat="47.13653" lon="3.9247">
        <ele>378</ele>
        <time>2022-10-29T17:41:08.000Z</time>
      </trkpt>
      <trkpt lat="47.13648" lon="3.92477">
        <ele>378</ele>
        <time>2022-10-29T17:41:09.000Z</time>
      </trkpt>
      <trkpt lat="47.13637" lon="3.92492">
        <ele>377.39999389648</ele>
        <time>2022-10-29T17:41:11.000Z</time>
      </trkpt>
      <trkpt lat="47.13631" lon="3.92497">
        <ele>376.79998779297</ele>
        <time>2022-10-29T17:41:12.000Z</time>
      </trkpt>
      <trkpt lat="47.13625" lon="3.92501">
        <ele>376.60000610352</ele>
        <time>2022-10-29T17:41:13.000Z</time>
      </trkpt>
      <trkpt lat="47.13611" lon="3.92505">
        <ele>376</ele>
        <time>2022-10-29T17:41:15.000Z</time>
      </trkpt>
      <trkpt lat="47.13605" lon="3.92504">
        <ele>375.39999389648</ele>
        <time>2022-10-29T17:41:16.000Z</time>
      </trkpt>
      <trkpt lat="47.13587" lon="3.92498">
        <ele>374.79998779297</ele>
        <time>2022-10-29T17:41:19.000Z</time>
      </trkpt>
      <trkpt lat="47.13556" lon="3.92492">
        <ele>374.60000610352</ele>
        <time>2022-10-29T17:41:25.000Z</time>
      </trkpt>
      <trkpt lat="47.13546" lon="3.92491">
        <ele>374.79998779297</ele>
        <time>2022-10-29T17:41:27.000Z</time>
      </trkpt>
      <trkpt lat="47.13536" lon="3.92487">
        <ele>375</ele>
        <time>2022-10-29T17:41:29.000Z</time>
      </trkpt>
      <trkpt lat="47.13531" lon="3.92484">
        <ele>375</ele>
        <time>2022-10-29T17:41:30.000Z</time>
      </trkpt>
      <trkpt lat="47.13527" lon="3.92481">
        <ele>375</ele>
        <time>2022-10-29T17:41:31.000Z</time>
      </trkpt>
      <trkpt lat="47.13519" lon="3.92473">
        <ele>375</ele>
        <time>2022-10-29T17:41:33.000Z</time>
      </trkpt>
      <trkpt lat="47.13512" lon="3.92463">
        <ele>375</ele>
        <time>2022-10-29T17:41:35.000Z</time>
      </trkpt>
      <trkpt lat="47.13509" lon="3.92457">
        <ele>375</ele>
        <time>2022-10-29T17:41:36.000Z</time>
      </trkpt>
      <trkpt lat="47.13498" lon="3.92426">
        <ele>375.20001220703</ele>
        <time>2022-10-29T17:41:41.000Z</time>
      </trkpt>
      <trkpt lat="47.13492" lon="3.92401">
        <ele>375.39999389648</ele>
        <time>2022-10-29T17:41:45.000Z</time>
      </trkpt>
      <trkpt lat="47.13489" lon="3.92384">
        <ele>376</ele>
        <time>2022-10-29T17:41:48.000Z</time>
      </trkpt>
      <trkpt lat="47.13485" lon="3.92359">
        <ele>377</ele>
        <time>2022-10-29T17:41:52.000Z</time>
      </trkpt>
      <trkpt lat="47.1348" lon="3.9233">
        <ele>377.79998779297</ele>
        <time>2022-10-29T17:41:57.000Z</time>
      </trkpt>
      <trkpt lat="47.13479" lon="3.92324">
        <ele>378</ele>
        <time>2022-10-29T17:41:58.000Z</time>
      </trkpt>
      <trkpt lat="47.13471" lon="3.92297">
        <ele>379.39999389648</ele>
        <time>2022-10-29T17:42:04.000Z</time>
      </trkpt>
      <trkpt lat="47.13458" lon="3.92278">
        <ele>380.79998779297</ele>
        <time>2022-10-29T17:42:09.000Z</time>
      </trkpt>
      <trkpt lat="47.13456" lon="3.92274">
        <ele>381</ele>
        <time>2022-10-29T17:42:10.000Z</time>
      </trkpt>
      <trkpt lat="47.13447" lon="3.92263">
        <ele>381.79998779297</ele>
        <time>2022-10-29T17:42:13.000Z</time>
      </trkpt>
      <trkpt lat="47.13436" lon="3.92252">
        <ele>382.79998779297</ele>
        <time>2022-10-29T17:42:17.000Z</time>
      </trkpt>
      <trkpt lat="47.13433" lon="3.92249">
        <ele>383</ele>
        <time>2022-10-29T17:42:18.000Z</time>
      </trkpt>
      <trkpt lat="47.13426" lon="3.9224">
        <ele>384</ele>
        <time>2022-10-29T17:42:21.000Z</time>
      </trkpt>
      <trkpt lat="47.13419" lon="3.92236">
        <ele>384.79998779297</ele>
        <time>2022-10-29T17:42:23.000Z</time>
      </trkpt>
      <trkpt lat="47.13416" lon="3.92235">
        <ele>385</ele>
        <time>2022-10-29T17:42:24.000Z</time>
      </trkpt>
      <trkpt lat="47.13402" lon="3.9223">
        <ele>386.20001220703</ele>
        <time>2022-10-29T17:42:28.000Z</time>
      </trkpt>
      <trkpt lat="47.13394" lon="3.92229">
        <ele>386.60000610352</ele>
        <time>2022-10-29T17:42:30.000Z</time>
      </trkpt>
      <trkpt lat="47.13383" lon="3.92228">
        <ele>387.20001220703</ele>
        <time>2022-10-29T17:42:33.000Z</time>
      </trkpt>
      <trkpt lat="47.13365" lon="3.92227">
        <ele>388</ele>
        <time>2022-10-29T17:42:38.000Z</time>
      </trkpt>
      <trkpt lat="47.13358" lon="3.92227">
        <ele>388.20001220703</ele>
        <time>2022-10-29T17:42:40.000Z</time>
      </trkpt>
      <trkpt lat="47.13337" lon="3.92229">
        <ele>389.20001220703</ele>
        <time>2022-10-29T17:42:46.000Z</time>
      </trkpt>
      <trkpt lat="47.13333" lon="3.92229">
        <ele>389.20001220703</ele>
        <time>2022-10-29T17:42:47.000Z</time>
      </trkpt>
      <trkpt lat="47.13316" lon="3.92236">
        <ele>390</ele>
        <time>2022-10-29T17:42:52.000Z</time>
      </trkpt>
      <trkpt lat="47.13306" lon="3.92244">
        <ele>390.39999389648</ele>
        <time>2022-10-29T17:42:55.000Z</time>
      </trkpt>
      <trkpt lat="47.13294" lon="3.92255">
        <ele>390.60000610352</ele>
        <time>2022-10-29T17:42:59.000Z</time>
      </trkpt>
      <trkpt lat="47.13285" lon="3.92265">
        <ele>391</ele>
        <time>2022-10-29T17:43:03.000Z</time>
      </trkpt>
      <trkpt lat="47.13274" lon="3.92276">
        <ele>391.39999389648</ele>
        <time>2022-10-29T17:43:07.000Z</time>
      </trkpt>
      <trkpt lat="47.13264" lon="3.92287">
        <ele>392</ele>
        <time>2022-10-29T17:43:11.000Z</time>
      </trkpt>
      <trkpt lat="47.13261" lon="3.92289">
        <ele>392.60000610352</ele>
        <time>2022-10-29T17:43:12.000Z</time>
      </trkpt>
      <trkpt lat="47.1325" lon="3.92299">
        <ele>393.60000610352</ele>
        <time>2022-10-29T17:43:16.000Z</time>
      </trkpt>
      <trkpt lat="47.13242" lon="3.92304">
        <ele>394</ele>
        <time>2022-10-29T17:43:18.000Z</time>
      </trkpt>
      <trkpt lat="47.13225" lon="3.92312">
        <ele>394.79998779297</ele>
        <time>2022-10-29T17:43:22.000Z</time>
      </trkpt>
      <trkpt lat="47.13216" lon="3.92315">
        <ele>395.20001220703</ele>
        <time>2022-10-29T17:43:24.000Z</time>
      </trkpt>
      <trkpt lat="47.13198" lon="3.9231">
        <ele>395.60000610352</ele>
        <time>2022-10-29T17:43:29.000Z</time>
      </trkpt>
      <trkpt lat="47.13193" lon="3.92306">
        <ele>396</ele>
        <time>2022-10-29T17:43:31.000Z</time>
      </trkpt>
      <trkpt lat="47.1318" lon="3.92293">
        <ele>396.39999389648</ele>
        <time>2022-10-29T17:43:35.000Z</time>
      </trkpt>
      <trkpt lat="47.13171" lon="3.92284">
        <ele>396.60000610352</ele>
        <time>2022-10-29T17:43:39.000Z</time>
      </trkpt>
      <trkpt lat="47.13159" lon="3.92265">
        <ele>396.79998779297</ele>
        <time>2022-10-29T17:43:44.000Z</time>
      </trkpt>
      <trkpt lat="47.1314" lon="3.9224">
        <ele>396.60000610352</ele>
        <time>2022-10-29T17:43:49.000Z</time>
      </trkpt>
      <trkpt lat="47.13116" lon="3.92208">
        <ele>396.60000610352</ele>
        <time>2022-10-29T17:43:55.000Z</time>
      </trkpt>
      <trkpt lat="47.13105" lon="3.92196">
        <ele>396.39999389648</ele>
        <time>2022-10-29T17:43:59.000Z</time>
      </trkpt>
      <trkpt lat="47.13086" lon="3.9218">
        <ele>395.79998779297</ele>
        <time>2022-10-29T17:44:05.000Z</time>
      </trkpt>
      <trkpt lat="47.13064" lon="3.92159">
        <ele>395.39999389648</ele>
        <time>2022-10-29T17:44:10.000Z</time>
      </trkpt>
      <trkpt lat="47.1304" lon="3.92144">
        <ele>394.60000610352</ele>
        <time>2022-10-29T17:44:16.000Z</time>
      </trkpt>
      <trkpt lat="47.13006" lon="3.92124">
        <ele>393.60000610352</ele>
        <time>2022-10-29T17:44:24.000Z</time>
      </trkpt>
      <trkpt lat="47.13001" lon="3.92122">
        <ele>393.39999389648</ele>
        <time>2022-10-29T17:44:25.000Z</time>
      </trkpt>
      <trkpt lat="47.12982" lon="3.92112">
        <ele>393</ele>
        <time>2022-10-29T17:44:28.000Z</time>
      </trkpt>
      <trkpt lat="47.12975" lon="3.92108">
        <ele>392.39999389648</ele>
        <time>2022-10-29T17:44:29.000Z</time>
      </trkpt>
      <trkpt lat="47.12968" lon="3.92104">
        <ele>392.20001220703</ele>
        <time>2022-10-29T17:44:30.000Z</time>
      </trkpt>
      <trkpt lat="47.12953" lon="3.921">
        <ele>391.39999389648</ele>
        <time>2022-10-29T17:44:32.000Z</time>
      </trkpt>
      <trkpt lat="47.12946" lon="3.92099">
        <ele>391</ele>
        <time>2022-10-29T17:44:33.000Z</time>
      </trkpt>
      <trkpt lat="47.12939" lon="3.92099">
        <ele>390.79998779297</ele>
        <time>2022-10-29T17:44:34.000Z</time>
      </trkpt>
      <trkpt lat="47.12917" lon="3.92102">
        <ele>390.39999389648</ele>
        <time>2022-10-29T17:44:37.000Z</time>
      </trkpt>
      <trkpt lat="47.12902" lon="3.92104">
        <ele>389.79998779297</ele>
        <time>2022-10-29T17:44:39.000Z</time>
      </trkpt>
      <trkpt lat="47.12874" lon="3.9211">
        <ele>388.79998779297</ele>
        <time>2022-10-29T17:44:43.000Z</time>
      </trkpt>
      <trkpt lat="47.12861" lon="3.92114">
        <ele>388.60000610352</ele>
        <time>2022-10-29T17:44:45.000Z</time>
      </trkpt>
      <trkpt lat="47.12854" lon="3.92118">
        <ele>388.39999389648</ele>
        <time>2022-10-29T17:44:46.000Z</time>
      </trkpt>
      <trkpt lat="47.12838" lon="3.9213">
        <ele>388</ele>
        <time>2022-10-29T17:44:49.000Z</time>
      </trkpt>
      <trkpt lat="47.12833" lon="3.92136">
        <ele>387.79998779297</ele>
        <time>2022-10-29T17:44:50.000Z</time>
      </trkpt>
      <trkpt lat="47.12825" lon="3.92144">
        <ele>387.79998779297</ele>
        <time>2022-10-29T17:44:51.000Z</time>
      </trkpt>
      <trkpt lat="47.12814" lon="3.92158">
        <ele>387.60000610352</ele>
        <time>2022-10-29T17:44:53.000Z</time>
      </trkpt>
      <trkpt lat="47.12805" lon="3.9217">
        <ele>387.20001220703</ele>
        <time>2022-10-29T17:44:55.000Z</time>
      </trkpt>
      <trkpt lat="47.12797" lon="3.92185">
        <ele>386.79998779297</ele>
        <time>2022-10-29T17:44:57.000Z</time>
      </trkpt>
      <trkpt lat="47.12793" lon="3.92194">
        <ele>386.60000610352</ele>
        <time>2022-10-29T17:44:58.000Z</time>
      </trkpt>
      <trkpt lat="47.12785" lon="3.92213">
        <ele>386.20001220703</ele>
        <time>2022-10-29T17:45:00.000Z</time>
      </trkpt>
      <trkpt lat="47.12781" lon="3.92232">
        <ele>385.79998779297</ele>
        <time>2022-10-29T17:45:02.000Z</time>
      </trkpt>
      <trkpt lat="47.12779" lon="3.92241">
        <ele>385.60000610352</ele>
        <time>2022-10-29T17:45:03.000Z</time>
      </trkpt>
      <trkpt lat="47.12775" lon="3.92279">
        <ele>384.60000610352</ele>
        <time>2022-10-29T17:45:07.000Z</time>
      </trkpt>
      <trkpt lat="47.12774" lon="3.9229">
        <ele>384.39999389648</ele>
        <time>2022-10-29T17:45:08.000Z</time>
      </trkpt>
      <trkpt lat="47.12769" lon="3.92325">
        <ele>383.20001220703</ele>
        <time>2022-10-29T17:45:12.000Z</time>
      </trkpt>
      <trkpt lat="47.12765" lon="3.92363">
        <ele>382.39999389648</ele>
        <time>2022-10-29T17:45:16.000Z</time>
      </trkpt>
      <trkpt lat="47.12765" lon="3.92373">
        <ele>382</ele>
        <time>2022-10-29T17:45:17.000Z</time>
      </trkpt>
      <trkpt lat="47.12766" lon="3.92394">
        <ele>381.39999389648</ele>
        <time>2022-10-29T17:45:20.000Z</time>
      </trkpt>
      <trkpt lat="47.12767" lon="3.92411">
        <ele>380.79998779297</ele>
        <time>2022-10-29T17:45:22.000Z</time>
      </trkpt>
      <trkpt lat="47.12766" lon="3.92431">
        <ele>380.39999389648</ele>
        <time>2022-10-29T17:45:24.000Z</time>
      </trkpt>
      <trkpt lat="47.12761" lon="3.9245">
        <ele>380.20001220703</ele>
        <time>2022-10-29T17:45:26.000Z</time>
      </trkpt>
      <trkpt lat="47.12757" lon="3.92459">
        <ele>380</ele>
        <time>2022-10-29T17:45:27.000Z</time>
      </trkpt>
      <trkpt lat="47.12751" lon="3.92466">
        <ele>379.60000610352</ele>
        <time>2022-10-29T17:45:28.000Z</time>
      </trkpt>
      <trkpt lat="47.12742" lon="3.92481">
        <ele>378.79998779297</ele>
        <time>2022-10-29T17:45:30.000Z</time>
      </trkpt>
      <trkpt lat="47.12736" lon="3.92487">
        <ele>378.60000610352</ele>
        <time>2022-10-29T17:45:31.000Z</time>
      </trkpt>
      <trkpt lat="47.12731" lon="3.92493">
        <ele>378.60000610352</ele>
        <time>2022-10-29T17:45:32.000Z</time>
      </trkpt>
      <trkpt lat="47.12709" lon="3.92514">
        <ele>377.20001220703</ele>
        <time>2022-10-29T17:45:36.000Z</time>
      </trkpt>
      <trkpt lat="47.12704" lon="3.92521">
        <ele>377.20001220703</ele>
        <time>2022-10-29T17:45:37.000Z</time>
      </trkpt>
      <trkpt lat="47.127" lon="3.92526">
        <ele>376.79998779297</ele>
        <time>2022-10-29T17:45:38.000Z</time>
      </trkpt>
      <trkpt lat="47.12693" lon="3.92533">
        <ele>375.79998779297</ele>
        <time>2022-10-29T17:45:40.000Z</time>
      </trkpt>
      <trkpt lat="47.12689" lon="3.92537">
        <ele>375.60000610352</ele>
        <time>2022-10-29T17:45:41.000Z</time>
      </trkpt>
      <trkpt lat="47.12683" lon="3.92545">
        <ele>374.60000610352</ele>
        <time>2022-10-29T17:45:44.000Z</time>
      </trkpt>
      <trkpt lat="47.12681" lon="3.92547">
        <ele>374.39999389648</ele>
        <time>2022-10-29T17:45:45.000Z</time>
      </trkpt>
      <trkpt lat="47.12672" lon="3.92565">
        <ele>373.60000610352</ele>
        <time>2022-10-29T17:45:50.000Z</time>
      </trkpt>
      <trkpt lat="47.12663" lon="3.92595">
        <ele>373</ele>
        <time>2022-10-29T17:45:55.000Z</time>
      </trkpt>
      <trkpt lat="47.1266" lon="3.92604">
        <ele>373</ele>
        <time>2022-10-29T17:45:56.000Z</time>
      </trkpt>
      <trkpt lat="47.12655" lon="3.92617">
        <ele>372.39999389648</ele>
        <time>2022-10-29T17:45:58.000Z</time>
      </trkpt>
      <trkpt lat="47.1265" lon="3.92632">
        <ele>372.20001220703</ele>
        <time>2022-10-29T17:46:00.000Z</time>
      </trkpt>
      <trkpt lat="47.12639" lon="3.92667">
        <ele>371</ele>
        <time>2022-10-29T17:46:04.000Z</time>
      </trkpt>
      <trkpt lat="47.12631" lon="3.92695">
        <ele>370.39999389648</ele>
        <time>2022-10-29T17:46:07.000Z</time>
      </trkpt>
      <trkpt lat="47.12629" lon="3.92704">
        <ele>370.20001220703</ele>
        <time>2022-10-29T17:46:08.000Z</time>
      </trkpt>
      <trkpt lat="47.12628" lon="3.92726">
        <ele>369.39999389648</ele>
        <time>2022-10-29T17:46:10.000Z</time>
      </trkpt>
      <trkpt lat="47.12632" lon="3.92747">
        <ele>369</ele>
        <time>2022-10-29T17:46:12.000Z</time>
      </trkpt>
      <trkpt lat="47.12636" lon="3.92757">
        <ele>368.79998779297</ele>
        <time>2022-10-29T17:46:13.000Z</time>
      </trkpt>
      <trkpt lat="47.12639" lon="3.92767">
        <ele>368.39999389648</ele>
        <time>2022-10-29T17:46:14.000Z</time>
      </trkpt>
      <trkpt lat="47.12648" lon="3.928">
        <ele>367.39999389648</ele>
        <time>2022-10-29T17:46:17.000Z</time>
      </trkpt>
      <trkpt lat="47.1265" lon="3.92812">
        <ele>367</ele>
        <time>2022-10-29T17:46:18.000Z</time>
      </trkpt>
      <trkpt lat="47.12651" lon="3.92824">
        <ele>366.39999389648</ele>
        <time>2022-10-29T17:46:19.000Z</time>
      </trkpt>
      <trkpt lat="47.12655" lon="3.9286">
        <ele>365.20001220703</ele>
        <time>2022-10-29T17:46:22.000Z</time>
      </trkpt>
      <trkpt lat="47.12658" lon="3.92912">
        <ele>364</ele>
        <time>2022-10-29T17:46:26.000Z</time>
      </trkpt>
      <trkpt lat="47.12654" lon="3.92935">
        <ele>363</ele>
        <time>2022-10-29T17:46:28.000Z</time>
      </trkpt>
      <trkpt lat="47.1265" lon="3.92943">
        <ele>362.20001220703</ele>
        <time>2022-10-29T17:46:29.000Z</time>
      </trkpt>
      <trkpt lat="47.12644" lon="3.9295">
        <ele>361.39999389648</ele>
        <time>2022-10-29T17:46:30.000Z</time>
      </trkpt>
      <trkpt lat="47.12637" lon="3.92954">
        <ele>360.60000610352</ele>
        <time>2022-10-29T17:46:31.000Z</time>
      </trkpt>
      <trkpt lat="47.12629" lon="3.92957">
        <ele>360.20001220703</ele>
        <time>2022-10-29T17:46:32.000Z</time>
      </trkpt>
      <trkpt lat="47.12607" lon="3.92958">
        <ele>359.20001220703</ele>
        <time>2022-10-29T17:46:35.000Z</time>
      </trkpt>
      <trkpt lat="47.12587" lon="3.92957">
        <ele>358.60000610352</ele>
        <time>2022-10-29T17:46:38.000Z</time>
      </trkpt>
      <trkpt lat="47.12566" lon="3.92958">
        <ele>358.20001220703</ele>
        <time>2022-10-29T17:46:41.000Z</time>
      </trkpt>
      <trkpt lat="47.12559" lon="3.92958">
        <ele>358.20001220703</ele>
        <time>2022-10-29T17:46:42.000Z</time>
      </trkpt>
      <trkpt lat="47.12511" lon="3.92961">
        <ele>357.39999389648</ele>
        <time>2022-10-29T17:46:49.000Z</time>
      </trkpt>
      <trkpt lat="47.12472" lon="3.92967">
        <ele>357.39999389648</ele>
        <time>2022-10-29T17:46:55.000Z</time>
      </trkpt>
      <trkpt lat="47.12436" lon="3.9298">
        <ele>357.39999389648</ele>
        <time>2022-10-29T17:47:01.000Z</time>
      </trkpt>
      <trkpt lat="47.12414" lon="3.92991">
        <ele>357.20001220703</ele>
        <time>2022-10-29T17:47:05.000Z</time>
      </trkpt>
      <trkpt lat="47.12392" lon="3.93001">
        <ele>357</ele>
        <time>2022-10-29T17:47:09.000Z</time>
      </trkpt>
      <trkpt lat="47.12346" lon="3.93025">
        <ele>356.79998779297</ele>
        <time>2022-10-29T17:47:17.000Z</time>
      </trkpt>
      <trkpt lat="47.1232" lon="3.93039">
        <ele>356.20001220703</ele>
        <time>2022-10-29T17:47:21.000Z</time>
      </trkpt>
      <trkpt lat="47.12302" lon="3.93053">
        <ele>355.79998779297</ele>
        <time>2022-10-29T17:47:24.000Z</time>
      </trkpt>
      <trkpt lat="47.12273" lon="3.93084">
        <ele>355</ele>
        <time>2022-10-29T17:47:29.000Z</time>
      </trkpt>
      <trkpt lat="47.12268" lon="3.93092">
        <ele>355</ele>
        <time>2022-10-29T17:47:30.000Z</time>
      </trkpt>
      <trkpt lat="47.12244" lon="3.93122">
        <ele>354</ele>
        <time>2022-10-29T17:47:34.000Z</time>
      </trkpt>
      <trkpt lat="47.12222" lon="3.93153">
        <ele>352.79998779297</ele>
        <time>2022-10-29T17:47:38.000Z</time>
      </trkpt>
      <trkpt lat="47.12188" lon="3.93195">
        <ele>351.79998779297</ele>
        <time>2022-10-29T17:47:44.000Z</time>
      </trkpt>
      <trkpt lat="47.12178" lon="3.93209">
        <ele>351.39999389648</ele>
        <time>2022-10-29T17:47:46.000Z</time>
      </trkpt>
      <trkpt lat="47.12148" lon="3.93246">
        <ele>350.60000610352</ele>
        <time>2022-10-29T17:47:51.000Z</time>
      </trkpt>
      <trkpt lat="47.12126" lon="3.93274">
        <ele>349.39999389648</ele>
        <time>2022-10-29T17:47:55.000Z</time>
      </trkpt>
      <trkpt lat="47.12095" lon="3.93316">
        <ele>348.20001220703</ele>
        <time>2022-10-29T17:48:00.000Z</time>
      </trkpt>
      <trkpt lat="47.12084" lon="3.9333">
        <ele>348</ele>
        <time>2022-10-29T17:48:02.000Z</time>
      </trkpt>
      <trkpt lat="47.12071" lon="3.93345">
        <ele>347</ele>
        <time>2022-10-29T17:48:04.000Z</time>
      </trkpt>
      <trkpt lat="47.12052" lon="3.93367">
        <ele>345.79998779297</ele>
        <time>2022-10-29T17:48:07.000Z</time>
      </trkpt>
      <trkpt lat="47.12039" lon="3.93383">
        <ele>345</ele>
        <time>2022-10-29T17:48:09.000Z</time>
      </trkpt>
      <trkpt lat="47.12034" lon="3.93391">
        <ele>344.60000610352</ele>
        <time>2022-10-29T17:48:10.000Z</time>
      </trkpt>
      <trkpt lat="47.12024" lon="3.93407">
        <ele>343.79998779297</ele>
        <time>2022-10-29T17:48:12.000Z</time>
      </trkpt>
      <trkpt lat="47.12014" lon="3.93425">
        <ele>343.60000610352</ele>
        <time>2022-10-29T17:48:14.000Z</time>
      </trkpt>
      <trkpt lat="47.12006" lon="3.93439">
        <ele>343.39999389648</ele>
        <time>2022-10-29T17:48:16.000Z</time>
      </trkpt>
      <trkpt lat="47.11976" lon="3.93497">
        <ele>343</ele>
        <time>2022-10-29T17:48:23.000Z</time>
      </trkpt>
      <trkpt lat="47.11946" lon="3.93553">
        <ele>343.60000610352</ele>
        <time>2022-10-29T17:48:31.000Z</time>
      </trkpt>
      <trkpt lat="47.11922" lon="3.93606">
        <ele>344</ele>
        <time>2022-10-29T17:48:38.000Z</time>
      </trkpt>
      <trkpt lat="47.11914" lon="3.93628">
        <ele>344.20001220703</ele>
        <time>2022-10-29T17:48:41.000Z</time>
      </trkpt>
      <trkpt lat="47.11912" lon="3.93634">
        <ele>344.39999389648</ele>
        <time>2022-10-29T17:48:42.000Z</time>
      </trkpt>
      <trkpt lat="47.11907" lon="3.93649">
        <ele>344.60000610352</ele>
        <time>2022-10-29T17:48:44.000Z</time>
      </trkpt>
      <trkpt lat="47.11899" lon="3.93672">
        <ele>345</ele>
        <time>2022-10-29T17:48:47.000Z</time>
      </trkpt>
      <trkpt lat="47.11889" lon="3.93694">
        <ele>345.20001220703</ele>
        <time>2022-10-29T17:48:50.000Z</time>
      </trkpt>
      <trkpt lat="47.11857" lon="3.9375">
        <ele>345</ele>
        <time>2022-10-29T17:48:58.000Z</time>
      </trkpt>
      <trkpt lat="47.11819" lon="3.93788">
        <ele>344.39999389648</ele>
        <time>2022-10-29T17:49:05.000Z</time>
      </trkpt>
      <trkpt lat="47.11781" lon="3.93811">
        <ele>344</ele>
        <time>2022-10-29T17:49:11.000Z</time>
      </trkpt>
      <trkpt lat="47.11756" lon="3.93819">
        <ele>343.79998779297</ele>
        <time>2022-10-29T17:49:15.000Z</time>
      </trkpt>
      <trkpt lat="47.11744" lon="3.93822">
        <ele>343.79998779297</ele>
        <time>2022-10-29T17:49:17.000Z</time>
      </trkpt>
      <trkpt lat="47.11694" lon="3.93836">
        <ele>343.60000610352</ele>
        <time>2022-10-29T17:49:25.000Z</time>
      </trkpt>
      <trkpt lat="47.11662" lon="3.93847">
        <ele>343.20001220703</ele>
        <time>2022-10-29T17:49:30.000Z</time>
      </trkpt>
      <trkpt lat="47.11648" lon="3.93848">
        <ele>343</ele>
        <time>2022-10-29T17:49:32.000Z</time>
      </trkpt>
      <trkpt lat="47.11624" lon="3.93847">
        <ele>343</ele>
        <time>2022-10-29T17:49:36.000Z</time>
      </trkpt>
      <trkpt lat="47.11615" lon="3.93845">
        <ele>343.20001220703</ele>
        <time>2022-10-29T17:49:38.000Z</time>
      </trkpt>
      <trkpt lat="47.11593" lon="3.93841">
        <ele>344.39999389648</ele>
        <time>2022-10-29T17:49:43.000Z</time>
      </trkpt>
      <trkpt lat="47.11584" lon="3.9384">
        <ele>344.60000610352</ele>
        <time>2022-10-29T17:49:45.000Z</time>
      </trkpt>
      <trkpt lat="47.11572" lon="3.93839">
        <ele>345.60000610352</ele>
        <time>2022-10-29T17:49:48.000Z</time>
      </trkpt>
      <trkpt lat="47.11568" lon="3.93838">
        <ele>345.60000610352</ele>
        <time>2022-10-29T17:49:49.000Z</time>
      </trkpt>
      <trkpt lat="47.11564" lon="3.93838">
        <ele>346</ele>
        <time>2022-10-29T17:49:50.000Z</time>
      </trkpt>
      <trkpt lat="47.1156" lon="3.93838">
        <ele>346.20001220703</ele>
        <time>2022-10-29T17:49:51.000Z</time>
      </trkpt>
      <trkpt lat="47.11556" lon="3.93838">
        <ele>346.39999389648</ele>
        <time>2022-10-29T17:49:52.000Z</time>
      </trkpt>
      <trkpt lat="47.11538" lon="3.93837">
        <ele>347.39999389648</ele>
        <time>2022-10-29T17:49:56.000Z</time>
      </trkpt>
      <trkpt lat="47.11535" lon="3.93838">
        <ele>347.79998779297</ele>
        <time>2022-10-29T17:49:57.000Z</time>
      </trkpt>
      <trkpt lat="47.11523" lon="3.9384">
        <ele>349</ele>
        <time>2022-10-29T17:50:00.000Z</time>
      </trkpt>
      <trkpt lat="47.11508" lon="3.93849">
        <ele>350</ele>
        <time>2022-10-29T17:50:04.000Z</time>
      </trkpt>
      <trkpt lat="47.11504" lon="3.93853">
        <ele>350.20001220703</ele>
        <time>2022-10-29T17:50:05.000Z</time>
      </trkpt>
      <trkpt lat="47.11501" lon="3.93856">
        <ele>350.39999389648</ele>
        <time>2022-10-29T17:50:06.000Z</time>
      </trkpt>
      <trkpt lat="47.11495" lon="3.93865">
        <ele>350.60000610352</ele>
        <time>2022-10-29T17:50:08.000Z</time>
      </trkpt>
      <trkpt lat="47.11487" lon="3.9388">
        <ele>351.39999389648</ele>
        <time>2022-10-29T17:50:11.000Z</time>
      </trkpt>
      <trkpt lat="47.11485" lon="3.93884">
        <ele>351.60000610352</ele>
        <time>2022-10-29T17:50:12.000Z</time>
      </trkpt>
      <trkpt lat="47.11483" lon="3.93889">
        <ele>351.79998779297</ele>
        <time>2022-10-29T17:50:13.000Z</time>
      </trkpt>
      <trkpt lat="47.11477" lon="3.93913">
        <ele>352.20001220703</ele>
        <time>2022-10-29T17:50:17.000Z</time>
      </trkpt>
      <trkpt lat="47.11474" lon="3.93924">
        <ele>352.39999389648</ele>
        <time>2022-10-29T17:50:19.000Z</time>
      </trkpt>
      <trkpt lat="47.11459" lon="3.93971">
        <ele>353</ele>
        <time>2022-10-29T17:50:27.000Z</time>
      </trkpt>
      <trkpt lat="47.11452" lon="3.93998">
        <ele>353.20001220703</ele>
        <time>2022-10-29T17:50:31.000Z</time>
      </trkpt>
      <trkpt lat="47.11447" lon="3.94019">
        <ele>353.39999389648</ele>
        <time>2022-10-29T17:50:34.000Z</time>
      </trkpt>
      <trkpt lat="47.11444" lon="3.94033">
        <ele>353.39999389648</ele>
        <time>2022-10-29T17:50:36.000Z</time>
      </trkpt>
      <trkpt lat="47.1144" lon="3.94046">
        <ele>353.60000610352</ele>
        <time>2022-10-29T17:50:38.000Z</time>
      </trkpt>
      <trkpt lat="47.11433" lon="3.94068">
        <ele>354</ele>
        <time>2022-10-29T17:50:41.000Z</time>
      </trkpt>
      <trkpt lat="47.11425" lon="3.94091">
        <ele>354.60000610352</ele>
        <time>2022-10-29T17:50:45.000Z</time>
      </trkpt>
      <trkpt lat="47.1142" lon="3.94113">
        <ele>354.79998779297</ele>
        <time>2022-10-29T17:50:48.000Z</time>
      </trkpt>
      <trkpt lat="47.11407" lon="3.94146">
        <ele>355.39999389648</ele>
        <time>2022-10-29T17:50:54.000Z</time>
      </trkpt>
      <trkpt lat="47.11404" lon="3.94151">
        <ele>355.60000610352</ele>
        <time>2022-10-29T17:50:55.000Z</time>
      </trkpt>
      <trkpt lat="47.11401" lon="3.94155">
        <ele>355.60000610352</ele>
        <time>2022-10-29T17:50:56.000Z</time>
      </trkpt>
      <trkpt lat="47.11393" lon="3.94162">
        <ele>355.79998779297</ele>
        <time>2022-10-29T17:50:58.000Z</time>
      </trkpt>
      <trkpt lat="47.11385" lon="3.94165">
        <ele>356.20001220703</ele>
        <time>2022-10-29T17:51:00.000Z</time>
      </trkpt>
      <trkpt lat="47.11376" lon="3.94163">
        <ele>356.60000610352</ele>
        <time>2022-10-29T17:51:02.000Z</time>
      </trkpt>
      <trkpt lat="47.11372" lon="3.94161">
        <ele>356.60000610352</ele>
        <time>2022-10-29T17:51:03.000Z</time>
      </trkpt>
      <trkpt lat="47.11368" lon="3.94158">
        <ele>356.79998779297</ele>
        <time>2022-10-29T17:51:04.000Z</time>
      </trkpt>
      <trkpt lat="47.11365" lon="3.94155">
        <ele>356.79998779297</ele>
        <time>2022-10-29T17:51:05.000Z</time>
      </trkpt>
      <trkpt lat="47.11359" lon="3.94148">
        <ele>357.20001220703</ele>
        <time>2022-10-29T17:51:07.000Z</time>
      </trkpt>
      <trkpt lat="47.11355" lon="3.94143">
        <ele>357.39999389648</ele>
        <time>2022-10-29T17:51:08.000Z</time>
      </trkpt>
      <trkpt lat="47.11349" lon="3.94135">
        <ele>358</ele>
        <time>2022-10-29T17:51:10.000Z</time>
      </trkpt>
      <trkpt lat="47.11338" lon="3.9412">
        <ele>358.39999389648</ele>
        <time>2022-10-29T17:51:14.000Z</time>
      </trkpt>
      <trkpt lat="47.11328" lon="3.94106">
        <ele>359</ele>
        <time>2022-10-29T17:51:18.000Z</time>
      </trkpt>
      <trkpt lat="47.11321" lon="3.94095">
        <ele>359.79998779297</ele>
        <time>2022-10-29T17:51:21.000Z</time>
      </trkpt>
      <trkpt lat="47.11317" lon="3.94088">
        <ele>360.20001220703</ele>
        <time>2022-10-29T17:51:23.000Z</time>
      </trkpt>
      <trkpt lat="47.11304" lon="3.94073">
        <ele>361.20001220703</ele>
        <time>2022-10-29T17:51:28.000Z</time>
      </trkpt>
      <trkpt lat="47.11302" lon="3.94071">
        <ele>361.20001220703</ele>
        <time>2022-10-29T17:51:29.000Z</time>
      </trkpt>
      <trkpt lat="47.1129" lon="3.94057">
        <ele>362.39999389648</ele>
        <time>2022-10-29T17:51:34.000Z</time>
      </trkpt>
      <trkpt lat="47.11273" lon="3.94048">
        <ele>363.60000610352</ele>
        <time>2022-10-29T17:51:40.000Z</time>
      </trkpt>
      <trkpt lat="47.1127" lon="3.94047">
        <ele>363.79998779297</ele>
        <time>2022-10-29T17:51:41.000Z</time>
      </trkpt>
      <trkpt lat="47.11261" lon="3.94047">
        <ele>364.79998779297</ele>
        <time>2022-10-29T17:51:44.000Z</time>
      </trkpt>
      <trkpt lat="47.11255" lon="3.94046">
        <ele>365.20001220703</ele>
        <time>2022-10-29T17:51:46.000Z</time>
      </trkpt>
      <trkpt lat="47.11243" lon="3.94047">
        <ele>365.79998779297</ele>
        <time>2022-10-29T17:51:50.000Z</time>
      </trkpt>
      <trkpt lat="47.11234" lon="3.94049">
        <ele>366.39999389648</ele>
        <time>2022-10-29T17:51:53.000Z</time>
      </trkpt>
      <trkpt lat="47.11225" lon="3.9405">
        <ele>367</ele>
        <time>2022-10-29T17:51:56.000Z</time>
      </trkpt>
      <trkpt lat="47.11207" lon="3.94053">
        <ele>368</ele>
        <time>2022-10-29T17:52:02.000Z</time>
      </trkpt>
      <trkpt lat="47.11204" lon="3.94054">
        <ele>368.39999389648</ele>
        <time>2022-10-29T17:52:03.000Z</time>
      </trkpt>
      <trkpt lat="47.11187" lon="3.94061">
        <ele>369.20001220703</ele>
        <time>2022-10-29T17:52:08.000Z</time>
      </trkpt>
      <trkpt lat="47.11176" lon="3.94066">
        <ele>369.39999389648</ele>
        <time>2022-10-29T17:52:11.000Z</time>
      </trkpt>
      <trkpt lat="47.11148" lon="3.94084">
        <ele>369.79998779297</ele>
        <time>2022-10-29T17:52:19.000Z</time>
      </trkpt>
      <trkpt lat="47.11124" lon="3.94106">
        <ele>370.20001220703</ele>
        <time>2022-10-29T17:52:26.000Z</time>
      </trkpt>
      <trkpt lat="47.11114" lon="3.94118">
        <ele>370.39999389648</ele>
        <time>2022-10-29T17:52:29.000Z</time>
      </trkpt>
      <trkpt lat="47.11094" lon="3.94149">
        <ele>371.39999389648</ele>
        <time>2022-10-29T17:52:36.000Z</time>
      </trkpt>
      <trkpt lat="47.11091" lon="3.94154">
        <ele>371.39999389648</ele>
        <time>2022-10-29T17:52:37.000Z</time>
      </trkpt>
      <trkpt lat="47.11079" lon="3.9419">
        <ele>372.60000610352</ele>
        <time>2022-10-29T17:52:44.000Z</time>
      </trkpt>
      <trkpt lat="47.11078" lon="3.94196">
        <ele>372.79998779297</ele>
        <time>2022-10-29T17:52:45.000Z</time>
      </trkpt>
      <trkpt lat="47.1107" lon="3.94215">
        <ele>373.60000610352</ele>
        <time>2022-10-29T17:52:49.000Z</time>
      </trkpt>
      <trkpt lat="47.11063" lon="3.94218">
        <ele>374.20001220703</ele>
        <time>2022-10-29T17:52:51.000Z</time>
      </trkpt>
      <trkpt lat="47.11059" lon="3.94217">
        <ele>374.39999389648</ele>
        <time>2022-10-29T17:52:52.000Z</time>
      </trkpt>
      <trkpt lat="47.11053" lon="3.94212">
        <ele>375.20001220703</ele>
        <time>2022-10-29T17:52:54.000Z</time>
      </trkpt>
      <trkpt lat="47.11048" lon="3.94205">
        <ele>375.79998779297</ele>
        <time>2022-10-29T17:52:56.000Z</time>
      </trkpt>
      <trkpt lat="47.11047" lon="3.942">
        <ele>376</ele>
        <time>2022-10-29T17:52:57.000Z</time>
      </trkpt>
      <trkpt lat="47.11035" lon="3.94175">
        <ele>377.20001220703</ele>
        <time>2022-10-29T17:53:03.000Z</time>
      </trkpt>
      <trkpt lat="47.1102" lon="3.9415">
        <ele>378.39999389648</ele>
        <time>2022-10-29T17:53:10.000Z</time>
      </trkpt>
      <trkpt lat="47.11001" lon="3.94128">
        <ele>379.39999389648</ele>
        <time>2022-10-29T17:53:17.000Z</time>
      </trkpt>
      <trkpt lat="47.10998" lon="3.94125">
        <ele>379.79998779297</ele>
        <time>2022-10-29T17:53:18.000Z</time>
      </trkpt>
      <trkpt lat="47.10983" lon="3.94114">
        <ele>380.60000610352</ele>
        <time>2022-10-29T17:53:23.000Z</time>
      </trkpt>
      <trkpt lat="47.10976" lon="3.94111">
        <ele>380.79998779297</ele>
        <time>2022-10-29T17:53:25.000Z</time>
      </trkpt>
      <trkpt lat="47.10956" lon="3.94106">
        <ele>382</ele>
        <time>2022-10-29T17:53:31.000Z</time>
      </trkpt>
      <trkpt lat="47.10952" lon="3.94106">
        <ele>382</ele>
        <time>2022-10-29T17:53:32.000Z</time>
      </trkpt>
      <trkpt lat="47.10937" lon="3.94111">
        <ele>383</ele>
        <time>2022-10-29T17:53:36.000Z</time>
      </trkpt>
      <trkpt lat="47.10929" lon="3.94116">
        <ele>383.20001220703</ele>
        <time>2022-10-29T17:53:38.000Z</time>
      </trkpt>
      <trkpt lat="47.10925" lon="3.94119">
        <ele>383.20001220703</ele>
        <time>2022-10-29T17:53:39.000Z</time>
      </trkpt>
      <trkpt lat="47.10912" lon="3.9413">
        <ele>383.20001220703</ele>
        <time>2022-10-29T17:53:42.000Z</time>
      </trkpt>
      <trkpt lat="47.10888" lon="3.94164">
        <ele>382.79998779297</ele>
        <time>2022-10-29T17:53:48.000Z</time>
      </trkpt>
      <trkpt lat="47.10865" lon="3.94199">
        <ele>382.20001220703</ele>
        <time>2022-10-29T17:53:54.000Z</time>
      </trkpt>
      <trkpt lat="47.10859" lon="3.94206">
        <ele>381.60000610352</ele>
        <time>2022-10-29T17:53:55.000Z</time>
      </trkpt>
      <trkpt lat="47.1085" lon="3.94218">
        <ele>381.39999389648</ele>
        <time>2022-10-29T17:53:57.000Z</time>
      </trkpt>
      <trkpt lat="47.1084" lon="3.94227">
        <ele>381</ele>
        <time>2022-10-29T17:53:59.000Z</time>
      </trkpt>
      <trkpt lat="47.10834" lon="3.94231">
        <ele>380.79998779297</ele>
        <time>2022-10-29T17:54:00.000Z</time>
      </trkpt>
      <trkpt lat="47.10808" lon="3.94245">
        <ele>379.79998779297</ele>
        <time>2022-10-29T17:54:04.000Z</time>
      </trkpt>
      <trkpt lat="47.10795" lon="3.9425">
        <ele>379.60000610352</ele>
        <time>2022-10-29T17:54:06.000Z</time>
      </trkpt>
      <trkpt lat="47.10783" lon="3.94254">
        <ele>379.39999389648</ele>
        <time>2022-10-29T17:54:08.000Z</time>
      </trkpt>
      <trkpt lat="47.10764" lon="3.94263">
        <ele>379.39999389648</ele>
        <time>2022-10-29T17:54:11.000Z</time>
      </trkpt>
      <trkpt lat="47.10727" lon="3.94284">
        <ele>379.79998779297</ele>
        <time>2022-10-29T17:54:17.000Z</time>
      </trkpt>
      <trkpt lat="47.10723" lon="3.94287">
        <ele>380</ele>
        <time>2022-10-29T17:54:18.000Z</time>
      </trkpt>
      <trkpt lat="47.10719" lon="3.9429">
        <ele>380.20001220703</ele>
        <time>2022-10-29T17:54:19.000Z</time>
      </trkpt>
      <trkpt lat="47.10711" lon="3.94296">
        <ele>380.20001220703</ele>
        <time>2022-10-29T17:54:21.000Z</time>
      </trkpt>
      <trkpt lat="47.10708" lon="3.94298">
        <ele>380.20001220703</ele>
        <time>2022-10-29T17:54:22.000Z</time>
      </trkpt>
      <trkpt lat="47.10678" lon="3.94325">
        <ele>380.39999389648</ele>
        <time>2022-10-29T17:54:28.000Z</time>
      </trkpt>
      <trkpt lat="47.10662" lon="3.94341">
        <ele>380.39999389648</ele>
        <time>2022-10-29T17:54:32.000Z</time>
      </trkpt>
      <trkpt lat="47.10657" lon="3.94346">
        <ele>380.39999389648</ele>
        <time>2022-10-29T17:54:33.000Z</time>
      </trkpt>
      <trkpt lat="47.10652" lon="3.94351">
        <ele>380.60000610352</ele>
        <time>2022-10-29T17:54:34.000Z</time>
      </trkpt>
      <trkpt lat="47.10641" lon="3.94363">
        <ele>380.79998779297</ele>
        <time>2022-10-29T17:54:36.000Z</time>
      </trkpt>
      <trkpt lat="47.10637" lon="3.94369">
        <ele>380.79998779297</ele>
        <time>2022-10-29T17:54:37.000Z</time>
      </trkpt>
      <trkpt lat="47.10632" lon="3.94374">
        <ele>380.79998779297</ele>
        <time>2022-10-29T17:54:38.000Z</time>
      </trkpt>
      <trkpt lat="47.10622" lon="3.94385">
        <ele>380.79998779297</ele>
        <time>2022-10-29T17:54:40.000Z</time>
      </trkpt>
      <trkpt lat="47.10608" lon="3.94396">
        <ele>381</ele>
        <time>2022-10-29T17:54:42.000Z</time>
      </trkpt>
      <trkpt lat="47.1059" lon="3.94413">
        <ele>381</ele>
        <time>2022-10-29T17:54:45.000Z</time>
      </trkpt>
      <trkpt lat="47.10576" lon="3.94427">
        <ele>381.20001220703</ele>
        <time>2022-10-29T17:54:47.000Z</time>
      </trkpt>
      <trkpt lat="47.10571" lon="3.94433">
        <ele>381.20001220703</ele>
        <time>2022-10-29T17:54:48.000Z</time>
      </trkpt>
      <trkpt lat="47.10562" lon="3.94443">
        <ele>381.20001220703</ele>
        <time>2022-10-29T17:54:50.000Z</time>
      </trkpt>
      <trkpt lat="47.10548" lon="3.94458">
        <ele>381.20001220703</ele>
        <time>2022-10-29T17:54:53.000Z</time>
      </trkpt>
      <trkpt lat="47.10514" lon="3.94497">
        <ele>381</ele>
        <time>2022-10-29T17:55:00.000Z</time>
      </trkpt>
      <trkpt lat="47.10472" lon="3.94549">
        <ele>381</ele>
        <time>2022-10-29T17:55:09.000Z</time>
      </trkpt>
      <trkpt lat="47.10463" lon="3.9456">
        <ele>381</ele>
        <time>2022-10-29T17:55:11.000Z</time>
      </trkpt>
      <trkpt lat="47.10419" lon="3.94616">
        <ele>381</ele>
        <time>2022-10-29T17:55:21.000Z</time>
      </trkpt>
      <trkpt lat="47.10414" lon="3.94621">
        <ele>380.79998779297</ele>
        <time>2022-10-29T17:55:22.000Z</time>
      </trkpt>
      <trkpt lat="47.10408" lon="3.94628">
        <ele>380.79998779297</ele>
        <time>2022-10-29T17:55:23.000Z</time>
      </trkpt>
      <trkpt lat="47.10395" lon="3.94634">
        <ele>380.20001220703</ele>
        <time>2022-10-29T17:55:25.000Z</time>
      </trkpt>
      <trkpt lat="47.10381" lon="3.9463">
        <ele>379.60000610352</ele>
        <time>2022-10-29T17:55:27.000Z</time>
      </trkpt>
      <trkpt lat="47.10376" lon="3.94625">
        <ele>379.60000610352</ele>
        <time>2022-10-29T17:55:28.000Z</time>
      </trkpt>
      <trkpt lat="47.10372" lon="3.94618">
        <ele>379.20001220703</ele>
        <time>2022-10-29T17:55:29.000Z</time>
      </trkpt>
      <trkpt lat="47.10366" lon="3.94601">
        <ele>378.60000610352</ele>
        <time>2022-10-29T17:55:31.000Z</time>
      </trkpt>
      <trkpt lat="47.10361" lon="3.94584">
        <ele>378.20001220703</ele>
        <time>2022-10-29T17:55:33.000Z</time>
      </trkpt>
      <trkpt lat="47.10353" lon="3.94569">
        <ele>377.79998779297</ele>
        <time>2022-10-29T17:55:35.000Z</time>
      </trkpt>
      <trkpt lat="47.10349" lon="3.94563">
        <ele>377.60000610352</ele>
        <time>2022-10-29T17:55:36.000Z</time>
      </trkpt>
      <trkpt lat="47.1034" lon="3.94552">
        <ele>377.39999389648</ele>
        <time>2022-10-29T17:55:38.000Z</time>
      </trkpt>
      <trkpt lat="47.10322" lon="3.94539">
        <ele>377</ele>
        <time>2022-10-29T17:55:41.000Z</time>
      </trkpt>
      <trkpt lat="47.10299" lon="3.9453">
        <ele>376.20001220703</ele>
        <time>2022-10-29T17:55:44.000Z</time>
      </trkpt>
      <trkpt lat="47.10284" lon="3.94527">
        <ele>376</ele>
        <time>2022-10-29T17:55:46.000Z</time>
      </trkpt>
      <trkpt lat="47.1026" lon="3.94527">
        <ele>375.20001220703</ele>
        <time>2022-10-29T17:55:49.000Z</time>
      </trkpt>
      <trkpt lat="47.10245" lon="3.94529">
        <ele>374.20001220703</ele>
        <time>2022-10-29T17:55:51.000Z</time>
      </trkpt>
      <trkpt lat="47.10235" lon="3.94532">
        <ele>374</ele>
        <time>2022-10-29T17:55:52.000Z</time>
      </trkpt>
      <trkpt lat="47.10219" lon="3.94543">
        <ele>373.60000610352</ele>
        <time>2022-10-29T17:55:54.000Z</time>
      </trkpt>
      <trkpt lat="47.10206" lon="3.94554">
        <ele>372.60000610352</ele>
        <time>2022-10-29T17:55:56.000Z</time>
      </trkpt>
      <trkpt lat="47.10197" lon="3.9456">
        <ele>372.39999389648</ele>
        <time>2022-10-29T17:55:57.000Z</time>
      </trkpt>
      <trkpt lat="47.10183" lon="3.94563">
        <ele>372</ele>
        <time>2022-10-29T17:55:59.000Z</time>
      </trkpt>
      <trkpt lat="47.1017" lon="3.94555">
        <ele>371.39999389648</ele>
        <time>2022-10-29T17:56:01.000Z</time>
      </trkpt>
      <trkpt lat="47.10165" lon="3.94547">
        <ele>371.20001220703</ele>
        <time>2022-10-29T17:56:02.000Z</time>
      </trkpt>
      <trkpt lat="47.1016" lon="3.94539">
        <ele>370.39999389648</ele>
        <time>2022-10-29T17:56:03.000Z</time>
      </trkpt>
      <trkpt lat="47.1015" lon="3.94521">
        <ele>369.79998779297</ele>
        <time>2022-10-29T17:56:05.000Z</time>
      </trkpt>
      <trkpt lat="47.10145" lon="3.94513">
        <ele>369.60000610352</ele>
        <time>2022-10-29T17:56:06.000Z</time>
      </trkpt>
      <trkpt lat="47.10139" lon="3.94507">
        <ele>369.20001220703</ele>
        <time>2022-10-29T17:56:07.000Z</time>
      </trkpt>
      <trkpt lat="47.10123" lon="3.94499">
        <ele>368.79998779297</ele>
        <time>2022-10-29T17:56:09.000Z</time>
      </trkpt>
      <trkpt lat="47.1011" lon="3.94494">
        <ele>368.20001220703</ele>
        <time>2022-10-29T17:56:11.000Z</time>
      </trkpt>
      <trkpt lat="47.10102" lon="3.94492">
        <ele>368</ele>
        <time>2022-10-29T17:56:12.000Z</time>
      </trkpt>
      <trkpt lat="47.10085" lon="3.94489">
        <ele>367</ele>
        <time>2022-10-29T17:56:14.000Z</time>
      </trkpt>
      <trkpt lat="47.10077" lon="3.94488">
        <ele>366.60000610352</ele>
        <time>2022-10-29T17:56:15.000Z</time>
      </trkpt>
      <trkpt lat="47.10068" lon="3.94488">
        <ele>366.39999389648</ele>
        <time>2022-10-29T17:56:16.000Z</time>
      </trkpt>
      <trkpt lat="47.10051" lon="3.94491">
        <ele>365.20001220703</ele>
        <time>2022-10-29T17:56:18.000Z</time>
      </trkpt>
      <trkpt lat="47.10024" lon="3.94497">
        <ele>364</ele>
        <time>2022-10-29T17:56:21.000Z</time>
      </trkpt>
      <trkpt lat="47.09993" lon="3.94505">
        <ele>363.20001220703</ele>
        <time>2022-10-29T17:56:25.000Z</time>
      </trkpt>
      <trkpt lat="47.09979" lon="3.94509">
        <ele>362.60000610352</ele>
        <time>2022-10-29T17:56:27.000Z</time>
      </trkpt>
      <trkpt lat="47.09959" lon="3.94512">
        <ele>362.20001220703</ele>
        <time>2022-10-29T17:56:30.000Z</time>
      </trkpt>
      <trkpt lat="47.09916" lon="3.94522">
        <ele>362.20001220703</ele>
        <time>2022-10-29T17:56:37.000Z</time>
      </trkpt>
      <trkpt lat="47.09905" lon="3.94525">
        <ele>362.20001220703</ele>
        <time>2022-10-29T17:56:39.000Z</time>
      </trkpt>
      <trkpt lat="47.09894" lon="3.94532">
        <ele>362.20001220703</ele>
        <time>2022-10-29T17:56:41.000Z</time>
      </trkpt>
      <trkpt lat="47.09889" lon="3.94537">
        <ele>362.20001220703</ele>
        <time>2022-10-29T17:56:42.000Z</time>
      </trkpt>
      <trkpt lat="47.09885" lon="3.94544">
        <ele>362.20001220703</ele>
        <time>2022-10-29T17:56:43.000Z</time>
      </trkpt>
      <trkpt lat="47.0987" lon="3.94571">
        <ele>362.20001220703</ele>
        <time>2022-10-29T17:56:47.000Z</time>
      </trkpt>
      <trkpt lat="47.0984" lon="3.9464">
        <ele>362</ele>
        <time>2022-10-29T17:56:56.000Z</time>
      </trkpt>
      <trkpt lat="47.09824" lon="3.9468">
        <ele>361.79998779297</ele>
        <time>2022-10-29T17:57:01.000Z</time>
      </trkpt>
      <trkpt lat="47.09814" lon="3.94703">
        <ele>361.20001220703</ele>
        <time>2022-10-29T17:57:04.000Z</time>
      </trkpt>
      <trkpt lat="47.09793" lon="3.9475">
        <ele>361</ele>
        <time>2022-10-29T17:57:10.000Z</time>
      </trkpt>
      <trkpt lat="47.09788" lon="3.94757">
        <ele>361</ele>
        <time>2022-10-29T17:57:11.000Z</time>
      </trkpt>
      <trkpt lat="47.09782" lon="3.94762">
        <ele>361</ele>
        <time>2022-10-29T17:57:12.000Z</time>
      </trkpt>
      <trkpt lat="47.09769" lon="3.94769">
        <ele>360.60000610352</ele>
        <time>2022-10-29T17:57:14.000Z</time>
      </trkpt>
      <trkpt lat="47.09763" lon="3.9477">
        <ele>360.39999389648</ele>
        <time>2022-10-29T17:57:15.000Z</time>
      </trkpt>
      <trkpt lat="47.09723" lon="3.94764">
        <ele>360</ele>
        <time>2022-10-29T17:57:21.000Z</time>
      </trkpt>
      <trkpt lat="47.09712" lon="3.94759">
        <ele>360</ele>
        <time>2022-10-29T17:57:23.000Z</time>
      </trkpt>
      <trkpt lat="47.09702" lon="3.94751">
        <ele>360.20001220703</ele>
        <time>2022-10-29T17:57:25.000Z</time>
      </trkpt>
      <trkpt lat="47.09675" lon="3.94724">
        <ele>361.60000610352</ele>
        <time>2022-10-29T17:57:32.000Z</time>
      </trkpt>
      <trkpt lat="47.09672" lon="3.9472">
        <ele>361.79998779297</ele>
        <time>2022-10-29T17:57:33.000Z</time>
      </trkpt>
      <trkpt lat="47.09666" lon="3.94712">
        <ele>362.20001220703</ele>
        <time>2022-10-29T17:57:35.000Z</time>
      </trkpt>
      <trkpt lat="47.0966" lon="3.94702">
        <ele>362.60000610352</ele>
        <time>2022-10-29T17:57:37.000Z</time>
      </trkpt>
      <trkpt lat="47.09657" lon="3.94697">
        <ele>362.79998779297</ele>
        <time>2022-10-29T17:57:38.000Z</time>
      </trkpt>
      <trkpt lat="47.09655" lon="3.94692">
        <ele>363.20001220703</ele>
        <time>2022-10-29T17:57:39.000Z</time>
      </trkpt>
      <trkpt lat="47.09653" lon="3.94687">
        <ele>363.39999389648</ele>
        <time>2022-10-29T17:57:40.000Z</time>
      </trkpt>
      <trkpt lat="47.09649" lon="3.94675">
        <ele>363.60000610352</ele>
        <time>2022-10-29T17:57:42.000Z</time>
      </trkpt>
      <trkpt lat="47.09647" lon="3.94664">
        <ele>364.20001220703</ele>
        <time>2022-10-29T17:57:44.000Z</time>
      </trkpt>
      <trkpt lat="47.09642" lon="3.94646">
        <ele>364.79998779297</ele>
        <time>2022-10-29T17:57:47.000Z</time>
      </trkpt>
      <trkpt lat="47.09638" lon="3.94636">
        <ele>365.39999389648</ele>
        <time>2022-10-29T17:57:49.000Z</time>
      </trkpt>
      <trkpt lat="47.09635" lon="3.94631">
        <ele>365.39999389648</ele>
        <time>2022-10-29T17:57:50.000Z</time>
      </trkpt>
      <trkpt lat="47.09623" lon="3.94615">
        <ele>366.39999389648</ele>
        <time>2022-10-29T17:57:54.000Z</time>
      </trkpt>
      <trkpt lat="47.09612" lon="3.94605">
        <ele>367.20001220703</ele>
        <time>2022-10-29T17:57:57.000Z</time>
      </trkpt>
      <trkpt lat="47.09605" lon="3.94598">
        <ele>367.60000610352</ele>
        <time>2022-10-29T17:57:59.000Z</time>
      </trkpt>
      <trkpt lat="47.09599" lon="3.94593">
        <ele>368</ele>
        <time>2022-10-29T17:58:01.000Z</time>
      </trkpt>
      <trkpt lat="47.09581" lon="3.9458">
        <ele>369</ele>
        <time>2022-10-29T17:58:06.000Z</time>
      </trkpt>
      <trkpt lat="47.09564" lon="3.94569">
        <ele>370.20001220703</ele>
        <time>2022-10-29T17:58:11.000Z</time>
      </trkpt>
      <trkpt lat="47.09558" lon="3.94565">
        <ele>370.60000610352</ele>
        <time>2022-10-29T17:58:13.000Z</time>
      </trkpt>
      <trkpt lat="47.09543" lon="3.94558">
        <ele>371.20001220703</ele>
        <time>2022-10-29T17:58:17.000Z</time>
      </trkpt>
      <trkpt lat="47.09534" lon="3.94554">
        <ele>371.79998779297</ele>
        <time>2022-10-29T17:58:20.000Z</time>
      </trkpt>
      <trkpt lat="47.09527" lon="3.94551">
        <ele>372.39999389648</ele>
        <time>2022-10-29T17:58:22.000Z</time>
      </trkpt>
      <trkpt lat="47.09512" lon="3.94549">
        <ele>373.39999389648</ele>
        <time>2022-10-29T17:58:27.000Z</time>
      </trkpt>
      <trkpt lat="47.09493" lon="3.94545">
        <ele>374.60000610352</ele>
        <time>2022-10-29T17:58:33.000Z</time>
      </trkpt>
      <trkpt lat="47.09485" lon="3.94544">
        <ele>374.79998779297</ele>
        <time>2022-10-29T17:58:36.000Z</time>
      </trkpt>
      <trkpt lat="47.09474" lon="3.94542">
        <ele>375.60000610352</ele>
        <time>2022-10-29T17:58:40.000Z</time>
      </trkpt>
      <trkpt lat="47.09468" lon="3.94541">
        <ele>375.79998779297</ele>
        <time>2022-10-29T17:58:42.000Z</time>
      </trkpt>
      <trkpt lat="47.09457" lon="3.94541">
        <ele>376</ele>
        <time>2022-10-29T17:58:46.000Z</time>
      </trkpt>
      <trkpt lat="47.09443" lon="3.94545">
        <ele>376.39999389648</ele>
        <time>2022-10-29T17:58:51.000Z</time>
      </trkpt>
      <trkpt lat="47.09427" lon="3.94547">
        <ele>376.60000610352</ele>
        <time>2022-10-29T17:58:55.000Z</time>
      </trkpt>
      <trkpt lat="47.09423" lon="3.94546">
        <ele>376.60000610352</ele>
        <time>2022-10-29T17:58:56.000Z</time>
      </trkpt>
      <trkpt lat="47.09419" lon="3.94544">
        <ele>376.60000610352</ele>
        <time>2022-10-29T17:58:57.000Z</time>
      </trkpt>
      <trkpt lat="47.09398" lon="3.94536">
        <ele>376.39999389648</ele>
        <time>2022-10-29T17:59:01.000Z</time>
      </trkpt>
      <trkpt lat="47.09378" lon="3.94528">
        <ele>375.39999389648</ele>
        <time>2022-10-29T17:59:04.000Z</time>
      </trkpt>
      <trkpt lat="47.09364" lon="3.94523">
        <ele>374.79998779297</ele>
        <time>2022-10-29T17:59:06.000Z</time>
      </trkpt>
      <trkpt lat="47.0935" lon="3.9452">
        <ele>374.20001220703</ele>
        <time>2022-10-29T17:59:08.000Z</time>
      </trkpt>
      <trkpt lat="47.09326" lon="3.94521">
        <ele>373</ele>
        <time>2022-10-29T17:59:11.000Z</time>
      </trkpt>
      <trkpt lat="47.093" lon="3.94527">
        <ele>371.60000610352</ele>
        <time>2022-10-29T17:59:14.000Z</time>
      </trkpt>
      <trkpt lat="47.09283" lon="3.94534">
        <ele>371</ele>
        <time>2022-10-29T17:59:16.000Z</time>
      </trkpt>
      <trkpt lat="47.09275" lon="3.94537">
        <ele>370.60000610352</ele>
        <time>2022-10-29T17:59:17.000Z</time>
      </trkpt>
      <trkpt lat="47.09249" lon="3.94549">
        <ele>369.39999389648</ele>
        <time>2022-10-29T17:59:20.000Z</time>
      </trkpt>
      <trkpt lat="47.09223" lon="3.94561">
        <ele>368.39999389648</ele>
        <time>2022-10-29T17:59:23.000Z</time>
      </trkpt>
      <trkpt lat="47.09214" lon="3.94565">
        <ele>368</ele>
        <time>2022-10-29T17:59:24.000Z</time>
      </trkpt>
      <trkpt lat="47.09194" lon="3.94576">
        <ele>367.20001220703</ele>
        <time>2022-10-29T17:59:26.000Z</time>
      </trkpt>
      <trkpt lat="47.09166" lon="3.94586">
        <ele>366</ele>
        <time>2022-10-29T17:59:29.000Z</time>
      </trkpt>
      <trkpt lat="47.09157" lon="3.94586">
        <ele>365.60000610352</ele>
        <time>2022-10-29T17:59:30.000Z</time>
      </trkpt>
      <trkpt lat="47.09148" lon="3.94584">
        <ele>364.79998779297</ele>
        <time>2022-10-29T17:59:31.000Z</time>
      </trkpt>
      <trkpt lat="47.09133" lon="3.94576">
        <ele>364.20001220703</ele>
        <time>2022-10-29T17:59:33.000Z</time>
      </trkpt>
      <trkpt lat="47.09125" lon="3.94569">
        <ele>363.79998779297</ele>
        <time>2022-10-29T17:59:34.000Z</time>
      </trkpt>
      <trkpt lat="47.09119" lon="3.94562">
        <ele>363.60000610352</ele>
        <time>2022-10-29T17:59:35.000Z</time>
      </trkpt>
      <trkpt lat="47.09113" lon="3.94553">
        <ele>363.20001220703</ele>
        <time>2022-10-29T17:59:36.000Z</time>
      </trkpt>
      <trkpt lat="47.09108" lon="3.94541">
        <ele>363</ele>
        <time>2022-10-29T17:59:37.000Z</time>
      </trkpt>
      <trkpt lat="47.09105" lon="3.9453">
        <ele>362.79998779297</ele>
        <time>2022-10-29T17:59:38.000Z</time>
      </trkpt>
      <trkpt lat="47.09102" lon="3.9452">
        <ele>362.60000610352</ele>
        <time>2022-10-29T17:59:39.000Z</time>
      </trkpt>
      <trkpt lat="47.09089" lon="3.94445">
        <ele>362</ele>
        <time>2022-10-29T17:59:46.000Z</time>
      </trkpt>
      <trkpt lat="47.09085" lon="3.94424">
        <ele>361.60000610352</ele>
        <time>2022-10-29T17:59:48.000Z</time>
      </trkpt>
      <trkpt lat="47.09075" lon="3.94347">
        <ele>360.60000610352</ele>
        <time>2022-10-29T17:59:55.000Z</time>
      </trkpt>
      <trkpt lat="47.09065" lon="3.94278">
        <ele>360.39999389648</ele>
        <time>2022-10-29T18:00:02.000Z</time>
      </trkpt>
      <trkpt lat="47.09054" lon="3.94213">
        <ele>360.79998779297</ele>
        <time>2022-10-29T18:00:10.000Z</time>
      </trkpt>
      <trkpt lat="47.09046" lon="3.94166">
        <ele>361.60000610352</ele>
        <time>2022-10-29T18:00:17.000Z</time>
      </trkpt>
      <trkpt lat="47.09045" lon="3.9416">
        <ele>361.79998779297</ele>
        <time>2022-10-29T18:00:18.000Z</time>
      </trkpt>
      <trkpt lat="47.09039" lon="3.94127">
        <ele>362.60000610352</ele>
        <time>2022-10-29T18:00:23.000Z</time>
      </trkpt>
      <trkpt lat="47.09038" lon="3.94121">
        <ele>362.79998779297</ele>
        <time>2022-10-29T18:00:24.000Z</time>
      </trkpt>
      <trkpt lat="47.09033" lon="3.94077">
        <ele>363.79998779297</ele>
        <time>2022-10-29T18:00:31.000Z</time>
      </trkpt>
      <trkpt lat="47.09032" lon="3.94071">
        <ele>364.20001220703</ele>
        <time>2022-10-29T18:00:32.000Z</time>
      </trkpt>
      <trkpt lat="47.09031" lon="3.94056">
        <ele>365</ele>
        <time>2022-10-29T18:00:35.000Z</time>
      </trkpt>
      <trkpt lat="47.09031" lon="3.9405">
        <ele>365.39999389648</ele>
        <time>2022-10-29T18:00:36.000Z</time>
      </trkpt>
      <trkpt lat="47.09031" lon="3.94035">
        <ele>366.39999389648</ele>
        <time>2022-10-29T18:00:39.000Z</time>
      </trkpt>
      <trkpt lat="47.09032" lon="3.94019">
        <ele>367</ele>
        <time>2022-10-29T18:00:42.000Z</time>
      </trkpt>
      <trkpt lat="47.09033" lon="3.94008">
        <ele>367.79998779297</ele>
        <time>2022-10-29T18:00:44.000Z</time>
      </trkpt>
      <trkpt lat="47.09035" lon="3.93986">
        <ele>368.79998779297</ele>
        <time>2022-10-29T18:00:48.000Z</time>
      </trkpt>
      <trkpt lat="47.09036" lon="3.93982">
        <ele>369</ele>
        <time>2022-10-29T18:00:49.000Z</time>
      </trkpt>
      <trkpt lat="47.09039" lon="3.93963">
        <ele>370</ele>
        <time>2022-10-29T18:00:53.000Z</time>
      </trkpt>
      <trkpt lat="47.09042" lon="3.93942">
        <ele>370.60000610352</ele>
        <time>2022-10-29T18:00:57.000Z</time>
      </trkpt>
      <trkpt lat="47.09043" lon="3.93938">
        <ele>370.79998779297</ele>
        <time>2022-10-29T18:00:58.000Z</time>
      </trkpt>
      <trkpt lat="47.09047" lon="3.93913">
        <ele>372</ele>
        <time>2022-10-29T18:01:03.000Z</time>
      </trkpt>
      <trkpt lat="47.09048" lon="3.93908">
        <ele>372.20001220703</ele>
        <time>2022-10-29T18:01:04.000Z</time>
      </trkpt>
      <trkpt lat="47.09053" lon="3.93884">
        <ele>373</ele>
        <time>2022-10-29T18:01:09.000Z</time>
      </trkpt>
      <trkpt lat="47.09054" lon="3.93871">
        <ele>373.60000610352</ele>
        <time>2022-10-29T18:01:12.000Z</time>
      </trkpt>
      <trkpt lat="47.09056" lon="3.93855">
        <ele>374.20001220703</ele>
        <time>2022-10-29T18:01:15.000Z</time>
      </trkpt>
      <trkpt lat="47.0906" lon="3.93827">
        <ele>375</ele>
        <time>2022-10-29T18:01:21.000Z</time>
      </trkpt>
      <trkpt lat="47.0906" lon="3.93822">
        <ele>375.20001220703</ele>
        <time>2022-10-29T18:01:22.000Z</time>
      </trkpt>
      <trkpt lat="47.09058" lon="3.93794">
        <ele>376.20001220703</ele>
        <time>2022-10-29T18:01:29.000Z</time>
      </trkpt>
      <trkpt lat="47.09058" lon="3.93786">
        <ele>376.39999389648</ele>
        <time>2022-10-29T18:01:31.000Z</time>
      </trkpt>
      <trkpt lat="47.09056" lon="3.93766">
        <ele>377</ele>
        <time>2022-10-29T18:01:36.000Z</time>
      </trkpt>
      <trkpt lat="47.09055" lon="3.93749">
        <ele>377.39999389648</ele>
        <time>2022-10-29T18:01:40.000Z</time>
      </trkpt>
      <trkpt lat="47.09055" lon="3.93746">
        <ele>377.39999389648</ele>
        <time>2022-10-29T18:01:41.000Z</time>
      </trkpt>
      <trkpt lat="47.09055" lon="3.93717">
        <ele>378.20001220703</ele>
        <time>2022-10-29T18:01:48.000Z</time>
      </trkpt>
      <trkpt lat="47.09055" lon="3.93707">
        <ele>378.60000610352</ele>
        <time>2022-10-29T18:01:51.000Z</time>
      </trkpt>
      <trkpt lat="47.09053" lon="3.93694">
        <ele>379</ele>
        <time>2022-10-29T18:01:54.000Z</time>
      </trkpt>
      <trkpt lat="47.09053" lon="3.93677">
        <ele>379.60000610352</ele>
        <time>2022-10-29T18:01:58.000Z</time>
      </trkpt>
      <trkpt lat="47.0905" lon="3.93657">
        <ele>380</ele>
        <time>2022-10-29T18:02:03.000Z</time>
      </trkpt>
      <trkpt lat="47.09046" lon="3.93638">
        <ele>380.60000610352</ele>
        <time>2022-10-29T18:02:08.000Z</time>
      </trkpt>
      <trkpt lat="47.09044" lon="3.93628">
        <ele>381.20001220703</ele>
        <time>2022-10-29T18:02:11.000Z</time>
      </trkpt>
      <trkpt lat="47.09041" lon="3.93616">
        <ele>381.79998779297</ele>
        <time>2022-10-29T18:02:14.000Z</time>
      </trkpt>
      <trkpt lat="47.09037" lon="3.93605">
        <ele>382.20001220703</ele>
        <time>2022-10-29T18:02:17.000Z</time>
      </trkpt>
      <trkpt lat="47.09033" lon="3.9359">
        <ele>382.79998779297</ele>
        <time>2022-10-29T18:02:21.000Z</time>
      </trkpt>
      <trkpt lat="47.0903" lon="3.93583">
        <ele>383.20001220703</ele>
        <time>2022-10-29T18:02:23.000Z</time>
      </trkpt>
      <trkpt lat="47.09024" lon="3.9357">
        <ele>383.79998779297</ele>
        <time>2022-10-29T18:02:27.000Z</time>
      </trkpt>
      <trkpt lat="47.09021" lon="3.93564">
        <ele>384.20001220703</ele>
        <time>2022-10-29T18:02:29.000Z</time>
      </trkpt>
      <trkpt lat="47.09018" lon="3.93551">
        <ele>384.79998779297</ele>
        <time>2022-10-29T18:02:33.000Z</time>
      </trkpt>
      <trkpt lat="47.09016" lon="3.93547">
        <ele>385</ele>
        <time>2022-10-29T18:02:34.000Z</time>
      </trkpt>
      <trkpt lat="47.09014" lon="3.93534">
        <ele>385.39999389648</ele>
        <time>2022-10-29T18:02:37.000Z</time>
      </trkpt>
      <trkpt lat="47.09012" lon="3.93532">
        <ele>385.60000610352</ele>
        <time>2022-10-29T18:02:38.000Z</time>
      </trkpt>
      <trkpt lat="47.09008" lon="3.93526">
        <ele>386</ele>
        <time>2022-10-29T18:02:40.000Z</time>
      </trkpt>
      <trkpt lat="47.09003" lon="3.93515">
        <ele>386.39999389648</ele>
        <time>2022-10-29T18:02:43.000Z</time>
      </trkpt>
      <trkpt lat="47.09002" lon="3.93509">
        <ele>386.79998779297</ele>
        <time>2022-10-29T18:02:45.000Z</time>
      </trkpt>
      <trkpt lat="47.08997" lon="3.93498">
        <ele>387.60000610352</ele>
        <time>2022-10-29T18:02:50.000Z</time>
      </trkpt>
      <trkpt lat="47.08995" lon="3.93493">
        <ele>388</ele>
        <time>2022-10-29T18:02:52.000Z</time>
      </trkpt>
      <trkpt lat="47.08983" lon="3.93477">
        <ele>389</ele>
        <time>2022-10-29T18:02:58.000Z</time>
      </trkpt>
      <trkpt lat="47.08972" lon="3.93466">
        <ele>389.60000610352</ele>
        <time>2022-10-29T18:03:03.000Z</time>
      </trkpt>
      <trkpt lat="47.08967" lon="3.93461">
        <ele>390</ele>
        <time>2022-10-29T18:03:05.000Z</time>
      </trkpt>
      <trkpt lat="47.08962" lon="3.93456">
        <ele>390.39999389648</ele>
        <time>2022-10-29T18:03:07.000Z</time>
      </trkpt>
      <trkpt lat="47.08951" lon="3.93445">
        <ele>391</ele>
        <time>2022-10-29T18:03:11.000Z</time>
      </trkpt>
      <trkpt lat="47.08948" lon="3.93442">
        <ele>391.39999389648</ele>
        <time>2022-10-29T18:03:12.000Z</time>
      </trkpt>
      <trkpt lat="47.08931" lon="3.93428">
        <ele>392</ele>
        <time>2022-10-29T18:03:18.000Z</time>
      </trkpt>
      <trkpt lat="47.08914" lon="3.93416">
        <ele>393</ele>
        <time>2022-10-29T18:03:24.000Z</time>
      </trkpt>
      <trkpt lat="47.08908" lon="3.93412">
        <ele>393.20001220703</ele>
        <time>2022-10-29T18:03:26.000Z</time>
      </trkpt>
      <trkpt lat="47.08899" lon="3.93399">
        <ele>394.20001220703</ele>
        <time>2022-10-29T18:03:31.000Z</time>
      </trkpt>
      <trkpt lat="47.08885" lon="3.93377">
        <ele>395.39999389648</ele>
        <time>2022-10-29T18:03:38.000Z</time>
      </trkpt>
      <trkpt lat="47.08883" lon="3.93373">
        <ele>395.39999389648</ele>
        <time>2022-10-29T18:03:39.000Z</time>
      </trkpt>
      <trkpt lat="47.08874" lon="3.93351">
        <ele>396.39999389648</ele>
        <time>2022-10-29T18:03:45.000Z</time>
      </trkpt>
      <trkpt lat="47.08873" lon="3.93347">
        <ele>396.60000610352</ele>
        <time>2022-10-29T18:03:46.000Z</time>
      </trkpt>
      <trkpt lat="47.08867" lon="3.93331">
        <ele>397</ele>
        <time>2022-10-29T18:03:51.000Z</time>
      </trkpt>
      <trkpt lat="47.0886" lon="3.93321">
        <ele>397.39999389648</ele>
        <time>2022-10-29T18:03:54.000Z</time>
      </trkpt>
      <trkpt lat="47.08855" lon="3.9331">
        <ele>398</ele>
        <time>2022-10-29T18:03:57.000Z</time>
      </trkpt>
      <trkpt lat="47.0885" lon="3.93301">
        <ele>398.39999389648</ele>
        <time>2022-10-29T18:04:00.000Z</time>
      </trkpt>
      <trkpt lat="47.08844" lon="3.93293">
        <ele>399</ele>
        <time>2022-10-29T18:04:03.000Z</time>
      </trkpt>
      <trkpt lat="47.08837" lon="3.93281">
        <ele>399.39999389648</ele>
        <time>2022-10-29T18:04:07.000Z</time>
      </trkpt>
      <trkpt lat="47.08835" lon="3.93279">
        <ele>399.39999389648</ele>
        <time>2022-10-29T18:04:08.000Z</time>
      </trkpt>
      <trkpt lat="47.08825" lon="3.93265">
        <ele>400.39999389648</ele>
        <time>2022-10-29T18:04:13.000Z</time>
      </trkpt>
      <trkpt lat="47.0882" lon="3.93259">
        <ele>400.79998779297</ele>
        <time>2022-10-29T18:04:15.000Z</time>
      </trkpt>
      <trkpt lat="47.08812" lon="3.93247">
        <ele>401.60000610352</ele>
        <time>2022-10-29T18:04:19.000Z</time>
      </trkpt>
      <trkpt lat="47.08805" lon="3.9324">
        <ele>402</ele>
        <time>2022-10-29T18:04:22.000Z</time>
      </trkpt>
      <trkpt lat="47.08796" lon="3.93231">
        <ele>402.79998779297</ele>
        <time>2022-10-29T18:04:26.000Z</time>
      </trkpt>
      <trkpt lat="47.08786" lon="3.93221">
        <ele>403.39999389648</ele>
        <time>2022-10-29T18:04:30.000Z</time>
      </trkpt>
      <trkpt lat="47.08782" lon="3.93219">
        <ele>403.79998779297</ele>
        <time>2022-10-29T18:04:31.000Z</time>
      </trkpt>
      <trkpt lat="47.0877" lon="3.93208">
        <ele>404.79998779297</ele>
        <time>2022-10-29T18:04:36.000Z</time>
      </trkpt>
      <trkpt lat="47.08765" lon="3.93205">
        <ele>405.20001220703</ele>
        <time>2022-10-29T18:04:38.000Z</time>
      </trkpt>
      <trkpt lat="47.08754" lon="3.93195">
        <ele>406</ele>
        <time>2022-10-29T18:04:43.000Z</time>
      </trkpt>
      <trkpt lat="47.08743" lon="3.93188">
        <ele>406.39999389648</ele>
        <time>2022-10-29T18:04:47.000Z</time>
      </trkpt>
      <trkpt lat="47.08732" lon="3.93182">
        <ele>407</ele>
        <time>2022-10-29T18:04:51.000Z</time>
      </trkpt>
      <trkpt lat="47.08728" lon="3.93178">
        <ele>407.39999389648</ele>
        <time>2022-10-29T18:04:53.000Z</time>
      </trkpt>
      <trkpt lat="47.08724" lon="3.93172">
        <ele>408</ele>
        <time>2022-10-29T18:04:56.000Z</time>
      </trkpt>
      <trkpt lat="47.08723" lon="3.9317">
        <ele>408.20001220703</ele>
        <time>2022-10-29T18:04:57.000Z</time>
      </trkpt>
      <trkpt lat="47.08714" lon="3.93163">
        <ele>408.79998779297</ele>
        <time>2022-10-29T18:05:01.000Z</time>
      </trkpt>
      <trkpt lat="47.08709" lon="3.93157">
        <ele>409.20001220703</ele>
        <time>2022-10-29T18:05:04.000Z</time>
      </trkpt>
      <trkpt lat="47.08694" lon="3.93145">
        <ele>410.39999389648</ele>
        <time>2022-10-29T18:05:10.000Z</time>
      </trkpt>
      <trkpt lat="47.0869" lon="3.93141">
        <ele>410.79998779297</ele>
        <time>2022-10-29T18:05:12.000Z</time>
      </trkpt>
      <trkpt lat="47.08677" lon="3.93134">
        <ele>411.39999389648</ele>
        <time>2022-10-29T18:05:16.000Z</time>
      </trkpt>
      <trkpt lat="47.08669" lon="3.93129">
        <ele>411.79998779297</ele>
        <time>2022-10-29T18:05:19.000Z</time>
      </trkpt>
      <trkpt lat="47.08666" lon="3.93125">
        <ele>412</ele>
        <time>2022-10-29T18:05:21.000Z</time>
      </trkpt>
      <trkpt lat="47.08659" lon="3.93118">
        <ele>412.60000610352</ele>
        <time>2022-10-29T18:05:24.000Z</time>
      </trkpt>
      <trkpt lat="47.08645" lon="3.93102">
        <ele>413.39999389648</ele>
        <time>2022-10-29T18:05:31.000Z</time>
      </trkpt>
      <trkpt lat="47.08643" lon="3.931">
        <ele>413.60000610352</ele>
        <time>2022-10-29T18:05:32.000Z</time>
      </trkpt>
      <trkpt lat="47.08635" lon="3.93093">
        <ele>414</ele>
        <time>2022-10-29T18:05:36.000Z</time>
      </trkpt>
      <trkpt lat="47.08634" lon="3.93091">
        <ele>414.39999389648</ele>
        <time>2022-10-29T18:05:37.000Z</time>
      </trkpt>
      <trkpt lat="47.08627" lon="3.93088">
        <ele>414.79998779297</ele>
        <time>2022-10-29T18:05:39.000Z</time>
      </trkpt>
      <trkpt lat="47.08615" lon="3.93083">
        <ele>415.60000610352</ele>
        <time>2022-10-29T18:05:43.000Z</time>
      </trkpt>
      <trkpt lat="47.08611" lon="3.93082">
        <ele>415.79998779297</ele>
        <time>2022-10-29T18:05:44.000Z</time>
      </trkpt>
      <trkpt lat="47.08597" lon="3.93079">
        <ele>416.39999389648</ele>
        <time>2022-10-29T18:05:48.000Z</time>
      </trkpt>
      <trkpt lat="47.08585" lon="3.93078">
        <ele>417</ele>
        <time>2022-10-29T18:05:51.000Z</time>
      </trkpt>
      <trkpt lat="47.08563" lon="3.93071">
        <ele>417.39999389648</ele>
        <time>2022-10-29T18:05:57.000Z</time>
      </trkpt>
      <trkpt lat="47.08548" lon="3.93073">
        <ele>418</ele>
        <time>2022-10-29T18:06:01.000Z</time>
      </trkpt>
      <trkpt lat="47.08539" lon="3.93071">
        <ele>418.60000610352</ele>
        <time>2022-10-29T18:06:04.000Z</time>
      </trkpt>
      <trkpt lat="47.08527" lon="3.93074">
        <ele>419.20001220703</ele>
        <time>2022-10-29T18:06:08.000Z</time>
      </trkpt>
      <trkpt lat="47.08519" lon="3.93075">
        <ele>419.60000610352</ele>
        <time>2022-10-29T18:06:11.000Z</time>
      </trkpt>
      <trkpt lat="47.08502" lon="3.93082">
        <ele>420.20001220703</ele>
        <time>2022-10-29T18:06:19.000Z</time>
      </trkpt>
      <trkpt lat="47.0849" lon="3.93087">
        <ele>421</ele>
        <time>2022-10-29T18:06:25.000Z</time>
      </trkpt>
      <trkpt lat="47.08488" lon="3.93087">
        <ele>421.20001220703</ele>
        <time>2022-10-29T18:06:26.000Z</time>
      </trkpt>
      <trkpt lat="47.08487" lon="3.93087">
        <ele>421.20001220703</ele>
        <time>2022-10-29T18:06:27.000Z</time>
      </trkpt>
      <trkpt lat="47.08481" lon="3.93089">
        <ele>421.60000610352</ele>
        <time>2022-10-29T18:06:30.000Z</time>
      </trkpt>
      <trkpt lat="47.08463" lon="3.93097">
        <ele>422.20001220703</ele>
        <time>2022-10-29T18:06:36.000Z</time>
      </trkpt>
      <trkpt lat="47.0846" lon="3.93098">
        <ele>422.60000610352</ele>
        <time>2022-10-29T18:06:37.000Z</time>
      </trkpt>
      <trkpt lat="47.08442" lon="3.93106">
        <ele>423.60000610352</ele>
        <time>2022-10-29T18:06:44.000Z</time>
      </trkpt>
      <trkpt lat="47.08427" lon="3.93113">
        <ele>424.39999389648</ele>
        <time>2022-10-29T18:06:50.000Z</time>
      </trkpt>
      <trkpt lat="47.08423" lon="3.93116">
        <ele>424.60000610352</ele>
        <time>2022-10-29T18:06:52.000Z</time>
      </trkpt>
      <trkpt lat="47.08411" lon="3.93121">
        <ele>425.20001220703</ele>
        <time>2022-10-29T18:06:57.000Z</time>
      </trkpt>
      <trkpt lat="47.08405" lon="3.93124">
        <ele>425.60000610352</ele>
        <time>2022-10-29T18:07:00.000Z</time>
      </trkpt>
      <trkpt lat="47.08398" lon="3.93128">
        <ele>426.20001220703</ele>
        <time>2022-10-29T18:07:03.000Z</time>
      </trkpt>
      <trkpt lat="47.08387" lon="3.93133">
        <ele>426.79998779297</ele>
        <time>2022-10-29T18:07:08.000Z</time>
      </trkpt>
      <trkpt lat="47.08381" lon="3.93137">
        <ele>427.39999389648</ele>
        <time>2022-10-29T18:07:11.000Z</time>
      </trkpt>
      <trkpt lat="47.08376" lon="3.93139">
        <ele>428</ele>
        <time>2022-10-29T18:07:13.000Z</time>
      </trkpt>
      <trkpt lat="47.08361" lon="3.93145">
        <ele>428.60000610352</ele>
        <time>2022-10-29T18:07:19.000Z</time>
      </trkpt>
      <trkpt lat="47.08356" lon="3.93146">
        <ele>429</ele>
        <time>2022-10-29T18:07:21.000Z</time>
      </trkpt>
      <trkpt lat="47.08342" lon="3.93146">
        <ele>430.20001220703</ele>
        <time>2022-10-29T18:07:27.000Z</time>
      </trkpt>
      <trkpt lat="47.08339" lon="3.93146">
        <ele>430.39999389648</ele>
        <time>2022-10-29T18:07:28.000Z</time>
      </trkpt>
      <trkpt lat="47.08327" lon="3.93144">
        <ele>431.20001220703</ele>
        <time>2022-10-29T18:07:33.000Z</time>
      </trkpt>
      <trkpt lat="47.0832" lon="3.9314">
        <ele>431.60000610352</ele>
        <time>2022-10-29T18:07:36.000Z</time>
      </trkpt>
      <trkpt lat="47.08311" lon="3.93136">
        <ele>432.39999389648</ele>
        <time>2022-10-29T18:07:40.000Z</time>
      </trkpt>
      <trkpt lat="47.08303" lon="3.93128">
        <ele>433.20001220703</ele>
        <time>2022-10-29T18:07:44.000Z</time>
      </trkpt>
      <trkpt lat="47.083" lon="3.93126">
        <ele>433.39999389648</ele>
        <time>2022-10-29T18:07:45.000Z</time>
      </trkpt>
      <trkpt lat="47.08292" lon="3.93117">
        <ele>433.79998779297</ele>
        <time>2022-10-29T18:07:49.000Z</time>
      </trkpt>
      <trkpt lat="47.08284" lon="3.93106">
        <ele>434.39999389648</ele>
        <time>2022-10-29T18:07:53.000Z</time>
      </trkpt>
      <trkpt lat="47.08282" lon="3.93103">
        <ele>434.60000610352</ele>
        <time>2022-10-29T18:07:54.000Z</time>
      </trkpt>
      <trkpt lat="47.08274" lon="3.93088">
        <ele>435.79998779297</ele>
        <time>2022-10-29T18:07:59.000Z</time>
      </trkpt>
      <trkpt lat="47.08267" lon="3.93076">
        <ele>436.39999389648</ele>
        <time>2022-10-29T18:08:03.000Z</time>
      </trkpt>
      <trkpt lat="47.08266" lon="3.93073">
        <ele>436.79998779297</ele>
        <time>2022-10-29T18:08:04.000Z</time>
      </trkpt>
      <trkpt lat="47.08262" lon="3.93055">
        <ele>437.79998779297</ele>
        <time>2022-10-29T18:08:09.000Z</time>
      </trkpt>
      <trkpt lat="47.08261" lon="3.93049">
        <ele>438</ele>
        <time>2022-10-29T18:08:11.000Z</time>
      </trkpt>
      <trkpt lat="47.08258" lon="3.93032">
        <ele>439</ele>
        <time>2022-10-29T18:08:16.000Z</time>
      </trkpt>
      <trkpt lat="47.08256" lon="3.93018">
        <ele>440</ele>
        <time>2022-10-29T18:08:20.000Z</time>
      </trkpt>
      <trkpt lat="47.08255" lon="3.93011">
        <ele>440.39999389648</ele>
        <time>2022-10-29T18:08:22.000Z</time>
      </trkpt>
      <trkpt lat="47.08254" lon="3.92998">
        <ele>441.20001220703</ele>
        <time>2022-10-29T18:08:26.000Z</time>
      </trkpt>
      <trkpt lat="47.08252" lon="3.9299">
        <ele>441.60000610352</ele>
        <time>2022-10-29T18:08:28.000Z</time>
      </trkpt>
      <trkpt lat="47.08251" lon="3.92987">
        <ele>441.60000610352</ele>
        <time>2022-10-29T18:08:29.000Z</time>
      </trkpt>
      <trkpt lat="47.08249" lon="3.92974">
        <ele>442.60000610352</ele>
        <time>2022-10-29T18:08:33.000Z</time>
      </trkpt>
      <trkpt lat="47.08245" lon="3.92956">
        <ele>443.20001220703</ele>
        <time>2022-10-29T18:08:38.000Z</time>
      </trkpt>
      <trkpt lat="47.08244" lon="3.92949">
        <ele>443.60000610352</ele>
        <time>2022-10-29T18:08:40.000Z</time>
      </trkpt>
      <trkpt lat="47.0824" lon="3.92935">
        <ele>444.79998779297</ele>
        <time>2022-10-29T18:08:44.000Z</time>
      </trkpt>
      <trkpt lat="47.08238" lon="3.92922">
        <ele>445.39999389648</ele>
        <time>2022-10-29T18:08:48.000Z</time>
      </trkpt>
      <trkpt lat="47.08236" lon="3.92914">
        <ele>446</ele>
        <time>2022-10-29T18:08:50.000Z</time>
      </trkpt>
      <trkpt lat="47.08232" lon="3.92893">
        <ele>446.79998779297</ele>
        <time>2022-10-29T18:08:56.000Z</time>
      </trkpt>
      <trkpt lat="47.0823" lon="3.92885">
        <ele>447</ele>
        <time>2022-10-29T18:08:58.000Z</time>
      </trkpt>
      <trkpt lat="47.08225" lon="3.92869">
        <ele>447.39999389648</ele>
        <time>2022-10-29T18:09:03.000Z</time>
      </trkpt>
      <trkpt lat="47.08222" lon="3.92868">
        <ele>447.60000610352</ele>
        <time>2022-10-29T18:09:04.000Z</time>
      </trkpt>
      <trkpt lat="47.08217" lon="3.92867">
        <ele>448</ele>
        <time>2022-10-29T18:09:06.000Z</time>
      </trkpt>
      <trkpt lat="47.08215" lon="3.92868">
        <ele>448.39999389648</ele>
        <time>2022-10-29T18:09:07.000Z</time>
      </trkpt>
      <trkpt lat="47.08211" lon="3.92868">
        <ele>448.60000610352</ele>
        <time>2022-10-29T18:09:09.000Z</time>
      </trkpt>
      <trkpt lat="47.08201" lon="3.92871">
        <ele>449</ele>
        <time>2022-10-29T18:09:14.000Z</time>
      </trkpt>
      <trkpt lat="47.08192" lon="3.92872">
        <ele>449.39999389648</ele>
        <time>2022-10-29T18:09:18.000Z</time>
      </trkpt>
      <trkpt lat="47.08185" lon="3.92874">
        <ele>450</ele>
        <time>2022-10-29T18:09:22.000Z</time>
      </trkpt>
      <trkpt lat="47.08179" lon="3.92877">
        <ele>450.39999389648</ele>
        <time>2022-10-29T18:09:25.000Z</time>
      </trkpt>
      <trkpt lat="47.08169" lon="3.92879">
        <ele>451.20001220703</ele>
        <time>2022-10-29T18:09:30.000Z</time>
      </trkpt>
      <trkpt lat="47.08153" lon="3.92885">
        <ele>452.20001220703</ele>
        <time>2022-10-29T18:09:36.000Z</time>
      </trkpt>
      <trkpt lat="47.08133" lon="3.92896">
        <ele>453.39999389648</ele>
        <time>2022-10-29T18:09:43.000Z</time>
      </trkpt>
      <trkpt lat="47.08113" lon="3.92902">
        <ele>454.39999389648</ele>
        <time>2022-10-29T18:09:50.000Z</time>
      </trkpt>
      <trkpt lat="47.08111" lon="3.92903">
        <ele>454.39999389648</ele>
        <time>2022-10-29T18:09:51.000Z</time>
      </trkpt>
      <trkpt lat="47.08091" lon="3.92911">
        <ele>455.39999389648</ele>
        <time>2022-10-29T18:09:58.000Z</time>
      </trkpt>
      <trkpt lat="47.08088" lon="3.92911">
        <ele>456</ele>
        <time>2022-10-29T18:10:00.000Z</time>
      </trkpt>
      <trkpt lat="47.08084" lon="3.92912">
        <ele>456.39999389648</ele>
        <time>2022-10-29T18:10:02.000Z</time>
      </trkpt>
      <trkpt lat="47.08071" lon="3.92917">
        <ele>457.20001220703</ele>
        <time>2022-10-29T18:10:07.000Z</time>
      </trkpt>
      <trkpt lat="47.08065" lon="3.92919">
        <ele>457.39999389648</ele>
        <time>2022-10-29T18:10:09.000Z</time>
      </trkpt>
      <trkpt lat="47.08051" lon="3.92924">
        <ele>458.20001220703</ele>
        <time>2022-10-29T18:10:15.000Z</time>
      </trkpt>
      <trkpt lat="47.08046" lon="3.92927">
        <ele>458.79998779297</ele>
        <time>2022-10-29T18:10:18.000Z</time>
      </trkpt>
      <trkpt lat="47.08044" lon="3.92928">
        <ele>459</ele>
        <time>2022-10-29T18:10:19.000Z</time>
      </trkpt>
      <trkpt lat="47.08034" lon="3.9293">
        <ele>459.79998779297</ele>
        <time>2022-10-29T18:10:23.000Z</time>
      </trkpt>
      <trkpt lat="47.08029" lon="3.92931">
        <ele>460.20001220703</ele>
        <time>2022-10-29T18:10:25.000Z</time>
      </trkpt>
      <trkpt lat="47.08025" lon="3.92933">
        <ele>460.20001220703</ele>
        <time>2022-10-29T18:10:26.000Z</time>
      </trkpt>
      <trkpt lat="47.08023" lon="3.92934">
        <ele>460.39999389648</ele>
        <time>2022-10-29T18:10:27.000Z</time>
      </trkpt>
      <trkpt lat="47.08013" lon="3.92938">
        <ele>460.79998779297</ele>
        <time>2022-10-29T18:10:31.000Z</time>
      </trkpt>
      <trkpt lat="47.08003" lon="3.92941">
        <ele>461.79998779297</ele>
        <time>2022-10-29T18:10:35.000Z</time>
      </trkpt>
      <trkpt lat="47.07982" lon="3.9294">
        <ele>462.79998779297</ele>
        <time>2022-10-29T18:10:43.000Z</time>
      </trkpt>
      <trkpt lat="47.07979" lon="3.92939">
        <ele>463</ele>
        <time>2022-10-29T18:10:44.000Z</time>
      </trkpt>
      <trkpt lat="47.07964" lon="3.92937">
        <ele>463.60000610352</ele>
        <time>2022-10-29T18:10:50.000Z</time>
      </trkpt>
      <trkpt lat="47.07954" lon="3.92938">
        <ele>464</ele>
        <time>2022-10-29T18:10:54.000Z</time>
      </trkpt>
      <trkpt lat="47.07945" lon="3.92936">
        <ele>464.39999389648</ele>
        <time>2022-10-29T18:10:58.000Z</time>
      </trkpt>
      <trkpt lat="47.07933" lon="3.92936">
        <ele>465</ele>
        <time>2022-10-29T18:11:03.000Z</time>
      </trkpt>
      <trkpt lat="47.0793" lon="3.92936">
        <ele>465.20001220703</ele>
        <time>2022-10-29T18:11:04.000Z</time>
      </trkpt>
      <trkpt lat="47.07918" lon="3.92934">
        <ele>465.79998779297</ele>
        <time>2022-10-29T18:11:09.000Z</time>
      </trkpt>
      <trkpt lat="47.07908" lon="3.92932">
        <ele>466.20001220703</ele>
        <time>2022-10-29T18:11:13.000Z</time>
      </trkpt>
      <trkpt lat="47.07899" lon="3.92929">
        <ele>466.39999389648</ele>
        <time>2022-10-29T18:11:17.000Z</time>
      </trkpt>
      <trkpt lat="47.0788" lon="3.92924">
        <ele>467.20001220703</ele>
        <time>2022-10-29T18:11:24.000Z</time>
      </trkpt>
      <trkpt lat="47.07878" lon="3.92923">
        <ele>467.39999389648</ele>
        <time>2022-10-29T18:11:25.000Z</time>
      </trkpt>
      <trkpt lat="47.07859" lon="3.92915">
        <ele>468.20001220703</ele>
        <time>2022-10-29T18:11:31.000Z</time>
      </trkpt>
      <trkpt lat="47.07845" lon="3.92908">
        <ele>468.60000610352</ele>
        <time>2022-10-29T18:11:36.000Z</time>
      </trkpt>
      <trkpt lat="47.07825" lon="3.929">
        <ele>469.39999389648</ele>
        <time>2022-10-29T18:11:42.000Z</time>
      </trkpt>
      <trkpt lat="47.0782" lon="3.92898">
        <ele>469.79998779297</ele>
        <time>2022-10-29T18:11:44.000Z</time>
      </trkpt>
      <trkpt lat="47.07804" lon="3.92891">
        <ele>470.20001220703</ele>
        <time>2022-10-29T18:11:49.000Z</time>
      </trkpt>
      <trkpt lat="47.07791" lon="3.92886">
        <ele>470.79998779297</ele>
        <time>2022-10-29T18:11:53.000Z</time>
      </trkpt>
      <trkpt lat="47.07782" lon="3.92883">
        <ele>471.20001220703</ele>
        <time>2022-10-29T18:11:56.000Z</time>
      </trkpt>
      <trkpt lat="47.07763" lon="3.92874">
        <ele>472</ele>
        <time>2022-10-29T18:12:03.000Z</time>
      </trkpt>
      <trkpt lat="47.07757" lon="3.92871">
        <ele>472</ele>
        <time>2022-10-29T18:12:05.000Z</time>
      </trkpt>
      <trkpt lat="47.07737" lon="3.9286">
        <ele>473</ele>
        <time>2022-10-29T18:12:12.000Z</time>
      </trkpt>
      <trkpt lat="47.07732" lon="3.92858">
        <ele>473.20001220703</ele>
        <time>2022-10-29T18:12:14.000Z</time>
      </trkpt>
      <trkpt lat="47.07712" lon="3.9285">
        <ele>474</ele>
        <time>2022-10-29T18:12:21.000Z</time>
      </trkpt>
      <trkpt lat="47.07697" lon="3.92838">
        <ele>475.20001220703</ele>
        <time>2022-10-29T18:12:27.000Z</time>
      </trkpt>
      <trkpt lat="47.07689" lon="3.92832">
        <ele>475.60000610352</ele>
        <time>2022-10-29T18:12:30.000Z</time>
      </trkpt>
      <trkpt lat="47.07666" lon="3.92813">
        <ele>476.20001220703</ele>
        <time>2022-10-29T18:12:38.000Z</time>
      </trkpt>
      <trkpt lat="47.07664" lon="3.92811">
        <ele>476.39999389648</ele>
        <time>2022-10-29T18:12:39.000Z</time>
      </trkpt>
      <trkpt lat="47.07651" lon="3.92791">
        <ele>477.20001220703</ele>
        <time>2022-10-29T18:12:45.000Z</time>
      </trkpt>
      <trkpt lat="47.07648" lon="3.92788">
        <ele>477.60000610352</ele>
        <time>2022-10-29T18:12:46.000Z</time>
      </trkpt>
      <trkpt lat="47.07639" lon="3.92779">
        <ele>478.39999389648</ele>
        <time>2022-10-29T18:12:49.000Z</time>
      </trkpt>
      <trkpt lat="47.07634" lon="3.92774">
        <ele>478.60000610352</ele>
        <time>2022-10-29T18:12:51.000Z</time>
      </trkpt>
      <trkpt lat="47.07622" lon="3.92759">
        <ele>479</ele>
        <time>2022-10-29T18:12:56.000Z</time>
      </trkpt>
      <trkpt lat="47.07613" lon="3.92751">
        <ele>479.60000610352</ele>
        <time>2022-10-29T18:12:59.000Z</time>
      </trkpt>
      <trkpt lat="47.07606" lon="3.92743">
        <ele>479.79998779297</ele>
        <time>2022-10-29T18:13:02.000Z</time>
      </trkpt>
      <trkpt lat="47.07591" lon="3.92722">
        <ele>480.20001220703</ele>
        <time>2022-10-29T18:13:09.000Z</time>
      </trkpt>
      <trkpt lat="47.07587" lon="3.92717">
        <ele>480.60000610352</ele>
        <time>2022-10-29T18:13:11.000Z</time>
      </trkpt>
      <trkpt lat="47.07574" lon="3.92706">
        <ele>481</ele>
        <time>2022-10-29T18:13:16.000Z</time>
      </trkpt>
      <trkpt lat="47.07563" lon="3.92694">
        <ele>481.79998779297</ele>
        <time>2022-10-29T18:13:20.000Z</time>
      </trkpt>
      <trkpt lat="47.07561" lon="3.92691">
        <ele>482</ele>
        <time>2022-10-29T18:13:21.000Z</time>
      </trkpt>
      <trkpt lat="47.07538" lon="3.9267">
        <ele>482.79998779297</ele>
        <time>2022-10-29T18:13:29.000Z</time>
      </trkpt>
      <trkpt lat="47.07513" lon="3.92649">
        <ele>483.79998779297</ele>
        <time>2022-10-29T18:13:36.000Z</time>
      </trkpt>
      <trkpt lat="47.07509" lon="3.92648">
        <ele>483.79998779297</ele>
        <time>2022-10-29T18:13:37.000Z</time>
      </trkpt>
      <trkpt lat="47.07482" lon="3.92634">
        <ele>484.20001220703</ele>
        <time>2022-10-29T18:13:44.000Z</time>
      </trkpt>
      <trkpt lat="47.0746" lon="3.92631">
        <ele>484.60000610352</ele>
        <time>2022-10-29T18:13:50.000Z</time>
      </trkpt>
      <trkpt lat="47.07451" lon="3.92631">
        <ele>484.79998779297</ele>
        <time>2022-10-29T18:13:53.000Z</time>
      </trkpt>
      <trkpt lat="47.07435" lon="3.92632">
        <ele>485.20001220703</ele>
        <time>2022-10-29T18:13:58.000Z</time>
      </trkpt>
      <trkpt lat="47.07407" lon="3.92639">
        <ele>486.20001220703</ele>
        <time>2022-10-29T18:14:06.000Z</time>
      </trkpt>
      <trkpt lat="47.07383" lon="3.92648">
        <ele>487</ele>
        <time>2022-10-29T18:14:14.000Z</time>
      </trkpt>
      <trkpt lat="47.07378" lon="3.9265">
        <ele>487.20001220703</ele>
        <time>2022-10-29T18:14:16.000Z</time>
      </trkpt>
      <trkpt lat="47.07371" lon="3.92653">
        <ele>487.39999389648</ele>
        <time>2022-10-29T18:14:19.000Z</time>
      </trkpt>
      <trkpt lat="47.07352" lon="3.9266">
        <ele>488</ele>
        <time>2022-10-29T18:14:25.000Z</time>
      </trkpt>
      <trkpt lat="47.07332" lon="3.9267">
        <ele>488.20001220703</ele>
        <time>2022-10-29T18:14:31.000Z</time>
      </trkpt>
      <trkpt lat="47.07316" lon="3.92678">
        <ele>488.79998779297</ele>
        <time>2022-10-29T18:14:36.000Z</time>
      </trkpt>
      <trkpt lat="47.07306" lon="3.92683">
        <ele>489.39999389648</ele>
        <time>2022-10-29T18:14:39.000Z</time>
      </trkpt>
      <trkpt lat="47.07289" lon="3.92691">
        <ele>490</ele>
        <time>2022-10-29T18:14:44.000Z</time>
      </trkpt>
      <trkpt lat="47.07276" lon="3.92697">
        <ele>490.60000610352</ele>
        <time>2022-10-29T18:14:48.000Z</time>
      </trkpt>
      <trkpt lat="47.0727" lon="3.927">
        <ele>490.60000610352</ele>
        <time>2022-10-29T18:14:50.000Z</time>
      </trkpt>
      <trkpt lat="47.07254" lon="3.92707">
        <ele>491.20001220703</ele>
        <time>2022-10-29T18:14:55.000Z</time>
      </trkpt>
      <trkpt lat="47.07247" lon="3.9271">
        <ele>491.60000610352</ele>
        <time>2022-10-29T18:14:57.000Z</time>
      </trkpt>
      <trkpt lat="47.0722" lon="3.92726">
        <ele>492.79998779297</ele>
        <time>2022-10-29T18:15:06.000Z</time>
      </trkpt>
      <trkpt lat="47.07217" lon="3.92728">
        <ele>493</ele>
        <time>2022-10-29T18:15:07.000Z</time>
      </trkpt>
      <trkpt lat="47.07206" lon="3.92737">
        <ele>493.39999389648</ele>
        <time>2022-10-29T18:15:12.000Z</time>
      </trkpt>
      <trkpt lat="47.07193" lon="3.92748">
        <ele>493.79998779297</ele>
        <time>2022-10-29T18:15:16.000Z</time>
      </trkpt>
      <trkpt lat="47.07184" lon="3.92756">
        <ele>494</ele>
        <time>2022-10-29T18:15:19.000Z</time>
      </trkpt>
      <trkpt lat="47.07162" lon="3.92777">
        <ele>494.39999389648</ele>
        <time>2022-10-29T18:15:27.000Z</time>
      </trkpt>
      <trkpt lat="47.07153" lon="3.92785">
        <ele>494.79998779297</ele>
        <time>2022-10-29T18:15:30.000Z</time>
      </trkpt>
      <trkpt lat="47.0713" lon="3.92805">
        <ele>496</ele>
        <time>2022-10-29T18:15:38.000Z</time>
      </trkpt>
      <trkpt lat="47.07127" lon="3.92808">
        <ele>496.20001220703</ele>
        <time>2022-10-29T18:15:39.000Z</time>
      </trkpt>
      <trkpt lat="47.07097" lon="3.92836">
        <ele>497</ele>
        <time>2022-10-29T18:15:50.000Z</time>
      </trkpt>
      <trkpt lat="47.07075" lon="3.92856">
        <ele>497.79998779297</ele>
        <time>2022-10-29T18:15:58.000Z</time>
      </trkpt>
      <trkpt lat="47.07069" lon="3.92861">
        <ele>498.20001220703</ele>
        <time>2022-10-29T18:16:00.000Z</time>
      </trkpt>
      <trkpt lat="47.07048" lon="3.92875">
        <ele>498.79998779297</ele>
        <time>2022-10-29T18:16:08.000Z</time>
      </trkpt>
      <trkpt lat="47.07034" lon="3.92883">
        <ele>499.39999389648</ele>
        <time>2022-10-29T18:16:12.000Z</time>
      </trkpt>
      <trkpt lat="47.07017" lon="3.92892">
        <ele>500</ele>
        <time>2022-10-29T18:16:17.000Z</time>
      </trkpt>
      <trkpt lat="47.07002" lon="3.92896">
        <ele>500.39999389648</ele>
        <time>2022-10-29T18:16:21.000Z</time>
      </trkpt>
      <trkpt lat="47.06992" lon="3.92897">
        <ele>500.60000610352</ele>
        <time>2022-10-29T18:16:24.000Z</time>
      </trkpt>
      <trkpt lat="47.06969" lon="3.92903">
        <ele>500.79998779297</ele>
        <time>2022-10-29T18:16:30.000Z</time>
      </trkpt>
      <trkpt lat="47.06952" lon="3.92904">
        <ele>501.39999389648</ele>
        <time>2022-10-29T18:16:35.000Z</time>
      </trkpt>
      <trkpt lat="47.0694" lon="3.92903">
        <ele>501.60000610352</ele>
        <time>2022-10-29T18:16:39.000Z</time>
      </trkpt>
      <trkpt lat="47.06929" lon="3.92904">
        <ele>502</ele>
        <time>2022-10-29T18:16:43.000Z</time>
      </trkpt>
      <trkpt lat="47.06916" lon="3.92907">
        <ele>502.20001220703</ele>
        <time>2022-10-29T18:16:47.000Z</time>
      </trkpt>
      <trkpt lat="47.06906" lon="3.92907">
        <ele>502.39999389648</ele>
        <time>2022-10-29T18:16:50.000Z</time>
      </trkpt>
      <trkpt lat="47.06885" lon="3.9291">
        <ele>503</ele>
        <time>2022-10-29T18:16:56.000Z</time>
      </trkpt>
      <trkpt lat="47.06875" lon="3.92911">
        <ele>503.60000610352</ele>
        <time>2022-10-29T18:16:59.000Z</time>
      </trkpt>
      <trkpt lat="47.06848" lon="3.92914">
        <ele>504.60000610352</ele>
        <time>2022-10-29T18:17:07.000Z</time>
      </trkpt>
      <trkpt lat="47.06827" lon="3.92915">
        <ele>505.60000610352</ele>
        <time>2022-10-29T18:17:13.000Z</time>
      </trkpt>
      <trkpt lat="47.0682" lon="3.92916">
        <ele>506</ele>
        <time>2022-10-29T18:17:15.000Z</time>
      </trkpt>
      <trkpt lat="47.06799" lon="3.92918">
        <ele>506.60000610352</ele>
        <time>2022-10-29T18:17:21.000Z</time>
      </trkpt>
      <trkpt lat="47.0679" lon="3.92919">
        <ele>507</ele>
        <time>2022-10-29T18:17:24.000Z</time>
      </trkpt>
      <trkpt lat="47.06761" lon="3.92921">
        <ele>507.79998779297</ele>
        <time>2022-10-29T18:17:33.000Z</time>
      </trkpt>
      <trkpt lat="47.06739" lon="3.92925">
        <ele>508.60000610352</ele>
        <time>2022-10-29T18:17:40.000Z</time>
      </trkpt>
      <trkpt lat="47.06732" lon="3.92926">
        <ele>508.79998779297</ele>
        <time>2022-10-29T18:17:42.000Z</time>
      </trkpt>
      <trkpt lat="47.06721" lon="3.92929">
        <ele>509.20001220703</ele>
        <time>2022-10-29T18:17:46.000Z</time>
      </trkpt>
      <trkpt lat="47.06695" lon="3.92931">
        <ele>509.79998779297</ele>
        <time>2022-10-29T18:17:54.000Z</time>
      </trkpt>
      <trkpt lat="47.06665" lon="3.92935">
        <ele>510.79998779297</ele>
        <time>2022-10-29T18:18:03.000Z</time>
      </trkpt>
      <trkpt lat="47.06662" lon="3.92935">
        <ele>511</ele>
        <time>2022-10-29T18:18:04.000Z</time>
      </trkpt>
      <trkpt lat="47.06633" lon="3.92939">
        <ele>511.79998779297</ele>
        <time>2022-10-29T18:18:13.000Z</time>
      </trkpt>
      <trkpt lat="47.0663" lon="3.92939">
        <ele>512</ele>
        <time>2022-10-29T18:18:14.000Z</time>
      </trkpt>
      <trkpt lat="47.06603" lon="3.92942">
        <ele>512.79998779297</ele>
        <time>2022-10-29T18:18:22.000Z</time>
      </trkpt>
      <trkpt lat="47.06597" lon="3.92942">
        <ele>512.79998779297</ele>
        <time>2022-10-29T18:18:24.000Z</time>
      </trkpt>
      <trkpt lat="47.06575" lon="3.92944">
        <ele>513.59997558594</ele>
        <time>2022-10-29T18:18:31.000Z</time>
      </trkpt>
      <trkpt lat="47.06572" lon="3.92944">
        <ele>513.79998779297</ele>
        <time>2022-10-29T18:18:32.000Z</time>
      </trkpt>
      <trkpt lat="47.06539" lon="3.92942">
        <ele>515</ele>
        <time>2022-10-29T18:18:42.000Z</time>
      </trkpt>
      <trkpt lat="47.06517" lon="3.92943">
        <ele>516</ele>
        <time>2022-10-29T18:18:49.000Z</time>
      </trkpt>
      <trkpt lat="47.0651" lon="3.92944">
        <ele>516</ele>
        <time>2022-10-29T18:18:51.000Z</time>
      </trkpt>
      <trkpt lat="47.06485" lon="3.92951">
        <ele>516.59997558594</ele>
        <time>2022-10-29T18:18:59.000Z</time>
      </trkpt>
      <trkpt lat="47.06476" lon="3.92953">
        <ele>517</ele>
        <time>2022-10-29T18:19:02.000Z</time>
      </trkpt>
      <trkpt lat="47.06462" lon="3.92955">
        <ele>517.79998779297</ele>
        <time>2022-10-29T18:19:07.000Z</time>
      </trkpt>
      <trkpt lat="47.06456" lon="3.92956">
        <ele>518</ele>
        <time>2022-10-29T18:19:09.000Z</time>
      </trkpt>
      <trkpt lat="47.06443" lon="3.92958">
        <ele>518.79998779297</ele>
        <time>2022-10-29T18:19:14.000Z</time>
      </trkpt>
      <trkpt lat="47.06437" lon="3.9296">
        <ele>519</ele>
        <time>2022-10-29T18:19:16.000Z</time>
      </trkpt>
      <trkpt lat="47.06426" lon="3.92961">
        <ele>520.20001220703</ele>
        <time>2022-10-29T18:19:20.000Z</time>
      </trkpt>
      <trkpt lat="47.06412" lon="3.92964">
        <ele>521.20001220703</ele>
        <time>2022-10-29T18:19:25.000Z</time>
      </trkpt>
      <trkpt lat="47.06403" lon="3.92964">
        <ele>521.59997558594</ele>
        <time>2022-10-29T18:19:28.000Z</time>
      </trkpt>
      <trkpt lat="47.06394" lon="3.92967">
        <ele>522.20001220703</ele>
        <time>2022-10-29T18:19:31.000Z</time>
      </trkpt>
      <trkpt lat="47.06379" lon="3.9297">
        <ele>523</ele>
        <time>2022-10-29T18:19:36.000Z</time>
      </trkpt>
      <trkpt lat="47.06373" lon="3.92971">
        <ele>523.40002441406</ele>
        <time>2022-10-29T18:19:38.000Z</time>
      </trkpt>
      <trkpt lat="47.06364" lon="3.92973">
        <ele>524.40002441406</ele>
        <time>2022-10-29T18:19:41.000Z</time>
      </trkpt>
      <trkpt lat="47.06355" lon="3.92976">
        <ele>525</ele>
        <time>2022-10-29T18:19:44.000Z</time>
      </trkpt>
      <trkpt lat="47.06349" lon="3.92979">
        <ele>525.40002441406</ele>
        <time>2022-10-29T18:19:46.000Z</time>
      </trkpt>
      <trkpt lat="47.06339" lon="3.92986">
        <ele>526.20001220703</ele>
        <time>2022-10-29T18:19:50.000Z</time>
      </trkpt>
      <trkpt lat="47.06335" lon="3.9299">
        <ele>526.59997558594</ele>
        <time>2022-10-29T18:19:52.000Z</time>
      </trkpt>
      <trkpt lat="47.06324" lon="3.93">
        <ele>527.20001220703</ele>
        <time>2022-10-29T18:19:56.000Z</time>
      </trkpt>
      <trkpt lat="47.0632" lon="3.93007">
        <ele>527.59997558594</ele>
        <time>2022-10-29T18:19:58.000Z</time>
      </trkpt>
      <trkpt lat="47.06314" lon="3.93017">
        <ele>528</ele>
        <time>2022-10-29T18:20:01.000Z</time>
      </trkpt>
      <trkpt lat="47.06309" lon="3.93033">
        <ele>528.59997558594</ele>
        <time>2022-10-29T18:20:05.000Z</time>
      </trkpt>
      <trkpt lat="47.06305" lon="3.9305">
        <ele>529</ele>
        <time>2022-10-29T18:20:09.000Z</time>
      </trkpt>
      <trkpt lat="47.06303" lon="3.93063">
        <ele>529.79998779297</ele>
        <time>2022-10-29T18:20:12.000Z</time>
      </trkpt>
      <trkpt lat="47.06301" lon="3.93085">
        <ele>530.40002441406</ele>
        <time>2022-10-29T18:20:17.000Z</time>
      </trkpt>
      <trkpt lat="47.063" lon="3.93098">
        <ele>530.79998779297</ele>
        <time>2022-10-29T18:20:20.000Z</time>
      </trkpt>
      <trkpt lat="47.06301" lon="3.93116">
        <ele>531.40002441406</ele>
        <time>2022-10-29T18:20:24.000Z</time>
      </trkpt>
      <trkpt lat="47.06303" lon="3.93132">
        <ele>532</ele>
        <time>2022-10-29T18:20:28.000Z</time>
      </trkpt>
      <trkpt lat="47.06308" lon="3.93147">
        <ele>532.59997558594</ele>
        <time>2022-10-29T18:20:32.000Z</time>
      </trkpt>
      <trkpt lat="47.06312" lon="3.9316">
        <ele>533</ele>
        <time>2022-10-29T18:20:35.000Z</time>
      </trkpt>
      <trkpt lat="47.06318" lon="3.93177">
        <ele>533.79998779297</ele>
        <time>2022-10-29T18:20:39.000Z</time>
      </trkpt>
      <trkpt lat="47.06321" lon="3.93186">
        <ele>534.20001220703</ele>
        <time>2022-10-29T18:20:41.000Z</time>
      </trkpt>
      <trkpt lat="47.06324" lon="3.93194">
        <ele>534.40002441406</ele>
        <time>2022-10-29T18:20:43.000Z</time>
      </trkpt>
      <trkpt lat="47.06329" lon="3.9321">
        <ele>535.20001220703</ele>
        <time>2022-10-29T18:20:47.000Z</time>
      </trkpt>
      <trkpt lat="47.0633" lon="3.93214">
        <ele>535.40002441406</ele>
        <time>2022-10-29T18:20:48.000Z</time>
      </trkpt>
      <trkpt lat="47.06331" lon="3.93236">
        <ele>536.20001220703</ele>
        <time>2022-10-29T18:20:53.000Z</time>
      </trkpt>
      <trkpt lat="47.06331" lon="3.93239">
        <ele>536.40002441406</ele>
        <time>2022-10-29T18:20:54.000Z</time>
      </trkpt>
      <trkpt lat="47.06328" lon="3.93262">
        <ele>537.40002441406</ele>
        <time>2022-10-29T18:21:00.000Z</time>
      </trkpt>
      <trkpt lat="47.06323" lon="3.93284">
        <ele>538.40002441406</ele>
        <time>2022-10-29T18:21:07.000Z</time>
      </trkpt>
      <trkpt lat="47.06323" lon="3.93288">
        <ele>538.40002441406</ele>
        <time>2022-10-29T18:21:08.000Z</time>
      </trkpt>
      <trkpt lat="47.06322" lon="3.93304">
        <ele>539.40002441406</ele>
        <time>2022-10-29T18:21:15.000Z</time>
      </trkpt>
      <trkpt lat="47.06322" lon="3.93306">
        <ele>539.40002441406</ele>
        <time>2022-10-29T18:21:16.000Z</time>
      </trkpt>
      <trkpt lat="47.06324" lon="3.93307">
        <ele>539.40002441406</ele>
        <time>2022-10-29T18:21:18.000Z</time>
      </trkpt>
      <trkpt lat="47.06324" lon="3.93306">
        <ele>539.79998779297</ele>
        <time>2022-10-29T18:21:23.000Z</time>
      </trkpt>
      <trkpt lat="47.06324" lon="3.93306">
        <ele>539.79998779297</ele>
        <time>2022-10-29T18:21:36.000Z</time>
      </trkpt>
      <trkpt lat="47.06324" lon="3.93306">
        <ele>539.40002441406</ele>
        <time>2022-10-29T18:22:49.000Z</time>
      </trkpt>
    </trkseg>
  </trk>
</gpx>